<?xml version='1.0' encoding='UTF-8'?><gpx version="1.1" creator="JPX - https://github.com/jenetics/jpx" xmlns="http://www.topografix.com/GPX/1/1"><trk><trkseg><trkpt lat="45.7165483" lon="11.3617883"><ele>197.0</ele><time>2026-04-17T06:59:01.94Z</time></trkpt><trkpt lat="45.7164917" lon="11.3617467"><ele>197.0</ele><time>2026-04-17T06:59:12.439Z</time></trkpt><trkpt lat="45.7165767" lon="11.3615917"><ele>197.0</ele><time>2026-04-17T07:01:33.44Z</time></trkpt><trkpt lat="45.7166433" lon="11.3614733"><ele>197.0</ele><time>2026-04-17T07:01:35.44Z</time></trkpt><trkpt lat="45.7167017" lon="11.36121"><ele>197.16666666666669</ele><time>2026-04-17T07:01:39.439Z</time></trkpt><trkpt lat="45.71671" lon="11.36111"><ele>197.33333333333334</ele><time>2026-04-17T07:01:41.438Z</time></trkpt><trkpt lat="45.716695" lon="11.3610167"><ele>197.5</ele><time>2026-04-17T07:01:44.439Z</time></trkpt><trkpt lat="45.716705" lon="11.36089"><ele>197.66666666666669</ele><time>2026-04-17T07:01:48.439Z</time></trkpt><trkpt lat="45.71675" lon="11.3607533"><ele>197.83333333333334</ele><time>2026-04-17T07:01:50.439Z</time></trkpt><trkpt lat="45.7168017" lon="11.36063"><ele>198.0</ele><time>2026-04-17T07:01:52.439Z</time></trkpt><trkpt lat="45.71685" lon="11.3604983"><ele>198.2</ele><time>2026-04-17T07:01:54.438Z</time></trkpt><trkpt lat="45.7168883" lon="11.360365"><ele>198.4</ele><time>2026-04-17T07:01:56.439Z</time></trkpt><trkpt lat="45.71694" lon="11.3601367"><ele>198.6</ele><time>2026-04-17T07:02:00.439Z</time></trkpt><trkpt lat="45.7169667" lon="11.3600233"><ele>198.79999999999998</ele><time>2026-04-17T07:02:04.438Z</time></trkpt><trkpt lat="45.7170283" lon="11.3599283"><ele>199.0</ele><time>2026-04-17T07:02:06.439Z</time></trkpt><trkpt lat="45.717075" lon="11.3598067"><ele>198.99999999999997</ele><time>2026-04-17T07:02:08.439Z</time></trkpt><trkpt lat="45.7170517" lon="11.3596867"><ele>199.0</ele><time>2026-04-17T07:02:10.439Z</time></trkpt><trkpt lat="45.71699" lon="11.3596017"><ele>199.0</ele><time>2026-04-17T07:02:12.438Z</time></trkpt><trkpt lat="45.716935" lon="11.3595483"><ele>199.0</ele><time>2026-04-17T07:02:13.438Z</time></trkpt><trkpt lat="45.71686" lon="11.3594833"><ele>198.99999999999997</ele><time>2026-04-17T07:02:14.439Z</time></trkpt><trkpt lat="45.71682" lon="11.3594083"><ele>199.0</ele><time>2026-04-17T07:02:15.439Z</time></trkpt><trkpt lat="45.71677" lon="11.35932"><ele>199.2</ele><time>2026-04-17T07:02:16.439Z</time></trkpt><trkpt lat="45.716715" lon="11.3592367"><ele>199.39999999999998</ele><time>2026-04-17T07:02:17.439Z</time></trkpt><trkpt lat="45.7166083" lon="11.35905"><ele>199.6</ele><time>2026-04-17T07:02:19.439Z</time></trkpt><trkpt lat="45.71656" lon="11.3589617"><ele>199.8</ele><time>2026-04-17T07:02:20.438Z</time></trkpt><trkpt lat="45.7165067" lon="11.3588583"><ele>200.0</ele><time>2026-04-17T07:02:21.439Z</time></trkpt><trkpt lat="45.7164433" lon="11.3587583"><ele>199.33333333333334</ele><time>2026-04-17T07:02:22.439Z</time></trkpt><trkpt lat="45.71639" lon="11.3586683"><ele>198.66666666666669</ele><time>2026-04-17T07:02:23.439Z</time></trkpt><trkpt lat="45.7163267" lon="11.3585833"><ele>198.0</ele><time>2026-04-17T07:02:24.439Z</time></trkpt><trkpt lat="45.716275" lon="11.35851"><ele>197.33333333333331</ele><time>2026-04-17T07:02:25.439Z</time></trkpt><trkpt lat="45.7162317" lon="11.3584367"><ele>196.66666666666666</ele><time>2026-04-17T07:02:26.439Z</time></trkpt><trkpt lat="45.71616" lon="11.35828"><ele>196.0</ele><time>2026-04-17T07:02:28.439Z</time></trkpt><trkpt lat="45.7161283" lon="11.358195"><ele>195.99999999999997</ele><time>2026-04-17T07:02:29.438Z</time></trkpt><trkpt lat="45.71607" lon="11.3581583"><ele>196.0</ele><time>2026-04-17T07:02:30.439Z</time></trkpt><trkpt lat="45.7160117" lon="11.3581217"><ele>196.0</ele><time>2026-04-17T07:02:31.439Z</time></trkpt><trkpt lat="45.7159283" lon="11.3581667"><ele>196.0</ele><time>2026-04-17T07:02:32.439Z</time></trkpt><trkpt lat="45.7158517" lon="11.3582133"><ele>195.99999999999997</ele><time>2026-04-17T07:02:33.439Z</time></trkpt><trkpt lat="45.7157817" lon="11.35826"><ele>196.0</ele><time>2026-04-17T07:02:34.439Z</time></trkpt><trkpt lat="45.7157117" lon="11.3582967"><ele>197.0</ele><time>2026-04-17T07:02:35.439Z</time></trkpt><trkpt lat="45.715595" lon="11.358295"><ele>198.0</ele><time>2026-04-17T07:02:37.439Z</time></trkpt><trkpt lat="45.715525" lon="11.35831"><ele>199.0</ele><time>2026-04-17T07:02:38.438Z</time></trkpt><trkpt lat="45.7153917" lon="11.3583633"><ele>200.0</ele><time>2026-04-17T07:02:40.439Z</time></trkpt><trkpt lat="45.7153017" lon="11.358465"><ele>201.0</ele><time>2026-04-17T07:02:42.439Z</time></trkpt><trkpt lat="45.7151967" lon="11.358575"><ele>201.0</ele><time>2026-04-17T07:02:44.438Z</time></trkpt><trkpt lat="45.7151333" lon="11.3586533"><ele>201.0</ele><time>2026-04-17T07:02:45.439Z</time></trkpt><trkpt lat="45.7150667" lon="11.3587283"><ele>201.0</ele><time>2026-04-17T07:02:46.438Z</time></trkpt><trkpt lat="45.7150017" lon="11.3587917"><ele>201.0</ele><time>2026-04-17T07:02:47.439Z</time></trkpt><trkpt lat="45.71493" lon="11.35885"><ele>201.0</ele><time>2026-04-17T07:02:48.439Z</time></trkpt><trkpt lat="45.7148833" lon="11.35892"><ele>201.0</ele><time>2026-04-17T07:02:49.439Z</time></trkpt><trkpt lat="45.7148317" lon="11.35898"><ele>201.0</ele><time>2026-04-17T07:02:50.439Z</time></trkpt><trkpt lat="45.71477" lon="11.359025"><ele>201.0</ele><time>2026-04-17T07:02:51.439Z</time></trkpt><trkpt lat="45.7146867" lon="11.3591033"><ele>201.0</ele><time>2026-04-17T07:02:53.439Z</time></trkpt><trkpt lat="45.7146233" lon="11.3591683"><ele>201.0</ele><time>2026-04-17T07:02:55.438Z</time></trkpt><trkpt lat="45.7145583" lon="11.3592333"><ele>201.0</ele><time>2026-04-17T07:02:58.439Z</time></trkpt><trkpt lat="45.7144883" lon="11.3592217"><ele>201.0</ele><time>2026-04-17T07:03:01.438Z</time></trkpt><trkpt lat="45.7143783" lon="11.3590117"><ele>201.60000000000002</ele><time>2026-04-17T07:03:05.439Z</time></trkpt><trkpt lat="45.71431" lon="11.35891"><ele>202.2</ele><time>2026-04-17T07:03:07.439Z</time></trkpt><trkpt lat="45.71423" lon="11.3588467"><ele>202.8</ele><time>2026-04-17T07:03:09.438Z</time></trkpt><trkpt lat="45.7141217" lon="11.3588267"><ele>203.39999999999998</ele><time>2026-04-17T07:03:11.438Z</time></trkpt><trkpt lat="45.7140067" lon="11.3587883"><ele>204.0</ele><time>2026-04-17T07:03:13.439Z</time></trkpt><trkpt lat="45.7138983" lon="11.3587383"><ele>204.0</ele><time>2026-04-17T07:03:15.438Z</time></trkpt><trkpt lat="45.7137833" lon="11.3586933"><ele>204.0</ele><time>2026-04-17T07:03:17.439Z</time></trkpt><trkpt lat="45.7136717" lon="11.358655"><ele>204.0</ele><time>2026-04-17T07:03:19.438Z</time></trkpt><trkpt lat="45.71356" lon="11.3586067"><ele>204.0</ele><time>2026-04-17T07:03:21.439Z</time></trkpt><trkpt lat="45.71345" lon="11.35855"><ele>203.2</ele><time>2026-04-17T07:03:23.439Z</time></trkpt><trkpt lat="45.7132933" lon="11.3585167"><ele>202.39999999999998</ele><time>2026-04-17T07:03:26.438Z</time></trkpt><trkpt lat="45.7132283" lon="11.3585067"><ele>201.6</ele><time>2026-04-17T07:03:28.439Z</time></trkpt><trkpt lat="45.71316" lon="11.3584767"><ele>200.8</ele><time>2026-04-17T07:03:32.439Z</time></trkpt><trkpt lat="45.7130883" lon="11.358515"><ele>200.0</ele><time>2026-04-17T07:04:23.438Z</time></trkpt><trkpt lat="45.712915" lon="11.3584483"><ele>200.0</ele><time>2026-04-17T07:04:28.438Z</time></trkpt><trkpt lat="45.7128267" lon="11.3584217"><ele>200.0</ele><time>2026-04-17T07:04:30.437Z</time></trkpt><trkpt lat="45.7127317" lon="11.3583967"><ele>200.0</ele><time>2026-04-17T07:04:32.438Z</time></trkpt><trkpt lat="45.7126117" lon="11.358315"><ele>200.0</ele><time>2026-04-17T07:04:34.438Z</time></trkpt><trkpt lat="45.71253" lon="11.3582733"><ele>200.0</ele><time>2026-04-17T07:04:35.437Z</time></trkpt><trkpt lat="45.712445" lon="11.3582367"><ele>199.66666666666669</ele><time>2026-04-17T07:04:36.438Z</time></trkpt><trkpt lat="45.712365" lon="11.3582067"><ele>199.33333333333334</ele><time>2026-04-17T07:04:37.437Z</time></trkpt><trkpt lat="45.7122917" lon="11.35818"><ele>199.0</ele><time>2026-04-17T07:04:38.438Z</time></trkpt><trkpt lat="45.7122117" lon="11.3581533"><ele>198.66666666666669</ele><time>2026-04-17T07:04:39.438Z</time></trkpt><trkpt lat="45.7121267" lon="11.3581167"><ele>198.33333333333334</ele><time>2026-04-17T07:04:40.438Z</time></trkpt><trkpt lat="45.7120417" lon="11.3580717"><ele>198.0</ele><time>2026-04-17T07:04:41.438Z</time></trkpt><trkpt lat="45.7119633" lon="11.358015"><ele>197.4</ele><time>2026-04-17T07:04:42.437Z</time></trkpt><trkpt lat="45.711885" lon="11.3579783"><ele>196.8</ele><time>2026-04-17T07:04:43.437Z</time></trkpt><trkpt lat="45.7118033" lon="11.3579517"><ele>196.2</ele><time>2026-04-17T07:04:44.438Z</time></trkpt><trkpt lat="45.7116417" lon="11.3579083"><ele>195.6</ele><time>2026-04-17T07:04:46.438Z</time></trkpt><trkpt lat="45.71156" lon="11.3578817"><ele>195.0</ele><time>2026-04-17T07:04:47.437Z</time></trkpt><trkpt lat="45.7114867" lon="11.35786"><ele>195.0</ele><time>2026-04-17T07:04:48.438Z</time></trkpt><trkpt lat="45.711415" lon="11.35784"><ele>195.0</ele><time>2026-04-17T07:04:49.438Z</time></trkpt><trkpt lat="45.7113467" lon="11.357815"><ele>195.0</ele><time>2026-04-17T07:04:50.438Z</time></trkpt><trkpt lat="45.7112833" lon="11.3577917"><ele>195.0</ele><time>2026-04-17T07:04:51.437Z</time></trkpt><trkpt lat="45.7111717" lon="11.3577333"><ele>195.0</ele><time>2026-04-17T07:04:53.438Z</time></trkpt><trkpt lat="45.7110867" lon="11.3576767"><ele>195.0</ele><time>2026-04-17T07:04:55.437Z</time></trkpt><trkpt lat="45.7110183" lon="11.3576083"><ele>195.25</ele><time>2026-04-17T07:04:58.437Z</time></trkpt><trkpt lat="45.710975" lon="11.3575383"><ele>195.5</ele><time>2026-04-17T07:05:01.438Z</time></trkpt><trkpt lat="45.710935" lon="11.357455"><ele>195.75</ele><time>2026-04-17T07:05:04.437Z</time></trkpt><trkpt lat="45.7109433" lon="11.3572333"><ele>196.0</ele><time>2026-04-17T07:05:06.438Z</time></trkpt><trkpt lat="45.7109817" lon="11.35694"><ele>195.75</ele><time>2026-04-17T07:05:08.438Z</time></trkpt><trkpt lat="45.71103" lon="11.3567483"><ele>195.5</ele><time>2026-04-17T07:05:09.438Z</time></trkpt><trkpt lat="45.71107" lon="11.35659"><ele>195.25</ele><time>2026-04-17T07:05:10.437Z</time></trkpt><trkpt lat="45.711105" lon="11.3564417"><ele>195.0</ele><time>2026-04-17T07:05:11.438Z</time></trkpt><trkpt lat="45.711145" lon="11.3563133"><ele>195.8</ele><time>2026-04-17T07:05:12.438Z</time></trkpt><trkpt lat="45.7111733" lon="11.3561967"><ele>196.6</ele><time>2026-04-17T07:05:13.438Z</time></trkpt><trkpt lat="45.7111917" lon="11.3561083"><ele>197.39999999999998</ele><time>2026-04-17T07:05:14.437Z</time></trkpt><trkpt lat="45.71123" lon="11.3559567"><ele>198.2</ele><time>2026-04-17T07:05:16.437Z</time></trkpt><trkpt lat="45.7112683" lon="11.3558233"><ele>199.0</ele><time>2026-04-17T07:05:18.438Z</time></trkpt><trkpt lat="45.7112917" lon="11.355685"><ele>199.0</ele><time>2026-04-17T07:05:20.437Z</time></trkpt><trkpt lat="45.711295" lon="11.3555633"><ele>199.0</ele><time>2026-04-17T07:05:22.437Z</time></trkpt><trkpt lat="45.7112283" lon="11.3554633"><ele>199.0</ele><time>2026-04-17T07:05:24.437Z</time></trkpt><trkpt lat="45.7111233" lon="11.3554183"><ele>199.0</ele><time>2026-04-17T07:05:26.438Z</time></trkpt><trkpt lat="45.7110233" lon="11.355375"><ele>199.0</ele><time>2026-04-17T07:05:28.438Z</time></trkpt><trkpt lat="45.71087" lon="11.3552683"><ele>198.66666666666666</ele><time>2026-04-17T07:05:31.438Z</time></trkpt><trkpt lat="45.710805" lon="11.3552183"><ele>198.33333333333331</ele><time>2026-04-17T07:05:32.438Z</time></trkpt><trkpt lat="45.7107467" lon="11.35518"><ele>198.0</ele><time>2026-04-17T07:05:33.438Z</time></trkpt><trkpt lat="45.7106817" lon="11.3551417"><ele>197.66666666666669</ele><time>2026-04-17T07:05:34.438Z</time></trkpt><trkpt lat="45.710605" lon="11.355095"><ele>197.33333333333334</ele><time>2026-04-17T07:05:35.437Z</time></trkpt><trkpt lat="45.71053" lon="11.3550417"><ele>197.0</ele><time>2026-04-17T07:05:36.438Z</time></trkpt><trkpt lat="45.7104533" lon="11.3549817"><ele>197.00000000000003</ele><time>2026-04-17T07:05:37.438Z</time></trkpt><trkpt lat="45.71038" lon="11.354925"><ele>197.0</ele><time>2026-04-17T07:05:38.438Z</time></trkpt><trkpt lat="45.7103167" lon="11.354875"><ele>197.0</ele><time>2026-04-17T07:05:39.438Z</time></trkpt><trkpt lat="45.7102483" lon="11.3548367"><ele>197.0</ele><time>2026-04-17T07:05:40.438Z</time></trkpt><trkpt lat="45.710175" lon="11.3547883"><ele>197.00000000000003</ele><time>2026-04-17T07:05:41.438Z</time></trkpt><trkpt lat="45.7101067" lon="11.35473"><ele>197.0</ele><time>2026-04-17T07:05:42.437Z</time></trkpt><trkpt lat="45.710025" lon="11.3546667"><ele>197.75</ele><time>2026-04-17T07:05:43.438Z</time></trkpt><trkpt lat="45.70993" lon="11.3545983"><ele>198.5</ele><time>2026-04-17T07:05:44.437Z</time></trkpt><trkpt lat="45.7098317" lon="11.3545267"><ele>199.25</ele><time>2026-04-17T07:05:45.438Z</time></trkpt><trkpt lat="45.709725" lon="11.35445"><ele>200.0</ele><time>2026-04-17T07:05:46.438Z</time></trkpt><trkpt lat="45.7096117" lon="11.3543783"><ele>200.0</ele><time>2026-04-17T07:05:47.438Z</time></trkpt><trkpt lat="45.7094967" lon="11.3542867"><ele>200.0</ele><time>2026-04-17T07:05:48.437Z</time></trkpt><trkpt lat="45.70939" lon="11.3542217"><ele>200.0</ele><time>2026-04-17T07:05:49.437Z</time></trkpt><trkpt lat="45.7092133" lon="11.3541033"><ele>200.0</ele><time>2026-04-17T07:05:51.437Z</time></trkpt><trkpt lat="45.7091383" lon="11.3540417"><ele>200.00000000000003</ele><time>2026-04-17T07:05:52.438Z</time></trkpt><trkpt lat="45.7090733" lon="11.3539867"><ele>200.0</ele><time>2026-04-17T07:05:53.437Z</time></trkpt><trkpt lat="45.7090083" lon="11.3539367"><ele>200.0</ele><time>2026-04-17T07:05:54.438Z</time></trkpt><trkpt lat="45.708935" lon="11.3538883"><ele>200.0</ele><time>2026-04-17T07:05:55.437Z</time></trkpt><trkpt lat="45.7088667" lon="11.353845"><ele>200.00000000000003</ele><time>2026-04-17T07:05:56.437Z</time></trkpt><trkpt lat="45.7088" lon="11.353795"><ele>200.0</ele><time>2026-04-17T07:05:57.438Z</time></trkpt><trkpt lat="45.7087317" lon="11.3537383"><ele>200.16666666666669</ele><time>2026-04-17T07:05:58.438Z</time></trkpt><trkpt lat="45.7086717" lon="11.35367"><ele>200.33333333333334</ele><time>2026-04-17T07:05:59.438Z</time></trkpt><trkpt lat="45.708605" lon="11.353595"><ele>200.5</ele><time>2026-04-17T07:06:00.437Z</time></trkpt><trkpt lat="45.7085433" lon="11.3534967"><ele>200.66666666666669</ele><time>2026-04-17T07:06:01.437Z</time></trkpt><trkpt lat="45.70848" lon="11.3534017"><ele>200.83333333333334</ele><time>2026-04-17T07:06:02.438Z</time></trkpt><trkpt lat="45.7084067" lon="11.3533267"><ele>201.0</ele><time>2026-04-17T07:06:03.438Z</time></trkpt><trkpt lat="45.7083383" lon="11.353215"><ele>202.4</ele><time>2026-04-17T07:06:04.438Z</time></trkpt><trkpt lat="45.70828" lon="11.35311"><ele>203.8</ele><time>2026-04-17T07:06:05.438Z</time></trkpt><trkpt lat="45.7082133" lon="11.3529983"><ele>205.20000000000002</ele><time>2026-04-17T07:06:06.438Z</time></trkpt><trkpt lat="45.7081517" lon="11.3529083"><ele>206.60000000000002</ele><time>2026-04-17T07:06:07.438Z</time></trkpt><trkpt lat="45.7081033" lon="11.3528033"><ele>208.0</ele><time>2026-04-17T07:06:08.437Z</time></trkpt><trkpt lat="45.70806" lon="11.3527067"><ele>208.2</ele><time>2026-04-17T07:06:09.438Z</time></trkpt><trkpt lat="45.7080117" lon="11.352625"><ele>208.4</ele><time>2026-04-17T07:06:10.438Z</time></trkpt><trkpt lat="45.70791" lon="11.352475"><ele>208.6</ele><time>2026-04-17T07:06:12.438Z</time></trkpt><trkpt lat="45.70787" lon="11.352385"><ele>208.79999999999998</ele><time>2026-04-17T07:06:13.438Z</time></trkpt><trkpt lat="45.7078367" lon="11.3522767"><ele>209.0</ele><time>2026-04-17T07:06:14.438Z</time></trkpt><trkpt lat="45.7078167" lon="11.3521583"><ele>209.33333333333334</ele><time>2026-04-17T07:06:15.438Z</time></trkpt><trkpt lat="45.7078033" lon="11.3520533"><ele>209.66666666666669</ele><time>2026-04-17T07:06:16.438Z</time></trkpt><trkpt lat="45.707785" lon="11.35188"><ele>210.0</ele><time>2026-04-17T07:06:18.438Z</time></trkpt><trkpt lat="45.7077767" lon="11.351785"><ele>210.33333333333331</ele><time>2026-04-17T07:06:19.437Z</time></trkpt><trkpt lat="45.7077617" lon="11.3516683"><ele>210.66666666666666</ele><time>2026-04-17T07:06:20.438Z</time></trkpt><trkpt lat="45.70774" lon="11.35154"><ele>211.0</ele><time>2026-04-17T07:06:21.437Z</time></trkpt><trkpt lat="45.707705" lon="11.35141"><ele>211.0</ele><time>2026-04-17T07:06:22.438Z</time></trkpt><trkpt lat="45.7076617" lon="11.3512867"><ele>211.0</ele><time>2026-04-17T07:06:23.438Z</time></trkpt><trkpt lat="45.7076133" lon="11.3511717"><ele>211.0</ele><time>2026-04-17T07:06:24.438Z</time></trkpt><trkpt lat="45.70755" lon="11.3510517"><ele>211.0</ele><time>2026-04-17T07:06:25.438Z</time></trkpt><trkpt lat="45.7075033" lon="11.35094"><ele>211.0</ele><time>2026-04-17T07:06:26.437Z</time></trkpt><trkpt lat="45.7074483" lon="11.3508217"><ele>211.0</ele><time>2026-04-17T07:06:27.437Z</time></trkpt><trkpt lat="45.7074" lon="11.3507183"><ele>211.0</ele><time>2026-04-17T07:06:28.437Z</time></trkpt><trkpt lat="45.7073583" lon="11.3506267"><ele>211.0</ele><time>2026-04-17T07:06:29.438Z</time></trkpt><trkpt lat="45.7073217" lon="11.3505367"><ele>211.0</ele><time>2026-04-17T07:06:30.438Z</time></trkpt><trkpt lat="45.7072867" lon="11.3504433"><ele>211.0</ele><time>2026-04-17T07:06:31.437Z</time></trkpt><trkpt lat="45.7071983" lon="11.35025"><ele>211.16666666666666</ele><time>2026-04-17T07:06:33.438Z</time></trkpt><trkpt lat="45.70714" lon="11.350155"><ele>211.33333333333331</ele><time>2026-04-17T07:06:34.438Z</time></trkpt><trkpt lat="45.7070817" lon="11.350065"><ele>211.5</ele><time>2026-04-17T07:06:35.438Z</time></trkpt><trkpt lat="45.7070333" lon="11.349985"><ele>211.66666666666669</ele><time>2026-04-17T07:06:36.438Z</time></trkpt><trkpt lat="45.7069917" lon="11.3499167"><ele>211.83333333333334</ele><time>2026-04-17T07:06:37.438Z</time></trkpt><trkpt lat="45.7069383" lon="11.3498483"><ele>212.0</ele><time>2026-04-17T07:06:38.438Z</time></trkpt><trkpt lat="45.7068783" lon="11.3497767"><ele>212.14285714285714</ele><time>2026-04-17T07:06:39.437Z</time></trkpt><trkpt lat="45.7068183" lon="11.3497117"><ele>212.28571428571428</ele><time>2026-04-17T07:06:40.438Z</time></trkpt><trkpt lat="45.7067667" lon="11.3496517"><ele>212.42857142857142</ele><time>2026-04-17T07:06:41.437Z</time></trkpt><trkpt lat="45.706715" lon="11.3495933"><ele>212.57142857142856</ele><time>2026-04-17T07:06:42.437Z</time></trkpt><trkpt lat="45.7066583" lon="11.349545"><ele>212.71428571428572</ele><time>2026-04-17T07:06:43.438Z</time></trkpt><trkpt lat="45.706605" lon="11.34949"><ele>212.85714285714283</ele><time>2026-04-17T07:06:44.438Z</time></trkpt><trkpt lat="45.70653" lon="11.3493933"><ele>213.0</ele><time>2026-04-17T07:06:46.438Z</time></trkpt><trkpt lat="45.7064317" lon="11.3492733"><ele>213.0</ele><time>2026-04-17T07:06:48.437Z</time></trkpt><trkpt lat="45.7063617" lon="11.349195"><ele>213.0</ele><time>2026-04-17T07:06:49.438Z</time></trkpt><trkpt lat="45.706265" lon="11.3490867"><ele>213.0</ele><time>2026-04-17T07:06:50.438Z</time></trkpt><trkpt lat="45.7061933" lon="11.348985"><ele>213.0</ele><time>2026-04-17T07:06:51.437Z</time></trkpt><trkpt lat="45.7061167" lon="11.3488733"><ele>213.0</ele><time>2026-04-17T07:06:52.437Z</time></trkpt><trkpt lat="45.7059433" lon="11.3486733"><ele>212.8</ele><time>2026-04-17T07:06:54.437Z</time></trkpt><trkpt lat="45.70585" lon="11.3485567"><ele>212.60000000000002</ele><time>2026-04-17T07:06:55.438Z</time></trkpt><trkpt lat="45.7057617" lon="11.3484567"><ele>212.39999999999998</ele><time>2026-04-17T07:06:56.438Z</time></trkpt><trkpt lat="45.705685" lon="11.3483683"><ele>212.2</ele><time>2026-04-17T07:06:57.437Z</time></trkpt><trkpt lat="45.7056033" lon="11.3482717"><ele>212.0</ele><time>2026-04-17T07:06:58.438Z</time></trkpt><trkpt lat="45.7055283" lon="11.348185"><ele>212.00000000000003</ele><time>2026-04-17T07:06:59.438Z</time></trkpt><trkpt lat="45.70547" lon="11.348105"><ele>212.0</ele><time>2026-04-17T07:07:00.437Z</time></trkpt><trkpt lat="45.7054233" lon="11.34802"><ele>212.0</ele><time>2026-04-17T07:07:01.438Z</time></trkpt><trkpt lat="45.7053783" lon="11.3479283"><ele>212.0</ele><time>2026-04-17T07:07:02.438Z</time></trkpt><trkpt lat="45.705345" lon="11.3478333"><ele>212.00000000000003</ele><time>2026-04-17T07:07:03.437Z</time></trkpt><trkpt lat="45.7053283" lon="11.3477217"><ele>212.0</ele><time>2026-04-17T07:07:04.437Z</time></trkpt><trkpt lat="45.7053233" lon="11.3475883"><ele>212.0</ele><time>2026-04-17T07:07:05.437Z</time></trkpt><trkpt lat="45.705325" lon="11.3474283"><ele>212.0</ele><time>2026-04-17T07:07:06.437Z</time></trkpt><trkpt lat="45.70534" lon="11.34728"><ele>212.0</ele><time>2026-04-17T07:07:07.437Z</time></trkpt><trkpt lat="45.7053683" lon="11.347125"><ele>212.0</ele><time>2026-04-17T07:07:08.436Z</time></trkpt><trkpt lat="45.7053817" lon="11.34699"><ele>212.0</ele><time>2026-04-17T07:07:09.437Z</time></trkpt><trkpt lat="45.7053833" lon="11.346855"><ele>212.25</ele><time>2026-04-17T07:07:10.437Z</time></trkpt><trkpt lat="45.7053783" lon="11.3467217"><ele>212.5</ele><time>2026-04-17T07:07:11.437Z</time></trkpt><trkpt lat="45.70536" lon="11.3465933"><ele>212.75</ele><time>2026-04-17T07:07:12.436Z</time></trkpt><trkpt lat="45.7053333" lon="11.3464767"><ele>213.0</ele><time>2026-04-17T07:07:13.436Z</time></trkpt><trkpt lat="45.7052667" lon="11.3461967"><ele>212.99999999999997</ele><time>2026-04-17T07:07:16.436Z</time></trkpt><trkpt lat="45.70524" lon="11.3461017"><ele>213.0</ele><time>2026-04-17T07:07:17.437Z</time></trkpt><trkpt lat="45.7052267" lon="11.3460083"><ele>213.0</ele><time>2026-04-17T07:07:18.437Z</time></trkpt><trkpt lat="45.7052033" lon="11.3459183"><ele>213.0</ele><time>2026-04-17T07:07:19.437Z</time></trkpt><trkpt lat="45.7051567" lon="11.3458217"><ele>213.0</ele><time>2026-04-17T07:07:20.437Z</time></trkpt><trkpt lat="45.7051017" lon="11.3457333"><ele>212.99999999999997</ele><time>2026-04-17T07:07:21.437Z</time></trkpt><trkpt lat="45.7050583" lon="11.3456417"><ele>213.0</ele><time>2026-04-17T07:07:22.436Z</time></trkpt><trkpt lat="45.70497" lon="11.3454817"><ele>213.16666666666666</ele><time>2026-04-17T07:07:24.437Z</time></trkpt><trkpt lat="45.7049283" lon="11.34539"><ele>213.33333333333331</ele><time>2026-04-17T07:07:25.436Z</time></trkpt><trkpt lat="45.7048833" lon="11.3453117"><ele>213.5</ele><time>2026-04-17T07:07:26.436Z</time></trkpt><trkpt lat="45.7048367" lon="11.34525"><ele>213.66666666666666</ele><time>2026-04-17T07:07:27.436Z</time></trkpt><trkpt lat="45.7047317" lon="11.3451367"><ele>213.83333333333331</ele><time>2026-04-17T07:07:29.437Z</time></trkpt><trkpt lat="45.704695" lon="11.3450583"><ele>214.0</ele><time>2026-04-17T07:07:30.437Z</time></trkpt><trkpt lat="45.7046833" lon="11.3449533"><ele>214.0</ele><time>2026-04-17T07:07:31.436Z</time></trkpt><trkpt lat="45.7046833" lon="11.3448533"><ele>213.99999999999997</ele><time>2026-04-17T07:07:32.436Z</time></trkpt><trkpt lat="45.7046583" lon="11.344755"><ele>213.99999999999997</ele><time>2026-04-17T07:07:33.436Z</time></trkpt><trkpt lat="45.7046317" lon="11.3446467"><ele>214.0</ele><time>2026-04-17T07:07:34.437Z</time></trkpt><trkpt lat="45.7045667" lon="11.344445"><ele>214.0</ele><time>2026-04-17T07:07:36.437Z</time></trkpt><trkpt lat="45.7045217" lon="11.3443617"><ele>213.79999999999998</ele><time>2026-04-17T07:07:37.437Z</time></trkpt><trkpt lat="45.7044517" lon="11.3442483"><ele>213.59999999999997</ele><time>2026-04-17T07:07:39.436Z</time></trkpt><trkpt lat="45.7043983" lon="11.34416"><ele>213.4</ele><time>2026-04-17T07:07:42.437Z</time></trkpt><trkpt lat="45.7043467" lon="11.34408"><ele>213.2</ele><time>2026-04-17T07:07:44.436Z</time></trkpt><trkpt lat="45.7042767" lon="11.3439733"><ele>213.0</ele><time>2026-04-17T07:07:47.436Z</time></trkpt><trkpt lat="45.7042083" lon="11.34387"><ele>212.5</ele><time>2026-04-17T07:07:49.437Z</time></trkpt><trkpt lat="45.7041583" lon="11.3438017"><ele>212.0</ele><time>2026-04-17T07:07:50.437Z</time></trkpt><trkpt lat="45.7041133" lon="11.3437117"><ele>211.5</ele><time>2026-04-17T07:07:51.437Z</time></trkpt><trkpt lat="45.7040683" lon="11.3436117"><ele>211.0</ele><time>2026-04-17T07:07:52.436Z</time></trkpt><trkpt lat="45.7040233" lon="11.3435167"><ele>210.5</ele><time>2026-04-17T07:07:53.437Z</time></trkpt><trkpt lat="45.7039917" lon="11.343425"><ele>210.0</ele><time>2026-04-17T07:07:54.437Z</time></trkpt><trkpt lat="45.7039517" lon="11.343265"><ele>210.2</ele><time>2026-04-17T07:07:56.437Z</time></trkpt><trkpt lat="45.7039067" lon="11.343035"><ele>210.4</ele><time>2026-04-17T07:07:59.437Z</time></trkpt><trkpt lat="45.7038917" lon="11.3429283"><ele>210.60000000000002</ele><time>2026-04-17T07:08:00.437Z</time></trkpt><trkpt lat="45.7038967" lon="11.3428233"><ele>210.8</ele><time>2026-04-17T07:08:01.436Z</time></trkpt><trkpt lat="45.7039067" lon="11.3427017"><ele>211.0</ele><time>2026-04-17T07:08:02.437Z</time></trkpt><trkpt lat="45.7039267" lon="11.3425767"><ele>210.99999999999997</ele><time>2026-04-17T07:08:03.436Z</time></trkpt><trkpt lat="45.70394" lon="11.3424683"><ele>211.0</ele><time>2026-04-17T07:08:04.437Z</time></trkpt><trkpt lat="45.7039367" lon="11.3423483"><ele>211.0</ele><time>2026-04-17T07:08:05.437Z</time></trkpt><trkpt lat="45.7039233" lon="11.3422417"><ele>211.0</ele><time>2026-04-17T07:08:06.437Z</time></trkpt><trkpt lat="45.7038933" lon="11.34214"><ele>210.99999999999997</ele><time>2026-04-17T07:08:07.437Z</time></trkpt><trkpt lat="45.703855" lon="11.3420383"><ele>211.0</ele><time>2026-04-17T07:08:08.437Z</time></trkpt><trkpt lat="45.7038167" lon="11.34194"><ele>212.4</ele><time>2026-04-17T07:08:09.437Z</time></trkpt><trkpt lat="45.70377" lon="11.3418417"><ele>213.8</ele><time>2026-04-17T07:08:10.436Z</time></trkpt><trkpt lat="45.7037083" lon="11.3417317"><ele>215.20000000000002</ele><time>2026-04-17T07:08:11.437Z</time></trkpt><trkpt lat="45.703645" lon="11.3416183"><ele>216.60000000000002</ele><time>2026-04-17T07:08:12.437Z</time></trkpt><trkpt lat="45.7036067" lon="11.3415067"><ele>218.0</ele><time>2026-04-17T07:08:13.436Z</time></trkpt><trkpt lat="45.7035817" lon="11.341385"><ele>220.25</ele><time>2026-04-17T07:08:14.437Z</time></trkpt><trkpt lat="45.7035633" lon="11.3412733"><ele>222.5</ele><time>2026-04-17T07:08:15.437Z</time></trkpt><trkpt lat="45.7035583" lon="11.3411717"><ele>224.75</ele><time>2026-04-17T07:08:16.437Z</time></trkpt><trkpt lat="45.7035483" lon="11.341035"><ele>227.0</ele><time>2026-04-17T07:08:18.437Z</time></trkpt><trkpt lat="45.7034817" lon="11.3407283"><ele>227.0</ele><time>2026-04-17T07:08:22.437Z</time></trkpt><trkpt lat="45.7034317" lon="11.3406033"><ele>227.0</ele><time>2026-04-17T07:08:23.437Z</time></trkpt><trkpt lat="45.7033533" lon="11.3404483"><ele>227.0</ele><time>2026-04-17T07:08:24.436Z</time></trkpt><trkpt lat="45.70326" lon="11.3402933"><ele>227.0</ele><time>2026-04-17T07:08:25.437Z</time></trkpt><trkpt lat="45.7031983" lon="11.3401567"><ele>228.75</ele><time>2026-04-17T07:08:26.436Z</time></trkpt><trkpt lat="45.7031533" lon="11.3400083"><ele>230.5</ele><time>2026-04-17T07:08:27.437Z</time></trkpt><trkpt lat="45.7031133" lon="11.3398317"><ele>232.25</ele><time>2026-04-17T07:08:28.437Z</time></trkpt><trkpt lat="45.7030933" lon="11.3396217"><ele>234.0</ele><time>2026-04-17T07:08:29.437Z</time></trkpt><trkpt lat="45.7030767" lon="11.3393833"><ele>236.33333333333331</ele><time>2026-04-17T07:08:30.437Z</time></trkpt><trkpt lat="45.7030567" lon="11.3391633"><ele>238.66666666666666</ele><time>2026-04-17T07:08:31.437Z</time></trkpt><trkpt lat="45.7030417" lon="11.3389467"><ele>241.0</ele><time>2026-04-17T07:08:32.436Z</time></trkpt><trkpt lat="45.7030367" lon="11.3387233"><ele>242.5</ele><time>2026-04-17T07:08:33.437Z</time></trkpt><trkpt lat="45.7030467" lon="11.3384883"><ele>244.0</ele><time>2026-04-17T07:08:34.437Z</time></trkpt><trkpt lat="45.7030633" lon="11.3382717"><ele>245.5</ele><time>2026-04-17T07:08:35.437Z</time></trkpt><trkpt lat="45.7030783" lon="11.33809"><ele>247.0</ele><time>2026-04-17T07:08:36.437Z</time></trkpt><trkpt lat="45.70309" lon="11.3379483"><ele>248.8</ele><time>2026-04-17T07:08:37.436Z</time></trkpt><trkpt lat="45.703085" lon="11.3378217"><ele>250.6</ele><time>2026-04-17T07:08:38.436Z</time></trkpt><trkpt lat="45.7030833" lon="11.337705"><ele>252.40000000000003</ele><time>2026-04-17T07:08:39.437Z</time></trkpt><trkpt lat="45.70309" lon="11.337495"><ele>254.20000000000002</ele><time>2026-04-17T07:08:41.437Z</time></trkpt><trkpt lat="45.703135" lon="11.337365"><ele>256.0</ele><time>2026-04-17T07:08:43.437Z</time></trkpt><trkpt lat="45.70325" lon="11.3372967"><ele>255.99999999999997</ele><time>2026-04-17T07:08:45.437Z</time></trkpt><trkpt lat="45.7033333" lon="11.33728"><ele>256.0</ele><time>2026-04-17T07:08:46.437Z</time></trkpt><trkpt lat="45.70341" lon="11.3372767"><ele>256.0</ele><time>2026-04-17T07:08:47.437Z</time></trkpt><trkpt lat="45.70349" lon="11.3372917"><ele>256.0</ele><time>2026-04-17T07:08:48.437Z</time></trkpt><trkpt lat="45.7035717" lon="11.3373483"><ele>255.99999999999997</ele><time>2026-04-17T07:08:49.437Z</time></trkpt><trkpt lat="45.70366" lon="11.337385"><ele>256.0</ele><time>2026-04-17T07:08:50.437Z</time></trkpt><trkpt lat="45.7037583" lon="11.3374017"><ele>258.2</ele><time>2026-04-17T07:08:51.437Z</time></trkpt><trkpt lat="45.7038433" lon="11.3373833"><ele>260.40000000000003</ele><time>2026-04-17T07:08:52.437Z</time></trkpt><trkpt lat="45.7039233" lon="11.33735"><ele>262.6</ele><time>2026-04-17T07:08:53.437Z</time></trkpt><trkpt lat="45.7040083" lon="11.33727"><ele>264.8</ele><time>2026-04-17T07:08:54.437Z</time></trkpt><trkpt lat="45.7040833" lon="11.337165"><ele>267.0</ele><time>2026-04-17T07:08:55.437Z</time></trkpt><trkpt lat="45.704155" lon="11.3370367"><ele>269.8</ele><time>2026-04-17T07:08:56.437Z</time></trkpt><trkpt lat="45.7042267" lon="11.3368833"><ele>272.6</ele><time>2026-04-17T07:08:57.437Z</time></trkpt><trkpt lat="45.7042817" lon="11.336765"><ele>275.40000000000003</ele><time>2026-04-17T07:08:58.437Z</time></trkpt><trkpt lat="45.7043317" lon="11.33666"><ele>278.2</ele><time>2026-04-17T07:08:59.436Z</time></trkpt><trkpt lat="45.70438" lon="11.3365933"><ele>281.0</ele><time>2026-04-17T07:09:00.436Z</time></trkpt><trkpt lat="45.70457" lon="11.3368017"><ele>285.6666666666667</ele><time>2026-04-17T07:09:04.437Z</time></trkpt><trkpt lat="45.7046033" lon="11.33704"><ele>290.3333333333333</ele><time>2026-04-17T07:09:05.437Z</time></trkpt><trkpt lat="45.7046383" lon="11.337245"><ele>295.0</ele><time>2026-04-17T07:09:06.437Z</time></trkpt><trkpt lat="45.7046633" lon="11.3374467"><ele>295.0</ele><time>2026-04-17T07:09:07.437Z</time></trkpt><trkpt lat="45.704685" lon="11.3376117"><ele>295.0</ele><time>2026-04-17T07:09:08.437Z</time></trkpt><trkpt lat="45.7047183" lon="11.3377483"><ele>295.0</ele><time>2026-04-17T07:09:09.436Z</time></trkpt><trkpt lat="45.7047517" lon="11.3378667"><ele>295.0</ele><time>2026-04-17T07:09:10.436Z</time></trkpt><trkpt lat="45.704805" lon="11.3379667"><ele>295.0</ele><time>2026-04-17T07:09:11.437Z</time></trkpt><trkpt lat="45.704875" lon="11.338045"><ele>295.16666666666663</ele><time>2026-04-17T07:09:12.437Z</time></trkpt><trkpt lat="45.7049633" lon="11.3380867"><ele>295.3333333333333</ele><time>2026-04-17T07:09:13.437Z</time></trkpt><trkpt lat="45.7050567" lon="11.3381133"><ele>295.5</ele><time>2026-04-17T07:09:14.437Z</time></trkpt><trkpt lat="45.7051417" lon="11.3381"><ele>295.6666666666667</ele><time>2026-04-17T07:09:15.436Z</time></trkpt><trkpt lat="45.7052267" lon="11.33807"><ele>295.83333333333337</ele><time>2026-04-17T07:09:16.437Z</time></trkpt><trkpt lat="45.705305" lon="11.3380317"><ele>296.0</ele><time>2026-04-17T07:09:17.437Z</time></trkpt><trkpt lat="45.7054" lon="11.337985"><ele>296.0</ele><time>2026-04-17T07:09:18.436Z</time></trkpt><trkpt lat="45.70548" lon="11.3379333"><ele>296.0</ele><time>2026-04-17T07:09:19.437Z</time></trkpt><trkpt lat="45.7055517" lon="11.337865"><ele>296.0</ele><time>2026-04-17T07:09:20.436Z</time></trkpt><trkpt lat="45.7056217" lon="11.3377417"><ele>296.0</ele><time>2026-04-17T07:09:21.437Z</time></trkpt><trkpt lat="45.7057667" lon="11.3374383"><ele>296.0</ele><time>2026-04-17T07:09:23.437Z</time></trkpt><trkpt lat="45.705835" lon="11.3372767"><ele>296.0</ele><time>2026-04-17T07:09:24.436Z</time></trkpt><trkpt lat="45.7059033" lon="11.3371533"><ele>296.0</ele><time>2026-04-17T07:09:25.437Z</time></trkpt><trkpt lat="45.705965" lon="11.3370633"><ele>296.0</ele><time>2026-04-17T07:09:26.436Z</time></trkpt><trkpt lat="45.70602" lon="11.336995"><ele>296.0</ele><time>2026-04-17T07:09:27.436Z</time></trkpt><trkpt lat="45.7060967" lon="11.3368983"><ele>299.75</ele><time>2026-04-17T07:09:29.437Z</time></trkpt><trkpt lat="45.70606" lon="11.3368017"><ele>303.5</ele><time>2026-04-17T07:09:32.437Z</time></trkpt><trkpt lat="45.7059367" lon="11.3369067"><ele>307.25</ele><time>2026-04-17T07:09:34.437Z</time></trkpt><trkpt lat="45.7058317" lon="11.3369717"><ele>311.0</ele><time>2026-04-17T07:09:35.437Z</time></trkpt><trkpt lat="45.7057167" lon="11.3370117"><ele>311.0</ele><time>2026-04-17T07:09:36.437Z</time></trkpt><trkpt lat="45.7056067" lon="11.3369967"><ele>311.0</ele><time>2026-04-17T07:09:37.436Z</time></trkpt><trkpt lat="45.7055183" lon="11.3369517"><ele>311.0</ele><time>2026-04-17T07:09:38.437Z</time></trkpt><trkpt lat="45.705455" lon="11.3368867"><ele>311.0</ele><time>2026-04-17T07:09:39.436Z</time></trkpt><trkpt lat="45.70541" lon="11.3367967"><ele>311.0</ele><time>2026-04-17T07:09:40.437Z</time></trkpt><trkpt lat="45.70539" lon="11.3366867"><ele>311.0</ele><time>2026-04-17T07:09:41.437Z</time></trkpt><trkpt lat="45.70539" lon="11.3365483"><ele>313.8</ele><time>2026-04-17T07:09:42.437Z</time></trkpt><trkpt lat="45.7054417" lon="11.3362933"><ele>316.6</ele><time>2026-04-17T07:09:44.437Z</time></trkpt><trkpt lat="45.705495" lon="11.3362183"><ele>319.4</ele><time>2026-04-17T07:09:45.437Z</time></trkpt><trkpt lat="45.70557" lon="11.3361867"><ele>322.2</ele><time>2026-04-17T07:09:46.436Z</time></trkpt><trkpt lat="45.705665" lon="11.3361783"><ele>325.0</ele><time>2026-04-17T07:09:48.436Z</time></trkpt><trkpt lat="45.7057533" lon="11.3361333"><ele>325.0</ele><time>2026-04-17T07:09:50.436Z</time></trkpt><trkpt lat="45.7058467" lon="11.3360067"><ele>325.0</ele><time>2026-04-17T07:09:52.436Z</time></trkpt><trkpt lat="45.7058783" lon="11.335885"><ele>325.0</ele><time>2026-04-17T07:09:53.436Z</time></trkpt><trkpt lat="45.705915" lon="11.3357483"><ele>325.0</ele><time>2026-04-17T07:09:54.436Z</time></trkpt><trkpt lat="45.7059733" lon="11.3356167"><ele>325.0</ele><time>2026-04-17T07:09:55.436Z</time></trkpt><trkpt lat="45.7060267" lon="11.3354883"><ele>325.4</ele><time>2026-04-17T07:09:56.436Z</time></trkpt><trkpt lat="45.7060733" lon="11.335335"><ele>325.8</ele><time>2026-04-17T07:09:57.435Z</time></trkpt><trkpt lat="45.7061167" lon="11.335165"><ele>326.20000000000005</ele><time>2026-04-17T07:09:58.436Z</time></trkpt><trkpt lat="45.7061533" lon="11.33502"><ele>326.6</ele><time>2026-04-17T07:09:59.435Z</time></trkpt><trkpt lat="45.7061833" lon="11.3348917"><ele>327.0</ele><time>2026-04-17T07:10:00.436Z</time></trkpt><trkpt lat="45.7062117" lon="11.3348033"><ele>329.20000000000005</ele><time>2026-04-17T07:10:01.436Z</time></trkpt><trkpt lat="45.7061933" lon="11.334695"><ele>331.4</ele><time>2026-04-17T07:10:03.435Z</time></trkpt><trkpt lat="45.7060233" lon="11.3347333"><ele>333.6</ele><time>2026-04-17T07:10:06.435Z</time></trkpt><trkpt lat="45.7059233" lon="11.3347683"><ele>335.79999999999995</ele><time>2026-04-17T07:10:07.436Z</time></trkpt><trkpt lat="45.7058383" lon="11.3347633"><ele>338.0</ele><time>2026-04-17T07:10:08.435Z</time></trkpt><trkpt lat="45.7057567" lon="11.3346933"><ele>341.75</ele><time>2026-04-17T07:10:09.435Z</time></trkpt><trkpt lat="45.70568" lon="11.3345767"><ele>345.5</ele><time>2026-04-17T07:10:10.436Z</time></trkpt><trkpt lat="45.7056217" lon="11.3344367"><ele>349.25</ele><time>2026-04-17T07:10:11.436Z</time></trkpt><trkpt lat="45.705585" lon="11.3342617"><ele>353.0</ele><time>2026-04-17T07:10:12.436Z</time></trkpt><trkpt lat="45.7055567" lon="11.33406"><ele>357.6666666666667</ele><time>2026-04-17T07:10:13.436Z</time></trkpt><trkpt lat="45.7055183" lon="11.3338433"><ele>362.3333333333333</ele><time>2026-04-17T07:10:14.435Z</time></trkpt><trkpt lat="45.70548" lon="11.33363"><ele>367.0</ele><time>2026-04-17T07:10:15.436Z</time></trkpt><trkpt lat="45.7054283" lon="11.333435"><ele>367.0</ele><time>2026-04-17T07:10:16.436Z</time></trkpt><trkpt lat="45.7053833" lon="11.33328"><ele>367.0</ele><time>2026-04-17T07:10:17.436Z</time></trkpt><trkpt lat="45.70535" lon="11.33317"><ele>367.0</ele><time>2026-04-17T07:10:18.436Z</time></trkpt><trkpt lat="45.7052983" lon="11.33306"><ele>367.0</ele><time>2026-04-17T07:10:19.436Z</time></trkpt><trkpt lat="45.7053067" lon="11.3329383"><ele>367.0</ele><time>2026-04-17T07:10:21.435Z</time></trkpt><trkpt lat="45.7053867" lon="11.3329367"><ele>367.0</ele><time>2026-04-17T07:10:23.436Z</time></trkpt><trkpt lat="45.705445" lon="11.332995"><ele>367.0</ele><time>2026-04-17T07:10:24.436Z</time></trkpt><trkpt lat="45.7055583" lon="11.3332183"><ele>367.0</ele><time>2026-04-17T07:10:26.436Z</time></trkpt><trkpt lat="45.7056083" lon="11.3332983"><ele>367.0</ele><time>2026-04-17T07:10:27.436Z</time></trkpt><trkpt lat="45.7056783" lon="11.333285"><ele>367.0</ele><time>2026-04-17T07:10:29.435Z</time></trkpt><trkpt lat="45.7056867" lon="11.3331167"><ele>368.40000000000003</ele><time>2026-04-17T07:10:31.436Z</time></trkpt><trkpt lat="45.7056617" lon="11.333"><ele>369.8</ele><time>2026-04-17T07:10:32.436Z</time></trkpt><trkpt lat="45.7056283" lon="11.33286"><ele>371.2</ele><time>2026-04-17T07:10:33.435Z</time></trkpt><trkpt lat="45.7055933" lon="11.3326967"><ele>372.6</ele><time>2026-04-17T07:10:34.435Z</time></trkpt><trkpt lat="45.7055783" lon="11.3325333"><ele>374.0</ele><time>2026-04-17T07:10:35.436Z</time></trkpt><trkpt lat="45.7055917" lon="11.33237"><ele>374.75</ele><time>2026-04-17T07:10:36.436Z</time></trkpt><trkpt lat="45.7056217" lon="11.3322033"><ele>375.5</ele><time>2026-04-17T07:10:37.436Z</time></trkpt><trkpt lat="45.7056367" lon="11.3320417"><ele>376.25</ele><time>2026-04-17T07:10:38.436Z</time></trkpt><trkpt lat="45.7056233" lon="11.3318833"><ele>377.0</ele><time>2026-04-17T07:10:39.436Z</time></trkpt><trkpt lat="45.7055983" lon="11.3317267"><ele>377.0</ele><time>2026-04-17T07:10:40.436Z</time></trkpt><trkpt lat="45.70557" lon="11.3315783"><ele>377.0</ele><time>2026-04-17T07:10:41.435Z</time></trkpt><trkpt lat="45.7055233" lon="11.3314333"><ele>377.0</ele><time>2026-04-17T07:10:42.436Z</time></trkpt><trkpt lat="45.70547" lon="11.3312967"><ele>377.0</ele><time>2026-04-17T07:10:43.436Z</time></trkpt><trkpt lat="45.7054217" lon="11.3311717"><ele>377.0</ele><time>2026-04-17T07:10:44.435Z</time></trkpt><trkpt lat="45.7053717" lon="11.3310467"><ele>378.75</ele><time>2026-04-17T07:10:45.436Z</time></trkpt><trkpt lat="45.7053033" lon="11.3308133"><ele>380.5</ele><time>2026-04-17T07:10:47.435Z</time></trkpt><trkpt lat="45.7052433" lon="11.3306883"><ele>382.25</ele><time>2026-04-17T07:10:48.436Z</time></trkpt><trkpt lat="45.7051833" lon="11.3305683"><ele>384.0</ele><time>2026-04-17T07:10:49.436Z</time></trkpt><trkpt lat="45.7051183" lon="11.3304583"><ele>389.0</ele><time>2026-04-17T07:10:50.436Z</time></trkpt><trkpt lat="45.7050467" lon="11.3303633"><ele>394.0</ele><time>2026-04-17T07:10:51.435Z</time></trkpt><trkpt lat="45.7049833" lon="11.3302767"><ele>399.0</ele><time>2026-04-17T07:10:52.436Z</time></trkpt><trkpt lat="45.7049183" lon="11.3301833"><ele>404.0</ele><time>2026-04-17T07:10:53.435Z</time></trkpt><trkpt lat="45.7048517" lon="11.3300867"><ele>409.0</ele><time>2026-04-17T07:10:54.436Z</time></trkpt><trkpt lat="45.7047767" lon="11.3300033"><ele>409.00000000000006</ele><time>2026-04-17T07:10:55.436Z</time></trkpt><trkpt lat="45.7047167" lon="11.3299133"><ele>409.0</ele><time>2026-04-17T07:10:56.435Z</time></trkpt><trkpt lat="45.704655" lon="11.3298367"><ele>409.0</ele><time>2026-04-17T07:10:57.436Z</time></trkpt><trkpt lat="45.7045817" lon="11.3297583"><ele>409.0</ele><time>2026-04-17T07:10:58.436Z</time></trkpt><trkpt lat="45.7045017" lon="11.3297"><ele>409.00000000000006</ele><time>2026-04-17T07:10:59.435Z</time></trkpt><trkpt lat="45.7044217" lon="11.329645"><ele>409.0</ele><time>2026-04-17T07:11:00.436Z</time></trkpt><trkpt lat="45.704345" lon="11.32958"><ele>415.79999999999995</ele><time>2026-04-17T07:11:01.436Z</time></trkpt><trkpt lat="45.704265" lon="11.3294983"><ele>422.59999999999997</ele><time>2026-04-17T07:11:02.436Z</time></trkpt><trkpt lat="45.7041817" lon="11.3294133"><ele>429.4</ele><time>2026-04-17T07:11:03.436Z</time></trkpt><trkpt lat="45.7041017" lon="11.3293383"><ele>436.2</ele><time>2026-04-17T07:11:04.436Z</time></trkpt><trkpt lat="45.7040233" lon="11.3292733"><ele>443.0</ele><time>2026-04-17T07:11:05.435Z</time></trkpt><trkpt lat="45.70394" lon="11.329215"><ele>443.0</ele><time>2026-04-17T07:11:06.436Z</time></trkpt><trkpt lat="45.7037583" lon="11.32915"><ele>443.0</ele><time>2026-04-17T07:11:08.436Z</time></trkpt><trkpt lat="45.7036483" lon="11.3291233"><ele>443.0</ele><time>2026-04-17T07:11:09.436Z</time></trkpt><trkpt lat="45.703545" lon="11.3290933"><ele>443.0</ele><time>2026-04-17T07:11:10.435Z</time></trkpt><trkpt lat="45.7034483" lon="11.3290667"><ele>444.16666666666663</ele><time>2026-04-17T07:11:11.436Z</time></trkpt><trkpt lat="45.7033583" lon="11.32905"><ele>445.3333333333333</ele><time>2026-04-17T07:11:12.435Z</time></trkpt><trkpt lat="45.703265" lon="11.329045"><ele>446.5</ele><time>2026-04-17T07:11:13.435Z</time></trkpt><trkpt lat="45.703175" lon="11.329035"><ele>447.66666666666663</ele><time>2026-04-17T07:11:14.435Z</time></trkpt><trkpt lat="45.70309" lon="11.3290267"><ele>448.8333333333333</ele><time>2026-04-17T07:11:15.436Z</time></trkpt><trkpt lat="45.7030033" lon="11.3290233"><ele>450.0</ele><time>2026-04-17T07:11:16.435Z</time></trkpt><trkpt lat="45.70292" lon="11.3290133"><ele>450.0</ele><time>2026-04-17T07:11:17.435Z</time></trkpt><trkpt lat="45.7028417" lon="11.329005"><ele>450.0</ele><time>2026-04-17T07:11:18.436Z</time></trkpt><trkpt lat="45.7027783" lon="11.32898"><ele>450.0</ele><time>2026-04-17T07:11:19.436Z</time></trkpt><trkpt lat="45.7026833" lon="11.3289233"><ele>450.0</ele><time>2026-04-17T07:11:21.436Z</time></trkpt><trkpt lat="45.7026317" lon="11.3288333"><ele>450.0</ele><time>2026-04-17T07:11:23.436Z</time></trkpt><trkpt lat="45.702555" lon="11.328715"><ele>450.0</ele><time>2026-04-17T07:11:25.435Z</time></trkpt><trkpt lat="45.7025167" lon="11.3286283"><ele>456.0</ele><time>2026-04-17T07:11:26.435Z</time></trkpt><trkpt lat="45.70247" lon="11.3285633"><ele>462.0</ele><time>2026-04-17T07:11:27.436Z</time></trkpt><trkpt lat="45.7023183" lon="11.3284633"><ele>468.0</ele><time>2026-04-17T07:11:32.436Z</time></trkpt><trkpt lat="45.7024" lon="11.3284267"><ele>474.0</ele><time>2026-04-17T07:11:36.436Z</time></trkpt><trkpt lat="45.7025217" lon="11.3284017"><ele>480.0</ele><time>2026-04-17T07:11:38.436Z</time></trkpt><trkpt lat="45.7025967" lon="11.3283583"><ele>480.0</ele><time>2026-04-17T07:11:39.436Z</time></trkpt><trkpt lat="45.70267" lon="11.3282933"><ele>480.0</ele><time>2026-04-17T07:11:40.436Z</time></trkpt><trkpt lat="45.7027333" lon="11.328235"><ele>480.0</ele><time>2026-04-17T07:11:41.436Z</time></trkpt><trkpt lat="45.70279" lon="11.3281883"><ele>480.0</ele><time>2026-04-17T07:11:42.436Z</time></trkpt><trkpt lat="45.70285" lon="11.32816"><ele>480.0</ele><time>2026-04-17T07:11:43.435Z</time></trkpt><trkpt lat="45.70297" lon="11.3281233"><ele>480.0</ele><time>2026-04-17T07:11:45.436Z</time></trkpt><trkpt lat="45.70308" lon="11.3280583"><ele>483.25</ele><time>2026-04-17T07:11:47.435Z</time></trkpt><trkpt lat="45.7031733" lon="11.3279483"><ele>486.5</ele><time>2026-04-17T07:11:49.435Z</time></trkpt><trkpt lat="45.7032767" lon="11.3277317"><ele>489.75</ele><time>2026-04-17T07:11:53.435Z</time></trkpt><trkpt lat="45.70327" lon="11.3276083"><ele>493.0</ele><time>2026-04-17T07:11:56.436Z</time></trkpt><trkpt lat="45.703225" lon="11.3275183"><ele>493.0</ele><time>2026-04-17T07:11:58.435Z</time></trkpt><trkpt lat="45.7031533" lon="11.327395"><ele>492.99999999999994</ele><time>2026-04-17T07:12:00.436Z</time></trkpt><trkpt lat="45.7031017" lon="11.327235"><ele>492.99999999999994</ele><time>2026-04-17T07:12:02.436Z</time></trkpt><trkpt lat="45.703075" lon="11.3271517"><ele>493.0</ele><time>2026-04-17T07:12:03.436Z</time></trkpt><trkpt lat="45.703025" lon="11.3270217"><ele>493.0</ele><time>2026-04-17T07:12:05.435Z</time></trkpt><trkpt lat="45.7029633" lon="11.326985"><ele>494.79999999999995</ele><time>2026-04-17T07:12:07.435Z</time></trkpt><trkpt lat="45.7028983" lon="11.32701"><ele>496.59999999999997</ele><time>2026-04-17T07:12:09.436Z</time></trkpt><trkpt lat="45.7028167" lon="11.3270633"><ele>498.40000000000003</ele><time>2026-04-17T07:12:11.436Z</time></trkpt><trkpt lat="45.7026733" lon="11.3271067"><ele>500.20000000000005</ele><time>2026-04-17T07:12:15.436Z</time></trkpt><trkpt lat="45.7026" lon="11.327055"><ele>502.0</ele><time>2026-04-17T07:12:18.436Z</time></trkpt><trkpt lat="45.7025383" lon="11.3270283"><ele>503.20000000000005</ele><time>2026-04-17T07:12:20.436Z</time></trkpt><trkpt lat="45.7024717" lon="11.3269883"><ele>504.40000000000003</ele><time>2026-04-17T07:12:22.436Z</time></trkpt><trkpt lat="45.702355" lon="11.3269333"><ele>505.59999999999997</ele><time>2026-04-17T07:12:24.436Z</time></trkpt><trkpt lat="45.70228" lon="11.326915"><ele>506.79999999999995</ele><time>2026-04-17T07:12:25.436Z</time></trkpt><trkpt lat="45.7021633" lon="11.3269"><ele>508.0</ele><time>2026-04-17T07:12:27.436Z</time></trkpt><trkpt lat="45.7020367" lon="11.326905"><ele>508.0</ele><time>2026-04-17T07:12:29.434Z</time></trkpt><trkpt lat="45.701965" lon="11.3269"><ele>507.99999999999994</ele><time>2026-04-17T07:12:30.435Z</time></trkpt><trkpt lat="45.70189" lon="11.3269067"><ele>507.99999999999994</ele><time>2026-04-17T07:12:31.435Z</time></trkpt><trkpt lat="45.7017833" lon="11.3269"><ele>508.0</ele><time>2026-04-17T07:12:32.434Z</time></trkpt><trkpt lat="45.7016" lon="11.3269067"><ele>508.0</ele><time>2026-04-17T07:12:34.434Z</time></trkpt><trkpt lat="45.7015217" lon="11.3268983"><ele>507.1666666666667</ele><time>2026-04-17T07:12:35.435Z</time></trkpt><trkpt lat="45.7014433" lon="11.3268817"><ele>506.33333333333337</ele><time>2026-04-17T07:12:36.434Z</time></trkpt><trkpt lat="45.70137" lon="11.3268633"><ele>505.5</ele><time>2026-04-17T07:12:37.435Z</time></trkpt><trkpt lat="45.7013017" lon="11.3268433"><ele>504.66666666666663</ele><time>2026-04-17T07:12:38.434Z</time></trkpt><trkpt lat="45.7012367" lon="11.326805"><ele>503.8333333333333</ele><time>2026-04-17T07:12:39.435Z</time></trkpt><trkpt lat="45.7011783" lon="11.326765"><ele>503.0</ele><time>2026-04-17T07:12:40.434Z</time></trkpt><trkpt lat="45.701095" lon="11.326685"><ele>503.4</ele><time>2026-04-17T07:12:42.435Z</time></trkpt><trkpt lat="45.7010233" lon="11.326625"><ele>503.79999999999995</ele><time>2026-04-17T07:12:44.435Z</time></trkpt><trkpt lat="45.7008883" lon="11.3265967"><ele>504.2</ele><time>2026-04-17T07:12:46.434Z</time></trkpt><trkpt lat="45.7008117" lon="11.3266"><ele>504.6</ele><time>2026-04-17T07:12:47.435Z</time></trkpt><trkpt lat="45.7007017" lon="11.3266067"><ele>505.0</ele><time>2026-04-17T07:12:49.435Z</time></trkpt><trkpt lat="45.7006017" lon="11.3266617"><ele>505.0</ele><time>2026-04-17T07:12:51.435Z</time></trkpt><trkpt lat="45.70055" lon="11.326715"><ele>505.0</ele><time>2026-04-17T07:12:52.435Z</time></trkpt><trkpt lat="45.7004933" lon="11.326775"><ele>505.0</ele><time>2026-04-17T07:12:53.435Z</time></trkpt><trkpt lat="45.70037" lon="11.326865"><ele>505.0</ele><time>2026-04-17T07:12:55.435Z</time></trkpt><trkpt lat="45.70028" lon="11.3268383"><ele>505.0</ele><time>2026-04-17T07:12:57.434Z</time></trkpt><trkpt lat="45.7002217" lon="11.32674"><ele>503.6666666666667</ele><time>2026-04-17T07:12:59.435Z</time></trkpt><trkpt lat="45.70012" lon="11.3267167"><ele>502.33333333333337</ele><time>2026-04-17T07:13:01.435Z</time></trkpt><trkpt lat="45.7000467" lon="11.3267217"><ele>501.0</ele><time>2026-04-17T07:13:02.435Z</time></trkpt><trkpt lat="45.6999767" lon="11.32672"><ele>499.66666666666663</ele><time>2026-04-17T07:13:03.435Z</time></trkpt><trkpt lat="45.6999067" lon="11.3266967"><ele>498.3333333333333</ele><time>2026-04-17T07:13:04.435Z</time></trkpt><trkpt lat="45.6998383" lon="11.3266767"><ele>497.0</ele><time>2026-04-17T07:13:05.435Z</time></trkpt><trkpt lat="45.6997233" lon="11.326635"><ele>496.99999999999994</ele><time>2026-04-17T07:13:07.434Z</time></trkpt><trkpt lat="45.6996067" lon="11.32664"><ele>497.0</ele><time>2026-04-17T07:13:09.434Z</time></trkpt><trkpt lat="45.69954" lon="11.3266633"><ele>497.0</ele><time>2026-04-17T07:13:10.435Z</time></trkpt><trkpt lat="45.69947" lon="11.3267"><ele>497.0</ele><time>2026-04-17T07:13:11.434Z</time></trkpt><trkpt lat="45.6993967" lon="11.3267367"><ele>496.99999999999994</ele><time>2026-04-17T07:13:12.434Z</time></trkpt><trkpt lat="45.6993133" lon="11.3267733"><ele>497.0</ele><time>2026-04-17T07:13:13.435Z</time></trkpt><trkpt lat="45.6992383" lon="11.32681"><ele>496.8</ele><time>2026-04-17T07:13:14.435Z</time></trkpt><trkpt lat="45.6990883" lon="11.3268633"><ele>496.6</ele><time>2026-04-17T07:13:16.435Z</time></trkpt><trkpt lat="45.6990217" lon="11.3268817"><ele>496.40000000000003</ele><time>2026-04-17T07:13:17.434Z</time></trkpt><trkpt lat="45.698925" lon="11.326895"><ele>496.20000000000005</ele><time>2026-04-17T07:13:19.434Z</time></trkpt><trkpt lat="45.698865" lon="11.32694"><ele>496.0</ele><time>2026-04-17T07:13:21.434Z</time></trkpt><trkpt lat="45.69886" lon="11.327065"><ele>496.00000000000006</ele><time>2026-04-17T07:13:24.435Z</time></trkpt><trkpt lat="45.6989" lon="11.3271583"><ele>496.0</ele><time>2026-04-17T07:13:27.434Z</time></trkpt><trkpt lat="45.6989417" lon="11.3272467"><ele>496.0</ele><time>2026-04-17T07:13:30.434Z</time></trkpt><trkpt lat="45.6989233" lon="11.3273483"><ele>496.0</ele><time>2026-04-17T07:13:39.434Z</time></trkpt><trkpt lat="45.6987917" lon="11.3274183"><ele>496.00000000000006</ele><time>2026-04-17T07:13:43.434Z</time></trkpt><trkpt lat="45.6987333" lon="11.3273517"><ele>496.0</ele><time>2026-04-17T07:13:45.435Z</time></trkpt><trkpt lat="45.698695" lon="11.327245"><ele>496.0</ele><time>2026-04-17T07:13:47.435Z</time></trkpt><trkpt lat="45.6986733" lon="11.3271233"><ele>496.00000000000006</ele><time>2026-04-17T07:13:49.435Z</time></trkpt><trkpt lat="45.69866" lon="11.327035"><ele>496.0</ele><time>2026-04-17T07:13:50.435Z</time></trkpt><trkpt lat="45.698645" lon="11.326935"><ele>496.0</ele><time>2026-04-17T07:13:51.434Z</time></trkpt><trkpt lat="45.6986233" lon="11.3268317"><ele>496.00000000000006</ele><time>2026-04-17T07:13:52.434Z</time></trkpt><trkpt lat="45.6986067" lon="11.32674"><ele>496.0</ele><time>2026-04-17T07:13:53.435Z</time></trkpt><trkpt lat="45.6985783" lon="11.326645"><ele>496.0</ele><time>2026-04-17T07:13:54.435Z</time></trkpt><trkpt lat="45.6985417" lon="11.3265467"><ele>494.83333333333337</ele><time>2026-04-17T07:13:55.435Z</time></trkpt><trkpt lat="45.6985033" lon="11.3264467"><ele>493.6666666666667</ele><time>2026-04-17T07:13:56.435Z</time></trkpt><trkpt lat="45.6984567" lon="11.3263383"><ele>492.5</ele><time>2026-04-17T07:13:57.434Z</time></trkpt><trkpt lat="45.6984067" lon="11.3262333"><ele>491.33333333333337</ele><time>2026-04-17T07:13:58.435Z</time></trkpt><trkpt lat="45.6983583" lon="11.3261217"><ele>490.1666666666667</ele><time>2026-04-17T07:13:59.434Z</time></trkpt><trkpt lat="45.6983067" lon="11.3260133"><ele>489.0</ele><time>2026-04-17T07:14:00.434Z</time></trkpt><trkpt lat="45.698195" lon="11.3258083"><ele>489.0</ele><time>2026-04-17T07:14:02.434Z</time></trkpt><trkpt lat="45.69814" lon="11.3257133"><ele>489.0</ele><time>2026-04-17T07:14:03.435Z</time></trkpt><trkpt lat="45.6980817" lon="11.325655"><ele>489.0</ele><time>2026-04-17T07:14:04.435Z</time></trkpt><trkpt lat="45.6980233" lon="11.32561"><ele>489.0</ele><time>2026-04-17T07:14:05.434Z</time></trkpt><trkpt lat="45.6979633" lon="11.325575"><ele>489.0</ele><time>2026-04-17T07:14:06.434Z</time></trkpt><trkpt lat="45.6978483" lon="11.3255683"><ele>489.0</ele><time>2026-04-17T07:14:08.435Z</time></trkpt><trkpt lat="45.697765" lon="11.3255517"><ele>490.2</ele><time>2026-04-17T07:14:10.435Z</time></trkpt><trkpt lat="45.6976767" lon="11.325465"><ele>491.4</ele><time>2026-04-17T07:14:12.434Z</time></trkpt><trkpt lat="45.6976233" lon="11.3254"><ele>492.6</ele><time>2026-04-17T07:14:13.435Z</time></trkpt><trkpt lat="45.69755" lon="11.3253133"><ele>493.8</ele><time>2026-04-17T07:14:14.435Z</time></trkpt><trkpt lat="45.69746" lon="11.3252117"><ele>495.0</ele><time>2026-04-17T07:14:15.435Z</time></trkpt><trkpt lat="45.6973767" lon="11.325105"><ele>495.0</ele><time>2026-04-17T07:14:16.435Z</time></trkpt><trkpt lat="45.6973" lon="11.3249967"><ele>495.0</ele><time>2026-04-17T07:14:17.434Z</time></trkpt><trkpt lat="45.697235" lon="11.32489"><ele>495.0</ele><time>2026-04-17T07:14:18.435Z</time></trkpt><trkpt lat="45.6971717" lon="11.324785"><ele>495.0</ele><time>2026-04-17T07:14:19.435Z</time></trkpt><trkpt lat="45.6971167" lon="11.3246733"><ele>495.0</ele><time>2026-04-17T07:14:20.435Z</time></trkpt><trkpt lat="45.6970567" lon="11.3245467"><ele>495.66666666666663</ele><time>2026-04-17T07:14:21.434Z</time></trkpt><trkpt lat="45.6969467" lon="11.3242317"><ele>496.3333333333333</ele><time>2026-04-17T07:14:23.435Z</time></trkpt><trkpt lat="45.6968983" lon="11.324095"><ele>497.0</ele><time>2026-04-17T07:14:24.435Z</time></trkpt><trkpt lat="45.6968183" lon="11.3239767"><ele>501.40000000000003</ele><time>2026-04-17T07:14:25.435Z</time></trkpt><trkpt lat="45.6967467" lon="11.3238883"><ele>505.80000000000007</ele><time>2026-04-17T07:14:26.435Z</time></trkpt><trkpt lat="45.6966667" lon="11.3238267"><ele>510.2</ele><time>2026-04-17T07:14:27.435Z</time></trkpt><trkpt lat="45.696575" lon="11.3238083"><ele>514.6</ele><time>2026-04-17T07:14:28.435Z</time></trkpt><trkpt lat="45.696485" lon="11.323805"><ele>519.0</ele><time>2026-04-17T07:14:29.435Z</time></trkpt><trkpt lat="45.696385" lon="11.32379"><ele>519.0</ele><time>2026-04-17T07:14:30.435Z</time></trkpt><trkpt lat="45.69627" lon="11.3237417"><ele>519.0</ele><time>2026-04-17T07:14:31.435Z</time></trkpt><trkpt lat="45.69614" lon="11.3236783"><ele>519.0</ele><time>2026-04-17T07:14:32.435Z</time></trkpt><trkpt lat="45.6959817" lon="11.3236333"><ele>519.0</ele><time>2026-04-17T07:14:33.435Z</time></trkpt><trkpt lat="45.69582" lon="11.3235817"><ele>518.8</ele><time>2026-04-17T07:14:34.434Z</time></trkpt><trkpt lat="45.6956783" lon="11.323555"><ele>518.5999999999999</ele><time>2026-04-17T07:14:35.434Z</time></trkpt><trkpt lat="45.6955667" lon="11.323525"><ele>518.4</ele><time>2026-04-17T07:14:36.435Z</time></trkpt><trkpt lat="45.69548" lon="11.3234817"><ele>518.1999999999999</ele><time>2026-04-17T07:14:37.434Z</time></trkpt><trkpt lat="45.6954033" lon="11.32343"><ele>518.0</ele><time>2026-04-17T07:14:38.435Z</time></trkpt><trkpt lat="45.6953233" lon="11.323355"><ele>518.0</ele><time>2026-04-17T07:14:39.435Z</time></trkpt><trkpt lat="45.695255" lon="11.3232817"><ele>518.0</ele><time>2026-04-17T07:14:40.434Z</time></trkpt><trkpt lat="45.69519" lon="11.3232117"><ele>518.0</ele><time>2026-04-17T07:14:41.435Z</time></trkpt><trkpt lat="45.6951483" lon="11.32314"><ele>518.0</ele><time>2026-04-17T07:14:42.434Z</time></trkpt><trkpt lat="45.6950733" lon="11.3228333"><ele>518.1999999999999</ele><time>2026-04-17T07:14:45.435Z</time></trkpt><trkpt lat="45.6950367" lon="11.3226833"><ele>518.4</ele><time>2026-04-17T07:14:46.435Z</time></trkpt><trkpt lat="45.695" lon="11.3225433"><ele>518.5999999999999</ele><time>2026-04-17T07:14:47.435Z</time></trkpt><trkpt lat="45.6949817" lon="11.3224117"><ele>518.8</ele><time>2026-04-17T07:14:48.435Z</time></trkpt><trkpt lat="45.6949783" lon="11.322275"><ele>519.0</ele><time>2026-04-17T07:14:49.435Z</time></trkpt><trkpt lat="45.6950017" lon="11.3221333"><ele>520.25</ele><time>2026-04-17T07:14:50.434Z</time></trkpt><trkpt lat="45.695025" lon="11.3219733"><ele>521.5</ele><time>2026-04-17T07:14:51.435Z</time></trkpt><trkpt lat="45.6950433" lon="11.32179"><ele>522.75</ele><time>2026-04-17T07:14:52.434Z</time></trkpt><trkpt lat="45.695035" lon="11.321615"><ele>524.0</ele><time>2026-04-17T07:14:53.435Z</time></trkpt><trkpt lat="45.6949883" lon="11.3214533"><ele>524.4</ele><time>2026-04-17T07:14:54.435Z</time></trkpt><trkpt lat="45.6949317" lon="11.3213117"><ele>524.8</ele><time>2026-04-17T07:14:55.435Z</time></trkpt><trkpt lat="45.6948817" lon="11.3211767"><ele>525.2</ele><time>2026-04-17T07:14:56.434Z</time></trkpt><trkpt lat="45.6948533" lon="11.32105"><ele>525.6</ele><time>2026-04-17T07:14:57.435Z</time></trkpt><trkpt lat="45.6948433" lon="11.3209217"><ele>526.0</ele><time>2026-04-17T07:14:58.435Z</time></trkpt><trkpt lat="45.6948433" lon="11.3207833"><ele>526.0</ele><time>2026-04-17T07:14:59.435Z</time></trkpt><trkpt lat="45.6948383" lon="11.3206367"><ele>526.0</ele><time>2026-04-17T07:15:00.434Z</time></trkpt><trkpt lat="45.694815" lon="11.3205083"><ele>526.0</ele><time>2026-04-17T07:15:01.435Z</time></trkpt><trkpt lat="45.6947883" lon="11.3204133"><ele>526.0</ele><time>2026-04-17T07:15:02.435Z</time></trkpt><trkpt lat="45.69473" lon="11.3202833"><ele>526.0</ele><time>2026-04-17T07:15:04.434Z</time></trkpt><trkpt lat="45.6946117" lon="11.3200783"><ele>526.3333333333334</ele><time>2026-04-17T07:15:08.434Z</time></trkpt><trkpt lat="45.6945517" lon="11.31999"><ele>526.6666666666667</ele><time>2026-04-17T07:15:10.434Z</time></trkpt><trkpt lat="45.6944933" lon="11.3199283"><ele>527.0</ele><time>2026-04-17T07:15:12.435Z</time></trkpt><trkpt lat="45.694455" lon="11.3198383"><ele>527.3333333333334</ele><time>2026-04-17T07:15:14.435Z</time></trkpt><trkpt lat="45.6944183" lon="11.319755"><ele>527.6666666666666</ele><time>2026-04-17T07:15:16.434Z</time></trkpt><trkpt lat="45.6944233" lon="11.3196317"><ele>528.0</ele><time>2026-04-17T07:15:19.433Z</time></trkpt><trkpt lat="45.6944517" lon="11.319515"><ele>533.5</ele><time>2026-04-17T07:15:22.434Z</time></trkpt><trkpt lat="45.6944417" lon="11.31942"><ele>539.0</ele><time>2026-04-17T07:15:25.434Z</time></trkpt><trkpt lat="45.6945533" lon="11.3191767"><ele>544.5</ele><time>2026-04-17T07:16:22.434Z</time></trkpt><trkpt lat="45.6945267" lon="11.3189283"><ele>550.0</ele><time>2026-04-17T07:16:26.433Z</time></trkpt><trkpt lat="45.6945167" lon="11.31882"><ele>550.0</ele><time>2026-04-17T07:16:28.434Z</time></trkpt><trkpt lat="45.694445" lon="11.318735"><ele>550.0</ele><time>2026-04-17T07:16:31.433Z</time></trkpt><trkpt lat="45.6943717" lon="11.3187167"><ele>550.0</ele><time>2026-04-17T07:16:33.434Z</time></trkpt><trkpt lat="45.6943033" lon="11.3187133"><ele>550.0</ele><time>2026-04-17T07:16:35.434Z</time></trkpt><trkpt lat="45.6941517" lon="11.318735"><ele>550.0</ele><time>2026-04-17T07:16:43.434Z</time></trkpt><trkpt lat="45.6939717" lon="11.318585"><ele>550.0</ele><time>2026-04-17T07:16:47.434Z</time></trkpt><trkpt lat="45.6939133" lon="11.3184867"><ele>550.0</ele><time>2026-04-17T07:16:48.433Z</time></trkpt><trkpt lat="45.693855" lon="11.3183883"><ele>550.0</ele><time>2026-04-17T07:16:49.434Z</time></trkpt><trkpt lat="45.6937967" lon="11.318295"><ele>550.0</ele><time>2026-04-17T07:16:50.434Z</time></trkpt><trkpt lat="45.6937517" lon="11.3181967"><ele>550.0</ele><time>2026-04-17T07:16:51.433Z</time></trkpt><trkpt lat="45.6937067" lon="11.3180867"><ele>550.0</ele><time>2026-04-17T07:16:52.434Z</time></trkpt><trkpt lat="45.693655" lon="11.317965"><ele>550.0</ele><time>2026-04-17T07:16:53.433Z</time></trkpt><trkpt lat="45.693605" lon="11.3178533"><ele>550.0</ele><time>2026-04-17T07:16:54.433Z</time></trkpt><trkpt lat="45.6935517" lon="11.3177583"><ele>550.0</ele><time>2026-04-17T07:16:55.434Z</time></trkpt><trkpt lat="45.6934967" lon="11.317665"><ele>550.0</ele><time>2026-04-17T07:16:56.433Z</time></trkpt><trkpt lat="45.693435" lon="11.317575"><ele>550.0</ele><time>2026-04-17T07:16:57.434Z</time></trkpt><trkpt lat="45.69337" lon="11.31749"><ele>550.0</ele><time>2026-04-17T07:16:58.434Z</time></trkpt><trkpt lat="45.6933067" lon="11.317425"><ele>550.1666666666667</ele><time>2026-04-17T07:16:59.434Z</time></trkpt><trkpt lat="45.6932367" lon="11.317345"><ele>550.3333333333334</ele><time>2026-04-17T07:17:00.434Z</time></trkpt><trkpt lat="45.693165" lon="11.317255"><ele>550.5</ele><time>2026-04-17T07:17:01.434Z</time></trkpt><trkpt lat="45.6931083" lon="11.31717"><ele>550.6666666666666</ele><time>2026-04-17T07:17:02.433Z</time></trkpt><trkpt lat="45.693055" lon="11.3170883"><ele>550.8333333333333</ele><time>2026-04-17T07:17:03.434Z</time></trkpt><trkpt lat="45.693005" lon="11.3170133"><ele>551.0</ele><time>2026-04-17T07:17:04.434Z</time></trkpt><trkpt lat="45.692915" lon="11.3168283"><ele>551.0</ele><time>2026-04-17T07:17:06.433Z</time></trkpt><trkpt lat="45.6928667" lon="11.316695"><ele>551.0</ele><time>2026-04-17T07:17:07.434Z</time></trkpt><trkpt lat="45.6928117" lon="11.31657"><ele>551.0</ele><time>2026-04-17T07:17:08.433Z</time></trkpt><trkpt lat="45.6927617" lon="11.3164483"><ele>551.0</ele><time>2026-04-17T07:17:09.434Z</time></trkpt><trkpt lat="45.6927217" lon="11.3163433"><ele>551.0</ele><time>2026-04-17T07:17:10.434Z</time></trkpt><trkpt lat="45.69267" lon="11.3162383"><ele>550.6</ele><time>2026-04-17T07:17:11.434Z</time></trkpt><trkpt lat="45.6926067" lon="11.316145"><ele>550.2</ele><time>2026-04-17T07:17:12.434Z</time></trkpt><trkpt lat="45.692525" lon="11.3160383"><ele>549.8</ele><time>2026-04-17T07:17:13.433Z</time></trkpt><trkpt lat="45.692445" lon="11.3159433"><ele>549.4</ele><time>2026-04-17T07:17:14.433Z</time></trkpt><trkpt lat="45.6923717" lon="11.3158433"><ele>549.0</ele><time>2026-04-17T07:17:15.433Z</time></trkpt><trkpt lat="45.6923033" lon="11.3157467"><ele>549.0</ele><time>2026-04-17T07:17:16.434Z</time></trkpt><trkpt lat="45.69224" lon="11.3156633"><ele>549.0</ele><time>2026-04-17T07:17:17.434Z</time></trkpt><trkpt lat="45.692185" lon="11.3155917"><ele>549.0</ele><time>2026-04-17T07:17:18.434Z</time></trkpt><trkpt lat="45.6921333" lon="11.3155117"><ele>549.0</ele><time>2026-04-17T07:17:19.434Z</time></trkpt><trkpt lat="45.69208" lon="11.31544"><ele>549.0</ele><time>2026-04-17T07:17:20.434Z</time></trkpt><trkpt lat="45.692035" lon="11.31537"><ele>549.0</ele><time>2026-04-17T07:17:21.434Z</time></trkpt><trkpt lat="45.691965" lon="11.31528"><ele>549.75</ele><time>2026-04-17T07:17:23.434Z</time></trkpt><trkpt lat="45.691895" lon="11.3152217"><ele>550.5</ele><time>2026-04-17T07:17:26.434Z</time></trkpt><trkpt lat="45.6917733" lon="11.3150267"><ele>551.25</ele><time>2026-04-17T07:17:31.434Z</time></trkpt><trkpt lat="45.6917133" lon="11.3149417"><ele>552.0</ele><time>2026-04-17T07:17:33.433Z</time></trkpt><trkpt lat="45.6916533" lon="11.31482"><ele>553.8000000000001</ele><time>2026-04-17T07:17:35.434Z</time></trkpt><trkpt lat="45.6916067" lon="11.3146833"><ele>555.6</ele><time>2026-04-17T07:17:37.434Z</time></trkpt><trkpt lat="45.6915633" lon="11.3145567"><ele>557.4000000000001</ele><time>2026-04-17T07:17:39.434Z</time></trkpt><trkpt lat="45.6915217" lon="11.3144367"><ele>559.2</ele><time>2026-04-17T07:17:41.434Z</time></trkpt><trkpt lat="45.6914867" lon="11.3143133"><ele>561.0</ele><time>2026-04-17T07:17:43.434Z</time></trkpt><trkpt lat="45.69148" lon="11.314195"><ele>561.0</ele><time>2026-04-17T07:17:45.434Z</time></trkpt><trkpt lat="45.6915067" lon="11.3140867"><ele>561.0</ele><time>2026-04-17T07:17:47.434Z</time></trkpt><trkpt lat="45.6915733" lon="11.3138633"><ele>561.0</ele><time>2026-04-17T07:17:51.434Z</time></trkpt><trkpt lat="45.6915783" lon="11.3137333"><ele>561.0</ele><time>2026-04-17T07:17:53.434Z</time></trkpt><trkpt lat="45.6915433" lon="11.3136"><ele>561.0</ele><time>2026-04-17T07:17:55.434Z</time></trkpt><trkpt lat="45.6914867" lon="11.31346"><ele>561.8333333333334</ele><time>2026-04-17T07:17:57.433Z</time></trkpt><trkpt lat="45.69142" lon="11.313395"><ele>562.6666666666666</ele><time>2026-04-17T07:17:59.433Z</time></trkpt><trkpt lat="45.6913517" lon="11.3134017"><ele>563.5</ele><time>2026-04-17T07:18:01.434Z</time></trkpt><trkpt lat="45.6912817" lon="11.3134517"><ele>564.3333333333333</ele><time>2026-04-17T07:18:03.433Z</time></trkpt><trkpt lat="45.6912017" lon="11.3134717"><ele>565.1666666666666</ele><time>2026-04-17T07:18:05.434Z</time></trkpt><trkpt lat="45.69111" lon="11.3133933"><ele>566.0</ele><time>2026-04-17T07:18:07.434Z</time></trkpt><trkpt lat="45.691055" lon="11.313325"><ele>566.0</ele><time>2026-04-17T07:18:08.432Z</time></trkpt><trkpt lat="45.6909533" lon="11.31317"><ele>566.0</ele><time>2026-04-17T07:18:11.433Z</time></trkpt><trkpt lat="45.6908933" lon="11.3131417"><ele>566.0</ele><time>2026-04-17T07:18:13.433Z</time></trkpt><trkpt lat="45.69083" lon="11.3131883"><ele>566.0</ele><time>2026-04-17T07:18:15.433Z</time></trkpt><trkpt lat="45.690765" lon="11.3132533"><ele>566.0</ele><time>2026-04-17T07:18:17.432Z</time></trkpt><trkpt lat="45.690695" lon="11.3133017"><ele>566.0</ele><time>2026-04-17T07:18:20.433Z</time></trkpt><trkpt lat="45.6905633" lon="11.3132317"><ele>566.0</ele><time>2026-04-17T07:20:38.432Z</time></trkpt><trkpt lat="45.6903717" lon="11.3134633"><ele>566.0</ele><time>2026-04-17T07:25:12.431Z</time></trkpt><trkpt lat="45.6903083" lon="11.31352"><ele>566.0</ele><time>2026-04-17T07:25:14.431Z</time></trkpt><trkpt lat="45.69025" lon="11.3136133"><ele>566.0</ele><time>2026-04-17T07:25:17.431Z</time></trkpt><trkpt lat="45.6901983" lon="11.31369"><ele>567.2</ele><time>2026-04-17T07:25:20.431Z</time></trkpt><trkpt lat="45.690115" lon="11.313675"><ele>568.4000000000001</ele><time>2026-04-17T07:25:23.43Z</time></trkpt><trkpt lat="45.6900533" lon="11.3136567"><ele>569.6</ele><time>2026-04-17T07:25:25.431Z</time></trkpt><trkpt lat="45.6899567" lon="11.3136317"><ele>570.8000000000001</ele><time>2026-04-17T07:25:39.43Z</time></trkpt><trkpt lat="45.689855" lon="11.3134533"><ele>572.0</ele><time>2026-04-17T07:25:43.431Z</time></trkpt><trkpt lat="45.689835" lon="11.3132767"><ele>571.9999999999999</ele><time>2026-04-17T07:25:45.431Z</time></trkpt><trkpt lat="45.68982" lon="11.3131717"><ele>572.0</ele><time>2026-04-17T07:25:46.431Z</time></trkpt><trkpt lat="45.6897883" lon="11.3130833"><ele>572.0</ele><time>2026-04-17T07:25:47.431Z</time></trkpt><trkpt lat="45.6897467" lon="11.3129967"><ele>572.0</ele><time>2026-04-17T07:25:48.43Z</time></trkpt><trkpt lat="45.6897" lon="11.312925"><ele>572.0</ele><time>2026-04-17T07:25:49.431Z</time></trkpt><trkpt lat="45.68965" lon="11.3128483"><ele>571.9999999999999</ele><time>2026-04-17T07:25:50.431Z</time></trkpt><trkpt lat="45.6896033" lon="11.3127733"><ele>572.0</ele><time>2026-04-17T07:25:51.431Z</time></trkpt><trkpt lat="45.689565" lon="11.3126983"><ele>574.0</ele><time>2026-04-17T07:25:52.431Z</time></trkpt><trkpt lat="45.6895067" lon="11.31256"><ele>576.0</ele><time>2026-04-17T07:25:54.431Z</time></trkpt><trkpt lat="45.689445" lon="11.312445"><ele>578.0</ele><time>2026-04-17T07:25:56.431Z</time></trkpt><trkpt lat="45.6893867" lon="11.3123883"><ele>580.0</ele><time>2026-04-17T07:25:57.431Z</time></trkpt><trkpt lat="45.6892833" lon="11.3123117"><ele>582.0</ele><time>2026-04-17T07:25:59.431Z</time></trkpt><trkpt lat="45.689165" lon="11.3121933"><ele>587.0</ele><time>2026-04-17T07:26:01.431Z</time></trkpt><trkpt lat="45.6889683" lon="11.31199"><ele>592.0</ele><time>2026-04-17T07:26:03.431Z</time></trkpt><trkpt lat="45.688875" lon="11.3119"><ele>597.0</ele><time>2026-04-17T07:26:04.43Z</time></trkpt><trkpt lat="45.68879" lon="11.3118083"><ele>597.0</ele><time>2026-04-17T07:26:05.431Z</time></trkpt><trkpt lat="45.6887183" lon="11.31173"><ele>597.0</ele><time>2026-04-17T07:26:06.43Z</time></trkpt><trkpt lat="45.6886567" lon="11.3116667"><ele>597.0</ele><time>2026-04-17T07:26:07.43Z</time></trkpt><trkpt lat="45.688565" lon="11.3115917"><ele>597.0</ele><time>2026-04-17T07:26:08.431Z</time></trkpt><trkpt lat="45.6884833" lon="11.311535"><ele>597.0</ele><time>2026-04-17T07:26:09.43Z</time></trkpt><trkpt lat="45.6883983" lon="11.3114867"><ele>595.0</ele><time>2026-04-17T07:26:10.431Z</time></trkpt><trkpt lat="45.6883283" lon="11.3114483"><ele>593.0</ele><time>2026-04-17T07:26:11.431Z</time></trkpt><trkpt lat="45.6882583" lon="11.3114317"><ele>591.0</ele><time>2026-04-17T07:26:12.431Z</time></trkpt><trkpt lat="45.6881883" lon="11.3114183"><ele>589.0</ele><time>2026-04-17T07:26:13.431Z</time></trkpt><trkpt lat="45.688115" lon="11.3114283"><ele>587.0</ele><time>2026-04-17T07:26:14.431Z</time></trkpt><trkpt lat="45.6880217" lon="11.3114467"><ele>585.0</ele><time>2026-04-17T07:26:15.431Z</time></trkpt><trkpt lat="45.6879333" lon="11.3114683"><ele>585.0</ele><time>2026-04-17T07:26:16.431Z</time></trkpt><trkpt lat="45.6878533" lon="11.3114867"><ele>585.0</ele><time>2026-04-17T07:26:17.43Z</time></trkpt><trkpt lat="45.68777" lon="11.3115133"><ele>585.0</ele><time>2026-04-17T07:26:18.429Z</time></trkpt><trkpt lat="45.6876833" lon="11.3115317"><ele>585.0</ele><time>2026-04-17T07:26:19.429Z</time></trkpt><trkpt lat="45.687595" lon="11.3115533"><ele>585.0</ele><time>2026-04-17T07:26:20.43Z</time></trkpt><trkpt lat="45.6875017" lon="11.31156"><ele>585.0</ele><time>2026-04-17T07:26:21.429Z</time></trkpt><trkpt lat="45.6874233" lon="11.3115533"><ele>583.5</ele><time>2026-04-17T07:26:22.43Z</time></trkpt><trkpt lat="45.6872717" lon="11.31153"><ele>582.0</ele><time>2026-04-17T07:26:24.43Z</time></trkpt><trkpt lat="45.6872017" lon="11.3114967"><ele>580.5</ele><time>2026-04-17T07:26:25.429Z</time></trkpt><trkpt lat="45.6871283" lon="11.3114733"><ele>579.0</ele><time>2026-04-17T07:26:26.43Z</time></trkpt><trkpt lat="45.6870567" lon="11.3114483"><ele>577.5</ele><time>2026-04-17T07:26:27.43Z</time></trkpt><trkpt lat="45.6869867" lon="11.31143"><ele>576.0</ele><time>2026-04-17T07:26:28.429Z</time></trkpt><trkpt lat="45.68692" lon="11.31141"><ele>577.1666666666666</ele><time>2026-04-17T07:26:29.43Z</time></trkpt><trkpt lat="45.6868417" lon="11.31139"><ele>578.3333333333334</ele><time>2026-04-17T07:26:30.43Z</time></trkpt><trkpt lat="45.6867667" lon="11.31136"><ele>579.5</ele><time>2026-04-17T07:26:31.43Z</time></trkpt><trkpt lat="45.686705" lon="11.3113"><ele>580.6666666666667</ele><time>2026-04-17T07:26:33.429Z</time></trkpt><trkpt lat="45.6866667" lon="11.311225"><ele>581.8333333333334</ele><time>2026-04-17T07:26:35.43Z</time></trkpt><trkpt lat="45.6866233" lon="11.3111183"><ele>583.0</ele><time>2026-04-17T07:26:37.43Z</time></trkpt><trkpt lat="45.686575" lon="11.31103"><ele>583.0</ele><time>2026-04-17T07:26:39.43Z</time></trkpt><trkpt lat="45.6864883" lon="11.31091"><ele>583.0</ele><time>2026-04-17T07:26:41.43Z</time></trkpt><trkpt lat="45.6864183" lon="11.3107583"><ele>583.0</ele><time>2026-04-17T07:26:43.429Z</time></trkpt><trkpt lat="45.6863617" lon="11.3104617"><ele>585.6666666666667</ele><time>2026-04-17T07:26:47.43Z</time></trkpt><trkpt lat="45.6863883" lon="11.310305"><ele>588.3333333333334</ele><time>2026-04-17T07:26:49.43Z</time></trkpt><trkpt lat="45.686405" lon="11.31021"><ele>591.0</ele><time>2026-04-17T07:26:50.429Z</time></trkpt><trkpt lat="45.686415" lon="11.3101"><ele>593.6666666666666</ele><time>2026-04-17T07:26:51.43Z</time></trkpt><trkpt lat="45.6864283" lon="11.309995"><ele>596.3333333333333</ele><time>2026-04-17T07:26:52.429Z</time></trkpt><trkpt lat="45.6864433" lon="11.309895"><ele>599.0</ele><time>2026-04-17T07:26:53.429Z</time></trkpt><trkpt lat="45.6864583" lon="11.3098017"><ele>601.0</ele><time>2026-04-17T07:26:54.43Z</time></trkpt><trkpt lat="45.6864683" lon="11.30971"><ele>603.0</ele><time>2026-04-17T07:26:55.43Z</time></trkpt><trkpt lat="45.6864633" lon="11.30962"><ele>605.0</ele><time>2026-04-17T07:26:56.429Z</time></trkpt><trkpt lat="45.6864317" lon="11.309535"><ele>607.0</ele><time>2026-04-17T07:26:57.429Z</time></trkpt><trkpt lat="45.6863933" lon="11.309455"><ele>609.0</ele><time>2026-04-17T07:26:58.43Z</time></trkpt><trkpt lat="45.6863533" lon="11.3093233"><ele>611.0</ele><time>2026-04-17T07:27:00.43Z</time></trkpt><trkpt lat="45.68634" lon="11.3091917"><ele>611.0</ele><time>2026-04-17T07:27:02.429Z</time></trkpt><trkpt lat="45.6863117" lon="11.309075"><ele>611.0</ele><time>2026-04-17T07:27:04.43Z</time></trkpt><trkpt lat="45.6861667" lon="11.30912"><ele>611.0</ele><time>2026-04-17T07:27:09.43Z</time></trkpt><trkpt lat="45.686125" lon="11.30919"><ele>611.0</ele><time>2026-04-17T07:27:10.429Z</time></trkpt><trkpt lat="45.6860783" lon="11.309265"><ele>611.0</ele><time>2026-04-17T07:27:11.43Z</time></trkpt><trkpt lat="45.6860367" lon="11.3093333"><ele>611.0</ele><time>2026-04-17T07:27:12.429Z</time></trkpt><trkpt lat="45.685985" lon="11.3093883"><ele>608.6666666666666</ele><time>2026-04-17T07:27:13.43Z</time></trkpt><trkpt lat="45.6858867" lon="11.3094717"><ele>606.3333333333333</ele><time>2026-04-17T07:27:15.43Z</time></trkpt><trkpt lat="45.6858183" lon="11.309525"><ele>604.0</ele><time>2026-04-17T07:27:17.43Z</time></trkpt><trkpt lat="45.6857483" lon="11.3095417"><ele>601.6666666666666</ele><time>2026-04-17T07:27:19.43Z</time></trkpt><trkpt lat="45.6856767" lon="11.3095667"><ele>599.3333333333334</ele><time>2026-04-17T07:27:21.43Z</time></trkpt><trkpt lat="45.6856083" lon="11.30952"><ele>597.0</ele><time>2026-04-17T07:27:24.43Z</time></trkpt><trkpt lat="45.685615" lon="11.3094283"><ele>597.0</ele><time>2026-04-17T07:27:26.429Z</time></trkpt><trkpt lat="45.6856583" lon="11.3092367"><ele>597.0</ele><time>2026-04-17T07:27:30.429Z</time></trkpt><trkpt lat="45.6856767" lon="11.309125"><ele>597.0</ele><time>2026-04-17T07:27:32.43Z</time></trkpt><trkpt lat="45.6856983" lon="11.3090133"><ele>597.0</ele><time>2026-04-17T07:27:34.43Z</time></trkpt><trkpt lat="45.685675" lon="11.3088917"><ele>597.0</ele><time>2026-04-17T07:27:36.429Z</time></trkpt><trkpt lat="45.685635" lon="11.3088"><ele>600.0</ele><time>2026-04-17T07:27:38.43Z</time></trkpt><trkpt lat="45.68558" lon="11.3087"><ele>603.0</ele><time>2026-04-17T07:27:40.43Z</time></trkpt><trkpt lat="45.685515" lon="11.3085717"><ele>606.0</ele><time>2026-04-17T07:27:42.43Z</time></trkpt><trkpt lat="45.685445" lon="11.3084683"><ele>609.0</ele><time>2026-04-17T07:27:44.43Z</time></trkpt><trkpt lat="45.685335" lon="11.3084033"><ele>612.0</ele><time>2026-04-17T07:27:46.43Z</time></trkpt><trkpt lat="45.685265" lon="11.308375"><ele>614.0</ele><time>2026-04-17T07:27:47.43Z</time></trkpt><trkpt lat="45.6851117" lon="11.30832"><ele>616.0</ele><time>2026-04-17T07:27:49.43Z</time></trkpt><trkpt lat="45.68504" lon="11.308295"><ele>618.0</ele><time>2026-04-17T07:27:50.43Z</time></trkpt><trkpt lat="45.684975" lon="11.3082733"><ele>620.0</ele><time>2026-04-17T07:27:51.429Z</time></trkpt><trkpt lat="45.6848633" lon="11.3082483"><ele>622.0</ele><time>2026-04-17T07:27:53.43Z</time></trkpt><trkpt lat="45.6847517" lon="11.3082783"><ele>622.0</ele><time>2026-04-17T07:27:55.429Z</time></trkpt><trkpt lat="45.6846617" lon="11.3083467"><ele>622.0</ele><time>2026-04-17T07:27:57.43Z</time></trkpt><trkpt lat="45.6845717" lon="11.308465"><ele>622.0</ele><time>2026-04-17T07:27:59.429Z</time></trkpt><trkpt lat="45.6845267" lon="11.30853"><ele>622.0</ele><time>2026-04-17T07:28:00.43Z</time></trkpt><trkpt lat="45.6844717" lon="11.3085917"><ele>622.0</ele><time>2026-04-17T07:28:01.43Z</time></trkpt><trkpt lat="45.684415" lon="11.3086633"><ele>622.0</ele><time>2026-04-17T07:28:02.43Z</time></trkpt><trkpt lat="45.684365" lon="11.308745"><ele>624.8000000000001</ele><time>2026-04-17T07:28:03.43Z</time></trkpt><trkpt lat="45.6843233" lon="11.30883"><ele>627.6</ele><time>2026-04-17T07:28:04.43Z</time></trkpt><trkpt lat="45.6842883" lon="11.3089183"><ele>630.4000000000001</ele><time>2026-04-17T07:28:05.429Z</time></trkpt><trkpt lat="45.6842017" lon="11.30901"><ele>633.2</ele><time>2026-04-17T07:28:07.43Z</time></trkpt><trkpt lat="45.68412" lon="11.3090833"><ele>636.0</ele><time>2026-04-17T07:28:09.43Z</time></trkpt><trkpt lat="45.684045" lon="11.3093267"><ele>636.0</ele><time>2026-04-17T07:28:12.43Z</time></trkpt><trkpt lat="45.6840283" lon="11.3094233"><ele>636.0</ele><time>2026-04-17T07:28:13.429Z</time></trkpt><trkpt lat="45.684005" lon="11.30953"><ele>636.0</ele><time>2026-04-17T07:28:14.43Z</time></trkpt><trkpt lat="45.6839783" lon="11.3096267"><ele>636.0</ele><time>2026-04-17T07:28:15.429Z</time></trkpt><trkpt lat="45.68389" lon="11.30975"><ele>636.0</ele><time>2026-04-17T07:28:17.43Z</time></trkpt><trkpt lat="45.68381" lon="11.3097867"><ele>636.0</ele><time>2026-04-17T07:28:18.429Z</time></trkpt><trkpt lat="45.6837217" lon="11.3098033"><ele>635.8333333333334</ele><time>2026-04-17T07:28:19.429Z</time></trkpt><trkpt lat="45.6836217" lon="11.309835"><ele>635.6666666666666</ele><time>2026-04-17T07:28:20.43Z</time></trkpt><trkpt lat="45.6835333" lon="11.3098667"><ele>635.5</ele><time>2026-04-17T07:28:21.43Z</time></trkpt><trkpt lat="45.6834517" lon="11.3098817"><ele>635.3333333333333</ele><time>2026-04-17T07:28:22.43Z</time></trkpt><trkpt lat="45.6833817" lon="11.309895"><ele>635.1666666666666</ele><time>2026-04-17T07:28:23.43Z</time></trkpt><trkpt lat="45.6833167" lon="11.309915"><ele>635.0</ele><time>2026-04-17T07:28:24.43Z</time></trkpt><trkpt lat="45.683195" lon="11.3099683"><ele>637.2</ele><time>2026-04-17T07:28:26.43Z</time></trkpt><trkpt lat="45.6831283" lon="11.3100267"><ele>639.4</ele><time>2026-04-17T07:28:27.43Z</time></trkpt><trkpt lat="45.68307" lon="11.3101083"><ele>641.5999999999999</ele><time>2026-04-17T07:28:28.429Z</time></trkpt><trkpt lat="45.6830133" lon="11.3101917"><ele>643.8</ele><time>2026-04-17T07:28:29.43Z</time></trkpt><trkpt lat="45.6829667" lon="11.3102683"><ele>646.0</ele><time>2026-04-17T07:28:30.429Z</time></trkpt><trkpt lat="45.682805" lon="11.3104067"><ele>646.8</ele><time>2026-04-17T07:28:33.43Z</time></trkpt><trkpt lat="45.6826967" lon="11.3104717"><ele>647.5999999999999</ele><time>2026-04-17T07:28:35.43Z</time></trkpt><trkpt lat="45.68259" lon="11.3105517"><ele>648.4</ele><time>2026-04-17T07:28:37.43Z</time></trkpt><trkpt lat="45.6824783" lon="11.3106117"><ele>649.2</ele><time>2026-04-17T07:28:39.43Z</time></trkpt><trkpt lat="45.6824133" lon="11.3106383"><ele>650.0</ele><time>2026-04-17T07:28:40.429Z</time></trkpt><trkpt lat="45.6823483" lon="11.31065"><ele>654.0</ele><time>2026-04-17T07:28:41.43Z</time></trkpt><trkpt lat="45.6822833" lon="11.3106633"><ele>658.0</ele><time>2026-04-17T07:28:42.43Z</time></trkpt><trkpt lat="45.6822217" lon="11.3106883"><ele>662.0</ele><time>2026-04-17T07:28:43.429Z</time></trkpt><trkpt lat="45.6821667" lon="11.31074"><ele>666.0</ele><time>2026-04-17T07:28:44.43Z</time></trkpt><trkpt lat="45.6821117" lon="11.310815"><ele>670.0</ele><time>2026-04-17T07:28:45.429Z</time></trkpt><trkpt lat="45.6820633" lon="11.3109117"><ele>674.0</ele><time>2026-04-17T07:28:46.43Z</time></trkpt><trkpt lat="45.682" lon="11.3110217"><ele>674.2</ele><time>2026-04-17T07:28:47.43Z</time></trkpt><trkpt lat="45.6819317" lon="11.311135"><ele>674.4000000000001</ele><time>2026-04-17T07:28:48.43Z</time></trkpt><trkpt lat="45.6818733" lon="11.311245"><ele>674.6</ele><time>2026-04-17T07:28:49.43Z</time></trkpt><trkpt lat="45.6818183" lon="11.31135"><ele>674.8</ele><time>2026-04-17T07:28:50.43Z</time></trkpt><trkpt lat="45.6817667" lon="11.311475"><ele>675.0</ele><time>2026-04-17T07:28:51.43Z</time></trkpt><trkpt lat="45.6816783" lon="11.3117117"><ele>675.0</ele><time>2026-04-17T07:28:53.43Z</time></trkpt><trkpt lat="45.6816283" lon="11.3118283"><ele>675.0</ele><time>2026-04-17T07:28:54.429Z</time></trkpt><trkpt lat="45.681585" lon="11.3119367"><ele>675.0</ele><time>2026-04-17T07:28:55.429Z</time></trkpt><trkpt lat="45.6815467" lon="11.3120367"><ele>675.0</ele><time>2026-04-17T07:28:56.429Z</time></trkpt><trkpt lat="45.6815233" lon="11.3121267"><ele>675.0</ele><time>2026-04-17T07:28:57.429Z</time></trkpt><trkpt lat="45.6815117" lon="11.3122267"><ele>675.0</ele><time>2026-04-17T07:28:58.428Z</time></trkpt><trkpt lat="45.681505" lon="11.3123517"><ele>676.8</ele><time>2026-04-17T07:28:59.429Z</time></trkpt><trkpt lat="45.6815133" lon="11.3125183"><ele>678.6</ele><time>2026-04-17T07:29:00.429Z</time></trkpt><trkpt lat="45.6815417" lon="11.3126867"><ele>680.4000000000001</ele><time>2026-04-17T07:29:01.428Z</time></trkpt><trkpt lat="45.6815667" lon="11.3128267"><ele>682.2</ele><time>2026-04-17T07:29:02.429Z</time></trkpt><trkpt lat="45.6815967" lon="11.312945"><ele>684.0</ele><time>2026-04-17T07:29:03.429Z</time></trkpt><trkpt lat="45.6816183" lon="11.3130533"><ele>684.5714285714286</ele><time>2026-04-17T07:29:04.429Z</time></trkpt><trkpt lat="45.6816333" lon="11.3131467"><ele>685.1428571428571</ele><time>2026-04-17T07:29:05.429Z</time></trkpt><trkpt lat="45.6816467" lon="11.31324"><ele>685.7142857142858</ele><time>2026-04-17T07:29:06.428Z</time></trkpt><trkpt lat="45.68166" lon="11.31333"><ele>686.2857142857142</ele><time>2026-04-17T07:29:07.428Z</time></trkpt><trkpt lat="45.68168" lon="11.3134317"><ele>686.8571428571429</ele><time>2026-04-17T07:29:08.429Z</time></trkpt><trkpt lat="45.681715" lon="11.3135317"><ele>687.4285714285714</ele><time>2026-04-17T07:29:09.428Z</time></trkpt><trkpt lat="45.6817467" lon="11.3136283"><ele>688.0</ele><time>2026-04-17T07:29:10.429Z</time></trkpt><trkpt lat="45.6817683" lon="11.3137233"><ele>688.0</ele><time>2026-04-17T07:29:11.428Z</time></trkpt><trkpt lat="45.681785" lon="11.3138167"><ele>688.0</ele><time>2026-04-17T07:29:12.429Z</time></trkpt><trkpt lat="45.6817883" lon="11.31403"><ele>688.0</ele><time>2026-04-17T07:29:14.428Z</time></trkpt><trkpt lat="45.6817733" lon="11.3141333"><ele>688.0</ele><time>2026-04-17T07:29:15.429Z</time></trkpt><trkpt lat="45.6817367" lon="11.3143017"><ele>688.0</ele><time>2026-04-17T07:29:17.429Z</time></trkpt><trkpt lat="45.6816983" lon="11.3143767"><ele>688.5</ele><time>2026-04-17T07:29:18.429Z</time></trkpt><trkpt lat="45.6816183" lon="11.314525"><ele>689.0</ele><time>2026-04-17T07:29:20.429Z</time></trkpt><trkpt lat="45.681565" lon="11.31462"><ele>689.5</ele><time>2026-04-17T07:29:21.429Z</time></trkpt><trkpt lat="45.681515" lon="11.314715"><ele>690.0</ele><time>2026-04-17T07:29:22.429Z</time></trkpt><trkpt lat="45.6814733" lon="11.3148"><ele>690.5</ele><time>2026-04-17T07:29:23.429Z</time></trkpt><trkpt lat="45.6814333" lon="11.31488"><ele>691.0</ele><time>2026-04-17T07:29:24.428Z</time></trkpt><trkpt lat="45.6813717" lon="11.31503"><ele>691.1666666666667</ele><time>2026-04-17T07:29:26.429Z</time></trkpt><trkpt lat="45.6812833" lon="11.315135"><ele>691.3333333333334</ele><time>2026-04-17T07:29:28.429Z</time></trkpt><trkpt lat="45.6812217" lon="11.3151883"><ele>691.5</ele><time>2026-04-17T07:29:29.429Z</time></trkpt><trkpt lat="45.6811467" lon="11.3152633"><ele>691.6666666666666</ele><time>2026-04-17T07:29:30.428Z</time></trkpt><trkpt lat="45.6810917" lon="11.31533"><ele>691.8333333333333</ele><time>2026-04-17T07:29:31.429Z</time></trkpt><trkpt lat="45.68104" lon="11.3153867"><ele>692.0</ele><time>2026-04-17T07:29:32.429Z</time></trkpt><trkpt lat="45.6809367" lon="11.3154983"><ele>691.75</ele><time>2026-04-17T07:29:34.428Z</time></trkpt><trkpt lat="45.6807833" lon="11.3156217"><ele>691.5</ele><time>2026-04-17T07:29:36.428Z</time></trkpt><trkpt lat="45.68069" lon="11.3157017"><ele>691.25</ele><time>2026-04-17T07:29:37.429Z</time></trkpt><trkpt lat="45.680615" lon="11.315775"><ele>691.0</ele><time>2026-04-17T07:29:38.428Z</time></trkpt><trkpt lat="45.6805483" lon="11.3158517"><ele>691.0</ele><time>2026-04-17T07:29:39.429Z</time></trkpt><trkpt lat="45.6804983" lon="11.3159133"><ele>691.0</ele><time>2026-04-17T07:29:40.429Z</time></trkpt><trkpt lat="45.6804433" lon="11.3159767"><ele>691.0</ele><time>2026-04-17T07:29:41.429Z</time></trkpt><trkpt lat="45.680345" lon="11.3160767"><ele>691.0</ele><time>2026-04-17T07:29:43.429Z</time></trkpt><trkpt lat="45.6802533" lon="11.31618"><ele>691.0</ele><time>2026-04-17T07:29:45.428Z</time></trkpt><trkpt lat="45.6801917" lon="11.3162567"><ele>690.4</ele><time>2026-04-17T07:29:47.428Z</time></trkpt><trkpt lat="45.6801233" lon="11.316285"><ele>689.8</ele><time>2026-04-17T07:29:50.429Z</time></trkpt><trkpt lat="45.6800617" lon="11.3162433"><ele>689.1999999999999</ele><time>2026-04-17T07:29:54.428Z</time></trkpt><trkpt lat="45.6799433" lon="11.3162033"><ele>688.5999999999999</ele><time>2026-04-17T07:29:56.429Z</time></trkpt><trkpt lat="45.6797683" lon="11.3161967"><ele>688.0</ele><time>2026-04-17T07:29:58.429Z</time></trkpt><trkpt lat="45.6796783" lon="11.3162"><ele>688.0</ele><time>2026-04-17T07:29:59.429Z</time></trkpt><trkpt lat="45.6795967" lon="11.31621"><ele>688.0</ele><time>2026-04-17T07:30:00.429Z</time></trkpt><trkpt lat="45.6795217" lon="11.3162217"><ele>688.0</ele><time>2026-04-17T07:30:01.428Z</time></trkpt><trkpt lat="45.6794433" lon="11.3162217"><ele>688.0</ele><time>2026-04-17T07:30:02.428Z</time></trkpt><trkpt lat="45.6793667" lon="11.3162317"><ele>688.0</ele><time>2026-04-17T07:30:03.428Z</time></trkpt><trkpt lat="45.6792883" lon="11.3162467"><ele>688.0</ele><time>2026-04-17T07:30:04.429Z</time></trkpt><trkpt lat="45.6792" lon="11.3162567"><ele>687.0</ele><time>2026-04-17T07:30:05.429Z</time></trkpt><trkpt lat="45.679115" lon="11.316275"><ele>686.0</ele><time>2026-04-17T07:30:06.428Z</time></trkpt><trkpt lat="45.6790467" lon="11.3162917"><ele>685.0</ele><time>2026-04-17T07:30:07.429Z</time></trkpt><trkpt lat="45.6789467" lon="11.31634"><ele>684.0</ele><time>2026-04-17T07:30:09.429Z</time></trkpt><trkpt lat="45.6788617" lon="11.31641"><ele>683.0</ele><time>2026-04-17T07:30:11.428Z</time></trkpt><trkpt lat="45.67881" lon="11.3165183"><ele>683.0</ele><time>2026-04-17T07:30:13.428Z</time></trkpt><trkpt lat="45.6787817" lon="11.316675"><ele>683.0</ele><time>2026-04-17T07:30:15.429Z</time></trkpt><trkpt lat="45.67875" lon="11.316815"><ele>683.0</ele><time>2026-04-17T07:30:17.429Z</time></trkpt><trkpt lat="45.6785883" lon="11.3169583"><ele>683.0</ele><time>2026-04-17T07:30:21.429Z</time></trkpt><trkpt lat="45.678525" lon="11.3169717"><ele>686.2</ele><time>2026-04-17T07:30:22.429Z</time></trkpt><trkpt lat="45.6784233" lon="11.317"><ele>689.4</ele><time>2026-04-17T07:30:24.428Z</time></trkpt><trkpt lat="45.67834" lon="11.317105"><ele>692.6</ele><time>2026-04-17T07:30:26.429Z</time></trkpt><trkpt lat="45.6782983" lon="11.3171817"><ele>695.8000000000001</ele><time>2026-04-17T07:30:27.429Z</time></trkpt><trkpt lat="45.6782583" lon="11.3172567"><ele>699.0</ele><time>2026-04-17T07:30:28.429Z</time></trkpt><trkpt lat="45.678205" lon="11.3174017"><ele>699.2</ele><time>2026-04-17T07:30:30.429Z</time></trkpt><trkpt lat="45.6781483" lon="11.31757"><ele>699.4000000000001</ele><time>2026-04-17T07:30:32.428Z</time></trkpt><trkpt lat="45.6781133" lon="11.3176683"><ele>699.6</ele><time>2026-04-17T07:30:33.428Z</time></trkpt><trkpt lat="45.678075" lon="11.31777"><ele>699.8</ele><time>2026-04-17T07:30:34.429Z</time></trkpt><trkpt lat="45.6780267" lon="11.3178767"><ele>700.0</ele><time>2026-04-17T07:30:35.428Z</time></trkpt><trkpt lat="45.6779733" lon="11.31798"><ele>699.0</ele><time>2026-04-17T07:30:36.429Z</time></trkpt><trkpt lat="45.67792" lon="11.3180733"><ele>698.0</ele><time>2026-04-17T07:30:37.429Z</time></trkpt><trkpt lat="45.677875" lon="11.3181633"><ele>697.0</ele><time>2026-04-17T07:30:38.428Z</time></trkpt><trkpt lat="45.6778083" lon="11.3183233"><ele>696.0</ele><time>2026-04-17T07:30:40.429Z</time></trkpt><trkpt lat="45.677785" lon="11.3184167"><ele>695.0</ele><time>2026-04-17T07:30:41.428Z</time></trkpt><trkpt lat="45.6777667" lon="11.3185033"><ele>694.0</ele><time>2026-04-17T07:30:42.429Z</time></trkpt><trkpt lat="45.6777583" lon="11.3185967"><ele>697.6</ele><time>2026-04-17T07:30:43.428Z</time></trkpt><trkpt lat="45.67776" lon="11.3187317"><ele>701.2</ele><time>2026-04-17T07:30:45.429Z</time></trkpt><trkpt lat="45.6777383" lon="11.318865"><ele>704.8000000000001</ele><time>2026-04-17T07:30:47.428Z</time></trkpt><trkpt lat="45.6777" lon="11.31897"><ele>708.4000000000001</ele><time>2026-04-17T07:30:49.428Z</time></trkpt><trkpt lat="45.6776433" lon="11.3190817"><ele>712.0</ele><time>2026-04-17T07:30:51.429Z</time></trkpt><trkpt lat="45.6775817" lon="11.3191817"><ele>712.25</ele><time>2026-04-17T07:30:53.429Z</time></trkpt><trkpt lat="45.6774967" lon="11.3192667"><ele>712.5</ele><time>2026-04-17T07:30:55.429Z</time></trkpt><trkpt lat="45.6774233" lon="11.3193333"><ele>712.75</ele><time>2026-04-17T07:30:57.428Z</time></trkpt><trkpt lat="45.6773483" lon="11.3194117"><ele>713.0</ele><time>2026-04-17T07:30:59.429Z</time></trkpt><trkpt lat="45.67716" lon="11.31955"><ele>713.0</ele><time>2026-04-17T07:31:03.429Z</time></trkpt><trkpt lat="45.6770783" lon="11.31963"><ele>713.0</ele><time>2026-04-17T07:31:05.429Z</time></trkpt><trkpt lat="45.6770083" lon="11.319705"><ele>713.0</ele><time>2026-04-17T07:31:07.429Z</time></trkpt><trkpt lat="45.6769283" lon="11.3198217"><ele>713.0</ele><time>2026-04-17T07:31:09.428Z</time></trkpt><trkpt lat="45.67688" lon="11.3198983"><ele>713.0</ele><time>2026-04-17T07:31:10.429Z</time></trkpt><trkpt lat="45.6768367" lon="11.3199717"><ele>713.0</ele><time>2026-04-17T07:31:11.429Z</time></trkpt><trkpt lat="45.6767917" lon="11.32005"><ele>713.3333333333333</ele><time>2026-04-17T07:31:12.429Z</time></trkpt><trkpt lat="45.6767483" lon="11.32012"><ele>713.6666666666666</ele><time>2026-04-17T07:31:13.429Z</time></trkpt><trkpt lat="45.676695" lon="11.32018"><ele>714.0</ele><time>2026-04-17T07:31:14.429Z</time></trkpt><trkpt lat="45.676645" lon="11.320245"><ele>714.3333333333334</ele><time>2026-04-17T07:31:15.428Z</time></trkpt><trkpt lat="45.676555" lon="11.3203467"><ele>714.6666666666667</ele><time>2026-04-17T07:31:17.429Z</time></trkpt><trkpt lat="45.6764867" lon="11.32044"><ele>715.0</ele><time>2026-04-17T07:31:19.428Z</time></trkpt><trkpt lat="45.67645" lon="11.320565"><ele>713.25</ele><time>2026-04-17T07:31:21.428Z</time></trkpt><trkpt lat="45.6763717" lon="11.3208383"><ele>711.5</ele><time>2026-04-17T07:31:25.429Z</time></trkpt><trkpt lat="45.676295" lon="11.32098"><ele>709.75</ele><time>2026-04-17T07:31:27.429Z</time></trkpt><trkpt lat="45.6762467" lon="11.3210383"><ele>708.0</ele><time>2026-04-17T07:31:28.429Z</time></trkpt><trkpt lat="45.6761733" lon="11.3211183"><ele>708.0</ele><time>2026-04-17T07:31:30.428Z</time></trkpt><trkpt lat="45.676115" lon="11.3211883"><ele>708.0</ele><time>2026-04-17T07:31:32.428Z</time></trkpt><trkpt lat="45.6760817" lon="11.3212917"><ele>708.0</ele><time>2026-04-17T07:31:34.429Z</time></trkpt><trkpt lat="45.6760867" lon="11.3214133"><ele>708.0</ele><time>2026-04-17T07:31:36.429Z</time></trkpt><trkpt lat="45.67611" lon="11.3215217"><ele>708.0</ele><time>2026-04-17T07:31:38.429Z</time></trkpt><trkpt lat="45.6761317" lon="11.3216167"><ele>708.0</ele><time>2026-04-17T07:31:40.428Z</time></trkpt><trkpt lat="45.676105" lon="11.321715"><ele>708.0</ele><time>2026-04-17T07:31:43.428Z</time></trkpt><trkpt lat="45.67612" lon="11.321405"><ele>708.0</ele><time>2026-04-17T07:33:28.428Z</time></trkpt><trkpt lat="45.67611" lon="11.3213017"><ele>708.0</ele><time>2026-04-17T07:33:30.427Z</time></trkpt><trkpt lat="45.6761483" lon="11.3212233"><ele>708.0</ele><time>2026-04-17T07:33:32.428Z</time></trkpt><trkpt lat="45.6762183" lon="11.3211983"><ele>708.0</ele><time>2026-04-17T07:33:35.428Z</time></trkpt><trkpt lat="45.676275" lon="11.3212917"><ele>708.0</ele><time>2026-04-17T07:33:38.428Z</time></trkpt><trkpt lat="45.6763217" lon="11.3213733"><ele>708.0</ele><time>2026-04-17T07:33:41.428Z</time></trkpt><trkpt lat="45.6763283" lon="11.3214983"><ele>708.0</ele><time>2026-04-17T07:33:44.427Z</time></trkpt><trkpt lat="45.6762483" lon="11.3217133"><ele>708.0</ele><time>2026-04-17T07:33:50.428Z</time></trkpt><trkpt lat="45.67618" lon="11.3217617"><ele>708.0</ele><time>2026-04-17T07:33:53.428Z</time></trkpt><trkpt lat="45.676105" lon="11.3218"><ele>707.0</ele><time>2026-04-17T07:33:56.427Z</time></trkpt><trkpt lat="45.676025" lon="11.3218017"><ele>706.0</ele><time>2026-04-17T07:33:58.427Z</time></trkpt><trkpt lat="45.67596" lon="11.3217917"><ele>705.0</ele><time>2026-04-17T07:34:00.428Z</time></trkpt><trkpt lat="45.6759517" lon="11.3219017"><ele>704.0</ele><time>2026-04-17T07:34:04.428Z</time></trkpt><trkpt lat="45.6760333" lon="11.3219683"><ele>703.0</ele><time>2026-04-17T07:34:06.428Z</time></trkpt><trkpt lat="45.6762283" lon="11.3220833"><ele>703.0</ele><time>2026-04-17T07:34:10.428Z</time></trkpt><trkpt lat="45.6762517" lon="11.32219"><ele>703.0</ele><time>2026-04-17T07:34:12.427Z</time></trkpt><trkpt lat="45.6762283" lon="11.3223467"><ele>703.0</ele><time>2026-04-17T07:34:14.427Z</time></trkpt><trkpt lat="45.6762" lon="11.3224383"><ele>703.0</ele><time>2026-04-17T07:34:15.428Z</time></trkpt><trkpt lat="45.6761817" lon="11.3225367"><ele>703.0</ele><time>2026-04-17T07:34:16.428Z</time></trkpt><trkpt lat="45.676165" lon="11.3226417"><ele>703.0</ele><time>2026-04-17T07:34:17.427Z</time></trkpt><trkpt lat="45.6761633" lon="11.3227783"><ele>701.8333333333334</ele><time>2026-04-17T07:34:19.428Z</time></trkpt><trkpt lat="45.676125" lon="11.32294"><ele>700.6666666666667</ele><time>2026-04-17T07:34:21.427Z</time></trkpt><trkpt lat="45.6761017" lon="11.3230333"><ele>699.5</ele><time>2026-04-17T07:34:22.427Z</time></trkpt><trkpt lat="45.6760733" lon="11.3231467"><ele>698.3333333333334</ele><time>2026-04-17T07:34:23.428Z</time></trkpt><trkpt lat="45.6760533" lon="11.323265"><ele>697.1666666666666</ele><time>2026-04-17T07:34:24.427Z</time></trkpt><trkpt lat="45.6760533" lon="11.3233683"><ele>696.0</ele><time>2026-04-17T07:34:25.428Z</time></trkpt><trkpt lat="45.6760567" lon="11.3234633"><ele>691.1999999999999</ele><time>2026-04-17T07:34:26.428Z</time></trkpt><trkpt lat="45.6760583" lon="11.3235617"><ele>686.4</ele><time>2026-04-17T07:34:27.428Z</time></trkpt><trkpt lat="45.6760133" lon="11.3238433"><ele>681.6</ele><time>2026-04-17T07:34:30.427Z</time></trkpt><trkpt lat="45.6759867" lon="11.32394"><ele>676.8</ele><time>2026-04-17T07:34:31.428Z</time></trkpt><trkpt lat="45.6759667" lon="11.324035"><ele>672.0</ele><time>2026-04-17T07:34:32.427Z</time></trkpt><trkpt lat="45.6759667" lon="11.3241317"><ele>672.4000000000001</ele><time>2026-04-17T07:34:33.428Z</time></trkpt><trkpt lat="45.675985" lon="11.3242417"><ele>672.8000000000001</ele><time>2026-04-17T07:34:34.427Z</time></trkpt><trkpt lat="45.676015" lon="11.32437"><ele>673.2</ele><time>2026-04-17T07:34:35.427Z</time></trkpt><trkpt lat="45.6760533" lon="11.3245183"><ele>673.6</ele><time>2026-04-17T07:34:36.427Z</time></trkpt><trkpt lat="45.6761" lon="11.324655"><ele>674.0</ele><time>2026-04-17T07:34:37.426Z</time></trkpt><trkpt lat="45.67615" lon="11.3247667"><ele>674.0</ele><time>2026-04-17T07:34:38.427Z</time></trkpt><trkpt lat="45.6762183" lon="11.32486"><ele>674.0</ele><time>2026-04-17T07:34:39.426Z</time></trkpt><trkpt lat="45.67629" lon="11.3249583"><ele>674.0</ele><time>2026-04-17T07:34:40.427Z</time></trkpt><trkpt lat="45.6763817" lon="11.3250517"><ele>674.0</ele><time>2026-04-17T07:34:41.426Z</time></trkpt><trkpt lat="45.6764867" lon="11.325145"><ele>674.0</ele><time>2026-04-17T07:34:42.427Z</time></trkpt><trkpt lat="45.6765783" lon="11.32525"><ele>674.0</ele><time>2026-04-17T07:34:43.427Z</time></trkpt><trkpt lat="45.6766533" lon="11.32536"><ele>674.0</ele><time>2026-04-17T07:34:44.427Z</time></trkpt><trkpt lat="45.6767117" lon="11.3254733"><ele>674.0</ele><time>2026-04-17T07:34:45.427Z</time></trkpt><trkpt lat="45.6767717" lon="11.3255883"><ele>674.0</ele><time>2026-04-17T07:34:46.427Z</time></trkpt><trkpt lat="45.676835" lon="11.3256933"><ele>674.0</ele><time>2026-04-17T07:34:47.427Z</time></trkpt><trkpt lat="45.676895" lon="11.3257967"><ele>668.0</ele><time>2026-04-17T07:34:48.426Z</time></trkpt><trkpt lat="45.6770117" lon="11.3260167"><ele>662.0</ele><time>2026-04-17T07:34:50.426Z</time></trkpt><trkpt lat="45.6770633" lon="11.32613"><ele>656.0</ele><time>2026-04-17T07:34:51.426Z</time></trkpt><trkpt lat="45.677095" lon="11.3262567"><ele>650.0</ele><time>2026-04-17T07:34:52.427Z</time></trkpt><trkpt lat="45.67711" lon="11.326385"><ele>648.3333333333333</ele><time>2026-04-17T07:34:53.427Z</time></trkpt><trkpt lat="45.677135" lon="11.3265217"><ele>646.6666666666666</ele><time>2026-04-17T07:34:54.426Z</time></trkpt><trkpt lat="45.6771567" lon="11.3266467"><ele>645.0</ele><time>2026-04-17T07:34:55.427Z</time></trkpt><trkpt lat="45.67716" lon="11.3267433"><ele>643.3333333333334</ele><time>2026-04-17T07:34:56.427Z</time></trkpt><trkpt lat="45.67717" lon="11.3268383"><ele>641.6666666666667</ele><time>2026-04-17T07:34:57.426Z</time></trkpt><trkpt lat="45.6771517" lon="11.3269467"><ele>640.0</ele><time>2026-04-17T07:34:59.426Z</time></trkpt><trkpt lat="45.6770583" lon="11.3269967"><ele>640.0</ele><time>2026-04-17T07:35:01.427Z</time></trkpt><trkpt lat="45.676985" lon="11.3270067"><ele>640.0</ele><time>2026-04-17T07:35:02.427Z</time></trkpt><trkpt lat="45.6768883" lon="11.3269883"><ele>640.0</ele><time>2026-04-17T07:35:03.427Z</time></trkpt><trkpt lat="45.6767783" lon="11.326975"><ele>640.0</ele><time>2026-04-17T07:35:04.426Z</time></trkpt><trkpt lat="45.6766683" lon="11.326955"><ele>640.0</ele><time>2026-04-17T07:35:05.427Z</time></trkpt><trkpt lat="45.676565" lon="11.32693"><ele>639.25</ele><time>2026-04-17T07:35:06.427Z</time></trkpt><trkpt lat="45.676485" lon="11.3268867"><ele>638.5</ele><time>2026-04-17T07:35:07.427Z</time></trkpt><trkpt lat="45.6764067" lon="11.3268617"><ele>637.75</ele><time>2026-04-17T07:35:08.427Z</time></trkpt><trkpt lat="45.6763417" lon="11.32682"><ele>637.0</ele><time>2026-04-17T07:35:09.426Z</time></trkpt><trkpt lat="45.6761317" lon="11.3267133"><ele>636.8000000000001</ele><time>2026-04-17T07:35:13.426Z</time></trkpt><trkpt lat="45.6760583" lon="11.3266317"><ele>636.6</ele><time>2026-04-17T07:35:16.427Z</time></trkpt><trkpt lat="45.6760233" lon="11.3265467"><ele>636.4000000000001</ele><time>2026-04-17T07:35:17.427Z</time></trkpt><trkpt lat="45.675955" lon="11.326435"><ele>636.2</ele><time>2026-04-17T07:35:18.426Z</time></trkpt><trkpt lat="45.675875" lon="11.3263233"><ele>636.0</ele><time>2026-04-17T07:35:19.426Z</time></trkpt><trkpt lat="45.6757667" lon="11.326215"><ele>636.0</ele><time>2026-04-17T07:35:20.427Z</time></trkpt><trkpt lat="45.6756633" lon="11.3261017"><ele>636.0</ele><time>2026-04-17T07:35:21.427Z</time></trkpt><trkpt lat="45.6755717" lon="11.3259733"><ele>636.0</ele><time>2026-04-17T07:35:22.427Z</time></trkpt><trkpt lat="45.6754917" lon="11.3258183"><ele>636.0</ele><time>2026-04-17T07:35:23.427Z</time></trkpt><trkpt lat="45.6754" lon="11.3256867"><ele>636.0</ele><time>2026-04-17T07:35:24.427Z</time></trkpt><trkpt lat="45.6753233" lon="11.3255783"><ele>636.0</ele><time>2026-04-17T07:35:25.427Z</time></trkpt><trkpt lat="45.6752533" lon="11.3254833"><ele>636.0</ele><time>2026-04-17T07:35:26.426Z</time></trkpt><trkpt lat="45.6751767" lon="11.3253917"><ele>636.0</ele><time>2026-04-17T07:35:27.427Z</time></trkpt><trkpt lat="45.67511" lon="11.3252867"><ele>636.0</ele><time>2026-04-17T07:35:28.427Z</time></trkpt><trkpt lat="45.6750383" lon="11.325175"><ele>636.0</ele><time>2026-04-17T07:35:29.427Z</time></trkpt><trkpt lat="45.6749817" lon="11.325045"><ele>636.0</ele><time>2026-04-17T07:35:30.427Z</time></trkpt><trkpt lat="45.6748733" lon="11.3247733"><ele>636.0</ele><time>2026-04-17T07:35:32.427Z</time></trkpt><trkpt lat="45.674825" lon="11.3246783"><ele>636.0</ele><time>2026-04-17T07:35:33.427Z</time></trkpt><trkpt lat="45.67478" lon="11.3245933"><ele>636.0</ele><time>2026-04-17T07:35:34.427Z</time></trkpt><trkpt lat="45.674735" lon="11.3245283"><ele>636.0</ele><time>2026-04-17T07:35:35.426Z</time></trkpt><trkpt lat="45.674635" lon="11.3245067"><ele>636.0</ele><time>2026-04-17T07:35:37.427Z</time></trkpt><trkpt lat="45.6745583" lon="11.3246233"><ele>636.0</ele><time>2026-04-17T07:35:39.427Z</time></trkpt><trkpt lat="45.6745417" lon="11.3247367"><ele>636.0</ele><time>2026-04-17T07:35:40.427Z</time></trkpt><trkpt lat="45.6745233" lon="11.3248767"><ele>636.0</ele><time>2026-04-17T07:35:41.426Z</time></trkpt><trkpt lat="45.6744983" lon="11.3250133"><ele>636.0</ele><time>2026-04-17T07:35:42.427Z</time></trkpt><trkpt lat="45.6744483" lon="11.32512"><ele>636.0</ele><time>2026-04-17T07:35:43.427Z</time></trkpt><trkpt lat="45.67438" lon="11.325195"><ele>636.0</ele><time>2026-04-17T07:35:44.427Z</time></trkpt><trkpt lat="45.6743017" lon="11.32525"><ele>636.0</ele><time>2026-04-17T07:35:45.427Z</time></trkpt><trkpt lat="45.674205" lon="11.325295"><ele>634.5</ele><time>2026-04-17T07:35:46.427Z</time></trkpt><trkpt lat="45.6741117" lon="11.325375"><ele>633.0</ele><time>2026-04-17T07:35:47.427Z</time></trkpt><trkpt lat="45.6740217" lon="11.3254833"><ele>631.5</ele><time>2026-04-17T07:35:48.427Z</time></trkpt><trkpt lat="45.6739383" lon="11.325615"><ele>630.0</ele><time>2026-04-17T07:35:49.427Z</time></trkpt><trkpt lat="45.6738683" lon="11.32577"><ele>630.0</ele><time>2026-04-17T07:35:50.426Z</time></trkpt><trkpt lat="45.6737983" lon="11.3259467"><ele>630.0</ele><time>2026-04-17T07:35:51.427Z</time></trkpt><trkpt lat="45.6736833" lon="11.3262633"><ele>630.0</ele><time>2026-04-17T07:35:53.427Z</time></trkpt><trkpt lat="45.6736217" lon="11.32641"><ele>635.75</ele><time>2026-04-17T07:35:54.426Z</time></trkpt><trkpt lat="45.6735583" lon="11.3265683"><ele>641.5</ele><time>2026-04-17T07:35:55.427Z</time></trkpt><trkpt lat="45.6735067" lon="11.3267167"><ele>647.25</ele><time>2026-04-17T07:35:56.426Z</time></trkpt><trkpt lat="45.6734633" lon="11.32687"><ele>653.0</ele><time>2026-04-17T07:35:57.427Z</time></trkpt><trkpt lat="45.67343" lon="11.3270333"><ele>653.0</ele><time>2026-04-17T07:35:58.427Z</time></trkpt><trkpt lat="45.6734217" lon="11.32719"><ele>653.0</ele><time>2026-04-17T07:35:59.427Z</time></trkpt><trkpt lat="45.67342" lon="11.3273317"><ele>653.0</ele><time>2026-04-17T07:36:00.427Z</time></trkpt><trkpt lat="45.6734433" lon="11.3274633"><ele>653.0</ele><time>2026-04-17T07:36:01.427Z</time></trkpt><trkpt lat="45.6734667" lon="11.3275867"><ele>653.0</ele><time>2026-04-17T07:36:02.426Z</time></trkpt><trkpt lat="45.67349" lon="11.3277117"><ele>650.3333333333333</ele><time>2026-04-17T07:36:03.427Z</time></trkpt><trkpt lat="45.6734933" lon="11.327835"><ele>647.6666666666666</ele><time>2026-04-17T07:36:04.427Z</time></trkpt><trkpt lat="45.6734767" lon="11.3279483"><ele>645.0</ele><time>2026-04-17T07:36:05.427Z</time></trkpt><trkpt lat="45.673445" lon="11.3280417"><ele>642.3333333333334</ele><time>2026-04-17T07:36:06.427Z</time></trkpt><trkpt lat="45.6734083" lon="11.32813"><ele>639.6666666666667</ele><time>2026-04-17T07:36:07.427Z</time></trkpt><trkpt lat="45.6733083" lon="11.3281667"><ele>637.0</ele><time>2026-04-17T07:36:09.427Z</time></trkpt><trkpt lat="45.6732483" lon="11.3281083"><ele>637.0</ele><time>2026-04-17T07:36:10.427Z</time></trkpt><trkpt lat="45.673185" lon="11.3280167"><ele>637.0</ele><time>2026-04-17T07:36:11.427Z</time></trkpt><trkpt lat="45.67311" lon="11.32792"><ele>637.0</ele><time>2026-04-17T07:36:12.427Z</time></trkpt><trkpt lat="45.67292" lon="11.3278017"><ele>637.0</ele><time>2026-04-17T07:36:14.427Z</time></trkpt><trkpt lat="45.6728167" lon="11.32779"><ele>640.6</ele><time>2026-04-17T07:36:15.427Z</time></trkpt><trkpt lat="45.672705" lon="11.32781"><ele>644.2</ele><time>2026-04-17T07:36:16.426Z</time></trkpt><trkpt lat="45.6726067" lon="11.3278367"><ele>647.8</ele><time>2026-04-17T07:36:17.427Z</time></trkpt><trkpt lat="45.6725117" lon="11.327885"><ele>651.4</ele><time>2026-04-17T07:36:18.427Z</time></trkpt><trkpt lat="45.6724117" lon="11.3279333"><ele>655.0</ele><time>2026-04-17T07:36:19.427Z</time></trkpt><trkpt lat="45.6723183" lon="11.3279833"><ele>655.0</ele><time>2026-04-17T07:36:20.426Z</time></trkpt><trkpt lat="45.6722183" lon="11.3280133"><ele>655.0</ele><time>2026-04-17T07:36:21.426Z</time></trkpt><trkpt lat="45.67211" lon="11.3280033"><ele>655.0</ele><time>2026-04-17T07:36:22.427Z</time></trkpt><trkpt lat="45.672" lon="11.3279867"><ele>655.0</ele><time>2026-04-17T07:36:23.427Z</time></trkpt><trkpt lat="45.67191" lon="11.327895"><ele>655.0</ele><time>2026-04-17T07:36:24.427Z</time></trkpt><trkpt lat="45.6718067" lon="11.3278383"><ele>653.2</ele><time>2026-04-17T07:36:25.427Z</time></trkpt><trkpt lat="45.6717067" lon="11.327775"><ele>651.4</ele><time>2026-04-17T07:36:26.427Z</time></trkpt><trkpt lat="45.6716083" lon="11.327685"><ele>649.5999999999999</ele><time>2026-04-17T07:36:27.427Z</time></trkpt><trkpt lat="45.6715167" lon="11.327585"><ele>647.8</ele><time>2026-04-17T07:36:28.427Z</time></trkpt><trkpt lat="45.6714333" lon="11.3274917"><ele>646.0</ele><time>2026-04-17T07:36:29.427Z</time></trkpt><trkpt lat="45.67135" lon="11.3274017"><ele>646.0</ele><time>2026-04-17T07:36:30.427Z</time></trkpt><trkpt lat="45.6712717" lon="11.3273083"><ele>646.0</ele><time>2026-04-17T07:36:31.427Z</time></trkpt><trkpt lat="45.6711967" lon="11.3272083"><ele>646.0</ele><time>2026-04-17T07:36:32.426Z</time></trkpt><trkpt lat="45.6711267" lon="11.3271017"><ele>646.0</ele><time>2026-04-17T07:36:33.427Z</time></trkpt><trkpt lat="45.6710183" lon="11.326855"><ele>646.0</ele><time>2026-04-17T07:36:35.427Z</time></trkpt><trkpt lat="45.67096" lon="11.3267"><ele>646.0</ele><time>2026-04-17T07:36:36.426Z</time></trkpt><trkpt lat="45.6708917" lon="11.3265717"><ele>646.0</ele><time>2026-04-17T07:36:37.426Z</time></trkpt><trkpt lat="45.6708117" lon="11.3264683"><ele>646.0</ele><time>2026-04-17T07:36:38.426Z</time></trkpt><trkpt lat="45.6707267" lon="11.3263983"><ele>646.0</ele><time>2026-04-17T07:36:39.427Z</time></trkpt><trkpt lat="45.6706467" lon="11.32634"><ele>645.5999999999999</ele><time>2026-04-17T07:36:40.427Z</time></trkpt><trkpt lat="45.6705767" lon="11.3262933"><ele>645.2</ele><time>2026-04-17T07:36:41.427Z</time></trkpt><trkpt lat="45.6705167" lon="11.326255"><ele>644.8</ele><time>2026-04-17T07:36:42.427Z</time></trkpt><trkpt lat="45.6703833" lon="11.3262667"><ele>644.4000000000001</ele><time>2026-04-17T07:36:44.427Z</time></trkpt><trkpt lat="45.6703" lon="11.3263067"><ele>644.0</ele><time>2026-04-17T07:36:45.427Z</time></trkpt><trkpt lat="45.670215" lon="11.3263567"><ele>644.0</ele><time>2026-04-17T07:36:46.426Z</time></trkpt><trkpt lat="45.670135" lon="11.3264083"><ele>644.0</ele><time>2026-04-17T07:36:47.427Z</time></trkpt><trkpt lat="45.6700667" lon="11.3264367"><ele>644.0</ele><time>2026-04-17T07:36:48.426Z</time></trkpt><trkpt lat="45.67" lon="11.32644"><ele>644.0</ele><time>2026-04-17T07:36:49.427Z</time></trkpt><trkpt lat="45.66993" lon="11.32643"><ele>644.0</ele><time>2026-04-17T07:36:50.427Z</time></trkpt><trkpt lat="45.66986" lon="11.3263933"><ele>644.0</ele><time>2026-04-17T07:36:51.427Z</time></trkpt><trkpt lat="45.6697867" lon="11.3263533"><ele>644.0</ele><time>2026-04-17T07:36:52.427Z</time></trkpt><trkpt lat="45.6697017" lon="11.326305"><ele>644.0</ele><time>2026-04-17T07:36:53.427Z</time></trkpt><trkpt lat="45.6696183" lon="11.3262483"><ele>644.0</ele><time>2026-04-17T07:36:54.426Z</time></trkpt><trkpt lat="45.6694533" lon="11.3261533"><ele>644.0</ele><time>2026-04-17T07:36:56.427Z</time></trkpt><trkpt lat="45.6693467" lon="11.3261283"><ele>644.0</ele><time>2026-04-17T07:36:57.426Z</time></trkpt><trkpt lat="45.669245" lon="11.3261133"><ele>643.3333333333333</ele><time>2026-04-17T07:36:58.427Z</time></trkpt><trkpt lat="45.6691683" lon="11.3260983"><ele>642.6666666666666</ele><time>2026-04-17T07:36:59.426Z</time></trkpt><trkpt lat="45.6690917" lon="11.3260867"><ele>642.0</ele><time>2026-04-17T07:37:00.427Z</time></trkpt><trkpt lat="45.6690133" lon="11.32607"><ele>641.3333333333334</ele><time>2026-04-17T07:37:01.426Z</time></trkpt><trkpt lat="45.668935" lon="11.3260517"><ele>640.6666666666667</ele><time>2026-04-17T07:37:02.427Z</time></trkpt><trkpt lat="45.66886" lon="11.3260467"><ele>640.0</ele><time>2026-04-17T07:37:03.427Z</time></trkpt><trkpt lat="45.66878" lon="11.3260533"><ele>640.0</ele><time>2026-04-17T07:37:04.426Z</time></trkpt><trkpt lat="45.668715" lon="11.3260833"><ele>640.0</ele><time>2026-04-17T07:37:05.427Z</time></trkpt><trkpt lat="45.668645" lon="11.32613"><ele>640.0</ele><time>2026-04-17T07:37:06.427Z</time></trkpt><trkpt lat="45.668585" lon="11.3261733"><ele>640.0</ele><time>2026-04-17T07:37:07.427Z</time></trkpt><trkpt lat="45.6684667" lon="11.326235"><ele>640.0</ele><time>2026-04-17T07:37:09.427Z</time></trkpt><trkpt lat="45.6684017" lon="11.326265"><ele>640.0</ele><time>2026-04-17T07:37:10.427Z</time></trkpt><trkpt lat="45.6683317" lon="11.326315"><ele>640.0</ele><time>2026-04-17T07:37:11.427Z</time></trkpt><trkpt lat="45.668275" lon="11.3263717"><ele>640.0</ele><time>2026-04-17T07:37:12.427Z</time></trkpt><trkpt lat="45.6682267" lon="11.3264333"><ele>640.0</ele><time>2026-04-17T07:37:13.427Z</time></trkpt><trkpt lat="45.6681817" lon="11.3265"><ele>640.0</ele><time>2026-04-17T07:37:14.427Z</time></trkpt><trkpt lat="45.6681083" lon="11.326625"><ele>640.0</ele><time>2026-04-17T07:37:16.426Z</time></trkpt><trkpt lat="45.6680133" lon="11.326815"><ele>641.0</ele><time>2026-04-17T07:37:20.427Z</time></trkpt><trkpt lat="45.6679483" lon="11.3268717"><ele>642.0</ele><time>2026-04-17T07:37:22.427Z</time></trkpt><trkpt lat="45.667885" lon="11.3269067"><ele>643.0</ele><time>2026-04-17T07:37:24.427Z</time></trkpt><trkpt lat="45.6677967" lon="11.326885"><ele>644.0</ele><time>2026-04-17T07:37:27.427Z</time></trkpt><trkpt lat="45.6677233" lon="11.3268733"><ele>645.0</ele><time>2026-04-17T07:37:29.426Z</time></trkpt><trkpt lat="45.667635" lon="11.3268583"><ele>646.0</ele><time>2026-04-17T07:37:31.425Z</time></trkpt><trkpt lat="45.66755" lon="11.3268433"><ele>649.25</ele><time>2026-04-17T07:37:33.426Z</time></trkpt><trkpt lat="45.66745" lon="11.3267967"><ele>652.5</ele><time>2026-04-17T07:37:36.426Z</time></trkpt><trkpt lat="45.6673283" lon="11.3267567"><ele>655.75</ele><time>2026-04-17T07:37:38.426Z</time></trkpt><trkpt lat="45.6671383" lon="11.3266783"><ele>659.0</ele><time>2026-04-17T07:37:41.426Z</time></trkpt><trkpt lat="45.6670283" lon="11.3266283"><ele>659.8000000000001</ele><time>2026-04-17T07:37:43.426Z</time></trkpt><trkpt lat="45.666925" lon="11.3266117"><ele>660.6</ele><time>2026-04-17T07:37:45.426Z</time></trkpt><trkpt lat="45.66682" lon="11.3266433"><ele>661.4</ele><time>2026-04-17T07:37:47.426Z</time></trkpt><trkpt lat="45.6667167" lon="11.3267117"><ele>662.2</ele><time>2026-04-17T07:37:49.426Z</time></trkpt><trkpt lat="45.6666283" lon="11.32678"><ele>663.0</ele><time>2026-04-17T07:37:51.426Z</time></trkpt><trkpt lat="45.66652" lon="11.326865"><ele>662.9999999999999</ele><time>2026-04-17T07:37:53.425Z</time></trkpt><trkpt lat="45.6664667" lon="11.3269183"><ele>663.0</ele><time>2026-04-17T07:37:54.426Z</time></trkpt><trkpt lat="45.6664133" lon="11.32698"><ele>663.0</ele><time>2026-04-17T07:37:55.425Z</time></trkpt><trkpt lat="45.6663667" lon="11.3270467"><ele>663.0</ele><time>2026-04-17T07:37:56.426Z</time></trkpt><trkpt lat="45.6663233" lon="11.3271183"><ele>663.0</ele><time>2026-04-17T07:37:57.425Z</time></trkpt><trkpt lat="45.6662833" lon="11.327205"><ele>662.9999999999999</ele><time>2026-04-17T07:37:58.426Z</time></trkpt><trkpt lat="45.6662483" lon="11.3273033"><ele>663.0</ele><time>2026-04-17T07:37:59.425Z</time></trkpt><trkpt lat="45.6661817" lon="11.3275133"><ele>663.2</ele><time>2026-04-17T07:38:01.425Z</time></trkpt><trkpt lat="45.6661383" lon="11.3276383"><ele>663.4</ele><time>2026-04-17T07:38:03.426Z</time></trkpt><trkpt lat="45.6660867" lon="11.32771"><ele>663.6</ele><time>2026-04-17T07:38:05.426Z</time></trkpt><trkpt lat="45.6660033" lon="11.3277667"><ele>663.8000000000001</ele><time>2026-04-17T07:38:07.426Z</time></trkpt><trkpt lat="45.6659383" lon="11.3277733"><ele>664.0</ele><time>2026-04-17T07:38:08.426Z</time></trkpt><trkpt lat="45.6658133" lon="11.3278"><ele>664.0</ele><time>2026-04-17T07:38:10.426Z</time></trkpt><trkpt lat="45.6656967" lon="11.3278667"><ele>664.0</ele><time>2026-04-17T07:38:12.426Z</time></trkpt><trkpt lat="45.6656367" lon="11.3278983"><ele>664.0</ele><time>2026-04-17T07:38:13.426Z</time></trkpt><trkpt lat="45.665575" lon="11.3279233"><ele>664.0</ele><time>2026-04-17T07:38:14.426Z</time></trkpt><trkpt lat="45.665465" lon="11.3279983"><ele>664.0</ele><time>2026-04-17T07:38:16.426Z</time></trkpt><trkpt lat="45.6654117" lon="11.328055"><ele>664.0</ele><time>2026-04-17T07:38:17.426Z</time></trkpt><trkpt lat="45.6653617" lon="11.3281167"><ele>664.5</ele><time>2026-04-17T07:38:18.425Z</time></trkpt><trkpt lat="45.6653067" lon="11.3281733"><ele>665.0</ele><time>2026-04-17T07:38:19.426Z</time></trkpt><trkpt lat="45.6652067" lon="11.3282617"><ele>665.5</ele><time>2026-04-17T07:38:21.426Z</time></trkpt><trkpt lat="45.6650917" lon="11.3285583"><ele>666.0</ele><time>2026-04-17T07:38:25.426Z</time></trkpt><trkpt lat="45.6650683" lon="11.3286483"><ele>666.0</ele><time>2026-04-17T07:38:26.426Z</time></trkpt><trkpt lat="45.6650283" lon="11.3287367"><ele>666.0</ele><time>2026-04-17T07:38:27.426Z</time></trkpt><trkpt lat="45.664985" lon="11.3288283"><ele>666.0</ele><time>2026-04-17T07:38:28.425Z</time></trkpt><trkpt lat="45.664945" lon="11.32891"><ele>666.0</ele><time>2026-04-17T07:38:29.426Z</time></trkpt><trkpt lat="45.6648733" lon="11.3290117"><ele>666.0</ele><time>2026-04-17T07:38:31.426Z</time></trkpt><trkpt lat="45.66479" lon="11.32906"><ele>666.0</ele><time>2026-04-17T07:38:33.426Z</time></trkpt><trkpt lat="45.6646617" lon="11.32907"><ele>664.5999999999999</ele><time>2026-04-17T07:38:35.426Z</time></trkpt><trkpt lat="45.6645933" lon="11.329075"><ele>663.2</ele><time>2026-04-17T07:38:36.426Z</time></trkpt><trkpt lat="45.6645283" lon="11.32909"><ele>661.8</ele><time>2026-04-17T07:38:37.426Z</time></trkpt><trkpt lat="45.6644233" lon="11.32918"><ele>660.4000000000001</ele><time>2026-04-17T07:38:39.425Z</time></trkpt><trkpt lat="45.6643533" lon="11.3292967"><ele>659.0</ele><time>2026-04-17T07:38:41.426Z</time></trkpt><trkpt lat="45.6643117" lon="11.3294117"><ele>663.5</ele><time>2026-04-17T07:38:43.426Z</time></trkpt><trkpt lat="45.6642917" lon="11.32973"><ele>668.0</ele><time>2026-04-17T07:38:47.426Z</time></trkpt><trkpt lat="45.66428" lon="11.3298817"><ele>672.5</ele><time>2026-04-17T07:38:49.426Z</time></trkpt><trkpt lat="45.6642383" lon="11.3300167"><ele>677.0</ele><time>2026-04-17T07:38:51.426Z</time></trkpt><trkpt lat="45.6641883" lon="11.3301167"><ele>677.0</ele><time>2026-04-17T07:38:53.426Z</time></trkpt><trkpt lat="45.66411" lon="11.3301833"><ele>677.0</ele><time>2026-04-17T07:38:55.425Z</time></trkpt><trkpt lat="45.6639917" lon="11.3302667"><ele>677.0</ele><time>2026-04-17T07:38:57.426Z</time></trkpt><trkpt lat="45.6639217" lon="11.330335"><ele>677.0</ele><time>2026-04-17T07:38:58.426Z</time></trkpt><trkpt lat="45.6638567" lon="11.3304"><ele>677.0</ele><time>2026-04-17T07:38:59.426Z</time></trkpt><trkpt lat="45.6637783" lon="11.330455"><ele>677.0</ele><time>2026-04-17T07:39:00.425Z</time></trkpt><trkpt lat="45.6636933" lon="11.3305117"><ele>677.0</ele><time>2026-04-17T07:39:01.425Z</time></trkpt><trkpt lat="45.6636133" lon="11.33056"><ele>677.0</ele><time>2026-04-17T07:39:02.426Z</time></trkpt><trkpt lat="45.6635433" lon="11.3306167"><ele>677.0</ele><time>2026-04-17T07:39:03.426Z</time></trkpt><trkpt lat="45.6634783" lon="11.3306733"><ele>677.0</ele><time>2026-04-17T07:39:04.426Z</time></trkpt><trkpt lat="45.6633083" lon="11.3307567"><ele>677.3333333333333</ele><time>2026-04-17T07:39:07.425Z</time></trkpt><trkpt lat="45.663245" lon="11.3307767"><ele>677.6666666666666</ele><time>2026-04-17T07:39:08.426Z</time></trkpt><trkpt lat="45.6631867" lon="11.3308167"><ele>678.0</ele><time>2026-04-17T07:39:09.425Z</time></trkpt><trkpt lat="45.663135" lon="11.3308833"><ele>678.3333333333334</ele><time>2026-04-17T07:39:10.426Z</time></trkpt><trkpt lat="45.6630767" lon="11.3309767"><ele>678.6666666666667</ele><time>2026-04-17T07:39:11.425Z</time></trkpt><trkpt lat="45.66302" lon="11.3310783"><ele>679.0</ele><time>2026-04-17T07:39:12.426Z</time></trkpt><trkpt lat="45.6629583" lon="11.3311667"><ele>679.0</ele><time>2026-04-17T07:39:13.426Z</time></trkpt><trkpt lat="45.6629" lon="11.3312417"><ele>679.0</ele><time>2026-04-17T07:39:14.426Z</time></trkpt><trkpt lat="45.6628433" lon="11.331305"><ele>679.0</ele><time>2026-04-17T07:39:15.426Z</time></trkpt><trkpt lat="45.6627817" lon="11.3313633"><ele>679.0</ele><time>2026-04-17T07:39:16.426Z</time></trkpt><trkpt lat="45.6627167" lon="11.3314133"><ele>679.0</ele><time>2026-04-17T07:39:17.425Z</time></trkpt><trkpt lat="45.6626467" lon="11.3314533"><ele>679.0</ele><time>2026-04-17T07:39:18.425Z</time></trkpt><trkpt lat="45.662575" lon="11.331475"><ele>679.0</ele><time>2026-04-17T07:39:19.426Z</time></trkpt><trkpt lat="45.66251" lon="11.3314733"><ele>678.75</ele><time>2026-04-17T07:39:20.426Z</time></trkpt><trkpt lat="45.6623883" lon="11.3314467"><ele>678.5</ele><time>2026-04-17T07:39:22.425Z</time></trkpt><trkpt lat="45.6623267" lon="11.3314167"><ele>678.25</ele><time>2026-04-17T07:39:23.425Z</time></trkpt><trkpt lat="45.66224" lon="11.33133"><ele>678.0</ele><time>2026-04-17T07:39:25.426Z</time></trkpt><trkpt lat="45.6621367" lon="11.3310217"><ele>679.4</ele><time>2026-04-17T07:39:29.426Z</time></trkpt><trkpt lat="45.6621233" lon="11.33085"><ele>680.8</ele><time>2026-04-17T07:39:31.426Z</time></trkpt><trkpt lat="45.6621083" lon="11.3307183"><ele>682.2</ele><time>2026-04-17T07:39:33.425Z</time></trkpt><trkpt lat="45.6620483" lon="11.3306283"><ele>683.6</ele><time>2026-04-17T07:39:35.426Z</time></trkpt><trkpt lat="45.6619383" lon="11.3305983"><ele>685.0</ele><time>2026-04-17T07:39:37.426Z</time></trkpt><trkpt lat="45.6618767" lon="11.3305767"><ele>687.6</ele><time>2026-04-17T07:39:38.426Z</time></trkpt><trkpt lat="45.6617717" lon="11.3305017"><ele>690.2</ele><time>2026-04-17T07:39:40.426Z</time></trkpt><trkpt lat="45.6617133" lon="11.3304467"><ele>692.8</ele><time>2026-04-17T07:39:41.426Z</time></trkpt><trkpt lat="45.6616367" lon="11.3303183"><ele>695.4</ele><time>2026-04-17T07:39:43.425Z</time></trkpt><trkpt lat="45.6615917" lon="11.3301733"><ele>698.0</ele><time>2026-04-17T07:39:45.426Z</time></trkpt><trkpt lat="45.6615317" lon="11.3300167"><ele>698.0</ele><time>2026-04-17T07:39:47.426Z</time></trkpt><trkpt lat="45.6614367" lon="11.3298867"><ele>698.0</ele><time>2026-04-17T07:39:49.426Z</time></trkpt><trkpt lat="45.66139" lon="11.3297867"><ele>698.0</ele><time>2026-04-17T07:39:51.426Z</time></trkpt><trkpt lat="45.661315" lon="11.329665"><ele>698.0</ele><time>2026-04-17T07:39:53.426Z</time></trkpt><trkpt lat="45.6612667" lon="11.3296067"><ele>698.0</ele><time>2026-04-17T07:39:54.426Z</time></trkpt><trkpt lat="45.661155" lon="11.3295417"><ele>698.0</ele><time>2026-04-17T07:39:56.426Z</time></trkpt><trkpt lat="45.6610817" lon="11.3295367"><ele>698.0</ele><time>2026-04-17T07:39:57.426Z</time></trkpt><trkpt lat="45.6609917" lon="11.3295483"><ele>698.0</ele><time>2026-04-17T07:39:58.426Z</time></trkpt><trkpt lat="45.6609" lon="11.329605"><ele>698.0</ele><time>2026-04-17T07:39:59.426Z</time></trkpt><trkpt lat="45.6608133" lon="11.3296783"><ele>698.0</ele><time>2026-04-17T07:40:00.426Z</time></trkpt><trkpt lat="45.6607333" lon="11.3297383"><ele>698.0</ele><time>2026-04-17T07:40:01.426Z</time></trkpt><trkpt lat="45.6606667" lon="11.329785"><ele>698.0</ele><time>2026-04-17T07:40:02.426Z</time></trkpt><trkpt lat="45.660605" lon="11.32983"><ele>698.0</ele><time>2026-04-17T07:40:03.425Z</time></trkpt><trkpt lat="45.66049" lon="11.3299233"><ele>698.0</ele><time>2026-04-17T07:40:05.426Z</time></trkpt><trkpt lat="45.66042" lon="11.3299817"><ele>698.0</ele><time>2026-04-17T07:40:06.425Z</time></trkpt><trkpt lat="45.6603533" lon="11.3300267"><ele>698.0</ele><time>2026-04-17T07:40:07.426Z</time></trkpt><trkpt lat="45.6602933" lon="11.33006"><ele>698.75</ele><time>2026-04-17T07:40:08.426Z</time></trkpt><trkpt lat="45.6601233" lon="11.330095"><ele>699.5</ele><time>2026-04-17T07:40:13.426Z</time></trkpt><trkpt lat="45.6600283" lon="11.33009"><ele>700.25</ele><time>2026-04-17T07:40:16.425Z</time></trkpt><trkpt lat="45.6599083" lon="11.33011"><ele>701.0</ele><time>2026-04-17T07:40:18.426Z</time></trkpt><trkpt lat="45.6598367" lon="11.330115"><ele>701.0</ele><time>2026-04-17T07:40:19.426Z</time></trkpt><trkpt lat="45.6597667" lon="11.3301217"><ele>701.0</ele><time>2026-04-17T07:40:20.426Z</time></trkpt><trkpt lat="45.6596467" lon="11.330085"><ele>701.0</ele><time>2026-04-17T07:40:22.426Z</time></trkpt><trkpt lat="45.6595883" lon="11.33004"><ele>701.0</ele><time>2026-04-17T07:40:23.425Z</time></trkpt><trkpt lat="45.6594867" lon="11.32997"><ele>701.0</ele><time>2026-04-17T07:40:25.426Z</time></trkpt><trkpt lat="45.659365" lon="11.32996"><ele>702.0</ele><time>2026-04-17T07:40:27.424Z</time></trkpt><trkpt lat="45.6592917" lon="11.3299617"><ele>703.0</ele><time>2026-04-17T07:40:28.425Z</time></trkpt><trkpt lat="45.6592167" lon="11.3299583"><ele>704.0</ele><time>2026-04-17T07:40:29.424Z</time></trkpt><trkpt lat="45.6590617" lon="11.3300033"><ele>705.0</ele><time>2026-04-17T07:40:32.424Z</time></trkpt><trkpt lat="45.65896" lon="11.3301133"><ele>706.0</ele><time>2026-04-17T07:40:34.425Z</time></trkpt><trkpt lat="45.658905" lon="11.3301733"><ele>706.0</ele><time>2026-04-17T07:40:35.425Z</time></trkpt><trkpt lat="45.6588467" lon="11.33021"><ele>706.0</ele><time>2026-04-17T07:40:36.424Z</time></trkpt><trkpt lat="45.6587417" lon="11.330255"><ele>706.0</ele><time>2026-04-17T07:40:38.425Z</time></trkpt><trkpt lat="45.6586517" lon="11.3302383"><ele>706.0</ele><time>2026-04-17T07:40:40.425Z</time></trkpt><trkpt lat="45.658565" lon="11.3301933"><ele>706.0</ele><time>2026-04-17T07:40:42.424Z</time></trkpt><trkpt lat="45.658465" lon="11.3302"><ele>706.3333333333334</ele><time>2026-04-17T07:40:44.425Z</time></trkpt><trkpt lat="45.6584017" lon="11.3302133"><ele>706.6666666666667</ele><time>2026-04-17T07:40:45.425Z</time></trkpt><trkpt lat="45.6583383" lon="11.3302417"><ele>707.0</ele><time>2026-04-17T07:40:46.425Z</time></trkpt><trkpt lat="45.6582783" lon="11.3302817"><ele>707.3333333333334</ele><time>2026-04-17T07:40:47.424Z</time></trkpt><trkpt lat="45.658215" lon="11.3303283"><ele>707.6666666666666</ele><time>2026-04-17T07:40:48.424Z</time></trkpt><trkpt lat="45.6581183" lon="11.3304283"><ele>708.0</ele><time>2026-04-17T07:40:50.424Z</time></trkpt><trkpt lat="45.6579817" lon="11.3305067"><ele>708.0</ele><time>2026-04-17T07:40:55.425Z</time></trkpt><trkpt lat="45.6578883" lon="11.3305183"><ele>708.0</ele><time>2026-04-17T07:40:57.425Z</time></trkpt><trkpt lat="45.657795" lon="11.3305367"><ele>708.0</ele><time>2026-04-17T07:40:59.425Z</time></trkpt><trkpt lat="45.65772" lon="11.3305483"><ele>708.0</ele><time>2026-04-17T07:41:01.425Z</time></trkpt><trkpt lat="45.6576817" lon="11.3306467"><ele>708.0</ele><time>2026-04-17T07:41:04.425Z</time></trkpt><trkpt lat="45.6576667" lon="11.3307683"><ele>708.0</ele><time>2026-04-17T07:41:06.425Z</time></trkpt><trkpt lat="45.6576433" lon="11.3308967"><ele>713.75</ele><time>2026-04-17T07:41:08.424Z</time></trkpt><trkpt lat="45.6576133" lon="11.331025"><ele>719.5</ele><time>2026-04-17T07:41:10.424Z</time></trkpt><trkpt lat="45.65758" lon="11.3311517"><ele>725.25</ele><time>2026-04-17T07:41:12.425Z</time></trkpt><trkpt lat="45.6576033" lon="11.33142"><ele>731.0</ele><time>2026-04-17T07:41:16.425Z</time></trkpt><trkpt lat="45.6576183" lon="11.3315683"><ele>731.3333333333333</ele><time>2026-04-17T07:41:18.425Z</time></trkpt><trkpt lat="45.6576133" lon="11.33167"><ele>731.6666666666666</ele><time>2026-04-17T07:41:20.424Z</time></trkpt><trkpt lat="45.6575883" lon="11.33177"><ele>732.0</ele><time>2026-04-17T07:41:22.425Z</time></trkpt><trkpt lat="45.6575583" lon="11.3318517"><ele>732.3333333333334</ele><time>2026-04-17T07:41:24.424Z</time></trkpt><trkpt lat="45.6575183" lon="11.3319767"><ele>732.6666666666667</ele><time>2026-04-17T07:41:26.424Z</time></trkpt><trkpt lat="45.6575067" lon="11.332105"><ele>733.0</ele><time>2026-04-17T07:41:28.425Z</time></trkpt><trkpt lat="45.6574867" lon="11.332195"><ele>730.8</ele><time>2026-04-17T07:41:30.425Z</time></trkpt><trkpt lat="45.6574233" lon="11.3322733"><ele>728.5999999999999</ele><time>2026-04-17T07:41:33.425Z</time></trkpt><trkpt lat="45.6572933" lon="11.33243"><ele>726.4000000000001</ele><time>2026-04-17T07:41:37.425Z</time></trkpt><trkpt lat="45.657245" lon="11.3325333"><ele>724.2</ele><time>2026-04-17T07:41:39.425Z</time></trkpt><trkpt lat="45.6572017" lon="11.3326317"><ele>722.0</ele><time>2026-04-17T07:41:41.424Z</time></trkpt><trkpt lat="45.6571433" lon="11.3327417"><ele>722.0</ele><time>2026-04-17T07:41:43.424Z</time></trkpt><trkpt lat="45.6571067" lon="11.3328183"><ele>722.0</ele><time>2026-04-17T07:41:44.425Z</time></trkpt><trkpt lat="45.6570667" lon="11.3328967"><ele>722.0</ele><time>2026-04-17T07:41:45.425Z</time></trkpt><trkpt lat="45.6570233" lon="11.3329783"><ele>722.0</ele><time>2026-04-17T07:41:46.425Z</time></trkpt><trkpt lat="45.6569533" lon="11.3330983"><ele>722.0</ele><time>2026-04-17T07:41:48.425Z</time></trkpt><trkpt lat="45.6568983" lon="11.33321"><ele>722.0</ele><time>2026-04-17T07:41:50.425Z</time></trkpt><trkpt lat="45.6568367" lon="11.333295"><ele>722.25</ele><time>2026-04-17T07:41:52.425Z</time></trkpt><trkpt lat="45.6567883" lon="11.3334033"><ele>722.5</ele><time>2026-04-17T07:41:54.424Z</time></trkpt><trkpt lat="45.656775" lon="11.3336567"><ele>722.75</ele><time>2026-04-17T07:41:58.425Z</time></trkpt><trkpt lat="45.6567667" lon="11.3337983"><ele>723.0</ele><time>2026-04-17T07:42:03.424Z</time></trkpt><trkpt lat="45.6567517" lon="11.3339367"><ele>723.0</ele><time>2026-04-17T07:42:05.425Z</time></trkpt><trkpt lat="45.65672" lon="11.3341"><ele>723.0</ele><time>2026-04-17T07:42:07.425Z</time></trkpt><trkpt lat="45.6566833" lon="11.3342083"><ele>723.0</ele><time>2026-04-17T07:42:09.425Z</time></trkpt><trkpt lat="45.6566017" lon="11.3342567"><ele>723.0</ele><time>2026-04-17T07:42:11.425Z</time></trkpt><trkpt lat="45.6565267" lon="11.3342817"><ele>723.0</ele><time>2026-04-17T07:42:13.424Z</time></trkpt><trkpt lat="45.6564667" lon="11.3343467"><ele>723.0</ele><time>2026-04-17T07:42:16.424Z</time></trkpt><trkpt lat="45.6563883" lon="11.3345333"><ele>723.0</ele><time>2026-04-17T07:42:20.425Z</time></trkpt><trkpt lat="45.6563367" lon="11.334625"><ele>723.0</ele><time>2026-04-17T07:42:23.425Z</time></trkpt><trkpt lat="45.656285" lon="11.3346967"><ele>723.0</ele><time>2026-04-17T07:42:25.425Z</time></trkpt><trkpt lat="45.6562117" lon="11.33474"><ele>723.0</ele><time>2026-04-17T07:42:27.425Z</time></trkpt><trkpt lat="45.6561183" lon="11.3347517"><ele>723.0</ele><time>2026-04-17T07:42:30.425Z</time></trkpt><trkpt lat="45.65605" lon="11.3347617"><ele>723.0</ele><time>2026-04-17T07:42:32.425Z</time></trkpt><trkpt lat="45.65597" lon="11.334755"><ele>720.75</ele><time>2026-04-17T07:42:34.425Z</time></trkpt><trkpt lat="45.65588" lon="11.3347383"><ele>718.5</ele><time>2026-04-17T07:42:36.425Z</time></trkpt><trkpt lat="45.6557467" lon="11.3347417"><ele>716.25</ele><time>2026-04-17T07:42:38.425Z</time></trkpt><trkpt lat="45.655575" lon="11.3347717"><ele>714.0</ele><time>2026-04-17T07:42:40.425Z</time></trkpt><trkpt lat="45.655495" lon="11.3347783"><ele>714.0</ele><time>2026-04-17T07:42:41.425Z</time></trkpt><trkpt lat="45.6554183" lon="11.3348017"><ele>714.0</ele><time>2026-04-17T07:42:42.425Z</time></trkpt><trkpt lat="45.6553483" lon="11.3348317"><ele>714.0</ele><time>2026-04-17T07:42:43.425Z</time></trkpt><trkpt lat="45.6552783" lon="11.3348633"><ele>714.0</ele><time>2026-04-17T07:42:44.425Z</time></trkpt><trkpt lat="45.65518" lon="11.3349183"><ele>714.0</ele><time>2026-04-17T07:42:46.425Z</time></trkpt><trkpt lat="45.6550833" lon="11.334995"><ele>714.0</ele><time>2026-04-17T07:42:48.425Z</time></trkpt><trkpt lat="45.6549833" lon="11.3350667"><ele>714.0</ele><time>2026-04-17T07:42:50.425Z</time></trkpt><trkpt lat="45.65493" lon="11.335155"><ele>714.0</ele><time>2026-04-17T07:42:52.425Z</time></trkpt><trkpt lat="45.6549" lon="11.3352667"><ele>714.0</ele><time>2026-04-17T07:42:54.425Z</time></trkpt><trkpt lat="45.6549" lon="11.3353867"><ele>714.0</ele><time>2026-04-17T07:42:56.424Z</time></trkpt><trkpt lat="45.6549217" lon="11.3355"><ele>714.0</ele><time>2026-04-17T07:42:58.425Z</time></trkpt><trkpt lat="45.6549717" lon="11.3356367"><ele>714.0</ele><time>2026-04-17T07:43:00.425Z</time></trkpt><trkpt lat="45.6550183" lon="11.3358383"><ele>714.0</ele><time>2026-04-17T07:43:18.425Z</time></trkpt><trkpt lat="45.65498" lon="11.3359183"><ele>714.0</ele><time>2026-04-17T07:43:20.424Z</time></trkpt><trkpt lat="45.6549283" lon="11.336025"><ele>714.0</ele><time>2026-04-17T07:43:22.425Z</time></trkpt><trkpt lat="45.6548183" lon="11.3361783"><ele>714.0</ele><time>2026-04-17T07:43:26.425Z</time></trkpt><trkpt lat="45.654795" lon="11.33629"><ele>714.0</ele><time>2026-04-17T07:43:29.424Z</time></trkpt><trkpt lat="45.6547817" lon="11.3364"><ele>714.75</ele><time>2026-04-17T07:43:32.424Z</time></trkpt><trkpt lat="45.6547717" lon="11.3365117"><ele>715.5</ele><time>2026-04-17T07:45:07.424Z</time></trkpt><trkpt lat="45.6548333" lon="11.3367167"><ele>716.25</ele><time>2026-04-17T08:05:17.415Z</time></trkpt><trkpt lat="45.654845" lon="11.33698"><ele>717.0</ele><time>2026-04-17T08:05:21.416Z</time></trkpt><trkpt lat="45.654855" lon="11.3370917"><ele>717.0</ele><time>2026-04-17T08:05:23.416Z</time></trkpt><trkpt lat="45.65486" lon="11.3372017"><ele>717.0</ele><time>2026-04-17T08:05:26.416Z</time></trkpt><trkpt lat="45.6548933" lon="11.3373333"><ele>717.0</ele><time>2026-04-17T08:05:29.416Z</time></trkpt><trkpt lat="45.6549333" lon="11.337415"><ele>717.0</ele><time>2026-04-17T08:05:31.416Z</time></trkpt><trkpt lat="45.6550117" lon="11.337465"><ele>717.0</ele><time>2026-04-17T08:05:34.416Z</time></trkpt><trkpt lat="45.655075" lon="11.3375317"><ele>717.0</ele><time>2026-04-17T08:05:37.416Z</time></trkpt><trkpt lat="45.6550917" lon="11.3376333"><ele>716.8</ele><time>2026-04-17T08:05:40.415Z</time></trkpt><trkpt lat="45.6551533" lon="11.3378367"><ele>716.6</ele><time>2026-04-17T08:05:46.416Z</time></trkpt><trkpt lat="45.6552033" lon="11.33792"><ele>716.4</ele><time>2026-04-17T08:05:49.416Z</time></trkpt><trkpt lat="45.6552633" lon="11.3379933"><ele>716.1999999999999</ele><time>2026-04-17T08:05:52.416Z</time></trkpt><trkpt lat="45.655285" lon="11.3380933"><ele>716.0</ele><time>2026-04-17T08:05:56.415Z</time></trkpt><trkpt lat="45.6552833" lon="11.3381967"><ele>714.6666666666666</ele><time>2026-04-17T08:05:59.416Z</time></trkpt><trkpt lat="45.6552617" lon="11.3382817"><ele>713.3333333333333</ele><time>2026-04-17T08:06:02.416Z</time></trkpt><trkpt lat="45.6551833" lon="11.33845"><ele>712.0</ele><time>2026-04-17T08:06:07.415Z</time></trkpt><trkpt lat="45.655215" lon="11.3385733"><ele>710.6666666666666</ele><time>2026-04-17T08:06:10.416Z</time></trkpt><trkpt lat="45.6552067" lon="11.3386767"><ele>709.3333333333334</ele><time>2026-04-17T08:06:13.416Z</time></trkpt><trkpt lat="45.6551583" lon="11.3387617"><ele>708.0</ele><time>2026-04-17T08:06:16.416Z</time></trkpt><trkpt lat="45.655125" lon="11.33886"><ele>705.5999999999999</ele><time>2026-04-17T08:06:20.416Z</time></trkpt><trkpt lat="45.655175" lon="11.3389617"><ele>703.1999999999999</ele><time>2026-04-17T08:06:23.416Z</time></trkpt><trkpt lat="45.6552433" lon="11.3391583"><ele>700.8</ele><time>2026-04-17T08:06:28.416Z</time></trkpt><trkpt lat="45.655215" lon="11.3392683"><ele>698.4</ele><time>2026-04-17T08:06:31.415Z</time></trkpt><trkpt lat="45.6551883" lon="11.3393817"><ele>696.0</ele><time>2026-04-17T08:06:33.415Z</time></trkpt><trkpt lat="45.6551383" lon="11.3394867"><ele>696.0</ele><time>2026-04-17T08:06:35.416Z</time></trkpt><trkpt lat="45.6550883" lon="11.339545"><ele>696.0</ele><time>2026-04-17T08:06:37.416Z</time></trkpt><trkpt lat="45.6550117" lon="11.33956"><ele>696.0</ele><time>2026-04-17T08:06:39.415Z</time></trkpt><trkpt lat="45.6549067" lon="11.339565"><ele>696.0</ele><time>2026-04-17T08:06:41.416Z</time></trkpt><trkpt lat="45.6548117" lon="11.33958"><ele>696.0</ele><time>2026-04-17T08:06:43.416Z</time></trkpt><trkpt lat="45.6547333" lon="11.3395967"><ele>696.0</ele><time>2026-04-17T08:06:45.416Z</time></trkpt><trkpt lat="45.6546017" lon="11.33964"><ele>694.4285714285714</ele><time>2026-04-17T08:06:49.416Z</time></trkpt><trkpt lat="45.6545283" lon="11.33972"><ele>692.8571428571429</ele><time>2026-04-17T08:06:52.416Z</time></trkpt><trkpt lat="45.654515" lon="11.33981"><ele>691.2857142857142</ele><time>2026-04-17T08:06:54.415Z</time></trkpt><trkpt lat="45.65452" lon="11.339915"><ele>689.7142857142858</ele><time>2026-04-17T08:06:56.416Z</time></trkpt><trkpt lat="45.6545217" lon="11.3400117"><ele>688.1428571428572</ele><time>2026-04-17T08:06:58.416Z</time></trkpt><trkpt lat="45.6545383" lon="11.34011"><ele>686.5714285714286</ele><time>2026-04-17T08:07:00.415Z</time></trkpt><trkpt lat="45.6545683" lon="11.34021"><ele>685.0</ele><time>2026-04-17T08:07:02.416Z</time></trkpt><trkpt lat="45.6546267" lon="11.3402883"><ele>685.0</ele><time>2026-04-17T08:07:04.416Z</time></trkpt><trkpt lat="45.6546967" lon="11.3403633"><ele>685.0</ele><time>2026-04-17T08:07:07.416Z</time></trkpt><trkpt lat="45.6548217" lon="11.34049"><ele>685.0</ele><time>2026-04-17T08:07:11.416Z</time></trkpt><trkpt lat="45.6548867" lon="11.3405383"><ele>685.0</ele><time>2026-04-17T08:07:13.416Z</time></trkpt><trkpt lat="45.65495" lon="11.340605"><ele>685.0</ele><time>2026-04-17T08:07:15.415Z</time></trkpt><trkpt lat="45.6550067" lon="11.3407017"><ele>681.6666666666667</ele><time>2026-04-17T08:07:17.416Z</time></trkpt><trkpt lat="45.6550667" lon="11.3407717"><ele>678.3333333333334</ele><time>2026-04-17T08:07:19.416Z</time></trkpt><trkpt lat="45.6551333" lon="11.3408317"><ele>675.0</ele><time>2026-04-17T08:07:21.416Z</time></trkpt><trkpt lat="45.6551817" lon="11.3408983"><ele>671.6666666666666</ele><time>2026-04-17T08:07:23.416Z</time></trkpt><trkpt lat="45.655185" lon="11.340995"><ele>668.3333333333333</ele><time>2026-04-17T08:07:26.416Z</time></trkpt><trkpt lat="45.6551433" lon="11.341075"><ele>665.0</ele><time>2026-04-17T08:07:29.415Z</time></trkpt><trkpt lat="45.6551267" lon="11.3412667"><ele>665.0</ele><time>2026-04-17T08:07:34.415Z</time></trkpt><trkpt lat="45.6551133" lon="11.3413783"><ele>665.0</ele><time>2026-04-17T08:07:37.415Z</time></trkpt><trkpt lat="45.6550833" lon="11.3414667"><ele>665.0</ele><time>2026-04-17T08:07:40.415Z</time></trkpt><trkpt lat="45.6550983" lon="11.3416267"><ele>665.0</ele><time>2026-04-17T08:09:01.415Z</time></trkpt><trkpt lat="45.6548833" lon="11.341835"><ele>661.8333333333333</ele><time>2026-04-17T08:10:51.414Z</time></trkpt><trkpt lat="45.6548233" lon="11.34188"><ele>658.6666666666666</ele><time>2026-04-17T08:10:53.413Z</time></trkpt><trkpt lat="45.6547417" lon="11.341935"><ele>655.5</ele><time>2026-04-17T08:10:56.414Z</time></trkpt><trkpt lat="45.6546767" lon="11.341955"><ele>652.3333333333334</ele><time>2026-04-17T08:10:58.413Z</time></trkpt><trkpt lat="45.654595" lon="11.34199"><ele>649.1666666666667</ele><time>2026-04-17T08:11:01.413Z</time></trkpt><trkpt lat="45.6545583" lon="11.34209"><ele>646.0</ele><time>2026-04-17T08:11:04.413Z</time></trkpt><trkpt lat="45.654555" lon="11.3421983"><ele>643.4</ele><time>2026-04-17T08:11:07.414Z</time></trkpt><trkpt lat="45.654635" lon="11.3423433"><ele>640.8</ele><time>2026-04-17T08:11:11.413Z</time></trkpt><trkpt lat="45.6547017" lon="11.3424217"><ele>638.1999999999999</ele><time>2026-04-17T08:11:13.414Z</time></trkpt><trkpt lat="45.6547733" lon="11.34252"><ele>635.5999999999999</ele><time>2026-04-17T08:11:15.414Z</time></trkpt><trkpt lat="45.6548117" lon="11.342625"><ele>633.0</ele><time>2026-04-17T08:11:17.414Z</time></trkpt><trkpt lat="45.6548283" lon="11.34275"><ele>633.0</ele><time>2026-04-17T08:11:19.414Z</time></trkpt><trkpt lat="45.6548417" lon="11.3428433"><ele>633.0</ele><time>2026-04-17T08:11:21.414Z</time></trkpt><trkpt lat="45.6548767" lon="11.3429633"><ele>633.0</ele><time>2026-04-17T08:11:24.413Z</time></trkpt><trkpt lat="45.6549133" lon="11.34305"><ele>633.0</ele><time>2026-04-17T08:11:26.414Z</time></trkpt><trkpt lat="45.6549667" lon="11.3431233"><ele>633.0</ele><time>2026-04-17T08:11:28.414Z</time></trkpt><trkpt lat="45.65508" lon="11.34327"><ele>629.8333333333334</ele><time>2026-04-17T08:11:32.414Z</time></trkpt><trkpt lat="45.6551667" lon="11.3432933"><ele>626.6666666666666</ele><time>2026-04-17T08:11:35.414Z</time></trkpt><trkpt lat="45.6552517" lon="11.3432517"><ele>623.5</ele><time>2026-04-17T08:11:38.413Z</time></trkpt><trkpt lat="45.6553317" lon="11.3431917"><ele>620.3333333333333</ele><time>2026-04-17T08:11:41.414Z</time></trkpt><trkpt lat="45.655405" lon="11.3431167"><ele>617.1666666666666</ele><time>2026-04-17T08:11:43.414Z</time></trkpt><trkpt lat="45.6554633" lon="11.3430633"><ele>614.0</ele><time>2026-04-17T08:11:45.414Z</time></trkpt><trkpt lat="45.65552" lon="11.3430083"><ele>613.6</ele><time>2026-04-17T08:11:47.413Z</time></trkpt><trkpt lat="45.6555783" lon="11.3429533"><ele>613.2</ele><time>2026-04-17T08:11:49.413Z</time></trkpt><trkpt lat="45.655685" lon="11.34283"><ele>612.8000000000001</ele><time>2026-04-17T08:11:53.413Z</time></trkpt><trkpt lat="45.655765" lon="11.342765"><ele>612.4</ele><time>2026-04-17T08:11:55.414Z</time></trkpt><trkpt lat="45.6558367" lon="11.3426967"><ele>612.0</ele><time>2026-04-17T08:11:57.414Z</time></trkpt><trkpt lat="45.655905" lon="11.3426017"><ele>612.0</ele><time>2026-04-17T08:11:59.413Z</time></trkpt><trkpt lat="45.6559667" lon="11.3425417"><ele>612.0</ele><time>2026-04-17T08:12:01.414Z</time></trkpt><trkpt lat="45.6560383" lon="11.3424633"><ele>612.0</ele><time>2026-04-17T08:12:23.414Z</time></trkpt><trkpt lat="45.6561383" lon="11.34224"><ele>612.0</ele><time>2026-04-17T08:12:27.412Z</time></trkpt><trkpt lat="45.6561767" lon="11.3421133"><ele>612.0</ele><time>2026-04-17T08:12:29.412Z</time></trkpt><trkpt lat="45.6562217" lon="11.3420083"><ele>605.25</ele><time>2026-04-17T08:12:31.413Z</time></trkpt><trkpt lat="45.656275" lon="11.34187"><ele>598.5</ele><time>2026-04-17T08:12:33.413Z</time></trkpt><trkpt lat="45.656325" lon="11.3417133"><ele>591.75</ele><time>2026-04-17T08:12:35.412Z</time></trkpt><trkpt lat="45.65638" lon="11.34156"><ele>585.0</ele><time>2026-04-17T08:12:37.413Z</time></trkpt><trkpt lat="45.6564233" lon="11.3414083"><ele>588.0</ele><time>2026-04-17T08:12:39.412Z</time></trkpt><trkpt lat="45.6564817" lon="11.3412983"><ele>591.0</ele><time>2026-04-17T08:12:41.413Z</time></trkpt><trkpt lat="45.6565667" lon="11.3412567"><ele>594.0</ele><time>2026-04-17T08:12:43.413Z</time></trkpt><trkpt lat="45.6566617" lon="11.3412567"><ele>597.0</ele><time>2026-04-17T08:12:45.413Z</time></trkpt><trkpt lat="45.6568233" lon="11.34123"><ele>600.0</ele><time>2026-04-17T08:12:49.413Z</time></trkpt><trkpt lat="45.6569083" lon="11.341135"><ele>597.3333333333334</ele><time>2026-04-17T08:12:51.413Z</time></trkpt><trkpt lat="45.6569717" lon="11.34106"><ele>594.6666666666666</ele><time>2026-04-17T08:12:52.413Z</time></trkpt><trkpt lat="45.6570367" lon="11.340985"><ele>592.0</ele><time>2026-04-17T08:12:53.413Z</time></trkpt><trkpt lat="45.65711" lon="11.3409217"><ele>589.3333333333333</ele><time>2026-04-17T08:12:54.412Z</time></trkpt><trkpt lat="45.657175" lon="11.340865"><ele>586.6666666666666</ele><time>2026-04-17T08:12:55.413Z</time></trkpt><trkpt lat="45.65724" lon="11.3408117"><ele>584.0</ele><time>2026-04-17T08:12:56.412Z</time></trkpt><trkpt lat="45.657345" lon="11.3407117"><ele>584.0</ele><time>2026-04-17T08:12:58.413Z</time></trkpt><trkpt lat="45.657405" lon="11.3406483"><ele>584.0</ele><time>2026-04-17T08:12:59.413Z</time></trkpt><trkpt lat="45.6574667" lon="11.340595"><ele>584.0</ele><time>2026-04-17T08:13:00.412Z</time></trkpt><trkpt lat="45.65753" lon="11.3405533"><ele>584.0</ele><time>2026-04-17T08:13:01.413Z</time></trkpt><trkpt lat="45.6575983" lon="11.3405333"><ele>584.0</ele><time>2026-04-17T08:13:02.413Z</time></trkpt><trkpt lat="45.6577167" lon="11.3405233"><ele>584.0</ele><time>2026-04-17T08:13:04.413Z</time></trkpt><trkpt lat="45.6578" lon="11.3405367"><ele>586.0</ele><time>2026-04-17T08:13:06.413Z</time></trkpt><trkpt lat="45.6579767" lon="11.3404667"><ele>588.0</ele><time>2026-04-17T08:13:10.413Z</time></trkpt><trkpt lat="45.6580767" lon="11.3404067"><ele>590.0</ele><time>2026-04-17T08:13:12.412Z</time></trkpt><trkpt lat="45.6581567" lon="11.3403583"><ele>592.0</ele><time>2026-04-17T08:13:14.413Z</time></trkpt><trkpt lat="45.65824" lon="11.34033"><ele>592.0</ele><time>2026-04-17T08:13:16.413Z</time></trkpt><trkpt lat="45.658305" lon="11.340265"><ele>592.0</ele><time>2026-04-17T08:13:18.412Z</time></trkpt><trkpt lat="45.658335" lon="11.3401667"><ele>592.0</ele><time>2026-04-17T08:13:20.413Z</time></trkpt><trkpt lat="45.658405" lon="11.3401817"><ele>592.0</ele><time>2026-04-17T08:13:23.413Z</time></trkpt><trkpt lat="45.658435" lon="11.3402733"><ele>592.0</ele><time>2026-04-17T08:13:25.413Z</time></trkpt><trkpt lat="45.6584167" lon="11.3404183"><ele>592.0</ele><time>2026-04-17T08:13:27.413Z</time></trkpt><trkpt lat="45.6583883" lon="11.3407467"><ele>588.6</ele><time>2026-04-17T08:13:31.413Z</time></trkpt><trkpt lat="45.658415" lon="11.34083"><ele>585.2</ele><time>2026-04-17T08:13:32.413Z</time></trkpt><trkpt lat="45.65847" lon="11.3409983"><ele>581.8</ele><time>2026-04-17T08:13:34.413Z</time></trkpt><trkpt lat="45.6585067" lon="11.3411633"><ele>578.4</ele><time>2026-04-17T08:13:36.413Z</time></trkpt><trkpt lat="45.65851" lon="11.3413317"><ele>575.0</ele><time>2026-04-17T08:13:38.413Z</time></trkpt><trkpt lat="45.6584917" lon="11.3414833"><ele>572.8</ele><time>2026-04-17T08:13:40.413Z</time></trkpt><trkpt lat="45.65845" lon="11.34165"><ele>570.6</ele><time>2026-04-17T08:13:42.413Z</time></trkpt><trkpt lat="45.658425" lon="11.341745"><ele>568.4</ele><time>2026-04-17T08:13:43.413Z</time></trkpt><trkpt lat="45.658405" lon="11.3418383"><ele>566.2</ele><time>2026-04-17T08:13:44.413Z</time></trkpt><trkpt lat="45.6584017" lon="11.3420067"><ele>564.0</ele><time>2026-04-17T08:13:46.413Z</time></trkpt><trkpt lat="45.658425" lon="11.3421667"><ele>561.75</ele><time>2026-04-17T08:13:48.412Z</time></trkpt><trkpt lat="45.6583983" lon="11.3425083"><ele>559.5</ele><time>2026-04-17T08:13:52.413Z</time></trkpt><trkpt lat="45.6583833" lon="11.3426133"><ele>557.25</ele><time>2026-04-17T08:13:53.413Z</time></trkpt><trkpt lat="45.6583733" lon="11.342715"><ele>555.0</ele><time>2026-04-17T08:13:54.413Z</time></trkpt><trkpt lat="45.6583583" lon="11.3428167"><ele>555.0</ele><time>2026-04-17T08:13:55.412Z</time></trkpt><trkpt lat="45.6583417" lon="11.3429117"><ele>555.0</ele><time>2026-04-17T08:13:56.413Z</time></trkpt><trkpt lat="45.6583217" lon="11.3430117"><ele>555.0</ele><time>2026-04-17T08:13:57.412Z</time></trkpt><trkpt lat="45.6582783" lon="11.3431033"><ele>555.0</ele><time>2026-04-17T08:13:58.413Z</time></trkpt><trkpt lat="45.6582233" lon="11.3431933"><ele>555.0</ele><time>2026-04-17T08:13:59.413Z</time></trkpt><trkpt lat="45.6581567" lon="11.3432817"><ele>555.0</ele><time>2026-04-17T08:14:00.412Z</time></trkpt><trkpt lat="45.6580933" lon="11.3433733"><ele>554.3333333333334</ele><time>2026-04-17T08:14:01.413Z</time></trkpt><trkpt lat="45.658045" lon="11.34345"><ele>553.6666666666666</ele><time>2026-04-17T08:14:02.413Z</time></trkpt><trkpt lat="45.658" lon="11.343525"><ele>553.0</ele><time>2026-04-17T08:14:03.412Z</time></trkpt><trkpt lat="45.657955" lon="11.34359"><ele>552.3333333333333</ele><time>2026-04-17T08:14:04.412Z</time></trkpt><trkpt lat="45.6578717" lon="11.3436917"><ele>551.6666666666666</ele><time>2026-04-17T08:14:06.413Z</time></trkpt><trkpt lat="45.6577917" lon="11.3437717"><ele>551.0</ele><time>2026-04-17T08:14:08.413Z</time></trkpt><trkpt lat="45.6577033" lon="11.3438667"><ele>548.25</ele><time>2026-04-17T08:14:10.413Z</time></trkpt><trkpt lat="45.6575917" lon="11.344125"><ele>545.5</ele><time>2026-04-17T08:14:14.413Z</time></trkpt><trkpt lat="45.65756" lon="11.3442533"><ele>542.75</ele><time>2026-04-17T08:14:16.413Z</time></trkpt><trkpt lat="45.6575917" lon="11.3443783"><ele>540.0</ele><time>2026-04-17T08:14:18.413Z</time></trkpt><trkpt lat="45.657665" lon="11.3444767"><ele>540.0</ele><time>2026-04-17T08:14:20.413Z</time></trkpt><trkpt lat="45.657705" lon="11.3445983"><ele>540.0</ele><time>2026-04-17T08:14:22.413Z</time></trkpt><trkpt lat="45.65769" lon="11.3446933"><ele>540.0</ele><time>2026-04-17T08:14:24.413Z</time></trkpt><trkpt lat="45.6576667" lon="11.3447817"><ele>540.0</ele><time>2026-04-17T08:14:27.413Z</time></trkpt><trkpt lat="45.6575583" lon="11.344765"><ele>540.0</ele><time>2026-04-17T08:15:20.412Z</time></trkpt><trkpt lat="45.6574283" lon="11.3447617"><ele>539.4</ele><time>2026-04-17T08:15:22.411Z</time></trkpt><trkpt lat="45.6573117" lon="11.34482"><ele>538.8</ele><time>2026-04-17T08:15:24.412Z</time></trkpt><trkpt lat="45.6572367" lon="11.34496"><ele>538.2</ele><time>2026-04-17T08:15:26.412Z</time></trkpt><trkpt lat="45.6572133" lon="11.3450567"><ele>537.6</ele><time>2026-04-17T08:15:27.411Z</time></trkpt><trkpt lat="45.6571917" lon="11.3451517"><ele>537.0</ele><time>2026-04-17T08:15:28.412Z</time></trkpt><trkpt lat="45.6571783" lon="11.3452433"><ele>537.0</ele><time>2026-04-17T08:15:29.412Z</time></trkpt><trkpt lat="45.6571833" lon="11.3453567"><ele>537.0</ele><time>2026-04-17T08:15:30.411Z</time></trkpt><trkpt lat="45.6571617" lon="11.3455033"><ele>537.0</ele><time>2026-04-17T08:15:32.411Z</time></trkpt><trkpt lat="45.6570567" lon="11.3455883"><ele>537.0</ele><time>2026-04-17T08:15:34.412Z</time></trkpt><trkpt lat="45.6569583" lon="11.345585"><ele>537.0</ele><time>2026-04-17T08:15:35.412Z</time></trkpt><trkpt lat="45.65685" lon="11.3455417"><ele>539.8000000000001</ele><time>2026-04-17T08:15:36.412Z</time></trkpt><trkpt lat="45.6567383" lon="11.345485"><ele>542.6</ele><time>2026-04-17T08:15:37.412Z</time></trkpt><trkpt lat="45.6566433" lon="11.3454267"><ele>545.4000000000001</ele><time>2026-04-17T08:15:38.411Z</time></trkpt><trkpt lat="45.6565667" lon="11.34535"><ele>548.2</ele><time>2026-04-17T08:15:39.411Z</time></trkpt><trkpt lat="45.6564967" lon="11.345275"><ele>551.0</ele><time>2026-04-17T08:15:40.412Z</time></trkpt><trkpt lat="45.6564267" lon="11.3451767"><ele>551.0</ele><time>2026-04-17T08:15:41.411Z</time></trkpt><trkpt lat="45.656265" lon="11.3450367"><ele>551.0</ele><time>2026-04-17T08:15:43.411Z</time></trkpt><trkpt lat="45.6561817" lon="11.3449983"><ele>551.0</ele><time>2026-04-17T08:15:44.412Z</time></trkpt><trkpt lat="45.6560783" lon="11.3449817"><ele>551.0</ele><time>2026-04-17T08:15:45.412Z</time></trkpt><trkpt lat="45.6559667" lon="11.344965"><ele>552.3333333333333</ele><time>2026-04-17T08:15:46.412Z</time></trkpt><trkpt lat="45.6558783" lon="11.344965"><ele>553.6666666666666</ele><time>2026-04-17T08:15:47.411Z</time></trkpt><trkpt lat="45.655805" lon="11.3449817"><ele>555.0</ele><time>2026-04-17T08:15:48.412Z</time></trkpt><trkpt lat="45.6557367" lon="11.34501"><ele>556.3333333333334</ele><time>2026-04-17T08:15:49.412Z</time></trkpt><trkpt lat="45.6556817" lon="11.345055"><ele>557.6666666666667</ele><time>2026-04-17T08:15:50.411Z</time></trkpt><trkpt lat="45.6556167" lon="11.3451283"><ele>559.0</ele><time>2026-04-17T08:15:51.411Z</time></trkpt><trkpt lat="45.65556" lon="11.3452233"><ele>559.0</ele><time>2026-04-17T08:15:52.412Z</time></trkpt><trkpt lat="45.6555033" lon="11.3453183"><ele>559.0</ele><time>2026-04-17T08:15:53.412Z</time></trkpt><trkpt lat="45.6554367" lon="11.3454067"><ele>559.0</ele><time>2026-04-17T08:15:54.412Z</time></trkpt><trkpt lat="45.6553733" lon="11.34547"><ele>559.0</ele><time>2026-04-17T08:15:55.412Z</time></trkpt><trkpt lat="45.65532" lon="11.3455217"><ele>559.0</ele><time>2026-04-17T08:15:56.412Z</time></trkpt><trkpt lat="45.6552667" lon="11.345575"><ele>559.0</ele><time>2026-04-17T08:15:57.412Z</time></trkpt><trkpt lat="45.6551683" lon="11.3456017"><ele>562.0</ele><time>2026-04-17T08:15:59.412Z</time></trkpt><trkpt lat="45.65507" lon="11.3455283"><ele>565.0</ele><time>2026-04-17T08:16:01.412Z</time></trkpt><trkpt lat="45.6550333" lon="11.3454517"><ele>568.0</ele><time>2026-04-17T08:16:02.412Z</time></trkpt><trkpt lat="45.6549167" lon="11.3452367"><ele>571.0</ele><time>2026-04-17T08:16:04.412Z</time></trkpt><trkpt lat="45.654835" lon="11.34508"><ele>571.0</ele><time>2026-04-17T08:16:05.411Z</time></trkpt><trkpt lat="45.6547567" lon="11.3449367"><ele>571.0</ele><time>2026-04-17T08:16:06.412Z</time></trkpt><trkpt lat="45.65469" lon="11.34483"><ele>571.0</ele><time>2026-04-17T08:16:07.411Z</time></trkpt><trkpt lat="45.654625" lon="11.34475"><ele>571.0</ele><time>2026-04-17T08:16:08.412Z</time></trkpt><trkpt lat="45.654555" lon="11.3446883"><ele>571.0</ele><time>2026-04-17T08:16:09.412Z</time></trkpt><trkpt lat="45.6544683" lon="11.3446383"><ele>574.8</ele><time>2026-04-17T08:16:10.412Z</time></trkpt><trkpt lat="45.654385" lon="11.3446033"><ele>578.6</ele><time>2026-04-17T08:16:11.412Z</time></trkpt><trkpt lat="45.6543117" lon="11.3445517"><ele>582.4</ele><time>2026-04-17T08:16:12.412Z</time></trkpt><trkpt lat="45.6542383" lon="11.3444933"><ele>586.2</ele><time>2026-04-17T08:16:13.412Z</time></trkpt><trkpt lat="45.6541483" lon="11.344435"><ele>590.0</ele><time>2026-04-17T08:16:14.412Z</time></trkpt><trkpt lat="45.65405" lon="11.3443667"><ele>590.0</ele><time>2026-04-17T08:16:15.412Z</time></trkpt><trkpt lat="45.65395" lon="11.3443133"><ele>590.0</ele><time>2026-04-17T08:16:16.412Z</time></trkpt><trkpt lat="45.6538667" lon="11.34426"><ele>590.0</ele><time>2026-04-17T08:16:17.412Z</time></trkpt><trkpt lat="45.6537883" lon="11.3442083"><ele>590.0</ele><time>2026-04-17T08:16:18.412Z</time></trkpt><trkpt lat="45.653705" lon="11.344175"><ele>590.0</ele><time>2026-04-17T08:16:19.412Z</time></trkpt><trkpt lat="45.6536133" lon="11.3441583"><ele>593.75</ele><time>2026-04-17T08:16:20.411Z</time></trkpt><trkpt lat="45.653515" lon="11.3441633"><ele>597.5</ele><time>2026-04-17T08:16:21.412Z</time></trkpt><trkpt lat="45.6534333" lon="11.3441583"><ele>601.25</ele><time>2026-04-17T08:16:22.411Z</time></trkpt><trkpt lat="45.6533617" lon="11.344145"><ele>605.0</ele><time>2026-04-17T08:16:23.412Z</time></trkpt><trkpt lat="45.6532033" lon="11.3439217"><ele>603.8333333333333</ele><time>2026-04-17T08:16:27.412Z</time></trkpt><trkpt lat="45.6531883" lon="11.3438167"><ele>602.6666666666666</ele><time>2026-04-17T08:16:28.412Z</time></trkpt><trkpt lat="45.6531817" lon="11.3436967"><ele>601.5</ele><time>2026-04-17T08:16:29.412Z</time></trkpt><trkpt lat="45.6531717" lon="11.3435717"><ele>600.3333333333334</ele><time>2026-04-17T08:16:30.412Z</time></trkpt><trkpt lat="45.6531483" lon="11.3434717"><ele>599.1666666666667</ele><time>2026-04-17T08:16:31.411Z</time></trkpt><trkpt lat="45.65308" lon="11.3433333"><ele>598.0</ele><time>2026-04-17T08:16:33.412Z</time></trkpt><trkpt lat="45.6530167" lon="11.3432917"><ele>598.0</ele><time>2026-04-17T08:16:34.411Z</time></trkpt><trkpt lat="45.65295" lon="11.34324"><ele>598.0</ele><time>2026-04-17T08:16:35.412Z</time></trkpt><trkpt lat="45.6528817" lon="11.3431983"><ele>598.0</ele><time>2026-04-17T08:16:36.412Z</time></trkpt><trkpt lat="45.6527983" lon="11.3431617"><ele>598.0</ele><time>2026-04-17T08:16:37.412Z</time></trkpt><trkpt lat="45.6527333" lon="11.3431267"><ele>598.0</ele><time>2026-04-17T08:16:38.412Z</time></trkpt><trkpt lat="45.652675" lon="11.3430767"><ele>598.0</ele><time>2026-04-17T08:16:39.412Z</time></trkpt><trkpt lat="45.6526067" lon="11.3430233"><ele>601.1999999999999</ele><time>2026-04-17T08:16:40.411Z</time></trkpt><trkpt lat="45.6525333" lon="11.3429467"><ele>604.4</ele><time>2026-04-17T08:16:41.412Z</time></trkpt><trkpt lat="45.65245" lon="11.3428533"><ele>607.5999999999999</ele><time>2026-04-17T08:16:42.412Z</time></trkpt><trkpt lat="45.6523483" lon="11.342755"><ele>610.8</ele><time>2026-04-17T08:16:43.412Z</time></trkpt><trkpt lat="45.65225" lon="11.3426633"><ele>614.0</ele><time>2026-04-17T08:16:44.412Z</time></trkpt><trkpt lat="45.6521017" lon="11.342475"><ele>614.0</ele><time>2026-04-17T08:16:46.411Z</time></trkpt><trkpt lat="45.6520383" lon="11.342375"><ele>614.0</ele><time>2026-04-17T08:16:47.412Z</time></trkpt><trkpt lat="45.651985" lon="11.342275"><ele>614.0</ele><time>2026-04-17T08:16:48.412Z</time></trkpt><trkpt lat="45.651945" lon="11.3421633"><ele>614.0</ele><time>2026-04-17T08:16:49.412Z</time></trkpt><trkpt lat="45.6519033" lon="11.3420567"><ele>614.0</ele><time>2026-04-17T08:16:50.412Z</time></trkpt><trkpt lat="45.6518617" lon="11.3419633"><ele>614.0</ele><time>2026-04-17T08:16:51.412Z</time></trkpt><trkpt lat="45.6518067" lon="11.3418733"><ele>619.0</ele><time>2026-04-17T08:16:52.412Z</time></trkpt><trkpt lat="45.6517367" lon="11.3417933"><ele>624.0</ele><time>2026-04-17T08:16:53.412Z</time></trkpt><trkpt lat="45.6516417" lon="11.3417317"><ele>629.0</ele><time>2026-04-17T08:16:54.412Z</time></trkpt><trkpt lat="45.6515483" lon="11.341675"><ele>634.0</ele><time>2026-04-17T08:16:55.412Z</time></trkpt><trkpt lat="45.65145" lon="11.3416333"><ele>639.0</ele><time>2026-04-17T08:16:56.411Z</time></trkpt><trkpt lat="45.6513567" lon="11.341605"><ele>639.0</ele><time>2026-04-17T08:16:57.412Z</time></trkpt><trkpt lat="45.6512583" lon="11.34159"><ele>639.0</ele><time>2026-04-17T08:16:58.411Z</time></trkpt><trkpt lat="45.6511583" lon="11.3415883"><ele>639.0</ele><time>2026-04-17T08:16:59.412Z</time></trkpt><trkpt lat="45.6510733" lon="11.34156"><ele>639.0</ele><time>2026-04-17T08:17:00.412Z</time></trkpt><trkpt lat="45.6509833" lon="11.34153"><ele>639.0</ele><time>2026-04-17T08:17:01.412Z</time></trkpt><trkpt lat="45.650895" lon="11.341505"><ele>641.4</ele><time>2026-04-17T08:17:02.412Z</time></trkpt><trkpt lat="45.6508083" lon="11.341485"><ele>643.8</ele><time>2026-04-17T08:17:03.412Z</time></trkpt><trkpt lat="45.6507267" lon="11.3414733"><ele>646.1999999999999</ele><time>2026-04-17T08:17:04.412Z</time></trkpt><trkpt lat="45.6506467" lon="11.3414933"><ele>648.5999999999999</ele><time>2026-04-17T08:17:05.412Z</time></trkpt><trkpt lat="45.6504683" lon="11.3415783"><ele>651.0</ele><time>2026-04-17T08:17:07.411Z</time></trkpt><trkpt lat="45.65037" lon="11.3416"><ele>652.8333333333334</ele><time>2026-04-17T08:17:08.412Z</time></trkpt><trkpt lat="45.65028" lon="11.3416067"><ele>654.6666666666666</ele><time>2026-04-17T08:17:09.412Z</time></trkpt><trkpt lat="45.6502067" lon="11.3415733"><ele>656.5</ele><time>2026-04-17T08:17:10.411Z</time></trkpt><trkpt lat="45.650145" lon="11.3415317"><ele>658.3333333333333</ele><time>2026-04-17T08:17:11.412Z</time></trkpt><trkpt lat="45.6500817" lon="11.3415017"><ele>660.1666666666666</ele><time>2026-04-17T08:17:12.412Z</time></trkpt><trkpt lat="45.65001" lon="11.3414817"><ele>662.0</ele><time>2026-04-17T08:17:13.411Z</time></trkpt><trkpt lat="45.6499317" lon="11.3414783"><ele>662.0</ele><time>2026-04-17T08:17:14.411Z</time></trkpt><trkpt lat="45.649845" lon="11.3414767"><ele>662.0</ele><time>2026-04-17T08:17:15.412Z</time></trkpt><trkpt lat="45.6497583" lon="11.3414767"><ele>662.0</ele><time>2026-04-17T08:17:16.412Z</time></trkpt><trkpt lat="45.6496733" lon="11.3414783"><ele>662.0</ele><time>2026-04-17T08:17:17.412Z</time></trkpt><trkpt lat="45.6495883" lon="11.3414717"><ele>662.0</ele><time>2026-04-17T08:17:18.412Z</time></trkpt><trkpt lat="45.64951" lon="11.3414383"><ele>662.0</ele><time>2026-04-17T08:17:19.412Z</time></trkpt><trkpt lat="45.6494317" lon="11.341385"><ele>660.0</ele><time>2026-04-17T08:17:20.412Z</time></trkpt><trkpt lat="45.64935" lon="11.3413267"><ele>658.0</ele><time>2026-04-17T08:17:21.411Z</time></trkpt><trkpt lat="45.6492683" lon="11.341255"><ele>656.0</ele><time>2026-04-17T08:17:22.411Z</time></trkpt><trkpt lat="45.6491717" lon="11.3411783"><ele>654.0</ele><time>2026-04-17T08:17:23.412Z</time></trkpt><trkpt lat="45.6490667" lon="11.3411217"><ele>652.0</ele><time>2026-04-17T08:17:24.412Z</time></trkpt><trkpt lat="45.648955" lon="11.341085"><ele>652.0</ele><time>2026-04-17T08:17:25.412Z</time></trkpt><trkpt lat="45.6488517" lon="11.3410567"><ele>652.0</ele><time>2026-04-17T08:17:26.411Z</time></trkpt><trkpt lat="45.64863" lon="11.3410483"><ele>652.0</ele><time>2026-04-17T08:17:28.411Z</time></trkpt><trkpt lat="45.6485083" lon="11.3410583"><ele>652.0</ele><time>2026-04-17T08:17:29.412Z</time></trkpt><trkpt lat="45.6483883" lon="11.34107"><ele>653.8</ele><time>2026-04-17T08:17:30.411Z</time></trkpt><trkpt lat="45.648275" lon="11.3410933"><ele>655.6</ele><time>2026-04-17T08:17:31.411Z</time></trkpt><trkpt lat="45.648165" lon="11.341115"><ele>657.4</ele><time>2026-04-17T08:17:32.412Z</time></trkpt><trkpt lat="45.6480733" lon="11.3411433"><ele>659.1999999999999</ele><time>2026-04-17T08:17:33.412Z</time></trkpt><trkpt lat="45.647995" lon="11.3411817"><ele>661.0</ele><time>2026-04-17T08:17:34.411Z</time></trkpt><trkpt lat="45.6479333" lon="11.34121"><ele>661.0</ele><time>2026-04-17T08:17:35.412Z</time></trkpt><trkpt lat="45.6478383" lon="11.3412667"><ele>661.0</ele><time>2026-04-17T08:17:37.412Z</time></trkpt><trkpt lat="45.647745" lon="11.3413367"><ele>661.0</ele><time>2026-04-17T08:17:39.412Z</time></trkpt><trkpt lat="45.647685" lon="11.3413817"><ele>661.0</ele><time>2026-04-17T08:17:40.412Z</time></trkpt><trkpt lat="45.647625" lon="11.34146"><ele>661.0</ele><time>2026-04-17T08:17:41.412Z</time></trkpt><trkpt lat="45.6475467" lon="11.3415683"><ele>662.5</ele><time>2026-04-17T08:17:42.411Z</time></trkpt><trkpt lat="45.6474883" lon="11.3416933"><ele>664.0</ele><time>2026-04-17T08:17:43.412Z</time></trkpt><trkpt lat="45.6474383" lon="11.3418167"><ele>665.5</ele><time>2026-04-17T08:17:44.412Z</time></trkpt><trkpt lat="45.6474083" lon="11.3419367"><ele>667.0</ele><time>2026-04-17T08:17:45.41Z</time></trkpt><trkpt lat="45.647375" lon="11.342045"><ele>668.5</ele><time>2026-04-17T08:17:46.411Z</time></trkpt><trkpt lat="45.64736" lon="11.3421383"><ele>670.0</ele><time>2026-04-17T08:17:47.41Z</time></trkpt><trkpt lat="45.647395" lon="11.34234"><ele>671.0</ele><time>2026-04-17T08:17:49.41Z</time></trkpt><trkpt lat="45.6474483" lon="11.3424283"><ele>672.0</ele><time>2026-04-17T08:17:50.411Z</time></trkpt><trkpt lat="45.64751" lon="11.3424867"><ele>673.0</ele><time>2026-04-17T08:17:51.41Z</time></trkpt><trkpt lat="45.64759" lon="11.3425183"><ele>674.0</ele><time>2026-04-17T08:17:52.41Z</time></trkpt><trkpt lat="45.647685" lon="11.3425133"><ele>675.0</ele><time>2026-04-17T08:17:53.411Z</time></trkpt><trkpt lat="45.647775" lon="11.3425183"><ele>676.0</ele><time>2026-04-17T08:17:54.41Z</time></trkpt><trkpt lat="45.647855" lon="11.34255"><ele>677.0</ele><time>2026-04-17T08:17:55.411Z</time></trkpt><trkpt lat="45.6479567" lon="11.3426833"><ele>678.0</ele><time>2026-04-17T08:17:57.41Z</time></trkpt><trkpt lat="45.6480017" lon="11.3428017"><ele>679.0</ele><time>2026-04-17T08:17:58.41Z</time></trkpt><trkpt lat="45.6480383" lon="11.3429433"><ele>680.0</ele><time>2026-04-17T08:17:59.41Z</time></trkpt><trkpt lat="45.64807" lon="11.3430917"><ele>681.0</ele><time>2026-04-17T08:18:00.411Z</time></trkpt><trkpt lat="45.6480833" lon="11.3432217"><ele>681.0</ele><time>2026-04-17T08:18:01.411Z</time></trkpt><trkpt lat="45.6480817" lon="11.34336"><ele>681.0</ele><time>2026-04-17T08:18:02.411Z</time></trkpt><trkpt lat="45.64807" lon="11.3434983"><ele>681.0</ele><time>2026-04-17T08:18:03.411Z</time></trkpt><trkpt lat="45.6480533" lon="11.3436283"><ele>681.0</ele><time>2026-04-17T08:18:04.411Z</time></trkpt><trkpt lat="45.648045" lon="11.34375"><ele>681.0</ele><time>2026-04-17T08:18:05.41Z</time></trkpt><trkpt lat="45.6480433" lon="11.3438617"><ele>681.0</ele><time>2026-04-17T08:18:06.411Z</time></trkpt><trkpt lat="45.6480367" lon="11.3439667"><ele>681.0</ele><time>2026-04-17T08:18:07.411Z</time></trkpt><trkpt lat="45.6479933" lon="11.3441167"><ele>681.0</ele><time>2026-04-17T08:18:09.411Z</time></trkpt><trkpt lat="45.6478917" lon="11.34428"><ele>681.0</ele><time>2026-04-17T08:18:13.411Z</time></trkpt><trkpt lat="45.6478183" lon="11.3444217"><ele>682.0</ele><time>2026-04-17T08:18:15.411Z</time></trkpt><trkpt lat="45.64778" lon="11.344535"><ele>683.0</ele><time>2026-04-17T08:18:16.411Z</time></trkpt><trkpt lat="45.6477483" lon="11.3446533"><ele>684.0</ele><time>2026-04-17T08:18:17.411Z</time></trkpt><trkpt lat="45.64773" lon="11.3447667"><ele>685.0</ele><time>2026-04-17T08:18:18.41Z</time></trkpt><trkpt lat="45.6477133" lon="11.3448617"><ele>686.0</ele><time>2026-04-17T08:18:19.411Z</time></trkpt><trkpt lat="45.6477117" lon="11.3449983"><ele>687.0</ele><time>2026-04-17T08:18:21.411Z</time></trkpt><trkpt lat="45.6477183" lon="11.3451083"><ele>683.75</ele><time>2026-04-17T08:18:24.411Z</time></trkpt><trkpt lat="45.647765" lon="11.3452017"><ele>680.5</ele><time>2026-04-17T08:18:26.411Z</time></trkpt><trkpt lat="45.6478533" lon="11.345295"><ele>677.25</ele><time>2026-04-17T08:18:28.411Z</time></trkpt><trkpt lat="45.6479567" lon="11.3453767"><ele>674.0</ele><time>2026-04-17T08:18:30.41Z</time></trkpt><trkpt lat="45.64815" lon="11.3454667"><ele>673.6</ele><time>2026-04-17T08:18:34.411Z</time></trkpt><trkpt lat="45.64825" lon="11.3453983"><ele>673.2</ele><time>2026-04-17T08:18:36.41Z</time></trkpt><trkpt lat="45.6483117" lon="11.3453333"><ele>672.8000000000001</ele><time>2026-04-17T08:18:37.41Z</time></trkpt><trkpt lat="45.6483767" lon="11.3452783"><ele>672.4000000000001</ele><time>2026-04-17T08:18:38.411Z</time></trkpt><trkpt lat="45.6484883" lon="11.3452467"><ele>672.0</ele><time>2026-04-17T08:18:40.411Z</time></trkpt><trkpt lat="45.6485633" lon="11.3453267"><ele>672.0</ele><time>2026-04-17T08:18:42.41Z</time></trkpt><trkpt lat="45.64861" lon="11.345415"><ele>672.0</ele><time>2026-04-17T08:18:43.41Z</time></trkpt><trkpt lat="45.6486683" lon="11.345515"><ele>672.0</ele><time>2026-04-17T08:18:44.41Z</time></trkpt><trkpt lat="45.6487567" lon="11.34561"><ele>672.0</ele><time>2026-04-17T08:18:46.41Z</time></trkpt><trkpt lat="45.6488167" lon="11.3456417"><ele>672.0</ele><time>2026-04-17T08:18:47.411Z</time></trkpt><trkpt lat="45.6488883" lon="11.345685"><ele>672.0</ele><time>2026-04-17T08:18:48.411Z</time></trkpt><trkpt lat="45.6489667" lon="11.34573"><ele>672.8</ele><time>2026-04-17T08:18:49.411Z</time></trkpt><trkpt lat="45.6490467" lon="11.3457833"><ele>673.6</ele><time>2026-04-17T08:18:50.411Z</time></trkpt><trkpt lat="45.649125" lon="11.3458317"><ele>674.4</ele><time>2026-04-17T08:18:51.41Z</time></trkpt><trkpt lat="45.6492583" lon="11.3458883"><ele>675.1999999999999</ele><time>2026-04-17T08:18:53.411Z</time></trkpt><trkpt lat="45.6493283" lon="11.3459133"><ele>676.0</ele><time>2026-04-17T08:18:54.41Z</time></trkpt><trkpt lat="45.6493967" lon="11.3459417"><ele>676.4285714285714</ele><time>2026-04-17T08:18:55.41Z</time></trkpt><trkpt lat="45.6494683" lon="11.3459867"><ele>676.8571428571429</ele><time>2026-04-17T08:18:56.41Z</time></trkpt><trkpt lat="45.649535" lon="11.3460333"><ele>677.2857142857142</ele><time>2026-04-17T08:18:57.41Z</time></trkpt><trkpt lat="45.6496033" lon="11.3460783"><ele>677.7142857142858</ele><time>2026-04-17T08:18:58.411Z</time></trkpt><trkpt lat="45.6496783" lon="11.346115"><ele>678.1428571428571</ele><time>2026-04-17T08:18:59.411Z</time></trkpt><trkpt lat="45.6497483" lon="11.3461583"><ele>678.5714285714286</ele><time>2026-04-17T08:19:00.41Z</time></trkpt><trkpt lat="45.6498" lon="11.3462117"><ele>679.0</ele><time>2026-04-17T08:19:01.41Z</time></trkpt><trkpt lat="45.6498683" lon="11.346255"><ele>679.0</ele><time>2026-04-17T08:19:02.411Z</time></trkpt><trkpt lat="45.64993" lon="11.3463033"><ele>679.0</ele><time>2026-04-17T08:19:03.411Z</time></trkpt><trkpt lat="45.6500083" lon="11.3463483"><ele>679.0</ele><time>2026-04-17T08:19:04.41Z</time></trkpt><trkpt lat="45.650085" lon="11.3463783"><ele>679.0</ele><time>2026-04-17T08:19:05.411Z</time></trkpt><trkpt lat="45.650165" lon="11.3464167"><ele>679.0</ele><time>2026-04-17T08:19:06.411Z</time></trkpt><trkpt lat="45.65025" lon="11.346465"><ele>679.0</ele><time>2026-04-17T08:19:07.41Z</time></trkpt><trkpt lat="45.6503183" lon="11.3465167"><ele>677.25</ele><time>2026-04-17T08:19:08.411Z</time></trkpt><trkpt lat="45.650365" lon="11.3465783"><ele>675.5</ele><time>2026-04-17T08:19:09.411Z</time></trkpt><trkpt lat="45.650425" lon="11.3467"><ele>673.75</ele><time>2026-04-17T08:19:11.411Z</time></trkpt><trkpt lat="45.6504667" lon="11.34687"><ele>672.0</ele><time>2026-04-17T08:19:13.41Z</time></trkpt><trkpt lat="45.6505183" lon="11.3472017"><ele>670.8333333333334</ele><time>2026-04-17T08:19:17.411Z</time></trkpt><trkpt lat="45.6505533" lon="11.3472817"><ele>669.6666666666666</ele><time>2026-04-17T08:19:18.41Z</time></trkpt><trkpt lat="45.650595" lon="11.34735"><ele>668.5</ele><time>2026-04-17T08:19:19.411Z</time></trkpt><trkpt lat="45.6506583" lon="11.3474483"><ele>667.3333333333333</ele><time>2026-04-17T08:19:21.411Z</time></trkpt><trkpt lat="45.65069" lon="11.3475633"><ele>666.1666666666666</ele><time>2026-04-17T08:19:23.41Z</time></trkpt><trkpt lat="45.6506633" lon="11.347685"><ele>665.0</ele><time>2026-04-17T08:19:26.411Z</time></trkpt><trkpt lat="45.65062" lon="11.3477933"><ele>665.0</ele><time>2026-04-17T08:19:29.41Z</time></trkpt><trkpt lat="45.65054" lon="11.3478667"><ele>665.0</ele><time>2026-04-17T08:19:31.411Z</time></trkpt><trkpt lat="45.6504367" lon="11.3479517"><ele>665.0</ele><time>2026-04-17T08:19:33.41Z</time></trkpt><trkpt lat="45.65034" lon="11.3480267"><ele>665.0</ele><time>2026-04-17T08:19:35.411Z</time></trkpt><trkpt lat="45.650195" lon="11.348185"><ele>663.4285714285714</ele><time>2026-04-17T08:19:39.411Z</time></trkpt><trkpt lat="45.6501483" lon="11.3482867"><ele>661.8571428571429</ele><time>2026-04-17T08:19:41.411Z</time></trkpt><trkpt lat="45.650105" lon="11.348385"><ele>660.2857142857142</ele><time>2026-04-17T08:19:43.41Z</time></trkpt><trkpt lat="45.6500667" lon="11.34847"><ele>658.7142857142858</ele><time>2026-04-17T08:19:45.41Z</time></trkpt><trkpt lat="45.6500317" lon="11.3485567"><ele>657.1428571428571</ele><time>2026-04-17T08:19:47.411Z</time></trkpt><trkpt lat="45.6500033" lon="11.348645"><ele>655.5714285714286</ele><time>2026-04-17T08:19:49.411Z</time></trkpt><trkpt lat="45.6499833" lon="11.3487433"><ele>654.0</ele><time>2026-04-17T08:19:51.41Z</time></trkpt><trkpt lat="45.64996" lon="11.3488583"><ele>653.8000000000001</ele><time>2026-04-17T08:19:53.411Z</time></trkpt><trkpt lat="45.64994" lon="11.3489717"><ele>653.6</ele><time>2026-04-17T08:19:55.41Z</time></trkpt><trkpt lat="45.6499433" lon="11.349085"><ele>653.4</ele><time>2026-04-17T08:19:57.411Z</time></trkpt><trkpt lat="45.64997" lon="11.3493067"><ele>653.2</ele><time>2026-04-17T08:20:01.411Z</time></trkpt><trkpt lat="45.6499933" lon="11.3494283"><ele>653.0</ele><time>2026-04-17T08:20:03.41Z</time></trkpt><trkpt lat="45.6500117" lon="11.34953"><ele>653.0</ele><time>2026-04-17T08:20:05.411Z</time></trkpt><trkpt lat="45.6499417" lon="11.3495733"><ele>653.0</ele><time>2026-04-17T08:20:09.41Z</time></trkpt><trkpt lat="45.6498667" lon="11.3495417"><ele>653.0</ele><time>2026-04-17T08:20:11.411Z</time></trkpt><trkpt lat="45.649785" lon="11.349505"><ele>653.0</ele><time>2026-04-17T08:20:13.41Z</time></trkpt><trkpt lat="45.6496917" lon="11.3494833"><ele>653.0</ele><time>2026-04-17T08:20:15.411Z</time></trkpt><trkpt lat="45.6495917" lon="11.34947"><ele>653.0</ele><time>2026-04-17T08:20:17.41Z</time></trkpt><trkpt lat="45.64948" lon="11.3494933"><ele>651.75</ele><time>2026-04-17T08:20:19.411Z</time></trkpt><trkpt lat="45.64925" lon="11.349565"><ele>650.5</ele><time>2026-04-17T08:20:23.411Z</time></trkpt><trkpt lat="45.64913" lon="11.3496133"><ele>649.25</ele><time>2026-04-17T08:20:25.41Z</time></trkpt><trkpt lat="45.6490667" lon="11.3496283"><ele>648.0</ele><time>2026-04-17T08:20:26.411Z</time></trkpt><trkpt lat="45.6489517" lon="11.3497033"><ele>648.5999999999999</ele><time>2026-04-17T08:20:28.411Z</time></trkpt><trkpt lat="45.6488967" lon="11.3497533"><ele>649.1999999999999</ele><time>2026-04-17T08:20:29.41Z</time></trkpt><trkpt lat="45.6488383" lon="11.3498017"><ele>649.8</ele><time>2026-04-17T08:20:30.411Z</time></trkpt><trkpt lat="45.6487267" lon="11.3498417"><ele>650.4</ele><time>2026-04-17T08:20:32.41Z</time></trkpt><trkpt lat="45.64862" lon="11.3498017"><ele>651.0</ele><time>2026-04-17T08:20:34.409Z</time></trkpt><trkpt lat="45.6485" lon="11.3497517"><ele>651.0</ele><time>2026-04-17T08:20:36.41Z</time></trkpt><trkpt lat="45.648375" lon="11.3497517"><ele>651.0</ele><time>2026-04-17T08:20:38.41Z</time></trkpt><trkpt lat="45.6483017" lon="11.3497817"><ele>651.0</ele><time>2026-04-17T08:20:39.41Z</time></trkpt><trkpt lat="45.64823" lon="11.34983"><ele>651.0</ele><time>2026-04-17T08:20:40.409Z</time></trkpt><trkpt lat="45.6480867" lon="11.3498933"><ele>651.0</ele><time>2026-04-17T08:20:42.409Z</time></trkpt><trkpt lat="45.6480117" lon="11.3498983"><ele>651.0</ele><time>2026-04-17T08:20:43.41Z</time></trkpt><trkpt lat="45.6479333" lon="11.349905"><ele>651.0</ele><time>2026-04-17T08:20:44.41Z</time></trkpt><trkpt lat="45.64786" lon="11.3498917"><ele>651.0</ele><time>2026-04-17T08:20:45.409Z</time></trkpt><trkpt lat="45.6477483" lon="11.349895"><ele>651.0</ele><time>2026-04-17T08:20:47.41Z</time></trkpt><trkpt lat="45.647655" lon="11.3498883"><ele>651.0</ele><time>2026-04-17T08:20:49.41Z</time></trkpt><trkpt lat="45.6475533" lon="11.34988"><ele>650.1666666666666</ele><time>2026-04-17T08:20:51.41Z</time></trkpt><trkpt lat="45.647435" lon="11.3499133"><ele>649.3333333333334</ele><time>2026-04-17T08:20:53.409Z</time></trkpt><trkpt lat="45.64731" lon="11.3499367"><ele>648.5</ele><time>2026-04-17T08:20:55.41Z</time></trkpt><trkpt lat="45.64724" lon="11.3499283"><ele>647.6666666666667</ele><time>2026-04-17T08:20:56.409Z</time></trkpt><trkpt lat="45.6471767" lon="11.34993"><ele>646.8333333333334</ele><time>2026-04-17T08:20:57.41Z</time></trkpt><trkpt lat="45.6471117" lon="11.3499417"><ele>646.0</ele><time>2026-04-17T08:20:58.41Z</time></trkpt><trkpt lat="45.6470517" lon="11.3499767"><ele>645.0</ele><time>2026-04-17T08:20:59.41Z</time></trkpt><trkpt lat="45.6469433" lon="11.350005"><ele>644.0</ele><time>2026-04-17T08:21:01.41Z</time></trkpt><trkpt lat="45.6468033" lon="11.349965"><ele>643.0</ele><time>2026-04-17T08:21:03.41Z</time></trkpt><trkpt lat="45.6467417" lon="11.3499383"><ele>642.0</ele><time>2026-04-17T08:21:04.41Z</time></trkpt><trkpt lat="45.6466267" lon="11.3498967"><ele>641.0</ele><time>2026-04-17T08:21:06.409Z</time></trkpt><trkpt lat="45.6465583" lon="11.3498767"><ele>641.0</ele><time>2026-04-17T08:21:07.41Z</time></trkpt><trkpt lat="45.6464883" lon="11.34986"><ele>641.0</ele><time>2026-04-17T08:21:08.41Z</time></trkpt><trkpt lat="45.64641" lon="11.3498583"><ele>641.0</ele><time>2026-04-17T08:21:09.41Z</time></trkpt><trkpt lat="45.6463217" lon="11.34987"><ele>641.0</ele><time>2026-04-17T08:21:10.41Z</time></trkpt><trkpt lat="45.6462367" lon="11.3498717"><ele>641.0</ele><time>2026-04-17T08:21:11.41Z</time></trkpt><trkpt lat="45.6461333" lon="11.3498917"><ele>641.0</ele><time>2026-04-17T08:21:12.41Z</time></trkpt><trkpt lat="45.6460367" lon="11.3499133"><ele>641.5999999999999</ele><time>2026-04-17T08:21:13.41Z</time></trkpt><trkpt lat="45.645945" lon="11.3499383"><ele>642.2</ele><time>2026-04-17T08:21:14.41Z</time></trkpt><trkpt lat="45.6458617" lon="11.34995"><ele>642.8</ele><time>2026-04-17T08:21:15.41Z</time></trkpt><trkpt lat="45.6457733" lon="11.349955"><ele>643.4000000000001</ele><time>2026-04-17T08:21:16.41Z</time></trkpt><trkpt lat="45.6456883" lon="11.3499517"><ele>644.0</ele><time>2026-04-17T08:21:17.41Z</time></trkpt><trkpt lat="45.6455733" lon="11.34989"><ele>644.0</ele><time>2026-04-17T08:21:19.41Z</time></trkpt><trkpt lat="45.6455083" lon="11.34977"><ele>644.0</ele><time>2026-04-17T08:21:21.409Z</time></trkpt><trkpt lat="45.645445" lon="11.3496233"><ele>644.0</ele><time>2026-04-17T08:21:23.409Z</time></trkpt><trkpt lat="45.6452917" lon="11.3494617"><ele>644.0</ele><time>2026-04-17T08:21:26.41Z</time></trkpt><trkpt lat="45.6452183" lon="11.3494183"><ele>641.25</ele><time>2026-04-17T08:21:27.409Z</time></trkpt><trkpt lat="45.6450733" lon="11.3493333"><ele>638.5</ele><time>2026-04-17T08:21:29.41Z</time></trkpt><trkpt lat="45.6449783" lon="11.3493"><ele>635.75</ele><time>2026-04-17T08:21:30.41Z</time></trkpt><trkpt lat="45.64488" lon="11.3492867"><ele>633.0</ele><time>2026-04-17T08:21:31.41Z</time></trkpt><trkpt lat="45.6447833" lon="11.3492833"><ele>633.0</ele><time>2026-04-17T08:21:32.409Z</time></trkpt><trkpt lat="45.6447" lon="11.3492967"><ele>633.0</ele><time>2026-04-17T08:21:33.41Z</time></trkpt><trkpt lat="45.6446333" lon="11.3493033"><ele>633.0</ele><time>2026-04-17T08:21:34.41Z</time></trkpt><trkpt lat="45.6445667" lon="11.349305"><ele>633.0</ele><time>2026-04-17T08:21:35.41Z</time></trkpt><trkpt lat="45.6445017" lon="11.3492817"><ele>633.0</ele><time>2026-04-17T08:21:36.409Z</time></trkpt><trkpt lat="45.64442" lon="11.3492467"><ele>633.0</ele><time>2026-04-17T08:21:37.409Z</time></trkpt><trkpt lat="45.6443433" lon="11.3492017"><ele>631.6</ele><time>2026-04-17T08:21:38.41Z</time></trkpt><trkpt lat="45.6442817" lon="11.34917"><ele>630.1999999999999</ele><time>2026-04-17T08:21:39.409Z</time></trkpt><trkpt lat="45.644185" lon="11.3491367"><ele>628.8</ele><time>2026-04-17T08:21:41.41Z</time></trkpt><trkpt lat="45.64406" lon="11.349165"><ele>627.4</ele><time>2026-04-17T08:21:43.41Z</time></trkpt><trkpt lat="45.64399" lon="11.3491833"><ele>626.0</ele><time>2026-04-17T08:21:44.409Z</time></trkpt><trkpt lat="45.6437883" lon="11.3492483"><ele>626.0</ele><time>2026-04-17T08:21:48.41Z</time></trkpt><trkpt lat="45.64375" lon="11.3491633"><ele>626.0</ele><time>2026-04-17T08:23:48.409Z</time></trkpt><trkpt lat="45.6438483" lon="11.3488567"><ele>626.0</ele><time>2026-04-17T08:23:51.409Z</time></trkpt><trkpt lat="45.643875" lon="11.348715"><ele>626.0</ele><time>2026-04-17T08:23:52.409Z</time></trkpt><trkpt lat="45.6438767" lon="11.34852"><ele>628.5</ele><time>2026-04-17T08:23:53.409Z</time></trkpt><trkpt lat="45.643845" lon="11.3483267"><ele>631.0</ele><time>2026-04-17T08:23:54.409Z</time></trkpt><trkpt lat="45.643805" lon="11.34815"><ele>633.5</ele><time>2026-04-17T08:23:55.409Z</time></trkpt><trkpt lat="45.64377" lon="11.34799"><ele>636.0</ele><time>2026-04-17T08:23:56.408Z</time></trkpt><trkpt lat="45.6437417" lon="11.3478517"><ele>635.8</ele><time>2026-04-17T08:23:57.409Z</time></trkpt><trkpt lat="45.6437017" lon="11.3477267"><ele>635.6</ele><time>2026-04-17T08:23:58.409Z</time></trkpt><trkpt lat="45.6436367" lon="11.347605"><ele>635.4</ele><time>2026-04-17T08:23:59.409Z</time></trkpt><trkpt lat="45.6435583" lon="11.3474983"><ele>635.2</ele><time>2026-04-17T08:24:00.409Z</time></trkpt><trkpt lat="45.6434767" lon="11.3474117"><ele>635.0</ele><time>2026-04-17T08:24:01.408Z</time></trkpt><trkpt lat="45.6434067" lon="11.3473333"><ele>635.0</ele><time>2026-04-17T08:24:02.409Z</time></trkpt><trkpt lat="45.6433433" lon="11.347245"><ele>635.0</ele><time>2026-04-17T08:24:03.409Z</time></trkpt><trkpt lat="45.643295" lon="11.3471433"><ele>635.0</ele><time>2026-04-17T08:24:04.409Z</time></trkpt><trkpt lat="45.643255" lon="11.3470217"><ele>635.0</ele><time>2026-04-17T08:24:05.408Z</time></trkpt><trkpt lat="45.6432217" lon="11.3468867"><ele>635.0</ele><time>2026-04-17T08:24:06.409Z</time></trkpt><trkpt lat="45.6431883" lon="11.3467667"><ele>638.0</ele><time>2026-04-17T08:24:07.409Z</time></trkpt><trkpt lat="45.643165" lon="11.3466567"><ele>641.0</ele><time>2026-04-17T08:24:08.409Z</time></trkpt><trkpt lat="45.6431583" lon="11.3465433"><ele>644.0</ele><time>2026-04-17T08:24:09.409Z</time></trkpt><trkpt lat="45.6431933" lon="11.3462567"><ele>647.0</ele><time>2026-04-17T08:24:11.409Z</time></trkpt><trkpt lat="45.6432283" lon="11.3461033"><ele>648.6</ele><time>2026-04-17T08:24:12.409Z</time></trkpt><trkpt lat="45.6432533" lon="11.345955"><ele>650.2</ele><time>2026-04-17T08:24:13.409Z</time></trkpt><trkpt lat="45.6432633" lon="11.3458183"><ele>651.8</ele><time>2026-04-17T08:24:14.409Z</time></trkpt><trkpt lat="45.6432567" lon="11.34567"><ele>653.4</ele><time>2026-04-17T08:24:15.408Z</time></trkpt><trkpt lat="45.643235" lon="11.3455033"><ele>655.0</ele><time>2026-04-17T08:24:16.409Z</time></trkpt><trkpt lat="45.6432017" lon="11.345325"><ele>656.8</ele><time>2026-04-17T08:24:17.408Z</time></trkpt><trkpt lat="45.64315" lon="11.3451533"><ele>658.6</ele><time>2026-04-17T08:24:18.409Z</time></trkpt><trkpt lat="45.6430817" lon="11.3450267"><ele>660.4000000000001</ele><time>2026-04-17T08:24:19.409Z</time></trkpt><trkpt lat="45.6430167" lon="11.344915"><ele>662.2</ele><time>2026-04-17T08:24:20.409Z</time></trkpt><trkpt lat="45.6429717" lon="11.3448117"><ele>664.0</ele><time>2026-04-17T08:24:21.408Z</time></trkpt><trkpt lat="45.6429483" lon="11.3447033"><ele>664.8000000000001</ele><time>2026-04-17T08:24:22.408Z</time></trkpt><trkpt lat="45.6429617" lon="11.3446017"><ele>665.6</ele><time>2026-04-17T08:24:23.409Z</time></trkpt><trkpt lat="45.6430017" lon="11.3444933"><ele>666.4</ele><time>2026-04-17T08:24:24.409Z</time></trkpt><trkpt lat="45.6430783" lon="11.3443833"><ele>667.2</ele><time>2026-04-17T08:24:25.408Z</time></trkpt><trkpt lat="45.6431917" lon="11.3442567"><ele>668.0</ele><time>2026-04-17T08:24:26.409Z</time></trkpt><trkpt lat="45.6433017" lon="11.3441167"><ele>668.0</ele><time>2026-04-17T08:24:27.408Z</time></trkpt><trkpt lat="45.6434" lon="11.3439867"><ele>668.0</ele><time>2026-04-17T08:24:28.409Z</time></trkpt><trkpt lat="45.643475" lon="11.343875"><ele>668.0</ele><time>2026-04-17T08:24:29.409Z</time></trkpt><trkpt lat="45.6435233" lon="11.3437683"><ele>668.0</ele><time>2026-04-17T08:24:30.408Z</time></trkpt><trkpt lat="45.6435433" lon="11.34354"><ele>669.8</ele><time>2026-04-17T08:24:32.409Z</time></trkpt><trkpt lat="45.6435183" lon="11.3434117"><ele>671.5999999999999</ele><time>2026-04-17T08:24:33.409Z</time></trkpt><trkpt lat="45.6434517" lon="11.3432933"><ele>673.4000000000001</ele><time>2026-04-17T08:24:34.409Z</time></trkpt><trkpt lat="45.64336" lon="11.343215"><ele>675.2</ele><time>2026-04-17T08:24:35.409Z</time></trkpt><trkpt lat="45.6432333" lon="11.3431817"><ele>677.0</ele><time>2026-04-17T08:24:36.409Z</time></trkpt><trkpt lat="45.6431067" lon="11.3431583"><ele>677.0</ele><time>2026-04-17T08:24:37.409Z</time></trkpt><trkpt lat="45.6429867" lon="11.3431233"><ele>677.0</ele><time>2026-04-17T08:24:38.409Z</time></trkpt><trkpt lat="45.6428767" lon="11.3430917"><ele>677.0</ele><time>2026-04-17T08:24:39.409Z</time></trkpt><trkpt lat="45.64279" lon="11.3430567"><ele>677.0</ele><time>2026-04-17T08:24:40.409Z</time></trkpt><trkpt lat="45.6427033" lon="11.343045"><ele>677.0</ele><time>2026-04-17T08:24:41.408Z</time></trkpt><trkpt lat="45.6426217" lon="11.343055"><ele>677.6</ele><time>2026-04-17T08:24:42.409Z</time></trkpt><trkpt lat="45.642545" lon="11.3430917"><ele>678.2</ele><time>2026-04-17T08:24:43.408Z</time></trkpt><trkpt lat="45.6424883" lon="11.3431667"><ele>678.8</ele><time>2026-04-17T08:24:44.408Z</time></trkpt><trkpt lat="45.6423683" lon="11.343275"><ele>679.4</ele><time>2026-04-17T08:24:46.409Z</time></trkpt><trkpt lat="45.6422833" lon="11.3432867"><ele>680.0</ele><time>2026-04-17T08:24:47.409Z</time></trkpt><trkpt lat="45.6422" lon="11.3432417"><ele>680.0</ele><time>2026-04-17T08:24:48.409Z</time></trkpt><trkpt lat="45.6421117" lon="11.3431617"><ele>680.0</ele><time>2026-04-17T08:24:49.408Z</time></trkpt><trkpt lat="45.6420267" lon="11.3430433"><ele>680.0</ele><time>2026-04-17T08:24:50.409Z</time></trkpt><trkpt lat="45.641945" lon="11.3428983"><ele>680.0</ele><time>2026-04-17T08:24:51.408Z</time></trkpt><trkpt lat="45.6417733" lon="11.3426767"><ele>682.0</ele><time>2026-04-17T08:24:53.409Z</time></trkpt><trkpt lat="45.6416983" lon="11.34258"><ele>684.0</ele><time>2026-04-17T08:24:54.408Z</time></trkpt><trkpt lat="45.6416367" lon="11.3424967"><ele>686.0</ele><time>2026-04-17T08:24:55.409Z</time></trkpt><trkpt lat="45.6415817" lon="11.34241"><ele>688.0</ele><time>2026-04-17T08:24:56.409Z</time></trkpt><trkpt lat="45.6415233" lon="11.3423383"><ele>690.0</ele><time>2026-04-17T08:24:57.409Z</time></trkpt><trkpt lat="45.6414667" lon="11.3422667"><ele>692.0</ele><time>2026-04-17T08:24:58.409Z</time></trkpt><trkpt lat="45.64141" lon="11.342215"><ele>692.0</ele><time>2026-04-17T08:24:59.408Z</time></trkpt><trkpt lat="45.64134" lon="11.3421917"><ele>692.0</ele><time>2026-04-17T08:25:00.409Z</time></trkpt><trkpt lat="45.6411983" lon="11.342235"><ele>692.0</ele><time>2026-04-17T08:25:02.408Z</time></trkpt><trkpt lat="45.641125" lon="11.3422967"><ele>692.0</ele><time>2026-04-17T08:25:03.409Z</time></trkpt><trkpt lat="45.641055" lon="11.34235"><ele>692.0</ele><time>2026-04-17T08:25:04.409Z</time></trkpt><trkpt lat="45.6409967" lon="11.3424"><ele>692.0</ele><time>2026-04-17T08:25:05.409Z</time></trkpt><trkpt lat="45.6409183" lon="11.3424817"><ele>692.0</ele><time>2026-04-17T08:25:07.409Z</time></trkpt><trkpt lat="45.6408267" lon="11.3425283"><ele>692.0</ele><time>2026-04-17T08:25:09.409Z</time></trkpt><trkpt lat="45.6407433" lon="11.3425783"><ele>692.0</ele><time>2026-04-17T08:25:11.409Z</time></trkpt><trkpt lat="45.6406817" lon="11.342685"><ele>692.0</ele><time>2026-04-17T08:25:13.409Z</time></trkpt><trkpt lat="45.6406017" lon="11.3428683"><ele>692.0</ele><time>2026-04-17T08:25:15.409Z</time></trkpt><trkpt lat="45.6405617" lon="11.3429683"><ele>691.5</ele><time>2026-04-17T08:25:16.408Z</time></trkpt><trkpt lat="45.6405233" lon="11.3430667"><ele>691.0</ele><time>2026-04-17T08:25:17.409Z</time></trkpt><trkpt lat="45.6404933" lon="11.343165"><ele>690.5</ele><time>2026-04-17T08:25:18.409Z</time></trkpt><trkpt lat="45.6404683" lon="11.3432517"><ele>690.0</ele><time>2026-04-17T08:25:19.409Z</time></trkpt><trkpt lat="45.6404483" lon="11.3433383"><ele>689.5</ele><time>2026-04-17T08:25:20.408Z</time></trkpt><trkpt lat="45.6404433" lon="11.3434883"><ele>689.0</ele><time>2026-04-17T08:25:22.409Z</time></trkpt><trkpt lat="45.6404067" lon="11.34358"><ele>689.0</ele><time>2026-04-17T08:25:24.409Z</time></trkpt><trkpt lat="45.640365" lon="11.3436883"><ele>689.0</ele><time>2026-04-17T08:25:26.409Z</time></trkpt><trkpt lat="45.640305" lon="11.3437583"><ele>689.0</ele><time>2026-04-17T08:25:28.408Z</time></trkpt><trkpt lat="45.6402483" lon="11.3438133"><ele>689.0</ele><time>2026-04-17T08:25:30.409Z</time></trkpt><trkpt lat="45.6401333" lon="11.3439"><ele>689.0</ele><time>2026-04-17T08:25:43.408Z</time></trkpt><trkpt lat="45.6399817" lon="11.34398"><ele>690.5</ele><time>2026-04-17T08:25:46.409Z</time></trkpt><trkpt lat="45.6399233" lon="11.344015"><ele>692.0</ele><time>2026-04-17T08:25:47.409Z</time></trkpt><trkpt lat="45.6398633" lon="11.3440633"><ele>693.5</ele><time>2026-04-17T08:25:48.408Z</time></trkpt><trkpt lat="45.6397633" lon="11.3441417"><ele>695.0</ele><time>2026-04-17T08:25:50.409Z</time></trkpt><trkpt lat="45.639715" lon="11.3442383"><ele>696.5</ele><time>2026-04-17T08:25:52.409Z</time></trkpt><trkpt lat="45.6397033" lon="11.3443283"><ele>698.0</ele><time>2026-04-17T08:25:53.408Z</time></trkpt><trkpt lat="45.63969" lon="11.344425"><ele>698.0</ele><time>2026-04-17T08:25:54.409Z</time></trkpt><trkpt lat="45.6396717" lon="11.344515"><ele>698.0</ele><time>2026-04-17T08:25:55.409Z</time></trkpt><trkpt lat="45.6396467" lon="11.344675"><ele>698.0</ele><time>2026-04-17T08:25:57.409Z</time></trkpt><trkpt lat="45.6396" lon="11.3448067"><ele>698.0</ele><time>2026-04-17T08:25:59.409Z</time></trkpt><trkpt lat="45.6395167" lon="11.34489"><ele>698.0</ele><time>2026-04-17T08:26:01.409Z</time></trkpt><trkpt lat="45.6394667" lon="11.34499"><ele>695.5</ele><time>2026-04-17T08:26:03.409Z</time></trkpt><trkpt lat="45.6394383" lon="11.3451183"><ele>693.0</ele><time>2026-04-17T08:26:05.409Z</time></trkpt><trkpt lat="45.639355" lon="11.34538"><ele>690.5</ele><time>2026-04-17T08:26:09.409Z</time></trkpt><trkpt lat="45.639285" lon="11.345495"><ele>688.0</ele><time>2026-04-17T08:26:11.409Z</time></trkpt><trkpt lat="45.6392283" lon="11.3455783"><ele>685.8333333333334</ele><time>2026-04-17T08:26:13.408Z</time></trkpt><trkpt lat="45.6392283" lon="11.3456717"><ele>683.6666666666667</ele><time>2026-04-17T08:26:15.408Z</time></trkpt><trkpt lat="45.639285" lon="11.345745"><ele>681.5</ele><time>2026-04-17T08:26:17.408Z</time></trkpt><trkpt lat="45.6393633" lon="11.345775"><ele>679.3333333333334</ele><time>2026-04-17T08:26:19.408Z</time></trkpt><trkpt lat="45.6394483" lon="11.3457567"><ele>677.1666666666666</ele><time>2026-04-17T08:26:21.409Z</time></trkpt><trkpt lat="45.6395167" lon="11.3457383"><ele>675.0</ele><time>2026-04-17T08:26:23.409Z</time></trkpt><trkpt lat="45.6395817" lon="11.3458033"><ele>675.0</ele><time>2026-04-17T08:26:26.409Z</time></trkpt><trkpt lat="45.639435" lon="11.3459867"><ele>675.0</ele><time>2026-04-17T08:26:31.408Z</time></trkpt><trkpt lat="45.6393767" lon="11.3461217"><ele>675.0</ele><time>2026-04-17T08:26:33.409Z</time></trkpt><trkpt lat="45.6393367" lon="11.3462933"><ele>675.0</ele><time>2026-04-17T08:26:35.408Z</time></trkpt><trkpt lat="45.63931" lon="11.3464467"><ele>671.6</ele><time>2026-04-17T08:26:37.408Z</time></trkpt><trkpt lat="45.6392867" lon="11.3465983"><ele>668.2</ele><time>2026-04-17T08:26:39.408Z</time></trkpt><trkpt lat="45.639255" lon="11.3467483"><ele>664.8</ele><time>2026-04-17T08:26:41.408Z</time></trkpt><trkpt lat="45.63922" lon="11.3468617"><ele>661.4</ele><time>2026-04-17T08:26:43.407Z</time></trkpt><trkpt lat="45.6392067" lon="11.3469783"><ele>658.0</ele><time>2026-04-17T08:26:45.408Z</time></trkpt><trkpt lat="45.639215" lon="11.3470717"><ele>658.0</ele><time>2026-04-17T08:26:46.408Z</time></trkpt><trkpt lat="45.63923" lon="11.3471683"><ele>658.0</ele><time>2026-04-17T08:26:47.407Z</time></trkpt><trkpt lat="45.639265" lon="11.34737"><ele>658.0</ele><time>2026-04-17T08:26:49.408Z</time></trkpt><trkpt lat="45.6392717" lon="11.3474617"><ele>658.0</ele><time>2026-04-17T08:26:50.407Z</time></trkpt><trkpt lat="45.6392317" lon="11.347605"><ele>658.0</ele><time>2026-04-17T08:26:52.407Z</time></trkpt><trkpt lat="45.63917" lon="11.3476767"><ele>654.8</ele><time>2026-04-17T08:26:55.407Z</time></trkpt><trkpt lat="45.6391433" lon="11.3477583"><ele>651.5999999999999</ele><time>2026-04-17T08:27:16.407Z</time></trkpt><trkpt lat="45.639265" lon="11.3478317"><ele>648.4000000000001</ele><time>2026-04-17T08:27:19.408Z</time></trkpt><trkpt lat="45.6393417" lon="11.3478333"><ele>645.2</ele><time>2026-04-17T08:27:20.408Z</time></trkpt><trkpt lat="45.6394167" lon="11.347835"><ele>642.0</ele><time>2026-04-17T08:27:21.408Z</time></trkpt><trkpt lat="45.6395267" lon="11.3478583"><ele>641.0</ele><time>2026-04-17T08:27:23.408Z</time></trkpt><trkpt lat="45.6396283" lon="11.34793"><ele>640.0</ele><time>2026-04-17T08:27:25.407Z</time></trkpt><trkpt lat="45.63967" lon="11.3480067"><ele>639.0</ele><time>2026-04-17T08:27:26.408Z</time></trkpt><trkpt lat="45.6397183" lon="11.348095"><ele>638.0</ele><time>2026-04-17T08:27:27.408Z</time></trkpt><trkpt lat="45.63978" lon="11.348185"><ele>637.0</ele><time>2026-04-17T08:27:28.408Z</time></trkpt><trkpt lat="45.6398333" lon="11.3482633"><ele>636.0</ele><time>2026-04-17T08:27:29.408Z</time></trkpt><trkpt lat="45.6398733" lon="11.3483333"><ele>634.6</ele><time>2026-04-17T08:27:30.407Z</time></trkpt><trkpt lat="45.639985" lon="11.3484517"><ele>633.2</ele><time>2026-04-17T08:27:32.408Z</time></trkpt><trkpt lat="45.640045" lon="11.3485033"><ele>631.8</ele><time>2026-04-17T08:27:33.407Z</time></trkpt><trkpt lat="45.64012" lon="11.3485483"><ele>630.4</ele><time>2026-04-17T08:27:35.408Z</time></trkpt><trkpt lat="45.6401683" lon="11.3486233"><ele>629.0</ele><time>2026-04-17T08:27:38.408Z</time></trkpt><trkpt lat="45.6400183" lon="11.3488067"><ele>627.2</ele><time>2026-04-17T08:27:42.408Z</time></trkpt><trkpt lat="45.6399533" lon="11.3488883"><ele>625.4</ele><time>2026-04-17T08:27:43.407Z</time></trkpt><trkpt lat="45.6398917" lon="11.3489817"><ele>623.6</ele><time>2026-04-17T08:27:44.408Z</time></trkpt><trkpt lat="45.6398383" lon="11.34906"><ele>621.8</ele><time>2026-04-17T08:27:45.408Z</time></trkpt><trkpt lat="45.6397667" lon="11.34918"><ele>620.0</ele><time>2026-04-17T08:27:47.408Z</time></trkpt><trkpt lat="45.6396667" lon="11.3493067"><ele>620.0</ele><time>2026-04-17T08:27:50.408Z</time></trkpt><trkpt lat="45.639615" lon="11.3494133"><ele>620.0</ele><time>2026-04-17T08:27:52.408Z</time></trkpt><trkpt lat="45.6395433" lon="11.3495583"><ele>620.0</ele><time>2026-04-17T08:27:54.408Z</time></trkpt><trkpt lat="45.6394983" lon="11.3496433"><ele>620.0</ele><time>2026-04-17T08:27:55.407Z</time></trkpt><trkpt lat="45.6394533" lon="11.349715"><ele>620.0</ele><time>2026-04-17T08:27:56.407Z</time></trkpt><trkpt lat="45.639365" lon="11.349835"><ele>620.5</ele><time>2026-04-17T08:27:58.407Z</time></trkpt><trkpt lat="45.6392767" lon="11.349985"><ele>621.0</ele><time>2026-04-17T08:28:00.408Z</time></trkpt><trkpt lat="45.6392033" lon="11.3501967"><ele>621.5</ele><time>2026-04-17T08:28:02.408Z</time></trkpt><trkpt lat="45.639175" lon="11.3502917"><ele>622.0</ele><time>2026-04-17T08:28:03.407Z</time></trkpt><trkpt lat="45.6391317" lon="11.35045"><ele>620.3333333333334</ele><time>2026-04-17T08:28:05.408Z</time></trkpt><trkpt lat="45.6390983" lon="11.3505917"><ele>618.6666666666667</ele><time>2026-04-17T08:28:07.407Z</time></trkpt><trkpt lat="45.639045" lon="11.35075"><ele>617.0</ele><time>2026-04-17T08:28:09.407Z</time></trkpt><trkpt lat="45.63901" lon="11.350835"><ele>615.3333333333334</ele><time>2026-04-17T08:28:10.407Z</time></trkpt><trkpt lat="45.6389733" lon="11.3509167"><ele>613.6666666666666</ele><time>2026-04-17T08:28:11.408Z</time></trkpt><trkpt lat="45.638945" lon="11.3510067"><ele>612.0</ele><time>2026-04-17T08:28:12.408Z</time></trkpt><trkpt lat="45.638915" lon="11.3511283"><ele>612.0</ele><time>2026-04-17T08:28:13.407Z</time></trkpt><trkpt lat="45.6388783" lon="11.3512483"><ele>612.0</ele><time>2026-04-17T08:28:14.408Z</time></trkpt><trkpt lat="45.6388483" lon="11.351375"><ele>612.0</ele><time>2026-04-17T08:28:15.408Z</time></trkpt><trkpt lat="45.6388267" lon="11.3514683"><ele>612.0</ele><time>2026-04-17T08:28:16.408Z</time></trkpt><trkpt lat="45.6388133" lon="11.3515567"><ele>612.0</ele><time>2026-04-17T08:28:17.408Z</time></trkpt><trkpt lat="45.63878" lon="11.351695"><ele>612.0</ele><time>2026-04-17T08:28:19.408Z</time></trkpt><trkpt lat="45.6387417" lon="11.3518167"><ele>611.25</ele><time>2026-04-17T08:28:21.408Z</time></trkpt><trkpt lat="45.6386617" lon="11.3521033"><ele>610.5</ele><time>2026-04-17T08:28:25.408Z</time></trkpt><trkpt lat="45.6386367" lon="11.3522917"><ele>609.75</ele><time>2026-04-17T08:28:27.408Z</time></trkpt><trkpt lat="45.638635" lon="11.3524017"><ele>609.0</ele><time>2026-04-17T08:28:28.408Z</time></trkpt><trkpt lat="45.63864" lon="11.3525133"><ele>608.8</ele><time>2026-04-17T08:28:29.408Z</time></trkpt><trkpt lat="45.638635" lon="11.3526983"><ele>608.5999999999999</ele><time>2026-04-17T08:28:31.408Z</time></trkpt><trkpt lat="45.638605" lon="11.352785"><ele>608.4</ele><time>2026-04-17T08:28:32.408Z</time></trkpt><trkpt lat="45.6385483" lon="11.3528867"><ele>608.1999999999999</ele><time>2026-04-17T08:28:33.408Z</time></trkpt><trkpt lat="45.6384883" lon="11.3529867"><ele>608.0</ele><time>2026-04-17T08:28:34.408Z</time></trkpt><trkpt lat="45.6384433" lon="11.3530817"><ele>608.0</ele><time>2026-04-17T08:28:35.408Z</time></trkpt><trkpt lat="45.6384117" lon="11.3531767"><ele>608.0</ele><time>2026-04-17T08:28:36.407Z</time></trkpt><trkpt lat="45.638375" lon="11.3532567"><ele>608.0</ele><time>2026-04-17T08:28:37.408Z</time></trkpt><trkpt lat="45.63834" lon="11.3533333"><ele>608.0</ele><time>2026-04-17T08:28:38.408Z</time></trkpt><trkpt lat="45.6383017" lon="11.353405"><ele>608.0</ele><time>2026-04-17T08:28:39.408Z</time></trkpt><trkpt lat="45.638255" lon="11.3535517"><ele>608.0</ele><time>2026-04-17T08:28:41.408Z</time></trkpt><trkpt lat="45.63821" lon="11.3536317"><ele>608.0</ele><time>2026-04-17T08:28:44.408Z</time></trkpt><trkpt lat="45.638035" lon="11.3537017"><ele>608.0</ele><time>2026-04-17T08:29:00.407Z</time></trkpt><trkpt lat="45.6379667" lon="11.3536633"><ele>608.0</ele><time>2026-04-17T08:29:02.407Z</time></trkpt><trkpt lat="45.63798" lon="11.3535433"><ele>608.0</ele><time>2026-04-17T08:35:46.406Z</time></trkpt><trkpt lat="45.63796" lon="11.35369"><ele>608.0</ele><time>2026-04-17T08:35:51.405Z</time></trkpt><trkpt lat="45.63786" lon="11.3536983"><ele>609.0</ele><time>2026-04-17T08:35:53.406Z</time></trkpt><trkpt lat="45.6377517" lon="11.353715"><ele>610.0</ele><time>2026-04-17T08:35:55.405Z</time></trkpt><trkpt lat="45.6376517" lon="11.353705"><ele>611.0</ele><time>2026-04-17T08:35:57.406Z</time></trkpt><trkpt lat="45.63756" lon="11.3536733"><ele>612.0</ele><time>2026-04-17T08:35:59.405Z</time></trkpt><trkpt lat="45.6374467" lon="11.35364"><ele>613.0</ele><time>2026-04-17T08:36:01.406Z</time></trkpt><trkpt lat="45.637355" lon="11.3535583"><ele>613.0</ele><time>2026-04-17T08:36:03.406Z</time></trkpt><trkpt lat="45.6373117" lon="11.3534117"><ele>613.0</ele><time>2026-04-17T08:36:05.406Z</time></trkpt><trkpt lat="45.6373083" lon="11.3533217"><ele>613.0</ele><time>2026-04-17T08:36:06.405Z</time></trkpt><trkpt lat="45.6373333" lon="11.3531433"><ele>613.0</ele><time>2026-04-17T08:36:08.405Z</time></trkpt><trkpt lat="45.63736" lon="11.3528883"><ele>613.0</ele><time>2026-04-17T08:36:12.406Z</time></trkpt><trkpt lat="45.6372917" lon="11.3528933"><ele>613.0</ele><time>2026-04-17T08:36:14.406Z</time></trkpt><trkpt lat="45.6372083" lon="11.3529717"><ele>613.0</ele><time>2026-04-17T08:36:16.406Z</time></trkpt><trkpt lat="45.637125" lon="11.3530233"><ele>613.0</ele><time>2026-04-17T08:36:18.406Z</time></trkpt><trkpt lat="45.637025" lon="11.3530767"><ele>613.0</ele><time>2026-04-17T08:36:20.406Z</time></trkpt><trkpt lat="45.636955" lon="11.3530917"><ele>613.0</ele><time>2026-04-17T08:36:21.406Z</time></trkpt><trkpt lat="45.6368833" lon="11.3530883"><ele>615.6</ele><time>2026-04-17T08:36:22.406Z</time></trkpt><trkpt lat="45.6367917" lon="11.353095"><ele>618.1999999999999</ele><time>2026-04-17T08:36:23.406Z</time></trkpt><trkpt lat="45.636685" lon="11.35313"><ele>620.8</ele><time>2026-04-17T08:36:24.406Z</time></trkpt><trkpt lat="45.636575" lon="11.3531433"><ele>623.4</ele><time>2026-04-17T08:36:25.406Z</time></trkpt><trkpt lat="45.6364783" lon="11.353155"><ele>626.0</ele><time>2026-04-17T08:36:26.406Z</time></trkpt><trkpt lat="45.6363817" lon="11.3531733"><ele>626.0</ele><time>2026-04-17T08:36:27.406Z</time></trkpt><trkpt lat="45.6362933" lon="11.3531967"><ele>626.0</ele><time>2026-04-17T08:36:28.406Z</time></trkpt><trkpt lat="45.6361933" lon="11.3532317"><ele>626.0</ele><time>2026-04-17T08:36:29.406Z</time></trkpt><trkpt lat="45.6359633" lon="11.35338"><ele>626.0</ele><time>2026-04-17T08:36:31.406Z</time></trkpt><trkpt lat="45.6358567" lon="11.3534733"><ele>630.4</ele><time>2026-04-17T08:36:32.406Z</time></trkpt><trkpt lat="45.635775" lon="11.35355"><ele>634.8</ele><time>2026-04-17T08:36:33.406Z</time></trkpt><trkpt lat="45.6356883" lon="11.3536367"><ele>639.1999999999999</ele><time>2026-04-17T08:36:34.406Z</time></trkpt><trkpt lat="45.6356017" lon="11.3537183"><ele>643.6</ele><time>2026-04-17T08:36:35.406Z</time></trkpt><trkpt lat="45.6355133" lon="11.3537617"><ele>648.0</ele><time>2026-04-17T08:36:36.406Z</time></trkpt><trkpt lat="45.6354317" lon="11.35378"><ele>648.0</ele><time>2026-04-17T08:36:37.405Z</time></trkpt><trkpt lat="45.6353383" lon="11.3537667"><ele>648.0</ele><time>2026-04-17T08:36:38.406Z</time></trkpt><trkpt lat="45.6352367" lon="11.3537483"><ele>648.0</ele><time>2026-04-17T08:36:39.406Z</time></trkpt><trkpt lat="45.6351417" lon="11.3537317"><ele>648.0</ele><time>2026-04-17T08:36:40.405Z</time></trkpt><trkpt lat="45.63504" lon="11.3536983"><ele>648.0</ele><time>2026-04-17T08:36:41.406Z</time></trkpt><trkpt lat="45.6349417" lon="11.3536667"><ele>647.75</ele><time>2026-04-17T08:36:42.406Z</time></trkpt><trkpt lat="45.6348283" lon="11.3536483"><ele>647.5</ele><time>2026-04-17T08:36:43.406Z</time></trkpt><trkpt lat="45.6346983" lon="11.3536133"><ele>647.25</ele><time>2026-04-17T08:36:44.405Z</time></trkpt><trkpt lat="45.6345717" lon="11.35358"><ele>647.0</ele><time>2026-04-17T08:36:45.406Z</time></trkpt><trkpt lat="45.6344433" lon="11.353555"><ele>647.0</ele><time>2026-04-17T08:36:46.406Z</time></trkpt><trkpt lat="45.6343217" lon="11.3535383"><ele>647.0</ele><time>2026-04-17T08:36:47.406Z</time></trkpt><trkpt lat="45.6342017" lon="11.3535283"><ele>647.0</ele><time>2026-04-17T08:36:48.406Z</time></trkpt><trkpt lat="45.634075" lon="11.3535367"><ele>647.0</ele><time>2026-04-17T08:36:49.406Z</time></trkpt><trkpt lat="45.6339667" lon="11.35356"><ele>647.0</ele><time>2026-04-17T08:36:50.405Z</time></trkpt><trkpt lat="45.6338" lon="11.3535817"><ele>647.0</ele><time>2026-04-17T08:36:52.406Z</time></trkpt><trkpt lat="45.633715" lon="11.3536033"><ele>647.0</ele><time>2026-04-17T08:36:53.406Z</time></trkpt><trkpt lat="45.6336183" lon="11.3536067"><ele>647.0</ele><time>2026-04-17T08:36:54.406Z</time></trkpt><trkpt lat="45.633505" lon="11.3536083"><ele>647.2</ele><time>2026-04-17T08:36:55.406Z</time></trkpt><trkpt lat="45.6333933" lon="11.353605"><ele>647.4000000000001</ele><time>2026-04-17T08:36:56.406Z</time></trkpt><trkpt lat="45.633285" lon="11.3536"><ele>647.5999999999999</ele><time>2026-04-17T08:36:57.406Z</time></trkpt><trkpt lat="45.6331883" lon="11.353585"><ele>647.8</ele><time>2026-04-17T08:36:58.406Z</time></trkpt><trkpt lat="45.6330933" lon="11.35355"><ele>648.0</ele><time>2026-04-17T08:36:59.406Z</time></trkpt><trkpt lat="45.6330017" lon="11.35351"><ele>648.0</ele><time>2026-04-17T08:37:00.406Z</time></trkpt><trkpt lat="45.6329117" lon="11.35347"><ele>648.0</ele><time>2026-04-17T08:37:01.406Z</time></trkpt><trkpt lat="45.632815" lon="11.3534467"><ele>648.0</ele><time>2026-04-17T08:37:02.405Z</time></trkpt><trkpt lat="45.6327" lon="11.3534683"><ele>648.0</ele><time>2026-04-17T08:37:03.406Z</time></trkpt><trkpt lat="45.6325967" lon="11.3535217"><ele>648.0</ele><time>2026-04-17T08:37:04.406Z</time></trkpt><trkpt lat="45.632515" lon="11.353575"><ele>646.8</ele><time>2026-04-17T08:37:05.406Z</time></trkpt><trkpt lat="45.6324417" lon="11.3536267"><ele>645.5999999999999</ele><time>2026-04-17T08:37:06.405Z</time></trkpt><trkpt lat="45.6323767" lon="11.3536667"><ele>644.4000000000001</ele><time>2026-04-17T08:37:07.406Z</time></trkpt><trkpt lat="45.63228" lon="11.3536867"><ele>643.2</ele><time>2026-04-17T08:37:09.406Z</time></trkpt><trkpt lat="45.63221" lon="11.3536333"><ele>642.0</ele><time>2026-04-17T08:37:11.406Z</time></trkpt><trkpt lat="45.632145" lon="11.3533933"><ele>642.0</ele><time>2026-04-17T08:37:14.404Z</time></trkpt><trkpt lat="45.632105" lon="11.3532317"><ele>642.0</ele><time>2026-04-17T08:37:16.405Z</time></trkpt><trkpt lat="45.6320517" lon="11.3531233"><ele>642.0</ele><time>2026-04-17T08:37:18.405Z</time></trkpt><trkpt lat="45.6319833" lon="11.3530717"><ele>642.0</ele><time>2026-04-17T08:37:20.404Z</time></trkpt><trkpt lat="45.6318783" lon="11.3531017"><ele>642.0</ele><time>2026-04-17T08:37:22.405Z</time></trkpt><trkpt lat="45.6317733" lon="11.3531983"><ele>640.6</ele><time>2026-04-17T08:37:24.405Z</time></trkpt><trkpt lat="45.6316717" lon="11.3532617"><ele>639.2</ele><time>2026-04-17T08:37:26.405Z</time></trkpt><trkpt lat="45.6316067" lon="11.35328"><ele>637.8</ele><time>2026-04-17T08:37:27.405Z</time></trkpt><trkpt lat="45.63153" lon="11.353295"><ele>636.4</ele><time>2026-04-17T08:37:28.404Z</time></trkpt><trkpt lat="45.63143" lon="11.3533133"><ele>635.0</ele><time>2026-04-17T08:37:29.404Z</time></trkpt><trkpt lat="45.6313083" lon="11.3533467"><ele>635.0</ele><time>2026-04-17T08:37:30.405Z</time></trkpt><trkpt lat="45.6311783" lon="11.353375"><ele>635.0</ele><time>2026-04-17T08:37:31.405Z</time></trkpt><trkpt lat="45.6310483" lon="11.3534"><ele>635.0</ele><time>2026-04-17T08:37:32.405Z</time></trkpt><trkpt lat="45.6307933" lon="11.353475"><ele>633.25</ele><time>2026-04-17T08:37:34.405Z</time></trkpt><trkpt lat="45.630675" lon="11.3535083"><ele>631.5</ele><time>2026-04-17T08:37:35.405Z</time></trkpt><trkpt lat="45.6305667" lon="11.35354"><ele>629.75</ele><time>2026-04-17T08:37:36.405Z</time></trkpt><trkpt lat="45.6304533" lon="11.3535617"><ele>628.0</ele><time>2026-04-17T08:37:37.404Z</time></trkpt><trkpt lat="45.6303483" lon="11.3535883"><ele>627.75</ele><time>2026-04-17T08:37:38.405Z</time></trkpt><trkpt lat="45.6302367" lon="11.3536133"><ele>627.5</ele><time>2026-04-17T08:37:39.405Z</time></trkpt><trkpt lat="45.63012" lon="11.353635"><ele>627.25</ele><time>2026-04-17T08:37:40.404Z</time></trkpt><trkpt lat="45.63001" lon="11.35365"><ele>627.0</ele><time>2026-04-17T08:37:41.405Z</time></trkpt><trkpt lat="45.629895" lon="11.3536583"><ele>627.0</ele><time>2026-04-17T08:37:42.405Z</time></trkpt><trkpt lat="45.629785" lon="11.35366"><ele>627.0</ele><time>2026-04-17T08:37:43.405Z</time></trkpt><trkpt lat="45.6296883" lon="11.3536667"><ele>627.0</ele><time>2026-04-17T08:37:44.404Z</time></trkpt><trkpt lat="45.6295967" lon="11.3536567"><ele>627.0</ele><time>2026-04-17T08:37:45.404Z</time></trkpt><trkpt lat="45.6295133" lon="11.353625"><ele>627.0</ele><time>2026-04-17T08:37:46.404Z</time></trkpt><trkpt lat="45.6294533" lon="11.35358"><ele>624.1666666666666</ele><time>2026-04-17T08:37:47.405Z</time></trkpt><trkpt lat="45.629395" lon="11.3535217"><ele>621.3333333333334</ele><time>2026-04-17T08:37:48.405Z</time></trkpt><trkpt lat="45.6292833" lon="11.3534467"><ele>618.5</ele><time>2026-04-17T08:37:50.405Z</time></trkpt><trkpt lat="45.62922" lon="11.353445"><ele>615.6666666666667</ele><time>2026-04-17T08:37:51.405Z</time></trkpt><trkpt lat="45.6291583" lon="11.3534867"><ele>612.8333333333334</ele><time>2026-04-17T08:37:52.404Z</time></trkpt><trkpt lat="45.62909" lon="11.3535583"><ele>610.0</ele><time>2026-04-17T08:37:53.404Z</time></trkpt><trkpt lat="45.6289" lon="11.3538"><ele>608.75</ele><time>2026-04-17T08:37:55.405Z</time></trkpt><trkpt lat="45.62879" lon="11.3539433"><ele>607.5</ele><time>2026-04-17T08:37:56.404Z</time></trkpt><trkpt lat="45.6286867" lon="11.3540767"><ele>606.25</ele><time>2026-04-17T08:37:57.405Z</time></trkpt><trkpt lat="45.6285933" lon="11.3542117"><ele>605.0</ele><time>2026-04-17T08:37:58.404Z</time></trkpt><trkpt lat="45.6285083" lon="11.3543333"><ele>605.2</ele><time>2026-04-17T08:37:59.405Z</time></trkpt><trkpt lat="45.62842" lon="11.35445"><ele>605.4</ele><time>2026-04-17T08:38:00.405Z</time></trkpt><trkpt lat="45.6283367" lon="11.3545633"><ele>605.6</ele><time>2026-04-17T08:38:01.404Z</time></trkpt><trkpt lat="45.628265" lon="11.3546717"><ele>605.8</ele><time>2026-04-17T08:38:02.405Z</time></trkpt><trkpt lat="45.628195" lon="11.3547667"><ele>606.0</ele><time>2026-04-17T08:38:03.404Z</time></trkpt><trkpt lat="45.6281217" lon="11.3548533"><ele>606.0</ele><time>2026-04-17T08:38:04.404Z</time></trkpt><trkpt lat="45.6280517" lon="11.354915"><ele>606.0</ele><time>2026-04-17T08:38:05.405Z</time></trkpt><trkpt lat="45.6279783" lon="11.354965"><ele>606.0</ele><time>2026-04-17T08:38:06.405Z</time></trkpt><trkpt lat="45.6278967" lon="11.3549933"><ele>606.0</ele><time>2026-04-17T08:38:07.405Z</time></trkpt><trkpt lat="45.6278" lon="11.3550233"><ele>606.0</ele><time>2026-04-17T08:38:08.405Z</time></trkpt><trkpt lat="45.6276883" lon="11.3550633"><ele>602.5</ele><time>2026-04-17T08:38:09.404Z</time></trkpt><trkpt lat="45.6275767" lon="11.3551083"><ele>599.0</ele><time>2026-04-17T08:38:10.405Z</time></trkpt><trkpt lat="45.6274683" lon="11.35516"><ele>595.5</ele><time>2026-04-17T08:38:11.405Z</time></trkpt><trkpt lat="45.6273567" lon="11.3552217"><ele>592.0</ele><time>2026-04-17T08:38:12.404Z</time></trkpt><trkpt lat="45.6272517" lon="11.3552717"><ele>592.0</ele><time>2026-04-17T08:38:13.405Z</time></trkpt><trkpt lat="45.6271633" lon="11.35532"><ele>592.0</ele><time>2026-04-17T08:38:14.405Z</time></trkpt><trkpt lat="45.627005" lon="11.3554317"><ele>592.0</ele><time>2026-04-17T08:38:16.404Z</time></trkpt><trkpt lat="45.6269333" lon="11.355475"><ele>592.0</ele><time>2026-04-17T08:38:17.405Z</time></trkpt><trkpt lat="45.6268633" lon="11.3555133"><ele>592.0</ele><time>2026-04-17T08:38:18.404Z</time></trkpt><trkpt lat="45.6267683" lon="11.35555"><ele>592.0</ele><time>2026-04-17T08:38:20.405Z</time></trkpt><trkpt lat="45.6267033" lon="11.3555033"><ele>592.0</ele><time>2026-04-17T08:38:34.405Z</time></trkpt><trkpt lat="45.62675" lon="11.3554267"><ele>592.0</ele><time>2026-04-17T08:38:36.405Z</time></trkpt><trkpt lat="45.6268783" lon="11.3553083"><ele>592.0</ele><time>2026-04-17T08:38:40.405Z</time></trkpt><trkpt lat="45.6269517" lon="11.3552583"><ele>592.0</ele><time>2026-04-17T08:38:42.405Z</time></trkpt><trkpt lat="45.6270383" lon="11.3551817"><ele>592.0</ele><time>2026-04-17T08:38:44.405Z</time></trkpt><trkpt lat="45.6271267" lon="11.355095"><ele>592.0</ele><time>2026-04-17T08:38:46.404Z</time></trkpt><trkpt lat="45.6272067" lon="11.3550083"><ele>592.0</ele><time>2026-04-17T08:38:48.405Z</time></trkpt><trkpt lat="45.6272733" lon="11.35494"><ele>592.0</ele><time>2026-04-17T08:38:50.405Z</time></trkpt><trkpt lat="45.6273583" lon="11.3548667"><ele>592.0</ele><time>2026-04-17T08:38:52.405Z</time></trkpt><trkpt lat="45.62744" lon="11.3547817"><ele>592.0</ele><time>2026-04-17T08:38:54.405Z</time></trkpt><trkpt lat="45.6275183" lon="11.3546917"><ele>592.0</ele><time>2026-04-17T08:38:56.404Z</time></trkpt><trkpt lat="45.6275817" lon="11.35462"><ele>592.0</ele><time>2026-04-17T08:38:58.404Z</time></trkpt><trkpt lat="45.627765" lon="11.35455"><ele>592.0</ele><time>2026-04-17T08:39:02.405Z</time></trkpt><trkpt lat="45.62786" lon="11.3545183"><ele>592.0</ele><time>2026-04-17T08:39:04.404Z</time></trkpt><trkpt lat="45.6279533" lon="11.3544567"><ele>592.0</ele><time>2026-04-17T08:39:06.405Z</time></trkpt><trkpt lat="45.6279667" lon="11.3543567"><ele>592.0</ele><time>2026-04-17T08:39:08.405Z</time></trkpt><trkpt lat="45.62796" lon="11.3541783"><ele>592.0</ele><time>2026-04-17T08:39:10.405Z</time></trkpt><trkpt lat="45.627945" lon="11.35408"><ele>592.0</ele><time>2026-04-17T08:39:11.405Z</time></trkpt><trkpt lat="45.6279083" lon="11.35391"><ele>588.8000000000001</ele><time>2026-04-17T08:39:13.404Z</time></trkpt><trkpt lat="45.6278917" lon="11.3538217"><ele>585.6</ele><time>2026-04-17T08:39:14.405Z</time></trkpt><trkpt lat="45.6278983" lon="11.3536417"><ele>582.4000000000001</ele><time>2026-04-17T08:39:16.405Z</time></trkpt><trkpt lat="45.62793" lon="11.3534983"><ele>579.2</ele><time>2026-04-17T08:39:18.404Z</time></trkpt><trkpt lat="45.62799" lon="11.353375"><ele>576.0</ele><time>2026-04-17T08:39:20.405Z</time></trkpt><trkpt lat="45.6281333" lon="11.35311"><ele>571.8</ele><time>2026-04-17T08:39:24.405Z</time></trkpt><trkpt lat="45.6281833" lon="11.3529833"><ele>567.6</ele><time>2026-04-17T08:39:26.405Z</time></trkpt><trkpt lat="45.6282533" lon="11.3528433"><ele>563.4</ele><time>2026-04-17T08:39:28.404Z</time></trkpt><trkpt lat="45.6283083" lon="11.3527133"><ele>559.2</ele><time>2026-04-17T08:39:30.404Z</time></trkpt><trkpt lat="45.6283217" lon="11.3525733"><ele>555.0</ele><time>2026-04-17T08:39:32.405Z</time></trkpt><trkpt lat="45.628335" lon="11.352445"><ele>555.0</ele><time>2026-04-17T08:39:34.405Z</time></trkpt><trkpt lat="45.6283583" lon="11.3523217"><ele>555.0</ele><time>2026-04-17T08:39:36.405Z</time></trkpt><trkpt lat="45.6283733" lon="11.3521717"><ele>555.0</ele><time>2026-04-17T08:39:38.405Z</time></trkpt><trkpt lat="45.628365" lon="11.3520333"><ele>555.0</ele><time>2026-04-17T08:39:40.405Z</time></trkpt><trkpt lat="45.62838" lon="11.3519033"><ele>555.0</ele><time>2026-04-17T08:39:42.404Z</time></trkpt><trkpt lat="45.62843" lon="11.3516883"><ele>556.4</ele><time>2026-04-17T08:39:46.405Z</time></trkpt><trkpt lat="45.6284917" lon="11.3516067"><ele>557.8</ele><time>2026-04-17T08:39:48.405Z</time></trkpt><trkpt lat="45.62857" lon="11.3515167"><ele>559.2</ele><time>2026-04-17T08:39:50.404Z</time></trkpt><trkpt lat="45.62864" lon="11.3514"><ele>560.6</ele><time>2026-04-17T08:39:52.405Z</time></trkpt><trkpt lat="45.6286767" lon="11.3512683"><ele>562.0</ele><time>2026-04-17T08:39:54.405Z</time></trkpt><trkpt lat="45.62871" lon="11.3511683"><ele>562.0</ele><time>2026-04-17T08:39:56.405Z</time></trkpt><trkpt lat="45.628695" lon="11.3510483"><ele>562.0</ele><time>2026-04-17T08:39:58.405Z</time></trkpt><trkpt lat="45.6286667" lon="11.3508917"><ele>562.0</ele><time>2026-04-17T08:40:00.405Z</time></trkpt><trkpt lat="45.6286383" lon="11.3507383"><ele>562.0</ele><time>2026-04-17T08:40:02.405Z</time></trkpt><trkpt lat="45.6286017" lon="11.3506167"><ele>562.0</ele><time>2026-04-17T08:40:04.405Z</time></trkpt><trkpt lat="45.6284717" lon="11.3504467"><ele>556.4</ele><time>2026-04-17T08:40:08.405Z</time></trkpt><trkpt lat="45.6283817" lon="11.3504217"><ele>550.8000000000001</ele><time>2026-04-17T08:40:10.404Z</time></trkpt><trkpt lat="45.6282867" lon="11.350395"><ele>545.2</ele><time>2026-04-17T08:40:12.404Z</time></trkpt><trkpt lat="45.6281683" lon="11.3503833"><ele>539.6</ele><time>2026-04-17T08:40:14.404Z</time></trkpt><trkpt lat="45.62807" lon="11.3503133"><ele>534.0</ele><time>2026-04-17T08:40:16.403Z</time></trkpt><trkpt lat="45.6279933" lon="11.350255"><ele>534.0</ele><time>2026-04-17T08:40:18.404Z</time></trkpt><trkpt lat="45.627915" lon="11.3501983"><ele>534.0</ele><time>2026-04-17T08:40:20.404Z</time></trkpt><trkpt lat="45.62784" lon="11.3501433"><ele>534.0</ele><time>2026-04-17T08:40:22.403Z</time></trkpt><trkpt lat="45.6277983" lon="11.3500533"><ele>534.0</ele><time>2026-04-17T08:40:24.404Z</time></trkpt><trkpt lat="45.627785" lon="11.3499283"><ele>534.0</ele><time>2026-04-17T08:40:26.404Z</time></trkpt><trkpt lat="45.6276917" lon="11.349725"><ele>531.8</ele><time>2026-04-17T08:40:30.404Z</time></trkpt><trkpt lat="45.627725" lon="11.3496167"><ele>529.5999999999999</ele><time>2026-04-17T08:40:33.403Z</time></trkpt><trkpt lat="45.62778" lon="11.3495067"><ele>527.4</ele><time>2026-04-17T08:40:35.403Z</time></trkpt><trkpt lat="45.6278333" lon="11.3494017"><ele>525.1999999999999</ele><time>2026-04-17T08:40:37.404Z</time></trkpt><trkpt lat="45.6279067" lon="11.349325"><ele>523.0</ele><time>2026-04-17T08:40:39.404Z</time></trkpt><trkpt lat="45.6280083" lon="11.349265"><ele>523.0</ele><time>2026-04-17T08:40:41.403Z</time></trkpt><trkpt lat="45.6280617" lon="11.3492033"><ele>523.0</ele><time>2026-04-17T08:40:42.404Z</time></trkpt><trkpt lat="45.628135" lon="11.3490883"><ele>523.0</ele><time>2026-04-17T08:40:44.404Z</time></trkpt><trkpt lat="45.6281917" lon="11.3489767"><ele>523.0</ele><time>2026-04-17T08:40:46.404Z</time></trkpt><trkpt lat="45.62826" lon="11.34885"><ele>523.0</ele><time>2026-04-17T08:40:48.403Z</time></trkpt><trkpt lat="45.628265" lon="11.3486383"><ele>520.1999999999999</ele><time>2026-04-17T08:40:51.403Z</time></trkpt><trkpt lat="45.6282367" lon="11.3485383"><ele>517.4</ele><time>2026-04-17T08:40:52.403Z</time></trkpt><trkpt lat="45.6281983" lon="11.3483683"><ele>514.5999999999999</ele><time>2026-04-17T08:40:54.404Z</time></trkpt><trkpt lat="45.628185" lon="11.3482717"><ele>511.79999999999995</ele><time>2026-04-17T08:40:55.404Z</time></trkpt><trkpt lat="45.6281717" lon="11.34812"><ele>509.0</ele><time>2026-04-17T08:40:57.403Z</time></trkpt><trkpt lat="45.6282033" lon="11.34796"><ele>507.79999999999995</ele><time>2026-04-17T08:40:59.403Z</time></trkpt><trkpt lat="45.6282017" lon="11.3478083"><ele>506.59999999999997</ele><time>2026-04-17T08:41:01.404Z</time></trkpt><trkpt lat="45.6281467" lon="11.3476483"><ele>505.4</ele><time>2026-04-17T08:41:03.404Z</time></trkpt><trkpt lat="45.628125" lon="11.34756"><ele>504.2</ele><time>2026-04-17T08:41:04.404Z</time></trkpt><trkpt lat="45.6280933" lon="11.3474683"><ele>503.0</ele><time>2026-04-17T08:41:05.404Z</time></trkpt><trkpt lat="45.62805" lon="11.3473183"><ele>501.5</ele><time>2026-04-17T08:41:07.404Z</time></trkpt><trkpt lat="45.6280417" lon="11.3471833"><ele>500.0</ele><time>2026-04-17T08:41:09.403Z</time></trkpt><trkpt lat="45.62813" lon="11.3469383"><ele>498.5</ele><time>2026-04-17T08:41:13.404Z</time></trkpt><trkpt lat="45.6281483" lon="11.34677"><ele>497.0</ele><time>2026-04-17T08:41:15.404Z</time></trkpt><trkpt lat="45.6281467" lon="11.3466217"><ele>496.99999999999994</ele><time>2026-04-17T08:41:17.404Z</time></trkpt><trkpt lat="45.628165" lon="11.3464683"><ele>497.0</ele><time>2026-04-17T08:41:19.404Z</time></trkpt><trkpt lat="45.628155" lon="11.346285"><ele>497.0</ele><time>2026-04-17T08:41:21.403Z</time></trkpt><trkpt lat="45.6281433" lon="11.3461933"><ele>497.0</ele><time>2026-04-17T08:41:22.404Z</time></trkpt><trkpt lat="45.6281267" lon="11.3460983"><ele>496.99999999999994</ele><time>2026-04-17T08:41:23.404Z</time></trkpt><trkpt lat="45.6281117" lon="11.3460083"><ele>497.0</ele><time>2026-04-17T08:41:24.403Z</time></trkpt><trkpt lat="45.6281117" lon="11.34584"><ele>495.66666666666663</ele><time>2026-04-17T08:41:26.403Z</time></trkpt><trkpt lat="45.6281117" lon="11.3457467"><ele>494.3333333333333</ele><time>2026-04-17T08:41:27.403Z</time></trkpt><trkpt lat="45.6281217" lon="11.3456433"><ele>493.0</ele><time>2026-04-17T08:41:28.403Z</time></trkpt><trkpt lat="45.62813" lon="11.3455417"><ele>491.66666666666663</ele><time>2026-04-17T08:41:29.403Z</time></trkpt><trkpt lat="45.6281317" lon="11.34544"><ele>490.3333333333333</ele><time>2026-04-17T08:41:30.403Z</time></trkpt><trkpt lat="45.628135" lon="11.345245"><ele>489.0</ele><time>2026-04-17T08:41:32.403Z</time></trkpt><trkpt lat="45.6281383" lon="11.3451317"><ele>486.4</ele><time>2026-04-17T08:41:33.404Z</time></trkpt><trkpt lat="45.6281333" lon="11.3450283"><ele>483.79999999999995</ele><time>2026-04-17T08:41:34.403Z</time></trkpt><trkpt lat="45.628145" lon="11.3448567"><ele>481.20000000000005</ele><time>2026-04-17T08:41:36.404Z</time></trkpt><trkpt lat="45.6282017" lon="11.3447217"><ele>478.6</ele><time>2026-04-17T08:41:38.404Z</time></trkpt><trkpt lat="45.62828" lon="11.3446183"><ele>476.0</ele><time>2026-04-17T08:41:40.403Z</time></trkpt><trkpt lat="45.6283467" lon="11.34456"><ele>473.49999999999994</ele><time>2026-04-17T08:41:41.404Z</time></trkpt><trkpt lat="45.6284117" lon="11.3445217"><ele>471.0</ele><time>2026-04-17T08:41:42.404Z</time></trkpt><trkpt lat="45.6284933" lon="11.344485"><ele>468.5</ele><time>2026-04-17T08:41:43.404Z</time></trkpt><trkpt lat="45.6285833" lon="11.3444517"><ele>466.0</ele><time>2026-04-17T08:41:44.403Z</time></trkpt><trkpt lat="45.6286667" lon="11.3444133"><ele>463.49999999999994</ele><time>2026-04-17T08:41:45.404Z</time></trkpt><trkpt lat="45.62875" lon="11.3443733"><ele>461.0</ele><time>2026-04-17T08:41:46.404Z</time></trkpt><trkpt lat="45.6288433" lon="11.3443283"><ele>461.0</ele><time>2026-04-17T08:41:47.404Z</time></trkpt><trkpt lat="45.628935" lon="11.34428"><ele>461.0</ele><time>2026-04-17T08:41:48.404Z</time></trkpt><trkpt lat="45.6290233" lon="11.34423"><ele>461.0</ele><time>2026-04-17T08:41:49.404Z</time></trkpt><trkpt lat="45.6291" lon="11.3441817"><ele>461.0</ele><time>2026-04-17T08:41:50.403Z</time></trkpt><trkpt lat="45.62917" lon="11.344135"><ele>461.0</ele><time>2026-04-17T08:41:51.404Z</time></trkpt><trkpt lat="45.6292933" lon="11.3440283"><ele>460.99999999999994</ele><time>2026-04-17T08:41:53.403Z</time></trkpt><trkpt lat="45.6293517" lon="11.34396"><ele>461.0</ele><time>2026-04-17T08:41:54.403Z</time></trkpt><trkpt lat="45.6294183" lon="11.3438817"><ele>461.0</ele><time>2026-04-17T08:41:55.404Z</time></trkpt><trkpt lat="45.6294817" lon="11.3438017"><ele>461.0</ele><time>2026-04-17T08:41:56.404Z</time></trkpt><trkpt lat="45.6295517" lon="11.3437217"><ele>460.99999999999994</ele><time>2026-04-17T08:41:57.403Z</time></trkpt><trkpt lat="45.6296183" lon="11.3436383"><ele>461.0</ele><time>2026-04-17T08:41:58.404Z</time></trkpt><trkpt lat="45.62968" lon="11.34355"><ele>460.8333333333333</ele><time>2026-04-17T08:41:59.404Z</time></trkpt><trkpt lat="45.6297383" lon="11.343475"><ele>460.66666666666663</ele><time>2026-04-17T08:42:00.404Z</time></trkpt><trkpt lat="45.629795" lon="11.3433967"><ele>460.5</ele><time>2026-04-17T08:42:01.404Z</time></trkpt><trkpt lat="45.6298533" lon="11.3433183"><ele>460.33333333333337</ele><time>2026-04-17T08:42:02.404Z</time></trkpt><trkpt lat="45.6299017" lon="11.343255"><ele>460.1666666666667</ele><time>2026-04-17T08:42:03.404Z</time></trkpt><trkpt lat="45.6299467" lon="11.3431767"><ele>460.0</ele><time>2026-04-17T08:42:04.404Z</time></trkpt><trkpt lat="45.6299883" lon="11.3430833"><ele>461.2</ele><time>2026-04-17T08:42:05.404Z</time></trkpt><trkpt lat="45.6300283" lon="11.343"><ele>462.4</ele><time>2026-04-17T08:42:06.404Z</time></trkpt><trkpt lat="45.6300633" lon="11.3429217"><ele>463.6</ele><time>2026-04-17T08:42:07.403Z</time></trkpt><trkpt lat="45.6301433" lon="11.3427933"><ele>464.8</ele><time>2026-04-17T08:42:09.403Z</time></trkpt><trkpt lat="45.6302433" lon="11.3426917"><ele>466.0</ele><time>2026-04-17T08:42:11.404Z</time></trkpt><trkpt lat="45.6303417" lon="11.3426067"><ele>466.0</ele><time>2026-04-17T08:42:13.404Z</time></trkpt><trkpt lat="45.6304417" lon="11.3424283"><ele>466.0</ele><time>2026-04-17T08:42:17.403Z</time></trkpt><trkpt lat="45.63043" lon="11.342305"><ele>466.0</ele><time>2026-04-17T08:42:20.403Z</time></trkpt><trkpt lat="45.6304433" lon="11.3422017"><ele>466.0</ele><time>2026-04-17T08:42:23.403Z</time></trkpt><trkpt lat="45.6304233" lon="11.342115"><ele>466.0</ele><time>2026-04-17T08:42:25.404Z</time></trkpt><trkpt lat="45.6303633" lon="11.34203"><ele>461.20000000000005</ele><time>2026-04-17T08:42:27.403Z</time></trkpt><trkpt lat="45.6302867" lon="11.3419317"><ele>456.40000000000003</ele><time>2026-04-17T08:42:29.404Z</time></trkpt><trkpt lat="45.6301667" lon="11.3418933"><ele>451.6</ele><time>2026-04-17T08:42:31.404Z</time></trkpt><trkpt lat="45.6300517" lon="11.3419017"><ele>446.8</ele><time>2026-04-17T08:42:33.403Z</time></trkpt><trkpt lat="45.6299833" lon="11.3419167"><ele>442.0</ele><time>2026-04-17T08:42:35.404Z</time></trkpt><trkpt lat="45.6298583" lon="11.3420733"><ele>442.00000000000006</ele><time>2026-04-17T08:42:39.403Z</time></trkpt><trkpt lat="45.629815" lon="11.34218"><ele>442.0</ele><time>2026-04-17T08:42:40.404Z</time></trkpt><trkpt lat="45.6297783" lon="11.3422883"><ele>442.0</ele><time>2026-04-17T08:42:41.404Z</time></trkpt><trkpt lat="45.6297517" lon="11.3423867"><ele>442.0</ele><time>2026-04-17T08:42:42.404Z</time></trkpt><trkpt lat="45.6297133" lon="11.342515"><ele>442.00000000000006</ele><time>2026-04-17T08:42:44.404Z</time></trkpt><trkpt lat="45.6296533" lon="11.3425533"><ele>442.0</ele><time>2026-04-17T08:42:47.404Z</time></trkpt><trkpt lat="45.629585" lon="11.342495"><ele>443.8</ele><time>2026-04-17T08:42:49.403Z</time></trkpt><trkpt lat="45.62951" lon="11.342415"><ele>445.6</ele><time>2026-04-17T08:42:51.404Z</time></trkpt><trkpt lat="45.629415" lon="11.3423233"><ele>447.40000000000003</ele><time>2026-04-17T08:42:53.404Z</time></trkpt><trkpt lat="45.6293633" lon="11.34227"><ele>449.20000000000005</ele><time>2026-04-17T08:42:54.403Z</time></trkpt><trkpt lat="45.6292567" lon="11.3422"><ele>451.0</ele><time>2026-04-17T08:42:56.404Z</time></trkpt><trkpt lat="45.6291" lon="11.3420483"><ele>445.0</ele><time>2026-04-17T08:43:00.404Z</time></trkpt><trkpt lat="45.6290767" lon="11.3419217"><ele>439.0</ele><time>2026-04-17T08:43:02.404Z</time></trkpt><trkpt lat="45.6290933" lon="11.3417783"><ele>433.0</ele><time>2026-04-17T08:43:04.404Z</time></trkpt><trkpt lat="45.629125" lon="11.341645"><ele>427.0</ele><time>2026-04-17T08:43:06.403Z</time></trkpt><trkpt lat="45.6291433" lon="11.3415567"><ele>421.0</ele><time>2026-04-17T08:43:08.404Z</time></trkpt><trkpt lat="45.629205" lon="11.3414483"><ele>423.75</ele><time>2026-04-17T08:43:17.403Z</time></trkpt><trkpt lat="45.62935" lon="11.3413033"><ele>426.5</ele><time>2026-04-17T08:43:20.403Z</time></trkpt><trkpt lat="45.6294467" lon="11.3412117"><ele>429.25</ele><time>2026-04-17T08:43:22.402Z</time></trkpt><trkpt lat="45.6295433" lon="11.34112"><ele>432.0</ele><time>2026-04-17T08:43:24.402Z</time></trkpt><trkpt lat="45.62964" lon="11.34103"><ele>432.0</ele><time>2026-04-17T08:43:26.402Z</time></trkpt><trkpt lat="45.6297117" lon="11.3409183"><ele>432.00000000000006</ele><time>2026-04-17T08:43:28.402Z</time></trkpt><trkpt lat="45.6297717" lon="11.3407983"><ele>432.00000000000006</ele><time>2026-04-17T08:43:30.403Z</time></trkpt><trkpt lat="45.6298067" lon="11.340655"><ele>432.0</ele><time>2026-04-17T08:43:32.403Z</time></trkpt><trkpt lat="45.6298467" lon="11.3405033"><ele>432.0</ele><time>2026-04-17T08:43:34.402Z</time></trkpt><trkpt lat="45.6299" lon="11.3403917"><ele>430.20000000000005</ele><time>2026-04-17T08:43:36.403Z</time></trkpt><trkpt lat="45.6299533" lon="11.3402983"><ele>428.40000000000003</ele><time>2026-04-17T08:43:38.402Z</time></trkpt><trkpt lat="45.63013" lon="11.340175"><ele>426.6</ele><time>2026-04-17T08:43:42.403Z</time></trkpt><trkpt lat="45.6302" lon="11.34013"><ele>424.79999999999995</ele><time>2026-04-17T08:43:44.403Z</time></trkpt><trkpt lat="45.6302867" lon="11.3400917"><ele>423.0</ele><time>2026-04-17T08:43:46.402Z</time></trkpt><trkpt lat="45.6303933" lon="11.3400367"><ele>423.0</ele><time>2026-04-17T08:43:48.403Z</time></trkpt><trkpt lat="45.6304617" lon="11.3399983"><ele>423.0</ele><time>2026-04-17T08:43:49.403Z</time></trkpt><trkpt lat="45.6305767" lon="11.3399717"><ele>423.0</ele><time>2026-04-17T08:43:51.403Z</time></trkpt><trkpt lat="45.6306683" lon="11.3399633"><ele>423.0</ele><time>2026-04-17T08:43:53.403Z</time></trkpt><trkpt lat="45.63077" lon="11.3399217"><ele>423.0</ele><time>2026-04-17T08:43:55.403Z</time></trkpt><trkpt lat="45.630855" lon="11.339895"><ele>423.0</ele><time>2026-04-17T08:43:57.403Z</time></trkpt><trkpt lat="45.6309483" lon="11.3398483"><ele>423.0</ele><time>2026-04-17T08:43:59.403Z</time></trkpt><trkpt lat="45.6311767" lon="11.3396633"><ele>423.0</ele><time>2026-04-17T08:44:03.402Z</time></trkpt><trkpt lat="45.63126" lon="11.3395917"><ele>421.3333333333333</ele><time>2026-04-17T08:44:05.403Z</time></trkpt><trkpt lat="45.631315" lon="11.339545"><ele>419.66666666666663</ele><time>2026-04-17T08:44:07.403Z</time></trkpt><trkpt lat="45.6312833" lon="11.33944"><ele>418.0</ele><time>2026-04-17T08:44:10.403Z</time></trkpt><trkpt lat="45.6312333" lon="11.3393367"><ele>416.3333333333333</ele><time>2026-04-17T08:44:12.402Z</time></trkpt><trkpt lat="45.63116" lon="11.3391917"><ele>414.66666666666663</ele><time>2026-04-17T08:44:14.403Z</time></trkpt><trkpt lat="45.6311133" lon="11.3391283"><ele>413.0</ele><time>2026-04-17T08:44:15.403Z</time></trkpt><trkpt lat="45.631045" lon="11.339045"><ele>408.5</ele><time>2026-04-17T08:44:17.403Z</time></trkpt><trkpt lat="45.6309767" lon="11.3389517"><ele>404.0</ele><time>2026-04-17T08:44:19.403Z</time></trkpt><trkpt lat="45.630905" lon="11.3388433"><ele>399.5</ele><time>2026-04-17T08:44:21.403Z</time></trkpt><trkpt lat="45.6308283" lon="11.33862"><ele>395.0</ele><time>2026-04-17T08:44:25.402Z</time></trkpt><trkpt lat="45.6307833" lon="11.3385133"><ele>392.49999999999994</ele><time>2026-04-17T08:44:28.403Z</time></trkpt><trkpt lat="45.6306967" lon="11.3385117"><ele>390.0</ele><time>2026-04-17T08:44:31.403Z</time></trkpt><trkpt lat="45.6306133" lon="11.3385333"><ele>387.5</ele><time>2026-04-17T08:44:34.403Z</time></trkpt><trkpt lat="45.6305367" lon="11.3385267"><ele>385.0</ele><time>2026-04-17T08:44:36.403Z</time></trkpt><trkpt lat="45.63046" lon="11.3385083"><ele>382.5</ele><time>2026-04-17T08:44:38.402Z</time></trkpt><trkpt lat="45.6303717" lon="11.3385183"><ele>380.0</ele><time>2026-04-17T08:44:40.402Z</time></trkpt><trkpt lat="45.6302683" lon="11.33853"><ele>376.8</ele><time>2026-04-17T08:44:42.402Z</time></trkpt><trkpt lat="45.630075" lon="11.3385133"><ele>373.6</ele><time>2026-04-17T08:44:46.403Z</time></trkpt><trkpt lat="45.63002" lon="11.3384667"><ele>370.4</ele><time>2026-04-17T08:44:49.403Z</time></trkpt><trkpt lat="45.6300583" lon="11.33838"><ele>367.2</ele><time>2026-04-17T08:44:52.403Z</time></trkpt><trkpt lat="45.63011" lon="11.3383183"><ele>364.0</ele><time>2026-04-17T08:44:55.403Z</time></trkpt><trkpt lat="45.6301417" lon="11.338205"><ele>362.0</ele><time>2026-04-17T08:44:58.403Z</time></trkpt><trkpt lat="45.63003" lon="11.33802"><ele>360.0</ele><time>2026-04-17T08:48:58.402Z</time></trkpt><trkpt lat="45.629895" lon="11.338015"><ele>358.0</ele><time>2026-04-17T08:49:02.4Z</time></trkpt><trkpt lat="45.62981" lon="11.3379617"><ele>356.0</ele><time>2026-04-17T08:49:07.401Z</time></trkpt><trkpt lat="45.6297333" lon="11.33793"><ele>356.0</ele><time>2026-04-17T08:49:10.401Z</time></trkpt><trkpt lat="45.629675" lon="11.33798"><ele>356.0</ele><time>2026-04-17T08:49:22.4Z</time></trkpt><trkpt lat="45.62953" lon="11.3380783"><ele>356.0</ele><time>2026-04-17T08:49:26.401Z</time></trkpt><trkpt lat="45.6294433" lon="11.338155"><ele>356.0</ele><time>2026-04-17T08:49:28.401Z</time></trkpt><trkpt lat="45.6293733" lon="11.3382517"><ele>356.0</ele><time>2026-04-17T08:49:30.401Z</time></trkpt><trkpt lat="45.6293217" lon="11.338375"><ele>352.83333333333337</ele><time>2026-04-17T08:49:32.4Z</time></trkpt><trkpt lat="45.6292883" lon="11.3384533"><ele>349.6666666666667</ele><time>2026-04-17T08:49:33.4Z</time></trkpt><trkpt lat="45.6292133" lon="11.33859"><ele>346.5</ele><time>2026-04-17T08:49:35.401Z</time></trkpt><trkpt lat="45.6291267" lon="11.3387017"><ele>343.3333333333333</ele><time>2026-04-17T08:49:37.4Z</time></trkpt><trkpt lat="45.6290583" lon="11.3387367"><ele>340.16666666666663</ele><time>2026-04-17T08:49:39.401Z</time></trkpt><trkpt lat="45.6289867" lon="11.33874"><ele>337.0</ele><time>2026-04-17T08:49:41.4Z</time></trkpt><trkpt lat="45.628885" lon="11.3387233"><ele>337.0</ele><time>2026-04-17T08:49:43.4Z</time></trkpt><trkpt lat="45.6287183" lon="11.3386833"><ele>337.0</ele><time>2026-04-17T08:49:46.401Z</time></trkpt><trkpt lat="45.6285933" lon="11.3386833"><ele>337.0</ele><time>2026-04-17T08:49:48.401Z</time></trkpt><trkpt lat="45.628525" lon="11.3387017"><ele>337.0</ele><time>2026-04-17T08:49:49.401Z</time></trkpt><trkpt lat="45.628455" lon="11.338735"><ele>337.0</ele><time>2026-04-17T08:49:50.401Z</time></trkpt><trkpt lat="45.6283917" lon="11.3387833"><ele>338.16666666666663</ele><time>2026-04-17T08:49:51.401Z</time></trkpt><trkpt lat="45.628295" lon="11.33889"><ele>339.3333333333333</ele><time>2026-04-17T08:49:53.401Z</time></trkpt><trkpt lat="45.6282433" lon="11.338955"><ele>340.5</ele><time>2026-04-17T08:49:54.4Z</time></trkpt><trkpt lat="45.628185" lon="11.3390167"><ele>341.6666666666667</ele><time>2026-04-17T08:49:55.401Z</time></trkpt><trkpt lat="45.62812" lon="11.3390783"><ele>342.83333333333337</ele><time>2026-04-17T08:49:56.4Z</time></trkpt><trkpt lat="45.628055" lon="11.3391267"><ele>344.0</ele><time>2026-04-17T08:49:57.4Z</time></trkpt><trkpt lat="45.6279817" lon="11.3391567"><ele>344.0</ele><time>2026-04-17T08:49:58.401Z</time></trkpt><trkpt lat="45.6279083" lon="11.3391867"><ele>344.0</ele><time>2026-04-17T08:49:59.401Z</time></trkpt><trkpt lat="45.6278117" lon="11.3392567"><ele>344.0</ele><time>2026-04-17T08:50:01.401Z</time></trkpt><trkpt lat="45.627735" lon="11.3393517"><ele>344.0</ele><time>2026-04-17T08:50:03.401Z</time></trkpt><trkpt lat="45.6276917" lon="11.3394683"><ele>344.0</ele><time>2026-04-17T08:50:05.401Z</time></trkpt><trkpt lat="45.6275933" lon="11.339585"><ele>342.0</ele><time>2026-04-17T08:50:10.4Z</time></trkpt><trkpt lat="45.6275383" lon="11.339515"><ele>340.0</ele><time>2026-04-17T08:50:12.4Z</time></trkpt><trkpt lat="45.6274833" lon="11.3393817"><ele>338.0</ele><time>2026-04-17T08:50:14.401Z</time></trkpt><trkpt lat="45.62745" lon="11.3392867"><ele>336.0</ele><time>2026-04-17T08:50:15.401Z</time></trkpt><trkpt lat="45.627405" lon="11.3392017"><ele>334.0</ele><time>2026-04-17T08:50:16.401Z</time></trkpt><trkpt lat="45.62731" lon="11.3391017"><ele>332.0</ele><time>2026-04-17T08:50:18.401Z</time></trkpt><trkpt lat="45.62725" lon="11.3390717"><ele>332.0</ele><time>2026-04-17T08:50:19.401Z</time></trkpt><trkpt lat="45.627175" lon="11.3390483"><ele>332.0</ele><time>2026-04-17T08:50:20.401Z</time></trkpt><trkpt lat="45.6270833" lon="11.339035"><ele>332.0</ele><time>2026-04-17T08:50:21.401Z</time></trkpt><trkpt lat="45.6269967" lon="11.3390317"><ele>332.0</ele><time>2026-04-17T08:50:22.401Z</time></trkpt><trkpt lat="45.6269217" lon="11.33904"><ele>332.0</ele><time>2026-04-17T08:50:23.401Z</time></trkpt><trkpt lat="45.6268083" lon="11.3390583"><ele>332.0</ele><time>2026-04-17T08:50:25.4Z</time></trkpt><trkpt lat="45.62668" lon="11.33905"><ele>332.0</ele><time>2026-04-17T08:50:27.401Z</time></trkpt><trkpt lat="45.626545" lon="11.33898"><ele>332.0</ele><time>2026-04-17T08:50:29.401Z</time></trkpt><trkpt lat="45.6264767" lon="11.338945"><ele>332.0</ele><time>2026-04-17T08:50:30.4Z</time></trkpt><trkpt lat="45.6264133" lon="11.338925"><ele>332.0</ele><time>2026-04-17T08:50:31.4Z</time></trkpt><trkpt lat="45.6263417" lon="11.33892"><ele>332.0</ele><time>2026-04-17T08:50:32.401Z</time></trkpt><trkpt lat="45.6262583" lon="11.33892"><ele>332.0</ele><time>2026-04-17T08:50:33.401Z</time></trkpt><trkpt lat="45.6261717" lon="11.3389183"><ele>331.40000000000003</ele><time>2026-04-17T08:50:34.401Z</time></trkpt><trkpt lat="45.6260733" lon="11.3388983"><ele>330.8</ele><time>2026-04-17T08:50:35.4Z</time></trkpt><trkpt lat="45.6259683" lon="11.3388733"><ele>330.2</ele><time>2026-04-17T08:50:36.401Z</time></trkpt><trkpt lat="45.6258783" lon="11.338855"><ele>329.6</ele><time>2026-04-17T08:50:37.4Z</time></trkpt><trkpt lat="45.6258017" lon="11.338845"><ele>329.0</ele><time>2026-04-17T08:50:38.4Z</time></trkpt><trkpt lat="45.6256883" lon="11.3388083"><ele>329.0</ele><time>2026-04-17T08:50:40.401Z</time></trkpt><trkpt lat="45.625575" lon="11.3388133"><ele>329.0</ele><time>2026-04-17T08:50:42.401Z</time></trkpt><trkpt lat="45.6254567" lon="11.3388533"><ele>329.0</ele><time>2026-04-17T08:50:44.401Z</time></trkpt><trkpt lat="45.6253867" lon="11.3389017"><ele>329.0</ele><time>2026-04-17T08:50:45.4Z</time></trkpt><trkpt lat="45.6253167" lon="11.33895"><ele>329.0</ele><time>2026-04-17T08:50:46.401Z</time></trkpt><trkpt lat="45.6252483" lon="11.3389983"><ele>327.2</ele><time>2026-04-17T08:50:47.4Z</time></trkpt><trkpt lat="45.62518" lon="11.3390567"><ele>325.4</ele><time>2026-04-17T08:50:48.401Z</time></trkpt><trkpt lat="45.6250367" lon="11.33915"><ele>323.6</ele><time>2026-04-17T08:50:50.401Z</time></trkpt><trkpt lat="45.6249667" lon="11.3392033"><ele>321.8</ele><time>2026-04-17T08:50:51.401Z</time></trkpt><trkpt lat="45.6248967" lon="11.3392467"><ele>320.0</ele><time>2026-04-17T08:50:52.4Z</time></trkpt><trkpt lat="45.6248317" lon="11.3392983"><ele>320.0</ele><time>2026-04-17T08:50:53.401Z</time></trkpt><trkpt lat="45.62476" lon="11.33935"><ele>320.0</ele><time>2026-04-17T08:50:54.401Z</time></trkpt><trkpt lat="45.6246933" lon="11.3393967"><ele>320.0</ele><time>2026-04-17T08:50:55.401Z</time></trkpt><trkpt lat="45.6246283" lon="11.3394383"><ele>320.0</ele><time>2026-04-17T08:50:56.401Z</time></trkpt><trkpt lat="45.6245633" lon="11.3394833"><ele>320.0</ele><time>2026-04-17T08:50:57.4Z</time></trkpt><trkpt lat="45.6244933" lon="11.339525"><ele>320.0</ele><time>2026-04-17T08:50:58.401Z</time></trkpt><trkpt lat="45.6244233" lon="11.3395583"><ele>320.0</ele><time>2026-04-17T08:50:59.4Z</time></trkpt><trkpt lat="45.6243517" lon="11.3396033"><ele>319.83333333333337</ele><time>2026-04-17T08:51:00.4Z</time></trkpt><trkpt lat="45.6242767" lon="11.3396533"><ele>319.6666666666667</ele><time>2026-04-17T08:51:01.401Z</time></trkpt><trkpt lat="45.624195" lon="11.3396917"><ele>319.5</ele><time>2026-04-17T08:51:02.401Z</time></trkpt><trkpt lat="45.6241133" lon="11.3397317"><ele>319.3333333333333</ele><time>2026-04-17T08:51:03.401Z</time></trkpt><trkpt lat="45.624035" lon="11.3397717"><ele>319.16666666666663</ele><time>2026-04-17T08:51:04.401Z</time></trkpt><trkpt lat="45.623975" lon="11.3398083"><ele>319.0</ele><time>2026-04-17T08:51:05.401Z</time></trkpt><trkpt lat="45.6238783" lon="11.3398633"><ele>319.0</ele><time>2026-04-17T08:51:07.401Z</time></trkpt><trkpt lat="45.6238017" lon="11.339865"><ele>319.0</ele><time>2026-04-17T08:51:09.401Z</time></trkpt><trkpt lat="45.623645" lon="11.3397167"><ele>319.0</ele><time>2026-04-17T08:51:13.401Z</time></trkpt><trkpt lat="45.6235283" lon="11.3397267"><ele>319.0</ele><time>2026-04-17T08:51:15.401Z</time></trkpt><trkpt lat="45.62345" lon="11.3397533"><ele>318.0</ele><time>2026-04-17T08:51:16.4Z</time></trkpt><trkpt lat="45.6233617" lon="11.3397817"><ele>317.0</ele><time>2026-04-17T08:51:17.401Z</time></trkpt><trkpt lat="45.623275" lon="11.33981"><ele>316.0</ele><time>2026-04-17T08:51:18.401Z</time></trkpt><trkpt lat="45.6231967" lon="11.3398333"><ele>315.0</ele><time>2026-04-17T08:51:19.401Z</time></trkpt><trkpt lat="45.6231233" lon="11.339845"><ele>314.0</ele><time>2026-04-17T08:51:20.401Z</time></trkpt><trkpt lat="45.6230417" lon="11.3398617"><ele>313.0</ele><time>2026-04-17T08:51:21.401Z</time></trkpt><trkpt lat="45.6229583" lon="11.3398783"><ele>313.0</ele><time>2026-04-17T08:51:22.401Z</time></trkpt><trkpt lat="45.6228917" lon="11.3398967"><ele>313.0</ele><time>2026-04-17T08:51:23.401Z</time></trkpt><trkpt lat="45.6227833" lon="11.3399133"><ele>313.0</ele><time>2026-04-17T08:51:25.401Z</time></trkpt><trkpt lat="45.62272" lon="11.3399367"><ele>313.0</ele><time>2026-04-17T08:51:26.401Z</time></trkpt><trkpt lat="45.622615" lon="11.339975"><ele>313.0</ele><time>2026-04-17T08:51:28.401Z</time></trkpt><trkpt lat="45.6225483" lon="11.34"><ele>313.0</ele><time>2026-04-17T08:51:30.401Z</time></trkpt><trkpt lat="45.622425" lon="11.33991"><ele>312.16666666666663</ele><time>2026-04-17T08:51:34.401Z</time></trkpt><trkpt lat="45.6223117" lon="11.3399283"><ele>311.3333333333333</ele><time>2026-04-17T08:51:36.401Z</time></trkpt><trkpt lat="45.6222483" lon="11.339935"><ele>310.5</ele><time>2026-04-17T08:51:37.4Z</time></trkpt><trkpt lat="45.6221783" lon="11.3399617"><ele>309.6666666666667</ele><time>2026-04-17T08:51:38.401Z</time></trkpt><trkpt lat="45.6220983" lon="11.3399917"><ele>308.83333333333337</ele><time>2026-04-17T08:51:39.401Z</time></trkpt><trkpt lat="45.6220367" lon="11.3400517"><ele>308.0</ele><time>2026-04-17T08:51:40.4Z</time></trkpt><trkpt lat="45.6219583" lon="11.3401167"><ele>306.2</ele><time>2026-04-17T08:51:41.401Z</time></trkpt><trkpt lat="45.6218967" lon="11.3401517"><ele>304.4</ele><time>2026-04-17T08:51:42.401Z</time></trkpt><trkpt lat="45.6217517" lon="11.3401833"><ele>302.59999999999997</ele><time>2026-04-17T08:51:44.401Z</time></trkpt><trkpt lat="45.6216483" lon="11.340195"><ele>300.8</ele><time>2026-04-17T08:51:45.4Z</time></trkpt><trkpt lat="45.6215383" lon="11.340205"><ele>299.0</ele><time>2026-04-17T08:51:46.401Z</time></trkpt><trkpt lat="45.62144" lon="11.3402233"><ele>299.0</ele><time>2026-04-17T08:51:47.399Z</time></trkpt><trkpt lat="45.621355" lon="11.340245"><ele>299.0</ele><time>2026-04-17T08:51:48.399Z</time></trkpt><trkpt lat="45.6212783" lon="11.340275"><ele>299.0</ele><time>2026-04-17T08:51:49.4Z</time></trkpt><trkpt lat="45.6212067" lon="11.34032"><ele>299.0</ele><time>2026-04-17T08:51:50.4Z</time></trkpt><trkpt lat="45.6211483" lon="11.34039"><ele>299.0</ele><time>2026-04-17T08:51:51.399Z</time></trkpt><trkpt lat="45.62106" lon="11.34054"><ele>296.25</ele><time>2026-04-17T08:51:53.4Z</time></trkpt><trkpt lat="45.621005" lon="11.3406483"><ele>293.5</ele><time>2026-04-17T08:51:54.4Z</time></trkpt><trkpt lat="45.62094" lon="11.340795"><ele>290.75</ele><time>2026-04-17T08:51:55.399Z</time></trkpt><trkpt lat="45.6208717" lon="11.3409783"><ele>288.0</ele><time>2026-04-17T08:51:56.4Z</time></trkpt><trkpt lat="45.6208033" lon="11.3411517"><ele>288.0</ele><time>2026-04-17T08:51:57.399Z</time></trkpt><trkpt lat="45.620745" lon="11.3413133"><ele>288.0</ele><time>2026-04-17T08:51:58.4Z</time></trkpt><trkpt lat="45.6207017" lon="11.3414617"><ele>288.0</ele><time>2026-04-17T08:51:59.4Z</time></trkpt><trkpt lat="45.62065" lon="11.3416033"><ele>288.0</ele><time>2026-04-17T08:52:00.4Z</time></trkpt><trkpt lat="45.620585" lon="11.3417483"><ele>286.25</ele><time>2026-04-17T08:52:01.4Z</time></trkpt><trkpt lat="45.6205017" lon="11.341895"><ele>284.5</ele><time>2026-04-17T08:52:02.4Z</time></trkpt><trkpt lat="45.6204183" lon="11.3420317"><ele>282.75</ele><time>2026-04-17T08:52:03.4Z</time></trkpt><trkpt lat="45.6203383" lon="11.3421517"><ele>281.0</ele><time>2026-04-17T08:52:04.399Z</time></trkpt><trkpt lat="45.62027" lon="11.34227"><ele>281.0</ele><time>2026-04-17T08:52:05.4Z</time></trkpt><trkpt lat="45.620205" lon="11.3423767"><ele>281.0</ele><time>2026-04-17T08:52:06.4Z</time></trkpt><trkpt lat="45.6201467" lon="11.34246"><ele>281.0</ele><time>2026-04-17T08:52:07.4Z</time></trkpt><trkpt lat="45.6201" lon="11.3425217"><ele>281.0</ele><time>2026-04-17T08:52:08.399Z</time></trkpt><trkpt lat="45.6200167" lon="11.3425283"><ele>281.0</ele><time>2026-04-17T08:52:10.4Z</time></trkpt><trkpt lat="45.61998" lon="11.34245"><ele>281.0</ele><time>2026-04-17T08:52:11.4Z</time></trkpt><trkpt lat="45.619945" lon="11.3423283"><ele>278.75</ele><time>2026-04-17T08:52:12.4Z</time></trkpt><trkpt lat="45.61991" lon="11.3420567"><ele>276.5</ele><time>2026-04-17T08:52:14.4Z</time></trkpt><trkpt lat="45.61989" lon="11.34195"><ele>274.25</ele><time>2026-04-17T08:52:15.4Z</time></trkpt><trkpt lat="45.619855" lon="11.3418733"><ele>272.0</ele><time>2026-04-17T08:52:16.4Z</time></trkpt><trkpt lat="45.61972" lon="11.3418833"><ele>272.0</ele><time>2026-04-17T08:52:18.4Z</time></trkpt><trkpt lat="45.61963" lon="11.341955"><ele>272.0</ele><time>2026-04-17T08:52:19.399Z</time></trkpt><trkpt lat="45.6195317" lon="11.3420267"><ele>272.0</ele><time>2026-04-17T08:52:20.4Z</time></trkpt><trkpt lat="45.6194467" lon="11.342095"><ele>272.0</ele><time>2026-04-17T08:52:21.4Z</time></trkpt><trkpt lat="45.61937" lon="11.3421617"><ele>272.0</ele><time>2026-04-17T08:52:22.399Z</time></trkpt><trkpt lat="45.619285" lon="11.3422367"><ele>270.0</ele><time>2026-04-17T08:52:23.399Z</time></trkpt><trkpt lat="45.6192" lon="11.3423367"><ele>268.0</ele><time>2026-04-17T08:52:24.4Z</time></trkpt><trkpt lat="45.6191117" lon="11.3424417"><ele>266.0</ele><time>2026-04-17T08:52:25.4Z</time></trkpt><trkpt lat="45.619035" lon="11.3425617"><ele>264.0</ele><time>2026-04-17T08:52:26.4Z</time></trkpt><trkpt lat="45.618965" lon="11.3426817"><ele>262.0</ele><time>2026-04-17T08:52:27.4Z</time></trkpt><trkpt lat="45.6188983" lon="11.3428133"><ele>262.0</ele><time>2026-04-17T08:52:28.4Z</time></trkpt><trkpt lat="45.61884" lon="11.34294"><ele>262.0</ele><time>2026-04-17T08:52:29.399Z</time></trkpt><trkpt lat="45.61878" lon="11.3430683"><ele>262.0</ele><time>2026-04-17T08:52:30.4Z</time></trkpt><trkpt lat="45.6187033" lon="11.34318"><ele>262.0</ele><time>2026-04-17T08:52:31.4Z</time></trkpt><trkpt lat="45.6186167" lon="11.343275"><ele>262.0</ele><time>2026-04-17T08:52:32.4Z</time></trkpt><trkpt lat="45.6185217" lon="11.343365"><ele>258.0</ele><time>2026-04-17T08:52:33.399Z</time></trkpt><trkpt lat="45.6183483" lon="11.343525"><ele>254.0</ele><time>2026-04-17T08:52:35.4Z</time></trkpt><trkpt lat="45.6182617" lon="11.3435767"><ele>250.0</ele><time>2026-04-17T08:52:36.4Z</time></trkpt><trkpt lat="45.6181767" lon="11.3436117"><ele>246.0</ele><time>2026-04-17T08:52:37.4Z</time></trkpt><trkpt lat="45.6180833" lon="11.34362"><ele>246.0</ele><time>2026-04-17T08:52:38.399Z</time></trkpt><trkpt lat="45.6179967" lon="11.34363"><ele>246.0</ele><time>2026-04-17T08:52:39.399Z</time></trkpt><trkpt lat="45.617925" lon="11.3436867"><ele>246.0</ele><time>2026-04-17T08:52:40.4Z</time></trkpt><trkpt lat="45.617885" lon="11.3437767"><ele>246.0</ele><time>2026-04-17T08:52:41.399Z</time></trkpt><trkpt lat="45.6178717" lon="11.3438867"><ele>246.0</ele><time>2026-04-17T08:52:42.4Z</time></trkpt><trkpt lat="45.6178667" lon="11.3440133"><ele>246.0</ele><time>2026-04-17T08:52:43.4Z</time></trkpt><trkpt lat="45.61786" lon="11.3441317"><ele>247.0</ele><time>2026-04-17T08:52:44.4Z</time></trkpt><trkpt lat="45.6178417" lon="11.3442183"><ele>248.00000000000003</ele><time>2026-04-17T08:52:45.4Z</time></trkpt><trkpt lat="45.6177683" lon="11.34432"><ele>249.00000000000003</ele><time>2026-04-17T08:52:47.4Z</time></trkpt><trkpt lat="45.61765" lon="11.3442517"><ele>250.0</ele><time>2026-04-17T08:52:49.4Z</time></trkpt><trkpt lat="45.6175667" lon="11.3442317"><ele>251.0</ele><time>2026-04-17T08:52:50.399Z</time></trkpt><trkpt lat="45.6174717" lon="11.3442517"><ele>247.75</ele><time>2026-04-17T08:52:51.4Z</time></trkpt><trkpt lat="45.61736" lon="11.34428"><ele>244.5</ele><time>2026-04-17T08:52:52.4Z</time></trkpt><trkpt lat="45.61724" lon="11.3443217"><ele>241.25</ele><time>2026-04-17T08:52:53.399Z</time></trkpt><trkpt lat="45.6171067" lon="11.3443767"><ele>238.0</ele><time>2026-04-17T08:52:54.4Z</time></trkpt><trkpt lat="45.6167967" lon="11.3444883"><ele>236.0</ele><time>2026-04-17T08:52:56.4Z</time></trkpt><trkpt lat="45.6166533" lon="11.3445533"><ele>234.0</ele><time>2026-04-17T08:52:57.399Z</time></trkpt><trkpt lat="45.6165133" lon="11.344615"><ele>232.0</ele><time>2026-04-17T08:52:58.4Z</time></trkpt><trkpt lat="45.6163833" lon="11.3446817"><ele>230.0</ele><time>2026-04-17T08:52:59.4Z</time></trkpt><trkpt lat="45.6162633" lon="11.344745"><ele>228.4</ele><time>2026-04-17T08:53:00.4Z</time></trkpt><trkpt lat="45.6161467" lon="11.3447983"><ele>226.8</ele><time>2026-04-17T08:53:01.4Z</time></trkpt><trkpt lat="45.616045" lon="11.3448567"><ele>225.2</ele><time>2026-04-17T08:53:02.4Z</time></trkpt><trkpt lat="45.6159517" lon="11.3448883"><ele>223.6</ele><time>2026-04-17T08:53:03.399Z</time></trkpt><trkpt lat="45.6158533" lon="11.3449033"><ele>222.0</ele><time>2026-04-17T08:53:04.4Z</time></trkpt><trkpt lat="45.6157467" lon="11.3448883"><ele>222.0</ele><time>2026-04-17T08:53:05.399Z</time></trkpt><trkpt lat="45.61563" lon="11.3448567"><ele>222.0</ele><time>2026-04-17T08:53:06.4Z</time></trkpt><trkpt lat="45.6155217" lon="11.3448367"><ele>222.0</ele><time>2026-04-17T08:53:07.4Z</time></trkpt><trkpt lat="45.61542" lon="11.344845"><ele>222.0</ele><time>2026-04-17T08:53:08.4Z</time></trkpt><trkpt lat="45.6153367" lon="11.344875"><ele>222.0</ele><time>2026-04-17T08:53:09.4Z</time></trkpt><trkpt lat="45.6152683" lon="11.344925"><ele>220.2</ele><time>2026-04-17T08:53:10.4Z</time></trkpt><trkpt lat="45.6152167" lon="11.3450033"><ele>218.39999999999998</ele><time>2026-04-17T08:53:11.4Z</time></trkpt><trkpt lat="45.6151733" lon="11.3450817"><ele>216.60000000000002</ele><time>2026-04-17T08:53:12.4Z</time></trkpt><trkpt lat="45.61512" lon="11.34514"><ele>214.8</ele><time>2026-04-17T08:53:13.4Z</time></trkpt><trkpt lat="45.6150033" lon="11.3451767"><ele>213.0</ele><time>2026-04-17T08:53:15.4Z</time></trkpt><trkpt lat="45.614805" lon="11.34508"><ele>213.0</ele><time>2026-04-17T08:53:19.4Z</time></trkpt><trkpt lat="45.614735" lon="11.3449417"><ele>213.0</ele><time>2026-04-17T08:53:21.4Z</time></trkpt><trkpt lat="45.6146917" lon="11.3448133"><ele>213.0</ele><time>2026-04-17T08:53:23.399Z</time></trkpt><trkpt lat="45.6146633" lon="11.3446933"><ele>213.0</ele><time>2026-04-17T08:53:25.4Z</time></trkpt><trkpt lat="45.614635" lon="11.3445833"><ele>213.0</ele><time>2026-04-17T08:53:27.4Z</time></trkpt><trkpt lat="45.614595" lon="11.3445"><ele>212.66666666666666</ele><time>2026-04-17T08:53:29.399Z</time></trkpt><trkpt lat="45.6145117" lon="11.34447"><ele>212.33333333333331</ele><time>2026-04-17T08:53:31.4Z</time></trkpt><trkpt lat="45.6144433" lon="11.3444867"><ele>212.0</ele><time>2026-04-17T08:53:33.399Z</time></trkpt><trkpt lat="45.6143817" lon="11.3445117"><ele>211.66666666666666</ele><time>2026-04-17T08:53:35.4Z</time></trkpt><trkpt lat="45.614305" lon="11.3445617"><ele>211.33333333333331</ele><time>2026-04-17T08:53:38.4Z</time></trkpt><trkpt lat="45.6141817" lon="11.3446567"><ele>211.0</ele><time>2026-04-17T08:53:42.4Z</time></trkpt><trkpt lat="45.61411" lon="11.3446967"><ele>210.16666666666666</ele><time>2026-04-17T08:53:45.399Z</time></trkpt><trkpt lat="45.61405" lon="11.3447633"><ele>209.33333333333331</ele><time>2026-04-17T08:53:47.4Z</time></trkpt><trkpt lat="45.61397" lon="11.3447983"><ele>208.5</ele><time>2026-04-17T08:53:49.399Z</time></trkpt><trkpt lat="45.61386" lon="11.3447833"><ele>207.66666666666669</ele><time>2026-04-17T08:53:51.4Z</time></trkpt><trkpt lat="45.613795" lon="11.3447583"><ele>206.83333333333334</ele><time>2026-04-17T08:53:52.4Z</time></trkpt><trkpt lat="45.6137117" lon="11.34477"><ele>206.0</ele><time>2026-04-17T08:53:53.4Z</time></trkpt><trkpt lat="45.6136333" lon="11.3447983"><ele>204.83333333333334</ele><time>2026-04-17T08:53:54.4Z</time></trkpt><trkpt lat="45.6135517" lon="11.3448333"><ele>203.66666666666669</ele><time>2026-04-17T08:53:55.399Z</time></trkpt><trkpt lat="45.6134817" lon="11.344865"><ele>202.5</ele><time>2026-04-17T08:53:56.4Z</time></trkpt><trkpt lat="45.6134117" lon="11.344895"><ele>201.33333333333331</ele><time>2026-04-17T08:53:57.399Z</time></trkpt><trkpt lat="45.6133417" lon="11.34492"><ele>200.16666666666666</ele><time>2026-04-17T08:53:58.4Z</time></trkpt><trkpt lat="45.613275" lon="11.34496"><ele>199.0</ele><time>2026-04-17T08:53:59.4Z</time></trkpt><trkpt lat="45.6130917" lon="11.3450167"><ele>198.99999999999997</ele><time>2026-04-17T08:54:02.4Z</time></trkpt><trkpt lat="45.6130267" lon="11.345045"><ele>199.0</ele><time>2026-04-17T08:54:03.4Z</time></trkpt><trkpt lat="45.612955" lon="11.3450733"><ele>199.0</ele><time>2026-04-17T08:54:04.4Z</time></trkpt><trkpt lat="45.6128783" lon="11.3450967"><ele>199.0</ele><time>2026-04-17T08:54:05.4Z</time></trkpt><trkpt lat="45.6128033" lon="11.3451183"><ele>198.99999999999997</ele><time>2026-04-17T08:54:06.4Z</time></trkpt><trkpt lat="45.6127183" lon="11.3451317"><ele>199.0</ele><time>2026-04-17T08:54:07.399Z</time></trkpt><trkpt lat="45.6126267" lon="11.3451333"><ele>198.2</ele><time>2026-04-17T08:54:08.4Z</time></trkpt><trkpt lat="45.612545" lon="11.345095"><ele>197.39999999999998</ele><time>2026-04-17T08:54:09.399Z</time></trkpt><trkpt lat="45.61245" lon="11.3450333"><ele>196.6</ele><time>2026-04-17T08:54:10.4Z</time></trkpt><trkpt lat="45.6123667" lon="11.344955"><ele>195.8</ele><time>2026-04-17T08:54:11.4Z</time></trkpt><trkpt lat="45.6122633" lon="11.3448767"><ele>195.0</ele><time>2026-04-17T08:54:12.4Z</time></trkpt><trkpt lat="45.61217" lon="11.3447917"><ele>195.0</ele><time>2026-04-17T08:54:13.4Z</time></trkpt><trkpt lat="45.6120917" lon="11.3447067"><ele>195.0</ele><time>2026-04-17T08:54:14.4Z</time></trkpt><trkpt lat="45.6120267" lon="11.3446283"><ele>195.0</ele><time>2026-04-17T08:54:15.4Z</time></trkpt><trkpt lat="45.6119567" lon="11.344555"><ele>195.0</ele><time>2026-04-17T08:54:16.4Z</time></trkpt><trkpt lat="45.6118817" lon="11.34448"><ele>195.0</ele><time>2026-04-17T08:54:17.4Z</time></trkpt><trkpt lat="45.6118017" lon="11.3444033"><ele>194.4</ele><time>2026-04-17T08:54:18.4Z</time></trkpt><trkpt lat="45.6117217" lon="11.3443283"><ele>193.8</ele><time>2026-04-17T08:54:19.4Z</time></trkpt><trkpt lat="45.61166" lon="11.3442517"><ele>193.2</ele><time>2026-04-17T08:54:20.399Z</time></trkpt><trkpt lat="45.61152" lon="11.344125"><ele>192.6</ele><time>2026-04-17T08:54:22.4Z</time></trkpt><trkpt lat="45.6114533" lon="11.3440533"><ele>192.0</ele><time>2026-04-17T08:54:23.4Z</time></trkpt><trkpt lat="45.6113917" lon="11.3439833"><ele>192.0</ele><time>2026-04-17T08:54:24.4Z</time></trkpt><trkpt lat="45.6113333" lon="11.3439267"><ele>192.0</ele><time>2026-04-17T08:54:25.4Z</time></trkpt><trkpt lat="45.6112783" lon="11.3438817"><ele>192.0</ele><time>2026-04-17T08:54:26.399Z</time></trkpt><trkpt lat="45.6111983" lon="11.3438033"><ele>192.0</ele><time>2026-04-17T08:54:28.4Z</time></trkpt><trkpt lat="45.6111317" lon="11.34372"><ele>192.0</ele><time>2026-04-17T08:54:30.4Z</time></trkpt><trkpt lat="45.611055" lon="11.3437117"><ele>192.0</ele><time>2026-04-17T08:54:32.4Z</time></trkpt><trkpt lat="45.6109967" lon="11.3438033"><ele>191.8</ele><time>2026-04-17T08:54:34.399Z</time></trkpt><trkpt lat="45.6109583" lon="11.3439433"><ele>191.6</ele><time>2026-04-17T08:54:36.4Z</time></trkpt><trkpt lat="45.61091" lon="11.344085"><ele>191.4</ele><time>2026-04-17T08:54:38.399Z</time></trkpt><trkpt lat="45.610855" lon="11.344245"><ele>191.20000000000002</ele><time>2026-04-17T08:54:40.398Z</time></trkpt><trkpt lat="45.6108183" lon="11.344345"><ele>191.0</ele><time>2026-04-17T08:54:41.398Z</time></trkpt><trkpt lat="45.6107333" lon="11.344575"><ele>191.0</ele><time>2026-04-17T08:54:43.398Z</time></trkpt><trkpt lat="45.610685" lon="11.3446917"><ele>191.0</ele><time>2026-04-17T08:54:44.398Z</time></trkpt><trkpt lat="45.6106233" lon="11.3448117"><ele>191.0</ele><time>2026-04-17T08:54:45.399Z</time></trkpt><trkpt lat="45.61056" lon="11.3449417"><ele>191.0</ele><time>2026-04-17T08:54:46.399Z</time></trkpt><trkpt lat="45.6105017" lon="11.34509"><ele>191.0</ele><time>2026-04-17T08:54:47.399Z</time></trkpt><trkpt lat="45.6104417" lon="11.3452283"><ele>191.0</ele><time>2026-04-17T08:54:48.399Z</time></trkpt><trkpt lat="45.610375" lon="11.3453517"><ele>191.0</ele><time>2026-04-17T08:54:49.399Z</time></trkpt><trkpt lat="45.6102967" lon="11.34547"><ele>191.0</ele><time>2026-04-17T08:54:50.398Z</time></trkpt><trkpt lat="45.6102133" lon="11.3455983"><ele>191.0</ele><time>2026-04-17T08:54:51.399Z</time></trkpt><trkpt lat="45.6101183" lon="11.3457117"><ele>191.20000000000002</ele><time>2026-04-17T08:54:52.399Z</time></trkpt><trkpt lat="45.61003" lon="11.345815"><ele>191.4</ele><time>2026-04-17T08:54:53.398Z</time></trkpt><trkpt lat="45.6099517" lon="11.3459033"><ele>191.6</ele><time>2026-04-17T08:54:54.399Z</time></trkpt><trkpt lat="45.6098883" lon="11.345985"><ele>191.8</ele><time>2026-04-17T08:54:55.398Z</time></trkpt><trkpt lat="45.60978" lon="11.346025"><ele>192.0</ele><time>2026-04-17T08:54:57.399Z</time></trkpt><trkpt lat="45.6097133" lon="11.34599"><ele>192.0</ele><time>2026-04-17T08:54:58.399Z</time></trkpt><trkpt lat="45.609625" lon="11.3459383"><ele>192.0</ele><time>2026-04-17T08:54:59.398Z</time></trkpt><trkpt lat="45.6095183" lon="11.3458783"><ele>192.0</ele><time>2026-04-17T08:55:00.399Z</time></trkpt><trkpt lat="45.6094033" lon="11.3458067"><ele>192.0</ele><time>2026-04-17T08:55:01.399Z</time></trkpt><trkpt lat="45.60929" lon="11.345745"><ele>190.75</ele><time>2026-04-17T08:55:02.399Z</time></trkpt><trkpt lat="45.609085" lon="11.345655"><ele>189.5</ele><time>2026-04-17T08:55:04.398Z</time></trkpt><trkpt lat="45.6089917" lon="11.3456133"><ele>188.25</ele><time>2026-04-17T08:55:05.398Z</time></trkpt><trkpt lat="45.60891" lon="11.34557"><ele>187.0</ele><time>2026-04-17T08:55:06.398Z</time></trkpt><trkpt lat="45.6088117" lon="11.34553"><ele>186.75</ele><time>2026-04-17T08:55:07.399Z</time></trkpt><trkpt lat="45.608695" lon="11.34548"><ele>186.5</ele><time>2026-04-17T08:55:08.399Z</time></trkpt><trkpt lat="45.6085617" lon="11.345455"><ele>186.25</ele><time>2026-04-17T08:55:09.399Z</time></trkpt><trkpt lat="45.6084367" lon="11.345435"><ele>186.0</ele><time>2026-04-17T08:55:10.399Z</time></trkpt><trkpt lat="45.608325" lon="11.3454183"><ele>185.8</ele><time>2026-04-17T08:55:11.398Z</time></trkpt><trkpt lat="45.6082117" lon="11.3454067"><ele>185.60000000000002</ele><time>2026-04-17T08:55:12.399Z</time></trkpt><trkpt lat="45.6080933" lon="11.345385"><ele>185.4</ele><time>2026-04-17T08:55:13.398Z</time></trkpt><trkpt lat="45.6079933" lon="11.3453717"><ele>185.2</ele><time>2026-04-17T08:55:14.399Z</time></trkpt><trkpt lat="45.6079033" lon="11.3453583"><ele>185.0</ele><time>2026-04-17T08:55:15.398Z</time></trkpt><trkpt lat="45.6078217" lon="11.34534"><ele>184.33333333333331</ele><time>2026-04-17T08:55:16.399Z</time></trkpt><trkpt lat="45.6077317" lon="11.3453233"><ele>183.66666666666666</ele><time>2026-04-17T08:55:17.398Z</time></trkpt><trkpt lat="45.6076417" lon="11.345295"><ele>183.0</ele><time>2026-04-17T08:55:18.399Z</time></trkpt><trkpt lat="45.6075567" lon="11.3452633"><ele>182.33333333333334</ele><time>2026-04-17T08:55:19.398Z</time></trkpt><trkpt lat="45.6074833" lon="11.3452383"><ele>181.66666666666669</ele><time>2026-04-17T08:55:20.399Z</time></trkpt><trkpt lat="45.6074183" lon="11.3452317"><ele>181.0</ele><time>2026-04-17T08:55:21.398Z</time></trkpt><trkpt lat="45.6072933" lon="11.345275"><ele>181.0</ele><time>2026-04-17T08:55:23.399Z</time></trkpt><trkpt lat="45.607185" lon="11.345415"><ele>181.0</ele><time>2026-04-17T08:55:25.399Z</time></trkpt><trkpt lat="45.60713" lon="11.345505"><ele>181.0</ele><time>2026-04-17T08:55:26.399Z</time></trkpt><trkpt lat="45.6070733" lon="11.345595"><ele>181.0</ele><time>2026-04-17T08:55:27.398Z</time></trkpt><trkpt lat="45.607015" lon="11.3456917"><ele>181.0</ele><time>2026-04-17T08:55:28.399Z</time></trkpt><trkpt lat="45.60696" lon="11.3457767"><ele>180.5</ele><time>2026-04-17T08:55:29.399Z</time></trkpt><trkpt lat="45.6069033" lon="11.3458683"><ele>180.0</ele><time>2026-04-17T08:55:30.399Z</time></trkpt><trkpt lat="45.6068433" lon="11.3459617"><ele>179.5</ele><time>2026-04-17T08:55:31.399Z</time></trkpt><trkpt lat="45.6067833" lon="11.346055"><ele>179.0</ele><time>2026-04-17T08:55:32.399Z</time></trkpt><trkpt lat="45.60673" lon="11.346145"><ele>178.5</ele><time>2026-04-17T08:55:33.398Z</time></trkpt><trkpt lat="45.6066767" lon="11.3462267"><ele>178.0</ele><time>2026-04-17T08:55:34.398Z</time></trkpt><trkpt lat="45.606625" lon="11.346305"><ele>177.83333333333334</ele><time>2026-04-17T08:55:35.398Z</time></trkpt><trkpt lat="45.6065733" lon="11.34638"><ele>177.66666666666669</ele><time>2026-04-17T08:55:36.399Z</time></trkpt><trkpt lat="45.6065217" lon="11.3464533"><ele>177.5</ele><time>2026-04-17T08:55:37.399Z</time></trkpt><trkpt lat="45.60647" lon="11.34654"><ele>177.33333333333334</ele><time>2026-04-17T08:55:38.399Z</time></trkpt><trkpt lat="45.606415" lon="11.3466517"><ele>177.16666666666666</ele><time>2026-04-17T08:55:39.398Z</time></trkpt><trkpt lat="45.606355" lon="11.3467533"><ele>177.0</ele><time>2026-04-17T08:55:40.399Z</time></trkpt><trkpt lat="45.6062967" lon="11.346845"><ele>177.0</ele><time>2026-04-17T08:55:41.399Z</time></trkpt><trkpt lat="45.6062367" lon="11.346935"><ele>177.0</ele><time>2026-04-17T08:55:42.399Z</time></trkpt><trkpt lat="45.6061683" lon="11.3470333"><ele>177.0</ele><time>2026-04-17T08:55:43.399Z</time></trkpt><trkpt lat="45.606095" lon="11.347135"><ele>177.0</ele><time>2026-04-17T08:55:44.399Z</time></trkpt><trkpt lat="45.60596" lon="11.347335"><ele>177.2</ele><time>2026-04-17T08:55:46.399Z</time></trkpt><trkpt lat="45.6058967" lon="11.3474433"><ele>177.39999999999998</ele><time>2026-04-17T08:55:47.398Z</time></trkpt><trkpt lat="45.6058383" lon="11.3475567"><ele>177.60000000000002</ele><time>2026-04-17T08:55:48.399Z</time></trkpt><trkpt lat="45.6057883" lon="11.34765"><ele>177.8</ele><time>2026-04-17T08:55:49.399Z</time></trkpt><trkpt lat="45.6057333" lon="11.34775"><ele>178.0</ele><time>2026-04-17T08:55:50.399Z</time></trkpt><trkpt lat="45.60567" lon="11.3478533"><ele>178.0</ele><time>2026-04-17T08:55:51.399Z</time></trkpt><trkpt lat="45.6056" lon="11.3479667"><ele>178.0</ele><time>2026-04-17T08:55:52.399Z</time></trkpt><trkpt lat="45.6055117" lon="11.348095"><ele>178.0</ele><time>2026-04-17T08:55:53.399Z</time></trkpt><trkpt lat="45.605435" lon="11.348205"><ele>178.0</ele><time>2026-04-17T08:55:54.398Z</time></trkpt><trkpt lat="45.60536" lon="11.3483083"><ele>178.0</ele><time>2026-04-17T08:55:55.399Z</time></trkpt><trkpt lat="45.6053" lon="11.3483917"><ele>178.0</ele><time>2026-04-17T08:55:56.399Z</time></trkpt><trkpt lat="45.6052433" lon="11.34847"><ele>178.0</ele><time>2026-04-17T08:55:57.399Z</time></trkpt><trkpt lat="45.60518" lon="11.34857"><ele>178.0</ele><time>2026-04-17T08:55:58.399Z</time></trkpt><trkpt lat="45.605115" lon="11.3486717"><ele>178.0</ele><time>2026-04-17T08:55:59.399Z</time></trkpt><trkpt lat="45.605045" lon="11.3487783"><ele>178.0</ele><time>2026-04-17T08:56:00.399Z</time></trkpt><trkpt lat="45.6049683" lon="11.348905"><ele>178.0</ele><time>2026-04-17T08:56:01.399Z</time></trkpt><trkpt lat="45.6048933" lon="11.3490283"><ele>178.0</ele><time>2026-04-17T08:56:02.398Z</time></trkpt><trkpt lat="45.6048233" lon="11.349145"><ele>178.0</ele><time>2026-04-17T08:56:03.399Z</time></trkpt><trkpt lat="45.60475" lon="11.349265"><ele>178.0</ele><time>2026-04-17T08:56:04.399Z</time></trkpt><trkpt lat="45.604685" lon="11.3493767"><ele>178.0</ele><time>2026-04-17T08:56:05.399Z</time></trkpt><trkpt lat="45.604555" lon="11.3495967"><ele>177.8</ele><time>2026-04-17T08:56:07.399Z</time></trkpt><trkpt lat="45.6044783" lon="11.3497067"><ele>177.60000000000002</ele><time>2026-04-17T08:56:08.399Z</time></trkpt><trkpt lat="45.60441" lon="11.3497983"><ele>177.39999999999998</ele><time>2026-04-17T08:56:09.399Z</time></trkpt><trkpt lat="45.6043483" lon="11.3498967"><ele>177.2</ele><time>2026-04-17T08:56:10.399Z</time></trkpt><trkpt lat="45.6042917" lon="11.3499817"><ele>177.0</ele><time>2026-04-17T08:56:11.399Z</time></trkpt><trkpt lat="45.6042383" lon="11.3500733"><ele>177.0</ele><time>2026-04-17T08:56:12.399Z</time></trkpt><trkpt lat="45.6041783" lon="11.350175"><ele>177.0</ele><time>2026-04-17T08:56:13.398Z</time></trkpt><trkpt lat="45.6041217" lon="11.3502767"><ele>177.0</ele><time>2026-04-17T08:56:14.399Z</time></trkpt><trkpt lat="45.6040617" lon="11.35039"><ele>177.0</ele><time>2026-04-17T08:56:15.399Z</time></trkpt><trkpt lat="45.6040033" lon="11.3505283"><ele>177.0</ele><time>2026-04-17T08:56:16.399Z</time></trkpt><trkpt lat="45.603945" lon="11.350685"><ele>176.75</ele><time>2026-04-17T08:56:17.399Z</time></trkpt><trkpt lat="45.603895" lon="11.35082"><ele>176.5</ele><time>2026-04-17T08:56:18.399Z</time></trkpt><trkpt lat="45.6038467" lon="11.3509567"><ele>176.25</ele><time>2026-04-17T08:56:19.398Z</time></trkpt><trkpt lat="45.603795" lon="11.35111"><ele>176.0</ele><time>2026-04-17T08:56:20.398Z</time></trkpt><trkpt lat="45.6037383" lon="11.3512667"><ele>176.0</ele><time>2026-04-17T08:56:21.398Z</time></trkpt><trkpt lat="45.6036817" lon="11.3514183"><ele>176.0</ele><time>2026-04-17T08:56:22.398Z</time></trkpt><trkpt lat="45.6036317" lon="11.35155"><ele>176.0</ele><time>2026-04-17T08:56:23.398Z</time></trkpt><trkpt lat="45.603585" lon="11.3516867"><ele>176.0</ele><time>2026-04-17T08:56:24.399Z</time></trkpt><trkpt lat="45.603545" lon="11.3518283"><ele>176.0</ele><time>2026-04-17T08:56:25.398Z</time></trkpt><trkpt lat="45.603505" lon="11.3519583"><ele>175.8</ele><time>2026-04-17T08:56:26.398Z</time></trkpt><trkpt lat="45.6034367" lon="11.3521867"><ele>175.60000000000002</ele><time>2026-04-17T08:56:28.399Z</time></trkpt><trkpt lat="45.6033983" lon="11.3522817"><ele>175.4</ele><time>2026-04-17T08:56:29.399Z</time></trkpt><trkpt lat="45.60336" lon="11.352385"><ele>175.2</ele><time>2026-04-17T08:56:30.398Z</time></trkpt><trkpt lat="45.603315" lon="11.3524883"><ele>175.0</ele><time>2026-04-17T08:56:31.399Z</time></trkpt><trkpt lat="45.6032567" lon="11.3525717"><ele>175.0</ele><time>2026-04-17T08:56:32.399Z</time></trkpt><trkpt lat="45.60318" lon="11.3526217"><ele>175.0</ele><time>2026-04-17T08:56:33.399Z</time></trkpt><trkpt lat="45.6030867" lon="11.35264"><ele>175.0</ele><time>2026-04-17T08:56:34.398Z</time></trkpt><trkpt lat="45.602985" lon="11.35265"><ele>175.0</ele><time>2026-04-17T08:56:35.398Z</time></trkpt><trkpt lat="45.6028767" lon="11.352675"><ele>175.0</ele><time>2026-04-17T08:56:36.398Z</time></trkpt><trkpt lat="45.602775" lon="11.3527383"><ele>174.5</ele><time>2026-04-17T08:56:37.398Z</time></trkpt><trkpt lat="45.60268" lon="11.3528267"><ele>174.0</ele><time>2026-04-17T08:56:38.398Z</time></trkpt><trkpt lat="45.6025883" lon="11.3529283"><ele>173.5</ele><time>2026-04-17T08:56:39.399Z</time></trkpt><trkpt lat="45.602505" lon="11.353025"><ele>173.0</ele><time>2026-04-17T08:56:40.399Z</time></trkpt><trkpt lat="45.60242" lon="11.35314"><ele>173.0</ele><time>2026-04-17T08:56:41.399Z</time></trkpt><trkpt lat="45.6023267" lon="11.3532667"><ele>173.0</ele><time>2026-04-17T08:56:42.399Z</time></trkpt><trkpt lat="45.60224" lon="11.3533867"><ele>173.0</ele><time>2026-04-17T08:56:43.399Z</time></trkpt><trkpt lat="45.60216" lon="11.3534967"><ele>173.0</ele><time>2026-04-17T08:56:44.399Z</time></trkpt><trkpt lat="45.6020733" lon="11.353605"><ele>172.66666666666666</ele><time>2026-04-17T08:56:45.399Z</time></trkpt><trkpt lat="45.60198" lon="11.3537167"><ele>172.33333333333334</ele><time>2026-04-17T08:56:46.399Z</time></trkpt><trkpt lat="45.601885" lon="11.353825"><ele>172.0</ele><time>2026-04-17T08:56:47.399Z</time></trkpt><trkpt lat="45.601705" lon="11.3540233"><ele>172.0</ele><time>2026-04-17T08:56:49.398Z</time></trkpt><trkpt lat="45.6016167" lon="11.3541267"><ele>172.0</ele><time>2026-04-17T08:56:50.399Z</time></trkpt><trkpt lat="45.6015133" lon="11.3542417"><ele>172.0</ele><time>2026-04-17T08:56:51.399Z</time></trkpt><trkpt lat="45.6014067" lon="11.3543617"><ele>172.0</ele><time>2026-04-17T08:56:52.398Z</time></trkpt><trkpt lat="45.601315" lon="11.3544683"><ele>172.0</ele><time>2026-04-17T08:56:53.399Z</time></trkpt><trkpt lat="45.601225" lon="11.3545633"><ele>172.0</ele><time>2026-04-17T08:56:54.398Z</time></trkpt><trkpt lat="45.601145" lon="11.3546417"><ele>172.0</ele><time>2026-04-17T08:56:55.398Z</time></trkpt><trkpt lat="45.6010767" lon="11.3547067"><ele>172.0</ele><time>2026-04-17T08:56:56.399Z</time></trkpt><trkpt lat="45.6010217" lon="11.3547533"><ele>172.0</ele><time>2026-04-17T08:56:57.399Z</time></trkpt><trkpt lat="45.6009517" lon="11.3547967"><ele>172.0</ele><time>2026-04-17T08:56:59.399Z</time></trkpt><trkpt lat="45.6008683" lon="11.3547217"><ele>171.6</ele><time>2026-04-17T08:57:02.398Z</time></trkpt><trkpt lat="45.6007967" lon="11.354635"><ele>171.2</ele><time>2026-04-17T08:57:04.399Z</time></trkpt><trkpt lat="45.60073" lon="11.3545483"><ele>170.8</ele><time>2026-04-17T08:57:06.399Z</time></trkpt><trkpt lat="45.6006533" lon="11.3544383"><ele>170.4</ele><time>2026-04-17T08:57:24.399Z</time></trkpt><trkpt lat="45.6005583" lon="11.3542883"><ele>170.0</ele><time>2026-04-17T08:57:26.397Z</time></trkpt><trkpt lat="45.6004867" lon="11.3541967"><ele>170.0</ele><time>2026-04-17T08:57:28.398Z</time></trkpt><trkpt lat="45.6004417" lon="11.3541217"><ele>170.0</ele><time>2026-04-17T08:57:30.397Z</time></trkpt><trkpt lat="45.6003883" lon="11.354035"><ele>170.0</ele><time>2026-04-17T08:57:34.398Z</time></trkpt><trkpt lat="45.6003183" lon="11.3540167"><ele>170.0</ele><time>2026-04-17T08:57:37.398Z</time></trkpt><trkpt lat="45.6002233" lon="11.3540933"><ele>170.0</ele><time>2026-04-17T08:57:39.397Z</time></trkpt><trkpt lat="45.600165" lon="11.3541433"><ele>170.0</ele><time>2026-04-17T08:57:40.397Z</time></trkpt><trkpt lat="45.6000717" lon="11.3542367"><ele>169.6</ele><time>2026-04-17T08:57:42.398Z</time></trkpt><trkpt lat="45.600015" lon="11.3542933"><ele>169.2</ele><time>2026-04-17T08:57:44.398Z</time></trkpt><trkpt lat="45.5999533" lon="11.354255"><ele>168.8</ele><time>2026-04-17T08:57:48.398Z</time></trkpt><trkpt lat="45.5998317" lon="11.354005"><ele>168.4</ele><time>2026-04-17T08:57:52.397Z</time></trkpt><trkpt lat="45.5997967" lon="11.3539233"><ele>168.0</ele><time>2026-04-17T08:57:53.397Z</time></trkpt><trkpt lat="45.5997383" lon="11.3537933"><ele>168.0</ele><time>2026-04-17T08:57:55.398Z</time></trkpt><trkpt lat="45.5996717" lon="11.35372"><ele>168.0</ele><time>2026-04-17T08:57:57.398Z</time></trkpt><trkpt lat="45.5995683" lon="11.3536383"><ele>168.0</ele><time>2026-04-17T08:57:59.398Z</time></trkpt><trkpt lat="45.599475" lon="11.3535667"><ele>168.0</ele><time>2026-04-17T08:58:01.398Z</time></trkpt><trkpt lat="45.5993933" lon="11.3534933"><ele>168.0</ele><time>2026-04-17T08:58:03.397Z</time></trkpt><trkpt lat="45.59931" lon="11.3534117"><ele>169.4</ele><time>2026-04-17T08:58:05.397Z</time></trkpt><trkpt lat="45.5992217" lon="11.3533383"><ele>170.8</ele><time>2026-04-17T08:58:07.397Z</time></trkpt><trkpt lat="45.5991567" lon="11.3532717"><ele>172.2</ele><time>2026-04-17T08:58:09.398Z</time></trkpt><trkpt lat="45.5991783" lon="11.3530417"><ele>173.6</ele><time>2026-04-17T08:58:14.397Z</time></trkpt><trkpt lat="45.5992383" lon="11.3529467"><ele>175.0</ele><time>2026-04-17T08:58:15.397Z</time></trkpt><trkpt lat="45.5993133" lon="11.352835"><ele>175.25</ele><time>2026-04-17T08:58:16.398Z</time></trkpt><trkpt lat="45.599405" lon="11.352695"><ele>175.5</ele><time>2026-04-17T08:58:17.397Z</time></trkpt><trkpt lat="45.59951" lon="11.3525467"><ele>175.75</ele><time>2026-04-17T08:58:18.398Z</time></trkpt><trkpt lat="45.599625" lon="11.3523817"><ele>176.0</ele><time>2026-04-17T08:58:19.397Z</time></trkpt><trkpt lat="45.59974" lon="11.35221"><ele>174.33333333333331</ele><time>2026-04-17T08:58:20.398Z</time></trkpt><trkpt lat="45.59985" lon="11.3520167"><ele>172.66666666666666</ele><time>2026-04-17T08:58:21.398Z</time></trkpt><trkpt lat="45.599965" lon="11.351815"><ele>171.0</ele><time>2026-04-17T08:58:22.398Z</time></trkpt><trkpt lat="45.60008" lon="11.3516033"><ele>171.0</ele><time>2026-04-17T08:58:23.397Z</time></trkpt><trkpt lat="45.6002017" lon="11.3513883"><ele>171.0</ele><time>2026-04-17T08:58:24.397Z</time></trkpt><trkpt lat="45.6003217" lon="11.3511667"><ele>171.0</ele><time>2026-04-17T08:58:25.398Z</time></trkpt><trkpt lat="45.6004467" lon="11.3509433"><ele>172.0</ele><time>2026-04-17T08:58:26.397Z</time></trkpt><trkpt lat="45.60058" lon="11.3507333"><ele>173.0</ele><time>2026-04-17T08:58:27.398Z</time></trkpt><trkpt lat="45.6007167" lon="11.35054"><ele>174.0</ele><time>2026-04-17T08:58:28.397Z</time></trkpt><trkpt lat="45.6008533" lon="11.3503467"><ele>174.0</ele><time>2026-04-17T08:58:29.398Z</time></trkpt><trkpt lat="45.6009867" lon="11.35016"><ele>174.0</ele><time>2026-04-17T08:58:30.397Z</time></trkpt><trkpt lat="45.6012433" lon="11.3497867"><ele>175.0</ele><time>2026-04-17T08:58:32.397Z</time></trkpt><trkpt lat="45.6013717" lon="11.349595"><ele>176.0</ele><time>2026-04-17T08:58:33.398Z</time></trkpt><trkpt lat="45.60151" lon="11.3494033"><ele>177.0</ele><time>2026-04-17T08:58:34.398Z</time></trkpt><trkpt lat="45.601645" lon="11.3492033"><ele>177.0</ele><time>2026-04-17T08:58:35.397Z</time></trkpt><trkpt lat="45.6017833" lon="11.34901"><ele>177.0</ele><time>2026-04-17T08:58:36.397Z</time></trkpt><trkpt lat="45.6019183" lon="11.3488167"><ele>177.0</ele><time>2026-04-17T08:58:37.397Z</time></trkpt><trkpt lat="45.602045" lon="11.3486333"><ele>176.66666666666666</ele><time>2026-04-17T08:58:38.398Z</time></trkpt><trkpt lat="45.6021783" lon="11.3484617"><ele>176.33333333333331</ele><time>2026-04-17T08:58:39.398Z</time></trkpt><trkpt lat="45.6023083" lon="11.3482817"><ele>176.0</ele><time>2026-04-17T08:58:40.398Z</time></trkpt><trkpt lat="45.6024367" lon="11.3481033"><ele>177.0</ele><time>2026-04-17T08:58:41.398Z</time></trkpt><trkpt lat="45.602555" lon="11.34791"><ele>178.0</ele><time>2026-04-17T08:58:42.398Z</time></trkpt><trkpt lat="45.6026717" lon="11.3477083"><ele>179.0</ele><time>2026-04-17T08:58:43.398Z</time></trkpt><trkpt lat="45.6027717" lon="11.3474883"><ele>178.66666666666666</ele><time>2026-04-17T08:58:44.398Z</time></trkpt><trkpt lat="45.6028667" lon="11.3472517"><ele>178.33333333333334</ele><time>2026-04-17T08:58:45.398Z</time></trkpt><trkpt lat="45.6029533" lon="11.34701"><ele>178.0</ele><time>2026-04-17T08:58:46.398Z</time></trkpt><trkpt lat="45.6030417" lon="11.34677"><ele>178.0</ele><time>2026-04-17T08:58:47.398Z</time></trkpt><trkpt lat="45.6031317" lon="11.3465483"><ele>178.0</ele><time>2026-04-17T08:58:48.398Z</time></trkpt><trkpt lat="45.6032283" lon="11.3463217"><ele>178.0</ele><time>2026-04-17T08:58:49.397Z</time></trkpt><trkpt lat="45.603335" lon="11.3460983"><ele>179.0</ele><time>2026-04-17T08:58:50.397Z</time></trkpt><trkpt lat="45.60344" lon="11.34588"><ele>180.0</ele><time>2026-04-17T08:58:51.398Z</time></trkpt><trkpt lat="45.6036533" lon="11.3454117"><ele>181.0</ele><time>2026-04-17T08:58:53.398Z</time></trkpt><trkpt lat="45.6037683" lon="11.3451983"><ele>182.0</ele><time>2026-04-17T08:58:54.398Z</time></trkpt><trkpt lat="45.6038833" lon="11.3449767"><ele>183.0</ele><time>2026-04-17T08:58:55.398Z</time></trkpt><trkpt lat="45.6040033" lon="11.3447367"><ele>182.66666666666666</ele><time>2026-04-17T08:58:56.397Z</time></trkpt><trkpt lat="45.6041333" lon="11.3444917"><ele>182.33333333333331</ele><time>2026-04-17T08:58:57.398Z</time></trkpt><trkpt lat="45.604265" lon="11.3442517"><ele>182.0</ele><time>2026-04-17T08:58:58.397Z</time></trkpt><trkpt lat="45.6043933" lon="11.3440233"><ele>182.33333333333331</ele><time>2026-04-17T08:58:59.398Z</time></trkpt><trkpt lat="45.604525" lon="11.343805"><ele>182.66666666666666</ele><time>2026-04-17T08:59:00.398Z</time></trkpt><trkpt lat="45.6046533" lon="11.343595"><ele>183.0</ele><time>2026-04-17T08:59:01.398Z</time></trkpt><trkpt lat="45.6047767" lon="11.3434017"><ele>183.0</ele><time>2026-04-17T08:59:02.398Z</time></trkpt><trkpt lat="45.6049017" lon="11.3432167"><ele>183.0</ele><time>2026-04-17T08:59:03.398Z</time></trkpt><trkpt lat="45.6050383" lon="11.3430417"><ele>183.0</ele><time>2026-04-17T08:59:04.398Z</time></trkpt><trkpt lat="45.605195" lon="11.34287"><ele>183.33333333333334</ele><time>2026-04-17T08:59:05.398Z</time></trkpt><trkpt lat="45.6053633" lon="11.3427117"><ele>183.66666666666669</ele><time>2026-04-17T08:59:06.398Z</time></trkpt><trkpt lat="45.60555" lon="11.3425733"><ele>184.0</ele><time>2026-04-17T08:59:07.398Z</time></trkpt><trkpt lat="45.60574" lon="11.3424317"><ele>184.0</ele><time>2026-04-17T08:59:08.397Z</time></trkpt><trkpt lat="45.6059217" lon="11.3423083"><ele>184.0</ele><time>2026-04-17T08:59:09.398Z</time></trkpt><trkpt lat="45.606085" lon="11.3422017"><ele>184.0</ele><time>2026-04-17T08:59:10.398Z</time></trkpt><trkpt lat="45.6062283" lon="11.3421067"><ele>184.66666666666669</ele><time>2026-04-17T08:59:11.398Z</time></trkpt><trkpt lat="45.60636" lon="11.3420083"><ele>185.33333333333334</ele><time>2026-04-17T08:59:12.397Z</time></trkpt><trkpt lat="45.6065967" lon="11.3417767"><ele>186.0</ele><time>2026-04-17T08:59:14.398Z</time></trkpt><trkpt lat="45.6067167" lon="11.3416317"><ele>186.0</ele><time>2026-04-17T08:59:15.397Z</time></trkpt><trkpt lat="45.6068417" lon="11.3414783"><ele>186.0</ele><time>2026-04-17T08:59:16.398Z</time></trkpt><trkpt lat="45.6069717" lon="11.3413233"><ele>186.0</ele><time>2026-04-17T08:59:17.397Z</time></trkpt><trkpt lat="45.60711" lon="11.3411967"><ele>185.66666666666666</ele><time>2026-04-17T08:59:18.397Z</time></trkpt><trkpt lat="45.607255" lon="11.3410933"><ele>185.33333333333331</ele><time>2026-04-17T08:59:19.398Z</time></trkpt><trkpt lat="45.6073967" lon="11.341"><ele>185.0</ele><time>2026-04-17T08:59:20.397Z</time></trkpt><trkpt lat="45.6075417" lon="11.3409167"><ele>185.0</ele><time>2026-04-17T08:59:21.397Z</time></trkpt><trkpt lat="45.6076783" lon="11.34085"><ele>185.0</ele><time>2026-04-17T08:59:22.398Z</time></trkpt><trkpt lat="45.6078117" lon="11.3407983"><ele>185.0</ele><time>2026-04-17T08:59:23.398Z</time></trkpt><trkpt lat="45.6079367" lon="11.340765"><ele>185.0</ele><time>2026-04-17T08:59:24.397Z</time></trkpt><trkpt lat="45.60807" lon="11.3407117"><ele>185.0</ele><time>2026-04-17T08:59:25.398Z</time></trkpt><trkpt lat="45.6081883" lon="11.3406583"><ele>185.0</ele><time>2026-04-17T08:59:26.398Z</time></trkpt><trkpt lat="45.6082917" lon="11.3405967"><ele>185.0</ele><time>2026-04-17T08:59:27.397Z</time></trkpt><trkpt lat="45.6083967" lon="11.3405017"><ele>185.0</ele><time>2026-04-17T08:59:28.397Z</time></trkpt><trkpt lat="45.6084883" lon="11.34038"><ele>185.75</ele><time>2026-04-17T08:59:29.398Z</time></trkpt><trkpt lat="45.6085783" lon="11.3402483"><ele>186.5</ele><time>2026-04-17T08:59:30.398Z</time></trkpt><trkpt lat="45.6086633" lon="11.3401083"><ele>187.25</ele><time>2026-04-17T08:59:31.398Z</time></trkpt><trkpt lat="45.6087533" lon="11.3399533"><ele>188.0</ele><time>2026-04-17T08:59:32.397Z</time></trkpt><trkpt lat="45.608845" lon="11.3397917"><ele>188.0</ele><time>2026-04-17T08:59:33.397Z</time></trkpt><trkpt lat="45.6090067" lon="11.3394383"><ele>188.0</ele><time>2026-04-17T08:59:35.397Z</time></trkpt><trkpt lat="45.6090867" lon="11.3392533"><ele>188.0</ele><time>2026-04-17T08:59:36.398Z</time></trkpt><trkpt lat="45.609165" lon="11.339055"><ele>188.0</ele><time>2026-04-17T08:59:37.398Z</time></trkpt><trkpt lat="45.60924" lon="11.3388683"><ele>188.0</ele><time>2026-04-17T08:59:38.397Z</time></trkpt><trkpt lat="45.609315" lon="11.3386883"><ele>188.0</ele><time>2026-04-17T08:59:39.398Z</time></trkpt><trkpt lat="45.6093933" lon="11.3385067"><ele>188.0</ele><time>2026-04-17T08:59:40.398Z</time></trkpt><trkpt lat="45.609465" lon="11.3383083"><ele>188.0</ele><time>2026-04-17T08:59:41.398Z</time></trkpt><trkpt lat="45.60954" lon="11.33813"><ele>188.0</ele><time>2026-04-17T08:59:42.398Z</time></trkpt><trkpt lat="45.6096083" lon="11.3379467"><ele>188.0</ele><time>2026-04-17T08:59:43.398Z</time></trkpt><trkpt lat="45.6096833" lon="11.3377667"><ele>188.0</ele><time>2026-04-17T08:59:44.398Z</time></trkpt><trkpt lat="45.609755" lon="11.3375883"><ele>187.5</ele><time>2026-04-17T08:59:45.398Z</time></trkpt><trkpt lat="45.60983" lon="11.3374317"><ele>187.0</ele><time>2026-04-17T08:59:46.398Z</time></trkpt><trkpt lat="45.6098983" lon="11.3372683"><ele>186.5</ele><time>2026-04-17T08:59:47.398Z</time></trkpt><trkpt lat="45.6099633" lon="11.3370867"><ele>186.0</ele><time>2026-04-17T08:59:48.397Z</time></trkpt><trkpt lat="45.6100367" lon="11.3369067"><ele>185.75</ele><time>2026-04-17T08:59:49.398Z</time></trkpt><trkpt lat="45.6101117" lon="11.3367217"><ele>185.5</ele><time>2026-04-17T08:59:50.398Z</time></trkpt><trkpt lat="45.6101867" lon="11.336525"><ele>185.25</ele><time>2026-04-17T08:59:51.398Z</time></trkpt><trkpt lat="45.61026" lon="11.3363533"><ele>185.0</ele><time>2026-04-17T08:59:52.398Z</time></trkpt><trkpt lat="45.610335" lon="11.3361883"><ele>186.0</ele><time>2026-04-17T08:59:53.398Z</time></trkpt><trkpt lat="45.61041" lon="11.336025"><ele>187.0</ele><time>2026-04-17T08:59:54.398Z</time></trkpt><trkpt lat="45.6105517" lon="11.3356783"><ele>188.0</ele><time>2026-04-17T08:59:56.398Z</time></trkpt><trkpt lat="45.6106217" lon="11.335495"><ele>188.66666666666666</ele><time>2026-04-17T08:59:57.398Z</time></trkpt><trkpt lat="45.6107" lon="11.335305"><ele>189.33333333333334</ele><time>2026-04-17T08:59:58.397Z</time></trkpt><trkpt lat="45.610785" lon="11.3351133"><ele>190.0</ele><time>2026-04-17T08:59:59.397Z</time></trkpt><trkpt lat="45.6108733" lon="11.3349267"><ele>190.0</ele><time>2026-04-17T09:00:00.398Z</time></trkpt><trkpt lat="45.6109567" lon="11.3347383"><ele>190.0</ele><time>2026-04-17T09:00:01.398Z</time></trkpt><trkpt lat="45.61104" lon="11.3345483"><ele>190.0</ele><time>2026-04-17T09:00:02.398Z</time></trkpt><trkpt lat="45.61112" lon="11.3343633"><ele>190.25</ele><time>2026-04-17T09:00:03.398Z</time></trkpt><trkpt lat="45.6111967" lon="11.3341817"><ele>190.5</ele><time>2026-04-17T09:00:04.398Z</time></trkpt><trkpt lat="45.6112783" lon="11.334"><ele>190.75</ele><time>2026-04-17T09:00:05.398Z</time></trkpt><trkpt lat="45.6113583" lon="11.3338217"><ele>191.0</ele><time>2026-04-17T09:00:06.397Z</time></trkpt><trkpt lat="45.6114433" lon="11.333635"><ele>191.0</ele><time>2026-04-17T09:00:07.397Z</time></trkpt><trkpt lat="45.6115317" lon="11.3334433"><ele>191.0</ele><time>2026-04-17T09:00:08.398Z</time></trkpt><trkpt lat="45.61161" lon="11.3332533"><ele>191.0</ele><time>2026-04-17T09:00:09.398Z</time></trkpt><trkpt lat="45.611695" lon="11.333065"><ele>191.66666666666666</ele><time>2026-04-17T09:00:10.398Z</time></trkpt><trkpt lat="45.611775" lon="11.33288"><ele>192.33333333333331</ele><time>2026-04-17T09:00:11.397Z</time></trkpt><trkpt lat="45.6118617" lon="11.3326833"><ele>193.0</ele><time>2026-04-17T09:00:12.398Z</time></trkpt><trkpt lat="45.61194" lon="11.3324967"><ele>193.0</ele><time>2026-04-17T09:00:13.396Z</time></trkpt><trkpt lat="45.6120233" lon="11.3323033"><ele>193.0</ele><time>2026-04-17T09:00:14.396Z</time></trkpt><trkpt lat="45.6120967" lon="11.3321017"><ele>193.0</ele><time>2026-04-17T09:00:15.396Z</time></trkpt><trkpt lat="45.6122433" lon="11.3317"><ele>193.33333333333331</ele><time>2026-04-17T09:00:17.397Z</time></trkpt><trkpt lat="45.6123183" lon="11.3315033"><ele>193.66666666666669</ele><time>2026-04-17T09:00:18.397Z</time></trkpt><trkpt lat="45.61239" lon="11.3312967"><ele>194.0</ele><time>2026-04-17T09:00:19.396Z</time></trkpt><trkpt lat="45.61246" lon="11.33108"><ele>194.33333333333334</ele><time>2026-04-17T09:00:20.397Z</time></trkpt><trkpt lat="45.6125367" lon="11.3308683"><ele>194.66666666666669</ele><time>2026-04-17T09:00:21.396Z</time></trkpt><trkpt lat="45.61261" lon="11.3306617"><ele>195.0</ele><time>2026-04-17T09:00:22.397Z</time></trkpt><trkpt lat="45.61268" lon="11.3304667"><ele>195.33333333333331</ele><time>2026-04-17T09:00:23.396Z</time></trkpt><trkpt lat="45.6127517" lon="11.3302683"><ele>195.66666666666666</ele><time>2026-04-17T09:00:24.397Z</time></trkpt><trkpt lat="45.61283" lon="11.3300783"><ele>196.0</ele><time>2026-04-17T09:00:25.397Z</time></trkpt><trkpt lat="45.6129" lon="11.3298967"><ele>196.0</ele><time>2026-04-17T09:00:26.397Z</time></trkpt><trkpt lat="45.6129583" lon="11.329735"><ele>196.0</ele><time>2026-04-17T09:00:27.397Z</time></trkpt><trkpt lat="45.6129967" lon="11.329575"><ele>196.0</ele><time>2026-04-17T09:00:28.397Z</time></trkpt><trkpt lat="45.613025" lon="11.329435"><ele>196.0</ele><time>2026-04-17T09:00:29.397Z</time></trkpt><trkpt lat="45.6130383" lon="11.32931"><ele>196.0</ele><time>2026-04-17T09:00:30.397Z</time></trkpt><trkpt lat="45.6130617" lon="11.329215"><ele>196.60000000000002</ele><time>2026-04-17T09:00:31.396Z</time></trkpt><trkpt lat="45.6131467" lon="11.3290683"><ele>197.2</ele><time>2026-04-17T09:00:33.397Z</time></trkpt><trkpt lat="45.6132233" lon="11.32901"><ele>197.8</ele><time>2026-04-17T09:00:34.397Z</time></trkpt><trkpt lat="45.613295" lon="11.3289317"><ele>198.39999999999998</ele><time>2026-04-17T09:00:35.396Z</time></trkpt><trkpt lat="45.6133383" lon="11.32884"><ele>199.0</ele><time>2026-04-17T09:00:36.396Z</time></trkpt><trkpt lat="45.613315" lon="11.328645"><ele>199.16666666666666</ele><time>2026-04-17T09:00:38.396Z</time></trkpt><trkpt lat="45.6132517" lon="11.3285733"><ele>199.33333333333331</ele><time>2026-04-17T09:00:39.397Z</time></trkpt><trkpt lat="45.6131717" lon="11.3285417"><ele>199.5</ele><time>2026-04-17T09:00:40.397Z</time></trkpt><trkpt lat="45.61308" lon="11.3285533"><ele>199.66666666666669</ele><time>2026-04-17T09:00:41.397Z</time></trkpt><trkpt lat="45.6129983" lon="11.328605"><ele>199.83333333333334</ele><time>2026-04-17T09:00:42.396Z</time></trkpt><trkpt lat="45.6129283" lon="11.3286933"><ele>200.0</ele><time>2026-04-17T09:00:43.397Z</time></trkpt><trkpt lat="45.6128617" lon="11.3287633"><ele>201.00000000000003</ele><time>2026-04-17T09:00:44.397Z</time></trkpt><trkpt lat="45.612805" lon="11.3288217"><ele>202.0</ele><time>2026-04-17T09:00:45.396Z</time></trkpt><trkpt lat="45.6126933" lon="11.32884"><ele>203.0</ele><time>2026-04-17T09:00:47.396Z</time></trkpt><trkpt lat="45.612635" lon="11.32879"><ele>204.0</ele><time>2026-04-17T09:00:48.397Z</time></trkpt><trkpt lat="45.6125833" lon="11.3286983"><ele>205.00000000000003</ele><time>2026-04-17T09:00:49.397Z</time></trkpt><trkpt lat="45.6125283" lon="11.3285833"><ele>206.0</ele><time>2026-04-17T09:00:50.397Z</time></trkpt><trkpt lat="45.6124767" lon="11.32848"><ele>206.00000000000003</ele><time>2026-04-17T09:00:51.397Z</time></trkpt><trkpt lat="45.6124233" lon="11.328385"><ele>206.0</ele><time>2026-04-17T09:00:52.397Z</time></trkpt><trkpt lat="45.6123733" lon="11.3282933"><ele>206.0</ele><time>2026-04-17T09:00:53.397Z</time></trkpt><trkpt lat="45.6123233" lon="11.3282067"><ele>206.0</ele><time>2026-04-17T09:00:54.397Z</time></trkpt><trkpt lat="45.6122733" lon="11.3281217"><ele>206.00000000000003</ele><time>2026-04-17T09:00:55.396Z</time></trkpt><trkpt lat="45.6122217" lon="11.328045"><ele>206.0</ele><time>2026-04-17T09:00:56.397Z</time></trkpt><trkpt lat="45.61218" lon="11.3279617"><ele>207.4</ele><time>2026-04-17T09:00:57.397Z</time></trkpt><trkpt lat="45.61212" lon="11.3277533"><ele>208.8</ele><time>2026-04-17T09:00:59.397Z</time></trkpt><trkpt lat="45.6120967" lon="11.32764"><ele>210.20000000000002</ele><time>2026-04-17T09:01:00.397Z</time></trkpt><trkpt lat="45.6120783" lon="11.327535"><ele>211.60000000000002</ele><time>2026-04-17T09:01:01.397Z</time></trkpt><trkpt lat="45.6120667" lon="11.3274267"><ele>213.0</ele><time>2026-04-17T09:01:02.397Z</time></trkpt><trkpt lat="45.61204" lon="11.3273183"><ele>214.66666666666666</ele><time>2026-04-17T09:01:03.396Z</time></trkpt><trkpt lat="45.612015" lon="11.3272133"><ele>216.33333333333331</ele><time>2026-04-17T09:01:04.397Z</time></trkpt><trkpt lat="45.6119967" lon="11.32712"><ele>218.0</ele><time>2026-04-17T09:01:05.397Z</time></trkpt><trkpt lat="45.6119567" lon="11.326975"><ele>219.66666666666666</ele><time>2026-04-17T09:01:07.397Z</time></trkpt><trkpt lat="45.6119433" lon="11.326865"><ele>221.33333333333331</ele><time>2026-04-17T09:01:09.397Z</time></trkpt><trkpt lat="45.612015" lon="11.3267783"><ele>223.0</ele><time>2026-04-17T09:01:11.397Z</time></trkpt><trkpt lat="45.6121" lon="11.3266617"><ele>222.99999999999997</ele><time>2026-04-17T09:01:13.397Z</time></trkpt><trkpt lat="45.61214" lon="11.3265783"><ele>223.0</ele><time>2026-04-17T09:01:14.397Z</time></trkpt><trkpt lat="45.61219" lon="11.3264933"><ele>223.0</ele><time>2026-04-17T09:01:15.397Z</time></trkpt><trkpt lat="45.61223" lon="11.3263867"><ele>223.0</ele><time>2026-04-17T09:01:16.396Z</time></trkpt><trkpt lat="45.6122833" lon="11.326275"><ele>222.99999999999997</ele><time>2026-04-17T09:01:17.397Z</time></trkpt><trkpt lat="45.6123417" lon="11.3261667"><ele>223.0</ele><time>2026-04-17T09:01:18.397Z</time></trkpt><trkpt lat="45.6124533" lon="11.325965"><ele>226.16666666666666</ele><time>2026-04-17T09:01:20.396Z</time></trkpt><trkpt lat="45.612495" lon="11.3258683"><ele>229.33333333333331</ele><time>2026-04-17T09:01:21.397Z</time></trkpt><trkpt lat="45.612525" lon="11.32577"><ele>232.5</ele><time>2026-04-17T09:01:22.397Z</time></trkpt><trkpt lat="45.6125417" lon="11.3256733"><ele>235.66666666666669</ele><time>2026-04-17T09:01:23.396Z</time></trkpt><trkpt lat="45.61263" lon="11.3255267"><ele>238.83333333333334</ele><time>2026-04-17T09:01:25.397Z</time></trkpt><trkpt lat="45.6126883" lon="11.325465"><ele>242.0</ele><time>2026-04-17T09:01:26.397Z</time></trkpt><trkpt lat="45.612745" lon="11.3254117"><ele>245.0</ele><time>2026-04-17T09:01:27.397Z</time></trkpt><trkpt lat="45.6127967" lon="11.32535"><ele>248.0</ele><time>2026-04-17T09:01:28.397Z</time></trkpt><trkpt lat="45.6128683" lon="11.32523"><ele>251.0</ele><time>2026-04-17T09:01:30.397Z</time></trkpt><trkpt lat="45.61287" lon="11.3251"><ele>254.0</ele><time>2026-04-17T09:01:32.397Z</time></trkpt><trkpt lat="45.6128067" lon="11.3249783"><ele>257.0</ele><time>2026-04-17T09:01:34.397Z</time></trkpt><trkpt lat="45.6127167" lon="11.3248917"><ele>258.2</ele><time>2026-04-17T09:01:36.397Z</time></trkpt><trkpt lat="45.6125983" lon="11.3248317"><ele>259.4</ele><time>2026-04-17T09:01:38.396Z</time></trkpt><trkpt lat="45.6125317" lon="11.3248167"><ele>260.6</ele><time>2026-04-17T09:01:39.396Z</time></trkpt><trkpt lat="45.6123933" lon="11.3247917"><ele>261.8</ele><time>2026-04-17T09:01:41.397Z</time></trkpt><trkpt lat="45.6123267" lon="11.324765"><ele>263.0</ele><time>2026-04-17T09:01:42.397Z</time></trkpt><trkpt lat="45.6122567" lon="11.324735"><ele>267.1666666666667</ele><time>2026-04-17T09:01:43.396Z</time></trkpt><trkpt lat="45.612195" lon="11.324705"><ele>271.33333333333337</ele><time>2026-04-17T09:01:44.396Z</time></trkpt><trkpt lat="45.61213" lon="11.3246833"><ele>275.5</ele><time>2026-04-17T09:01:45.397Z</time></trkpt><trkpt lat="45.6120683" lon="11.3246583"><ele>279.6666666666667</ele><time>2026-04-17T09:01:46.396Z</time></trkpt><trkpt lat="45.6119567" lon="11.3246233"><ele>283.8333333333333</ele><time>2026-04-17T09:01:48.396Z</time></trkpt><trkpt lat="45.6118583" lon="11.3245283"><ele>288.0</ele><time>2026-04-17T09:01:50.397Z</time></trkpt><trkpt lat="45.6118033" lon="11.3244583"><ele>288.0</ele><time>2026-04-17T09:01:51.397Z</time></trkpt><trkpt lat="45.611715" lon="11.3243717"><ele>288.0</ele><time>2026-04-17T09:01:53.397Z</time></trkpt><trkpt lat="45.6116233" lon="11.3243817"><ele>288.0</ele><time>2026-04-17T09:01:55.397Z</time></trkpt><trkpt lat="45.6115217" lon="11.324415"><ele>288.0</ele><time>2026-04-17T09:01:57.396Z</time></trkpt><trkpt lat="45.6114283" lon="11.3243833"><ele>288.0</ele><time>2026-04-17T09:01:59.396Z</time></trkpt><trkpt lat="45.6113717" lon="11.3243183"><ele>288.0</ele><time>2026-04-17T09:02:01.396Z</time></trkpt><trkpt lat="45.6115683" lon="11.324445"><ele>288.0</ele><time>2026-04-17T09:02:53.397Z</time></trkpt><trkpt lat="45.6116533" lon="11.3244233"><ele>288.0</ele><time>2026-04-17T09:02:55.397Z</time></trkpt><trkpt lat="45.6117367" lon="11.3243683"><ele>288.0</ele><time>2026-04-17T09:02:57.397Z</time></trkpt><trkpt lat="45.6118167" lon="11.3243233"><ele>288.0</ele><time>2026-04-17T09:02:59.396Z</time></trkpt><trkpt lat="45.61185" lon="11.324215"><ele>288.0</ele><time>2026-04-17T09:03:02.396Z</time></trkpt><trkpt lat="45.6117817" lon="11.3242383"><ele>288.0</ele><time>2026-04-17T09:03:05.395Z</time></trkpt><trkpt lat="45.61173" lon="11.3243317"><ele>288.0</ele><time>2026-04-17T09:03:07.396Z</time></trkpt><trkpt lat="45.6116583" lon="11.3243867"><ele>288.0</ele><time>2026-04-17T09:03:09.396Z</time></trkpt><trkpt lat="45.6115183" lon="11.3244133"><ele>288.0</ele><time>2026-04-17T09:03:13.396Z</time></trkpt><trkpt lat="45.6114283" lon="11.32438"><ele>288.0</ele><time>2026-04-17T09:03:16.396Z</time></trkpt><trkpt lat="45.61138" lon="11.3243167"><ele>288.0</ele><time>2026-04-17T09:03:18.396Z</time></trkpt><trkpt lat="45.6113567" lon="11.32421"><ele>288.0</ele><time>2026-04-17T09:03:21.396Z</time></trkpt><trkpt lat="45.6113517" lon="11.324095"><ele>288.0</ele><time>2026-04-17T09:03:24.396Z</time></trkpt><trkpt lat="45.6113417" lon="11.323985"><ele>288.0</ele><time>2026-04-17T09:03:27.396Z</time></trkpt><trkpt lat="45.61138" lon="11.3239067"><ele>294.2</ele><time>2026-04-17T09:03:30.395Z</time></trkpt><trkpt lat="45.611495" lon="11.32375"><ele>300.4</ele><time>2026-04-17T09:03:35.395Z</time></trkpt><trkpt lat="45.611555" lon="11.3236483"><ele>306.59999999999997</ele><time>2026-04-17T09:03:37.396Z</time></trkpt><trkpt lat="45.611605" lon="11.3235483"><ele>312.8</ele><time>2026-04-17T09:03:39.396Z</time></trkpt><trkpt lat="45.6116567" lon="11.323455"><ele>319.0</ele><time>2026-04-17T09:03:41.395Z</time></trkpt><trkpt lat="45.6117033" lon="11.32336"><ele>319.0</ele><time>2026-04-17T09:03:43.396Z</time></trkpt><trkpt lat="45.61177" lon="11.3232617"><ele>319.0</ele><time>2026-04-17T09:03:45.396Z</time></trkpt><trkpt lat="45.6118483" lon="11.323185"><ele>319.0</ele><time>2026-04-17T09:03:47.395Z</time></trkpt><trkpt lat="45.6119117" lon="11.323135"><ele>319.0</ele><time>2026-04-17T09:03:49.396Z</time></trkpt><trkpt lat="45.611985" lon="11.323135"><ele>319.0</ele><time>2026-04-17T09:04:31.396Z</time></trkpt><trkpt lat="45.6121833" lon="11.3230717"><ele>321.79999999999995</ele><time>2026-04-17T09:04:35.396Z</time></trkpt><trkpt lat="45.6122683" lon="11.3230433"><ele>324.59999999999997</ele><time>2026-04-17T09:04:37.396Z</time></trkpt><trkpt lat="45.612355" lon="11.3230167"><ele>327.4</ele><time>2026-04-17T09:04:39.396Z</time></trkpt><trkpt lat="45.6124367" lon="11.32295"><ele>330.2</ele><time>2026-04-17T09:04:41.395Z</time></trkpt><trkpt lat="45.6125133" lon="11.3228383"><ele>333.0</ele><time>2026-04-17T09:04:43.395Z</time></trkpt><trkpt lat="45.61258" lon="11.3227167"><ele>333.0</ele><time>2026-04-17T09:04:45.396Z</time></trkpt><trkpt lat="45.6126267" lon="11.32261"><ele>333.0</ele><time>2026-04-17T09:04:47.396Z</time></trkpt><trkpt lat="45.6126567" lon="11.3225017"><ele>333.0</ele><time>2026-04-17T09:04:49.396Z</time></trkpt><trkpt lat="45.6126817" lon="11.32241"><ele>333.0</ele><time>2026-04-17T09:04:51.395Z</time></trkpt><trkpt lat="45.612705" lon="11.3223233"><ele>333.0</ele><time>2026-04-17T09:04:54.396Z</time></trkpt><trkpt lat="45.6125683" lon="11.3222967"><ele>333.0</ele><time>2026-04-17T09:05:00.396Z</time></trkpt><trkpt lat="45.61248" lon="11.3222733"><ele>333.0</ele><time>2026-04-17T09:05:03.396Z</time></trkpt><trkpt lat="45.6123883" lon="11.3223233"><ele>333.0</ele><time>2026-04-17T09:05:23.396Z</time></trkpt><trkpt lat="45.6122867" lon="11.3221667"><ele>333.0</ele><time>2026-04-17T09:05:27.396Z</time></trkpt><trkpt lat="45.61227" lon="11.3220617"><ele>333.0</ele><time>2026-04-17T09:05:29.396Z</time></trkpt><trkpt lat="45.6122367" lon="11.321955"><ele>333.0</ele><time>2026-04-17T09:05:31.396Z</time></trkpt><trkpt lat="45.61217" lon="11.3218483"><ele>332.2</ele><time>2026-04-17T09:05:33.396Z</time></trkpt><trkpt lat="45.6120933" lon="11.3217383"><ele>331.4</ele><time>2026-04-17T09:05:35.396Z</time></trkpt><trkpt lat="45.6120383" lon="11.3216417"><ele>330.59999999999997</ele><time>2026-04-17T09:05:37.395Z</time></trkpt><trkpt lat="45.6119817" lon="11.32154"><ele>329.79999999999995</ele><time>2026-04-17T09:05:39.394Z</time></trkpt><trkpt lat="45.6119067" lon="11.3214383"><ele>329.0</ele><time>2026-04-17T09:05:41.395Z</time></trkpt><trkpt lat="45.6118417" lon="11.3213483"><ele>333.75</ele><time>2026-04-17T09:05:43.395Z</time></trkpt><trkpt lat="45.6117717" lon="11.32127"><ele>338.5</ele><time>2026-04-17T09:05:45.394Z</time></trkpt><trkpt lat="45.6115883" lon="11.3211233"><ele>343.25</ele><time>2026-04-17T09:05:49.395Z</time></trkpt><trkpt lat="45.61155" lon="11.3210433"><ele>348.0</ele><time>2026-04-17T09:05:51.395Z</time></trkpt><trkpt lat="45.6116017" lon="11.32092"><ele>348.0</ele><time>2026-04-17T09:05:54.394Z</time></trkpt><trkpt lat="45.6116533" lon="11.3208083"><ele>348.0</ele><time>2026-04-17T09:05:56.394Z</time></trkpt><trkpt lat="45.61172" lon="11.32068"><ele>348.0</ele><time>2026-04-17T09:05:58.395Z</time></trkpt><trkpt lat="45.611745" lon="11.3205883"><ele>348.0</ele><time>2026-04-17T09:05:59.395Z</time></trkpt><trkpt lat="45.6117767" lon="11.320495"><ele>348.0</ele><time>2026-04-17T09:06:00.395Z</time></trkpt><trkpt lat="45.6118" lon="11.32041"><ele>348.0</ele><time>2026-04-17T09:06:01.394Z</time></trkpt><trkpt lat="45.611825" lon="11.320325"><ele>349.25</ele><time>2026-04-17T09:06:02.394Z</time></trkpt><trkpt lat="45.6118867" lon="11.3201683"><ele>350.5</ele><time>2026-04-17T09:06:04.395Z</time></trkpt><trkpt lat="45.611935" lon="11.3200917"><ele>351.75</ele><time>2026-04-17T09:06:05.394Z</time></trkpt><trkpt lat="45.6119867" lon="11.320015"><ele>353.0</ele><time>2026-04-17T09:06:06.394Z</time></trkpt><trkpt lat="45.6120683" lon="11.31975"><ele>352.4</ele><time>2026-04-17T09:06:20.394Z</time></trkpt><trkpt lat="45.6120733" lon="11.319625"><ele>351.79999999999995</ele><time>2026-04-17T09:06:22.395Z</time></trkpt><trkpt lat="45.61206" lon="11.31949"><ele>351.2</ele><time>2026-04-17T09:06:24.395Z</time></trkpt><trkpt lat="45.6120317" lon="11.3193717"><ele>350.6</ele><time>2026-04-17T09:06:26.394Z</time></trkpt><trkpt lat="45.6119717" lon="11.3192683"><ele>350.0</ele><time>2026-04-17T09:06:28.395Z</time></trkpt><trkpt lat="45.611775" lon="11.3190767"><ele>350.0</ele><time>2026-04-17T09:06:32.394Z</time></trkpt><trkpt lat="45.6117183" lon="11.3190333"><ele>350.0</ele><time>2026-04-17T09:06:33.395Z</time></trkpt><trkpt lat="45.61165" lon="11.318985"><ele>350.0</ele><time>2026-04-17T09:06:34.395Z</time></trkpt><trkpt lat="45.611575" lon="11.3189417"><ele>350.0</ele><time>2026-04-17T09:06:35.394Z</time></trkpt><trkpt lat="45.6114983" lon="11.31891"><ele>350.0</ele><time>2026-04-17T09:06:36.395Z</time></trkpt><trkpt lat="45.6114167" lon="11.3188717"><ele>350.0</ele><time>2026-04-17T09:06:37.395Z</time></trkpt><trkpt lat="45.6113383" lon="11.31884"><ele>348.6</ele><time>2026-04-17T09:06:38.394Z</time></trkpt><trkpt lat="45.6112717" lon="11.3188117"><ele>347.2</ele><time>2026-04-17T09:06:39.395Z</time></trkpt><trkpt lat="45.6111533" lon="11.3187617"><ele>345.79999999999995</ele><time>2026-04-17T09:06:41.395Z</time></trkpt><trkpt lat="45.6110433" lon="11.3187267"><ele>344.4</ele><time>2026-04-17T09:06:43.394Z</time></trkpt><trkpt lat="45.610945" lon="11.3187117"><ele>343.0</ele><time>2026-04-17T09:06:45.395Z</time></trkpt><trkpt lat="45.6108267" lon="11.3186883"><ele>347.75</ele><time>2026-04-17T09:06:47.394Z</time></trkpt><trkpt lat="45.610725" lon="11.318695"><ele>352.5</ele><time>2026-04-17T09:06:49.395Z</time></trkpt><trkpt lat="45.6105183" lon="11.3186417"><ele>357.25</ele><time>2026-04-17T09:06:53.395Z</time></trkpt><trkpt lat="45.6104483" lon="11.3185883"><ele>362.0</ele><time>2026-04-17T09:06:55.395Z</time></trkpt><trkpt lat="45.6103633" lon="11.3185233"><ele>365.0</ele><time>2026-04-17T09:07:25.395Z</time></trkpt><trkpt lat="45.6102217" lon="11.31849"><ele>368.0</ele><time>2026-04-17T09:07:27.395Z</time></trkpt><trkpt lat="45.61012" lon="11.31858"><ele>371.0</ele><time>2026-04-17T09:07:29.395Z</time></trkpt><trkpt lat="45.610055" lon="11.31867"><ele>374.0</ele><time>2026-04-17T09:07:31.395Z</time></trkpt><trkpt lat="45.6100083" lon="11.3187717"><ele>377.0</ele><time>2026-04-17T09:07:33.395Z</time></trkpt><trkpt lat="45.6099783" lon="11.3188717"><ele>377.6666666666667</ele><time>2026-04-17T09:07:35.395Z</time></trkpt><trkpt lat="45.6099467" lon="11.31897"><ele>378.33333333333337</ele><time>2026-04-17T09:07:37.395Z</time></trkpt><trkpt lat="45.6099067" lon="11.3190817"><ele>379.0</ele><time>2026-04-17T09:07:39.395Z</time></trkpt><trkpt lat="45.60986" lon="11.3191767"><ele>379.6666666666667</ele><time>2026-04-17T09:07:41.394Z</time></trkpt><trkpt lat="45.6097733" lon="11.31922"><ele>380.3333333333333</ele><time>2026-04-17T09:07:44.394Z</time></trkpt><trkpt lat="45.609705" lon="11.3192333"><ele>381.0</ele><time>2026-04-17T09:07:46.395Z</time></trkpt><trkpt lat="45.6095817" lon="11.3193283"><ele>387.75</ele><time>2026-04-17T09:09:54.394Z</time></trkpt><trkpt lat="45.609465" lon="11.3193883"><ele>394.5</ele><time>2026-04-17T09:18:08.391Z</time></trkpt><trkpt lat="45.6093733" lon="11.3193667"><ele>401.25</ele><time>2026-04-17T09:18:10.391Z</time></trkpt><trkpt lat="45.6092067" lon="11.31926"><ele>408.0</ele><time>2026-04-17T09:18:14.39Z</time></trkpt><trkpt lat="45.6091467" lon="11.3191667"><ele>408.0</ele><time>2026-04-17T09:18:16.39Z</time></trkpt><trkpt lat="45.6090733" lon="11.31899"><ele>408.0</ele><time>2026-04-17T09:18:19.39Z</time></trkpt><trkpt lat="45.6090117" lon="11.3188467"><ele>408.0</ele><time>2026-04-17T09:18:21.39Z</time></trkpt><trkpt lat="45.60895" lon="11.31874"><ele>408.0</ele><time>2026-04-17T09:18:23.389Z</time></trkpt><trkpt lat="45.6089133" lon="11.318635"><ele>408.0</ele><time>2026-04-17T09:18:25.39Z</time></trkpt><trkpt lat="45.6088683" lon="11.3185217"><ele>406.79999999999995</ele><time>2026-04-17T09:18:28.39Z</time></trkpt><trkpt lat="45.6088083" lon="11.3184733"><ele>405.6</ele><time>2026-04-17T09:18:30.39Z</time></trkpt><trkpt lat="45.6087467" lon="11.3184133"><ele>404.4</ele><time>2026-04-17T09:18:32.389Z</time></trkpt><trkpt lat="45.60865" lon="11.3183483"><ele>403.20000000000005</ele><time>2026-04-17T09:18:35.39Z</time></trkpt><trkpt lat="45.60854" lon="11.318235"><ele>402.0</ele><time>2026-04-17T09:18:38.39Z</time></trkpt><trkpt lat="45.6084017" lon="11.317925"><ele>405.40000000000003</ele><time>2026-04-17T09:18:43.39Z</time></trkpt><trkpt lat="45.6083567" lon="11.3178133"><ele>408.8</ele><time>2026-04-17T09:18:45.39Z</time></trkpt><trkpt lat="45.6083083" lon="11.31768"><ele>412.2</ele><time>2026-04-17T09:18:47.389Z</time></trkpt><trkpt lat="45.6082717" lon="11.3175617"><ele>415.6</ele><time>2026-04-17T09:18:49.39Z</time></trkpt><trkpt lat="45.6082217" lon="11.3173633"><ele>419.0</ele><time>2026-04-17T09:18:53.389Z</time></trkpt><trkpt lat="45.6082933" lon="11.3172033"><ele>420.6</ele><time>2026-04-17T09:18:58.389Z</time></trkpt><trkpt lat="45.6083967" lon="11.3171083"><ele>422.2</ele><time>2026-04-17T09:19:00.39Z</time></trkpt><trkpt lat="45.60846" lon="11.3170617"><ele>423.80000000000007</ele><time>2026-04-17T09:19:01.39Z</time></trkpt><trkpt lat="45.6085267" lon="11.3170083"><ele>425.40000000000003</ele><time>2026-04-17T09:19:02.389Z</time></trkpt><trkpt lat="45.6086433" lon="11.3168833"><ele>427.0</ele><time>2026-04-17T09:19:04.39Z</time></trkpt><trkpt lat="45.608825" lon="11.3166767"><ele>423.25</ele><time>2026-04-17T09:19:08.39Z</time></trkpt><trkpt lat="45.608845" lon="11.31653"><ele>419.5</ele><time>2026-04-17T09:19:10.39Z</time></trkpt><trkpt lat="45.6088533" lon="11.3163667"><ele>415.75</ele><time>2026-04-17T09:19:12.389Z</time></trkpt><trkpt lat="45.6088767" lon="11.3162067"><ele>412.0</ele><time>2026-04-17T09:19:14.39Z</time></trkpt><trkpt lat="45.6088917" lon="11.3160417"><ele>412.00000000000006</ele><time>2026-04-17T09:19:16.39Z</time></trkpt><trkpt lat="45.6089033" lon="11.3159383"><ele>412.0</ele><time>2026-04-17T09:19:17.389Z</time></trkpt><trkpt lat="45.6089083" lon="11.315835"><ele>412.0</ele><time>2026-04-17T09:19:18.389Z</time></trkpt><trkpt lat="45.608895" lon="11.3157217"><ele>412.0</ele><time>2026-04-17T09:19:19.39Z</time></trkpt><trkpt lat="45.6088833" lon="11.3156167"><ele>412.00000000000006</ele><time>2026-04-17T09:19:20.39Z</time></trkpt><trkpt lat="45.6088517" lon="11.3154167"><ele>412.0</ele><time>2026-04-17T09:19:22.39Z</time></trkpt><trkpt lat="45.60882" lon="11.3152867"><ele>413.75</ele><time>2026-04-17T09:19:24.389Z</time></trkpt><trkpt lat="45.6087783" lon="11.315165"><ele>415.5</ele><time>2026-04-17T09:19:26.39Z</time></trkpt><trkpt lat="45.608765" lon="11.3150417"><ele>417.25</ele><time>2026-04-17T09:19:28.39Z</time></trkpt><trkpt lat="45.6088883" lon="11.3147917"><ele>419.0</ele><time>2026-04-17T09:19:34.39Z</time></trkpt><trkpt lat="45.6089333" lon="11.3146667"><ele>421.75</ele><time>2026-04-17T09:19:36.39Z</time></trkpt><trkpt lat="45.6090017" lon="11.3145117"><ele>424.5</ele><time>2026-04-17T09:19:39.39Z</time></trkpt><trkpt lat="45.609045" lon="11.3143983"><ele>427.25</ele><time>2026-04-17T09:19:41.39Z</time></trkpt><trkpt lat="45.609095" lon="11.3141983"><ele>430.0</ele><time>2026-04-17T09:19:44.39Z</time></trkpt><trkpt lat="45.60913" lon="11.3140433"><ele>431.0</ele><time>2026-04-17T09:19:46.389Z</time></trkpt><trkpt lat="45.6091767" lon="11.3138433"><ele>432.0</ele><time>2026-04-17T09:19:48.389Z</time></trkpt><trkpt lat="45.6092233" lon="11.3136417"><ele>433.0</ele><time>2026-04-17T09:19:50.39Z</time></trkpt><trkpt lat="45.6092533" lon="11.3134783"><ele>434.0</ele><time>2026-04-17T09:19:52.389Z</time></trkpt><trkpt lat="45.6092533" lon="11.313355"><ele>434.0</ele><time>2026-04-17T09:19:54.389Z</time></trkpt><trkpt lat="45.60916" lon="11.3131967"><ele>434.0</ele><time>2026-04-17T09:19:58.39Z</time></trkpt><trkpt lat="45.6090717" lon="11.31319"><ele>434.0</ele><time>2026-04-17T09:20:00.39Z</time></trkpt><trkpt lat="45.60898" lon="11.3132017"><ele>434.0</ele><time>2026-04-17T09:20:02.39Z</time></trkpt><trkpt lat="45.6089117" lon="11.3131783"><ele>434.0</ele><time>2026-04-17T09:20:04.39Z</time></trkpt><trkpt lat="45.6088317" lon="11.313135"><ele>434.0</ele><time>2026-04-17T09:20:06.39Z</time></trkpt><trkpt lat="45.6086967" lon="11.31308"><ele>434.0</ele><time>2026-04-17T09:20:09.39Z</time></trkpt><trkpt lat="45.6085867" lon="11.3130567"><ele>434.0</ele><time>2026-04-17T09:20:11.39Z</time></trkpt><trkpt lat="45.6084867" lon="11.3130267"><ele>434.0</ele><time>2026-04-17T09:20:13.39Z</time></trkpt><trkpt lat="45.6084033" lon="11.3129783"><ele>434.0</ele><time>2026-04-17T09:20:15.39Z</time></trkpt><trkpt lat="45.6083117" lon="11.3129433"><ele>437.5</ele><time>2026-04-17T09:20:17.39Z</time></trkpt><trkpt lat="45.608095" lon="11.3130167"><ele>441.0</ele><time>2026-04-17T09:20:22.39Z</time></trkpt><trkpt lat="45.607985" lon="11.3131"><ele>444.5</ele><time>2026-04-17T09:20:24.389Z</time></trkpt><trkpt lat="45.60792" lon="11.3131517"><ele>448.0</ele><time>2026-04-17T09:20:25.389Z</time></trkpt><trkpt lat="45.6078533" lon="11.3132133"><ele>450.59999999999997</ele><time>2026-04-17T09:20:26.389Z</time></trkpt><trkpt lat="45.6077933" lon="11.3132667"><ele>453.19999999999993</ele><time>2026-04-17T09:20:27.389Z</time></trkpt><trkpt lat="45.6076833" lon="11.3133567"><ele>455.8</ele><time>2026-04-17T09:20:29.39Z</time></trkpt><trkpt lat="45.60753" lon="11.313465"><ele>458.4</ele><time>2026-04-17T09:20:32.389Z</time></trkpt><trkpt lat="45.6074583" lon="11.3135067"><ele>461.0</ele><time>2026-04-17T09:20:34.39Z</time></trkpt><trkpt lat="45.60739" lon="11.3135517"><ele>460.99999999999994</ele><time>2026-04-17T09:20:36.39Z</time></trkpt><trkpt lat="45.6072817" lon="11.3136217"><ele>461.0</ele><time>2026-04-17T09:20:40.388Z</time></trkpt><trkpt lat="45.607235" lon="11.3137067"><ele>461.0</ele><time>2026-04-17T09:20:42.389Z</time></trkpt><trkpt lat="45.607255" lon="11.31361"><ele>461.0</ele><time>2026-04-17T09:20:49.389Z</time></trkpt><trkpt lat="45.6073317" lon="11.3135783"><ele>460.99999999999994</ele><time>2026-04-17T09:20:51.388Z</time></trkpt><trkpt lat="45.60742" lon="11.31353"><ele>461.0</ele><time>2026-04-17T09:20:53.389Z</time></trkpt><trkpt lat="45.6075233" lon="11.31346"><ele>461.0</ele><time>2026-04-17T09:20:55.388Z</time></trkpt><trkpt lat="45.6076833" lon="11.313365"><ele>461.0</ele><time>2026-04-17T09:20:58.389Z</time></trkpt><trkpt lat="45.6077767" lon="11.3133"><ele>461.0</ele><time>2026-04-17T09:21:00.389Z</time></trkpt><trkpt lat="45.60787" lon="11.3132267"><ele>461.0</ele><time>2026-04-17T09:21:02.389Z</time></trkpt><trkpt lat="45.6079517" lon="11.313145"><ele>460.8</ele><time>2026-04-17T09:21:04.389Z</time></trkpt><trkpt lat="45.6080083" lon="11.3130983"><ele>460.6</ele><time>2026-04-17T09:21:06.389Z</time></trkpt><trkpt lat="45.60801" lon="11.3129367"><ele>460.4</ele><time>2026-04-17T09:21:13.389Z</time></trkpt><trkpt lat="45.60794" lon="11.3128833"><ele>460.2</ele><time>2026-04-17T09:21:15.388Z</time></trkpt><trkpt lat="45.6078517" lon="11.3128083"><ele>460.0</ele><time>2026-04-17T09:21:17.389Z</time></trkpt><trkpt lat="45.60775" lon="11.31275"><ele>460.0</ele><time>2026-04-17T09:21:19.388Z</time></trkpt><trkpt lat="45.6076367" lon="11.3127167"><ele>460.0</ele><time>2026-04-17T09:21:21.389Z</time></trkpt><trkpt lat="45.6075117" lon="11.312705"><ele>460.0</ele><time>2026-04-17T09:21:23.389Z</time></trkpt><trkpt lat="45.60738" lon="11.3126933"><ele>460.0</ele><time>2026-04-17T09:21:25.389Z</time></trkpt><trkpt lat="45.6072733" lon="11.312675"><ele>460.0</ele><time>2026-04-17T09:21:27.389Z</time></trkpt><trkpt lat="45.6071833" lon="11.3126567"><ele>460.0</ele><time>2026-04-17T09:21:29.388Z</time></trkpt><trkpt lat="45.6071067" lon="11.3126383"><ele>460.0</ele><time>2026-04-17T09:21:31.389Z</time></trkpt><trkpt lat="45.6069933" lon="11.3124167"><ele>460.0</ele><time>2026-04-17T09:21:38.389Z</time></trkpt><trkpt lat="45.6069267" lon="11.31239"><ele>460.0</ele><time>2026-04-17T09:21:40.388Z</time></trkpt><trkpt lat="45.6068767" lon="11.3124917"><ele>462.6666666666667</ele><time>2026-04-17T09:21:43.389Z</time></trkpt><trkpt lat="45.6068267" lon="11.3125733"><ele>465.33333333333337</ele><time>2026-04-17T09:21:45.389Z</time></trkpt><trkpt lat="45.6067717" lon="11.3126433"><ele>468.0</ele><time>2026-04-17T09:21:47.388Z</time></trkpt><trkpt lat="45.6066817" lon="11.3126617"><ele>470.66666666666663</ele><time>2026-04-17T09:21:51.389Z</time></trkpt><trkpt lat="45.6066183" lon="11.3125733"><ele>473.3333333333333</ele><time>2026-04-17T09:21:54.389Z</time></trkpt><trkpt lat="45.6065467" lon="11.312515"><ele>476.0</ele><time>2026-04-17T09:21:57.389Z</time></trkpt><trkpt lat="45.6064283" lon="11.3126583"><ele>475.99999999999994</ele><time>2026-04-17T09:22:02.389Z</time></trkpt><trkpt lat="45.60642" lon="11.3127833"><ele>476.0</ele><time>2026-04-17T09:22:04.389Z</time></trkpt><trkpt lat="45.606405" lon="11.3128983"><ele>476.0</ele><time>2026-04-17T09:22:06.389Z</time></trkpt><trkpt lat="45.60638" lon="11.31302"><ele>476.0</ele><time>2026-04-17T09:22:08.389Z</time></trkpt><trkpt lat="45.6063383" lon="11.31314"><ele>475.99999999999994</ele><time>2026-04-17T09:22:10.388Z</time></trkpt><trkpt lat="45.606305" lon="11.31323"><ele>476.0</ele><time>2026-04-17T09:22:12.388Z</time></trkpt><trkpt lat="45.606235" lon="11.3134033"><ele>487.0</ele><time>2026-04-17T09:22:37.389Z</time></trkpt><trkpt lat="45.6061117" lon="11.3135483"><ele>498.0</ele><time>2026-04-17T09:25:46.386Z</time></trkpt><trkpt lat="45.60603" lon="11.3138533"><ele>509.0</ele><time>2026-04-17T09:27:01.387Z</time></trkpt><trkpt lat="45.6059433" lon="11.3139883"><ele>509.0</ele><time>2026-04-17T09:41:11.381Z</time></trkpt><trkpt lat="45.6057717" lon="11.3138833"><ele>509.0</ele><time>2026-04-17T09:41:17.381Z</time></trkpt><trkpt lat="45.6057067" lon="11.3138683"><ele>509.0</ele><time>2026-04-17T09:41:19.381Z</time></trkpt><trkpt lat="45.605625" lon="11.31386"><ele>509.0</ele><time>2026-04-17T09:41:21.381Z</time></trkpt><trkpt lat="45.60555" lon="11.3138533"><ele>509.0</ele><time>2026-04-17T09:41:23.381Z</time></trkpt><trkpt lat="45.605505" lon="11.3139317"><ele>510.2</ele><time>2026-04-17T09:41:27.381Z</time></trkpt><trkpt lat="45.6055117" lon="11.3140317"><ele>511.4</ele><time>2026-04-17T09:41:29.381Z</time></trkpt><trkpt lat="45.60551" lon="11.3141433"><ele>512.6</ele><time>2026-04-17T09:41:31.38Z</time></trkpt><trkpt lat="45.60544" lon="11.31429"><ele>513.8</ele><time>2026-04-17T09:41:35.381Z</time></trkpt><trkpt lat="45.6053617" lon="11.3143933"><ele>515.0</ele><time>2026-04-17T09:41:37.38Z</time></trkpt><trkpt lat="45.6051833" lon="11.3145883"><ele>519.25</ele><time>2026-04-17T09:41:42.381Z</time></trkpt><trkpt lat="45.6050633" lon="11.314675"><ele>523.5</ele><time>2026-04-17T09:41:44.381Z</time></trkpt><trkpt lat="45.6049567" lon="11.3147433"><ele>527.75</ele><time>2026-04-17T09:41:46.38Z</time></trkpt><trkpt lat="45.6048617" lon="11.3147633"><ele>532.0</ele><time>2026-04-17T09:41:48.38Z</time></trkpt><trkpt lat="45.6047317" lon="11.314735"><ele>532.0</ele><time>2026-04-17T09:41:50.38Z</time></trkpt><trkpt lat="45.6045733" lon="11.3146967"><ele>532.0</ele><time>2026-04-17T09:41:53.381Z</time></trkpt><trkpt lat="45.6044533" lon="11.3146"><ele>532.0</ele><time>2026-04-17T09:41:56.381Z</time></trkpt><trkpt lat="45.6043983" lon="11.3145517"><ele>532.0</ele><time>2026-04-17T09:41:57.381Z</time></trkpt><trkpt lat="45.6043417" lon="11.31451"><ele>532.0</ele><time>2026-04-17T09:41:58.381Z</time></trkpt><trkpt lat="45.6042767" lon="11.3144767"><ele>536.3333333333334</ele><time>2026-04-17T09:41:59.381Z</time></trkpt><trkpt lat="45.60419" lon="11.3144533"><ele>540.6666666666666</ele><time>2026-04-17T09:42:00.381Z</time></trkpt><trkpt lat="45.604005" lon="11.31441"><ele>545.0</ele><time>2026-04-17T09:42:02.381Z</time></trkpt><trkpt lat="45.6038217" lon="11.3143717"><ele>544.5</ele><time>2026-04-17T09:42:05.381Z</time></trkpt><trkpt lat="45.60364" lon="11.3143667"><ele>544.0</ele><time>2026-04-17T09:42:08.381Z</time></trkpt><trkpt lat="45.60354" lon="11.314305"><ele>543.5</ele><time>2026-04-17T09:42:10.381Z</time></trkpt><trkpt lat="45.6034483" lon="11.3142033"><ele>543.0</ele><time>2026-04-17T09:42:12.381Z</time></trkpt><trkpt lat="45.6033883" lon="11.3141283"><ele>543.0</ele><time>2026-04-17T09:42:13.381Z</time></trkpt><trkpt lat="45.6033133" lon="11.3140433"><ele>543.0</ele><time>2026-04-17T09:42:14.381Z</time></trkpt><trkpt lat="45.6031333" lon="11.3138733"><ele>543.0</ele><time>2026-04-17T09:42:16.381Z</time></trkpt><trkpt lat="45.6030467" lon="11.3138033"><ele>543.0</ele><time>2026-04-17T09:42:17.381Z</time></trkpt><trkpt lat="45.6029683" lon="11.3137417"><ele>542.75</ele><time>2026-04-17T09:42:18.381Z</time></trkpt><trkpt lat="45.6028267" lon="11.313645"><ele>542.5</ele><time>2026-04-17T09:42:20.381Z</time></trkpt><trkpt lat="45.6027233" lon="11.31354"><ele>542.25</ele><time>2026-04-17T09:42:22.381Z</time></trkpt><trkpt lat="45.6026133" lon="11.3133783"><ele>542.0</ele><time>2026-04-17T09:42:24.38Z</time></trkpt><trkpt lat="45.60254" lon="11.3131867"><ele>540.75</ele><time>2026-04-17T09:42:27.381Z</time></trkpt><trkpt lat="45.6025167" lon="11.3130133"><ele>539.5</ele><time>2026-04-17T09:42:29.381Z</time></trkpt><trkpt lat="45.6024983" lon="11.3129117"><ele>538.25</ele><time>2026-04-17T09:42:30.38Z</time></trkpt><trkpt lat="45.602435" lon="11.3127133"><ele>537.0</ele><time>2026-04-17T09:42:32.381Z</time></trkpt><trkpt lat="45.6023117" lon="11.3125"><ele>537.0</ele><time>2026-04-17T09:42:34.38Z</time></trkpt><trkpt lat="45.6021883" lon="11.3123283"><ele>537.0</ele><time>2026-04-17T09:42:36.379Z</time></trkpt><trkpt lat="45.6020933" lon="11.312195"><ele>537.0</ele><time>2026-04-17T09:42:38.38Z</time></trkpt><trkpt lat="45.60196" lon="11.312065"><ele>537.4</ele><time>2026-04-17T09:42:40.38Z</time></trkpt><trkpt lat="45.601825" lon="11.311925"><ele>537.8000000000001</ele><time>2026-04-17T09:42:42.379Z</time></trkpt><trkpt lat="45.60176" lon="11.3118833"><ele>538.2</ele><time>2026-04-17T09:42:43.38Z</time></trkpt><trkpt lat="45.6016767" lon="11.3118367"><ele>538.6</ele><time>2026-04-17T09:42:44.38Z</time></trkpt><trkpt lat="45.6016017" lon="11.3117917"><ele>539.0</ele><time>2026-04-17T09:42:45.38Z</time></trkpt><trkpt lat="45.60153" lon="11.3117633"><ele>539.0</ele><time>2026-04-17T09:42:46.38Z</time></trkpt><trkpt lat="45.601465" lon="11.3117267"><ele>539.0</ele><time>2026-04-17T09:42:48.38Z</time></trkpt><trkpt lat="45.6014467" lon="11.3116383"><ele>539.0</ele><time>2026-04-17T09:42:50.38Z</time></trkpt><trkpt lat="45.6014667" lon="11.3113683"><ele>539.0</ele><time>2026-04-17T09:42:53.38Z</time></trkpt><trkpt lat="45.6014683" lon="11.31127"><ele>539.0</ele><time>2026-04-17T09:42:54.379Z</time></trkpt><trkpt lat="45.6014617" lon="11.3110933"><ele>538.25</ele><time>2026-04-17T09:42:56.38Z</time></trkpt><trkpt lat="45.601425" lon="11.3108467"><ele>537.5</ele><time>2026-04-17T09:42:59.38Z</time></trkpt><trkpt lat="45.6013983" lon="11.3107433"><ele>536.75</ele><time>2026-04-17T09:43:00.38Z</time></trkpt><trkpt lat="45.6013667" lon="11.3106233"><ele>536.0</ele><time>2026-04-17T09:43:01.38Z</time></trkpt><trkpt lat="45.601325" lon="11.3104817"><ele>536.0</ele><time>2026-04-17T09:43:02.379Z</time></trkpt><trkpt lat="45.601285" lon="11.310335"><ele>536.0</ele><time>2026-04-17T09:43:03.379Z</time></trkpt><trkpt lat="45.601255" lon="11.31022"><ele>536.0</ele><time>2026-04-17T09:43:04.38Z</time></trkpt><trkpt lat="45.6012233" lon="11.3100967"><ele>536.0</ele><time>2026-04-17T09:43:05.38Z</time></trkpt><trkpt lat="45.6011917" lon="11.3099883"><ele>536.0</ele><time>2026-04-17T09:43:06.38Z</time></trkpt><trkpt lat="45.6011617" lon="11.309875"><ele>537.0</ele><time>2026-04-17T09:43:07.38Z</time></trkpt><trkpt lat="45.6011467" lon="11.3097817"><ele>538.0</ele><time>2026-04-17T09:43:08.379Z</time></trkpt><trkpt lat="45.6011367" lon="11.3096217"><ele>539.0</ele><time>2026-04-17T09:43:10.38Z</time></trkpt><trkpt lat="45.6011417" lon="11.3095267"><ele>540.0</ele><time>2026-04-17T09:43:11.379Z</time></trkpt><trkpt lat="45.601155" lon="11.3094283"><ele>541.0</ele><time>2026-04-17T09:43:12.379Z</time></trkpt><trkpt lat="45.60121" lon="11.3091733"><ele>536.5</ele><time>2026-04-17T09:43:14.38Z</time></trkpt><trkpt lat="45.6012583" lon="11.309025"><ele>532.0</ele><time>2026-04-17T09:43:15.38Z</time></trkpt><trkpt lat="45.6013067" lon="11.3088783"><ele>527.5</ele><time>2026-04-17T09:43:16.38Z</time></trkpt><trkpt lat="45.601355" lon="11.308725"><ele>523.0</ele><time>2026-04-17T09:43:17.379Z</time></trkpt><trkpt lat="45.601395" lon="11.3085667"><ele>521.4</ele><time>2026-04-17T09:43:18.379Z</time></trkpt><trkpt lat="45.601445" lon="11.3084233"><ele>519.8</ele><time>2026-04-17T09:43:19.38Z</time></trkpt><trkpt lat="45.6014967" lon="11.3082917"><ele>518.2</ele><time>2026-04-17T09:43:20.38Z</time></trkpt><trkpt lat="45.6015517" lon="11.3081933"><ele>516.6</ele><time>2026-04-17T09:43:21.38Z</time></trkpt><trkpt lat="45.60159" lon="11.3080633"><ele>515.0</ele><time>2026-04-17T09:43:22.38Z</time></trkpt><trkpt lat="45.6016183" lon="11.3079217"><ele>514.8</ele><time>2026-04-17T09:43:23.38Z</time></trkpt><trkpt lat="45.6016517" lon="11.30778"><ele>514.6</ele><time>2026-04-17T09:43:24.38Z</time></trkpt><trkpt lat="45.60169" lon="11.3076483"><ele>514.4</ele><time>2026-04-17T09:43:25.38Z</time></trkpt><trkpt lat="45.601725" lon="11.3075367"><ele>514.2</ele><time>2026-04-17T09:43:26.38Z</time></trkpt><trkpt lat="45.60176" lon="11.3074217"><ele>514.0</ele><time>2026-04-17T09:43:27.379Z</time></trkpt><trkpt lat="45.6017883" lon="11.3072933"><ele>513.6</ele><time>2026-04-17T09:43:28.379Z</time></trkpt><trkpt lat="45.6018017" lon="11.3071633"><ele>513.2</ele><time>2026-04-17T09:43:29.38Z</time></trkpt><trkpt lat="45.6018033" lon="11.3070483"><ele>512.8000000000001</ele><time>2026-04-17T09:43:30.38Z</time></trkpt><trkpt lat="45.6018133" lon="11.3069167"><ele>512.4</ele><time>2026-04-17T09:43:32.38Z</time></trkpt><trkpt lat="45.6018117" lon="11.3067983"><ele>512.0</ele><time>2026-04-17T09:43:34.38Z</time></trkpt><trkpt lat="45.6016133" lon="11.3066917"><ele>512.0</ele><time>2026-04-17T09:43:38.38Z</time></trkpt><trkpt lat="45.6015267" lon="11.3066783"><ele>512.0</ele><time>2026-04-17T09:43:39.38Z</time></trkpt><trkpt lat="45.6014317" lon="11.306645"><ele>512.0</ele><time>2026-04-17T09:43:40.379Z</time></trkpt><trkpt lat="45.6013333" lon="11.3065867"><ele>512.0</ele><time>2026-04-17T09:43:41.38Z</time></trkpt><trkpt lat="45.60125" lon="11.30652"><ele>512.0</ele><time>2026-04-17T09:43:42.379Z</time></trkpt><trkpt lat="45.6011667" lon="11.30646"><ele>514.0</ele><time>2026-04-17T09:43:43.38Z</time></trkpt><trkpt lat="45.601085" lon="11.30641"><ele>516.0</ele><time>2026-04-17T09:43:44.38Z</time></trkpt><trkpt lat="45.6010017" lon="11.3063433"><ele>518.0</ele><time>2026-04-17T09:43:45.38Z</time></trkpt><trkpt lat="45.6009233" lon="11.3062867"><ele>520.0</ele><time>2026-04-17T09:43:46.38Z</time></trkpt><trkpt lat="45.6008517" lon="11.3062383"><ele>522.0</ele><time>2026-04-17T09:43:47.38Z</time></trkpt><trkpt lat="45.60077" lon="11.3061817"><ele>524.0</ele><time>2026-04-17T09:43:48.38Z</time></trkpt><trkpt lat="45.60068" lon="11.3061167"><ele>524.0</ele><time>2026-04-17T09:43:49.38Z</time></trkpt><trkpt lat="45.6005817" lon="11.3060533"><ele>524.0</ele><time>2026-04-17T09:43:50.379Z</time></trkpt><trkpt lat="45.6004833" lon="11.3059817"><ele>524.0</ele><time>2026-04-17T09:43:51.38Z</time></trkpt><trkpt lat="45.600395" lon="11.3059167"><ele>524.0</ele><time>2026-04-17T09:43:52.38Z</time></trkpt><trkpt lat="45.6003067" lon="11.3058533"><ele>524.0</ele><time>2026-04-17T09:43:53.38Z</time></trkpt><trkpt lat="45.6002283" lon="11.3057867"><ele>525.0</ele><time>2026-04-17T09:43:54.38Z</time></trkpt><trkpt lat="45.6001583" lon="11.3057217"><ele>526.0</ele><time>2026-04-17T09:43:55.38Z</time></trkpt><trkpt lat="45.6000433" lon="11.3055417"><ele>527.0</ele><time>2026-04-17T09:43:57.38Z</time></trkpt><trkpt lat="45.5999767" lon="11.305415"><ele>528.0</ele><time>2026-04-17T09:43:58.379Z</time></trkpt><trkpt lat="45.5999167" lon="11.3052983"><ele>528.0</ele><time>2026-04-17T09:43:59.379Z</time></trkpt><trkpt lat="45.5998583" lon="11.305185"><ele>528.0</ele><time>2026-04-17T09:44:00.38Z</time></trkpt><trkpt lat="45.5998167" lon="11.3050717"><ele>528.0</ele><time>2026-04-17T09:44:01.38Z</time></trkpt><trkpt lat="45.5997917" lon="11.3049567"><ele>528.0</ele><time>2026-04-17T09:44:02.38Z</time></trkpt><trkpt lat="45.5997833" lon="11.3048333"><ele>528.0</ele><time>2026-04-17T09:44:03.379Z</time></trkpt><trkpt lat="45.599785" lon="11.304715"><ele>528.0</ele><time>2026-04-17T09:44:04.38Z</time></trkpt><trkpt lat="45.5998067" lon="11.30459"><ele>528.1666666666666</ele><time>2026-04-17T09:44:05.38Z</time></trkpt><trkpt lat="45.5998383" lon="11.30449"><ele>528.3333333333334</ele><time>2026-04-17T09:44:06.38Z</time></trkpt><trkpt lat="45.5998767" lon="11.3044033"><ele>528.5</ele><time>2026-04-17T09:44:07.379Z</time></trkpt><trkpt lat="45.5999167" lon="11.3043133"><ele>528.6666666666667</ele><time>2026-04-17T09:44:08.379Z</time></trkpt><trkpt lat="45.5999317" lon="11.3041467"><ele>528.8333333333334</ele><time>2026-04-17T09:44:10.379Z</time></trkpt><trkpt lat="45.5999067" lon="11.30406"><ele>529.0</ele><time>2026-04-17T09:44:11.379Z</time></trkpt><trkpt lat="45.5998617" lon="11.30397"><ele>530.4</ele><time>2026-04-17T09:44:12.38Z</time></trkpt><trkpt lat="45.59982" lon="11.30388"><ele>531.8</ele><time>2026-04-17T09:44:13.379Z</time></trkpt><trkpt lat="45.5997983" lon="11.3037833"><ele>533.2</ele><time>2026-04-17T09:44:14.38Z</time></trkpt><trkpt lat="45.5998217" lon="11.3036533"><ele>534.6</ele><time>2026-04-17T09:44:16.38Z</time></trkpt><trkpt lat="45.59994" lon="11.3034717"><ele>536.0</ele><time>2026-04-17T09:44:18.38Z</time></trkpt><trkpt lat="45.6000183" lon="11.3033417"><ele>536.0</ele><time>2026-04-17T09:44:19.38Z</time></trkpt><trkpt lat="45.6000883" lon="11.3032283"><ele>536.0</ele><time>2026-04-17T09:44:20.38Z</time></trkpt><trkpt lat="45.600155" lon="11.30313"><ele>536.0</ele><time>2026-04-17T09:44:21.38Z</time></trkpt><trkpt lat="45.600205" lon="11.30307"><ele>536.0</ele><time>2026-04-17T09:44:22.38Z</time></trkpt><trkpt lat="45.600255" lon="11.3029033"><ele>536.0</ele><time>2026-04-17T09:44:24.38Z</time></trkpt><trkpt lat="45.6002717" lon="11.30278"><ele>538.0</ele><time>2026-04-17T09:44:25.38Z</time></trkpt><trkpt lat="45.60028" lon="11.30263"><ele>540.0</ele><time>2026-04-17T09:44:26.38Z</time></trkpt><trkpt lat="45.6002717" lon="11.3024517"><ele>542.0</ele><time>2026-04-17T09:44:27.38Z</time></trkpt><trkpt lat="45.6002567" lon="11.3022683"><ele>544.0</ele><time>2026-04-17T09:44:28.38Z</time></trkpt><trkpt lat="45.6002583" lon="11.3021283"><ele>543.0</ele><time>2026-04-17T09:44:29.38Z</time></trkpt><trkpt lat="45.6002633" lon="11.3020133"><ele>542.0</ele><time>2026-04-17T09:44:30.38Z</time></trkpt><trkpt lat="45.600325" lon="11.30188"><ele>541.0</ele><time>2026-04-17T09:44:32.38Z</time></trkpt><trkpt lat="45.600455" lon="11.3018483"><ele>540.0</ele><time>2026-04-17T09:44:34.38Z</time></trkpt><trkpt lat="45.6005367" lon="11.3018533"><ele>539.0</ele><time>2026-04-17T09:44:35.379Z</time></trkpt><trkpt lat="45.6006117" lon="11.3018517"><ele>539.0</ele><time>2026-04-17T09:44:36.38Z</time></trkpt><trkpt lat="45.6007233" lon="11.301835"><ele>539.0</ele><time>2026-04-17T09:44:38.38Z</time></trkpt><trkpt lat="45.6009133" lon="11.3018167"><ele>539.0</ele><time>2026-04-17T09:44:42.38Z</time></trkpt><trkpt lat="45.6010217" lon="11.301815"><ele>539.0</ele><time>2026-04-17T09:44:44.38Z</time></trkpt><trkpt lat="45.6011433" lon="11.3018067"><ele>538.4</ele><time>2026-04-17T09:44:46.379Z</time></trkpt><trkpt lat="45.6012583" lon="11.3017883"><ele>537.8</ele><time>2026-04-17T09:44:48.379Z</time></trkpt><trkpt lat="45.6013517" lon="11.301735"><ele>537.2</ele><time>2026-04-17T09:44:50.379Z</time></trkpt><trkpt lat="45.6014333" lon="11.301645"><ele>536.6</ele><time>2026-04-17T09:44:52.38Z</time></trkpt><trkpt lat="45.6015033" lon="11.3015167"><ele>536.0</ele><time>2026-04-17T09:44:54.379Z</time></trkpt><trkpt lat="45.60155" lon="11.3014083"><ele>537.75</ele><time>2026-04-17T09:44:56.38Z</time></trkpt><trkpt lat="45.6015317" lon="11.3012983"><ele>539.5</ele><time>2026-04-17T09:44:59.379Z</time></trkpt><trkpt lat="45.6013283" lon="11.301225"><ele>541.25</ele><time>2026-04-17T09:45:03.379Z</time></trkpt><trkpt lat="45.601235" lon="11.301205"><ele>543.0</ele><time>2026-04-17T09:45:05.379Z</time></trkpt><trkpt lat="45.601185" lon="11.3011183"><ele>544.1666666666666</ele><time>2026-04-17T09:45:07.379Z</time></trkpt><trkpt lat="45.6011633" lon="11.301"><ele>545.3333333333334</ele><time>2026-04-17T09:45:09.379Z</time></trkpt><trkpt lat="45.601155" lon="11.3008683"><ele>546.5</ele><time>2026-04-17T09:45:11.379Z</time></trkpt><trkpt lat="45.6011433" lon="11.3007017"><ele>547.6666666666667</ele><time>2026-04-17T09:45:13.379Z</time></trkpt><trkpt lat="45.6011283" lon="11.3005967"><ele>548.8333333333334</ele><time>2026-04-17T09:45:14.378Z</time></trkpt><trkpt lat="45.6011117" lon="11.3004967"><ele>550.0</ele><time>2026-04-17T09:45:15.378Z</time></trkpt><trkpt lat="45.6011017" lon="11.30039"><ele>551.6666666666667</ele><time>2026-04-17T09:45:16.378Z</time></trkpt><trkpt lat="45.6010833" lon="11.3002933"><ele>553.3333333333334</ele><time>2026-04-17T09:45:17.379Z</time></trkpt><trkpt lat="45.6010783" lon="11.3002033"><ele>555.0</ele><time>2026-04-17T09:45:18.379Z</time></trkpt><trkpt lat="45.6010767" lon="11.3001067"><ele>556.6666666666666</ele><time>2026-04-17T09:45:19.379Z</time></trkpt><trkpt lat="45.6010767" lon="11.300015"><ele>558.3333333333333</ele><time>2026-04-17T09:45:20.379Z</time></trkpt><trkpt lat="45.6009817" lon="11.299805"><ele>560.0</ele><time>2026-04-17T09:45:23.379Z</time></trkpt><trkpt lat="45.600895" lon="11.299695"><ele>561.6666666666666</ele><time>2026-04-17T09:45:25.379Z</time></trkpt><trkpt lat="45.6007967" lon="11.2995767"><ele>563.3333333333333</ele><time>2026-04-17T09:45:27.379Z</time></trkpt><trkpt lat="45.600745" lon="11.2994983"><ele>565.0</ele><time>2026-04-17T09:45:28.378Z</time></trkpt><trkpt lat="45.6006933" lon="11.2994133"><ele>566.6666666666666</ele><time>2026-04-17T09:45:29.378Z</time></trkpt><trkpt lat="45.6006433" lon="11.2993283"><ele>568.3333333333334</ele><time>2026-04-17T09:45:30.378Z</time></trkpt><trkpt lat="45.6006" lon="11.29925"><ele>570.0</ele><time>2026-04-17T09:45:31.378Z</time></trkpt><trkpt lat="45.60052" lon="11.29911"><ele>570.0</ele><time>2026-04-17T09:45:33.379Z</time></trkpt><trkpt lat="45.60047" lon="11.29899"><ele>570.0</ele><time>2026-04-17T09:45:35.379Z</time></trkpt><trkpt lat="45.600455" lon="11.2988967"><ele>570.0</ele><time>2026-04-17T09:45:37.379Z</time></trkpt><trkpt lat="45.6005367" lon="11.298835"><ele>570.0</ele><time>2026-04-17T09:45:41.378Z</time></trkpt><trkpt lat="45.60066" lon="11.2987917"><ele>570.0</ele><time>2026-04-17T09:45:45.379Z</time></trkpt><trkpt lat="45.60069" lon="11.2986717"><ele>572.0</ele><time>2026-04-17T09:45:47.379Z</time></trkpt><trkpt lat="45.60072" lon="11.2985617"><ele>574.0</ele><time>2026-04-17T09:45:49.379Z</time></trkpt><trkpt lat="45.6007933" lon="11.2984833"><ele>576.0</ele><time>2026-04-17T09:45:51.378Z</time></trkpt><trkpt lat="45.600875" lon="11.298415"><ele>578.0</ele><time>2026-04-17T09:45:53.379Z</time></trkpt><trkpt lat="45.60096" lon="11.2983333"><ele>580.0</ele><time>2026-04-17T09:45:55.379Z</time></trkpt><trkpt lat="45.601035" lon="11.29825"><ele>580.0</ele><time>2026-04-17T09:45:57.379Z</time></trkpt><trkpt lat="45.6010917" lon="11.2981483"><ele>580.0</ele><time>2026-04-17T09:45:59.379Z</time></trkpt><trkpt lat="45.6011317" lon="11.2980317"><ele>580.0</ele><time>2026-04-17T09:46:01.379Z</time></trkpt><trkpt lat="45.6011667" lon="11.2979233"><ele>580.0</ele><time>2026-04-17T09:46:03.379Z</time></trkpt><trkpt lat="45.601215" lon="11.2976433"><ele>581.5</ele><time>2026-04-17T09:46:07.378Z</time></trkpt><trkpt lat="45.601215" lon="11.29748"><ele>583.0</ele><time>2026-04-17T09:46:09.379Z</time></trkpt><trkpt lat="45.6011683" lon="11.297345"><ele>584.5</ele><time>2026-04-17T09:46:11.379Z</time></trkpt><trkpt lat="45.6011033" lon="11.2971933"><ele>586.0</ele><time>2026-04-17T09:46:13.379Z</time></trkpt><trkpt lat="45.6010283" lon="11.2970717"><ele>586.0</ele><time>2026-04-17T09:46:15.379Z</time></trkpt><trkpt lat="45.6009267" lon="11.296995"><ele>586.0</ele><time>2026-04-17T09:46:17.379Z</time></trkpt><trkpt lat="45.6008133" lon="11.2969183"><ele>586.0</ele><time>2026-04-17T09:46:19.379Z</time></trkpt><trkpt lat="45.6007583" lon="11.2968717"><ele>586.0</ele><time>2026-04-17T09:46:20.379Z</time></trkpt><trkpt lat="45.60065" lon="11.296835"><ele>586.0</ele><time>2026-04-17T09:46:22.378Z</time></trkpt><trkpt lat="45.60059" lon="11.296865"><ele>586.0</ele><time>2026-04-17T09:46:23.379Z</time></trkpt><trkpt lat="45.6004967" lon="11.2968933"><ele>586.0</ele><time>2026-04-17T09:46:25.379Z</time></trkpt><trkpt lat="45.6003383" lon="11.2967333"><ele>586.0</ele><time>2026-04-17T09:46:29.379Z</time></trkpt><trkpt lat="45.6002683" lon="11.2966017"><ele>586.0</ele><time>2026-04-17T09:46:31.378Z</time></trkpt><trkpt lat="45.6001983" lon="11.2964883"><ele>589.6</ele><time>2026-04-17T09:46:33.379Z</time></trkpt><trkpt lat="45.600125" lon="11.296365"><ele>593.2</ele><time>2026-04-17T09:46:35.379Z</time></trkpt><trkpt lat="45.6000567" lon="11.296245"><ele>596.8</ele><time>2026-04-17T09:46:37.378Z</time></trkpt><trkpt lat="45.5999783" lon="11.29612"><ele>600.4</ele><time>2026-04-17T09:46:39.378Z</time></trkpt><trkpt lat="45.5999033" lon="11.2960067"><ele>604.0</ele><time>2026-04-17T09:46:41.379Z</time></trkpt><trkpt lat="45.5998417" lon="11.2958917"><ele>604.0</ele><time>2026-04-17T09:46:43.379Z</time></trkpt><trkpt lat="45.599785" lon="11.2957717"><ele>604.0</ele><time>2026-04-17T09:46:45.379Z</time></trkpt><trkpt lat="45.5997083" lon="11.2956567"><ele>604.0</ele><time>2026-04-17T09:46:47.378Z</time></trkpt><trkpt lat="45.5995767" lon="11.2955017"><ele>604.0</ele><time>2026-04-17T09:46:49.379Z</time></trkpt><trkpt lat="45.599505" lon="11.2954183"><ele>606.0</ele><time>2026-04-17T09:46:50.378Z</time></trkpt><trkpt lat="45.59944" lon="11.2953533"><ele>608.0</ele><time>2026-04-17T09:46:51.378Z</time></trkpt><trkpt lat="45.5993817" lon="11.2952967"><ele>610.0</ele><time>2026-04-17T09:46:52.379Z</time></trkpt><trkpt lat="45.59933" lon="11.2952417"><ele>612.0</ele><time>2026-04-17T09:46:53.379Z</time></trkpt><trkpt lat="45.5992567" lon="11.2951483"><ele>614.0</ele><time>2026-04-17T09:46:55.378Z</time></trkpt><trkpt lat="45.5991967" lon="11.2950883"><ele>616.0</ele><time>2026-04-17T09:46:57.379Z</time></trkpt><trkpt lat="45.5991433" lon="11.295015"><ele>616.0</ele><time>2026-04-17T09:47:00.378Z</time></trkpt><trkpt lat="45.5990717" lon="11.2949417"><ele>616.0</ele><time>2026-04-17T09:47:24.379Z</time></trkpt><trkpt lat="45.598915" lon="11.2947783"><ele>616.0</ele><time>2026-04-17T09:47:27.379Z</time></trkpt><trkpt lat="45.5988517" lon="11.2946917"><ele>616.0</ele><time>2026-04-17T09:47:28.379Z</time></trkpt><trkpt lat="45.5987667" lon="11.2945967"><ele>616.5</ele><time>2026-04-17T09:47:29.378Z</time></trkpt><trkpt lat="45.598675" lon="11.2945017"><ele>617.0</ele><time>2026-04-17T09:47:30.378Z</time></trkpt><trkpt lat="45.5985983" lon="11.2944167"><ele>617.5</ele><time>2026-04-17T09:47:31.379Z</time></trkpt><trkpt lat="45.5985317" lon="11.2943467"><ele>618.0</ele><time>2026-04-17T09:47:32.379Z</time></trkpt><trkpt lat="45.5984717" lon="11.294285"><ele>618.5</ele><time>2026-04-17T09:47:33.378Z</time></trkpt><trkpt lat="45.59842" lon="11.294225"><ele>619.0</ele><time>2026-04-17T09:47:34.378Z</time></trkpt><trkpt lat="45.59835" lon="11.2941083"><ele>619.1666666666667</ele><time>2026-04-17T09:47:36.377Z</time></trkpt><trkpt lat="45.5983333" lon="11.2939883"><ele>619.3333333333334</ele><time>2026-04-17T09:47:38.378Z</time></trkpt><trkpt lat="45.598345" lon="11.2938317"><ele>619.5</ele><time>2026-04-17T09:47:40.378Z</time></trkpt><trkpt lat="45.5983517" lon="11.2937283"><ele>619.6666666666666</ele><time>2026-04-17T09:47:41.378Z</time></trkpt><trkpt lat="45.5983567" lon="11.2936217"><ele>619.8333333333333</ele><time>2026-04-17T09:47:42.377Z</time></trkpt><trkpt lat="45.59836" lon="11.29352"><ele>620.0</ele><time>2026-04-17T09:47:43.378Z</time></trkpt><trkpt lat="45.598375" lon="11.2934283"><ele>622.0</ele><time>2026-04-17T09:47:44.378Z</time></trkpt><trkpt lat="45.5983917" lon="11.2933383"><ele>624.0</ele><time>2026-04-17T09:47:45.377Z</time></trkpt><trkpt lat="45.59849" lon="11.2930683"><ele>626.0</ele><time>2026-04-17T09:47:49.377Z</time></trkpt><trkpt lat="45.5984817" lon="11.29293"><ele>628.0</ele><time>2026-04-17T09:47:51.378Z</time></trkpt><trkpt lat="45.5984" lon="11.2928333"><ele>628.5</ele><time>2026-04-17T09:47:53.378Z</time></trkpt><trkpt lat="45.5983217" lon="11.29279"><ele>629.0</ele><time>2026-04-17T09:47:54.377Z</time></trkpt><trkpt lat="45.5982417" lon="11.292725"><ele>629.5</ele><time>2026-04-17T09:47:55.378Z</time></trkpt><trkpt lat="45.598165" lon="11.2926617"><ele>630.0</ele><time>2026-04-17T09:47:56.377Z</time></trkpt><trkpt lat="45.5981067" lon="11.2925883"><ele>630.5</ele><time>2026-04-17T09:47:57.378Z</time></trkpt><trkpt lat="45.5980567" lon="11.2925217"><ele>631.0</ele><time>2026-04-17T09:47:58.378Z</time></trkpt><trkpt lat="45.5980133" lon="11.292455"><ele>631.0</ele><time>2026-04-17T09:47:59.378Z</time></trkpt><trkpt lat="45.5979583" lon="11.2923367"><ele>631.0</ele><time>2026-04-17T09:48:01.378Z</time></trkpt><trkpt lat="45.5979583" lon="11.29224"><ele>631.0</ele><time>2026-04-17T09:48:03.378Z</time></trkpt><trkpt lat="45.5980467" lon="11.2922283"><ele>631.0</ele><time>2026-04-17T09:48:06.378Z</time></trkpt><trkpt lat="45.59829" lon="11.29222"><ele>631.6666666666667</ele><time>2026-04-17T09:48:10.378Z</time></trkpt><trkpt lat="45.59837" lon="11.2921633"><ele>632.3333333333334</ele><time>2026-04-17T09:48:11.377Z</time></trkpt><trkpt lat="45.5984483" lon="11.2921017"><ele>633.0</ele><time>2026-04-17T09:48:12.378Z</time></trkpt><trkpt lat="45.59852" lon="11.2920467"><ele>633.6666666666666</ele><time>2026-04-17T09:48:13.378Z</time></trkpt><trkpt lat="45.59859" lon="11.291985"><ele>634.3333333333333</ele><time>2026-04-17T09:48:14.377Z</time></trkpt><trkpt lat="45.5986483" lon="11.291905"><ele>635.0</ele><time>2026-04-17T09:48:15.378Z</time></trkpt><trkpt lat="45.5986917" lon="11.2918017"><ele>635.2</ele><time>2026-04-17T09:48:16.378Z</time></trkpt><trkpt lat="45.5987233" lon="11.2916717"><ele>635.4</ele><time>2026-04-17T09:48:17.377Z</time></trkpt><trkpt lat="45.5987317" lon="11.291525"><ele>635.6</ele><time>2026-04-17T09:48:18.377Z</time></trkpt><trkpt lat="45.59872" lon="11.2913717"><ele>635.8</ele><time>2026-04-17T09:48:19.378Z</time></trkpt><trkpt lat="45.598695" lon="11.2912333"><ele>636.0</ele><time>2026-04-17T09:48:20.377Z</time></trkpt><trkpt lat="45.5986667" lon="11.2911117"><ele>636.0</ele><time>2026-04-17T09:48:21.378Z</time></trkpt><trkpt lat="45.5986483" lon="11.2909967"><ele>636.0</ele><time>2026-04-17T09:48:22.378Z</time></trkpt><trkpt lat="45.598675" lon="11.290855"><ele>636.0</ele><time>2026-04-17T09:48:24.377Z</time></trkpt><trkpt lat="45.5987583" lon="11.2908333"><ele>636.0</ele><time>2026-04-17T09:48:26.378Z</time></trkpt><trkpt lat="45.59882" lon="11.290865"><ele>636.0</ele><time>2026-04-17T09:48:27.377Z</time></trkpt><trkpt lat="45.5989783" lon="11.290985"><ele>634.3333333333334</ele><time>2026-04-17T09:48:29.378Z</time></trkpt><trkpt lat="45.5990517" lon="11.2910433"><ele>632.6666666666666</ele><time>2026-04-17T09:48:30.377Z</time></trkpt><trkpt lat="45.59911" lon="11.2910983"><ele>631.0</ele><time>2026-04-17T09:48:31.378Z</time></trkpt><trkpt lat="45.5991683" lon="11.2911367"><ele>629.3333333333333</ele><time>2026-04-17T09:48:32.378Z</time></trkpt><trkpt lat="45.5992683" lon="11.2911167"><ele>627.6666666666666</ele><time>2026-04-17T09:48:34.378Z</time></trkpt><trkpt lat="45.5993183" lon="11.2910583"><ele>626.0</ele><time>2026-04-17T09:48:35.377Z</time></trkpt><trkpt lat="45.5994367" lon="11.2910117"><ele>625.6666666666666</ele><time>2026-04-17T09:48:37.378Z</time></trkpt><trkpt lat="45.5995117" lon="11.29104"><ele>625.3333333333333</ele><time>2026-04-17T09:48:38.378Z</time></trkpt><trkpt lat="45.5995917" lon="11.2910933"><ele>625.0</ele><time>2026-04-17T09:48:39.377Z</time></trkpt><trkpt lat="45.59967" lon="11.2911567"><ele>624.6666666666666</ele><time>2026-04-17T09:48:40.378Z</time></trkpt><trkpt lat="45.599755" lon="11.2912067"><ele>624.3333333333334</ele><time>2026-04-17T09:48:41.377Z</time></trkpt><trkpt lat="45.5998483" lon="11.2912417"><ele>624.0</ele><time>2026-04-17T09:48:42.378Z</time></trkpt><trkpt lat="45.5999567" lon="11.2912633"><ele>624.0</ele><time>2026-04-17T09:48:43.377Z</time></trkpt><trkpt lat="45.600075" lon="11.291275"><ele>624.0</ele><time>2026-04-17T09:48:44.378Z</time></trkpt><trkpt lat="45.6001833" lon="11.2912933"><ele>624.0</ele><time>2026-04-17T09:48:45.377Z</time></trkpt><trkpt lat="45.600275" lon="11.2913067"><ele>624.0</ele><time>2026-04-17T09:48:46.377Z</time></trkpt><trkpt lat="45.6003667" lon="11.2913433"><ele>624.0</ele><time>2026-04-17T09:48:47.378Z</time></trkpt><trkpt lat="45.6004583" lon="11.29138"><ele>622.5</ele><time>2026-04-17T09:48:48.378Z</time></trkpt><trkpt lat="45.6006467" lon="11.291465"><ele>621.0</ele><time>2026-04-17T09:48:50.377Z</time></trkpt><trkpt lat="45.6007367" lon="11.2915117"><ele>619.5</ele><time>2026-04-17T09:48:51.377Z</time></trkpt><trkpt lat="45.6008283" lon="11.2915517"><ele>618.0</ele><time>2026-04-17T09:48:52.378Z</time></trkpt><trkpt lat="45.6009133" lon="11.291595"><ele>618.0</ele><time>2026-04-17T09:48:53.378Z</time></trkpt><trkpt lat="45.60099" lon="11.291625"><ele>618.0</ele><time>2026-04-17T09:48:54.377Z</time></trkpt><trkpt lat="45.6010633" lon="11.2916517"><ele>618.0</ele><time>2026-04-17T09:48:55.377Z</time></trkpt><trkpt lat="45.60113" lon="11.2916683"><ele>618.0</ele><time>2026-04-17T09:48:56.378Z</time></trkpt><trkpt lat="45.601205" lon="11.2916667"><ele>618.0</ele><time>2026-04-17T09:48:57.378Z</time></trkpt><trkpt lat="45.601295" lon="11.291645"><ele>618.0</ele><time>2026-04-17T09:48:58.378Z</time></trkpt><trkpt lat="45.6013933" lon="11.2916167"><ele>617.6</ele><time>2026-04-17T09:48:59.377Z</time></trkpt><trkpt lat="45.601495" lon="11.2915833"><ele>617.1999999999999</ele><time>2026-04-17T09:49:00.377Z</time></trkpt><trkpt lat="45.601595" lon="11.2915433"><ele>616.8</ele><time>2026-04-17T09:49:01.377Z</time></trkpt><trkpt lat="45.6016683" lon="11.2914833"><ele>616.4</ele><time>2026-04-17T09:49:02.378Z</time></trkpt><trkpt lat="45.6017283" lon="11.2914033"><ele>616.0</ele><time>2026-04-17T09:49:03.378Z</time></trkpt><trkpt lat="45.6017817" lon="11.2913083"><ele>617.0</ele><time>2026-04-17T09:49:04.378Z</time></trkpt><trkpt lat="45.6018333" lon="11.2911883"><ele>618.0</ele><time>2026-04-17T09:49:05.378Z</time></trkpt><trkpt lat="45.6018817" lon="11.2910683"><ele>619.0</ele><time>2026-04-17T09:49:06.377Z</time></trkpt><trkpt lat="45.6019417" lon="11.290955"><ele>620.0</ele><time>2026-04-17T09:49:07.378Z</time></trkpt><trkpt lat="45.6019967" lon="11.2908567"><ele>621.0</ele><time>2026-04-17T09:49:08.378Z</time></trkpt><trkpt lat="45.6020633" lon="11.2907767"><ele>621.0</ele><time>2026-04-17T09:49:09.378Z</time></trkpt><trkpt lat="45.602215" lon="11.2906667"><ele>621.0</ele><time>2026-04-17T09:49:11.377Z</time></trkpt><trkpt lat="45.6022983" lon="11.29065"><ele>621.0</ele><time>2026-04-17T09:49:12.378Z</time></trkpt><trkpt lat="45.602365" lon="11.29065"><ele>621.0</ele><time>2026-04-17T09:49:13.377Z</time></trkpt><trkpt lat="45.602485" lon="11.2906317"><ele>621.0</ele><time>2026-04-17T09:49:15.378Z</time></trkpt><trkpt lat="45.6025633" lon="11.2906283"><ele>624.4</ele><time>2026-04-17T09:49:17.377Z</time></trkpt><trkpt lat="45.6025717" lon="11.29052"><ele>627.8</ele><time>2026-04-17T09:49:20.378Z</time></trkpt><trkpt lat="45.60251" lon="11.290355"><ele>631.1999999999999</ele><time>2026-04-17T09:49:22.377Z</time></trkpt><trkpt lat="45.6024783" lon="11.29024"><ele>634.6</ele><time>2026-04-17T09:49:23.378Z</time></trkpt><trkpt lat="45.60246" lon="11.2901033"><ele>638.0</ele><time>2026-04-17T09:49:24.377Z</time></trkpt><trkpt lat="45.6024467" lon="11.2899533"><ele>638.0</ele><time>2026-04-17T09:49:25.378Z</time></trkpt><trkpt lat="45.6024367" lon="11.2898083"><ele>638.0</ele><time>2026-04-17T09:49:26.378Z</time></trkpt><trkpt lat="45.6024167" lon="11.2896733"><ele>638.0</ele><time>2026-04-17T09:49:27.378Z</time></trkpt><trkpt lat="45.6024" lon="11.28957"><ele>638.0</ele><time>2026-04-17T09:49:28.378Z</time></trkpt><trkpt lat="45.60233" lon="11.2894983"><ele>638.0</ele><time>2026-04-17T09:49:30.377Z</time></trkpt><trkpt lat="45.6021783" lon="11.2897533"><ele>638.0</ele><time>2026-04-17T09:49:34.378Z</time></trkpt><trkpt lat="45.6021283" lon="11.2898817"><ele>638.0</ele><time>2026-04-17T09:49:35.377Z</time></trkpt><trkpt lat="45.6020583" lon="11.2899983"><ele>638.0</ele><time>2026-04-17T09:49:36.377Z</time></trkpt><trkpt lat="45.6019917" lon="11.29009"><ele>638.0</ele><time>2026-04-17T09:49:37.378Z</time></trkpt><trkpt lat="45.6019283" lon="11.290155"><ele>638.0</ele><time>2026-04-17T09:49:38.377Z</time></trkpt><trkpt lat="45.6018467" lon="11.29015"><ele>639.6666666666666</ele><time>2026-04-17T09:49:40.377Z</time></trkpt><trkpt lat="45.60183" lon="11.2900483"><ele>641.3333333333333</ele><time>2026-04-17T09:49:42.378Z</time></trkpt><trkpt lat="45.6018533" lon="11.289955"><ele>643.0</ele><time>2026-04-17T09:49:43.378Z</time></trkpt><trkpt lat="45.6018917" lon="11.2898367"><ele>644.6666666666666</ele><time>2026-04-17T09:49:44.378Z</time></trkpt><trkpt lat="45.6019167" lon="11.2897083"><ele>646.3333333333334</ele><time>2026-04-17T09:49:45.378Z</time></trkpt><trkpt lat="45.601915" lon="11.2895783"><ele>648.0</ele><time>2026-04-17T09:49:46.377Z</time></trkpt><trkpt lat="45.6018567" lon="11.2894633"><ele>651.5</ele><time>2026-04-17T09:49:47.378Z</time></trkpt><trkpt lat="45.60176" lon="11.2893633"><ele>655.0</ele><time>2026-04-17T09:49:48.378Z</time></trkpt><trkpt lat="45.6016767" lon="11.289245"><ele>658.5</ele><time>2026-04-17T09:49:49.378Z</time></trkpt><trkpt lat="45.6016117" lon="11.2891033"><ele>662.0</ele><time>2026-04-17T09:49:50.378Z</time></trkpt><trkpt lat="45.601555" lon="11.2889233"><ele>667.0</ele><time>2026-04-17T09:49:51.378Z</time></trkpt><trkpt lat="45.6014383" lon="11.2885167"><ele>672.0</ele><time>2026-04-17T09:49:53.378Z</time></trkpt><trkpt lat="45.6013717" lon="11.2883"><ele>674.0</ele><time>2026-04-17T09:49:54.378Z</time></trkpt><trkpt lat="45.601305" lon="11.2880867"><ele>676.0</ele><time>2026-04-17T09:49:55.378Z</time></trkpt><trkpt lat="45.6012483" lon="11.2878967"><ele>678.0</ele><time>2026-04-17T09:49:56.378Z</time></trkpt><trkpt lat="45.6012017" lon="11.2877283"><ele>680.0</ele><time>2026-04-17T09:49:57.378Z</time></trkpt><trkpt lat="45.601165" lon="11.2875817"><ele>680.0</ele><time>2026-04-17T09:49:58.378Z</time></trkpt><trkpt lat="45.6011433" lon="11.2874183"><ele>680.0</ele><time>2026-04-17T09:49:59.377Z</time></trkpt><trkpt lat="45.601135" lon="11.2872383"><ele>680.0</ele><time>2026-04-17T09:50:00.378Z</time></trkpt><trkpt lat="45.6011283" lon="11.28707"><ele>680.0</ele><time>2026-04-17T09:50:01.378Z</time></trkpt><trkpt lat="45.601125" lon="11.28691"><ele>681.0</ele><time>2026-04-17T09:50:02.378Z</time></trkpt><trkpt lat="45.6011417" lon="11.28675"><ele>682.0</ele><time>2026-04-17T09:50:03.378Z</time></trkpt><trkpt lat="45.601175" lon="11.286595"><ele>683.0</ele><time>2026-04-17T09:50:04.378Z</time></trkpt><trkpt lat="45.601225" lon="11.2864533"><ele>684.0</ele><time>2026-04-17T09:50:05.378Z</time></trkpt><trkpt lat="45.60126" lon="11.286325"><ele>685.0</ele><time>2026-04-17T09:50:06.377Z</time></trkpt><trkpt lat="45.6012933" lon="11.2861833"><ele>687.2</ele><time>2026-04-17T09:50:07.377Z</time></trkpt><trkpt lat="45.6012833" lon="11.286035"><ele>689.4</ele><time>2026-04-17T09:50:08.377Z</time></trkpt><trkpt lat="45.6012317" lon="11.2858933"><ele>691.5999999999999</ele><time>2026-04-17T09:50:09.377Z</time></trkpt><trkpt lat="45.6011533" lon="11.2857683"><ele>693.8</ele><time>2026-04-17T09:50:10.376Z</time></trkpt><trkpt lat="45.601075" lon="11.2856767"><ele>696.0</ele><time>2026-04-17T09:50:11.376Z</time></trkpt><trkpt lat="45.6010017" lon="11.2855917"><ele>701.6666666666666</ele><time>2026-04-17T09:50:12.376Z</time></trkpt><trkpt lat="45.600915" lon="11.2853367"><ele>707.3333333333333</ele><time>2026-04-17T09:50:14.377Z</time></trkpt><trkpt lat="45.6008867" lon="11.2851533"><ele>713.0</ele><time>2026-04-17T09:50:15.377Z</time></trkpt><trkpt lat="45.6008633" lon="11.2849517"><ele>716.75</ele><time>2026-04-17T09:50:16.376Z</time></trkpt><trkpt lat="45.600835" lon="11.284745"><ele>720.5</ele><time>2026-04-17T09:50:17.377Z</time></trkpt><trkpt lat="45.60081" lon="11.2845333"><ele>724.25</ele><time>2026-04-17T09:50:18.377Z</time></trkpt><trkpt lat="45.6007833" lon="11.284325"><ele>728.0</ele><time>2026-04-17T09:50:19.377Z</time></trkpt><trkpt lat="45.6007567" lon="11.28414"><ele>728.0</ele><time>2026-04-17T09:50:20.377Z</time></trkpt><trkpt lat="45.6007333" lon="11.283985"><ele>728.0</ele><time>2026-04-17T09:50:21.377Z</time></trkpt><trkpt lat="45.600705" lon="11.2838433"><ele>728.0</ele><time>2026-04-17T09:50:22.377Z</time></trkpt><trkpt lat="45.60066" lon="11.2837083"><ele>728.0</ele><time>2026-04-17T09:50:23.377Z</time></trkpt><trkpt lat="45.6006017" lon="11.28358"><ele>728.0</ele><time>2026-04-17T09:50:24.377Z</time></trkpt><trkpt lat="45.6005283" lon="11.2834567"><ele>727.5</ele><time>2026-04-17T09:50:25.377Z</time></trkpt><trkpt lat="45.600435" lon="11.2833333"><ele>727.0</ele><time>2026-04-17T09:50:26.377Z</time></trkpt><trkpt lat="45.6003183" lon="11.2832017"><ele>726.5</ele><time>2026-04-17T09:50:27.376Z</time></trkpt><trkpt lat="45.6001983" lon="11.2830567"><ele>726.0</ele><time>2026-04-17T09:50:28.377Z</time></trkpt><trkpt lat="45.6000867" lon="11.282915"><ele>729.1999999999999</ele><time>2026-04-17T09:50:29.377Z</time></trkpt><trkpt lat="45.5999833" lon="11.2827883"><ele>732.4</ele><time>2026-04-17T09:50:30.377Z</time></trkpt><trkpt lat="45.5998883" lon="11.28268"><ele>735.6</ele><time>2026-04-17T09:50:31.377Z</time></trkpt><trkpt lat="45.5998067" lon="11.282595"><ele>738.8</ele><time>2026-04-17T09:50:32.377Z</time></trkpt><trkpt lat="45.5997267" lon="11.28254"><ele>742.0</ele><time>2026-04-17T09:50:33.376Z</time></trkpt><trkpt lat="45.59953" lon="11.2825133"><ele>741.6</ele><time>2026-04-17T09:50:35.376Z</time></trkpt><trkpt lat="45.5994217" lon="11.2825667"><ele>741.2</ele><time>2026-04-17T09:50:36.377Z</time></trkpt><trkpt lat="45.599335" lon="11.2826267"><ele>740.8</ele><time>2026-04-17T09:50:37.377Z</time></trkpt><trkpt lat="45.5992717" lon="11.2826583"><ele>740.4</ele><time>2026-04-17T09:50:38.377Z</time></trkpt><trkpt lat="45.5992167" lon="11.2826017"><ele>740.0</ele><time>2026-04-17T09:50:41.377Z</time></trkpt><trkpt lat="45.5992967" lon="11.28245"><ele>740.0</ele><time>2026-04-17T09:50:43.376Z</time></trkpt><trkpt lat="45.5993483" lon="11.2823383"><ele>740.0</ele><time>2026-04-17T09:50:44.377Z</time></trkpt><trkpt lat="45.5993983" lon="11.28223"><ele>740.0</ele><time>2026-04-17T09:50:45.377Z</time></trkpt><trkpt lat="45.599425" lon="11.2821367"><ele>740.0</ele><time>2026-04-17T09:50:46.377Z</time></trkpt><trkpt lat="45.5994667" lon="11.282025"><ele>740.0</ele><time>2026-04-17T09:50:48.377Z</time></trkpt><trkpt lat="45.5995567" lon="11.282"><ele>740.0</ele><time>2026-04-17T09:50:50.376Z</time></trkpt><trkpt lat="45.599665" lon="11.2819967"><ele>741.0</ele><time>2026-04-17T09:50:52.377Z</time></trkpt><trkpt lat="45.599795" lon="11.28199"><ele>742.0</ele><time>2026-04-17T09:50:54.377Z</time></trkpt><trkpt lat="45.59997" lon="11.282"><ele>743.0</ele><time>2026-04-17T09:50:56.377Z</time></trkpt><trkpt lat="45.60007" lon="11.2820217"><ele>744.0</ele><time>2026-04-17T09:50:57.377Z</time></trkpt><trkpt lat="45.60017" lon="11.282045"><ele>744.0</ele><time>2026-04-17T09:50:58.377Z</time></trkpt><trkpt lat="45.6002633" lon="11.2820667"><ele>744.0</ele><time>2026-04-17T09:50:59.376Z</time></trkpt><trkpt lat="45.6003483" lon="11.2821117"><ele>744.0</ele><time>2026-04-17T09:51:00.377Z</time></trkpt><trkpt lat="45.6004317" lon="11.2821783"><ele>744.0</ele><time>2026-04-17T09:51:01.376Z</time></trkpt><trkpt lat="45.6005317" lon="11.2822533"><ele>744.0</ele><time>2026-04-17T09:51:02.377Z</time></trkpt><trkpt lat="45.6006133" lon="11.282325"><ele>745.8333333333334</ele><time>2026-04-17T09:51:03.377Z</time></trkpt><trkpt lat="45.6006817" lon="11.282395"><ele>747.6666666666666</ele><time>2026-04-17T09:51:04.377Z</time></trkpt><trkpt lat="45.6007367" lon="11.282455"><ele>749.5</ele><time>2026-04-17T09:51:05.376Z</time></trkpt><trkpt lat="45.600795" lon="11.2825167"><ele>751.3333333333333</ele><time>2026-04-17T09:51:06.376Z</time></trkpt><trkpt lat="45.6008533" lon="11.2825933"><ele>753.1666666666666</ele><time>2026-04-17T09:51:07.377Z</time></trkpt><trkpt lat="45.6009333" lon="11.2826683"><ele>755.0</ele><time>2026-04-17T09:51:08.376Z</time></trkpt><trkpt lat="45.6010367" lon="11.2827233"><ele>755.0</ele><time>2026-04-17T09:51:09.376Z</time></trkpt><trkpt lat="45.6011533" lon="11.2827633"><ele>755.0</ele><time>2026-04-17T09:51:10.377Z</time></trkpt><trkpt lat="45.60128" lon="11.282785"><ele>755.0</ele><time>2026-04-17T09:51:11.377Z</time></trkpt><trkpt lat="45.6013933" lon="11.282795"><ele>755.0</ele><time>2026-04-17T09:51:12.377Z</time></trkpt><trkpt lat="45.601495" lon="11.2828017"><ele>756.6</ele><time>2026-04-17T09:51:13.377Z</time></trkpt><trkpt lat="45.6015883" lon="11.2828067"><ele>758.2</ele><time>2026-04-17T09:51:14.377Z</time></trkpt><trkpt lat="45.6016767" lon="11.28281"><ele>759.8</ele><time>2026-04-17T09:51:15.377Z</time></trkpt><trkpt lat="45.60182" lon="11.28283"><ele>761.4</ele><time>2026-04-17T09:51:17.377Z</time></trkpt><trkpt lat="45.6018833" lon="11.282825"><ele>763.0</ele><time>2026-04-17T09:51:18.377Z</time></trkpt><trkpt lat="45.6019483" lon="11.2828083"><ele>765.0</ele><time>2026-04-17T09:51:19.377Z</time></trkpt><trkpt lat="45.60206" lon="11.2827933"><ele>767.0</ele><time>2026-04-17T09:51:21.377Z</time></trkpt><trkpt lat="45.602125" lon="11.28279"><ele>769.0</ele><time>2026-04-17T09:51:22.377Z</time></trkpt><trkpt lat="45.6021883" lon="11.2827833"><ele>771.0</ele><time>2026-04-17T09:51:23.377Z</time></trkpt><trkpt lat="45.6022517" lon="11.2827867"><ele>773.0</ele><time>2026-04-17T09:51:24.377Z</time></trkpt><trkpt lat="45.6023167" lon="11.2827967"><ele>775.0</ele><time>2026-04-17T09:51:25.377Z</time></trkpt><trkpt lat="45.60238" lon="11.2828117"><ele>777.0</ele><time>2026-04-17T09:51:26.377Z</time></trkpt><trkpt lat="45.6024467" lon="11.2828167"><ele>777.0</ele><time>2026-04-17T09:51:27.377Z</time></trkpt><trkpt lat="45.6025683" lon="11.2828167"><ele>777.0</ele><time>2026-04-17T09:51:29.377Z</time></trkpt><trkpt lat="45.6027067" lon="11.282755"><ele>777.0</ele><time>2026-04-17T09:51:31.377Z</time></trkpt><trkpt lat="45.6027883" lon="11.2826933"><ele>777.0</ele><time>2026-04-17T09:51:32.377Z</time></trkpt><trkpt lat="45.6028683" lon="11.28263"><ele>778.8333333333334</ele><time>2026-04-17T09:51:33.377Z</time></trkpt><trkpt lat="45.60294" lon="11.2825733"><ele>780.6666666666667</ele><time>2026-04-17T09:51:34.377Z</time></trkpt><trkpt lat="45.6030117" lon="11.28252"><ele>782.5</ele><time>2026-04-17T09:51:35.377Z</time></trkpt><trkpt lat="45.6030733" lon="11.2824883"><ele>784.3333333333334</ele><time>2026-04-17T09:51:36.377Z</time></trkpt><trkpt lat="45.6032067" lon="11.2824433"><ele>786.1666666666667</ele><time>2026-04-17T09:51:38.377Z</time></trkpt><trkpt lat="45.603275" lon="11.2824017"><ele>788.0</ele><time>2026-04-17T09:51:39.377Z</time></trkpt><trkpt lat="45.603335" lon="11.2823517"><ele>788.0000000000001</ele><time>2026-04-17T09:51:40.377Z</time></trkpt><trkpt lat="45.603395" lon="11.28232"><ele>788.0</ele><time>2026-04-17T09:51:41.377Z</time></trkpt><trkpt lat="45.60347" lon="11.2822933"><ele>788.0</ele><time>2026-04-17T09:51:42.377Z</time></trkpt><trkpt lat="45.6035533" lon="11.2822633"><ele>788.0</ele><time>2026-04-17T09:51:43.377Z</time></trkpt><trkpt lat="45.60364" lon="11.2822333"><ele>788.0000000000001</ele><time>2026-04-17T09:51:44.376Z</time></trkpt><trkpt lat="45.6037383" lon="11.2822017"><ele>788.0</ele><time>2026-04-17T09:51:45.377Z</time></trkpt><trkpt lat="45.6038483" lon="11.2821733"><ele>789.2</ele><time>2026-04-17T09:51:46.376Z</time></trkpt><trkpt lat="45.6039533" lon="11.2821317"><ele>790.4</ele><time>2026-04-17T09:51:47.377Z</time></trkpt><trkpt lat="45.6040433" lon="11.2820933"><ele>791.6</ele><time>2026-04-17T09:51:48.377Z</time></trkpt><trkpt lat="45.6041283" lon="11.28204"><ele>792.8000000000001</ele><time>2026-04-17T09:51:49.376Z</time></trkpt><trkpt lat="45.6042017" lon="11.2819783"><ele>794.0</ele><time>2026-04-17T09:51:50.376Z</time></trkpt><trkpt lat="45.6042733" lon="11.2819117"><ele>794.0000000000001</ele><time>2026-04-17T09:51:51.377Z</time></trkpt><trkpt lat="45.6043417" lon="11.2818383"><ele>794.0</ele><time>2026-04-17T09:51:52.377Z</time></trkpt><trkpt lat="45.60442" lon="11.2817667"><ele>794.0</ele><time>2026-04-17T09:51:53.377Z</time></trkpt><trkpt lat="45.6044917" lon="11.281695"><ele>794.0</ele><time>2026-04-17T09:51:54.377Z</time></trkpt><trkpt lat="45.6045583" lon="11.2816267"><ele>794.0000000000001</ele><time>2026-04-17T09:51:55.376Z</time></trkpt><trkpt lat="45.6046167" lon="11.28156"><ele>794.0</ele><time>2026-04-17T09:51:56.377Z</time></trkpt><trkpt lat="45.6046667" lon="11.2814883"><ele>792.8000000000001</ele><time>2026-04-17T09:51:57.376Z</time></trkpt><trkpt lat="45.6047583" lon="11.2813583"><ele>791.6</ele><time>2026-04-17T09:51:59.377Z</time></trkpt><trkpt lat="45.6048017" lon="11.2812733"><ele>790.4</ele><time>2026-04-17T09:52:00.377Z</time></trkpt><trkpt lat="45.6048417" lon="11.2812017"><ele>789.2</ele><time>2026-04-17T09:52:01.377Z</time></trkpt><trkpt lat="45.6049183" lon="11.2810917"><ele>788.0</ele><time>2026-04-17T09:52:03.377Z</time></trkpt><trkpt lat="45.6049917" lon="11.2810317"><ele>788.0</ele><time>2026-04-17T09:52:05.377Z</time></trkpt><trkpt lat="45.6050617" lon="11.2810367"><ele>788.0</ele><time>2026-04-17T09:52:08.377Z</time></trkpt><trkpt lat="45.6050667" lon="11.2811467"><ele>788.0</ele><time>2026-04-17T09:59:32.373Z</time></trkpt><trkpt lat="45.6049033" lon="11.281255"><ele>788.0</ele><time>2026-04-17T09:59:36.374Z</time></trkpt><trkpt lat="45.6048333" lon="11.281275"><ele>788.0</ele><time>2026-04-17T09:59:42.374Z</time></trkpt><trkpt lat="45.6047517" lon="11.2813633"><ele>789.0000000000001</ele><time>2026-04-17T09:59:44.374Z</time></trkpt><trkpt lat="45.604695" lon="11.281445"><ele>790.0</ele><time>2026-04-17T09:59:45.373Z</time></trkpt><trkpt lat="45.6046317" lon="11.2815217"><ele>791.0</ele><time>2026-04-17T09:59:46.374Z</time></trkpt><trkpt lat="45.6045717" lon="11.2815933"><ele>792.0</ele><time>2026-04-17T09:59:47.374Z</time></trkpt><trkpt lat="45.6045017" lon="11.28166"><ele>793.0000000000001</ele><time>2026-04-17T09:59:48.373Z</time></trkpt><trkpt lat="45.6044217" lon="11.2817283"><ele>794.0</ele><time>2026-04-17T09:59:49.374Z</time></trkpt><trkpt lat="45.6043517" lon="11.2817933"><ele>794.0000000000001</ele><time>2026-04-17T09:59:50.373Z</time></trkpt><trkpt lat="45.604295" lon="11.2818467"><ele>794.0</ele><time>2026-04-17T09:59:51.374Z</time></trkpt><trkpt lat="45.6042" lon="11.28193"><ele>794.0</ele><time>2026-04-17T09:59:53.374Z</time></trkpt><trkpt lat="45.604165" lon="11.2820367"><ele>794.0</ele><time>2026-04-17T10:00:00.374Z</time></trkpt><trkpt lat="45.6042283" lon="11.2820383"><ele>794.0000000000001</ele><time>2026-04-17T10:00:02.373Z</time></trkpt><trkpt lat="45.604295" lon="11.2820183"><ele>794.0</ele><time>2026-04-17T10:00:04.374Z</time></trkpt><trkpt lat="45.6043667" lon="11.2819967"><ele>794.0000000000001</ele><time>2026-04-17T10:00:06.374Z</time></trkpt><trkpt lat="45.604435" lon="11.281955"><ele>794.0</ele><time>2026-04-17T10:00:08.374Z</time></trkpt><trkpt lat="45.6045083" lon="11.2819317"><ele>794.0</ele><time>2026-04-17T10:00:10.373Z</time></trkpt><trkpt lat="45.6045833" lon="11.2818867"><ele>794.0</ele><time>2026-04-17T10:00:12.373Z</time></trkpt><trkpt lat="45.6046417" lon="11.2818483"><ele>794.0000000000001</ele><time>2026-04-17T10:00:14.374Z</time></trkpt><trkpt lat="45.6047833" lon="11.2818783"><ele>794.0</ele><time>2026-04-17T10:00:19.374Z</time></trkpt><trkpt lat="45.6048433" lon="11.2819433"><ele>794.4000000000001</ele><time>2026-04-17T10:00:22.374Z</time></trkpt><trkpt lat="45.6048967" lon="11.2820233"><ele>794.8</ele><time>2026-04-17T10:00:25.374Z</time></trkpt><trkpt lat="45.6049567" lon="11.2820917"><ele>795.2</ele><time>2026-04-17T10:08:41.371Z</time></trkpt><trkpt lat="45.6050567" lon="11.2822167"><ele>795.5999999999999</ele><time>2026-04-17T10:08:47.371Z</time></trkpt><trkpt lat="45.60517" lon="11.28228"><ele>796.0</ele><time>2026-04-17T10:09:11.37Z</time></trkpt><trkpt lat="45.6053133" lon="11.2823733"><ele>795.8</ele><time>2026-04-17T10:09:22.371Z</time></trkpt><trkpt lat="45.60538" lon="11.2824017"><ele>795.5999999999999</ele><time>2026-04-17T10:09:24.371Z</time></trkpt><trkpt lat="45.605455" lon="11.2824"><ele>795.4</ele><time>2026-04-17T10:09:27.371Z</time></trkpt><trkpt lat="45.605535" lon="11.2824067"><ele>795.2</ele><time>2026-04-17T10:09:30.371Z</time></trkpt><trkpt lat="45.60561" lon="11.2824267"><ele>795.0</ele><time>2026-04-17T10:09:34.37Z</time></trkpt><trkpt lat="45.605805" lon="11.2824417"><ele>795.0</ele><time>2026-04-17T10:09:38.371Z</time></trkpt><trkpt lat="45.6058833" lon="11.282455"><ele>795.0</ele><time>2026-04-17T10:09:40.371Z</time></trkpt><trkpt lat="45.6059483" lon="11.2824267"><ele>795.0</ele><time>2026-04-17T10:09:42.371Z</time></trkpt><trkpt lat="45.6059883" lon="11.2823517"><ele>795.0</ele><time>2026-04-17T10:09:44.37Z</time></trkpt><trkpt lat="45.6059533" lon="11.2822467"><ele>795.0</ele><time>2026-04-17T10:09:47.37Z</time></trkpt><trkpt lat="45.6058917" lon="11.28219"><ele>795.0</ele><time>2026-04-17T10:09:50.371Z</time></trkpt><trkpt lat="45.6058717" lon="11.28209"><ele>795.0</ele><time>2026-04-17T10:09:53.37Z</time></trkpt><trkpt lat="45.6059383" lon="11.2820583"><ele>794.5</ele><time>2026-04-17T10:09:56.371Z</time></trkpt><trkpt lat="45.60605" lon="11.2819483"><ele>794.0</ele><time>2026-04-17T10:10:01.371Z</time></trkpt><trkpt lat="45.606115" lon="11.28197"><ele>793.5</ele><time>2026-04-17T10:10:04.37Z</time></trkpt><trkpt lat="45.6061783" lon="11.282025"><ele>793.0</ele><time>2026-04-17T10:10:06.371Z</time></trkpt><trkpt lat="45.60627" lon="11.2820767"><ele>792.5</ele><time>2026-04-17T10:10:08.371Z</time></trkpt><trkpt lat="45.6063383" lon="11.2820933"><ele>792.0</ele><time>2026-04-17T10:10:10.371Z</time></trkpt><trkpt lat="45.60642" lon="11.28207"><ele>790.0</ele><time>2026-04-17T10:10:12.37Z</time></trkpt><trkpt lat="45.60649" lon="11.281995"><ele>788.0</ele><time>2026-04-17T10:10:14.371Z</time></trkpt><trkpt lat="45.606545" lon="11.2819067"><ele>786.0</ele><time>2026-04-17T10:10:16.371Z</time></trkpt><trkpt lat="45.6065967" lon="11.2818133"><ele>784.0</ele><time>2026-04-17T10:10:18.37Z</time></trkpt><trkpt lat="45.6066733" lon="11.28162"><ele>782.0</ele><time>2026-04-17T10:10:32.371Z</time></trkpt><trkpt lat="45.60673" lon="11.2814633"><ele>780.2</ele><time>2026-04-17T10:10:34.37Z</time></trkpt><trkpt lat="45.606775" lon="11.2813583"><ele>778.4000000000001</ele><time>2026-04-17T10:10:35.371Z</time></trkpt><trkpt lat="45.6068217" lon="11.28125"><ele>776.5999999999999</ele><time>2026-04-17T10:10:36.371Z</time></trkpt><trkpt lat="45.60686" lon="11.2811517"><ele>774.8</ele><time>2026-04-17T10:10:37.371Z</time></trkpt><trkpt lat="45.6069167" lon="11.2810167"><ele>773.0</ele><time>2026-04-17T10:10:39.369Z</time></trkpt><trkpt lat="45.6070167" lon="11.28086"><ele>773.0</ele><time>2026-04-17T10:10:43.37Z</time></trkpt><trkpt lat="45.6070617" lon="11.2807783"><ele>773.0</ele><time>2026-04-17T10:10:45.37Z</time></trkpt><trkpt lat="45.60711" lon="11.2807033"><ele>773.0</ele><time>2026-04-17T10:10:58.37Z</time></trkpt><trkpt lat="45.6072067" lon="11.2806133"><ele>773.0</ele><time>2026-04-17T10:11:00.37Z</time></trkpt><trkpt lat="45.6073583" lon="11.2805767"><ele>773.0</ele><time>2026-04-17T10:11:02.37Z</time></trkpt><trkpt lat="45.6074317" lon="11.2805583"><ele>773.8333333333334</ele><time>2026-04-17T10:11:03.37Z</time></trkpt><trkpt lat="45.6075083" lon="11.28054"><ele>774.6666666666667</ele><time>2026-04-17T10:11:04.369Z</time></trkpt><trkpt lat="45.6075833" lon="11.280525"><ele>775.5</ele><time>2026-04-17T10:11:05.37Z</time></trkpt><trkpt lat="45.6076583" lon="11.280495"><ele>776.3333333333333</ele><time>2026-04-17T10:11:06.37Z</time></trkpt><trkpt lat="45.60773" lon="11.2804717"><ele>777.1666666666666</ele><time>2026-04-17T10:11:07.369Z</time></trkpt><trkpt lat="45.6078033" lon="11.2804433"><ele>778.0</ele><time>2026-04-17T10:11:08.369Z</time></trkpt><trkpt lat="45.6078717" lon="11.280425"><ele>777.9999999999999</ele><time>2026-04-17T10:11:09.37Z</time></trkpt><trkpt lat="45.607945" lon="11.2804083"><ele>778.0</ele><time>2026-04-17T10:11:10.369Z</time></trkpt><trkpt lat="45.6080283" lon="11.2803967"><ele>778.0</ele><time>2026-04-17T10:11:11.37Z</time></trkpt><trkpt lat="45.6081217" lon="11.28039"><ele>778.0</ele><time>2026-04-17T10:11:12.369Z</time></trkpt><trkpt lat="45.6082233" lon="11.2803767"><ele>777.9999999999999</ele><time>2026-04-17T10:11:13.37Z</time></trkpt><trkpt lat="45.6083183" lon="11.28036"><ele>778.0</ele><time>2026-04-17T10:11:14.37Z</time></trkpt><trkpt lat="45.6084117" lon="11.2803367"><ele>778.0</ele><time>2026-04-17T10:11:15.369Z</time></trkpt><trkpt lat="45.608515" lon="11.2803167"><ele>778.0</ele><time>2026-04-17T10:11:16.37Z</time></trkpt><trkpt lat="45.6086217" lon="11.2802933"><ele>778.0</ele><time>2026-04-17T10:11:17.369Z</time></trkpt><trkpt lat="45.6087217" lon="11.2802783"><ele>778.0</ele><time>2026-04-17T10:11:18.37Z</time></trkpt><trkpt lat="45.6088083" lon="11.2802583"><ele>778.0</ele><time>2026-04-17T10:11:19.37Z</time></trkpt><trkpt lat="45.608895" lon="11.2802333"><ele>776.6666666666666</ele><time>2026-04-17T10:11:20.369Z</time></trkpt><trkpt lat="45.6089717" lon="11.280205"><ele>775.3333333333333</ele><time>2026-04-17T10:11:21.369Z</time></trkpt><trkpt lat="45.6091" lon="11.2801483"><ele>774.0</ele><time>2026-04-17T10:11:23.37Z</time></trkpt><trkpt lat="45.609155" lon="11.280095"><ele>772.6666666666667</ele><time>2026-04-17T10:11:24.37Z</time></trkpt><trkpt lat="45.6092183" lon="11.28003"><ele>771.3333333333334</ele><time>2026-04-17T10:11:25.369Z</time></trkpt><trkpt lat="45.6092733" lon="11.27994"><ele>770.0</ele><time>2026-04-17T10:11:26.37Z</time></trkpt><trkpt lat="45.6093167" lon="11.2798417"><ele>770.75</ele><time>2026-04-17T10:11:27.37Z</time></trkpt><trkpt lat="45.6093417" lon="11.27972"><ele>771.5</ele><time>2026-04-17T10:11:28.369Z</time></trkpt><trkpt lat="45.609345" lon="11.2795683"><ele>772.25</ele><time>2026-04-17T10:11:29.369Z</time></trkpt><trkpt lat="45.609335" lon="11.2793917"><ele>773.0</ele><time>2026-04-17T10:11:30.369Z</time></trkpt><trkpt lat="45.60931" lon="11.2792083"><ele>773.0000000000001</ele><time>2026-04-17T10:11:31.37Z</time></trkpt><trkpt lat="45.6092983" lon="11.2790767"><ele>773.0</ele><time>2026-04-17T10:11:32.37Z</time></trkpt><trkpt lat="45.609295" lon="11.2789667"><ele>773.0</ele><time>2026-04-17T10:11:33.37Z</time></trkpt><trkpt lat="45.6093033" lon="11.2788567"><ele>773.0</ele><time>2026-04-17T10:11:34.37Z</time></trkpt><trkpt lat="45.6093333" lon="11.2787467"><ele>773.0000000000001</ele><time>2026-04-17T10:11:35.37Z</time></trkpt><trkpt lat="45.609375" lon="11.278635"><ele>773.0</ele><time>2026-04-17T10:11:36.37Z</time></trkpt><trkpt lat="45.609425" lon="11.2785067"><ele>773.0</ele><time>2026-04-17T10:11:37.37Z</time></trkpt><trkpt lat="45.60947" lon="11.2783883"><ele>773.0</ele><time>2026-04-17T10:11:38.369Z</time></trkpt><trkpt lat="45.6095317" lon="11.27827"><ele>773.0</ele><time>2026-04-17T10:11:39.37Z</time></trkpt><trkpt lat="45.6095967" lon="11.2781683"><ele>773.0</ele><time>2026-04-17T10:11:40.37Z</time></trkpt><trkpt lat="45.6096667" lon="11.2780717"><ele>773.0</ele><time>2026-04-17T10:11:41.369Z</time></trkpt><trkpt lat="45.6097533" lon="11.2779867"><ele>774.0</ele><time>2026-04-17T10:11:42.37Z</time></trkpt><trkpt lat="45.609935" lon="11.27778"><ele>775.0</ele><time>2026-04-17T10:11:44.37Z</time></trkpt><trkpt lat="45.6100483" lon="11.2776633"><ele>776.0</ele><time>2026-04-17T10:11:45.37Z</time></trkpt><trkpt lat="45.6101633" lon="11.27754"><ele>776.0</ele><time>2026-04-17T10:11:46.369Z</time></trkpt><trkpt lat="45.6102717" lon="11.27742"><ele>776.0</ele><time>2026-04-17T10:11:47.369Z</time></trkpt><trkpt lat="45.6103617" lon="11.277295"><ele>776.0</ele><time>2026-04-17T10:11:48.37Z</time></trkpt><trkpt lat="45.6104467" lon="11.27716"><ele>776.0</ele><time>2026-04-17T10:11:49.369Z</time></trkpt><trkpt lat="45.6105117" lon="11.277025"><ele>774.5999999999999</ele><time>2026-04-17T10:11:50.369Z</time></trkpt><trkpt lat="45.610555" lon="11.2769033"><ele>773.2</ele><time>2026-04-17T10:11:51.37Z</time></trkpt><trkpt lat="45.6105883" lon="11.2767883"><ele>771.8</ele><time>2026-04-17T10:11:52.369Z</time></trkpt><trkpt lat="45.6106367" lon="11.2766783"><ele>770.4000000000001</ele><time>2026-04-17T10:11:53.369Z</time></trkpt><trkpt lat="45.6107" lon="11.2765717"><ele>769.0</ele><time>2026-04-17T10:11:54.37Z</time></trkpt><trkpt lat="45.6107717" lon="11.2764733"><ele>772.2</ele><time>2026-04-17T10:11:55.37Z</time></trkpt><trkpt lat="45.610835" lon="11.2763867"><ele>775.4000000000001</ele><time>2026-04-17T10:11:56.37Z</time></trkpt><trkpt lat="45.6109017" lon="11.276285"><ele>778.6</ele><time>2026-04-17T10:11:57.37Z</time></trkpt><trkpt lat="45.6109433" lon="11.2761333"><ele>781.8</ele><time>2026-04-17T10:11:58.37Z</time></trkpt><trkpt lat="45.6109983" lon="11.275965"><ele>785.0</ele><time>2026-04-17T10:11:59.37Z</time></trkpt><trkpt lat="45.6110583" lon="11.2757917"><ele>785.0</ele><time>2026-04-17T10:12:00.37Z</time></trkpt><trkpt lat="45.6111367" lon="11.27565"><ele>785.0</ele><time>2026-04-17T10:12:01.369Z</time></trkpt><trkpt lat="45.6112167" lon="11.2755083"><ele>785.0</ele><time>2026-04-17T10:12:02.369Z</time></trkpt><trkpt lat="45.6112783" lon="11.27538"><ele>785.0</ele><time>2026-04-17T10:12:03.37Z</time></trkpt><trkpt lat="45.611425" lon="11.2751583"><ele>784.2</ele><time>2026-04-17T10:12:05.369Z</time></trkpt><trkpt lat="45.6115083" lon="11.275065"><ele>783.4</ele><time>2026-04-17T10:12:06.37Z</time></trkpt><trkpt lat="45.6115867" lon="11.2749733"><ele>782.5999999999999</ele><time>2026-04-17T10:12:07.37Z</time></trkpt><trkpt lat="45.6116683" lon="11.27487"><ele>781.8</ele><time>2026-04-17T10:12:08.37Z</time></trkpt><trkpt lat="45.61173" lon="11.2747617"><ele>781.0</ele><time>2026-04-17T10:12:09.37Z</time></trkpt><trkpt lat="45.6117767" lon="11.27467"><ele>780.9999999999999</ele><time>2026-04-17T10:12:10.37Z</time></trkpt><trkpt lat="45.611825" lon="11.2746"><ele>781.0</ele><time>2026-04-17T10:12:11.37Z</time></trkpt><trkpt lat="45.6118767" lon="11.274545"><ele>781.0</ele><time>2026-04-17T10:12:12.37Z</time></trkpt><trkpt lat="45.6119433" lon="11.274515"><ele>781.0</ele><time>2026-04-17T10:12:13.369Z</time></trkpt><trkpt lat="45.6120267" lon="11.2745067"><ele>780.9999999999999</ele><time>2026-04-17T10:12:14.37Z</time></trkpt><trkpt lat="45.6121183" lon="11.2745033"><ele>781.0</ele><time>2026-04-17T10:12:15.37Z</time></trkpt><trkpt lat="45.6122117" lon="11.274495"><ele>777.8333333333333</ele><time>2026-04-17T10:12:16.369Z</time></trkpt><trkpt lat="45.612295" lon="11.274465"><ele>774.6666666666666</ele><time>2026-04-17T10:12:17.37Z</time></trkpt><trkpt lat="45.61237" lon="11.2744183"><ele>771.5</ele><time>2026-04-17T10:12:18.369Z</time></trkpt><trkpt lat="45.6124367" lon="11.2743617"><ele>768.3333333333333</ele><time>2026-04-17T10:12:19.369Z</time></trkpt><trkpt lat="45.61251" lon="11.2742683"><ele>765.1666666666666</ele><time>2026-04-17T10:12:20.37Z</time></trkpt><trkpt lat="45.6125833" lon="11.27416"><ele>762.0</ele><time>2026-04-17T10:12:21.37Z</time></trkpt><trkpt lat="45.61264" lon="11.2740233"><ele>763.5</ele><time>2026-04-17T10:12:22.37Z</time></trkpt><trkpt lat="45.6126867" lon="11.2738967"><ele>765.0</ele><time>2026-04-17T10:12:23.369Z</time></trkpt><trkpt lat="45.6127317" lon="11.273775"><ele>766.5</ele><time>2026-04-17T10:12:24.369Z</time></trkpt><trkpt lat="45.6128433" lon="11.273535"><ele>768.0</ele><time>2026-04-17T10:12:26.37Z</time></trkpt><trkpt lat="45.6128967" lon="11.273455"><ele>761.8333333333334</ele><time>2026-04-17T10:12:27.369Z</time></trkpt><trkpt lat="45.6129367" lon="11.2733467"><ele>755.6666666666666</ele><time>2026-04-17T10:12:28.37Z</time></trkpt><trkpt lat="45.612965" lon="11.2732267"><ele>749.5</ele><time>2026-04-17T10:12:29.369Z</time></trkpt><trkpt lat="45.6129767" lon="11.2730983"><ele>743.3333333333333</ele><time>2026-04-17T10:12:30.37Z</time></trkpt><trkpt lat="45.6129967" lon="11.27299"><ele>737.1666666666666</ele><time>2026-04-17T10:12:31.37Z</time></trkpt><trkpt lat="45.6130233" lon="11.2728667"><ele>731.0</ele><time>2026-04-17T10:12:32.37Z</time></trkpt><trkpt lat="45.6130583" lon="11.27274"><ele>731.0</ele><time>2026-04-17T10:12:33.369Z</time></trkpt><trkpt lat="45.6130917" lon="11.27261"><ele>731.0</ele><time>2026-04-17T10:12:34.369Z</time></trkpt><trkpt lat="45.6131167" lon="11.2724783"><ele>731.0</ele><time>2026-04-17T10:12:35.37Z</time></trkpt><trkpt lat="45.6131267" lon="11.27236"><ele>731.0</ele><time>2026-04-17T10:12:36.37Z</time></trkpt><trkpt lat="45.6131083" lon="11.2722283"><ele>731.0</ele><time>2026-04-17T10:12:37.37Z</time></trkpt><trkpt lat="45.6130783" lon="11.2720717"><ele>731.8</ele><time>2026-04-17T10:12:38.37Z</time></trkpt><trkpt lat="45.6130517" lon="11.2719333"><ele>732.5999999999999</ele><time>2026-04-17T10:12:39.37Z</time></trkpt><trkpt lat="45.613035" lon="11.2717933"><ele>733.4</ele><time>2026-04-17T10:12:40.37Z</time></trkpt><trkpt lat="45.6130517" lon="11.2716467"><ele>734.2</ele><time>2026-04-17T10:12:41.369Z</time></trkpt><trkpt lat="45.613095" lon="11.2714983"><ele>735.0</ele><time>2026-04-17T10:12:42.37Z</time></trkpt><trkpt lat="45.6131417" lon="11.271355"><ele>737.0</ele><time>2026-04-17T10:12:43.37Z</time></trkpt><trkpt lat="45.6131833" lon="11.2712183"><ele>739.0</ele><time>2026-04-17T10:12:44.37Z</time></trkpt><trkpt lat="45.6132217" lon="11.2710733"><ele>741.0</ele><time>2026-04-17T10:12:45.37Z</time></trkpt><trkpt lat="45.6133017" lon="11.2708583"><ele>743.0</ele><time>2026-04-17T10:12:47.37Z</time></trkpt><trkpt lat="45.6133467" lon="11.2707617"><ele>743.0</ele><time>2026-04-17T10:12:48.37Z</time></trkpt><trkpt lat="45.6133967" lon="11.2706833"><ele>743.0</ele><time>2026-04-17T10:12:49.369Z</time></trkpt><trkpt lat="45.61346" lon="11.27065"><ele>743.0</ele><time>2026-04-17T10:12:50.37Z</time></trkpt><trkpt lat="45.6135333" lon="11.270655"><ele>743.0</ele><time>2026-04-17T10:12:51.37Z</time></trkpt><trkpt lat="45.6136167" lon="11.2706817"><ele>743.0</ele><time>2026-04-17T10:12:52.37Z</time></trkpt><trkpt lat="45.6137167" lon="11.270755"><ele>743.0</ele><time>2026-04-17T10:12:53.369Z</time></trkpt><trkpt lat="45.6138333" lon="11.2708167"><ele>741.25</ele><time>2026-04-17T10:12:54.37Z</time></trkpt><trkpt lat="45.6139583" lon="11.2709017"><ele>739.5</ele><time>2026-04-17T10:12:55.37Z</time></trkpt><trkpt lat="45.61409" lon="11.2710067"><ele>737.75</ele><time>2026-04-17T10:12:56.37Z</time></trkpt><trkpt lat="45.6142083" lon="11.2710983"><ele>736.0</ele><time>2026-04-17T10:12:57.37Z</time></trkpt><trkpt lat="45.6143033" lon="11.2711867"><ele>736.0</ele><time>2026-04-17T10:12:58.369Z</time></trkpt><trkpt lat="45.61439" lon="11.2712683"><ele>736.0</ele><time>2026-04-17T10:12:59.368Z</time></trkpt><trkpt lat="45.6144667" lon="11.2713533"><ele>736.0</ele><time>2026-04-17T10:13:00.369Z</time></trkpt><trkpt lat="45.61455" lon="11.2714217"><ele>736.0</ele><time>2026-04-17T10:13:01.368Z</time></trkpt><trkpt lat="45.61463" lon="11.2714717"><ele>736.0</ele><time>2026-04-17T10:13:02.369Z</time></trkpt><trkpt lat="45.6147117" lon="11.27152"><ele>732.4</ele><time>2026-04-17T10:13:03.368Z</time></trkpt><trkpt lat="45.61479" lon="11.2715567"><ele>728.8</ele><time>2026-04-17T10:13:04.369Z</time></trkpt><trkpt lat="45.6148567" lon="11.2716067"><ele>725.1999999999999</ele><time>2026-04-17T10:13:05.368Z</time></trkpt><trkpt lat="45.6149067" lon="11.271665"><ele>721.5999999999999</ele><time>2026-04-17T10:13:06.369Z</time></trkpt><trkpt lat="45.6149667" lon="11.2718633"><ele>718.0</ele><time>2026-04-17T10:13:09.369Z</time></trkpt><trkpt lat="45.614915" lon="11.2719517"><ele>718.0</ele><time>2026-04-17T10:13:11.369Z</time></trkpt><trkpt lat="45.6148717" lon="11.272035"><ele>718.0</ele><time>2026-04-17T10:13:12.368Z</time></trkpt><trkpt lat="45.614825" lon="11.27216"><ele>718.0</ele><time>2026-04-17T10:13:13.369Z</time></trkpt><trkpt lat="45.614775" lon="11.2723067"><ele>718.0</ele><time>2026-04-17T10:13:14.369Z</time></trkpt><trkpt lat="45.6147583" lon="11.2724733"><ele>718.0</ele><time>2026-04-17T10:13:15.369Z</time></trkpt><trkpt lat="45.614755" lon="11.272635"><ele>716.75</ele><time>2026-04-17T10:13:16.369Z</time></trkpt><trkpt lat="45.6147633" lon="11.27281"><ele>715.5</ele><time>2026-04-17T10:13:17.369Z</time></trkpt><trkpt lat="45.6147717" lon="11.2729933"><ele>714.25</ele><time>2026-04-17T10:13:18.369Z</time></trkpt><trkpt lat="45.6147883" lon="11.2731717"><ele>713.0</ele><time>2026-04-17T10:13:19.369Z</time></trkpt><trkpt lat="45.6148017" lon="11.273335"><ele>711.6666666666666</ele><time>2026-04-17T10:13:20.368Z</time></trkpt><trkpt lat="45.6148217" lon="11.2734783"><ele>710.3333333333333</ele><time>2026-04-17T10:13:21.369Z</time></trkpt><trkpt lat="45.61485" lon="11.27359"><ele>709.0</ele><time>2026-04-17T10:13:22.369Z</time></trkpt><trkpt lat="45.614895" lon="11.2736783"><ele>707.6666666666666</ele><time>2026-04-17T10:13:23.369Z</time></trkpt><trkpt lat="45.6149583" lon="11.27372"><ele>706.3333333333334</ele><time>2026-04-17T10:13:24.369Z</time></trkpt><trkpt lat="45.6150317" lon="11.273735"><ele>705.0</ele><time>2026-04-17T10:13:25.369Z</time></trkpt><trkpt lat="45.6151083" lon="11.2737133"><ele>705.0</ele><time>2026-04-17T10:13:26.369Z</time></trkpt><trkpt lat="45.6151967" lon="11.273665"><ele>705.0</ele><time>2026-04-17T10:13:27.368Z</time></trkpt><trkpt lat="45.61533" lon="11.2734183"><ele>705.0</ele><time>2026-04-17T10:13:29.368Z</time></trkpt><trkpt lat="45.6153633" lon="11.27327"><ele>705.0</ele><time>2026-04-17T10:13:30.368Z</time></trkpt><trkpt lat="45.6153983" lon="11.2731533"><ele>703.3333333333334</ele><time>2026-04-17T10:13:31.369Z</time></trkpt><trkpt lat="45.61544" lon="11.2730517"><ele>701.6666666666666</ele><time>2026-04-17T10:13:32.369Z</time></trkpt><trkpt lat="45.615495" lon="11.2729533"><ele>700.0</ele><time>2026-04-17T10:13:33.369Z</time></trkpt><trkpt lat="45.6155533" lon="11.2728767"><ele>698.3333333333333</ele><time>2026-04-17T10:13:34.368Z</time></trkpt><trkpt lat="45.6156133" lon="11.2728133"><ele>696.6666666666666</ele><time>2026-04-17T10:13:35.369Z</time></trkpt><trkpt lat="45.6156733" lon="11.272765"><ele>695.0</ele><time>2026-04-17T10:13:36.369Z</time></trkpt><trkpt lat="45.6157383" lon="11.2727467"><ele>695.0</ele><time>2026-04-17T10:13:37.368Z</time></trkpt><trkpt lat="45.6158183" lon="11.2727267"><ele>695.0</ele><time>2026-04-17T10:13:38.369Z</time></trkpt><trkpt lat="45.6159" lon="11.2727"><ele>695.0</ele><time>2026-04-17T10:13:39.368Z</time></trkpt><trkpt lat="45.6159867" lon="11.2726783"><ele>695.0</ele><time>2026-04-17T10:13:40.369Z</time></trkpt><trkpt lat="45.616065" lon="11.2726633"><ele>695.0</ele><time>2026-04-17T10:13:41.369Z</time></trkpt><trkpt lat="45.616155" lon="11.2726617"><ele>695.0</ele><time>2026-04-17T10:13:42.368Z</time></trkpt><trkpt lat="45.6162383" lon="11.2726667"><ele>692.1666666666666</ele><time>2026-04-17T10:13:43.368Z</time></trkpt><trkpt lat="45.6163133" lon="11.2726967"><ele>689.3333333333333</ele><time>2026-04-17T10:13:44.369Z</time></trkpt><trkpt lat="45.6163933" lon="11.272735"><ele>686.5</ele><time>2026-04-17T10:13:45.368Z</time></trkpt><trkpt lat="45.6164667" lon="11.2728017"><ele>683.6666666666666</ele><time>2026-04-17T10:13:46.369Z</time></trkpt><trkpt lat="45.6165433" lon="11.2728783"><ele>680.8333333333334</ele><time>2026-04-17T10:13:47.368Z</time></trkpt><trkpt lat="45.6166233" lon="11.2729633"><ele>678.0</ele><time>2026-04-17T10:13:48.369Z</time></trkpt><trkpt lat="45.616765" lon="11.2731433"><ele>677.0</ele><time>2026-04-17T10:13:50.369Z</time></trkpt><trkpt lat="45.61684" lon="11.2732467"><ele>676.0</ele><time>2026-04-17T10:13:51.369Z</time></trkpt><trkpt lat="45.6169217" lon="11.2733683"><ele>675.0</ele><time>2026-04-17T10:13:52.369Z</time></trkpt><trkpt lat="45.6169967" lon="11.2734883"><ele>674.0</ele><time>2026-04-17T10:13:53.369Z</time></trkpt><trkpt lat="45.6170883" lon="11.2736017"><ele>673.75</ele><time>2026-04-17T10:13:54.368Z</time></trkpt><trkpt lat="45.6171883" lon="11.2737217"><ele>673.5</ele><time>2026-04-17T10:13:55.369Z</time></trkpt><trkpt lat="45.6172867" lon="11.2738317"><ele>673.25</ele><time>2026-04-17T10:13:56.369Z</time></trkpt><trkpt lat="45.6173683" lon="11.2739667"><ele>673.0</ele><time>2026-04-17T10:13:57.368Z</time></trkpt><trkpt lat="45.6174317" lon="11.2740817"><ele>673.0</ele><time>2026-04-17T10:13:58.369Z</time></trkpt><trkpt lat="45.617495" lon="11.27421"><ele>673.0</ele><time>2026-04-17T10:13:59.369Z</time></trkpt><trkpt lat="45.61756" lon="11.2743417"><ele>673.0</ele><time>2026-04-17T10:14:00.368Z</time></trkpt><trkpt lat="45.6176217" lon="11.2744667"><ele>673.0</ele><time>2026-04-17T10:14:01.369Z</time></trkpt><trkpt lat="45.6176617" lon="11.2745717"><ele>673.0</ele><time>2026-04-17T10:14:02.368Z</time></trkpt><trkpt lat="45.6177017" lon="11.274655"><ele>673.0</ele><time>2026-04-17T10:14:03.369Z</time></trkpt><trkpt lat="45.6177717" lon="11.274745"><ele>673.0</ele><time>2026-04-17T10:14:05.369Z</time></trkpt><trkpt lat="45.6178483" lon="11.274675"><ele>673.0</ele><time>2026-04-17T10:14:07.369Z</time></trkpt><trkpt lat="45.6178917" lon="11.2745933"><ele>673.0</ele><time>2026-04-17T10:14:08.368Z</time></trkpt><trkpt lat="45.6179483" lon="11.27448"><ele>673.0</ele><time>2026-04-17T10:14:09.369Z</time></trkpt><trkpt lat="45.61808" lon="11.274245"><ele>672.2</ele><time>2026-04-17T10:14:11.369Z</time></trkpt><trkpt lat="45.618145" lon="11.27414"><ele>671.4</ele><time>2026-04-17T10:14:12.369Z</time></trkpt><trkpt lat="45.618225" lon="11.2740367"><ele>670.6</ele><time>2026-04-17T10:14:13.368Z</time></trkpt><trkpt lat="45.61831" lon="11.2739317"><ele>669.8000000000001</ele><time>2026-04-17T10:14:14.369Z</time></trkpt><trkpt lat="45.6184067" lon="11.2738217"><ele>669.0</ele><time>2026-04-17T10:14:15.369Z</time></trkpt><trkpt lat="45.6185017" lon="11.27372"><ele>669.0</ele><time>2026-04-17T10:14:16.369Z</time></trkpt><trkpt lat="45.6185783" lon="11.2736283"><ele>669.0</ele><time>2026-04-17T10:14:17.368Z</time></trkpt><trkpt lat="45.618645" lon="11.273545"><ele>669.0</ele><time>2026-04-17T10:14:18.368Z</time></trkpt><trkpt lat="45.6187033" lon="11.273475"><ele>669.0</ele><time>2026-04-17T10:14:19.369Z</time></trkpt><trkpt lat="45.6187833" lon="11.273385"><ele>669.0</ele><time>2026-04-17T10:14:21.369Z</time></trkpt><trkpt lat="45.6188333" lon="11.27329"><ele>669.25</ele><time>2026-04-17T10:14:24.368Z</time></trkpt><trkpt lat="45.618865" lon="11.2731817"><ele>669.5</ele><time>2026-04-17T10:14:26.369Z</time></trkpt><trkpt lat="45.6189083" lon="11.2730583"><ele>669.75</ele><time>2026-04-17T10:14:28.368Z</time></trkpt><trkpt lat="45.6189433" lon="11.2729183"><ele>670.0</ele><time>2026-04-17T10:14:30.369Z</time></trkpt><trkpt lat="45.6190117" lon="11.272675"><ele>670.3333333333334</ele><time>2026-04-17T10:14:34.369Z</time></trkpt><trkpt lat="45.6190483" lon="11.2725417"><ele>670.6666666666667</ele><time>2026-04-17T10:14:36.368Z</time></trkpt><trkpt lat="45.6190733" lon="11.2724483"><ele>671.0</ele><time>2026-04-17T10:14:37.369Z</time></trkpt><trkpt lat="45.6191033" lon="11.2723433"><ele>671.3333333333334</ele><time>2026-04-17T10:14:38.368Z</time></trkpt><trkpt lat="45.6191317" lon="11.2722283"><ele>671.6666666666666</ele><time>2026-04-17T10:14:39.369Z</time></trkpt><trkpt lat="45.6191533" lon="11.27212"><ele>672.0</ele><time>2026-04-17T10:14:40.369Z</time></trkpt><trkpt lat="45.6191683" lon="11.2720067"><ele>672.2</ele><time>2026-04-17T10:14:41.369Z</time></trkpt><trkpt lat="45.6191833" lon="11.2718183"><ele>672.4000000000001</ele><time>2026-04-17T10:14:43.368Z</time></trkpt><trkpt lat="45.6191867" lon="11.27171"><ele>672.5999999999999</ele><time>2026-04-17T10:14:44.369Z</time></trkpt><trkpt lat="45.61918" lon="11.27159"><ele>672.8</ele><time>2026-04-17T10:14:45.369Z</time></trkpt><trkpt lat="45.6191783" lon="11.271455"><ele>673.0</ele><time>2026-04-17T10:14:46.368Z</time></trkpt><trkpt lat="45.61917" lon="11.2713283"><ele>673.2</ele><time>2026-04-17T10:14:47.369Z</time></trkpt><trkpt lat="45.61916" lon="11.2712117"><ele>673.4</ele><time>2026-04-17T10:14:48.369Z</time></trkpt><trkpt lat="45.6191467" lon="11.27108"><ele>673.6</ele><time>2026-04-17T10:14:49.368Z</time></trkpt><trkpt lat="45.619135" lon="11.2709333"><ele>673.8000000000001</ele><time>2026-04-17T10:14:50.369Z</time></trkpt><trkpt lat="45.6190967" lon="11.2707817"><ele>674.0</ele><time>2026-04-17T10:14:51.368Z</time></trkpt><trkpt lat="45.6190033" lon="11.2705"><ele>674.2</ele><time>2026-04-17T10:14:53.369Z</time></trkpt><trkpt lat="45.6189583" lon="11.2703733"><ele>674.4000000000001</ele><time>2026-04-17T10:14:54.368Z</time></trkpt><trkpt lat="45.61891" lon="11.2702633"><ele>674.6</ele><time>2026-04-17T10:14:55.369Z</time></trkpt><trkpt lat="45.6188583" lon="11.270165"><ele>674.8</ele><time>2026-04-17T10:14:56.369Z</time></trkpt><trkpt lat="45.6187967" lon="11.2700717"><ele>675.0</ele><time>2026-04-17T10:14:57.369Z</time></trkpt><trkpt lat="45.6187367" lon="11.26998"><ele>675.0</ele><time>2026-04-17T10:14:58.368Z</time></trkpt><trkpt lat="45.6186817" lon="11.2698817"><ele>675.0</ele><time>2026-04-17T10:14:59.369Z</time></trkpt><trkpt lat="45.6186417" lon="11.2697667"><ele>675.0</ele><time>2026-04-17T10:15:00.369Z</time></trkpt><trkpt lat="45.6186183" lon="11.2696433"><ele>675.0</ele><time>2026-04-17T10:15:01.369Z</time></trkpt><trkpt lat="45.61858" lon="11.269515"><ele>675.0</ele><time>2026-04-17T10:15:02.368Z</time></trkpt><trkpt lat="45.6185317" lon="11.2694"><ele>676.6666666666666</ele><time>2026-04-17T10:15:03.369Z</time></trkpt><trkpt lat="45.61848" lon="11.2693"><ele>678.3333333333334</ele><time>2026-04-17T10:15:04.369Z</time></trkpt><trkpt lat="45.6184367" lon="11.2692217"><ele>680.0</ele><time>2026-04-17T10:15:05.369Z</time></trkpt><trkpt lat="45.6183817" lon="11.2691333"><ele>681.6666666666667</ele><time>2026-04-17T10:15:07.368Z</time></trkpt><trkpt lat="45.61831" lon="11.2690317"><ele>683.3333333333334</ele><time>2026-04-17T10:15:10.369Z</time></trkpt><trkpt lat="45.6182267" lon="11.2689867"><ele>685.0</ele><time>2026-04-17T10:15:12.369Z</time></trkpt><trkpt lat="45.6180467" lon="11.2690617"><ele>685.0</ele><time>2026-04-17T10:15:15.369Z</time></trkpt><trkpt lat="45.617985" lon="11.2691117"><ele>685.0</ele><time>2026-04-17T10:15:16.369Z</time></trkpt><trkpt lat="45.6179233" lon="11.26916"><ele>685.0</ele><time>2026-04-17T10:15:17.369Z</time></trkpt><trkpt lat="45.617825" lon="11.2692467"><ele>685.0</ele><time>2026-04-17T10:15:19.369Z</time></trkpt><trkpt lat="45.6177517" lon="11.2693083"><ele>685.0</ele><time>2026-04-17T10:15:21.367Z</time></trkpt><trkpt lat="45.6176783" lon="11.269225"><ele>685.0</ele><time>2026-04-17T10:15:30.368Z</time></trkpt><trkpt lat="45.6177133" lon="11.2690817"><ele>688.5</ele><time>2026-04-17T10:15:33.368Z</time></trkpt><trkpt lat="45.6177567" lon="11.2687883"><ele>692.0</ele><time>2026-04-17T10:15:36.368Z</time></trkpt><trkpt lat="45.6177417" lon="11.2686767"><ele>695.5</ele><time>2026-04-17T10:15:37.368Z</time></trkpt><trkpt lat="45.6177183" lon="11.2685733"><ele>699.0</ele><time>2026-04-17T10:15:38.368Z</time></trkpt><trkpt lat="45.6176833" lon="11.2684233"><ele>699.0</ele><time>2026-04-17T10:15:40.367Z</time></trkpt><trkpt lat="45.6176067" lon="11.2682917"><ele>699.0</ele><time>2026-04-17T10:15:42.368Z</time></trkpt><trkpt lat="45.6175667" lon="11.2682183"><ele>699.0</ele><time>2026-04-17T10:15:43.368Z</time></trkpt><trkpt lat="45.6175283" lon="11.26807"><ele>699.0</ele><time>2026-04-17T10:15:45.368Z</time></trkpt><trkpt lat="45.617545" lon="11.26795"><ele>699.0</ele><time>2026-04-17T10:15:47.367Z</time></trkpt><trkpt lat="45.6176367" lon="11.2678633"><ele>699.4000000000001</ele><time>2026-04-17T10:15:50.368Z</time></trkpt><trkpt lat="45.6177083" lon="11.2678417"><ele>699.8</ele><time>2026-04-17T10:15:51.367Z</time></trkpt><trkpt lat="45.617785" lon="11.26781"><ele>700.2</ele><time>2026-04-17T10:15:52.368Z</time></trkpt><trkpt lat="45.6178617" lon="11.267755"><ele>700.5999999999999</ele><time>2026-04-17T10:15:53.368Z</time></trkpt><trkpt lat="45.6179333" lon="11.2677033"><ele>701.0</ele><time>2026-04-17T10:15:54.368Z</time></trkpt><trkpt lat="45.6180717" lon="11.2675883"><ele>701.0</ele><time>2026-04-17T10:15:56.368Z</time></trkpt><trkpt lat="45.61814" lon="11.26752"><ele>701.0</ele><time>2026-04-17T10:15:57.367Z</time></trkpt><trkpt lat="45.618205" lon="11.2674333"><ele>701.0</ele><time>2026-04-17T10:15:58.367Z</time></trkpt><trkpt lat="45.61827" lon="11.2673467"><ele>701.0</ele><time>2026-04-17T10:15:59.367Z</time></trkpt><trkpt lat="45.61833" lon="11.2672667"><ele>701.0</ele><time>2026-04-17T10:16:00.368Z</time></trkpt><trkpt lat="45.6183917" lon="11.2672133"><ele>701.0</ele><time>2026-04-17T10:16:01.368Z</time></trkpt><trkpt lat="45.6184567" lon="11.2671583"><ele>705.3333333333333</ele><time>2026-04-17T10:16:03.367Z</time></trkpt><trkpt lat="45.6184367" lon="11.267055"><ele>709.6666666666666</ele><time>2026-04-17T10:16:06.368Z</time></trkpt><trkpt lat="45.6183417" lon="11.26699"><ele>714.0</ele><time>2026-04-17T10:16:08.368Z</time></trkpt><trkpt lat="45.6182683" lon="11.2669767"><ele>718.3333333333334</ele><time>2026-04-17T10:16:09.368Z</time></trkpt><trkpt lat="45.6181933" lon="11.2669683"><ele>722.6666666666667</ele><time>2026-04-17T10:16:10.368Z</time></trkpt><trkpt lat="45.6181233" lon="11.26696"><ele>727.0</ele><time>2026-04-17T10:16:11.367Z</time></trkpt><trkpt lat="45.61801" lon="11.2669183"><ele>727.0</ele><time>2026-04-17T10:16:13.368Z</time></trkpt><trkpt lat="45.61795" lon="11.2668817"><ele>727.0</ele><time>2026-04-17T10:16:14.368Z</time></trkpt><trkpt lat="45.6178867" lon="11.2668417"><ele>727.0</ele><time>2026-04-17T10:16:15.368Z</time></trkpt><trkpt lat="45.6177917" lon="11.2666683"><ele>727.0</ele><time>2026-04-17T10:16:20.367Z</time></trkpt><trkpt lat="45.6178283" lon="11.26653"><ele>727.0</ele><time>2026-04-17T10:16:22.368Z</time></trkpt><trkpt lat="45.6178633" lon="11.2663967"><ele>730.2</ele><time>2026-04-17T10:16:24.368Z</time></trkpt><trkpt lat="45.6178733" lon="11.2662667"><ele>733.4000000000001</ele><time>2026-04-17T10:16:26.368Z</time></trkpt><trkpt lat="45.6178783" lon="11.2661183"><ele>736.5999999999999</ele><time>2026-04-17T10:16:28.368Z</time></trkpt><trkpt lat="45.6178567" lon="11.2659617"><ele>739.8</ele><time>2026-04-17T10:16:30.367Z</time></trkpt><trkpt lat="45.6178117" lon="11.2658517"><ele>743.0</ele><time>2026-04-17T10:16:32.367Z</time></trkpt><trkpt lat="45.6177217" lon="11.2657617"><ele>743.0</ele><time>2026-04-17T10:16:34.368Z</time></trkpt><trkpt lat="45.6176567" lon="11.265745"><ele>743.0</ele><time>2026-04-17T10:16:36.367Z</time></trkpt><trkpt lat="45.61743" lon="11.2657717"><ele>743.0</ele><time>2026-04-17T10:16:40.368Z</time></trkpt><trkpt lat="45.6173383" lon="11.2657667"><ele>743.0</ele><time>2026-04-17T10:16:42.368Z</time></trkpt><trkpt lat="45.617275" lon="11.2656983"><ele>745.4</ele><time>2026-04-17T10:16:45.368Z</time></trkpt><trkpt lat="45.6172717" lon="11.2655683"><ele>747.8</ele><time>2026-04-17T10:16:48.368Z</time></trkpt><trkpt lat="45.6172833" lon="11.2654267"><ele>750.2</ele><time>2026-04-17T10:16:50.367Z</time></trkpt><trkpt lat="45.6172883" lon="11.2653133"><ele>752.6</ele><time>2026-04-17T10:16:52.368Z</time></trkpt><trkpt lat="45.6173167" lon="11.2651783"><ele>755.0</ele><time>2026-04-17T10:16:54.368Z</time></trkpt><trkpt lat="45.61735" lon="11.26503"><ele>755.0</ele><time>2026-04-17T10:16:56.367Z</time></trkpt><trkpt lat="45.6173617" lon="11.264875"><ele>755.0</ele><time>2026-04-17T10:16:58.368Z</time></trkpt><trkpt lat="45.6173733" lon="11.264685"><ele>755.0</ele><time>2026-04-17T10:17:00.367Z</time></trkpt><trkpt lat="45.6173983" lon="11.2645883"><ele>755.0</ele><time>2026-04-17T10:17:01.368Z</time></trkpt><trkpt lat="45.61743" lon="11.2644767"><ele>755.0</ele><time>2026-04-17T10:17:02.368Z</time></trkpt><trkpt lat="45.617465" lon="11.264375"><ele>756.3333333333333</ele><time>2026-04-17T10:17:03.368Z</time></trkpt><trkpt lat="45.6174983" lon="11.264275"><ele>757.6666666666666</ele><time>2026-04-17T10:17:04.368Z</time></trkpt><trkpt lat="45.6175283" lon="11.2641867"><ele>759.0</ele><time>2026-04-17T10:17:05.368Z</time></trkpt><trkpt lat="45.6175817" lon="11.2640367"><ele>760.3333333333334</ele><time>2026-04-17T10:17:07.368Z</time></trkpt><trkpt lat="45.6176517" lon="11.2639483"><ele>761.6666666666667</ele><time>2026-04-17T10:17:09.368Z</time></trkpt><trkpt lat="45.6177233" lon="11.2639117"><ele>763.0</ele><time>2026-04-17T10:17:11.368Z</time></trkpt><trkpt lat="45.6177717" lon="11.2638267"><ele>764.0</ele><time>2026-04-17T10:17:13.368Z</time></trkpt><trkpt lat="45.61776" lon="11.2636933"><ele>765.0</ele><time>2026-04-17T10:17:15.368Z</time></trkpt><trkpt lat="45.6177383" lon="11.2636067"><ele>766.0</ele><time>2026-04-17T10:17:16.368Z</time></trkpt><trkpt lat="45.6177233" lon="11.263505"><ele>767.0</ele><time>2026-04-17T10:17:17.368Z</time></trkpt><trkpt lat="45.617705" lon="11.2633917"><ele>767.9999999999999</ele><time>2026-04-17T10:17:18.368Z</time></trkpt><trkpt lat="45.6176833" lon="11.263265"><ele>769.0</ele><time>2026-04-17T10:17:19.368Z</time></trkpt><trkpt lat="45.6176483" lon="11.263035"><ele>771.4999999999999</ele><time>2026-04-17T10:17:21.367Z</time></trkpt><trkpt lat="45.61763" lon="11.2629283"><ele>774.0</ele><time>2026-04-17T10:17:22.368Z</time></trkpt><trkpt lat="45.6175967" lon="11.2627683"><ele>776.5</ele><time>2026-04-17T10:17:24.368Z</time></trkpt><trkpt lat="45.61758" lon="11.26265"><ele>779.0</ele><time>2026-04-17T10:17:26.368Z</time></trkpt><trkpt lat="45.6176" lon="11.2625433"><ele>781.4999999999999</ele><time>2026-04-17T10:17:29.368Z</time></trkpt><trkpt lat="45.6176483" lon="11.26248"><ele>784.0</ele><time>2026-04-17T10:17:31.368Z</time></trkpt><trkpt lat="45.617715" lon="11.26241"><ele>784.0</ele><time>2026-04-17T10:17:33.368Z</time></trkpt><trkpt lat="45.6177883" lon="11.2623233"><ele>784.0</ele><time>2026-04-17T10:17:35.367Z</time></trkpt><trkpt lat="45.6178767" lon="11.262235"><ele>793.0</ele><time>2026-04-17T10:17:37.368Z</time></trkpt><trkpt lat="45.6179733" lon="11.2621517"><ele>793.0</ele><time>2026-04-17T10:17:39.367Z</time></trkpt><trkpt lat="45.6180767" lon="11.262075"><ele>793.0</ele><time>2026-04-17T10:17:41.367Z</time></trkpt></trkseg><trkseg><trkpt lat="45.6175053" lon="11.2618634"><ele>796.0</ele><time>2026-04-17T12:10:53.847Z</time></trkpt><trkpt lat="45.6175275" lon="11.2617489"><ele>796.0</ele><time>2026-04-17T12:10:56.847Z</time></trkpt><trkpt lat="45.6176249" lon="11.2617396"><ele>796.0</ele><time>2026-04-17T12:10:58.847Z</time></trkpt><trkpt lat="45.617763" lon="11.261752"><ele>796.0</ele><time>2026-04-17T12:11:00.847Z</time></trkpt><trkpt lat="45.6178438" lon="11.2617474"><ele>796.0</ele><time>2026-04-17T12:11:01.847Z</time></trkpt><trkpt lat="45.6179346" lon="11.2617358"><ele>795.4999999999999</ele><time>2026-04-17T12:11:02.847Z</time></trkpt><trkpt lat="45.6180257" lon="11.2617239"><ele>795.0</ele><time>2026-04-17T12:11:03.847Z</time></trkpt><trkpt lat="45.6181217" lon="11.261715"><ele>794.5</ele><time>2026-04-17T12:11:04.847Z</time></trkpt><trkpt lat="45.6181917" lon="11.261735"><ele>794.0</ele><time>2026-04-17T12:11:05.847Z</time></trkpt><trkpt lat="45.6182683" lon="11.26178"><ele>793.4999999999999</ele><time>2026-04-17T12:11:06.847Z</time></trkpt><trkpt lat="45.61834" lon="11.2618483"><ele>793.0</ele><time>2026-04-17T12:11:07.847Z</time></trkpt><trkpt lat="45.618415" lon="11.2619533"><ele>793.0</ele><time>2026-04-17T12:11:08.847Z</time></trkpt><trkpt lat="45.618485" lon="11.262065"><ele>793.0</ele><time>2026-04-17T12:11:09.847Z</time></trkpt><trkpt lat="45.61855" lon="11.2621617"><ele>793.0</ele><time>2026-04-17T12:11:10.847Z</time></trkpt><trkpt lat="45.61861" lon="11.2622417"><ele>793.0</ele><time>2026-04-17T12:11:11.847Z</time></trkpt><trkpt lat="45.6186717" lon="11.2623217"><ele>793.0</ele><time>2026-04-17T12:11:12.847Z</time></trkpt><trkpt lat="45.6187433" lon="11.2623967"><ele>791.8333333333333</ele><time>2026-04-17T12:11:13.847Z</time></trkpt><trkpt lat="45.6188233" lon="11.2624483"><ele>790.6666666666666</ele><time>2026-04-17T12:11:14.846Z</time></trkpt><trkpt lat="45.6189133" lon="11.2624767"><ele>789.5</ele><time>2026-04-17T12:11:15.846Z</time></trkpt><trkpt lat="45.6189983" lon="11.2624733"><ele>788.3333333333333</ele><time>2026-04-17T12:11:16.847Z</time></trkpt><trkpt lat="45.6190767" lon="11.26245"><ele>787.1666666666666</ele><time>2026-04-17T12:11:17.847Z</time></trkpt><trkpt lat="45.6191533" lon="11.2624033"><ele>786.0</ele><time>2026-04-17T12:11:18.847Z</time></trkpt><trkpt lat="45.61923" lon="11.2623333"><ele>784.75</ele><time>2026-04-17T12:11:19.847Z</time></trkpt><trkpt lat="45.61932" lon="11.2622433"><ele>783.5</ele><time>2026-04-17T12:11:20.847Z</time></trkpt><trkpt lat="45.619415" lon="11.2621517"><ele>782.25</ele><time>2026-04-17T12:11:21.846Z</time></trkpt><trkpt lat="45.6195267" lon="11.262065"><ele>781.0</ele><time>2026-04-17T12:11:22.847Z</time></trkpt><trkpt lat="45.6196417" lon="11.2620067"><ele>781.0</ele><time>2026-04-17T12:11:23.846Z</time></trkpt><trkpt lat="45.619755" lon="11.2619367"><ele>781.0</ele><time>2026-04-17T12:11:24.846Z</time></trkpt><trkpt lat="45.6198617" lon="11.261865"><ele>781.0</ele><time>2026-04-17T12:11:25.847Z</time></trkpt><trkpt lat="45.6199583" lon="11.2617583"><ele>781.0</ele><time>2026-04-17T12:11:26.847Z</time></trkpt><trkpt lat="45.6200567" lon="11.2616517"><ele>781.0</ele><time>2026-04-17T12:11:27.847Z</time></trkpt><trkpt lat="45.6201617" lon="11.2615467"><ele>781.0</ele><time>2026-04-17T12:11:28.847Z</time></trkpt><trkpt lat="45.62028" lon="11.2614667"><ele>781.0</ele><time>2026-04-17T12:11:29.847Z</time></trkpt><trkpt lat="45.6203967" lon="11.261395"><ele>781.0</ele><time>2026-04-17T12:11:30.847Z</time></trkpt><trkpt lat="45.620495" lon="11.2613183"><ele>776.0</ele><time>2026-04-17T12:11:31.847Z</time></trkpt><trkpt lat="45.6205817" lon="11.2612117"><ele>771.0</ele><time>2026-04-17T12:11:32.847Z</time></trkpt><trkpt lat="45.62065" lon="11.2610967"><ele>766.0</ele><time>2026-04-17T12:11:33.847Z</time></trkpt><trkpt lat="45.6207017" lon="11.2609383"><ele>761.0</ele><time>2026-04-17T12:11:34.847Z</time></trkpt><trkpt lat="45.6207383" lon="11.2607267"><ele>765.0</ele><time>2026-04-17T12:11:35.847Z</time></trkpt><trkpt lat="45.620775" lon="11.2605067"><ele>769.0</ele><time>2026-04-17T12:11:36.847Z</time></trkpt><trkpt lat="45.62081" lon="11.2603133"><ele>773.0</ele><time>2026-04-17T12:11:37.847Z</time></trkpt><trkpt lat="45.6208283" lon="11.2601483"><ele>777.0</ele><time>2026-04-17T12:11:38.847Z</time></trkpt><trkpt lat="45.620835" lon="11.26002"><ele>777.0</ele><time>2026-04-17T12:11:39.847Z</time></trkpt><trkpt lat="45.6208717" lon="11.2598817"><ele>777.0</ele><time>2026-04-17T12:11:41.847Z</time></trkpt><trkpt lat="45.6209683" lon="11.2598867"><ele>777.0</ele><time>2026-04-17T12:11:43.847Z</time></trkpt><trkpt lat="45.621035" lon="11.2600317"><ele>777.0</ele><time>2026-04-17T12:11:45.846Z</time></trkpt><trkpt lat="45.621025" lon="11.2602033"><ele>777.0</ele><time>2026-04-17T12:11:46.847Z</time></trkpt><trkpt lat="45.62102" lon="11.2603683"><ele>777.0</ele><time>2026-04-17T12:11:47.847Z</time></trkpt><trkpt lat="45.621" lon="11.2605967"><ele>777.0</ele><time>2026-04-17T12:11:48.846Z</time></trkpt><trkpt lat="45.6209867" lon="11.260835"><ele>777.0</ele><time>2026-04-17T12:11:49.847Z</time></trkpt><trkpt lat="45.6209717" lon="11.26109"><ele>771.6666666666666</ele><time>2026-04-17T12:11:50.846Z</time></trkpt><trkpt lat="45.6209583" lon="11.2613467"><ele>766.3333333333333</ele><time>2026-04-17T12:11:51.847Z</time></trkpt><trkpt lat="45.620965" lon="11.261595"><ele>761.0</ele><time>2026-04-17T12:11:52.847Z</time></trkpt><trkpt lat="45.6209683" lon="11.2617983"><ele>758.1999999999999</ele><time>2026-04-17T12:11:53.847Z</time></trkpt><trkpt lat="45.62097" lon="11.26198"><ele>755.4</ele><time>2026-04-17T12:11:54.847Z</time></trkpt><trkpt lat="45.6209567" lon="11.2621233"><ele>752.6</ele><time>2026-04-17T12:11:55.847Z</time></trkpt><trkpt lat="45.6209167" lon="11.2622483"><ele>749.8</ele><time>2026-04-17T12:11:56.847Z</time></trkpt><trkpt lat="45.6208417" lon="11.2623533"><ele>747.0</ele><time>2026-04-17T12:11:57.847Z</time></trkpt><trkpt lat="45.6207483" lon="11.26243"><ele>744.2</ele><time>2026-04-17T12:11:58.847Z</time></trkpt><trkpt lat="45.6206717" lon="11.2625033"><ele>741.4000000000001</ele><time>2026-04-17T12:11:59.847Z</time></trkpt><trkpt lat="45.6206317" lon="11.2625733"><ele>738.5999999999999</ele><time>2026-04-17T12:12:00.847Z</time></trkpt><trkpt lat="45.62065" lon="11.2627283"><ele>735.8</ele><time>2026-04-17T12:12:02.847Z</time></trkpt><trkpt lat="45.6207317" lon="11.2627717"><ele>733.0</ele><time>2026-04-17T12:12:03.847Z</time></trkpt><trkpt lat="45.6208367" lon="11.2627967"><ele>733.0</ele><time>2026-04-17T12:12:04.847Z</time></trkpt><trkpt lat="45.62096" lon="11.2628133"><ele>733.0</ele><time>2026-04-17T12:12:05.847Z</time></trkpt><trkpt lat="45.6210967" lon="11.2628567"><ele>733.0</ele><time>2026-04-17T12:12:06.847Z</time></trkpt><trkpt lat="45.6212583" lon="11.26291"><ele>733.0</ele><time>2026-04-17T12:12:07.847Z</time></trkpt><trkpt lat="45.6214217" lon="11.2629583"><ele>731.75</ele><time>2026-04-17T12:12:08.847Z</time></trkpt><trkpt lat="45.6215617" lon="11.2630117"><ele>730.5</ele><time>2026-04-17T12:12:09.847Z</time></trkpt><trkpt lat="45.6216767" lon="11.2631083"><ele>729.25</ele><time>2026-04-17T12:12:10.847Z</time></trkpt><trkpt lat="45.6217767" lon="11.2632383"><ele>728.0</ele><time>2026-04-17T12:12:11.847Z</time></trkpt><trkpt lat="45.62188" lon="11.2634117"><ele>726.4</ele><time>2026-04-17T12:12:12.847Z</time></trkpt><trkpt lat="45.6219767" lon="11.263585"><ele>724.8</ele><time>2026-04-17T12:12:13.847Z</time></trkpt><trkpt lat="45.6220467" lon="11.2637233"><ele>723.2</ele><time>2026-04-17T12:12:14.847Z</time></trkpt><trkpt lat="45.6221" lon="11.2638333"><ele>721.6</ele><time>2026-04-17T12:12:15.847Z</time></trkpt><trkpt lat="45.6221417" lon="11.2639117"><ele>720.0</ele><time>2026-04-17T12:12:16.847Z</time></trkpt><trkpt lat="45.6222117" lon="11.2639967"><ele>718.1666666666666</ele><time>2026-04-17T12:12:18.846Z</time></trkpt><trkpt lat="45.622295" lon="11.26402"><ele>716.3333333333334</ele><time>2026-04-17T12:12:20.847Z</time></trkpt><trkpt lat="45.622355" lon="11.26405"><ele>714.5</ele><time>2026-04-17T12:12:21.847Z</time></trkpt><trkpt lat="45.6224317" lon="11.2640867"><ele>712.6666666666667</ele><time>2026-04-17T12:12:22.846Z</time></trkpt><trkpt lat="45.6224983" lon="11.2641483"><ele>710.8333333333334</ele><time>2026-04-17T12:12:23.847Z</time></trkpt><trkpt lat="45.622535" lon="11.2642267"><ele>709.0</ele><time>2026-04-17T12:12:24.847Z</time></trkpt><trkpt lat="45.622565" lon="11.26438"><ele>709.0</ele><time>2026-04-17T12:12:26.847Z</time></trkpt><trkpt lat="45.6225867" lon="11.26447"><ele>709.0</ele><time>2026-04-17T12:12:27.847Z</time></trkpt><trkpt lat="45.6226183" lon="11.26458"><ele>709.0</ele><time>2026-04-17T12:12:28.847Z</time></trkpt><trkpt lat="45.622665" lon="11.264695"><ele>709.0</ele><time>2026-04-17T12:12:29.847Z</time></trkpt><trkpt lat="45.622715" lon="11.26479"><ele>709.0</ele><time>2026-04-17T12:12:30.847Z</time></trkpt><trkpt lat="45.6227683" lon="11.2648567"><ele>709.0</ele><time>2026-04-17T12:12:31.847Z</time></trkpt><trkpt lat="45.6228333" lon="11.2649017"><ele>709.5</ele><time>2026-04-17T12:12:32.847Z</time></trkpt><trkpt lat="45.6229067" lon="11.26494"><ele>710.0</ele><time>2026-04-17T12:12:33.847Z</time></trkpt><trkpt lat="45.6229817" lon="11.2649767"><ele>710.5</ele><time>2026-04-17T12:12:34.847Z</time></trkpt><trkpt lat="45.6230517" lon="11.265015"><ele>711.0</ele><time>2026-04-17T12:12:35.847Z</time></trkpt><trkpt lat="45.6231317" lon="11.26506"><ele>711.5</ele><time>2026-04-17T12:12:36.847Z</time></trkpt><trkpt lat="45.62322" lon="11.2651033"><ele>712.0</ele><time>2026-04-17T12:12:37.847Z</time></trkpt><trkpt lat="45.6233133" lon="11.2651333"><ele>712.0</ele><time>2026-04-17T12:12:38.847Z</time></trkpt><trkpt lat="45.623415" lon="11.2651617"><ele>712.0</ele><time>2026-04-17T12:12:39.847Z</time></trkpt><trkpt lat="45.6235217" lon="11.2651683"><ele>712.0</ele><time>2026-04-17T12:12:40.847Z</time></trkpt><trkpt lat="45.6236217" lon="11.26516"><ele>712.0</ele><time>2026-04-17T12:12:41.847Z</time></trkpt><trkpt lat="45.62372" lon="11.265155"><ele>712.0</ele><time>2026-04-17T12:12:42.847Z</time></trkpt><trkpt lat="45.6238" lon="11.2651483"><ele>714.2</ele><time>2026-04-17T12:12:43.847Z</time></trkpt><trkpt lat="45.6238717" lon="11.265125"><ele>716.4000000000001</ele><time>2026-04-17T12:12:44.847Z</time></trkpt><trkpt lat="45.6239483" lon="11.265075"><ele>718.5999999999999</ele><time>2026-04-17T12:12:45.847Z</time></trkpt><trkpt lat="45.6240367" lon="11.2650083"><ele>720.8</ele><time>2026-04-17T12:12:46.847Z</time></trkpt><trkpt lat="45.6241383" lon="11.2649333"><ele>723.0</ele><time>2026-04-17T12:12:47.847Z</time></trkpt><trkpt lat="45.6242417" lon="11.264875"><ele>723.0</ele><time>2026-04-17T12:12:48.846Z</time></trkpt><trkpt lat="45.6243517" lon="11.2648233"><ele>723.0</ele><time>2026-04-17T12:12:49.847Z</time></trkpt><trkpt lat="45.62446" lon="11.264795"><ele>723.0</ele><time>2026-04-17T12:12:50.847Z</time></trkpt><trkpt lat="45.62454" lon="11.2647783"><ele>723.0</ele><time>2026-04-17T12:12:51.847Z</time></trkpt><trkpt lat="45.6246167" lon="11.2647583"><ele>723.0</ele><time>2026-04-17T12:12:52.847Z</time></trkpt><trkpt lat="45.6246883" lon="11.2647367"><ele>725.0</ele><time>2026-04-17T12:12:53.847Z</time></trkpt><trkpt lat="45.624755" lon="11.264705"><ele>727.0</ele><time>2026-04-17T12:12:54.846Z</time></trkpt><trkpt lat="45.62481" lon="11.2646583"><ele>729.0</ele><time>2026-04-17T12:12:55.847Z</time></trkpt><trkpt lat="45.6249" lon="11.2645933"><ele>731.0</ele><time>2026-04-17T12:12:57.847Z</time></trkpt><trkpt lat="45.6249783" lon="11.26463"><ele>733.0</ele><time>2026-04-17T12:12:59.847Z</time></trkpt><trkpt lat="45.6250183" lon="11.2647017"><ele>735.0</ele><time>2026-04-17T12:13:00.847Z</time></trkpt><trkpt lat="45.6251317" lon="11.264775"><ele>735.0</ele><time>2026-04-17T12:13:02.847Z</time></trkpt><trkpt lat="45.6252017" lon="11.264775"><ele>735.0</ele><time>2026-04-17T12:13:03.846Z</time></trkpt><trkpt lat="45.6252867" lon="11.2647383"><ele>735.0</ele><time>2026-04-17T12:13:04.846Z</time></trkpt><trkpt lat="45.6253783" lon="11.26468"><ele>735.0</ele><time>2026-04-17T12:13:05.846Z</time></trkpt><trkpt lat="45.62546" lon="11.2645617"><ele>735.0</ele><time>2026-04-17T12:13:06.846Z</time></trkpt><trkpt lat="45.6255533" lon="11.26444"><ele>735.8</ele><time>2026-04-17T12:13:07.846Z</time></trkpt><trkpt lat="45.6256267" lon="11.2643383"><ele>736.6</ele><time>2026-04-17T12:13:08.846Z</time></trkpt><trkpt lat="45.6256867" lon="11.264235"><ele>737.4000000000001</ele><time>2026-04-17T12:13:09.846Z</time></trkpt><trkpt lat="45.6257483" lon="11.2641267"><ele>738.2</ele><time>2026-04-17T12:13:10.846Z</time></trkpt><trkpt lat="45.6258083" lon="11.2640417"><ele>739.0</ele><time>2026-04-17T12:13:11.846Z</time></trkpt><trkpt lat="45.625865" lon="11.2639683"><ele>740.4285714285714</ele><time>2026-04-17T12:13:12.846Z</time></trkpt><trkpt lat="45.6259217" lon="11.2639067"><ele>741.8571428571429</ele><time>2026-04-17T12:13:13.846Z</time></trkpt><trkpt lat="45.625985" lon="11.2638583"><ele>743.2857142857142</ele><time>2026-04-17T12:13:14.846Z</time></trkpt><trkpt lat="45.626055" lon="11.263835"><ele>744.7142857142858</ele><time>2026-04-17T12:13:15.846Z</time></trkpt><trkpt lat="45.6261183" lon="11.2638533"><ele>746.1428571428571</ele><time>2026-04-17T12:13:16.846Z</time></trkpt><trkpt lat="45.6262" lon="11.26385"><ele>747.5714285714286</ele><time>2026-04-17T12:13:17.846Z</time></trkpt><trkpt lat="45.6262633" lon="11.2638633"><ele>749.0</ele><time>2026-04-17T12:13:18.846Z</time></trkpt><trkpt lat="45.6263617" lon="11.2638567"><ele>749.0</ele><time>2026-04-17T12:13:20.846Z</time></trkpt><trkpt lat="45.6264633" lon="11.263865"><ele>749.0</ele><time>2026-04-17T12:13:22.846Z</time></trkpt><trkpt lat="45.6265767" lon="11.2638233"><ele>749.0</ele><time>2026-04-17T12:13:24.845Z</time></trkpt><trkpt lat="45.62668" lon="11.2637333"><ele>749.0</ele><time>2026-04-17T12:13:26.846Z</time></trkpt><trkpt lat="45.62673" lon="11.2636683"><ele>749.0</ele><time>2026-04-17T12:13:27.846Z</time></trkpt><trkpt lat="45.626785" lon="11.2635783"><ele>749.0</ele><time>2026-04-17T12:13:28.846Z</time></trkpt><trkpt lat="45.6268567" lon="11.2634883"><ele>749.0</ele><time>2026-04-17T12:13:29.846Z</time></trkpt><trkpt lat="45.6269167" lon="11.2634117"><ele>749.0</ele><time>2026-04-17T12:13:30.846Z</time></trkpt><trkpt lat="45.6269833" lon="11.263345"><ele>749.0</ele><time>2026-04-17T12:13:31.846Z</time></trkpt><trkpt lat="45.6270883" lon="11.2632817"><ele>749.0</ele><time>2026-04-17T12:13:33.846Z</time></trkpt><trkpt lat="45.6271517" lon="11.2632783"><ele>749.0</ele><time>2026-04-17T12:13:34.846Z</time></trkpt><trkpt lat="45.627245" lon="11.2633817"><ele>749.2857142857143</ele><time>2026-04-17T12:13:36.846Z</time></trkpt><trkpt lat="45.627295" lon="11.26345"><ele>749.5714285714286</ele><time>2026-04-17T12:13:37.845Z</time></trkpt><trkpt lat="45.6273567" lon="11.2635183"><ele>749.8571428571429</ele><time>2026-04-17T12:13:38.846Z</time></trkpt><trkpt lat="45.6274217" lon="11.2635617"><ele>750.1428571428571</ele><time>2026-04-17T12:13:39.846Z</time></trkpt><trkpt lat="45.6274867" lon="11.26358"><ele>750.4285714285714</ele><time>2026-04-17T12:13:40.846Z</time></trkpt><trkpt lat="45.6275667" lon="11.26357"><ele>750.7142857142858</ele><time>2026-04-17T12:13:41.846Z</time></trkpt><trkpt lat="45.6276433" lon="11.263545"><ele>751.0</ele><time>2026-04-17T12:13:42.846Z</time></trkpt><trkpt lat="45.6277117" lon="11.2635"><ele>751.0</ele><time>2026-04-17T12:13:43.846Z</time></trkpt><trkpt lat="45.6277933" lon="11.2634517"><ele>751.0</ele><time>2026-04-17T12:13:45.846Z</time></trkpt><trkpt lat="45.6278583" lon="11.2633967"><ele>751.0</ele><time>2026-04-17T12:13:48.846Z</time></trkpt><trkpt lat="45.62787" lon="11.2633033"><ele>751.0</ele><time>2026-04-17T12:13:50.846Z</time></trkpt><trkpt lat="45.6278533" lon="11.2631767"><ele>751.0</ele><time>2026-04-17T12:13:52.846Z</time></trkpt><trkpt lat="45.6278283" lon="11.2630867"><ele>751.0</ele><time>2026-04-17T12:13:53.846Z</time></trkpt><trkpt lat="45.6278033" lon="11.2629867"><ele>752.0</ele><time>2026-04-17T12:13:54.846Z</time></trkpt><trkpt lat="45.6277767" lon="11.2628733"><ele>753.0</ele><time>2026-04-17T12:13:55.846Z</time></trkpt><trkpt lat="45.6277633" lon="11.2627617"><ele>754.0</ele><time>2026-04-17T12:13:56.846Z</time></trkpt><trkpt lat="45.627745" lon="11.2626633"><ele>755.0</ele><time>2026-04-17T12:13:57.846Z</time></trkpt><trkpt lat="45.6277133" lon="11.2624983"><ele>756.0</ele><time>2026-04-17T12:13:59.846Z</time></trkpt><trkpt lat="45.6276967" lon="11.2623667"><ele>757.0</ele><time>2026-04-17T12:14:01.846Z</time></trkpt><trkpt lat="45.6277" lon="11.26221"><ele>757.8</ele><time>2026-04-17T12:14:03.846Z</time></trkpt><trkpt lat="45.6276867" lon="11.2621033"><ele>758.6</ele><time>2026-04-17T12:14:04.846Z</time></trkpt><trkpt lat="45.62768" lon="11.2619967"><ele>759.4</ele><time>2026-04-17T12:14:05.846Z</time></trkpt><trkpt lat="45.627695" lon="11.26188"><ele>760.1999999999999</ele><time>2026-04-17T12:14:06.846Z</time></trkpt><trkpt lat="45.6277383" lon="11.2617467"><ele>761.0</ele><time>2026-04-17T12:14:07.846Z</time></trkpt><trkpt lat="45.62781" lon="11.2616167"><ele>761.25</ele><time>2026-04-17T12:14:08.846Z</time></trkpt><trkpt lat="45.6279017" lon="11.2615017"><ele>761.5</ele><time>2026-04-17T12:14:09.846Z</time></trkpt><trkpt lat="45.62801" lon="11.261395"><ele>761.75</ele><time>2026-04-17T12:14:10.846Z</time></trkpt><trkpt lat="45.6281133" lon="11.2612883"><ele>762.0</ele><time>2026-04-17T12:14:11.846Z</time></trkpt><trkpt lat="45.6282283" lon="11.261165"><ele>765.25</ele><time>2026-04-17T12:14:12.845Z</time></trkpt><trkpt lat="45.6283367" lon="11.2610367"><ele>768.5</ele><time>2026-04-17T12:14:13.845Z</time></trkpt><trkpt lat="45.628435" lon="11.2609217"><ele>771.75</ele><time>2026-04-17T12:14:14.846Z</time></trkpt><trkpt lat="45.6285267" lon="11.2608233"><ele>775.0</ele><time>2026-04-17T12:14:15.845Z</time></trkpt><trkpt lat="45.628605" lon="11.26074"><ele>775.0</ele><time>2026-04-17T12:14:16.846Z</time></trkpt><trkpt lat="45.62868" lon="11.26066"><ele>775.0</ele><time>2026-04-17T12:14:17.846Z</time></trkpt><trkpt lat="45.6287567" lon="11.2605667"><ele>775.0</ele><time>2026-04-17T12:14:18.846Z</time></trkpt><trkpt lat="45.6288467" lon="11.26047"><ele>775.0</ele><time>2026-04-17T12:14:19.846Z</time></trkpt><trkpt lat="45.6289317" lon="11.2603667"><ele>775.0</ele><time>2026-04-17T12:14:20.846Z</time></trkpt><trkpt lat="45.6290117" lon="11.2602433"><ele>776.0</ele><time>2026-04-17T12:14:21.845Z</time></trkpt><trkpt lat="45.62908" lon="11.2601467"><ele>777.0</ele><time>2026-04-17T12:14:22.845Z</time></trkpt><trkpt lat="45.6291517" lon="11.2600317"><ele>778.0</ele><time>2026-04-17T12:14:23.846Z</time></trkpt><trkpt lat="45.62922" lon="11.25991"><ele>779.0</ele><time>2026-04-17T12:14:24.846Z</time></trkpt><trkpt lat="45.62927" lon="11.2597883"><ele>780.0</ele><time>2026-04-17T12:14:25.846Z</time></trkpt><trkpt lat="45.6293067" lon="11.2596883"><ele>780.0</ele><time>2026-04-17T12:14:26.846Z</time></trkpt><trkpt lat="45.6293417" lon="11.259595"><ele>780.0</ele><time>2026-04-17T12:14:27.846Z</time></trkpt><trkpt lat="45.6293717" lon="11.2594883"><ele>780.0</ele><time>2026-04-17T12:14:29.845Z</time></trkpt><trkpt lat="45.6294417" lon="11.259525"><ele>780.0</ele><time>2026-04-17T12:14:57.846Z</time></trkpt><trkpt lat="45.6294817" lon="11.2596317"><ele>780.0</ele><time>2026-04-17T12:14:59.846Z</time></trkpt><trkpt lat="45.6295383" lon="11.2597567"><ele>780.0</ele><time>2026-04-17T12:15:00.846Z</time></trkpt><trkpt lat="45.62957" lon="11.2598983"><ele>778.0</ele><time>2026-04-17T12:15:01.846Z</time></trkpt><trkpt lat="45.62963" lon="11.2600683"><ele>776.0</ele><time>2026-04-17T12:15:02.846Z</time></trkpt><trkpt lat="45.62971" lon="11.26026"><ele>774.0</ele><time>2026-04-17T12:15:03.846Z</time></trkpt><trkpt lat="45.6297883" lon="11.2604383"><ele>772.0</ele><time>2026-04-17T12:15:04.846Z</time></trkpt><trkpt lat="45.62985" lon="11.26059"><ele>772.25</ele><time>2026-04-17T12:15:05.846Z</time></trkpt><trkpt lat="45.6298867" lon="11.2607317"><ele>772.5</ele><time>2026-04-17T12:15:06.846Z</time></trkpt><trkpt lat="45.6299167" lon="11.2608983"><ele>772.75</ele><time>2026-04-17T12:15:07.846Z</time></trkpt><trkpt lat="45.6299367" lon="11.261085"><ele>773.0</ele><time>2026-04-17T12:15:08.846Z</time></trkpt><trkpt lat="45.6299417" lon="11.2612833"><ele>771.0</ele><time>2026-04-17T12:15:09.846Z</time></trkpt><trkpt lat="45.6299517" lon="11.2615033"><ele>769.0</ele><time>2026-04-17T12:15:10.846Z</time></trkpt><trkpt lat="45.62997" lon="11.2617167"><ele>767.0</ele><time>2026-04-17T12:15:11.846Z</time></trkpt><trkpt lat="45.63" lon="11.2619217"><ele>767.0</ele><time>2026-04-17T12:15:12.846Z</time></trkpt><trkpt lat="45.630025" lon="11.2621217"><ele>767.0</ele><time>2026-04-17T12:15:13.846Z</time></trkpt><trkpt lat="45.63005" lon="11.2622967"><ele>767.0</ele><time>2026-04-17T12:15:14.846Z</time></trkpt><trkpt lat="45.6300517" lon="11.2624583"><ele>767.0</ele><time>2026-04-17T12:15:15.846Z</time></trkpt><trkpt lat="45.6300467" lon="11.2626033"><ele>765.4000000000001</ele><time>2026-04-17T12:15:16.846Z</time></trkpt><trkpt lat="45.6300567" lon="11.2627417"><ele>763.8000000000001</ele><time>2026-04-17T12:15:17.845Z</time></trkpt><trkpt lat="45.63006" lon="11.262875"><ele>762.2</ele><time>2026-04-17T12:15:18.846Z</time></trkpt><trkpt lat="45.6300667" lon="11.2630017"><ele>760.6</ele><time>2026-04-17T12:15:19.846Z</time></trkpt><trkpt lat="45.63007" lon="11.2631367"><ele>759.0</ele><time>2026-04-17T12:15:20.846Z</time></trkpt><trkpt lat="45.63005" lon="11.263255"><ele>758.0</ele><time>2026-04-17T12:15:21.846Z</time></trkpt><trkpt lat="45.6300417" lon="11.26338"><ele>757.0</ele><time>2026-04-17T12:15:22.846Z</time></trkpt><trkpt lat="45.6300283" lon="11.2635283"><ele>756.0</ele><time>2026-04-17T12:15:23.846Z</time></trkpt><trkpt lat="45.6300267" lon="11.263705"><ele>755.0</ele><time>2026-04-17T12:15:24.846Z</time></trkpt><trkpt lat="45.6300483" lon="11.2638717"><ele>754.0</ele><time>2026-04-17T12:15:25.846Z</time></trkpt><trkpt lat="45.63007" lon="11.2640483"><ele>750.5</ele><time>2026-04-17T12:15:26.846Z</time></trkpt><trkpt lat="45.6301033" lon="11.2642183"><ele>747.0</ele><time>2026-04-17T12:15:27.846Z</time></trkpt><trkpt lat="45.6301483" lon="11.2643817"><ele>743.5</ele><time>2026-04-17T12:15:28.846Z</time></trkpt><trkpt lat="45.6301917" lon="11.2645433"><ele>740.0</ele><time>2026-04-17T12:15:29.846Z</time></trkpt><trkpt lat="45.6302367" lon="11.2647167"><ele>736.5</ele><time>2026-04-17T12:15:30.846Z</time></trkpt><trkpt lat="45.630255" lon="11.2648883"><ele>733.0</ele><time>2026-04-17T12:15:31.846Z</time></trkpt><trkpt lat="45.6302633" lon="11.2650567"><ele>729.5</ele><time>2026-04-17T12:15:32.846Z</time></trkpt><trkpt lat="45.6302567" lon="11.2652183"><ele>726.0</ele><time>2026-04-17T12:15:33.846Z</time></trkpt><trkpt lat="45.6302617" lon="11.265385"><ele>726.0</ele><time>2026-04-17T12:15:34.846Z</time></trkpt><trkpt lat="45.630285" lon="11.2655483"><ele>726.0</ele><time>2026-04-17T12:15:35.846Z</time></trkpt><trkpt lat="45.6303233" lon="11.2657267"><ele>726.0</ele><time>2026-04-17T12:15:36.846Z</time></trkpt><trkpt lat="45.63038" lon="11.2658933"><ele>726.0</ele><time>2026-04-17T12:15:37.845Z</time></trkpt><trkpt lat="45.63045" lon="11.2660533"><ele>728.25</ele><time>2026-04-17T12:15:38.846Z</time></trkpt><trkpt lat="45.6305017" lon="11.2662167"><ele>730.5</ele><time>2026-04-17T12:15:39.845Z</time></trkpt><trkpt lat="45.6305367" lon="11.266375"><ele>732.75</ele><time>2026-04-17T12:15:40.845Z</time></trkpt><trkpt lat="45.63055" lon="11.2665367"><ele>735.0</ele><time>2026-04-17T12:15:41.845Z</time></trkpt><trkpt lat="45.6305317" lon="11.266675"><ele>735.6</ele><time>2026-04-17T12:15:42.846Z</time></trkpt><trkpt lat="45.6304933" lon="11.2667833"><ele>736.2</ele><time>2026-04-17T12:15:43.846Z</time></trkpt><trkpt lat="45.6304333" lon="11.2668783"><ele>736.8</ele><time>2026-04-17T12:15:44.846Z</time></trkpt><trkpt lat="45.6303317" lon="11.2669533"><ele>737.4</ele><time>2026-04-17T12:15:45.846Z</time></trkpt><trkpt lat="45.6302183" lon="11.2670067"><ele>738.0</ele><time>2026-04-17T12:15:46.846Z</time></trkpt><trkpt lat="45.6300983" lon="11.267035"><ele>732.8</ele><time>2026-04-17T12:15:47.846Z</time></trkpt><trkpt lat="45.6299783" lon="11.267055"><ele>727.5999999999999</ele><time>2026-04-17T12:15:48.846Z</time></trkpt><trkpt lat="45.629865" lon="11.2670567"><ele>722.4000000000001</ele><time>2026-04-17T12:15:49.846Z</time></trkpt><trkpt lat="45.629765" lon="11.2670567"><ele>717.2</ele><time>2026-04-17T12:15:50.846Z</time></trkpt><trkpt lat="45.6296833" lon="11.26707"><ele>712.0</ele><time>2026-04-17T12:15:51.846Z</time></trkpt><trkpt lat="45.6296183" lon="11.2671183"><ele>712.0</ele><time>2026-04-17T12:15:52.846Z</time></trkpt><trkpt lat="45.62957" lon="11.26718"><ele>712.0</ele><time>2026-04-17T12:15:53.846Z</time></trkpt><trkpt lat="45.6295983" lon="11.2673433"><ele>712.0</ele><time>2026-04-17T12:15:55.846Z</time></trkpt><trkpt lat="45.6296917" lon="11.26745"><ele>712.0</ele><time>2026-04-17T12:15:57.845Z</time></trkpt><trkpt lat="45.6297533" lon="11.2675167"><ele>712.0</ele><time>2026-04-17T12:15:58.846Z</time></trkpt><trkpt lat="45.6298083" lon="11.2676"><ele>710.2</ele><time>2026-04-17T12:15:59.846Z</time></trkpt><trkpt lat="45.629835" lon="11.267685"><ele>708.4000000000001</ele><time>2026-04-17T12:16:00.846Z</time></trkpt><trkpt lat="45.629835" lon="11.26784"><ele>706.5999999999999</ele><time>2026-04-17T12:16:02.846Z</time></trkpt><trkpt lat="45.6298217" lon="11.26798"><ele>704.8</ele><time>2026-04-17T12:16:04.845Z</time></trkpt><trkpt lat="45.6298117" lon="11.2681667"><ele>703.0</ele><time>2026-04-17T12:16:06.846Z</time></trkpt><trkpt lat="45.6298117" lon="11.268295"><ele>701.5</ele><time>2026-04-17T12:16:07.846Z</time></trkpt><trkpt lat="45.6298183" lon="11.2684433"><ele>700.0</ele><time>2026-04-17T12:16:08.846Z</time></trkpt><trkpt lat="45.6298417" lon="11.2686167"><ele>698.5</ele><time>2026-04-17T12:16:09.846Z</time></trkpt><trkpt lat="45.6298933" lon="11.2687933"><ele>697.0</ele><time>2026-04-17T12:16:10.846Z</time></trkpt><trkpt lat="45.62995" lon="11.2689633"><ele>695.75</ele><time>2026-04-17T12:16:11.846Z</time></trkpt><trkpt lat="45.6300033" lon="11.26914"><ele>694.5</ele><time>2026-04-17T12:16:12.846Z</time></trkpt><trkpt lat="45.6300333" lon="11.26932"><ele>693.25</ele><time>2026-04-17T12:16:13.846Z</time></trkpt><trkpt lat="45.6300283" lon="11.2694983"><ele>692.0</ele><time>2026-04-17T12:16:14.846Z</time></trkpt><trkpt lat="45.6300267" lon="11.26966"><ele>688.75</ele><time>2026-04-17T12:16:15.846Z</time></trkpt><trkpt lat="45.63006" lon="11.2698233"><ele>685.5</ele><time>2026-04-17T12:16:16.846Z</time></trkpt><trkpt lat="45.6301283" lon="11.27"><ele>682.25</ele><time>2026-04-17T12:16:17.846Z</time></trkpt><trkpt lat="45.6302133" lon="11.2701833"><ele>679.0</ele><time>2026-04-17T12:16:18.846Z</time></trkpt><trkpt lat="45.6302883" lon="11.27036"><ele>680.2</ele><time>2026-04-17T12:16:19.846Z</time></trkpt><trkpt lat="45.6303367" lon="11.2705333"><ele>681.4000000000001</ele><time>2026-04-17T12:16:20.846Z</time></trkpt><trkpt lat="45.630355" lon="11.2707083"><ele>682.6</ele><time>2026-04-17T12:16:21.846Z</time></trkpt><trkpt lat="45.6303733" lon="11.2708467"><ele>683.8</ele><time>2026-04-17T12:16:22.846Z</time></trkpt><trkpt lat="45.63041" lon="11.27097"><ele>685.0</ele><time>2026-04-17T12:16:23.846Z</time></trkpt><trkpt lat="45.6304883" lon="11.271105"><ele>685.0</ele><time>2026-04-17T12:16:24.846Z</time></trkpt><trkpt lat="45.630585" lon="11.27122"><ele>685.0</ele><time>2026-04-17T12:16:25.846Z</time></trkpt><trkpt lat="45.630695" lon="11.2713383"><ele>685.0</ele><time>2026-04-17T12:16:26.846Z</time></trkpt><trkpt lat="45.6308017" lon="11.27146"><ele>685.0</ele><time>2026-04-17T12:16:27.846Z</time></trkpt><trkpt lat="45.6309033" lon="11.27156"><ele>679.8</ele><time>2026-04-17T12:16:28.846Z</time></trkpt><trkpt lat="45.6309917" lon="11.27167"><ele>674.6</ele><time>2026-04-17T12:16:29.846Z</time></trkpt><trkpt lat="45.6310683" lon="11.2717817"><ele>669.4000000000001</ele><time>2026-04-17T12:16:30.845Z</time></trkpt><trkpt lat="45.6311217" lon="11.27189"><ele>664.2</ele><time>2026-04-17T12:16:31.846Z</time></trkpt><trkpt lat="45.63115" lon="11.2719933"><ele>659.0</ele><time>2026-04-17T12:16:32.845Z</time></trkpt><trkpt lat="45.6311483" lon="11.2720883"><ele>659.0</ele><time>2026-04-17T12:16:33.845Z</time></trkpt><trkpt lat="45.6311617" lon="11.2721983"><ele>659.0</ele><time>2026-04-17T12:16:35.845Z</time></trkpt><trkpt lat="45.631245" lon="11.2721967"><ele>659.0</ele><time>2026-04-17T12:16:38.845Z</time></trkpt><trkpt lat="45.631315" lon="11.2720967"><ele>659.0</ele><time>2026-04-17T12:16:40.845Z</time></trkpt><trkpt lat="45.6314067" lon="11.2720133"><ele>659.0</ele><time>2026-04-17T12:16:42.845Z</time></trkpt><trkpt lat="45.6314933" lon="11.2720083"><ele>659.0</ele><time>2026-04-17T12:16:44.845Z</time></trkpt><trkpt lat="45.63158" lon="11.272055"><ele>659.0</ele><time>2026-04-17T12:16:46.845Z</time></trkpt><trkpt lat="45.6316717" lon="11.272095"><ele>659.0</ele><time>2026-04-17T12:16:48.845Z</time></trkpt><trkpt lat="45.63179" lon="11.2721033"><ele>659.0</ele><time>2026-04-17T12:16:50.845Z</time></trkpt><trkpt lat="45.63191" lon="11.2720467"><ele>659.0</ele><time>2026-04-17T12:16:52.845Z</time></trkpt><trkpt lat="45.6319683" lon="11.27199"><ele>658.5</ele><time>2026-04-17T12:16:53.845Z</time></trkpt><trkpt lat="45.632025" lon="11.2719283"><ele>658.0</ele><time>2026-04-17T12:16:54.845Z</time></trkpt><trkpt lat="45.63209" lon="11.271875"><ele>657.5</ele><time>2026-04-17T12:16:55.845Z</time></trkpt><trkpt lat="45.6321533" lon="11.27183"><ele>657.0</ele><time>2026-04-17T12:16:56.845Z</time></trkpt><trkpt lat="45.6322533" lon="11.27176"><ele>656.5</ele><time>2026-04-17T12:16:58.845Z</time></trkpt><trkpt lat="45.632315" lon="11.2716983"><ele>656.0</ele><time>2026-04-17T12:17:00.845Z</time></trkpt><trkpt lat="45.6323667" lon="11.2715967"><ele>656.0</ele><time>2026-04-17T12:17:03.845Z</time></trkpt><trkpt lat="45.6324083" lon="11.2715117"><ele>656.0</ele><time>2026-04-17T12:17:05.845Z</time></trkpt><trkpt lat="45.63245" lon="11.2714167"><ele>656.0</ele><time>2026-04-17T12:17:07.845Z</time></trkpt><trkpt lat="45.6325067" lon="11.27133"><ele>656.0</ele><time>2026-04-17T12:17:09.845Z</time></trkpt><trkpt lat="45.6325767" lon="11.2712933"><ele>656.0</ele><time>2026-04-17T12:17:11.845Z</time></trkpt><trkpt lat="45.6326567" lon="11.27126"><ele>656.0</ele><time>2026-04-17T12:17:13.845Z</time></trkpt><trkpt lat="45.6327233" lon="11.2712167"><ele>657.6666666666666</ele><time>2026-04-17T12:17:15.845Z</time></trkpt><trkpt lat="45.6327783" lon="11.27117"><ele>659.3333333333333</ele><time>2026-04-17T12:17:17.845Z</time></trkpt><trkpt lat="45.6328517" lon="11.2711"><ele>661.0</ele><time>2026-04-17T12:17:20.845Z</time></trkpt><trkpt lat="45.6329267" lon="11.27104"><ele>662.6666666666666</ele><time>2026-04-17T12:17:23.845Z</time></trkpt><trkpt lat="45.6329867" lon="11.2709567"><ele>664.3333333333334</ele><time>2026-04-17T12:17:26.845Z</time></trkpt><trkpt lat="45.6330633" lon="11.2708683"><ele>666.0</ele><time>2026-04-17T12:21:48.844Z</time></trkpt><trkpt lat="45.6330983" lon="11.2707717"><ele>666.0</ele><time>2026-04-17T12:21:51.843Z</time></trkpt><trkpt lat="45.633145" lon="11.270685"><ele>666.0</ele><time>2026-04-17T12:21:54.844Z</time></trkpt><trkpt lat="45.6331667" lon="11.2705933"><ele>666.0</ele><time>2026-04-17T12:21:57.844Z</time></trkpt><trkpt lat="45.6331733" lon="11.2704767"><ele>666.0</ele><time>2026-04-17T12:23:22.843Z</time></trkpt><trkpt lat="45.6331967" lon="11.27035"><ele>666.0</ele><time>2026-04-17T12:23:25.843Z</time></trkpt><trkpt lat="45.6332183" lon="11.2702583"><ele>666.0</ele><time>2026-04-17T12:23:27.843Z</time></trkpt><trkpt lat="45.6332667" lon="11.2701617"><ele>671.3333333333334</ele><time>2026-04-17T12:23:30.843Z</time></trkpt><trkpt lat="45.6333233" lon="11.27008"><ele>676.6666666666666</ele><time>2026-04-17T12:23:33.843Z</time></trkpt><trkpt lat="45.63339" lon="11.27002"><ele>682.0</ele><time>2026-04-17T12:23:35.843Z</time></trkpt><trkpt lat="45.633455" lon="11.2699667"><ele>687.3333333333333</ele><time>2026-04-17T12:23:37.843Z</time></trkpt><trkpt lat="45.633495" lon="11.2698933"><ele>692.6666666666666</ele><time>2026-04-17T12:23:39.843Z</time></trkpt><trkpt lat="45.6335367" lon="11.2698033"><ele>698.0</ele><time>2026-04-17T12:23:41.843Z</time></trkpt><trkpt lat="45.6335783" lon="11.2696767"><ele>702.8</ele><time>2026-04-17T12:23:43.843Z</time></trkpt><trkpt lat="45.6336117" lon="11.2695483"><ele>707.5999999999999</ele><time>2026-04-17T12:23:45.843Z</time></trkpt><trkpt lat="45.6336533" lon="11.2694217"><ele>712.4000000000001</ele><time>2026-04-17T12:23:47.843Z</time></trkpt><trkpt lat="45.633685" lon="11.2692983"><ele>717.2</ele><time>2026-04-17T12:23:49.843Z</time></trkpt><trkpt lat="45.63373" lon="11.2691967"><ele>722.0</ele><time>2026-04-17T12:23:51.843Z</time></trkpt><trkpt lat="45.6337733" lon="11.2690917"><ele>716.6666666666666</ele><time>2026-04-17T12:23:53.843Z</time></trkpt><trkpt lat="45.63382" lon="11.2689933"><ele>711.3333333333333</ele><time>2026-04-17T12:23:55.843Z</time></trkpt><trkpt lat="45.6338683" lon="11.2689033"><ele>706.0</ele><time>2026-04-17T12:23:57.842Z</time></trkpt><trkpt lat="45.633925" lon="11.2688317"><ele>700.6666666666666</ele><time>2026-04-17T12:23:59.843Z</time></trkpt><trkpt lat="45.6339733" lon="11.26876"><ele>695.3333333333334</ele><time>2026-04-17T12:24:01.843Z</time></trkpt><trkpt lat="45.6340033" lon="11.268675"><ele>690.0</ele><time>2026-04-17T12:24:03.843Z</time></trkpt><trkpt lat="45.6340583" lon="11.2685683"><ele>690.0</ele><time>2026-04-17T12:24:05.843Z</time></trkpt><trkpt lat="45.6341117" lon="11.2684967"><ele>690.0</ele><time>2026-04-17T12:24:07.843Z</time></trkpt><trkpt lat="45.63416" lon="11.268415"><ele>690.0</ele><time>2026-04-17T12:24:09.843Z</time></trkpt><trkpt lat="45.6342133" lon="11.2683217"><ele>690.0</ele><time>2026-04-17T12:24:11.843Z</time></trkpt><trkpt lat="45.63423" lon="11.2682"><ele>690.0</ele><time>2026-04-17T12:24:13.843Z</time></trkpt><trkpt lat="45.6342283" lon="11.2680633"><ele>690.0</ele><time>2026-04-17T12:24:15.843Z</time></trkpt><trkpt lat="45.6342217" lon="11.2679433"><ele>689.3333333333334</ele><time>2026-04-17T12:24:17.843Z</time></trkpt><trkpt lat="45.6342167" lon="11.2678333"><ele>688.6666666666666</ele><time>2026-04-17T12:24:19.842Z</time></trkpt><trkpt lat="45.6342067" lon="11.2677183"><ele>688.0</ele><time>2026-04-17T12:24:21.843Z</time></trkpt><trkpt lat="45.6342017" lon="11.2676267"><ele>687.3333333333333</ele><time>2026-04-17T12:24:23.842Z</time></trkpt><trkpt lat="45.6342333" lon="11.267515"><ele>686.6666666666666</ele><time>2026-04-17T12:24:26.843Z</time></trkpt><trkpt lat="45.6342517" lon="11.2674133"><ele>686.0</ele><time>2026-04-17T12:24:29.843Z</time></trkpt><trkpt lat="45.63421" lon="11.26733"><ele>686.0</ele><time>2026-04-17T12:24:33.843Z</time></trkpt><trkpt lat="45.6341717" lon="11.267165"><ele>686.0</ele><time>2026-04-17T12:29:51.841Z</time></trkpt><trkpt lat="45.634195" lon="11.2672633"><ele>686.0</ele><time>2026-04-17T12:30:10.841Z</time></trkpt><trkpt lat="45.634245" lon="11.2673317"><ele>686.0</ele><time>2026-04-17T12:30:12.84Z</time></trkpt><trkpt lat="45.634215" lon="11.2674167"><ele>686.0</ele><time>2026-04-17T12:30:15.841Z</time></trkpt><trkpt lat="45.6341667" lon="11.2674817"><ele>686.0</ele><time>2026-04-17T12:30:17.841Z</time></trkpt><trkpt lat="45.6341433" lon="11.2675833"><ele>686.0</ele><time>2026-04-17T12:30:19.841Z</time></trkpt><trkpt lat="45.634145" lon="11.2676967"><ele>686.0</ele><time>2026-04-17T12:30:21.841Z</time></trkpt><trkpt lat="45.6341667" lon="11.267805"><ele>686.0</ele><time>2026-04-17T12:30:23.841Z</time></trkpt><trkpt lat="45.6341867" lon="11.2679183"><ele>686.0</ele><time>2026-04-17T12:30:25.841Z</time></trkpt><trkpt lat="45.63419" lon="11.2680383"><ele>686.0</ele><time>2026-04-17T12:30:27.841Z</time></trkpt><trkpt lat="45.6341783" lon="11.268165"><ele>686.0</ele><time>2026-04-17T12:30:29.841Z</time></trkpt><trkpt lat="45.634155" lon="11.2682883"><ele>686.6666666666666</ele><time>2026-04-17T12:30:31.841Z</time></trkpt><trkpt lat="45.6341217" lon="11.2683767"><ele>687.3333333333333</ele><time>2026-04-17T12:30:33.841Z</time></trkpt><trkpt lat="45.6340683" lon="11.2684517"><ele>688.0</ele><time>2026-04-17T12:30:35.841Z</time></trkpt><trkpt lat="45.6340217" lon="11.26856"><ele>688.6666666666666</ele><time>2026-04-17T12:30:37.84Z</time></trkpt><trkpt lat="45.6339783" lon="11.2686617"><ele>689.3333333333334</ele><time>2026-04-17T12:30:39.841Z</time></trkpt><trkpt lat="45.6339133" lon="11.268755"><ele>690.0</ele><time>2026-04-17T12:30:42.841Z</time></trkpt><trkpt lat="45.6338517" lon="11.2688367"><ele>690.0</ele><time>2026-04-17T12:30:44.841Z</time></trkpt><trkpt lat="45.6337917" lon="11.2689333"><ele>690.0</ele><time>2026-04-17T12:30:46.841Z</time></trkpt><trkpt lat="45.633725" lon="11.2690633"><ele>690.0</ele><time>2026-04-17T12:30:48.841Z</time></trkpt><trkpt lat="45.633665" lon="11.2692033"><ele>690.0</ele><time>2026-04-17T12:30:50.841Z</time></trkpt><trkpt lat="45.6336367" lon="11.2692883"><ele>690.0</ele><time>2026-04-17T12:30:51.841Z</time></trkpt><trkpt lat="45.633585" lon="11.2694333"><ele>691.3333333333334</ele><time>2026-04-17T12:30:53.84Z</time></trkpt><trkpt lat="45.6335333" lon="11.2695767"><ele>692.6666666666666</ele><time>2026-04-17T12:30:55.841Z</time></trkpt><trkpt lat="45.6334883" lon="11.269715"><ele>694.0</ele><time>2026-04-17T12:30:57.841Z</time></trkpt><trkpt lat="45.6334583" lon="11.2698233"><ele>695.3333333333333</ele><time>2026-04-17T12:30:59.841Z</time></trkpt><trkpt lat="45.6334133" lon="11.2698883"><ele>696.6666666666666</ele><time>2026-04-17T12:31:01.841Z</time></trkpt><trkpt lat="45.6333533" lon="11.2699333"><ele>698.0</ele><time>2026-04-17T12:31:03.841Z</time></trkpt><trkpt lat="45.6333067" lon="11.270005"><ele>698.0</ele><time>2026-04-17T12:31:05.841Z</time></trkpt><trkpt lat="45.633265" lon="11.2700917"><ele>698.0</ele><time>2026-04-17T12:31:07.841Z</time></trkpt><trkpt lat="45.6332217" lon="11.2702083"><ele>698.0</ele><time>2026-04-17T12:31:09.841Z</time></trkpt><trkpt lat="45.633205" lon="11.270325"><ele>698.0</ele><time>2026-04-17T12:31:11.841Z</time></trkpt><trkpt lat="45.6331883" lon="11.270435"><ele>698.0</ele><time>2026-04-17T12:31:13.841Z</time></trkpt><trkpt lat="45.633165" lon="11.2705483"><ele>698.0</ele><time>2026-04-17T12:31:16.841Z</time></trkpt><trkpt lat="45.6331317" lon="11.27068"><ele>696.5</ele><time>2026-04-17T12:31:19.841Z</time></trkpt><trkpt lat="45.6330967" lon="11.2707883"><ele>695.0</ele><time>2026-04-17T12:31:22.841Z</time></trkpt><trkpt lat="45.6330533" lon="11.2708817"><ele>693.5</ele><time>2026-04-17T12:31:26.841Z</time></trkpt><trkpt lat="45.6329917" lon="11.270965"><ele>692.0</ele><time>2026-04-17T12:31:30.84Z</time></trkpt><trkpt lat="45.63295" lon="11.27106"><ele>690.5</ele><time>2026-04-17T12:31:33.841Z</time></trkpt><trkpt lat="45.6328867" lon="11.2711317"><ele>689.0</ele><time>2026-04-17T12:31:38.84Z</time></trkpt><trkpt lat="45.6328033" lon="11.2711933"><ele>689.0</ele><time>2026-04-17T12:31:41.841Z</time></trkpt><trkpt lat="45.63274" lon="11.2712217"><ele>689.0</ele><time>2026-04-17T12:31:43.841Z</time></trkpt><trkpt lat="45.6326683" lon="11.2712267"><ele>689.0</ele><time>2026-04-17T12:31:47.84Z</time></trkpt><trkpt lat="45.6325983" lon="11.271245"><ele>689.0</ele><time>2026-04-17T12:31:50.84Z</time></trkpt><trkpt lat="45.6325267" lon="11.271325"><ele>689.0</ele><time>2026-04-17T12:31:53.84Z</time></trkpt><trkpt lat="45.6324783" lon="11.2713917"><ele>689.0</ele><time>2026-04-17T12:31:56.84Z</time></trkpt><trkpt lat="45.6324267" lon="11.2714583"><ele>689.0</ele><time>2026-04-17T12:31:59.84Z</time></trkpt><trkpt lat="45.632375" lon="11.27154"><ele>684.0</ele><time>2026-04-17T12:32:02.84Z</time></trkpt><trkpt lat="45.63231" lon="11.2716067"><ele>679.0</ele><time>2026-04-17T12:32:05.839Z</time></trkpt><trkpt lat="45.6322267" lon="11.271665"><ele>674.0</ele><time>2026-04-17T12:32:08.84Z</time></trkpt><trkpt lat="45.6321683" lon="11.2717"><ele>669.0</ele><time>2026-04-17T12:32:10.84Z</time></trkpt><trkpt lat="45.6321067" lon="11.2717367"><ele>664.0</ele><time>2026-04-17T12:32:12.84Z</time></trkpt><trkpt lat="45.6320217" lon="11.2718267"><ele>659.0</ele><time>2026-04-17T12:32:14.84Z</time></trkpt><trkpt lat="45.63194" lon="11.27192"><ele>659.0</ele><time>2026-04-17T12:32:16.84Z</time></trkpt><trkpt lat="45.6318583" lon="11.2719617"><ele>659.0</ele><time>2026-04-17T12:32:18.84Z</time></trkpt><trkpt lat="45.6317617" lon="11.27197"><ele>659.0</ele><time>2026-04-17T12:32:20.84Z</time></trkpt><trkpt lat="45.6316567" lon="11.2719433"><ele>659.0</ele><time>2026-04-17T12:32:22.84Z</time></trkpt><trkpt lat="45.631555" lon="11.2719267"><ele>659.0</ele><time>2026-04-17T12:32:24.84Z</time></trkpt><trkpt lat="45.6314517" lon="11.2719417"><ele>659.0</ele><time>2026-04-17T12:32:26.84Z</time></trkpt><trkpt lat="45.6313533" lon="11.2720367"><ele>659.0</ele><time>2026-04-17T12:32:28.84Z</time></trkpt><trkpt lat="45.6313033" lon="11.2721367"><ele>659.0</ele><time>2026-04-17T12:32:30.84Z</time></trkpt><trkpt lat="45.6313333" lon="11.2722483"><ele>659.0</ele><time>2026-04-17T12:32:33.84Z</time></trkpt><trkpt lat="45.6313733" lon="11.2723617"><ele>659.0</ele><time>2026-04-17T12:32:35.84Z</time></trkpt><trkpt lat="45.6314483" lon="11.2724583"><ele>656.5</ele><time>2026-04-17T12:32:37.84Z</time></trkpt><trkpt lat="45.63151" lon="11.2725817"><ele>654.0</ele><time>2026-04-17T12:32:39.84Z</time></trkpt><trkpt lat="45.63159" lon="11.272715"><ele>651.5</ele><time>2026-04-17T12:32:41.84Z</time></trkpt><trkpt lat="45.6316683" lon="11.272855"><ele>649.0</ele><time>2026-04-17T12:32:43.839Z</time></trkpt><trkpt lat="45.6317233" lon="11.2729967"><ele>649.0</ele><time>2026-04-17T12:32:45.84Z</time></trkpt><trkpt lat="45.6317567" lon="11.2731433"><ele>649.0</ele><time>2026-04-17T12:32:47.839Z</time></trkpt><trkpt lat="45.6317517" lon="11.273295"><ele>649.0</ele><time>2026-04-17T12:32:49.84Z</time></trkpt><trkpt lat="45.6317267" lon="11.2734067"><ele>649.0</ele><time>2026-04-17T12:32:51.84Z</time></trkpt><trkpt lat="45.631705" lon="11.273565"><ele>649.0</ele><time>2026-04-17T12:32:53.84Z</time></trkpt><trkpt lat="45.63171" lon="11.27373"><ele>649.0</ele><time>2026-04-17T12:32:55.84Z</time></trkpt><trkpt lat="45.6317233" lon="11.2738533"><ele>649.0</ele><time>2026-04-17T12:32:57.84Z</time></trkpt><trkpt lat="45.6317283" lon="11.273985"><ele>649.0</ele><time>2026-04-17T12:32:59.84Z</time></trkpt><trkpt lat="45.63175" lon="11.2740833"><ele>649.0</ele><time>2026-04-17T12:33:01.839Z</time></trkpt><trkpt lat="45.631805" lon="11.2741867"><ele>649.0</ele><time>2026-04-17T12:33:04.84Z</time></trkpt><trkpt lat="45.6318317" lon="11.2742883"><ele>649.0</ele><time>2026-04-17T12:33:39.84Z</time></trkpt><trkpt lat="45.6318183" lon="11.2743883"><ele>649.0</ele><time>2026-04-17T12:33:42.84Z</time></trkpt><trkpt lat="45.6317967" lon="11.2743033"><ele>649.0</ele><time>2026-04-17T12:34:02.84Z</time></trkpt><trkpt lat="45.631795" lon="11.27421"><ele>649.0</ele><time>2026-04-17T12:34:04.84Z</time></trkpt><trkpt lat="45.6317617" lon="11.2740717"><ele>649.0</ele><time>2026-04-17T12:34:06.84Z</time></trkpt><trkpt lat="45.6317217" lon="11.2739467"><ele>649.0</ele><time>2026-04-17T12:34:08.84Z</time></trkpt><trkpt lat="45.6317183" lon="11.2738133"><ele>649.0</ele><time>2026-04-17T12:34:10.84Z</time></trkpt><trkpt lat="45.6317083" lon="11.2736533"><ele>649.0</ele><time>2026-04-17T12:34:12.84Z</time></trkpt><trkpt lat="45.6317267" lon="11.2735117"><ele>649.0</ele><time>2026-04-17T12:34:14.84Z</time></trkpt><trkpt lat="45.63177" lon="11.2734117"><ele>649.0</ele><time>2026-04-17T12:34:16.84Z</time></trkpt><trkpt lat="45.6317883" lon="11.2732917"><ele>649.0</ele><time>2026-04-17T12:34:18.84Z</time></trkpt><trkpt lat="45.6317883" lon="11.273145"><ele>649.0</ele><time>2026-04-17T12:34:20.84Z</time></trkpt><trkpt lat="45.6317533" lon="11.2729833"><ele>649.0</ele><time>2026-04-17T12:34:22.84Z</time></trkpt><trkpt lat="45.6317183" lon="11.2728867"><ele>649.0</ele><time>2026-04-17T12:34:23.84Z</time></trkpt><trkpt lat="45.6316817" lon="11.2728067"><ele>649.0</ele><time>2026-04-17T12:34:24.84Z</time></trkpt><trkpt lat="45.63161" lon="11.272685"><ele>649.0</ele><time>2026-04-17T12:34:26.84Z</time></trkpt><trkpt lat="45.631525" lon="11.27255"><ele>649.0</ele><time>2026-04-17T12:34:28.84Z</time></trkpt><trkpt lat="45.63148" lon="11.2724717"><ele>649.0</ele><time>2026-04-17T12:34:29.84Z</time></trkpt><trkpt lat="45.6314333" lon="11.2724017"><ele>649.0</ele><time>2026-04-17T12:34:30.84Z</time></trkpt><trkpt lat="45.631355" lon="11.27229"><ele>649.0</ele><time>2026-04-17T12:34:32.839Z</time></trkpt><trkpt lat="45.6312667" lon="11.2722067"><ele>649.0</ele><time>2026-04-17T12:34:34.839Z</time></trkpt><trkpt lat="45.6311417" lon="11.272155"><ele>649.0</ele><time>2026-04-17T12:34:36.839Z</time></trkpt><trkpt lat="45.6310433" lon="11.2721417"><ele>651.5</ele><time>2026-04-17T12:34:37.838Z</time></trkpt><trkpt lat="45.6309133" lon="11.2721233"><ele>654.0</ele><time>2026-04-17T12:34:38.839Z</time></trkpt><trkpt lat="45.630775" lon="11.27208"><ele>656.5</ele><time>2026-04-17T12:34:39.838Z</time></trkpt><trkpt lat="45.6306333" lon="11.2720267"><ele>659.0</ele><time>2026-04-17T12:34:40.839Z</time></trkpt><trkpt lat="45.6304983" lon="11.2719567"><ele>659.0</ele><time>2026-04-17T12:34:41.839Z</time></trkpt><trkpt lat="45.6303833" lon="11.2718917"><ele>659.0</ele><time>2026-04-17T12:34:42.839Z</time></trkpt><trkpt lat="45.6302783" lon="11.2718567"><ele>659.0</ele><time>2026-04-17T12:34:43.839Z</time></trkpt><trkpt lat="45.6301717" lon="11.271865"><ele>659.0</ele><time>2026-04-17T12:34:44.839Z</time></trkpt><trkpt lat="45.630065" lon="11.2719083"><ele>659.0</ele><time>2026-04-17T12:34:45.839Z</time></trkpt><trkpt lat="45.6299583" lon="11.271985"><ele>656.0</ele><time>2026-04-17T12:34:46.839Z</time></trkpt><trkpt lat="45.6298783" lon="11.27209"><ele>653.0</ele><time>2026-04-17T12:34:47.838Z</time></trkpt><trkpt lat="45.6298267" lon="11.2722117"><ele>650.0</ele><time>2026-04-17T12:34:48.839Z</time></trkpt><trkpt lat="45.6298033" lon="11.27236"><ele>647.0</ele><time>2026-04-17T12:34:49.839Z</time></trkpt><trkpt lat="45.6297783" lon="11.2725167"><ele>644.0</ele><time>2026-04-17T12:34:50.839Z</time></trkpt><trkpt lat="45.6297333" lon="11.2726583"><ele>642.2</ele><time>2026-04-17T12:34:51.839Z</time></trkpt><trkpt lat="45.6296683" lon="11.27277"><ele>640.4000000000001</ele><time>2026-04-17T12:34:52.839Z</time></trkpt><trkpt lat="45.62959" lon="11.2728517"><ele>638.6</ele><time>2026-04-17T12:34:53.839Z</time></trkpt><trkpt lat="45.62948" lon="11.2729"><ele>636.8</ele><time>2026-04-17T12:34:54.839Z</time></trkpt><trkpt lat="45.6293767" lon="11.27293"><ele>635.0</ele><time>2026-04-17T12:34:55.839Z</time></trkpt><trkpt lat="45.6292867" lon="11.272965"><ele>633.2</ele><time>2026-04-17T12:34:56.839Z</time></trkpt><trkpt lat="45.62921" lon="11.2729767"><ele>631.4</ele><time>2026-04-17T12:34:57.839Z</time></trkpt><trkpt lat="45.6291217" lon="11.2729833"><ele>629.6</ele><time>2026-04-17T12:34:59.839Z</time></trkpt><trkpt lat="45.6290533" lon="11.2731267"><ele>627.8</ele><time>2026-04-17T12:35:02.839Z</time></trkpt><trkpt lat="45.629045" lon="11.2732483"><ele>626.0</ele><time>2026-04-17T12:35:03.839Z</time></trkpt><trkpt lat="45.629045" lon="11.2734067"><ele>624.25</ele><time>2026-04-17T12:35:04.839Z</time></trkpt><trkpt lat="45.6290567" lon="11.2735967"><ele>622.5</ele><time>2026-04-17T12:35:05.839Z</time></trkpt><trkpt lat="45.6290767" lon="11.2737833"><ele>620.75</ele><time>2026-04-17T12:35:06.839Z</time></trkpt><trkpt lat="45.6291133" lon="11.273955"><ele>619.0</ele><time>2026-04-17T12:35:07.839Z</time></trkpt><trkpt lat="45.6291617" lon="11.2741067"><ele>617.0</ele><time>2026-04-17T12:35:08.839Z</time></trkpt><trkpt lat="45.6292383" lon="11.27425"><ele>615.0</ele><time>2026-04-17T12:35:09.839Z</time></trkpt><trkpt lat="45.62933" lon="11.2743783"><ele>613.0</ele><time>2026-04-17T12:35:10.839Z</time></trkpt><trkpt lat="45.6294217" lon="11.274495"><ele>611.0</ele><time>2026-04-17T12:35:11.839Z</time></trkpt><trkpt lat="45.6295183" lon="11.2745883"><ele>612.4</ele><time>2026-04-17T12:35:12.838Z</time></trkpt><trkpt lat="45.629625" lon="11.274675"><ele>613.8</ele><time>2026-04-17T12:35:13.839Z</time></trkpt><trkpt lat="45.6297217" lon="11.27476"><ele>615.1999999999999</ele><time>2026-04-17T12:35:14.838Z</time></trkpt><trkpt lat="45.6298067" lon="11.27484"><ele>616.6</ele><time>2026-04-17T12:35:15.839Z</time></trkpt><trkpt lat="45.6298717" lon="11.2749033"><ele>618.0</ele><time>2026-04-17T12:35:16.839Z</time></trkpt><trkpt lat="45.6299533" lon="11.275005"><ele>618.0</ele><time>2026-04-17T12:35:18.838Z</time></trkpt><trkpt lat="45.630015" lon="11.27508"><ele>618.0</ele><time>2026-04-17T12:35:20.839Z</time></trkpt><trkpt lat="45.6300983" lon="11.2751583"><ele>618.0</ele><time>2026-04-17T12:35:22.839Z</time></trkpt><trkpt lat="45.6301567" lon="11.275205"><ele>618.0</ele><time>2026-04-17T12:35:23.839Z</time></trkpt><trkpt lat="45.6302283" lon="11.2752483"><ele>618.0</ele><time>2026-04-17T12:35:24.839Z</time></trkpt><trkpt lat="45.6303217" lon="11.27529"><ele>618.0</ele><time>2026-04-17T12:35:25.838Z</time></trkpt><trkpt lat="45.6304167" lon="11.2753433"><ele>616.8</ele><time>2026-04-17T12:35:26.839Z</time></trkpt><trkpt lat="45.6305183" lon="11.27541"><ele>615.5999999999999</ele><time>2026-04-17T12:35:27.839Z</time></trkpt><trkpt lat="45.6306083" lon="11.27549"><ele>614.4000000000001</ele><time>2026-04-17T12:35:28.839Z</time></trkpt><trkpt lat="45.630685" lon="11.2755883"><ele>613.2</ele><time>2026-04-17T12:35:29.839Z</time></trkpt><trkpt lat="45.6307517" lon="11.275685"><ele>612.0</ele><time>2026-04-17T12:35:30.839Z</time></trkpt><trkpt lat="45.6308033" lon="11.275775"><ele>612.0</ele><time>2026-04-17T12:35:31.839Z</time></trkpt><trkpt lat="45.630875" lon="11.2758917"><ele>612.0</ele><time>2026-04-17T12:35:33.839Z</time></trkpt><trkpt lat="45.630945" lon="11.2759117"><ele>612.0</ele><time>2026-04-17T12:35:36.839Z</time></trkpt><trkpt lat="45.6310283" lon="11.275885"><ele>612.0</ele><time>2026-04-17T12:35:38.839Z</time></trkpt><trkpt lat="45.6311433" lon="11.2758617"><ele>612.0</ele><time>2026-04-17T12:35:40.839Z</time></trkpt><trkpt lat="45.6312033" lon="11.27583"><ele>612.0</ele><time>2026-04-17T12:35:41.839Z</time></trkpt><trkpt lat="45.6312983" lon="11.27577"><ele>611.0</ele><time>2026-04-17T12:35:43.839Z</time></trkpt><trkpt lat="45.63138" lon="11.2757017"><ele>610.0</ele><time>2026-04-17T12:35:45.839Z</time></trkpt><trkpt lat="45.6314533" lon="11.2756117"><ele>609.0</ele><time>2026-04-17T12:35:47.838Z</time></trkpt><trkpt lat="45.63155" lon="11.2755333"><ele>608.0</ele><time>2026-04-17T12:35:49.838Z</time></trkpt><trkpt lat="45.631655" lon="11.2754533"><ele>607.0</ele><time>2026-04-17T12:35:51.839Z</time></trkpt><trkpt lat="45.631715" lon="11.2754133"><ele>610.8000000000001</ele><time>2026-04-17T12:35:52.839Z</time></trkpt><trkpt lat="45.6318333" lon="11.2753583"><ele>614.6</ele><time>2026-04-17T12:35:54.839Z</time></trkpt><trkpt lat="45.631945" lon="11.2753467"><ele>618.4000000000001</ele><time>2026-04-17T12:35:56.839Z</time></trkpt><trkpt lat="45.6320633" lon="11.2753383"><ele>622.2</ele><time>2026-04-17T12:35:58.839Z</time></trkpt><trkpt lat="45.6321283" lon="11.2753267"><ele>626.0</ele><time>2026-04-17T12:35:59.839Z</time></trkpt><trkpt lat="45.632205" lon="11.2753017"><ele>626.0</ele><time>2026-04-17T12:36:00.839Z</time></trkpt><trkpt lat="45.6322783" lon="11.2752583"><ele>626.0</ele><time>2026-04-17T12:36:01.839Z</time></trkpt><trkpt lat="45.6323567" lon="11.27523"><ele>626.0</ele><time>2026-04-17T12:36:02.838Z</time></trkpt><trkpt lat="45.6324517" lon="11.27518"><ele>626.0</ele><time>2026-04-17T12:36:04.839Z</time></trkpt><trkpt lat="45.6325167" lon="11.2751167"><ele>626.0</ele><time>2026-04-17T12:36:07.839Z</time></trkpt><trkpt lat="45.6325667" lon="11.2750583"><ele>626.0</ele><time>2026-04-17T12:36:09.839Z</time></trkpt><trkpt lat="45.6326133" lon="11.2749717"><ele>626.0</ele><time>2026-04-17T12:36:11.839Z</time></trkpt><trkpt lat="45.6326083" lon="11.274875"><ele>626.0</ele><time>2026-04-17T12:36:13.839Z</time></trkpt><trkpt lat="45.6325767" lon="11.2747767"><ele>626.0</ele><time>2026-04-17T12:36:15.838Z</time></trkpt><trkpt lat="45.6325217" lon="11.2746783"><ele>626.0</ele><time>2026-04-17T12:36:17.839Z</time></trkpt><trkpt lat="45.6324733" lon="11.2745667"><ele>626.0</ele><time>2026-04-17T12:36:19.839Z</time></trkpt><trkpt lat="45.6324317" lon="11.2744617"><ele>626.0</ele><time>2026-04-17T12:36:28.839Z</time></trkpt><trkpt lat="45.6323767" lon="11.2744167"><ele>627.0</ele><time>2026-04-17T12:36:30.839Z</time></trkpt><trkpt lat="45.6323117" lon="11.27445"><ele>628.0</ele><time>2026-04-17T12:36:32.839Z</time></trkpt><trkpt lat="45.6322533" lon="11.274525"><ele>629.0</ele><time>2026-04-17T12:36:34.839Z</time></trkpt><trkpt lat="45.6321883" lon="11.2745183"><ele>630.0</ele><time>2026-04-17T12:41:50.837Z</time></trkpt><trkpt lat="45.6322117" lon="11.274405"><ele>631.0</ele><time>2026-04-17T12:41:52.837Z</time></trkpt><trkpt lat="45.6322367" lon="11.274265"><ele>632.0</ele><time>2026-04-17T12:41:54.837Z</time></trkpt><trkpt lat="45.6322317" lon="11.2741433"><ele>632.0</ele><time>2026-04-17T12:41:56.837Z</time></trkpt><trkpt lat="45.6322083" lon="11.2740067"><ele>632.0</ele><time>2026-04-17T12:41:58.837Z</time></trkpt><trkpt lat="45.6321967" lon="11.27388"><ele>632.0</ele><time>2026-04-17T12:42:00.837Z</time></trkpt><trkpt lat="45.6322033" lon="11.2737717"><ele>632.0</ele><time>2026-04-17T12:42:02.837Z</time></trkpt><trkpt lat="45.6322133" lon="11.2736767"><ele>632.0</ele><time>2026-04-17T12:42:04.837Z</time></trkpt><trkpt lat="45.6322167" lon="11.273575"><ele>632.0</ele><time>2026-04-17T12:42:06.837Z</time></trkpt><trkpt lat="45.63222" lon="11.273475"><ele>632.0</ele><time>2026-04-17T12:42:08.837Z</time></trkpt><trkpt lat="45.632255" lon="11.2732783"><ele>632.0</ele><time>2026-04-17T12:44:31.836Z</time></trkpt><trkpt lat="45.6322383" lon="11.273165"><ele>632.0</ele><time>2026-04-17T12:44:38.836Z</time></trkpt><trkpt lat="45.6322383" lon="11.27301"><ele>632.0</ele><time>2026-04-17T12:44:48.836Z</time></trkpt><trkpt lat="45.63225" lon="11.2729033"><ele>632.0</ele><time>2026-04-17T12:44:50.835Z</time></trkpt><trkpt lat="45.6322217" lon="11.2728217"><ele>633.5</ele><time>2026-04-17T12:45:11.836Z</time></trkpt><trkpt lat="45.6322933" lon="11.2728217"><ele>635.0</ele><time>2026-04-17T12:45:45.836Z</time></trkpt><trkpt lat="45.6323783" lon="11.272825"><ele>636.5</ele><time>2026-04-17T12:45:48.835Z</time></trkpt><trkpt lat="45.632455" lon="11.2728167"><ele>638.0</ele><time>2026-04-17T12:45:50.836Z</time></trkpt><trkpt lat="45.63252" lon="11.272765"><ele>639.5</ele><time>2026-04-17T12:45:52.836Z</time></trkpt><trkpt lat="45.6325733" lon="11.27271"><ele>641.0</ele><time>2026-04-17T12:45:54.836Z</time></trkpt><trkpt lat="45.6326383" lon="11.27261"><ele>641.0</ele><time>2026-04-17T12:45:57.836Z</time></trkpt><trkpt lat="45.632705" lon="11.272525"><ele>641.0</ele><time>2026-04-17T12:46:00.836Z</time></trkpt><trkpt lat="45.632735" lon="11.2724417"><ele>641.0</ele><time>2026-04-17T12:46:03.835Z</time></trkpt><trkpt lat="45.6327917" lon="11.2723517"><ele>641.0</ele><time>2026-04-17T12:46:06.836Z</time></trkpt><trkpt lat="45.632845" lon="11.2723033"><ele>641.0</ele><time>2026-04-17T12:46:08.836Z</time></trkpt><trkpt lat="45.6328967" lon="11.27225"><ele>641.0</ele><time>2026-04-17T12:46:10.836Z</time></trkpt><trkpt lat="45.6329683" lon="11.2721817"><ele>639.8333333333333</ele><time>2026-04-17T12:46:13.835Z</time></trkpt><trkpt lat="45.6330433" lon="11.2721033"><ele>638.6666666666666</ele><time>2026-04-17T12:46:16.836Z</time></trkpt><trkpt lat="45.6331033" lon="11.2719917"><ele>637.5</ele><time>2026-04-17T12:46:18.836Z</time></trkpt><trkpt lat="45.6331667" lon="11.271905"><ele>636.3333333333334</ele><time>2026-04-17T12:46:20.836Z</time></trkpt><trkpt lat="45.6332267" lon="11.2718483"><ele>635.1666666666667</ele><time>2026-04-17T12:46:22.836Z</time></trkpt><trkpt lat="45.6332933" lon="11.2717767"><ele>634.0</ele><time>2026-04-17T12:46:24.836Z</time></trkpt><trkpt lat="45.6333433" lon="11.2716467"><ele>634.0</ele><time>2026-04-17T12:46:26.836Z</time></trkpt><trkpt lat="45.6333667" lon="11.2715283"><ele>634.0</ele><time>2026-04-17T12:46:28.836Z</time></trkpt><trkpt lat="45.633435" lon="11.271435"><ele>634.0</ele><time>2026-04-17T12:46:30.836Z</time></trkpt><trkpt lat="45.6334867" lon="11.2713583"><ele>634.0</ele><time>2026-04-17T12:46:32.836Z</time></trkpt><trkpt lat="45.6335533" lon="11.271265"><ele>634.0</ele><time>2026-04-17T12:46:34.836Z</time></trkpt><trkpt lat="45.6336233" lon="11.271185"><ele>634.0</ele><time>2026-04-17T12:46:36.836Z</time></trkpt><trkpt lat="45.6337083" lon="11.2711033"><ele>631.0</ele><time>2026-04-17T12:46:38.835Z</time></trkpt><trkpt lat="45.6337883" lon="11.27105"><ele>628.0</ele><time>2026-04-17T12:46:40.835Z</time></trkpt><trkpt lat="45.6338483" lon="11.2710017"><ele>625.0</ele><time>2026-04-17T12:46:42.835Z</time></trkpt><trkpt lat="45.633915" lon="11.2709617"><ele>622.0</ele><time>2026-04-17T12:46:44.835Z</time></trkpt><trkpt lat="45.634015" lon="11.270935"><ele>619.0</ele><time>2026-04-17T12:46:46.835Z</time></trkpt><trkpt lat="45.6341067" lon="11.2708867"><ele>616.0</ele><time>2026-04-17T12:46:48.835Z</time></trkpt><trkpt lat="45.634175" lon="11.2708033"><ele>616.0</ele><time>2026-04-17T12:46:50.835Z</time></trkpt><trkpt lat="45.6342167" lon="11.27073"><ele>616.0</ele><time>2026-04-17T12:46:51.835Z</time></trkpt><trkpt lat="45.6342583" lon="11.2706617"><ele>616.0</ele><time>2026-04-17T12:46:52.835Z</time></trkpt><trkpt lat="45.634305" lon="11.2705617"><ele>616.0</ele><time>2026-04-17T12:46:54.835Z</time></trkpt><trkpt lat="45.6343483" lon="11.270465"><ele>616.0</ele><time>2026-04-17T12:46:57.834Z</time></trkpt><trkpt lat="45.6344283" lon="11.2704167"><ele>616.0</ele><time>2026-04-17T12:47:00.835Z</time></trkpt><trkpt lat="45.6344867" lon="11.27035"><ele>613.6</ele><time>2026-04-17T12:47:02.835Z</time></trkpt><trkpt lat="45.6345667" lon="11.2702733"><ele>611.2</ele><time>2026-04-17T12:47:04.835Z</time></trkpt><trkpt lat="45.6346183" lon="11.2702083"><ele>608.8</ele><time>2026-04-17T12:47:05.835Z</time></trkpt><trkpt lat="45.6346733" lon="11.2701133"><ele>606.4</ele><time>2026-04-17T12:47:07.835Z</time></trkpt><trkpt lat="45.63475" lon="11.27"><ele>604.0</ele><time>2026-04-17T12:47:09.835Z</time></trkpt><trkpt lat="45.6348" lon="11.2698767"><ele>608.1666666666667</ele><time>2026-04-17T12:47:11.835Z</time></trkpt><trkpt lat="45.634835" lon="11.2697717"><ele>612.3333333333334</ele><time>2026-04-17T12:47:13.835Z</time></trkpt><trkpt lat="45.634885" lon="11.269675"><ele>616.5</ele><time>2026-04-17T12:47:15.835Z</time></trkpt><trkpt lat="45.6349483" lon="11.2696017"><ele>620.6666666666666</ele><time>2026-04-17T12:47:17.835Z</time></trkpt><trkpt lat="45.6350117" lon="11.26951"><ele>624.8333333333333</ele><time>2026-04-17T12:47:19.835Z</time></trkpt><trkpt lat="45.6350683" lon="11.2694183"><ele>629.0</ele><time>2026-04-17T12:47:21.835Z</time></trkpt><trkpt lat="45.63514" lon="11.2693383"><ele>629.0</ele><time>2026-04-17T12:47:23.835Z</time></trkpt><trkpt lat="45.6352083" lon="11.2692767"><ele>629.0</ele><time>2026-04-17T12:47:25.835Z</time></trkpt><trkpt lat="45.6353017" lon="11.269225"><ele>629.0</ele><time>2026-04-17T12:47:27.835Z</time></trkpt><trkpt lat="45.6353967" lon="11.2691517"><ele>629.0</ele><time>2026-04-17T12:47:29.835Z</time></trkpt><trkpt lat="45.6354733" lon="11.269085"><ele>629.0</ele><time>2026-04-17T12:47:31.834Z</time></trkpt><trkpt lat="45.63554" lon="11.2690317"><ele>622.6</ele><time>2026-04-17T12:47:33.835Z</time></trkpt><trkpt lat="45.6356017" lon="11.268985"><ele>616.2</ele><time>2026-04-17T12:47:35.835Z</time></trkpt><trkpt lat="45.6356517" lon="11.2689033"><ele>609.8000000000001</ele><time>2026-04-17T12:47:37.835Z</time></trkpt><trkpt lat="45.6357083" lon="11.2687867"><ele>603.4</ele><time>2026-04-17T12:47:39.835Z</time></trkpt><trkpt lat="45.6357617" lon="11.2686417"><ele>597.0</ele><time>2026-04-17T12:47:41.835Z</time></trkpt><trkpt lat="45.6358117" lon="11.2684817"><ele>597.0</ele><time>2026-04-17T12:47:43.835Z</time></trkpt><trkpt lat="45.6358583" lon="11.26833"><ele>597.0</ele><time>2026-04-17T12:47:45.835Z</time></trkpt><trkpt lat="45.6359033" lon="11.268225"><ele>597.0</ele><time>2026-04-17T12:47:47.835Z</time></trkpt><trkpt lat="45.63595" lon="11.2681183"><ele>597.0</ele><time>2026-04-17T12:47:49.835Z</time></trkpt><trkpt lat="45.6359833" lon="11.2680283"><ele>597.0</ele><time>2026-04-17T12:47:51.835Z</time></trkpt><trkpt lat="45.6360367" lon="11.2679533"><ele>597.0</ele><time>2026-04-17T12:47:53.834Z</time></trkpt><trkpt lat="45.6360917" lon="11.2678833"><ele>590.8333333333334</ele><time>2026-04-17T12:47:55.834Z</time></trkpt><trkpt lat="45.63614" lon="11.2678183"><ele>584.6666666666666</ele><time>2026-04-17T12:52:26.833Z</time></trkpt><trkpt lat="45.6361733" lon="11.2676983"><ele>578.5</ele><time>2026-04-17T12:52:27.834Z</time></trkpt><trkpt lat="45.6362083" lon="11.2676083"><ele>572.3333333333333</ele><time>2026-04-17T12:54:29.833Z</time></trkpt><trkpt lat="45.63623" lon="11.2674833"><ele>566.1666666666666</ele><time>2026-04-17T12:54:32.833Z</time></trkpt><trkpt lat="45.6362417" lon="11.2673817"><ele>560.0</ele><time>2026-04-17T12:54:34.833Z</time></trkpt><trkpt lat="45.63624" lon="11.26726"><ele>560.0</ele><time>2026-04-17T12:54:36.833Z</time></trkpt><trkpt lat="45.6362417" lon="11.2671383"><ele>560.0</ele><time>2026-04-17T12:54:38.833Z</time></trkpt><trkpt lat="45.6362617" lon="11.26702"><ele>560.0</ele><time>2026-04-17T12:54:40.833Z</time></trkpt><trkpt lat="45.63626" lon="11.2668983"><ele>560.0</ele><time>2026-04-17T12:54:42.833Z</time></trkpt><trkpt lat="45.6362417" lon="11.266805"><ele>560.0</ele><time>2026-04-17T12:54:44.833Z</time></trkpt><trkpt lat="45.6362183" lon="11.2667017"><ele>560.0</ele><time>2026-04-17T12:54:46.833Z</time></trkpt><trkpt lat="45.6362267" lon="11.2665483"><ele>560.6666666666666</ele><time>2026-04-17T12:54:48.833Z</time></trkpt><trkpt lat="45.6362567" lon="11.2664167"><ele>561.3333333333333</ele><time>2026-04-17T12:54:50.833Z</time></trkpt><trkpt lat="45.6362883" lon="11.26627"><ele>562.0</ele><time>2026-04-17T12:54:52.833Z</time></trkpt><trkpt lat="45.6363133" lon="11.2661617"><ele>562.6666666666666</ele><time>2026-04-17T12:54:54.833Z</time></trkpt><trkpt lat="45.63634" lon="11.26607"><ele>563.3333333333334</ele><time>2026-04-17T12:54:56.833Z</time></trkpt><trkpt lat="45.63637" lon="11.2659517"><ele>564.0</ele><time>2026-04-17T12:54:59.833Z</time></trkpt><trkpt lat="45.6363833" lon="11.2658367"><ele>564.0</ele><time>2026-04-17T12:55:02.833Z</time></trkpt><trkpt lat="45.636405" lon="11.2657183"><ele>564.0</ele><time>2026-04-17T12:55:05.833Z</time></trkpt><trkpt lat="45.6364017" lon="11.2656283"><ele>564.0</ele><time>2026-04-17T12:55:07.833Z</time></trkpt><trkpt lat="45.63642" lon="11.2655117"><ele>564.0</ele><time>2026-04-17T12:55:10.833Z</time></trkpt><trkpt lat="45.63649" lon="11.265435"><ele>564.0</ele><time>2026-04-17T12:55:13.833Z</time></trkpt><trkpt lat="45.63654" lon="11.26531"><ele>564.0</ele><time>2026-04-17T12:55:15.833Z</time></trkpt><trkpt lat="45.63656" lon="11.2652233"><ele>565.0</ele><time>2026-04-17T12:55:16.833Z</time></trkpt><trkpt lat="45.6365867" lon="11.2651233"><ele>566.0</ele><time>2026-04-17T12:55:17.833Z</time></trkpt><trkpt lat="45.6366333" lon="11.2650017"><ele>567.0</ele><time>2026-04-17T12:55:18.832Z</time></trkpt><trkpt lat="45.63668" lon="11.264885"><ele>568.0</ele><time>2026-04-17T12:55:19.833Z</time></trkpt><trkpt lat="45.6367333" lon="11.2647833"><ele>569.0</ele><time>2026-04-17T12:55:20.833Z</time></trkpt><trkpt lat="45.6368" lon="11.264705"><ele>570.0</ele><time>2026-04-17T12:55:21.833Z</time></trkpt><trkpt lat="45.6368717" lon="11.2646517"><ele>570.6666666666666</ele><time>2026-04-17T12:55:22.833Z</time></trkpt><trkpt lat="45.636955" lon="11.264615"><ele>571.3333333333334</ele><time>2026-04-17T12:55:23.833Z</time></trkpt><trkpt lat="45.6370467" lon="11.26462"><ele>572.0</ele><time>2026-04-17T12:55:24.833Z</time></trkpt><trkpt lat="45.63714" lon="11.2646267"><ele>572.6666666666667</ele><time>2026-04-17T12:55:25.833Z</time></trkpt><trkpt lat="45.6372167" lon="11.26463"><ele>573.3333333333334</ele><time>2026-04-17T12:55:26.833Z</time></trkpt><trkpt lat="45.63729" lon="11.264615"><ele>574.0</ele><time>2026-04-17T12:55:27.833Z</time></trkpt><trkpt lat="45.6373683" lon="11.2645217"><ele>574.0</ele><time>2026-04-17T12:55:29.833Z</time></trkpt><trkpt lat="45.637365" lon="11.2644083"><ele>574.0</ele><time>2026-04-17T12:55:31.833Z</time></trkpt><trkpt lat="45.6372283" lon="11.264315"><ele>574.0</ele><time>2026-04-17T12:55:33.833Z</time></trkpt><trkpt lat="45.6371333" lon="11.2642733"><ele>574.0</ele><time>2026-04-17T12:55:34.833Z</time></trkpt><trkpt lat="45.6370633" lon="11.2642217"><ele>574.0</ele><time>2026-04-17T12:55:35.833Z</time></trkpt><trkpt lat="45.6370083" lon="11.2641717"><ele>574.8333333333334</ele><time>2026-04-17T12:55:36.833Z</time></trkpt><trkpt lat="45.6369583" lon="11.2641067"><ele>575.6666666666667</ele><time>2026-04-17T12:55:37.832Z</time></trkpt><trkpt lat="45.6369267" lon="11.2639367"><ele>576.5</ele><time>2026-04-17T12:55:39.833Z</time></trkpt><trkpt lat="45.6369233" lon="11.263845"><ele>577.3333333333334</ele><time>2026-04-17T12:55:40.833Z</time></trkpt><trkpt lat="45.636925" lon="11.2637183"><ele>578.1666666666666</ele><time>2026-04-17T12:55:42.833Z</time></trkpt><trkpt lat="45.6369617" lon="11.2636333"><ele>579.0</ele><time>2026-04-17T12:55:44.832Z</time></trkpt><trkpt lat="45.637035" lon="11.26363"><ele>579.8333333333334</ele><time>2026-04-17T12:55:46.833Z</time></trkpt><trkpt lat="45.63714" lon="11.2636017"><ele>580.6666666666666</ele><time>2026-04-17T12:55:48.833Z</time></trkpt><trkpt lat="45.6372033" lon="11.2636117"><ele>581.5</ele><time>2026-04-17T12:55:49.833Z</time></trkpt><trkpt lat="45.6372733" lon="11.2636233"><ele>582.3333333333333</ele><time>2026-04-17T12:55:50.833Z</time></trkpt><trkpt lat="45.6373383" lon="11.2636383"><ele>583.1666666666666</ele><time>2026-04-17T12:55:51.833Z</time></trkpt><trkpt lat="45.6374017" lon="11.2636517"><ele>584.0</ele><time>2026-04-17T12:55:52.833Z</time></trkpt><trkpt lat="45.6375183" lon="11.263675"><ele>584.0</ele><time>2026-04-17T12:55:54.833Z</time></trkpt><trkpt lat="45.637595" lon="11.2636717"><ele>584.0</ele><time>2026-04-17T12:55:55.832Z</time></trkpt><trkpt lat="45.6376817" lon="11.26367"><ele>584.0</ele><time>2026-04-17T12:55:56.832Z</time></trkpt><trkpt lat="45.63776" lon="11.263655"><ele>584.0</ele><time>2026-04-17T12:55:57.833Z</time></trkpt><trkpt lat="45.6378433" lon="11.2635733"><ele>584.0</ele><time>2026-04-17T12:55:59.833Z</time></trkpt><trkpt lat="45.637835" lon="11.263465"><ele>584.0</ele><time>2026-04-17T12:56:01.832Z</time></trkpt><trkpt lat="45.6378117" lon="11.2633783"><ele>584.0</ele><time>2026-04-17T12:56:02.832Z</time></trkpt><trkpt lat="45.6377733" lon="11.2632767"><ele>584.0</ele><time>2026-04-17T12:56:03.831Z</time></trkpt><trkpt lat="45.6377367" lon="11.2631717"><ele>584.0</ele><time>2026-04-17T12:56:04.832Z</time></trkpt><trkpt lat="45.6377167" lon="11.26306"><ele>584.0</ele><time>2026-04-17T12:56:05.832Z</time></trkpt><trkpt lat="45.6377233" lon="11.2629317"><ele>584.0</ele><time>2026-04-17T12:56:06.832Z</time></trkpt><trkpt lat="45.6377483" lon="11.26281"><ele>584.0</ele><time>2026-04-17T12:56:07.832Z</time></trkpt><trkpt lat="45.637775" lon="11.2626783"><ele>585.0</ele><time>2026-04-17T12:56:08.832Z</time></trkpt><trkpt lat="45.6377967" lon="11.26253"><ele>586.0</ele><time>2026-04-17T12:56:09.832Z</time></trkpt><trkpt lat="45.637825" lon="11.262375"><ele>587.0</ele><time>2026-04-17T12:56:10.832Z</time></trkpt><trkpt lat="45.6378567" lon="11.262215"><ele>588.0</ele><time>2026-04-17T12:56:11.832Z</time></trkpt><trkpt lat="45.6379117" lon="11.2620467"><ele>591.25</ele><time>2026-04-17T12:56:12.832Z</time></trkpt><trkpt lat="45.6379917" lon="11.26188"><ele>594.5</ele><time>2026-04-17T12:56:13.832Z</time></trkpt><trkpt lat="45.6380617" lon="11.2617283"><ele>597.75</ele><time>2026-04-17T12:56:14.832Z</time></trkpt><trkpt lat="45.6381433" lon="11.26156"><ele>601.0</ele><time>2026-04-17T12:56:15.832Z</time></trkpt><trkpt lat="45.6382233" lon="11.2613867"><ele>605.25</ele><time>2026-04-17T12:56:16.832Z</time></trkpt><trkpt lat="45.6382983" lon="11.2612083"><ele>609.5</ele><time>2026-04-17T12:56:17.832Z</time></trkpt><trkpt lat="45.6383767" lon="11.2610683"><ele>613.75</ele><time>2026-04-17T12:56:18.832Z</time></trkpt><trkpt lat="45.6384467" lon="11.26096"><ele>618.0</ele><time>2026-04-17T12:56:19.832Z</time></trkpt><trkpt lat="45.6385067" lon="11.2608733"><ele>618.0</ele><time>2026-04-17T12:56:20.832Z</time></trkpt><trkpt lat="45.6385717" lon="11.2608133"><ele>618.0</ele><time>2026-04-17T12:56:21.832Z</time></trkpt><trkpt lat="45.63862" lon="11.2607333"><ele>618.0</ele><time>2026-04-17T12:56:22.832Z</time></trkpt><trkpt lat="45.6386417" lon="11.2606417"><ele>618.0</ele><time>2026-04-17T12:56:23.832Z</time></trkpt><trkpt lat="45.63865" lon="11.26054"><ele>618.0</ele><time>2026-04-17T12:56:24.832Z</time></trkpt><trkpt lat="45.6386283" lon="11.2604167"><ele>618.0</ele><time>2026-04-17T12:56:25.832Z</time></trkpt><trkpt lat="45.6385883" lon="11.260255"><ele>620.25</ele><time>2026-04-17T12:56:26.831Z</time></trkpt><trkpt lat="45.6385317" lon="11.2600817"><ele>622.5</ele><time>2026-04-17T12:56:27.832Z</time></trkpt><trkpt lat="45.6384833" lon="11.259905"><ele>624.75</ele><time>2026-04-17T12:56:28.832Z</time></trkpt><trkpt lat="45.6384617" lon="11.2597433"><ele>627.0</ele><time>2026-04-17T12:56:29.832Z</time></trkpt><trkpt lat="45.63845" lon="11.2595883"><ele>627.6666666666666</ele><time>2026-04-17T12:56:30.832Z</time></trkpt><trkpt lat="45.63845" lon="11.259455"><ele>628.3333333333334</ele><time>2026-04-17T12:56:31.832Z</time></trkpt><trkpt lat="45.638465" lon="11.25932"><ele>629.0</ele><time>2026-04-17T12:56:32.831Z</time></trkpt><trkpt lat="45.638475" lon="11.2592"><ele>629.6666666666667</ele><time>2026-04-17T12:56:33.832Z</time></trkpt><trkpt lat="45.63849" lon="11.2590917"><ele>630.3333333333334</ele><time>2026-04-17T12:56:34.832Z</time></trkpt><trkpt lat="45.6384983" lon="11.2589667"><ele>631.0</ele><time>2026-04-17T12:56:35.832Z</time></trkpt><trkpt lat="45.6384767" lon="11.2588233"><ele>631.5</ele><time>2026-04-17T12:56:36.832Z</time></trkpt><trkpt lat="45.6384567" lon="11.25868"><ele>632.0</ele><time>2026-04-17T12:56:37.831Z</time></trkpt><trkpt lat="45.638445" lon="11.2585717"><ele>632.5</ele><time>2026-04-17T12:56:38.832Z</time></trkpt><trkpt lat="45.6384467" lon="11.25847"><ele>633.0</ele><time>2026-04-17T12:56:39.831Z</time></trkpt><trkpt lat="45.6384667" lon="11.2583717"><ele>633.5</ele><time>2026-04-17T12:56:40.832Z</time></trkpt><trkpt lat="45.638505" lon="11.25829"><ele>634.0</ele><time>2026-04-17T12:56:41.832Z</time></trkpt><trkpt lat="45.6385517" lon="11.2581733"><ele>633.75</ele><time>2026-04-17T12:56:42.832Z</time></trkpt><trkpt lat="45.63859" lon="11.2580317"><ele>633.5</ele><time>2026-04-17T12:56:43.832Z</time></trkpt><trkpt lat="45.6385933" lon="11.2578683"><ele>633.25</ele><time>2026-04-17T12:56:44.832Z</time></trkpt><trkpt lat="45.63858" lon="11.257695"><ele>633.0</ele><time>2026-04-17T12:56:45.832Z</time></trkpt><trkpt lat="45.63858" lon="11.25751"><ele>633.0</ele><time>2026-04-17T12:56:46.831Z</time></trkpt><trkpt lat="45.6386133" lon="11.2573317"><ele>633.0</ele><time>2026-04-17T12:56:47.832Z</time></trkpt><trkpt lat="45.6386517" lon="11.2571717"><ele>633.0</ele><time>2026-04-17T12:56:48.832Z</time></trkpt><trkpt lat="45.63869" lon="11.257035"><ele>633.0</ele><time>2026-04-17T12:56:49.832Z</time></trkpt><trkpt lat="45.638695" lon="11.2569067"><ele>633.0</ele><time>2026-04-17T12:56:50.832Z</time></trkpt><trkpt lat="45.6386817" lon="11.256775"><ele>634.0</ele><time>2026-04-17T12:56:51.832Z</time></trkpt><trkpt lat="45.63865" lon="11.25663"><ele>635.0</ele><time>2026-04-17T12:56:52.832Z</time></trkpt><trkpt lat="45.6386183" lon="11.25647"><ele>636.0</ele><time>2026-04-17T12:56:53.832Z</time></trkpt><trkpt lat="45.6385733" lon="11.2562717"><ele>637.0</ele><time>2026-04-17T12:56:54.832Z</time></trkpt><trkpt lat="45.63853" lon="11.2560717"><ele>638.25</ele><time>2026-04-17T12:56:55.832Z</time></trkpt><trkpt lat="45.6384917" lon="11.2558833"><ele>639.5</ele><time>2026-04-17T12:56:56.832Z</time></trkpt><trkpt lat="45.6384467" lon="11.2557"><ele>640.75</ele><time>2026-04-17T12:56:57.831Z</time></trkpt><trkpt lat="45.6384233" lon="11.2555367"><ele>642.0</ele><time>2026-04-17T12:56:58.832Z</time></trkpt><trkpt lat="45.6384017" lon="11.2554033"><ele>642.8333333333334</ele><time>2026-04-17T12:56:59.832Z</time></trkpt><trkpt lat="45.6383867" lon="11.2552833"><ele>643.6666666666666</ele><time>2026-04-17T12:57:00.832Z</time></trkpt><trkpt lat="45.6383917" lon="11.2551683"><ele>644.5</ele><time>2026-04-17T12:57:01.832Z</time></trkpt><trkpt lat="45.6384117" lon="11.25506"><ele>645.3333333333333</ele><time>2026-04-17T12:57:02.831Z</time></trkpt><trkpt lat="45.6384667" lon="11.2549533"><ele>646.1666666666666</ele><time>2026-04-17T12:57:03.832Z</time></trkpt><trkpt lat="45.638535" lon="11.2548683"><ele>647.0</ele><time>2026-04-17T12:57:04.832Z</time></trkpt><trkpt lat="45.6386017" lon="11.2548"><ele>648.0</ele><time>2026-04-17T12:57:05.832Z</time></trkpt><trkpt lat="45.6386933" lon="11.2547683"><ele>649.0</ele><time>2026-04-17T12:57:06.832Z</time></trkpt><trkpt lat="45.6387867" lon="11.2547583"><ele>650.0</ele><time>2026-04-17T12:57:07.832Z</time></trkpt><trkpt lat="45.63888" lon="11.254735"><ele>651.0</ele><time>2026-04-17T12:57:08.832Z</time></trkpt><trkpt lat="45.6389533" lon="11.2547133"><ele>652.0</ele><time>2026-04-17T12:57:09.832Z</time></trkpt><trkpt lat="45.6390467" lon="11.2546583"><ele>652.0</ele><time>2026-04-17T12:57:11.832Z</time></trkpt><trkpt lat="45.639045" lon="11.2545433"><ele>652.0</ele><time>2026-04-17T12:57:14.832Z</time></trkpt><trkpt lat="45.63895" lon="11.2544117"><ele>652.0</ele><time>2026-04-17T12:57:16.832Z</time></trkpt><trkpt lat="45.638875" lon="11.2543217"><ele>652.0</ele><time>2026-04-17T12:57:17.832Z</time></trkpt><trkpt lat="45.6387967" lon="11.2542133"><ele>652.0</ele><time>2026-04-17T12:57:18.832Z</time></trkpt><trkpt lat="45.6387117" lon="11.2540933"><ele>653.5</ele><time>2026-04-17T12:57:19.831Z</time></trkpt><trkpt lat="45.6386183" lon="11.253945"><ele>655.0</ele><time>2026-04-17T12:57:20.832Z</time></trkpt><trkpt lat="45.6385333" lon="11.2537817"><ele>656.5</ele><time>2026-04-17T12:57:21.832Z</time></trkpt><trkpt lat="45.6384467" lon="11.2536133"><ele>658.0</ele><time>2026-04-17T12:57:22.832Z</time></trkpt><trkpt lat="45.6383567" lon="11.253445"><ele>658.0</ele><time>2026-04-17T12:57:23.832Z</time></trkpt><trkpt lat="45.638265" lon="11.2532867"><ele>658.0</ele><time>2026-04-17T12:57:24.832Z</time></trkpt><trkpt lat="45.6381717" lon="11.2531483"><ele>658.0</ele><time>2026-04-17T12:57:25.832Z</time></trkpt><trkpt lat="45.6380967" lon="11.2530433"><ele>658.0</ele><time>2026-04-17T12:57:26.832Z</time></trkpt><trkpt lat="45.6380383" lon="11.2529367"><ele>659.4</ele><time>2026-04-17T12:57:27.832Z</time></trkpt><trkpt lat="45.6379967" lon="11.2528383"><ele>660.8</ele><time>2026-04-17T12:57:28.832Z</time></trkpt><trkpt lat="45.637975" lon="11.2527067"><ele>662.2</ele><time>2026-04-17T12:57:29.832Z</time></trkpt><trkpt lat="45.637975" lon="11.252555"><ele>663.6</ele><time>2026-04-17T12:57:30.832Z</time></trkpt><trkpt lat="45.6379917" lon="11.25239"><ele>665.0</ele><time>2026-04-17T12:57:31.832Z</time></trkpt><trkpt lat="45.6380217" lon="11.252235"><ele>667.6</ele><time>2026-04-17T12:57:32.832Z</time></trkpt><trkpt lat="45.6380667" lon="11.2521033"><ele>670.2</ele><time>2026-04-17T12:57:33.831Z</time></trkpt><trkpt lat="45.63814" lon="11.252"><ele>672.8</ele><time>2026-04-17T12:57:34.832Z</time></trkpt><trkpt lat="45.6382417" lon="11.2519267"><ele>675.4</ele><time>2026-04-17T12:57:35.832Z</time></trkpt><trkpt lat="45.6383617" lon="11.2518683"><ele>678.0</ele><time>2026-04-17T12:57:36.832Z</time></trkpt><trkpt lat="45.6384617" lon="11.251825"><ele>678.0</ele><time>2026-04-17T12:57:37.832Z</time></trkpt><trkpt lat="45.6385517" lon="11.2517767"><ele>678.0</ele><time>2026-04-17T12:57:38.832Z</time></trkpt><trkpt lat="45.63863" lon="11.2516983"><ele>678.0</ele><time>2026-04-17T12:57:39.831Z</time></trkpt><trkpt lat="45.6387033" lon="11.2515967"><ele>678.0</ele><time>2026-04-17T12:57:40.832Z</time></trkpt><trkpt lat="45.6387583" lon="11.25147"><ele>678.0</ele><time>2026-04-17T12:57:41.832Z</time></trkpt><trkpt lat="45.63883" lon="11.2513517"><ele>679.4</ele><time>2026-04-17T12:57:42.832Z</time></trkpt><trkpt lat="45.6389317" lon="11.2512817"><ele>680.8</ele><time>2026-04-17T12:57:43.832Z</time></trkpt><trkpt lat="45.63904" lon="11.25123"><ele>682.2</ele><time>2026-04-17T12:57:44.831Z</time></trkpt><trkpt lat="45.6391317" lon="11.25119"><ele>683.6</ele><time>2026-04-17T12:57:45.832Z</time></trkpt><trkpt lat="45.6392083" lon="11.25113"><ele>685.0</ele><time>2026-04-17T12:57:46.831Z</time></trkpt><trkpt lat="45.6392617" lon="11.2510717"><ele>685.0</ele><time>2026-04-17T12:57:47.832Z</time></trkpt><trkpt lat="45.63928" lon="11.2509167"><ele>685.0</ele><time>2026-04-17T12:57:49.832Z</time></trkpt><trkpt lat="45.6392467" lon="11.2508317"><ele>685.0</ele><time>2026-04-17T12:57:50.832Z</time></trkpt><trkpt lat="45.639185" lon="11.25076"><ele>685.0</ele><time>2026-04-17T12:57:51.832Z</time></trkpt><trkpt lat="45.6390967" lon="11.2507367"><ele>685.0</ele><time>2026-04-17T12:57:52.832Z</time></trkpt><trkpt lat="45.6389833" lon="11.2507683"><ele>685.0</ele><time>2026-04-17T12:57:53.832Z</time></trkpt><trkpt lat="45.638855" lon="11.2507883"><ele>685.0</ele><time>2026-04-17T12:57:54.832Z</time></trkpt><trkpt lat="45.6387183" lon="11.2507633"><ele>685.0</ele><time>2026-04-17T12:57:55.832Z</time></trkpt><trkpt lat="45.638585" lon="11.2507167"><ele>685.0</ele><time>2026-04-17T12:57:56.832Z</time></trkpt><trkpt lat="45.6384533" lon="11.2506733"><ele>687.2</ele><time>2026-04-17T12:57:57.832Z</time></trkpt><trkpt lat="45.63833" lon="11.25066"><ele>689.4</ele><time>2026-04-17T12:57:58.832Z</time></trkpt><trkpt lat="45.638225" lon="11.2506983"><ele>691.5999999999999</ele><time>2026-04-17T12:57:59.832Z</time></trkpt><trkpt lat="45.63813" lon="11.2507783"><ele>693.8</ele><time>2026-04-17T12:58:00.832Z</time></trkpt><trkpt lat="45.6380383" lon="11.2508533"><ele>696.0</ele><time>2026-04-17T12:58:01.832Z</time></trkpt><trkpt lat="45.6379433" lon="11.2508983"><ele>696.0</ele><time>2026-04-17T12:58:02.832Z</time></trkpt><trkpt lat="45.6378567" lon="11.2508933"><ele>696.0</ele><time>2026-04-17T12:58:03.832Z</time></trkpt><trkpt lat="45.6377717" lon="11.2508417"><ele>696.0</ele><time>2026-04-17T12:58:04.832Z</time></trkpt><trkpt lat="45.6376883" lon="11.2507533"><ele>696.0</ele><time>2026-04-17T12:58:05.832Z</time></trkpt><trkpt lat="45.6375617" lon="11.25069"><ele>696.0</ele><time>2026-04-17T12:58:06.832Z</time></trkpt><trkpt lat="45.6374333" lon="11.2506333"><ele>699.8</ele><time>2026-04-17T12:58:07.832Z</time></trkpt><trkpt lat="45.6373067" lon="11.250595"><ele>703.5999999999999</ele><time>2026-04-17T12:58:08.832Z</time></trkpt><trkpt lat="45.6371967" lon="11.2505617"><ele>707.4</ele><time>2026-04-17T12:58:09.832Z</time></trkpt><trkpt lat="45.6371" lon="11.25054"><ele>711.2</ele><time>2026-04-17T12:58:10.831Z</time></trkpt><trkpt lat="45.6370133" lon="11.2505183"><ele>715.0</ele><time>2026-04-17T12:58:11.832Z</time></trkpt><trkpt lat="45.636935" lon="11.2504933"><ele>715.0</ele><time>2026-04-17T12:58:12.832Z</time></trkpt><trkpt lat="45.6368683" lon="11.250445"><ele>715.0</ele><time>2026-04-17T12:58:13.832Z</time></trkpt><trkpt lat="45.6367967" lon="11.2503267"><ele>715.0</ele><time>2026-04-17T12:58:15.832Z</time></trkpt><trkpt lat="45.6368283" lon="11.2501967"><ele>715.0</ele><time>2026-04-17T12:58:17.832Z</time></trkpt><trkpt lat="45.6368967" lon="11.2501383"><ele>715.0</ele><time>2026-04-17T12:58:18.832Z</time></trkpt><trkpt lat="45.6369817" lon="11.25006"><ele>715.0</ele><time>2026-04-17T12:58:19.832Z</time></trkpt><trkpt lat="45.6370483" lon="11.2499367"><ele>715.0</ele><time>2026-04-17T12:58:20.832Z</time></trkpt><trkpt lat="45.6371017" lon="11.2497683"><ele>715.0</ele><time>2026-04-17T12:58:21.831Z</time></trkpt><trkpt lat="45.6371533" lon="11.2495883"><ele>715.0</ele><time>2026-04-17T12:58:22.831Z</time></trkpt><trkpt lat="45.6372083" lon="11.249405"><ele>718.0</ele><time>2026-04-17T12:58:23.832Z</time></trkpt><trkpt lat="45.63728" lon="11.2492183"><ele>721.0</ele><time>2026-04-17T12:58:24.831Z</time></trkpt><trkpt lat="45.6373767" lon="11.2490767"><ele>724.0</ele><time>2026-04-17T12:58:25.832Z</time></trkpt><trkpt lat="45.637485" lon="11.2489767"><ele>727.0</ele><time>2026-04-17T12:58:26.832Z</time></trkpt><trkpt lat="45.6375817" lon="11.24892"><ele>727.5</ele><time>2026-04-17T12:58:27.832Z</time></trkpt><trkpt lat="45.6376717" lon="11.2488717"><ele>728.0</ele><time>2026-04-17T12:58:28.832Z</time></trkpt><trkpt lat="45.6377433" lon="11.248805"><ele>728.5</ele><time>2026-04-17T12:58:29.832Z</time></trkpt><trkpt lat="45.6377933" lon="11.248725"><ele>729.0</ele><time>2026-04-17T12:58:30.832Z</time></trkpt><trkpt lat="45.637805" lon="11.2486217"><ele>729.5</ele><time>2026-04-17T12:58:31.832Z</time></trkpt><trkpt lat="45.6377817" lon="11.2484983"><ele>730.0</ele><time>2026-04-17T12:58:32.832Z</time></trkpt><trkpt lat="45.6377233" lon="11.2483617"><ele>730.8333333333334</ele><time>2026-04-17T12:58:33.832Z</time></trkpt><trkpt lat="45.6376683" lon="11.2482367"><ele>731.6666666666667</ele><time>2026-04-17T12:58:34.832Z</time></trkpt><trkpt lat="45.63763" lon="11.24813"><ele>732.5</ele><time>2026-04-17T12:58:35.832Z</time></trkpt><trkpt lat="45.6376033" lon="11.2480383"><ele>733.3333333333334</ele><time>2026-04-17T12:58:36.832Z</time></trkpt><trkpt lat="45.6376117" lon="11.2479017"><ele>734.1666666666666</ele><time>2026-04-17T12:58:38.832Z</time></trkpt><trkpt lat="45.637665" lon="11.2478517"><ele>735.0</ele><time>2026-04-17T12:58:39.832Z</time></trkpt><trkpt lat="45.6377467" lon="11.24781"><ele>735.25</ele><time>2026-04-17T12:58:40.831Z</time></trkpt><trkpt lat="45.6378467" lon="11.24777"><ele>735.5</ele><time>2026-04-17T12:58:41.832Z</time></trkpt><trkpt lat="45.63796" lon="11.2477217"><ele>735.75</ele><time>2026-04-17T12:58:42.832Z</time></trkpt><trkpt lat="45.6380767" lon="11.2476683"><ele>736.0</ele><time>2026-04-17T12:58:43.832Z</time></trkpt><trkpt lat="45.6382" lon="11.247615"><ele>736.0</ele><time>2026-04-17T12:58:44.832Z</time></trkpt><trkpt lat="45.638335" lon="11.24755"><ele>736.0</ele><time>2026-04-17T12:58:45.832Z</time></trkpt><trkpt lat="45.6384683" lon="11.2474933"><ele>736.0</ele><time>2026-04-17T12:58:46.832Z</time></trkpt><trkpt lat="45.6386133" lon="11.2474367"><ele>736.0</ele><time>2026-04-17T12:58:47.832Z</time></trkpt><trkpt lat="45.638755" lon="11.247385"><ele>736.0</ele><time>2026-04-17T12:58:48.832Z</time></trkpt><trkpt lat="45.6388917" lon="11.2473383"><ele>736.0</ele><time>2026-04-17T12:58:49.832Z</time></trkpt><trkpt lat="45.6390083" lon="11.2473017"><ele>736.0</ele><time>2026-04-17T12:58:50.832Z</time></trkpt><trkpt lat="45.639095" lon="11.24727"><ele>736.0</ele><time>2026-04-17T12:58:51.832Z</time></trkpt><trkpt lat="45.63918" lon="11.2472333"><ele>736.0</ele><time>2026-04-17T12:58:52.832Z</time></trkpt><trkpt lat="45.6392733" lon="11.2471667"><ele>735.75</ele><time>2026-04-17T12:58:53.832Z</time></trkpt><trkpt lat="45.6393667" lon="11.247065"><ele>735.5</ele><time>2026-04-17T12:58:54.831Z</time></trkpt><trkpt lat="45.6394767" lon="11.2469483"><ele>735.25</ele><time>2026-04-17T12:58:55.831Z</time></trkpt><trkpt lat="45.639585" lon="11.2468417"><ele>735.0</ele><time>2026-04-17T12:58:56.831Z</time></trkpt><trkpt lat="45.6397017" lon="11.2467383"><ele>735.0</ele><time>2026-04-17T12:58:57.831Z</time></trkpt><trkpt lat="45.6398117" lon="11.2466517"><ele>735.0</ele><time>2026-04-17T12:58:58.831Z</time></trkpt><trkpt lat="45.6399183" lon="11.24657"><ele>735.0</ele><time>2026-04-17T12:58:59.831Z</time></trkpt><trkpt lat="45.6400267" lon="11.2464933"><ele>735.0</ele><time>2026-04-17T12:59:00.831Z</time></trkpt><trkpt lat="45.6401433" lon="11.246435"><ele>736.0</ele><time>2026-04-17T12:59:01.83Z</time></trkpt><trkpt lat="45.6402717" lon="11.2464"><ele>737.0</ele><time>2026-04-17T12:59:02.831Z</time></trkpt><trkpt lat="45.640415" lon="11.2463517"><ele>738.0</ele><time>2026-04-17T12:59:03.831Z</time></trkpt><trkpt lat="45.6405383" lon="11.246285"><ele>739.0</ele><time>2026-04-17T12:59:04.83Z</time></trkpt><trkpt lat="45.6406383" lon="11.2462067"><ele>739.0</ele><time>2026-04-17T12:59:05.831Z</time></trkpt><trkpt lat="45.6407283" lon="11.2461283"><ele>739.0</ele><time>2026-04-17T12:59:06.831Z</time></trkpt><trkpt lat="45.64081" lon="11.24607"><ele>739.0</ele><time>2026-04-17T12:59:07.831Z</time></trkpt><trkpt lat="45.64089" lon="11.2460133"><ele>739.0</ele><time>2026-04-17T12:59:08.831Z</time></trkpt><trkpt lat="45.640975" lon="11.24597"><ele>739.0</ele><time>2026-04-17T12:59:09.83Z</time></trkpt><trkpt lat="45.6410683" lon="11.2459417"><ele>737.8000000000001</ele><time>2026-04-17T12:59:10.831Z</time></trkpt><trkpt lat="45.6411683" lon="11.24593"><ele>736.6</ele><time>2026-04-17T12:59:11.831Z</time></trkpt><trkpt lat="45.64127" lon="11.2459317"><ele>735.4</ele><time>2026-04-17T12:59:12.83Z</time></trkpt><trkpt lat="45.641385" lon="11.2459217"><ele>734.2</ele><time>2026-04-17T12:59:13.831Z</time></trkpt><trkpt lat="45.6415" lon="11.24589"><ele>733.0</ele><time>2026-04-17T12:59:14.831Z</time></trkpt><trkpt lat="45.64162" lon="11.2458367"><ele>733.0</ele><time>2026-04-17T12:59:15.831Z</time></trkpt><trkpt lat="45.6417433" lon="11.2457767"><ele>733.0</ele><time>2026-04-17T12:59:16.831Z</time></trkpt><trkpt lat="45.6418717" lon="11.2457117"><ele>733.0</ele><time>2026-04-17T12:59:17.831Z</time></trkpt><trkpt lat="45.6419767" lon="11.24566"><ele>733.0</ele><time>2026-04-17T12:59:18.831Z</time></trkpt><trkpt lat="45.6420833" lon="11.24562"><ele>737.0</ele><time>2026-04-17T12:59:19.831Z</time></trkpt><trkpt lat="45.64218" lon="11.2455733"><ele>741.0</ele><time>2026-04-17T12:59:20.831Z</time></trkpt><trkpt lat="45.6422767" lon="11.245535"><ele>745.0</ele><time>2026-04-17T12:59:21.831Z</time></trkpt><trkpt lat="45.6423817" lon="11.24553"><ele>749.0</ele><time>2026-04-17T12:59:22.831Z</time></trkpt><trkpt lat="45.6425083" lon="11.24556"><ele>753.0</ele><time>2026-04-17T12:59:23.831Z</time></trkpt><trkpt lat="45.642655" lon="11.2456183"><ele>748.25</ele><time>2026-04-17T12:59:24.831Z</time></trkpt><trkpt lat="45.6427933" lon="11.2457283"><ele>743.5</ele><time>2026-04-17T12:59:25.831Z</time></trkpt><trkpt lat="45.64291" lon="11.24585"><ele>738.75</ele><time>2026-04-17T12:59:26.831Z</time></trkpt><trkpt lat="45.6430017" lon="11.2459617"><ele>734.0</ele><time>2026-04-17T12:59:27.831Z</time></trkpt><trkpt lat="45.6430917" lon="11.246025"><ele>733.5</ele><time>2026-04-17T12:59:28.831Z</time></trkpt><trkpt lat="45.6431683" lon="11.246045"><ele>733.0</ele><time>2026-04-17T12:59:29.831Z</time></trkpt><trkpt lat="45.643245" lon="11.246025"><ele>732.5</ele><time>2026-04-17T12:59:30.83Z</time></trkpt><trkpt lat="45.6433067" lon="11.24597"><ele>732.0</ele><time>2026-04-17T12:59:31.831Z</time></trkpt><trkpt lat="45.6433667" lon="11.2458733"><ele>731.5</ele><time>2026-04-17T12:59:32.831Z</time></trkpt><trkpt lat="45.6434283" lon="11.2457433"><ele>731.0</ele><time>2026-04-17T12:59:33.831Z</time></trkpt><trkpt lat="45.64348" lon="11.245595"><ele>731.5999999999999</ele><time>2026-04-17T12:59:34.83Z</time></trkpt><trkpt lat="45.6435317" lon="11.2454567"><ele>732.2</ele><time>2026-04-17T12:59:35.831Z</time></trkpt><trkpt lat="45.6435883" lon="11.2453483"><ele>732.8</ele><time>2026-04-17T12:59:36.831Z</time></trkpt><trkpt lat="45.6436583" lon="11.24526"><ele>733.4000000000001</ele><time>2026-04-17T12:59:37.831Z</time></trkpt><trkpt lat="45.6437467" lon="11.2452133"><ele>734.0</ele><time>2026-04-17T12:59:38.831Z</time></trkpt><trkpt lat="45.6438383" lon="11.2451717"><ele>734.0</ele><time>2026-04-17T12:59:39.831Z</time></trkpt><trkpt lat="45.6439433" lon="11.2451183"><ele>734.0</ele><time>2026-04-17T12:59:40.831Z</time></trkpt><trkpt lat="45.6440417" lon="11.245075"><ele>734.0</ele><time>2026-04-17T12:59:41.83Z</time></trkpt><trkpt lat="45.64414" lon="11.2450367"><ele>734.0</ele><time>2026-04-17T12:59:42.831Z</time></trkpt><trkpt lat="45.644245" lon="11.2449817"><ele>734.0</ele><time>2026-04-17T12:59:43.831Z</time></trkpt><trkpt lat="45.6443417" lon="11.2449267"><ele>734.0</ele><time>2026-04-17T12:59:44.831Z</time></trkpt><trkpt lat="45.6444483" lon="11.2448367"><ele>734.0</ele><time>2026-04-17T12:59:45.831Z</time></trkpt><trkpt lat="45.6445467" lon="11.24475"><ele>734.0</ele><time>2026-04-17T12:59:46.831Z</time></trkpt><trkpt lat="45.64465" lon="11.244675"><ele>734.0</ele><time>2026-04-17T12:59:47.831Z</time></trkpt><trkpt lat="45.6447517" lon="11.2446217"><ele>736.4000000000001</ele><time>2026-04-17T12:59:48.831Z</time></trkpt><trkpt lat="45.6448517" lon="11.2445683"><ele>738.8</ele><time>2026-04-17T12:59:49.831Z</time></trkpt><trkpt lat="45.6449467" lon="11.2445017"><ele>741.2</ele><time>2026-04-17T12:59:50.83Z</time></trkpt><trkpt lat="45.6450283" lon="11.2443917"><ele>743.5999999999999</ele><time>2026-04-17T12:59:51.831Z</time></trkpt><trkpt lat="45.6450917" lon="11.244255"><ele>746.0</ele><time>2026-04-17T12:59:52.831Z</time></trkpt><trkpt lat="45.6451467" lon="11.24412"><ele>746.0</ele><time>2026-04-17T12:59:53.831Z</time></trkpt><trkpt lat="45.6451883" lon="11.2439833"><ele>746.0</ele><time>2026-04-17T12:59:54.831Z</time></trkpt><trkpt lat="45.6452283" lon="11.243885"><ele>746.0</ele><time>2026-04-17T12:59:55.831Z</time></trkpt><trkpt lat="45.6453017" lon="11.2438217"><ele>746.0</ele><time>2026-04-17T12:59:57.831Z</time></trkpt><trkpt lat="45.6453917" lon="11.2439367"><ele>746.0</ele><time>2026-04-17T12:59:59.831Z</time></trkpt><trkpt lat="45.6454283" lon="11.2440533"><ele>746.1999999999999</ele><time>2026-04-17T13:00:00.831Z</time></trkpt><trkpt lat="45.6454767" lon="11.2441667"><ele>746.4</ele><time>2026-04-17T13:00:01.831Z</time></trkpt><trkpt lat="45.6455233" lon="11.2442717"><ele>746.6</ele><time>2026-04-17T13:00:02.831Z</time></trkpt><trkpt lat="45.64558" lon="11.2443833"><ele>746.8</ele><time>2026-04-17T13:00:03.831Z</time></trkpt><trkpt lat="45.6456283" lon="11.244495"><ele>747.0</ele><time>2026-04-17T13:00:04.831Z</time></trkpt><trkpt lat="45.6456833" lon="11.2446267"><ele>747.0</ele><time>2026-04-17T13:00:05.831Z</time></trkpt><trkpt lat="45.645725" lon="11.2447617"><ele>747.0</ele><time>2026-04-17T13:00:06.831Z</time></trkpt><trkpt lat="45.6457567" lon="11.2449183"><ele>747.0</ele><time>2026-04-17T13:00:07.831Z</time></trkpt><trkpt lat="45.6457783" lon="11.2450917"><ele>747.0</ele><time>2026-04-17T13:00:08.831Z</time></trkpt><trkpt lat="45.6457983" lon="11.2452617"><ele>744.4000000000001</ele><time>2026-04-17T13:00:09.831Z</time></trkpt><trkpt lat="45.6457917" lon="11.2454117"><ele>741.8000000000001</ele><time>2026-04-17T13:00:10.831Z</time></trkpt><trkpt lat="45.6457717" lon="11.2455483"><ele>739.2</ele><time>2026-04-17T13:00:11.831Z</time></trkpt><trkpt lat="45.645745" lon="11.2456767"><ele>736.6</ele><time>2026-04-17T13:00:12.831Z</time></trkpt><trkpt lat="45.6457333" lon="11.2457933"><ele>734.0</ele><time>2026-04-17T13:00:13.831Z</time></trkpt><trkpt lat="45.6457533" lon="11.2459"><ele>733.2</ele><time>2026-04-17T13:00:14.831Z</time></trkpt><trkpt lat="45.6457917" lon="11.24599"><ele>732.4000000000001</ele><time>2026-04-17T13:00:15.831Z</time></trkpt><trkpt lat="45.6458633" lon="11.2460467"><ele>731.6</ele><time>2026-04-17T13:00:16.831Z</time></trkpt><trkpt lat="45.6459633" lon="11.2461233"><ele>730.8</ele><time>2026-04-17T13:00:17.831Z</time></trkpt><trkpt lat="45.6460683" lon="11.2462217"><ele>730.0</ele><time>2026-04-17T13:00:18.831Z</time></trkpt><trkpt lat="45.6461833" lon="11.24636"><ele>726.6666666666667</ele><time>2026-04-17T13:00:19.831Z</time></trkpt><trkpt lat="45.6462917" lon="11.2465233"><ele>723.3333333333334</ele><time>2026-04-17T13:00:20.831Z</time></trkpt><trkpt lat="45.6464117" lon="11.2467183"><ele>720.0</ele><time>2026-04-17T13:00:21.831Z</time></trkpt><trkpt lat="45.6465367" lon="11.2469217"><ele>720.0</ele><time>2026-04-17T13:00:22.831Z</time></trkpt><trkpt lat="45.6466733" lon="11.2471233"><ele>720.0</ele><time>2026-04-17T13:00:23.83Z</time></trkpt><trkpt lat="45.6468033" lon="11.2473117"><ele>720.0</ele><time>2026-04-17T13:00:24.831Z</time></trkpt><trkpt lat="45.6469333" lon="11.2474633"><ele>719.25</ele><time>2026-04-17T13:00:25.831Z</time></trkpt><trkpt lat="45.6470483" lon="11.24761"><ele>718.5</ele><time>2026-04-17T13:00:26.831Z</time></trkpt><trkpt lat="45.6471267" lon="11.2477883"><ele>717.75</ele><time>2026-04-17T13:00:27.83Z</time></trkpt><trkpt lat="45.647175" lon="11.247975"><ele>717.0</ele><time>2026-04-17T13:00:28.831Z</time></trkpt><trkpt lat="45.6472067" lon="11.2481783"><ele>715.25</ele><time>2026-04-17T13:00:29.831Z</time></trkpt><trkpt lat="45.6472333" lon="11.2483933"><ele>713.5</ele><time>2026-04-17T13:00:30.831Z</time></trkpt><trkpt lat="45.6472583" lon="11.248595"><ele>711.75</ele><time>2026-04-17T13:00:31.831Z</time></trkpt><trkpt lat="45.6472817" lon="11.2487783"><ele>710.0</ele><time>2026-04-17T13:00:32.831Z</time></trkpt><trkpt lat="45.647315" lon="11.2489417"><ele>709.8</ele><time>2026-04-17T13:00:33.831Z</time></trkpt><trkpt lat="45.647355" lon="11.249075"><ele>709.6</ele><time>2026-04-17T13:00:34.831Z</time></trkpt><trkpt lat="45.6474117" lon="11.249185"><ele>709.4000000000001</ele><time>2026-04-17T13:00:35.831Z</time></trkpt><trkpt lat="45.6474717" lon="11.249295"><ele>709.2</ele><time>2026-04-17T13:00:36.831Z</time></trkpt><trkpt lat="45.647545" lon="11.2494267"><ele>709.0</ele><time>2026-04-17T13:00:37.83Z</time></trkpt><trkpt lat="45.6476117" lon="11.24957"><ele>709.0</ele><time>2026-04-17T13:00:38.831Z</time></trkpt><trkpt lat="45.647675" lon="11.2496917"><ele>709.0</ele><time>2026-04-17T13:00:39.831Z</time></trkpt><trkpt lat="45.6477333" lon="11.2498167"><ele>709.0</ele><time>2026-04-17T13:00:40.831Z</time></trkpt><trkpt lat="45.647795" lon="11.249965"><ele>709.0</ele><time>2026-04-17T13:00:41.831Z</time></trkpt><trkpt lat="45.6478483" lon="11.2501383"><ele>705.75</ele><time>2026-04-17T13:00:42.831Z</time></trkpt><trkpt lat="45.6479" lon="11.2503267"><ele>702.5</ele><time>2026-04-17T13:00:43.831Z</time></trkpt><trkpt lat="45.6479583" lon="11.2505083"><ele>699.25</ele><time>2026-04-17T13:00:44.831Z</time></trkpt><trkpt lat="45.64802" lon="11.2506867"><ele>696.0</ele><time>2026-04-17T13:00:45.831Z</time></trkpt><trkpt lat="45.6480717" lon="11.2508633"><ele>692.5</ele><time>2026-04-17T13:00:46.83Z</time></trkpt><trkpt lat="45.648125" lon="11.25105"><ele>689.0</ele><time>2026-04-17T13:00:47.831Z</time></trkpt><trkpt lat="45.648155" lon="11.2512233"><ele>685.5</ele><time>2026-04-17T13:00:48.831Z</time></trkpt><trkpt lat="45.6481667" lon="11.2514117"><ele>682.0</ele><time>2026-04-17T13:00:49.831Z</time></trkpt><trkpt lat="45.648165" lon="11.2516"><ele>678.5</ele><time>2026-04-17T13:00:50.831Z</time></trkpt><trkpt lat="45.6481417" lon="11.2517867"><ele>675.0</ele><time>2026-04-17T13:00:51.831Z</time></trkpt><trkpt lat="45.64811" lon="11.25198"><ele>671.5</ele><time>2026-04-17T13:00:52.831Z</time></trkpt><trkpt lat="45.6480867" lon="11.2521583"><ele>668.0</ele><time>2026-04-17T13:00:53.831Z</time></trkpt><trkpt lat="45.6480733" lon="11.2523383"><ele>666.5</ele><time>2026-04-17T13:00:54.83Z</time></trkpt><trkpt lat="45.6480733" lon="11.25252"><ele>665.0</ele><time>2026-04-17T13:00:55.831Z</time></trkpt><trkpt lat="45.6481033" lon="11.2526917"><ele>663.5</ele><time>2026-04-17T13:00:56.831Z</time></trkpt><trkpt lat="45.64814" lon="11.2528517"><ele>662.0</ele><time>2026-04-17T13:00:57.831Z</time></trkpt><trkpt lat="45.64817" lon="11.2530133"><ele>661.1666666666666</ele><time>2026-04-17T13:00:58.831Z</time></trkpt><trkpt lat="45.64818" lon="11.2531467"><ele>660.3333333333333</ele><time>2026-04-17T13:00:59.831Z</time></trkpt><trkpt lat="45.6481733" lon="11.2532883"><ele>659.5</ele><time>2026-04-17T13:01:00.83Z</time></trkpt><trkpt lat="45.6481483" lon="11.2534"><ele>658.6666666666666</ele><time>2026-04-17T13:01:01.831Z</time></trkpt><trkpt lat="45.6481267" lon="11.2535017"><ele>657.8333333333334</ele><time>2026-04-17T13:01:02.831Z</time></trkpt><trkpt lat="45.6481383" lon="11.2535933"><ele>657.0</ele><time>2026-04-17T13:01:03.831Z</time></trkpt><trkpt lat="45.64824" lon="11.253665"><ele>657.0</ele><time>2026-04-17T13:01:05.831Z</time></trkpt><trkpt lat="45.6483083" lon="11.2536383"><ele>657.0</ele><time>2026-04-17T13:01:06.831Z</time></trkpt><trkpt lat="45.6483683" lon="11.2535617"><ele>657.0</ele><time>2026-04-17T13:01:07.831Z</time></trkpt><trkpt lat="45.6484233" lon="11.2534517"><ele>657.0</ele><time>2026-04-17T13:01:08.83Z</time></trkpt><trkpt lat="45.6484733" lon="11.2533317"><ele>657.0</ele><time>2026-04-17T13:01:09.831Z</time></trkpt><trkpt lat="45.648525" lon="11.2532367"><ele>657.0</ele><time>2026-04-17T13:01:10.831Z</time></trkpt><trkpt lat="45.64857" lon="11.2531633"><ele>657.8333333333334</ele><time>2026-04-17T13:01:11.831Z</time></trkpt><trkpt lat="45.64862" lon="11.253095"><ele>658.6666666666666</ele><time>2026-04-17T13:01:12.831Z</time></trkpt><trkpt lat="45.6486733" lon="11.2530167"><ele>659.5</ele><time>2026-04-17T13:01:13.831Z</time></trkpt><trkpt lat="45.6487267" lon="11.2529283"><ele>660.3333333333333</ele><time>2026-04-17T13:01:14.831Z</time></trkpt><trkpt lat="45.64878" lon="11.2528417"><ele>661.1666666666666</ele><time>2026-04-17T13:01:15.831Z</time></trkpt><trkpt lat="45.6488333" lon="11.2527533"><ele>662.0</ele><time>2026-04-17T13:01:16.831Z</time></trkpt><trkpt lat="45.6488817" lon="11.2526733"><ele>659.6666666666666</ele><time>2026-04-17T13:01:17.831Z</time></trkpt><trkpt lat="45.6489167" lon="11.252595"><ele>657.3333333333333</ele><time>2026-04-17T13:01:18.831Z</time></trkpt><trkpt lat="45.6489733" lon="11.2524583"><ele>655.0</ele><time>2026-04-17T13:01:20.831Z</time></trkpt><trkpt lat="45.6490183" lon="11.2523783"><ele>652.6666666666666</ele><time>2026-04-17T13:01:22.831Z</time></trkpt><trkpt lat="45.64911" lon="11.25242"><ele>650.3333333333334</ele><time>2026-04-17T13:01:25.831Z</time></trkpt><trkpt lat="45.6491967" lon="11.252445"><ele>648.0</ele><time>2026-04-17T13:01:28.831Z</time></trkpt><trkpt lat="45.6492617" lon="11.2524183"><ele>648.0</ele><time>2026-04-17T13:01:30.831Z</time></trkpt><trkpt lat="45.6493283" lon="11.2524333"><ele>648.0</ele><time>2026-04-17T13:01:32.831Z</time></trkpt><trkpt lat="45.6493883" lon="11.252525"><ele>648.0</ele><time>2026-04-17T13:01:34.831Z</time></trkpt><trkpt lat="45.64944" lon="11.2526217"><ele>648.0</ele><time>2026-04-17T13:01:36.831Z</time></trkpt><trkpt lat="45.6494933" lon="11.25267"><ele>648.0</ele><time>2026-04-17T13:01:38.831Z</time></trkpt><trkpt lat="45.6495817" lon="11.2527317"><ele>648.0</ele><time>2026-04-17T13:01:41.831Z</time></trkpt><trkpt lat="45.6496517" lon="11.2528167"><ele>646.6666666666666</ele><time>2026-04-17T13:01:43.831Z</time></trkpt><trkpt lat="45.649715" lon="11.2528817"><ele>645.3333333333334</ele><time>2026-04-17T13:01:45.831Z</time></trkpt><trkpt lat="45.6497683" lon="11.2529367"><ele>644.0</ele><time>2026-04-17T13:01:47.83Z</time></trkpt><trkpt lat="45.649825" lon="11.2529817"><ele>642.6666666666667</ele><time>2026-04-17T13:01:49.829Z</time></trkpt><trkpt lat="45.6499267" lon="11.252955"><ele>641.3333333333334</ele><time>2026-04-17T13:01:52.83Z</time></trkpt><trkpt lat="45.64999" lon="11.252855"><ele>640.0</ele><time>2026-04-17T13:01:54.83Z</time></trkpt><trkpt lat="45.6500767" lon="11.2528367"><ele>640.0</ele><time>2026-04-17T13:01:57.83Z</time></trkpt><trkpt lat="45.6501517" lon="11.2528917"><ele>640.0</ele><time>2026-04-17T13:01:59.83Z</time></trkpt><trkpt lat="45.6502083" lon="11.2529583"><ele>640.0</ele><time>2026-04-17T13:02:01.83Z</time></trkpt><trkpt lat="45.6502567" lon="11.2530367"><ele>640.0</ele><time>2026-04-17T13:02:03.83Z</time></trkpt><trkpt lat="45.6503017" lon="11.2531267"><ele>640.0</ele><time>2026-04-17T13:02:05.83Z</time></trkpt><trkpt lat="45.6503667" lon="11.2531483"><ele>640.0</ele><time>2026-04-17T13:02:07.83Z</time></trkpt><trkpt lat="45.650425" lon="11.253085"><ele>640.0</ele><time>2026-04-17T13:02:09.83Z</time></trkpt><trkpt lat="45.6504733" lon="11.2530033"><ele>639.0</ele><time>2026-04-17T13:02:11.829Z</time></trkpt><trkpt lat="45.6505067" lon="11.2528783"><ele>638.0</ele><time>2026-04-17T13:02:14.83Z</time></trkpt><trkpt lat="45.6505667" lon="11.2527933"><ele>637.0</ele><time>2026-04-17T13:02:17.83Z</time></trkpt><trkpt lat="45.65065" lon="11.2528083"><ele>636.0</ele><time>2026-04-17T13:02:20.83Z</time></trkpt><trkpt lat="45.650725" lon="11.2528967"><ele>635.0</ele><time>2026-04-17T13:02:23.83Z</time></trkpt><trkpt lat="45.6507817" lon="11.2530117"><ele>635.0</ele><time>2026-04-17T13:02:26.83Z</time></trkpt><trkpt lat="45.6508167" lon="11.2531"><ele>635.0</ele><time>2026-04-17T13:02:28.83Z</time></trkpt><trkpt lat="45.6508583" lon="11.2532333"><ele>635.0</ele><time>2026-04-17T13:02:30.83Z</time></trkpt><trkpt lat="45.6509233" lon="11.253355"><ele>635.0</ele><time>2026-04-17T13:02:32.83Z</time></trkpt><trkpt lat="45.6509567" lon="11.2534717"><ele>635.0</ele><time>2026-04-17T13:02:34.83Z</time></trkpt><trkpt lat="45.6509783" lon="11.2535617"><ele>635.0</ele><time>2026-04-17T13:02:36.83Z</time></trkpt><trkpt lat="45.6510383" lon="11.253675"><ele>632.2</ele><time>2026-04-17T13:02:39.83Z</time></trkpt><trkpt lat="45.6510983" lon="11.2537317"><ele>629.4</ele><time>2026-04-17T13:02:41.83Z</time></trkpt><trkpt lat="45.6511867" lon="11.2538033"><ele>626.6</ele><time>2026-04-17T13:02:44.829Z</time></trkpt><trkpt lat="45.6512567" lon="11.2538483"><ele>623.8</ele><time>2026-04-17T13:02:46.83Z</time></trkpt><trkpt lat="45.6513283" lon="11.253925"><ele>621.0</ele><time>2026-04-17T13:02:48.83Z</time></trkpt><trkpt lat="45.6514117" lon="11.2540317"><ele>617.1666666666666</ele><time>2026-04-17T13:02:50.829Z</time></trkpt><trkpt lat="45.6514633" lon="11.25412"><ele>613.3333333333334</ele><time>2026-04-17T13:02:52.83Z</time></trkpt><trkpt lat="45.6515017" lon="11.25422"><ele>609.5</ele><time>2026-04-17T13:02:54.83Z</time></trkpt><trkpt lat="45.6515383" lon="11.2543417"><ele>605.6666666666667</ele><time>2026-04-17T13:02:56.83Z</time></trkpt><trkpt lat="45.6515817" lon="11.25441"><ele>601.8333333333334</ele><time>2026-04-17T13:02:58.83Z</time></trkpt><trkpt lat="45.6516417" lon="11.254485"><ele>598.0</ele><time>2026-04-17T13:03:00.83Z</time></trkpt><trkpt lat="45.6517233" lon="11.25456"><ele>598.0</ele><time>2026-04-17T13:03:02.83Z</time></trkpt><trkpt lat="45.6518283" lon="11.254625"><ele>598.0</ele><time>2026-04-17T13:03:04.83Z</time></trkpt><trkpt lat="45.6519333" lon="11.254685"><ele>598.0</ele><time>2026-04-17T13:03:06.83Z</time></trkpt><trkpt lat="45.65205" lon="11.2547083"><ele>598.0</ele><time>2026-04-17T13:03:08.83Z</time></trkpt><trkpt lat="45.6521133" lon="11.2546933"><ele>598.0</ele><time>2026-04-17T13:03:09.829Z</time></trkpt><trkpt lat="45.6521767" lon="11.2546917"><ele>597.8333333333334</ele><time>2026-04-17T13:03:10.83Z</time></trkpt><trkpt lat="45.65224" lon="11.254675"><ele>597.6666666666667</ele><time>2026-04-17T13:03:11.83Z</time></trkpt><trkpt lat="45.6523033" lon="11.25467"><ele>597.5</ele><time>2026-04-17T13:03:12.83Z</time></trkpt><trkpt lat="45.6524" lon="11.2546617"><ele>597.3333333333334</ele><time>2026-04-17T13:03:14.829Z</time></trkpt><trkpt lat="45.6524967" lon="11.254635"><ele>597.1666666666666</ele><time>2026-04-17T13:03:16.829Z</time></trkpt><trkpt lat="45.65261" lon="11.25458"><ele>597.0</ele><time>2026-04-17T13:03:18.83Z</time></trkpt><trkpt lat="45.6526683" lon="11.2545417"><ele>597.0</ele><time>2026-04-17T13:03:19.83Z</time></trkpt><trkpt lat="45.6527817" lon="11.2544867"><ele>597.0</ele><time>2026-04-17T13:03:21.83Z</time></trkpt><trkpt lat="45.6528817" lon="11.2544667"><ele>597.0</ele><time>2026-04-17T13:03:23.83Z</time></trkpt><trkpt lat="45.6529467" lon="11.2544617"><ele>597.0</ele><time>2026-04-17T13:03:24.83Z</time></trkpt><trkpt lat="45.6530117" lon="11.2544533"><ele>597.0</ele><time>2026-04-17T13:03:25.83Z</time></trkpt><trkpt lat="45.6531133" lon="11.25444"><ele>596.8333333333334</ele><time>2026-04-17T13:03:27.83Z</time></trkpt><trkpt lat="45.6532133" lon="11.2544767"><ele>596.6666666666666</ele><time>2026-04-17T13:03:29.83Z</time></trkpt><trkpt lat="45.653265" lon="11.2545333"><ele>596.5</ele><time>2026-04-17T13:03:30.83Z</time></trkpt><trkpt lat="45.6533117" lon="11.2546017"><ele>596.3333333333333</ele><time>2026-04-17T13:03:31.83Z</time></trkpt><trkpt lat="45.6533833" lon="11.25471"><ele>596.1666666666666</ele><time>2026-04-17T13:03:33.83Z</time></trkpt><trkpt lat="45.653455" lon="11.2548033"><ele>596.0</ele><time>2026-04-17T13:03:35.83Z</time></trkpt><trkpt lat="45.6535183" lon="11.25486"><ele>591.8</ele><time>2026-04-17T13:03:36.829Z</time></trkpt><trkpt lat="45.653615" lon="11.25494"><ele>587.6</ele><time>2026-04-17T13:03:38.83Z</time></trkpt><trkpt lat="45.6537267" lon="11.2550017"><ele>583.4</ele><time>2026-04-17T13:03:40.83Z</time></trkpt><trkpt lat="45.6538133" lon="11.2550133"><ele>579.2</ele><time>2026-04-17T13:03:42.83Z</time></trkpt><trkpt lat="45.6539067" lon="11.2550233"><ele>575.0</ele><time>2026-04-17T13:03:44.83Z</time></trkpt><trkpt lat="45.6540083" lon="11.2550417"><ele>575.0</ele><time>2026-04-17T13:03:46.83Z</time></trkpt><trkpt lat="45.654095" lon="11.255055"><ele>575.0</ele><time>2026-04-17T13:03:48.83Z</time></trkpt><trkpt lat="45.6541917" lon="11.2550417"><ele>575.0</ele><time>2026-04-17T13:03:50.83Z</time></trkpt><trkpt lat="45.6542983" lon="11.2550383"><ele>575.0</ele><time>2026-04-17T13:03:52.83Z</time></trkpt><trkpt lat="45.65442" lon="11.2550483"><ele>575.0</ele><time>2026-04-17T13:03:54.83Z</time></trkpt><trkpt lat="45.6544983" lon="11.2551117"><ele>577.6</ele><time>2026-04-17T13:03:56.83Z</time></trkpt><trkpt lat="45.65455" lon="11.2551633"><ele>580.2</ele><time>2026-04-17T13:03:57.83Z</time></trkpt><trkpt lat="45.6546" lon="11.255225"><ele>582.8</ele><time>2026-04-17T13:03:58.829Z</time></trkpt><trkpt lat="45.654695" lon="11.25534"><ele>585.4</ele><time>2026-04-17T13:04:00.83Z</time></trkpt><trkpt lat="45.6547933" lon="11.25543"><ele>588.0</ele><time>2026-04-17T13:04:02.83Z</time></trkpt><trkpt lat="45.65489" lon="11.2555"><ele>588.0</ele><time>2026-04-17T13:04:04.83Z</time></trkpt><trkpt lat="45.65499" lon="11.2555583"><ele>588.0</ele><time>2026-04-17T13:04:06.83Z</time></trkpt><trkpt lat="45.6550633" lon="11.2555867"><ele>588.0</ele><time>2026-04-17T13:04:08.83Z</time></trkpt><trkpt lat="45.6551567" lon="11.2556417"><ele>588.0</ele><time>2026-04-17T13:04:11.83Z</time></trkpt><trkpt lat="45.655225" lon="11.255695"><ele>588.0</ele><time>2026-04-17T13:04:13.83Z</time></trkpt><trkpt lat="45.6553167" lon="11.255715"><ele>584.6</ele><time>2026-04-17T13:04:15.83Z</time></trkpt><trkpt lat="45.655445" lon="11.2557533"><ele>581.1999999999999</ele><time>2026-04-17T13:04:17.83Z</time></trkpt><trkpt lat="45.65552" lon="11.255785"><ele>577.8</ele><time>2026-04-17T13:04:18.83Z</time></trkpt><trkpt lat="45.6556" lon="11.255815"><ele>574.4</ele><time>2026-04-17T13:04:19.83Z</time></trkpt><trkpt lat="45.6556767" lon="11.2558633"><ele>571.0</ele><time>2026-04-17T13:04:20.83Z</time></trkpt><trkpt lat="45.6557567" lon="11.255905"><ele>571.0</ele><time>2026-04-17T13:04:21.83Z</time></trkpt><trkpt lat="45.6558267" lon="11.2559567"><ele>571.0</ele><time>2026-04-17T13:04:22.83Z</time></trkpt><trkpt lat="45.65589" lon="11.2559983"><ele>571.0</ele><time>2026-04-17T13:04:23.83Z</time></trkpt><trkpt lat="45.655975" lon="11.2560717"><ele>571.0</ele><time>2026-04-17T13:04:25.829Z</time></trkpt><trkpt lat="45.6560433" lon="11.256085"><ele>571.0</ele><time>2026-04-17T13:04:27.83Z</time></trkpt><trkpt lat="45.6561517" lon="11.2560767"><ele>571.0</ele><time>2026-04-17T13:04:29.83Z</time></trkpt><trkpt lat="45.6562183" lon="11.2560633"><ele>571.4</ele><time>2026-04-17T13:04:30.83Z</time></trkpt><trkpt lat="45.6563317" lon="11.25605"><ele>571.8</ele><time>2026-04-17T13:04:32.829Z</time></trkpt><trkpt lat="45.6564383" lon="11.2560233"><ele>572.1999999999999</ele><time>2026-04-17T13:04:34.829Z</time></trkpt><trkpt lat="45.656535" lon="11.2559467"><ele>572.6</ele><time>2026-04-17T13:04:36.83Z</time></trkpt><trkpt lat="45.65661" lon="11.2558567"><ele>573.0</ele><time>2026-04-17T13:04:38.83Z</time></trkpt><trkpt lat="45.6566533" lon="11.2557667"><ele>573.0</ele><time>2026-04-17T13:04:40.83Z</time></trkpt><trkpt lat="45.656645" lon="11.2556333"><ele>573.0</ele><time>2026-04-17T13:04:42.83Z</time></trkpt><trkpt lat="45.6566167" lon="11.25547"><ele>573.0</ele><time>2026-04-17T13:04:44.83Z</time></trkpt><trkpt lat="45.6566017" lon="11.2553017"><ele>573.0</ele><time>2026-04-17T13:04:46.83Z</time></trkpt><trkpt lat="45.6565933" lon="11.2551433"><ele>573.0</ele><time>2026-04-17T13:04:48.829Z</time></trkpt><trkpt lat="45.6565767" lon="11.2549983"><ele>577.0</ele><time>2026-04-17T13:04:50.829Z</time></trkpt><trkpt lat="45.6565583" lon="11.2548433"><ele>581.0</ele><time>2026-04-17T13:04:52.829Z</time></trkpt><trkpt lat="45.65656" lon="11.2547017"><ele>585.0</ele><time>2026-04-17T13:04:54.829Z</time></trkpt><trkpt lat="45.6565783" lon="11.254575"><ele>589.0</ele><time>2026-04-17T13:04:56.829Z</time></trkpt><trkpt lat="45.6566367" lon="11.2544933"><ele>593.0</ele><time>2026-04-17T13:04:58.829Z</time></trkpt><trkpt lat="45.6567233" lon="11.2544233"><ele>596.4</ele><time>2026-04-17T13:05:00.829Z</time></trkpt><trkpt lat="45.6568017" lon="11.2543417"><ele>599.8</ele><time>2026-04-17T13:05:02.829Z</time></trkpt><trkpt lat="45.6568733" lon="11.2542417"><ele>603.2</ele><time>2026-04-17T13:05:04.829Z</time></trkpt><trkpt lat="45.6569267" lon="11.2540983"><ele>606.6</ele><time>2026-04-17T13:05:06.829Z</time></trkpt><trkpt lat="45.6569417" lon="11.253965"><ele>610.0</ele><time>2026-04-17T13:05:08.829Z</time></trkpt><trkpt lat="45.656915" lon="11.2538283"><ele>613.5</ele><time>2026-04-17T13:05:10.828Z</time></trkpt><trkpt lat="45.6568817" lon="11.2537067"><ele>617.0</ele><time>2026-04-17T13:05:12.829Z</time></trkpt><trkpt lat="45.65687" lon="11.25361"><ele>620.5</ele><time>2026-04-17T13:05:14.829Z</time></trkpt><trkpt lat="45.6568767" lon="11.253485"><ele>624.0</ele><time>2026-04-17T13:05:16.829Z</time></trkpt><trkpt lat="45.65688" lon="11.25333"><ele>627.5</ele><time>2026-04-17T13:05:18.829Z</time></trkpt><trkpt lat="45.65688" lon="11.25322"><ele>631.0</ele><time>2026-04-17T13:05:19.828Z</time></trkpt><trkpt lat="45.6568883" lon="11.2531033"><ele>632.5</ele><time>2026-04-17T13:05:20.829Z</time></trkpt><trkpt lat="45.6568867" lon="11.2529783"><ele>634.0</ele><time>2026-04-17T13:05:21.829Z</time></trkpt><trkpt lat="45.65689" lon="11.252865"><ele>635.5</ele><time>2026-04-17T13:05:22.829Z</time></trkpt><trkpt lat="45.65689" lon="11.2527583"><ele>637.0</ele><time>2026-04-17T13:05:23.829Z</time></trkpt><trkpt lat="45.6568883" lon="11.2526583"><ele>638.5</ele><time>2026-04-17T13:05:24.829Z</time></trkpt><trkpt lat="45.6568933" lon="11.2525583"><ele>640.0</ele><time>2026-04-17T13:05:25.829Z</time></trkpt><trkpt lat="45.6568883" lon="11.2523917"><ele>639.8</ele><time>2026-04-17T13:05:27.829Z</time></trkpt><trkpt lat="45.656845" lon="11.2522317"><ele>639.6</ele><time>2026-04-17T13:05:29.829Z</time></trkpt><trkpt lat="45.6567883" lon="11.25215"><ele>639.4</ele><time>2026-04-17T13:05:30.829Z</time></trkpt><trkpt lat="45.656725" lon="11.2520733"><ele>639.2</ele><time>2026-04-17T13:05:31.829Z</time></trkpt><trkpt lat="45.6566683" lon="11.2520067"><ele>639.0</ele><time>2026-04-17T13:05:32.829Z</time></trkpt><trkpt lat="45.6566017" lon="11.2519083"><ele>639.0</ele><time>2026-04-17T13:05:34.829Z</time></trkpt><trkpt lat="45.6565667" lon="11.2518167"><ele>639.0</ele><time>2026-04-17T13:05:36.829Z</time></trkpt><trkpt lat="45.656555" lon="11.2517"><ele>639.0</ele><time>2026-04-17T13:05:38.829Z</time></trkpt><trkpt lat="45.6566167" lon="11.2515267"><ele>639.0</ele><time>2026-04-17T13:05:40.828Z</time></trkpt><trkpt lat="45.65667" lon="11.25141"><ele>639.0</ele><time>2026-04-17T13:05:41.829Z</time></trkpt><trkpt lat="45.6567267" lon="11.25129"><ele>642.1666666666666</ele><time>2026-04-17T13:05:42.829Z</time></trkpt><trkpt lat="45.6567667" lon="11.2511767"><ele>645.3333333333334</ele><time>2026-04-17T13:05:43.829Z</time></trkpt><trkpt lat="45.6568" lon="11.2510667"><ele>648.5</ele><time>2026-04-17T13:05:44.829Z</time></trkpt><trkpt lat="45.6568433" lon="11.250965"><ele>651.6666666666667</ele><time>2026-04-17T13:05:45.829Z</time></trkpt><trkpt lat="45.6568883" lon="11.2508667"><ele>654.8333333333334</ele><time>2026-04-17T13:05:46.829Z</time></trkpt><trkpt lat="45.6569317" lon="11.2507633"><ele>658.0</ele><time>2026-04-17T13:05:47.829Z</time></trkpt><trkpt lat="45.6569733" lon="11.2506767"><ele>653.1666666666667</ele><time>2026-04-17T13:05:48.829Z</time></trkpt><trkpt lat="45.6570233" lon="11.250595"><ele>648.3333333333334</ele><time>2026-04-17T13:05:49.829Z</time></trkpt><trkpt lat="45.657065" lon="11.250525"><ele>643.5</ele><time>2026-04-17T13:05:50.829Z</time></trkpt><trkpt lat="45.6571083" lon="11.2503983"><ele>638.6666666666666</ele><time>2026-04-17T13:05:52.829Z</time></trkpt><trkpt lat="45.6571367" lon="11.250245"><ele>633.8333333333333</ele><time>2026-04-17T13:05:54.829Z</time></trkpt><trkpt lat="45.6571367" lon="11.2501483"><ele>629.0</ele><time>2026-04-17T13:05:55.829Z</time></trkpt><trkpt lat="45.6571433" lon="11.2500567"><ele>629.0</ele><time>2026-04-17T13:05:56.829Z</time></trkpt><trkpt lat="45.657145" lon="11.2499583"><ele>629.0</ele><time>2026-04-17T13:05:57.829Z</time></trkpt><trkpt lat="45.657145" lon="11.2498583"><ele>629.0</ele><time>2026-04-17T13:05:58.828Z</time></trkpt><trkpt lat="45.657165" lon="11.2497367"><ele>629.0</ele><time>2026-04-17T13:05:59.829Z</time></trkpt><trkpt lat="45.65719" lon="11.2496083"><ele>629.0</ele><time>2026-04-17T13:06:00.829Z</time></trkpt><trkpt lat="45.6572233" lon="11.2494783"><ele>629.0</ele><time>2026-04-17T13:06:01.829Z</time></trkpt><trkpt lat="45.6572633" lon="11.2493483"><ele>631.8333333333333</ele><time>2026-04-17T13:06:02.829Z</time></trkpt><trkpt lat="45.6572933" lon="11.249225"><ele>634.6666666666666</ele><time>2026-04-17T13:06:03.828Z</time></trkpt><trkpt lat="45.657335" lon="11.2490983"><ele>637.5</ele><time>2026-04-17T13:06:04.829Z</time></trkpt><trkpt lat="45.6573783" lon="11.2489967"><ele>640.3333333333334</ele><time>2026-04-17T13:06:05.829Z</time></trkpt><trkpt lat="45.657415" lon="11.2488883"><ele>643.1666666666667</ele><time>2026-04-17T13:06:06.829Z</time></trkpt><trkpt lat="45.6574367" lon="11.2487633"><ele>646.0</ele><time>2026-04-17T13:06:07.829Z</time></trkpt><trkpt lat="45.6574667" lon="11.248645"><ele>649.6666666666667</ele><time>2026-04-17T13:06:08.829Z</time></trkpt><trkpt lat="45.6574867" lon="11.248545"><ele>653.3333333333334</ele><time>2026-04-17T13:06:09.829Z</time></trkpt><trkpt lat="45.657515" lon="11.2484533"><ele>657.0</ele><time>2026-04-17T13:06:10.829Z</time></trkpt><trkpt lat="45.657555" lon="11.24836"><ele>660.6666666666666</ele><time>2026-04-17T13:06:11.829Z</time></trkpt><trkpt lat="45.657645" lon="11.2482167"><ele>664.3333333333333</ele><time>2026-04-17T13:06:13.829Z</time></trkpt><trkpt lat="45.6577133" lon="11.2481367"><ele>668.0</ele><time>2026-04-17T13:06:14.829Z</time></trkpt><trkpt lat="45.6577683" lon="11.2480617"><ele>667.2857142857142</ele><time>2026-04-17T13:06:15.829Z</time></trkpt><trkpt lat="45.6578333" lon="11.2479883"><ele>666.5714285714286</ele><time>2026-04-17T13:06:16.829Z</time></trkpt><trkpt lat="45.657885" lon="11.2479183"><ele>665.8571428571429</ele><time>2026-04-17T13:06:17.828Z</time></trkpt><trkpt lat="45.6579267" lon="11.24784"><ele>665.1428571428571</ele><time>2026-04-17T13:06:18.829Z</time></trkpt><trkpt lat="45.65796" lon="11.24776"><ele>664.4285714285714</ele><time>2026-04-17T13:06:19.829Z</time></trkpt><trkpt lat="45.6579867" lon="11.2476767"><ele>663.7142857142857</ele><time>2026-04-17T13:06:20.829Z</time></trkpt><trkpt lat="45.658015" lon="11.24759"><ele>663.0</ele><time>2026-04-17T13:06:21.829Z</time></trkpt><trkpt lat="45.6580767" lon="11.2474233"><ele>662.9999999999999</ele><time>2026-04-17T13:06:23.829Z</time></trkpt><trkpt lat="45.6581033" lon="11.2473383"><ele>663.0</ele><time>2026-04-17T13:06:24.829Z</time></trkpt><trkpt lat="45.6581367" lon="11.24726"><ele>663.0</ele><time>2026-04-17T13:06:25.829Z</time></trkpt><trkpt lat="45.65819" lon="11.2471467"><ele>663.0</ele><time>2026-04-17T13:06:27.829Z</time></trkpt><trkpt lat="45.658235" lon="11.24706"><ele>663.0</ele><time>2026-04-17T13:06:29.829Z</time></trkpt><trkpt lat="45.6582967" lon="11.24704"><ele>662.9999999999999</ele><time>2026-04-17T13:06:32.829Z</time></trkpt><trkpt lat="45.6583583" lon="11.247125"><ele>663.0</ele><time>2026-04-17T13:06:35.829Z</time></trkpt><trkpt lat="45.658405" lon="11.2472283"><ele>663.0</ele><time>2026-04-17T13:06:37.828Z</time></trkpt><trkpt lat="45.6584783" lon="11.2473033"><ele>663.0</ele><time>2026-04-17T13:06:40.829Z</time></trkpt><trkpt lat="45.6585167" lon="11.2474133"><ele>663.0</ele><time>2026-04-17T13:06:44.829Z</time></trkpt><trkpt lat="45.6585433" lon="11.2475417"><ele>663.0</ele><time>2026-04-17T13:06:47.829Z</time></trkpt><trkpt lat="45.65861" lon="11.2477033"><ele>663.0</ele><time>2026-04-17T13:07:04.829Z</time></trkpt><trkpt lat="45.6586533" lon="11.247785"><ele>667.6666666666666</ele><time>2026-04-17T13:07:06.829Z</time></trkpt><trkpt lat="45.6587" lon="11.2478667"><ele>672.3333333333334</ele><time>2026-04-17T13:07:08.829Z</time></trkpt><trkpt lat="45.65874" lon="11.2479633"><ele>677.0</ele><time>2026-04-17T13:07:10.829Z</time></trkpt><trkpt lat="45.6587917" lon="11.248045"><ele>681.6666666666667</ele><time>2026-04-17T13:07:12.829Z</time></trkpt><trkpt lat="45.6588467" lon="11.2481117"><ele>686.3333333333334</ele><time>2026-04-17T13:07:14.829Z</time></trkpt><trkpt lat="45.6589067" lon="11.248205"><ele>691.0</ele><time>2026-04-17T13:07:17.828Z</time></trkpt><trkpt lat="45.6588933" lon="11.24834"><ele>691.0</ele><time>2026-04-17T13:07:20.829Z</time></trkpt><trkpt lat="45.65885" lon="11.2484867"><ele>691.0</ele><time>2026-04-17T13:07:22.829Z</time></trkpt><trkpt lat="45.6588267" lon="11.2486433"><ele>691.0</ele><time>2026-04-17T13:07:24.829Z</time></trkpt><trkpt lat="45.65885" lon="11.2487533"><ele>691.0</ele><time>2026-04-17T13:07:46.829Z</time></trkpt><trkpt lat="45.6588067" lon="11.2486817"><ele>691.0</ele><time>2026-04-17T13:11:59.827Z</time></trkpt><trkpt lat="45.65879" lon="11.2485283"><ele>691.0</ele><time>2026-04-17T13:12:08.827Z</time></trkpt><trkpt lat="45.6588067" lon="11.2484033"><ele>691.0</ele><time>2026-04-17T13:12:11.826Z</time></trkpt><trkpt lat="45.65885" lon="11.2483117"><ele>691.0</ele><time>2026-04-17T13:12:14.827Z</time></trkpt><trkpt lat="45.65882" lon="11.2481633"><ele>691.0</ele><time>2026-04-17T13:12:19.827Z</time></trkpt><trkpt lat="45.6587817" lon="11.2480833"><ele>691.0</ele><time>2026-04-17T13:12:21.826Z</time></trkpt><trkpt lat="45.6587467" lon="11.2479983"><ele>691.0</ele><time>2026-04-17T13:12:23.827Z</time></trkpt><trkpt lat="45.6586933" lon="11.24783"><ele>691.3333333333334</ele><time>2026-04-17T13:12:27.827Z</time></trkpt><trkpt lat="45.6586633" lon="11.247705"><ele>691.6666666666667</ele><time>2026-04-17T13:12:30.827Z</time></trkpt><trkpt lat="45.65865" lon="11.2476067"><ele>692.0</ele><time>2026-04-17T13:12:32.826Z</time></trkpt><trkpt lat="45.6586383" lon="11.2475167"><ele>692.3333333333334</ele><time>2026-04-17T13:12:34.826Z</time></trkpt><trkpt lat="45.65863" lon="11.2474167"><ele>692.6666666666666</ele><time>2026-04-17T13:12:36.826Z</time></trkpt><trkpt lat="45.65858" lon="11.2472983"><ele>693.0</ele><time>2026-04-17T13:12:39.827Z</time></trkpt><trkpt lat="45.6585217" lon="11.247225"><ele>690.25</ele><time>2026-04-17T13:12:42.827Z</time></trkpt><trkpt lat="45.6584967" lon="11.247135"><ele>687.5</ele><time>2026-04-17T13:12:45.827Z</time></trkpt><trkpt lat="45.6583283" lon="11.247055"><ele>684.75</ele><time>2026-04-17T13:13:02.827Z</time></trkpt><trkpt lat="45.6582783" lon="11.2471767"><ele>682.0</ele><time>2026-04-17T13:13:04.826Z</time></trkpt><trkpt lat="45.6581933" lon="11.2474467"><ele>678.2</ele><time>2026-04-17T13:13:07.827Z</time></trkpt><trkpt lat="45.6581617" lon="11.2475367"><ele>674.4000000000001</ele><time>2026-04-17T13:13:08.827Z</time></trkpt><trkpt lat="45.6581233" lon="11.247625"><ele>670.5999999999999</ele><time>2026-04-17T13:13:09.827Z</time></trkpt><trkpt lat="45.6580933" lon="11.2477083"><ele>666.8</ele><time>2026-04-17T13:13:10.827Z</time></trkpt><trkpt lat="45.6580133" lon="11.247865"><ele>663.0</ele><time>2026-04-17T13:13:12.827Z</time></trkpt><trkpt lat="45.6579" lon="11.248035"><ele>664.0</ele><time>2026-04-17T13:13:14.827Z</time></trkpt><trkpt lat="45.65783" lon="11.248135"><ele>665.0</ele><time>2026-04-17T13:13:15.827Z</time></trkpt><trkpt lat="45.6577633" lon="11.2482267"><ele>666.0</ele><time>2026-04-17T13:13:16.827Z</time></trkpt><trkpt lat="45.6577033" lon="11.2483083"><ele>667.0</ele><time>2026-04-17T13:13:17.827Z</time></trkpt><trkpt lat="45.6576517" lon="11.2483983"><ele>668.0</ele><time>2026-04-17T13:13:18.827Z</time></trkpt><trkpt lat="45.6575633" lon="11.2485933"><ele>668.0</ele><time>2026-04-17T13:13:20.827Z</time></trkpt><trkpt lat="45.657505" lon="11.2488117"><ele>668.0</ele><time>2026-04-17T13:13:22.827Z</time></trkpt><trkpt lat="45.657475" lon="11.2489217"><ele>668.0</ele><time>2026-04-17T13:13:23.827Z</time></trkpt><trkpt lat="45.6574383" lon="11.24902"><ele>668.0</ele><time>2026-04-17T13:13:24.826Z</time></trkpt><trkpt lat="45.6574033" lon="11.2491133"><ele>668.0</ele><time>2026-04-17T13:13:25.827Z</time></trkpt><trkpt lat="45.6573733" lon="11.24922"><ele>662.5</ele><time>2026-04-17T13:13:26.826Z</time></trkpt><trkpt lat="45.657335" lon="11.2493133"><ele>657.0</ele><time>2026-04-17T13:13:27.827Z</time></trkpt><trkpt lat="45.6572683" lon="11.2494733"><ele>651.5</ele><time>2026-04-17T13:13:29.827Z</time></trkpt><trkpt lat="45.6572017" lon="11.2496567"><ele>646.0</ele><time>2026-04-17T13:13:31.826Z</time></trkpt><trkpt lat="45.65715" lon="11.249835"><ele>642.5999999999999</ele><time>2026-04-17T13:13:33.827Z</time></trkpt><trkpt lat="45.6571317" lon="11.250025"><ele>639.1999999999999</ele><time>2026-04-17T13:13:35.827Z</time></trkpt><trkpt lat="45.657155" lon="11.250195"><ele>635.8</ele><time>2026-04-17T13:13:37.827Z</time></trkpt><trkpt lat="45.6571667" lon="11.250345"><ele>632.4</ele><time>2026-04-17T13:13:39.827Z</time></trkpt><trkpt lat="45.6571467" lon="11.2504583"><ele>629.0</ele><time>2026-04-17T13:13:41.827Z</time></trkpt><trkpt lat="45.6570617" lon="11.25062"><ele>638.6666666666666</ele><time>2026-04-17T13:13:43.827Z</time></trkpt><trkpt lat="45.6569517" lon="11.250825"><ele>648.3333333333334</ele><time>2026-04-17T13:13:45.827Z</time></trkpt><trkpt lat="45.6568683" lon="11.25103"><ele>658.0</ele><time>2026-04-17T13:13:47.827Z</time></trkpt><trkpt lat="45.65678" lon="11.2512183"><ele>658.0</ele><time>2026-04-17T13:13:49.827Z</time></trkpt><trkpt lat="45.6567017" lon="11.2514167"><ele>658.0</ele><time>2026-04-17T13:13:51.827Z</time></trkpt><trkpt lat="45.6566667" lon="11.2515133"><ele>658.0</ele><time>2026-04-17T13:13:52.827Z</time></trkpt><trkpt lat="45.6566217" lon="11.251595"><ele>658.0</ele><time>2026-04-17T13:13:53.827Z</time></trkpt><trkpt lat="45.6565917" lon="11.2516767"><ele>658.0</ele><time>2026-04-17T13:13:54.827Z</time></trkpt><trkpt lat="45.65658" lon="11.2518217"><ele>653.5</ele><time>2026-04-17T13:13:56.827Z</time></trkpt><trkpt lat="45.65665" lon="11.2519633"><ele>649.0</ele><time>2026-04-17T13:13:58.827Z</time></trkpt><trkpt lat="45.6567583" lon="11.25212"><ele>644.5</ele><time>2026-04-17T13:14:00.827Z</time></trkpt><trkpt lat="45.656815" lon="11.2521883"><ele>640.0</ele><time>2026-04-17T13:14:01.827Z</time></trkpt><trkpt lat="45.6568983" lon="11.25232"><ele>640.0</ele><time>2026-04-17T13:14:03.827Z</time></trkpt><trkpt lat="45.6569267" lon="11.2525617"><ele>640.0</ele><time>2026-04-17T13:14:06.827Z</time></trkpt><trkpt lat="45.6569333" lon="11.2526667"><ele>640.0</ele><time>2026-04-17T13:14:07.827Z</time></trkpt><trkpt lat="45.656925" lon="11.252895"><ele>640.0</ele><time>2026-04-17T13:14:09.827Z</time></trkpt><trkpt lat="45.656905" lon="11.253135"><ele>637.75</ele><time>2026-04-17T13:14:11.826Z</time></trkpt><trkpt lat="45.6568833" lon="11.2533817"><ele>635.5</ele><time>2026-04-17T13:14:13.826Z</time></trkpt><trkpt lat="45.656875" lon="11.2534883"><ele>633.25</ele><time>2026-04-17T13:14:14.826Z</time></trkpt><trkpt lat="45.6568883" lon="11.2537117"><ele>631.0</ele><time>2026-04-17T13:14:17.825Z</time></trkpt><trkpt lat="45.6569367" lon="11.2538133"><ele>627.5</ele><time>2026-04-17T13:14:19.826Z</time></trkpt><trkpt lat="45.6569583" lon="11.253925"><ele>624.0</ele><time>2026-04-17T13:14:21.826Z</time></trkpt><trkpt lat="45.65695" lon="11.2540517"><ele>620.5</ele><time>2026-04-17T13:14:23.826Z</time></trkpt><trkpt lat="45.6569083" lon="11.2541733"><ele>617.0</ele><time>2026-04-17T13:14:25.826Z</time></trkpt><trkpt lat="45.6568433" lon="11.2542783"><ele>613.5</ele><time>2026-04-17T13:14:27.825Z</time></trkpt><trkpt lat="45.6567767" lon="11.2543183"><ele>610.0</ele><time>2026-04-17T13:14:29.826Z</time></trkpt><trkpt lat="45.656705" lon="11.25436"><ele>610.0</ele><time>2026-04-17T13:14:31.826Z</time></trkpt><trkpt lat="45.6566017" lon="11.25449"><ele>610.0</ele><time>2026-04-17T13:14:34.826Z</time></trkpt><trkpt lat="45.65658" lon="11.25461"><ele>610.0</ele><time>2026-04-17T13:14:36.826Z</time></trkpt><trkpt lat="45.6565633" lon="11.2547267"><ele>610.0</ele><time>2026-04-17T13:14:38.826Z</time></trkpt><trkpt lat="45.6565667" lon="11.2548583"><ele>610.0</ele><time>2026-04-17T13:14:40.826Z</time></trkpt><trkpt lat="45.6565717" lon="11.255015"><ele>606.6</ele><time>2026-04-17T13:14:42.826Z</time></trkpt><trkpt lat="45.6565767" lon="11.2551933"><ele>603.2</ele><time>2026-04-17T13:14:44.826Z</time></trkpt><trkpt lat="45.656595" lon="11.255355"><ele>599.8</ele><time>2026-04-17T13:14:46.826Z</time></trkpt><trkpt lat="45.656615" lon="11.255465"><ele>596.4</ele><time>2026-04-17T13:14:48.826Z</time></trkpt><trkpt lat="45.6566617" lon="11.2556367"><ele>593.0</ele><time>2026-04-17T13:15:02.825Z</time></trkpt><trkpt lat="45.6566867" lon="11.2557633"><ele>589.0</ele><time>2026-04-17T13:15:04.825Z</time></trkpt><trkpt lat="45.6566717" lon="11.2558783"><ele>585.0</ele><time>2026-04-17T13:15:06.826Z</time></trkpt><trkpt lat="45.65661" lon="11.255945"><ele>581.0</ele><time>2026-04-17T13:15:08.826Z</time></trkpt><trkpt lat="45.656485" lon="11.2559933"><ele>577.0</ele><time>2026-04-17T13:15:11.826Z</time></trkpt><trkpt lat="45.65639" lon="11.25601"><ele>573.0</ele><time>2026-04-17T13:15:13.825Z</time></trkpt><trkpt lat="45.65632" lon="11.25603"><ele>573.0</ele><time>2026-04-17T13:15:15.826Z</time></trkpt><trkpt lat="45.656195" lon="11.2560617"><ele>573.0</ele><time>2026-04-17T13:15:41.826Z</time></trkpt><trkpt lat="45.6561117" lon="11.2560733"><ele>573.0</ele><time>2026-04-17T13:15:43.826Z</time></trkpt><trkpt lat="45.6560833" lon="11.2561733"><ele>573.0</ele><time>2026-04-17T13:17:10.825Z</time></trkpt><trkpt lat="45.6561417" lon="11.2562583"><ele>573.0</ele><time>2026-04-17T13:17:12.825Z</time></trkpt><trkpt lat="45.65622" lon="11.2563717"><ele>568.8</ele><time>2026-04-17T13:17:14.825Z</time></trkpt><trkpt lat="45.6563" lon="11.2564617"><ele>564.5999999999999</ele><time>2026-04-17T13:17:16.825Z</time></trkpt><trkpt lat="45.6563917" lon="11.2565317"><ele>560.4000000000001</ele><time>2026-04-17T13:17:18.825Z</time></trkpt><trkpt lat="45.6564917" lon="11.2565867"><ele>556.2</ele><time>2026-04-17T13:17:20.825Z</time></trkpt><trkpt lat="45.6565483" lon="11.2566317"><ele>552.0</ele><time>2026-04-17T13:17:21.824Z</time></trkpt><trkpt lat="45.6566533" lon="11.2567033"><ele>552.0</ele><time>2026-04-17T13:17:23.825Z</time></trkpt><trkpt lat="45.6567617" lon="11.25676"><ele>552.0</ele><time>2026-04-17T13:17:25.825Z</time></trkpt><trkpt lat="45.65684" lon="11.256815"><ele>552.0</ele><time>2026-04-17T13:17:27.825Z</time></trkpt><trkpt lat="45.656935" lon="11.2568633"><ele>552.0</ele><time>2026-04-17T13:18:08.824Z</time></trkpt><trkpt lat="45.65699" lon="11.2568033"><ele>552.0</ele><time>2026-04-17T13:18:10.825Z</time></trkpt><trkpt lat="45.65707" lon="11.25667"><ele>552.2857142857143</ele><time>2026-04-17T13:18:12.825Z</time></trkpt><trkpt lat="45.6570983" lon="11.256585"><ele>552.5714285714287</ele><time>2026-04-17T13:18:13.825Z</time></trkpt><trkpt lat="45.6571267" lon="11.2564933"><ele>552.8571428571429</ele><time>2026-04-17T13:18:14.824Z</time></trkpt><trkpt lat="45.65716" lon="11.25641"><ele>553.1428571428571</ele><time>2026-04-17T13:18:15.825Z</time></trkpt><trkpt lat="45.657195" lon="11.2563217"><ele>553.4285714285713</ele><time>2026-04-17T13:18:16.825Z</time></trkpt><trkpt lat="45.6572267" lon="11.2562333"><ele>553.7142857142857</ele><time>2026-04-17T13:18:17.825Z</time></trkpt><trkpt lat="45.65726" lon="11.25615"><ele>554.0</ele><time>2026-04-17T13:18:18.825Z</time></trkpt><trkpt lat="45.65728" lon="11.25606"><ele>554.0</ele><time>2026-04-17T13:18:19.824Z</time></trkpt><trkpt lat="45.6572883" lon="11.2559617"><ele>554.0</ele><time>2026-04-17T13:18:20.825Z</time></trkpt><trkpt lat="45.6572883" lon="11.2558533"><ele>554.0</ele><time>2026-04-17T13:18:21.825Z</time></trkpt><trkpt lat="45.6572917" lon="11.2557583"><ele>554.0</ele><time>2026-04-17T13:18:22.825Z</time></trkpt><trkpt lat="45.657315" lon="11.25562"><ele>554.0</ele><time>2026-04-17T13:18:24.825Z</time></trkpt><trkpt lat="45.6574183" lon="11.2555383"><ele>554.0</ele><time>2026-04-17T13:18:26.825Z</time></trkpt><trkpt lat="45.6575083" lon="11.25547"><ele>557.0</ele><time>2026-04-17T13:18:28.825Z</time></trkpt><trkpt lat="45.6575567" lon="11.2553867"><ele>560.0</ele><time>2026-04-17T13:18:30.825Z</time></trkpt><trkpt lat="45.6575917" lon="11.255225"><ele>563.0</ele><time>2026-04-17T13:18:32.825Z</time></trkpt><trkpt lat="45.6576067" lon="11.255105"><ele>566.0</ele><time>2026-04-17T13:18:33.824Z</time></trkpt><trkpt lat="45.6576283" lon="11.2549667"><ele>569.0</ele><time>2026-04-17T13:18:34.825Z</time></trkpt><trkpt lat="45.657655" lon="11.2548417"><ele>570.5</ele><time>2026-04-17T13:18:35.825Z</time></trkpt><trkpt lat="45.657655" lon="11.25473"><ele>572.0</ele><time>2026-04-17T13:18:36.825Z</time></trkpt><trkpt lat="45.6576617" lon="11.2546033"><ele>573.5</ele><time>2026-04-17T13:18:37.825Z</time></trkpt><trkpt lat="45.6576633" lon="11.2544817"><ele>575.0</ele><time>2026-04-17T13:18:38.825Z</time></trkpt><trkpt lat="45.6576667" lon="11.2543733"><ele>576.5</ele><time>2026-04-17T13:18:39.825Z</time></trkpt><trkpt lat="45.6576683" lon="11.2542583"><ele>578.0</ele><time>2026-04-17T13:18:40.825Z</time></trkpt><trkpt lat="45.65768" lon="11.2541483"><ele>578.0</ele><time>2026-04-17T13:18:41.825Z</time></trkpt><trkpt lat="45.6576933" lon="11.2540483"><ele>578.0</ele><time>2026-04-17T13:18:42.825Z</time></trkpt><trkpt lat="45.65771" lon="11.2538883"><ele>578.0</ele><time>2026-04-17T13:18:44.825Z</time></trkpt><trkpt lat="45.6577033" lon="11.2537967"><ele>578.0</ele><time>2026-04-17T13:18:45.824Z</time></trkpt><trkpt lat="45.6576983" lon="11.253705"><ele>578.0</ele><time>2026-04-17T13:18:46.825Z</time></trkpt><trkpt lat="45.6576883" lon="11.2536117"><ele>578.0</ele><time>2026-04-17T13:18:47.825Z</time></trkpt><trkpt lat="45.6576783" lon="11.2535167"><ele>578.0</ele><time>2026-04-17T13:18:48.825Z</time></trkpt><trkpt lat="45.65769" lon="11.253345"><ele>578.0</ele><time>2026-04-17T13:18:50.825Z</time></trkpt><trkpt lat="45.6577017" lon="11.25316"><ele>578.0</ele><time>2026-04-17T13:18:52.825Z</time></trkpt><trkpt lat="45.6577083" lon="11.2530617"><ele>578.0</ele><time>2026-04-17T13:18:53.825Z</time></trkpt><trkpt lat="45.6577083" lon="11.2528667"><ele>578.0</ele><time>2026-04-17T13:18:55.825Z</time></trkpt><trkpt lat="45.6577117" lon="11.252775"><ele>578.0</ele><time>2026-04-17T13:18:56.825Z</time></trkpt><trkpt lat="45.657725" lon="11.252685"><ele>578.0</ele><time>2026-04-17T13:18:57.825Z</time></trkpt><trkpt lat="45.6577433" lon="11.2525783"><ele>578.0</ele><time>2026-04-17T13:18:58.825Z</time></trkpt><trkpt lat="45.6577517" lon="11.252405"><ele>578.0</ele><time>2026-04-17T13:19:00.825Z</time></trkpt><trkpt lat="45.6577633" lon="11.2522567"><ele>578.0</ele><time>2026-04-17T13:19:02.825Z</time></trkpt><trkpt lat="45.6577917" lon="11.2521617"><ele>578.0</ele><time>2026-04-17T13:19:04.824Z</time></trkpt><trkpt lat="45.65786" lon="11.25211"><ele>578.1999999999999</ele><time>2026-04-17T13:19:07.825Z</time></trkpt><trkpt lat="45.6579583" lon="11.2521617"><ele>578.4</ele><time>2026-04-17T13:19:41.825Z</time></trkpt><trkpt lat="45.657985" lon="11.2522517"><ele>578.5999999999999</ele><time>2026-04-17T13:19:43.825Z</time></trkpt><trkpt lat="45.65802" lon="11.2523833"><ele>578.8</ele><time>2026-04-17T13:19:45.825Z</time></trkpt><trkpt lat="45.6580317" lon="11.2525183"><ele>579.0</ele><time>2026-04-17T13:19:47.825Z</time></trkpt><trkpt lat="45.658055" lon="11.252665"><ele>573.0</ele><time>2026-04-17T13:19:49.825Z</time></trkpt><trkpt lat="45.6580817" lon="11.25275"><ele>567.0</ele><time>2026-04-17T13:19:50.825Z</time></trkpt><trkpt lat="45.6581367" lon="11.2529133"><ele>561.0</ele><time>2026-04-17T13:19:52.825Z</time></trkpt><trkpt lat="45.6582033" lon="11.2530717"><ele>555.0</ele><time>2026-04-17T13:19:54.824Z</time></trkpt><trkpt lat="45.6582533" lon="11.2531517"><ele>549.0</ele><time>2026-04-17T13:19:55.824Z</time></trkpt><trkpt lat="45.6583133" lon="11.25323"><ele>547.5714285714286</ele><time>2026-04-17T13:19:56.824Z</time></trkpt><trkpt lat="45.6583633" lon="11.2533"><ele>546.1428571428571</ele><time>2026-04-17T13:19:57.824Z</time></trkpt><trkpt lat="45.658415" lon="11.2533667"><ele>544.7142857142858</ele><time>2026-04-17T13:19:58.824Z</time></trkpt><trkpt lat="45.658455" lon="11.2534367"><ele>543.2857142857142</ele><time>2026-04-17T13:19:59.823Z</time></trkpt><trkpt lat="45.65849" lon="11.2535133"><ele>541.8571428571429</ele><time>2026-04-17T13:20:00.824Z</time></trkpt><trkpt lat="45.6585517" lon="11.25362"><ele>540.4285714285714</ele><time>2026-04-17T13:20:02.824Z</time></trkpt><trkpt lat="45.6585883" lon="11.2536967"><ele>539.0</ele><time>2026-04-17T13:20:04.823Z</time></trkpt><trkpt lat="45.6585867" lon="11.2538067"><ele>541.8</ele><time>2026-04-17T13:20:07.824Z</time></trkpt><trkpt lat="45.6586283" lon="11.2539517"><ele>544.5999999999999</ele><time>2026-04-17T13:20:09.824Z</time></trkpt><trkpt lat="45.6586717" lon="11.2540917"><ele>547.4</ele><time>2026-04-17T13:20:11.824Z</time></trkpt><trkpt lat="45.6586817" lon="11.2542283"><ele>550.1999999999999</ele><time>2026-04-17T13:20:13.824Z</time></trkpt><trkpt lat="45.6586783" lon="11.2543817"><ele>553.0</ele><time>2026-04-17T13:20:15.824Z</time></trkpt><trkpt lat="45.6586733" lon="11.2545533"><ele>553.0</ele><time>2026-04-17T13:20:17.824Z</time></trkpt><trkpt lat="45.6586833" lon="11.2546433"><ele>553.0</ele><time>2026-04-17T13:20:18.824Z</time></trkpt><trkpt lat="45.6587" lon="11.2547333"><ele>553.0</ele><time>2026-04-17T13:20:19.823Z</time></trkpt><trkpt lat="45.6586983" lon="11.254915"><ele>553.0</ele><time>2026-04-17T13:20:21.824Z</time></trkpt><trkpt lat="45.65868" lon="11.2550183"><ele>553.0</ele><time>2026-04-17T13:20:22.824Z</time></trkpt><trkpt lat="45.6586567" lon="11.255115"><ele>553.0</ele><time>2026-04-17T13:20:23.824Z</time></trkpt><trkpt lat="45.65864" lon="11.2552167"><ele>552.0</ele><time>2026-04-17T13:20:24.824Z</time></trkpt><trkpt lat="45.6586233" lon="11.2553183"><ele>551.0</ele><time>2026-04-17T13:20:25.824Z</time></trkpt><trkpt lat="45.6586167" lon="11.2554117"><ele>550.0</ele><time>2026-04-17T13:20:26.824Z</time></trkpt><trkpt lat="45.65861" lon="11.2555033"><ele>549.0</ele><time>2026-04-17T13:20:27.824Z</time></trkpt><trkpt lat="45.6586083" lon="11.255595"><ele>548.0</ele><time>2026-04-17T13:20:28.824Z</time></trkpt><trkpt lat="45.6585717" lon="11.2557533"><ele>547.0</ele><time>2026-04-17T13:20:30.824Z</time></trkpt><trkpt lat="45.6584917" lon="11.255905"><ele>540.4</ele><time>2026-04-17T13:20:32.824Z</time></trkpt><trkpt lat="45.6584383" lon="11.2559867"><ele>533.8000000000001</ele><time>2026-04-17T13:20:33.824Z</time></trkpt><trkpt lat="45.65838" lon="11.2560617"><ele>527.2</ele><time>2026-04-17T13:20:34.824Z</time></trkpt><trkpt lat="45.6582983" lon="11.2561733"><ele>520.6</ele><time>2026-04-17T13:20:36.824Z</time></trkpt><trkpt lat="45.658275" lon="11.2563283"><ele>514.0</ele><time>2026-04-17T13:20:38.824Z</time></trkpt><trkpt lat="45.6583083" lon="11.256495"><ele>514.8333333333334</ele><time>2026-04-17T13:20:40.824Z</time></trkpt><trkpt lat="45.6583833" lon="11.2565983"><ele>515.6666666666667</ele><time>2026-04-17T13:20:42.824Z</time></trkpt><trkpt lat="45.65844" lon="11.2566767"><ele>516.5</ele><time>2026-04-17T13:20:43.824Z</time></trkpt><trkpt lat="45.6585" lon="11.2567767"><ele>517.3333333333334</ele><time>2026-04-17T13:20:44.824Z</time></trkpt><trkpt lat="45.6585617" lon="11.2568783"><ele>518.1666666666666</ele><time>2026-04-17T13:20:45.824Z</time></trkpt><trkpt lat="45.6586033" lon="11.2569683"><ele>519.0</ele><time>2026-04-17T13:20:46.823Z</time></trkpt><trkpt lat="45.658635" lon="11.2570683"><ele>519.0</ele><time>2026-04-17T13:20:47.824Z</time></trkpt><trkpt lat="45.65865" lon="11.25718"><ele>519.0</ele><time>2026-04-17T13:20:48.824Z</time></trkpt><trkpt lat="45.65867" lon="11.2573083"><ele>519.0</ele><time>2026-04-17T13:20:49.824Z</time></trkpt><trkpt lat="45.6586883" lon="11.257425"><ele>519.0</ele><time>2026-04-17T13:20:50.824Z</time></trkpt><trkpt lat="45.658715" lon="11.2575117"><ele>519.0</ele><time>2026-04-17T13:20:51.824Z</time></trkpt><trkpt lat="45.6587467" lon="11.257635"><ele>519.0</ele><time>2026-04-17T13:20:52.824Z</time></trkpt><trkpt lat="45.6587783" lon="11.2577633"><ele>513.8333333333334</ele><time>2026-04-17T13:20:53.824Z</time></trkpt><trkpt lat="45.6588067" lon="11.2578583"><ele>508.66666666666663</ele><time>2026-04-17T13:20:54.824Z</time></trkpt><trkpt lat="45.6588433" lon="11.2579467"><ele>503.5</ele><time>2026-04-17T13:20:55.824Z</time></trkpt><trkpt lat="45.658885" lon="11.2580267"><ele>498.3333333333333</ele><time>2026-04-17T13:20:56.824Z</time></trkpt><trkpt lat="45.6589517" lon="11.2580933"><ele>493.16666666666663</ele><time>2026-04-17T13:20:57.824Z</time></trkpt><trkpt lat="45.6590283" lon="11.2581517"><ele>488.0</ele><time>2026-04-17T13:20:58.824Z</time></trkpt><trkpt lat="45.6591117" lon="11.2581883"><ele>485.59999999999997</ele><time>2026-04-17T13:20:59.824Z</time></trkpt><trkpt lat="45.6592067" lon="11.25825"><ele>483.19999999999993</ele><time>2026-04-17T13:21:00.824Z</time></trkpt><trkpt lat="45.6592883" lon="11.2583383"><ele>480.8</ele><time>2026-04-17T13:21:01.824Z</time></trkpt><trkpt lat="45.6593667" lon="11.2584283"><ele>478.4</ele><time>2026-04-17T13:21:02.823Z</time></trkpt><trkpt lat="45.6594383" lon="11.2585033"><ele>476.0</ele><time>2026-04-17T13:21:03.824Z</time></trkpt><trkpt lat="45.659505" lon="11.2585667"><ele>476.0</ele><time>2026-04-17T13:21:04.824Z</time></trkpt><trkpt lat="45.65957" lon="11.2586167"><ele>476.0</ele><time>2026-04-17T13:21:05.824Z</time></trkpt><trkpt lat="45.6596683" lon="11.25873"><ele>476.0</ele><time>2026-04-17T13:21:07.824Z</time></trkpt><trkpt lat="45.6597517" lon="11.258815"><ele>476.0</ele><time>2026-04-17T13:21:09.824Z</time></trkpt><trkpt lat="45.6598567" lon="11.2588533"><ele>476.0</ele><time>2026-04-17T13:21:11.824Z</time></trkpt><trkpt lat="45.6599333" lon="11.2588733"><ele>475.99999999999994</ele><time>2026-04-17T13:21:12.824Z</time></trkpt><trkpt lat="45.6600117" lon="11.25892"><ele>476.0</ele><time>2026-04-17T13:21:13.823Z</time></trkpt><trkpt lat="45.6600833" lon="11.2589817"><ele>476.0</ele><time>2026-04-17T13:21:14.824Z</time></trkpt><trkpt lat="45.6601567" lon="11.2590567"><ele>476.0</ele><time>2026-04-17T13:21:15.824Z</time></trkpt><trkpt lat="45.66021" lon="11.2591467"><ele>475.99999999999994</ele><time>2026-04-17T13:21:16.824Z</time></trkpt><trkpt lat="45.66026" lon="11.2592383"><ele>476.0</ele><time>2026-04-17T13:21:17.824Z</time></trkpt><trkpt lat="45.6603017" lon="11.2593267"><ele>478.20000000000005</ele><time>2026-04-17T13:21:18.824Z</time></trkpt><trkpt lat="45.660335" lon="11.2594267"><ele>480.40000000000003</ele><time>2026-04-17T13:21:19.824Z</time></trkpt><trkpt lat="45.660365" lon="11.2595433"><ele>482.6</ele><time>2026-04-17T13:21:20.824Z</time></trkpt><trkpt lat="45.660395" lon="11.2596767"><ele>484.8</ele><time>2026-04-17T13:21:21.824Z</time></trkpt><trkpt lat="45.6604317" lon="11.25981"><ele>487.0</ele><time>2026-04-17T13:21:22.824Z</time></trkpt><trkpt lat="45.6604783" lon="11.259945"><ele>482.6</ele><time>2026-04-17T13:21:23.824Z</time></trkpt><trkpt lat="45.66053" lon="11.260075"><ele>478.20000000000005</ele><time>2026-04-17T13:21:24.824Z</time></trkpt><trkpt lat="45.6605833" lon="11.2601983"><ele>473.8</ele><time>2026-04-17T13:21:25.824Z</time></trkpt><trkpt lat="45.660635" lon="11.2603067"><ele>469.4</ele><time>2026-04-17T13:21:26.824Z</time></trkpt><trkpt lat="45.6606933" lon="11.2604067"><ele>465.0</ele><time>2026-04-17T13:21:27.824Z</time></trkpt><trkpt lat="45.6607433" lon="11.2605"><ele>465.0</ele><time>2026-04-17T13:21:28.824Z</time></trkpt><trkpt lat="45.66078" lon="11.2606017"><ele>465.0</ele><time>2026-04-17T13:21:29.823Z</time></trkpt><trkpt lat="45.6608033" lon="11.2607183"><ele>465.0</ele><time>2026-04-17T13:21:30.824Z</time></trkpt><trkpt lat="45.660815" lon="11.2608433"><ele>465.0</ele><time>2026-04-17T13:21:31.824Z</time></trkpt><trkpt lat="45.6608283" lon="11.2609717"><ele>465.0</ele><time>2026-04-17T13:21:32.824Z</time></trkpt><trkpt lat="45.6608417" lon="11.261105"><ele>465.0</ele><time>2026-04-17T13:21:33.824Z</time></trkpt><trkpt lat="45.6608617" lon="11.2612283"><ele>463.6666666666667</ele><time>2026-04-17T13:21:34.824Z</time></trkpt><trkpt lat="45.660885" lon="11.2613417"><ele>462.33333333333337</ele><time>2026-04-17T13:21:35.824Z</time></trkpt><trkpt lat="45.660895" lon="11.26145"><ele>461.0</ele><time>2026-04-17T13:21:36.824Z</time></trkpt><trkpt lat="45.6609033" lon="11.26155"><ele>459.6666666666667</ele><time>2026-04-17T13:21:37.824Z</time></trkpt><trkpt lat="45.6609033" lon="11.2616517"><ele>458.33333333333337</ele><time>2026-04-17T13:21:38.824Z</time></trkpt><trkpt lat="45.660885" lon="11.261755"><ele>457.0</ele><time>2026-04-17T13:21:39.824Z</time></trkpt><trkpt lat="45.6608333" lon="11.2618517"><ele>455.33333333333337</ele><time>2026-04-17T13:21:40.824Z</time></trkpt><trkpt lat="45.6607933" lon="11.26194"><ele>453.6666666666667</ele><time>2026-04-17T13:21:41.824Z</time></trkpt><trkpt lat="45.660765" lon="11.2620333"><ele>452.0</ele><time>2026-04-17T13:21:42.824Z</time></trkpt><trkpt lat="45.66077" lon="11.2621317"><ele>450.33333333333337</ele><time>2026-04-17T13:21:43.824Z</time></trkpt><trkpt lat="45.66079" lon="11.2622333"><ele>448.6666666666667</ele><time>2026-04-17T13:21:44.824Z</time></trkpt><trkpt lat="45.6608233" lon="11.2623417"><ele>447.0</ele><time>2026-04-17T13:21:45.824Z</time></trkpt><trkpt lat="45.6608583" lon="11.2624517"><ele>445.20000000000005</ele><time>2026-04-17T13:21:46.823Z</time></trkpt><trkpt lat="45.6608933" lon="11.2625767"><ele>443.40000000000003</ele><time>2026-04-17T13:21:47.824Z</time></trkpt><trkpt lat="45.66092" lon="11.2627333"><ele>441.59999999999997</ele><time>2026-04-17T13:21:48.824Z</time></trkpt><trkpt lat="45.6609467" lon="11.2628867"><ele>439.79999999999995</ele><time>2026-04-17T13:21:49.824Z</time></trkpt><trkpt lat="45.66098" lon="11.263035"><ele>438.0</ele><time>2026-04-17T13:21:50.823Z</time></trkpt><trkpt lat="45.661015" lon="11.2631567"><ele>436.8333333333333</ele><time>2026-04-17T13:21:51.824Z</time></trkpt><trkpt lat="45.6610483" lon="11.2632467"><ele>435.66666666666663</ele><time>2026-04-17T13:21:52.824Z</time></trkpt><trkpt lat="45.6610967" lon="11.2634083"><ele>434.5</ele><time>2026-04-17T13:21:54.824Z</time></trkpt><trkpt lat="45.661135" lon="11.2635067"><ele>433.3333333333333</ele><time>2026-04-17T13:21:55.824Z</time></trkpt><trkpt lat="45.6611733" lon="11.263615"><ele>432.16666666666663</ele><time>2026-04-17T13:21:56.824Z</time></trkpt><trkpt lat="45.66119" lon="11.2637283"><ele>431.0</ele><time>2026-04-17T13:21:57.824Z</time></trkpt><trkpt lat="45.6611917" lon="11.2638417"><ele>429.5</ele><time>2026-04-17T13:21:58.823Z</time></trkpt><trkpt lat="45.6611683" lon="11.263955"><ele>428.0</ele><time>2026-04-17T13:21:59.824Z</time></trkpt><trkpt lat="45.6610967" lon="11.2640783"><ele>426.5</ele><time>2026-04-17T13:22:00.824Z</time></trkpt><trkpt lat="45.6610067" lon="11.264205"><ele>425.0</ele><time>2026-04-17T13:22:01.824Z</time></trkpt><trkpt lat="45.6609033" lon="11.2643383"><ele>425.0</ele><time>2026-04-17T13:22:02.824Z</time></trkpt><trkpt lat="45.6608033" lon="11.2644683"><ele>425.0</ele><time>2026-04-17T13:22:03.823Z</time></trkpt><trkpt lat="45.6607233" lon="11.264585"><ele>425.0</ele><time>2026-04-17T13:22:04.824Z</time></trkpt><trkpt lat="45.6606467" lon="11.2646983"><ele>425.0</ele><time>2026-04-17T13:22:05.824Z</time></trkpt><trkpt lat="45.6605817" lon="11.2648117"><ele>425.49999999999994</ele><time>2026-04-17T13:22:06.824Z</time></trkpt><trkpt lat="45.6605167" lon="11.2649133"><ele>426.0</ele><time>2026-04-17T13:22:07.824Z</time></trkpt><trkpt lat="45.6604633" lon="11.2650133"><ele>426.5</ele><time>2026-04-17T13:22:08.824Z</time></trkpt><trkpt lat="45.6604283" lon="11.2651117"><ele>427.0</ele><time>2026-04-17T13:22:09.823Z</time></trkpt><trkpt lat="45.6604083" lon="11.26521"><ele>427.49999999999994</ele><time>2026-04-17T13:22:10.824Z</time></trkpt><trkpt lat="45.6603883" lon="11.26533"><ele>428.0</ele><time>2026-04-17T13:22:11.824Z</time></trkpt><trkpt lat="45.66041" lon="11.2654983"><ele>426.5</ele><time>2026-04-17T13:22:12.824Z</time></trkpt><trkpt lat="45.6604167" lon="11.26567"><ele>425.0</ele><time>2026-04-17T13:22:13.824Z</time></trkpt><trkpt lat="45.66041" lon="11.2658417"><ele>423.5</ele><time>2026-04-17T13:22:14.824Z</time></trkpt><trkpt lat="45.660405" lon="11.2659983"><ele>422.0</ele><time>2026-04-17T13:22:15.824Z</time></trkpt><trkpt lat="45.66041" lon="11.266155"><ele>422.0</ele><time>2026-04-17T13:22:16.824Z</time></trkpt><trkpt lat="45.6604" lon="11.2663"><ele>422.0</ele><time>2026-04-17T13:22:17.824Z</time></trkpt><trkpt lat="45.6603917" lon="11.26644"><ele>422.0</ele><time>2026-04-17T13:22:18.824Z</time></trkpt><trkpt lat="45.6603833" lon="11.2665867"><ele>422.0</ele><time>2026-04-17T13:22:19.824Z</time></trkpt><trkpt lat="45.660355" lon="11.2667217"><ele>422.0</ele><time>2026-04-17T13:22:20.824Z</time></trkpt><trkpt lat="45.6603367" lon="11.2668267"><ele>421.3333333333333</ele><time>2026-04-17T13:22:21.824Z</time></trkpt><trkpt lat="45.660325" lon="11.2669183"><ele>420.66666666666663</ele><time>2026-04-17T13:22:22.823Z</time></trkpt><trkpt lat="45.6602433" lon="11.2670617"><ele>420.0</ele><time>2026-04-17T13:22:24.823Z</time></trkpt><trkpt lat="45.6601767" lon="11.2671083"><ele>419.33333333333337</ele><time>2026-04-17T13:22:25.824Z</time></trkpt><trkpt lat="45.6601117" lon="11.267145"><ele>418.6666666666667</ele><time>2026-04-17T13:22:26.824Z</time></trkpt><trkpt lat="45.6600483" lon="11.2671683"><ele>418.0</ele><time>2026-04-17T13:22:27.824Z</time></trkpt><trkpt lat="45.6599833" lon="11.26717"><ele>416.79999999999995</ele><time>2026-04-17T13:22:28.824Z</time></trkpt><trkpt lat="45.6598783" lon="11.2671183"><ele>415.6</ele><time>2026-04-17T13:22:30.824Z</time></trkpt><trkpt lat="45.6598183" lon="11.2670783"><ele>414.4</ele><time>2026-04-17T13:22:31.824Z</time></trkpt><trkpt lat="45.659725" lon="11.26702"><ele>413.20000000000005</ele><time>2026-04-17T13:22:33.823Z</time></trkpt><trkpt lat="45.65964" lon="11.2669517"><ele>412.0</ele><time>2026-04-17T13:22:35.824Z</time></trkpt><trkpt lat="45.6595733" lon="11.266795"><ele>412.0</ele><time>2026-04-17T13:22:37.824Z</time></trkpt><trkpt lat="45.659565" lon="11.266685"><ele>412.0</ele><time>2026-04-17T13:22:38.824Z</time></trkpt><trkpt lat="45.65956" lon="11.266575"><ele>412.0</ele><time>2026-04-17T13:22:39.824Z</time></trkpt><trkpt lat="45.6595733" lon="11.2664"><ele>412.0</ele><time>2026-04-17T13:22:41.824Z</time></trkpt><trkpt lat="45.65959" lon="11.26622"><ele>412.0</ele><time>2026-04-17T13:22:43.824Z</time></trkpt><trkpt lat="45.6595883" lon="11.266125"><ele>411.8</ele><time>2026-04-17T13:22:44.824Z</time></trkpt><trkpt lat="45.6596117" lon="11.2659767"><ele>411.6</ele><time>2026-04-17T13:22:46.824Z</time></trkpt><trkpt lat="45.6596883" lon="11.2658433"><ele>411.40000000000003</ele><time>2026-04-17T13:22:48.823Z</time></trkpt><trkpt lat="45.65976" lon="11.2657633"><ele>411.20000000000005</ele><time>2026-04-17T13:22:49.823Z</time></trkpt><trkpt lat="45.659815" lon="11.2656933"><ele>411.0</ele><time>2026-04-17T13:22:50.823Z</time></trkpt><trkpt lat="45.6598717" lon="11.2656183"><ele>410.20000000000005</ele><time>2026-04-17T13:22:51.823Z</time></trkpt><trkpt lat="45.6599117" lon="11.2655467"><ele>409.40000000000003</ele><time>2026-04-17T13:22:52.822Z</time></trkpt><trkpt lat="45.6599833" lon="11.2654017"><ele>408.6</ele><time>2026-04-17T13:22:54.823Z</time></trkpt><trkpt lat="45.65999" lon="11.2653"><ele>407.8</ele><time>2026-04-17T13:22:55.823Z</time></trkpt><trkpt lat="45.6599467" lon="11.2651367"><ele>407.0</ele><time>2026-04-17T13:22:57.823Z</time></trkpt><trkpt lat="45.65988" lon="11.265045"><ele>407.0</ele><time>2026-04-17T13:22:58.823Z</time></trkpt><trkpt lat="45.6598117" lon="11.26495"><ele>407.0</ele><time>2026-04-17T13:22:59.823Z</time></trkpt><trkpt lat="45.6597333" lon="11.2648483"><ele>407.0</ele><time>2026-04-17T13:23:00.823Z</time></trkpt><trkpt lat="45.659655" lon="11.2647583"><ele>407.0</ele><time>2026-04-17T13:23:01.823Z</time></trkpt><trkpt lat="45.6595917" lon="11.2646867"><ele>407.0</ele><time>2026-04-17T13:23:02.823Z</time></trkpt><trkpt lat="45.6595267" lon="11.2645517"><ele>407.49999999999994</ele><time>2026-04-17T13:23:04.823Z</time></trkpt><trkpt lat="45.6595217" lon="11.2644033"><ele>408.0</ele><time>2026-04-17T13:23:06.823Z</time></trkpt><trkpt lat="45.6595467" lon="11.2643033"><ele>408.5</ele><time>2026-04-17T13:23:07.823Z</time></trkpt><trkpt lat="45.6595733" lon="11.2641933"><ele>409.0</ele><time>2026-04-17T13:23:08.823Z</time></trkpt><trkpt lat="45.6595983" lon="11.2640617"><ele>409.49999999999994</ele><time>2026-04-17T13:23:09.823Z</time></trkpt><trkpt lat="45.6596083" lon="11.26395"><ele>410.0</ele><time>2026-04-17T13:23:10.823Z</time></trkpt><trkpt lat="45.659605" lon="11.2638433"><ele>411.49999999999994</ele><time>2026-04-17T13:23:11.823Z</time></trkpt><trkpt lat="45.6595983" lon="11.2637517"><ele>413.0</ele><time>2026-04-17T13:23:12.823Z</time></trkpt><trkpt lat="45.65957" lon="11.26367"><ele>414.5</ele><time>2026-04-17T13:23:13.823Z</time></trkpt><trkpt lat="45.65952" lon="11.263595"><ele>416.0</ele><time>2026-04-17T13:23:14.823Z</time></trkpt><trkpt lat="45.659445" lon="11.2635217"><ele>417.49999999999994</ele><time>2026-04-17T13:23:15.823Z</time></trkpt><trkpt lat="45.6593533" lon="11.2634483"><ele>419.0</ele><time>2026-04-17T13:23:16.823Z</time></trkpt><trkpt lat="45.65925" lon="11.26336"><ele>418.99999999999994</ele><time>2026-04-17T13:23:17.823Z</time></trkpt><trkpt lat="45.65917" lon="11.2632817"><ele>419.0</ele><time>2026-04-17T13:23:18.823Z</time></trkpt><trkpt lat="45.6591067" lon="11.2632067"><ele>419.0</ele><time>2026-04-17T13:23:19.823Z</time></trkpt><trkpt lat="45.6590533" lon="11.2631167"><ele>419.0</ele><time>2026-04-17T13:23:20.823Z</time></trkpt><trkpt lat="45.6590083" lon="11.2630167"><ele>418.99999999999994</ele><time>2026-04-17T13:23:21.823Z</time></trkpt><trkpt lat="45.658955" lon="11.2629067"><ele>419.0</ele><time>2026-04-17T13:23:22.823Z</time></trkpt><trkpt lat="45.6588983" lon="11.262805"><ele>419.2</ele><time>2026-04-17T13:23:23.823Z</time></trkpt><trkpt lat="45.6588217" lon="11.2627117"><ele>419.4</ele><time>2026-04-17T13:23:24.823Z</time></trkpt><trkpt lat="45.6587217" lon="11.2626367"><ele>419.6</ele><time>2026-04-17T13:23:25.823Z</time></trkpt><trkpt lat="45.6586333" lon="11.2625733"><ele>419.8</ele><time>2026-04-17T13:23:26.823Z</time></trkpt><trkpt lat="45.6585517" lon="11.2625317"><ele>420.0</ele><time>2026-04-17T13:23:27.823Z</time></trkpt><trkpt lat="45.65848" lon="11.2624917"><ele>420.0</ele><time>2026-04-17T13:23:28.823Z</time></trkpt><trkpt lat="45.6584117" lon="11.26244"><ele>420.0</ele><time>2026-04-17T13:23:29.823Z</time></trkpt><trkpt lat="45.6583517" lon="11.2623517"><ele>420.0</ele><time>2026-04-17T13:23:30.823Z</time></trkpt><trkpt lat="45.6582833" lon="11.2622433"><ele>420.0</ele><time>2026-04-17T13:23:31.823Z</time></trkpt><trkpt lat="45.6582183" lon="11.2621183"><ele>420.0</ele><time>2026-04-17T13:23:32.823Z</time></trkpt><trkpt lat="45.6581567" lon="11.2620083"><ele>420.6666666666667</ele><time>2026-04-17T13:23:33.822Z</time></trkpt><trkpt lat="45.6581083" lon="11.2619183"><ele>421.33333333333337</ele><time>2026-04-17T13:23:34.823Z</time></trkpt><trkpt lat="45.6580567" lon="11.2618533"><ele>422.0</ele><time>2026-04-17T13:23:35.823Z</time></trkpt><trkpt lat="45.6579817" lon="11.2617817"><ele>422.6666666666667</ele><time>2026-04-17T13:23:37.823Z</time></trkpt><trkpt lat="45.6579033" lon="11.2618033"><ele>423.33333333333337</ele><time>2026-04-17T13:24:44.823Z</time></trkpt><trkpt lat="45.6578283" lon="11.2618117"><ele>424.0</ele><time>2026-04-17T13:25:06.823Z</time></trkpt><trkpt lat="45.65771" lon="11.2617783"><ele>424.0</ele><time>2026-04-17T13:25:08.823Z</time></trkpt><trkpt lat="45.657635" lon="11.2617683"><ele>424.0</ele><time>2026-04-17T13:25:09.823Z</time></trkpt><trkpt lat="45.6575417" lon="11.26178"><ele>424.0</ele><time>2026-04-17T13:25:10.823Z</time></trkpt><trkpt lat="45.6574417" lon="11.2617933"><ele>424.0</ele><time>2026-04-17T13:25:11.823Z</time></trkpt><trkpt lat="45.657345" lon="11.2618183"><ele>424.0</ele><time>2026-04-17T13:25:12.823Z</time></trkpt><trkpt lat="45.6572467" lon="11.2618517"><ele>424.0</ele><time>2026-04-17T13:25:13.823Z</time></trkpt><trkpt lat="45.6571467" lon="11.2618867"><ele>424.0</ele><time>2026-04-17T13:25:14.823Z</time></trkpt><trkpt lat="45.6570533" lon="11.2619217"><ele>424.0</ele><time>2026-04-17T13:25:15.823Z</time></trkpt><trkpt lat="45.65697" lon="11.2619567"><ele>424.0</ele><time>2026-04-17T13:25:16.823Z</time></trkpt><trkpt lat="45.6568883" lon="11.2620083"><ele>424.0</ele><time>2026-04-17T13:25:17.822Z</time></trkpt><trkpt lat="45.6568083" lon="11.2620833"><ele>424.33333333333337</ele><time>2026-04-17T13:25:18.823Z</time></trkpt><trkpt lat="45.6567317" lon="11.26217"><ele>424.6666666666667</ele><time>2026-04-17T13:25:19.822Z</time></trkpt><trkpt lat="45.65666" lon="11.2622317"><ele>425.0</ele><time>2026-04-17T13:25:20.823Z</time></trkpt><trkpt lat="45.6565867" lon="11.2622717"><ele>425.33333333333337</ele><time>2026-04-17T13:25:21.823Z</time></trkpt><trkpt lat="45.6565117" lon="11.262305"><ele>425.6666666666667</ele><time>2026-04-17T13:25:22.823Z</time></trkpt><trkpt lat="45.6564333" lon="11.2623167"><ele>426.0</ele><time>2026-04-17T13:25:23.823Z</time></trkpt><trkpt lat="45.6563483" lon="11.2623117"><ele>426.0</ele><time>2026-04-17T13:25:24.823Z</time></trkpt><trkpt lat="45.65625" lon="11.2623117"><ele>426.0</ele><time>2026-04-17T13:25:25.822Z</time></trkpt><trkpt lat="45.65617" lon="11.262325"><ele>426.0</ele><time>2026-04-17T13:25:26.823Z</time></trkpt><trkpt lat="45.6560983" lon="11.2623683"><ele>426.0</ele><time>2026-04-17T13:25:27.823Z</time></trkpt><trkpt lat="45.6560317" lon="11.262425"><ele>426.0</ele><time>2026-04-17T13:25:28.823Z</time></trkpt><trkpt lat="45.655975" lon="11.2624983"><ele>426.0</ele><time>2026-04-17T13:25:29.823Z</time></trkpt><trkpt lat="45.655915" lon="11.2625617"><ele>427.0</ele><time>2026-04-17T13:25:30.823Z</time></trkpt><trkpt lat="45.6558533" lon="11.2626067"><ele>428.0</ele><time>2026-04-17T13:25:31.823Z</time></trkpt><trkpt lat="45.6557867" lon="11.2626433"><ele>429.0</ele><time>2026-04-17T13:25:32.822Z</time></trkpt><trkpt lat="45.6557217" lon="11.26267"><ele>430.0</ele><time>2026-04-17T13:25:33.823Z</time></trkpt><trkpt lat="45.6556633" lon="11.2627083"><ele>431.0</ele><time>2026-04-17T13:25:34.822Z</time></trkpt><trkpt lat="45.6555533" lon="11.2627617"><ele>432.0</ele><time>2026-04-17T13:25:36.823Z</time></trkpt><trkpt lat="45.6554567" lon="11.2627883"><ele>432.0</ele><time>2026-04-17T13:25:38.823Z</time></trkpt><trkpt lat="45.655375" lon="11.2627683"><ele>432.0</ele><time>2026-04-17T13:25:40.822Z</time></trkpt><trkpt lat="45.6552733" lon="11.2626867"><ele>432.0</ele><time>2026-04-17T13:25:42.821Z</time></trkpt><trkpt lat="45.6552117" lon="11.26264"><ele>432.0</ele><time>2026-04-17T13:25:43.822Z</time></trkpt><trkpt lat="45.6551417" lon="11.2626033"><ele>432.0</ele><time>2026-04-17T13:25:44.822Z</time></trkpt><trkpt lat="45.6550767" lon="11.2625767"><ele>432.0</ele><time>2026-04-17T13:25:45.821Z</time></trkpt><trkpt lat="45.6550133" lon="11.26256"><ele>435.40000000000003</ele><time>2026-04-17T13:25:46.821Z</time></trkpt><trkpt lat="45.6549467" lon="11.2625317"><ele>438.80000000000007</ele><time>2026-04-17T13:25:47.821Z</time></trkpt><trkpt lat="45.654815" lon="11.2624733"><ele>442.2</ele><time>2026-04-17T13:25:49.822Z</time></trkpt><trkpt lat="45.6547367" lon="11.262455"><ele>445.6</ele><time>2026-04-17T13:25:50.821Z</time></trkpt><trkpt lat="45.6546533" lon="11.2624483"><ele>449.0</ele><time>2026-04-17T13:25:51.822Z</time></trkpt><trkpt lat="45.6545667" lon="11.2624283"><ele>448.99999999999994</ele><time>2026-04-17T13:25:52.822Z</time></trkpt><trkpt lat="45.6544917" lon="11.2624067"><ele>449.0</ele><time>2026-04-17T13:25:53.822Z</time></trkpt><trkpt lat="45.6544267" lon="11.2623917"><ele>449.0</ele><time>2026-04-17T13:25:54.822Z</time></trkpt><trkpt lat="45.654335" lon="11.262395"><ele>449.0</ele><time>2026-04-17T13:25:56.822Z</time></trkpt><trkpt lat="45.654245" lon="11.2624233"><ele>448.99999999999994</ele><time>2026-04-17T13:25:58.822Z</time></trkpt><trkpt lat="45.654175" lon="11.2624467"><ele>449.0</ele><time>2026-04-17T13:26:00.822Z</time></trkpt><trkpt lat="45.6540717" lon="11.2624483"><ele>450.0</ele><time>2026-04-17T13:26:03.822Z</time></trkpt><trkpt lat="45.65398" lon="11.26245"><ele>450.99999999999994</ele><time>2026-04-17T13:26:05.822Z</time></trkpt><trkpt lat="45.653915" lon="11.2624617"><ele>452.0</ele><time>2026-04-17T13:26:06.822Z</time></trkpt><trkpt lat="45.6538383" lon="11.2624783"><ele>453.0</ele><time>2026-04-17T13:26:07.822Z</time></trkpt><trkpt lat="45.6537667" lon="11.2624983"><ele>453.99999999999994</ele><time>2026-04-17T13:26:08.822Z</time></trkpt><trkpt lat="45.6537017" lon="11.26253"><ele>455.0</ele><time>2026-04-17T13:26:09.822Z</time></trkpt><trkpt lat="45.6536467" lon="11.26258"><ele>456.0</ele><time>2026-04-17T13:26:10.822Z</time></trkpt><trkpt lat="45.6536033" lon="11.2626933"><ele>456.0</ele><time>2026-04-17T13:26:12.821Z</time></trkpt><trkpt lat="45.6536433" lon="11.2627967"><ele>456.0</ele><time>2026-04-17T13:26:14.821Z</time></trkpt><trkpt lat="45.65374" lon="11.262905"><ele>456.0</ele><time>2026-04-17T13:26:16.822Z</time></trkpt><trkpt lat="45.6538" lon="11.2630367"><ele>456.0</ele><time>2026-04-17T13:26:18.822Z</time></trkpt><trkpt lat="45.65381" lon="11.2632033"><ele>456.0</ele><time>2026-04-17T13:26:20.822Z</time></trkpt><trkpt lat="45.65376" lon="11.26336"><ele>455.4</ele><time>2026-04-17T13:26:22.822Z</time></trkpt><trkpt lat="45.6536683" lon="11.2634717"><ele>454.8</ele><time>2026-04-17T13:26:24.822Z</time></trkpt><trkpt lat="45.6535333" lon="11.26354"><ele>454.19999999999993</ele><time>2026-04-17T13:26:26.822Z</time></trkpt><trkpt lat="45.6534633" lon="11.2635583"><ele>453.59999999999997</ele><time>2026-04-17T13:26:27.822Z</time></trkpt><trkpt lat="45.65339" lon="11.2635717"><ele>453.0</ele><time>2026-04-17T13:26:28.821Z</time></trkpt><trkpt lat="45.6533117" lon="11.2635833"><ele>455.3333333333333</ele><time>2026-04-17T13:26:29.822Z</time></trkpt><trkpt lat="45.653225" lon="11.26359"><ele>457.66666666666663</ele><time>2026-04-17T13:26:30.822Z</time></trkpt><trkpt lat="45.6531583" lon="11.2635717"><ele>460.0</ele><time>2026-04-17T13:26:31.822Z</time></trkpt><trkpt lat="45.653095" lon="11.2635433"><ele>462.3333333333333</ele><time>2026-04-17T13:26:32.822Z</time></trkpt><trkpt lat="45.6530283" lon="11.2635"><ele>464.66666666666663</ele><time>2026-04-17T13:26:33.822Z</time></trkpt><trkpt lat="45.6529567" lon="11.26345"><ele>467.0</ele><time>2026-04-17T13:26:34.822Z</time></trkpt><trkpt lat="45.6528967" lon="11.2633833"><ele>466.99999999999994</ele><time>2026-04-17T13:26:35.822Z</time></trkpt><trkpt lat="45.6528433" lon="11.2633233"><ele>467.0</ele><time>2026-04-17T13:26:36.822Z</time></trkpt><trkpt lat="45.6527883" lon="11.2632667"><ele>467.0</ele><time>2026-04-17T13:26:37.822Z</time></trkpt><trkpt lat="45.6526883" lon="11.2632217"><ele>467.0</ele><time>2026-04-17T13:26:39.822Z</time></trkpt><trkpt lat="45.6525567" lon="11.2632317"><ele>466.99999999999994</ele><time>2026-04-17T13:26:41.822Z</time></trkpt><trkpt lat="45.6524833" lon="11.2632583"><ele>467.0</ele><time>2026-04-17T13:26:42.822Z</time></trkpt><trkpt lat="45.6524183" lon="11.2633333"><ele>468.6</ele><time>2026-04-17T13:26:43.822Z</time></trkpt><trkpt lat="45.6523583" lon="11.2634567"><ele>470.20000000000005</ele><time>2026-04-17T13:26:44.821Z</time></trkpt><trkpt lat="45.6522933" lon="11.2635633"><ele>471.8</ele><time>2026-04-17T13:26:45.822Z</time></trkpt><trkpt lat="45.65222" lon="11.2636367"><ele>473.4</ele><time>2026-04-17T13:26:46.822Z</time></trkpt><trkpt lat="45.6521267" lon="11.2636833"><ele>475.0</ele><time>2026-04-17T13:26:47.822Z</time></trkpt><trkpt lat="45.6520283" lon="11.263725"><ele>475.83333333333337</ele><time>2026-04-17T13:26:48.822Z</time></trkpt><trkpt lat="45.6519317" lon="11.2637633"><ele>476.6666666666667</ele><time>2026-04-17T13:26:49.822Z</time></trkpt><trkpt lat="45.65185" lon="11.263805"><ele>477.5</ele><time>2026-04-17T13:26:50.822Z</time></trkpt><trkpt lat="45.6517667" lon="11.263835"><ele>478.33333333333337</ele><time>2026-04-17T13:26:51.822Z</time></trkpt><trkpt lat="45.65168" lon="11.263835"><ele>479.1666666666667</ele><time>2026-04-17T13:26:52.822Z</time></trkpt><trkpt lat="45.6516017" lon="11.2638183"><ele>480.0</ele><time>2026-04-17T13:26:53.822Z</time></trkpt><trkpt lat="45.65153" lon="11.2638283"><ele>480.0</ele><time>2026-04-17T13:26:54.822Z</time></trkpt><trkpt lat="45.6514617" lon="11.2638467"><ele>480.0</ele><time>2026-04-17T13:26:55.822Z</time></trkpt><trkpt lat="45.6513967" lon="11.2638983"><ele>480.0</ele><time>2026-04-17T13:26:56.822Z</time></trkpt><trkpt lat="45.651345" lon="11.26397"><ele>480.0</ele><time>2026-04-17T13:26:57.822Z</time></trkpt><trkpt lat="45.651295" lon="11.2640617"><ele>480.0</ele><time>2026-04-17T13:26:58.822Z</time></trkpt><trkpt lat="45.6512433" lon="11.2641533"><ele>480.0</ele><time>2026-04-17T13:26:59.822Z</time></trkpt><trkpt lat="45.6511967" lon="11.264235"><ele>480.0</ele><time>2026-04-17T13:27:00.822Z</time></trkpt><trkpt lat="45.651145" lon="11.2642917"><ele>480.0</ele><time>2026-04-17T13:27:01.822Z</time></trkpt><trkpt lat="45.6510283" lon="11.264365"><ele>480.0</ele><time>2026-04-17T13:27:03.822Z</time></trkpt><trkpt lat="45.65096" lon="11.2644267"><ele>480.0</ele><time>2026-04-17T13:27:04.822Z</time></trkpt><trkpt lat="45.6508983" lon="11.2645033"><ele>480.0</ele><time>2026-04-17T13:27:05.822Z</time></trkpt><trkpt lat="45.6508433" lon="11.2646117"><ele>480.0</ele><time>2026-04-17T13:27:06.822Z</time></trkpt><trkpt lat="45.6507933" lon="11.2647467"><ele>477.0</ele><time>2026-04-17T13:27:07.822Z</time></trkpt><trkpt lat="45.6507333" lon="11.2649133"><ele>474.0</ele><time>2026-04-17T13:27:08.821Z</time></trkpt><trkpt lat="45.6506783" lon="11.265065"><ele>471.0</ele><time>2026-04-17T13:27:09.822Z</time></trkpt><trkpt lat="45.650635" lon="11.265205"><ele>468.0</ele><time>2026-04-17T13:27:10.822Z</time></trkpt><trkpt lat="45.6505833" lon="11.2653217"><ele>468.0</ele><time>2026-04-17T13:27:11.822Z</time></trkpt><trkpt lat="45.6505133" lon="11.26543"><ele>467.99999999999994</ele><time>2026-04-17T13:27:12.822Z</time></trkpt><trkpt lat="45.6504183" lon="11.2654983"><ele>467.99999999999994</ele><time>2026-04-17T13:27:13.821Z</time></trkpt><trkpt lat="45.6503083" lon="11.2655583"><ele>468.0</ele><time>2026-04-17T13:27:14.822Z</time></trkpt><trkpt lat="45.6502" lon="11.265635"><ele>468.0</ele><time>2026-04-17T13:27:15.822Z</time></trkpt><trkpt lat="45.650085" lon="11.265725"><ele>469.5</ele><time>2026-04-17T13:27:16.822Z</time></trkpt><trkpt lat="45.64997" lon="11.2658317"><ele>471.0</ele><time>2026-04-17T13:27:17.822Z</time></trkpt><trkpt lat="45.64986" lon="11.2659533"><ele>472.5</ele><time>2026-04-17T13:27:18.822Z</time></trkpt><trkpt lat="45.649755" lon="11.2660633"><ele>474.0</ele><time>2026-04-17T13:27:19.821Z</time></trkpt><trkpt lat="45.6496483" lon="11.26616"><ele>474.0</ele><time>2026-04-17T13:27:20.822Z</time></trkpt><trkpt lat="45.64955" lon="11.2662417"><ele>474.0</ele><time>2026-04-17T13:27:21.822Z</time></trkpt><trkpt lat="45.6494633" lon="11.2663183"><ele>474.0</ele><time>2026-04-17T13:27:22.822Z</time></trkpt><trkpt lat="45.6493783" lon="11.266385"><ele>474.0</ele><time>2026-04-17T13:27:23.822Z</time></trkpt><trkpt lat="45.6492933" lon="11.2664333"><ele>474.0</ele><time>2026-04-17T13:27:24.822Z</time></trkpt><trkpt lat="45.649215" lon="11.2664667"><ele>474.79999999999995</ele><time>2026-04-17T13:27:25.822Z</time></trkpt><trkpt lat="45.64914" lon="11.2664883"><ele>475.59999999999997</ele><time>2026-04-17T13:27:26.822Z</time></trkpt><trkpt lat="45.6490733" lon="11.26651"><ele>476.4</ele><time>2026-04-17T13:27:27.822Z</time></trkpt><trkpt lat="45.64895" lon="11.2665283"><ele>477.2</ele><time>2026-04-17T13:27:29.822Z</time></trkpt><trkpt lat="45.64888" lon="11.2665083"><ele>478.0</ele><time>2026-04-17T13:27:30.822Z</time></trkpt><trkpt lat="45.64877" lon="11.26648"><ele>478.0</ele><time>2026-04-17T13:27:32.821Z</time></trkpt><trkpt lat="45.648685" lon="11.266555"><ele>477.99999999999994</ele><time>2026-04-17T13:27:34.822Z</time></trkpt><trkpt lat="45.64864" lon="11.2666417"><ele>477.99999999999994</ele><time>2026-04-17T13:27:35.822Z</time></trkpt><trkpt lat="45.64858" lon="11.2667717"><ele>478.0</ele><time>2026-04-17T13:27:36.822Z</time></trkpt><trkpt lat="45.64851" lon="11.26692"><ele>478.0</ele><time>2026-04-17T13:27:37.822Z</time></trkpt><trkpt lat="45.64843" lon="11.2670633"><ele>477.75</ele><time>2026-04-17T13:27:38.822Z</time></trkpt><trkpt lat="45.648345" lon="11.2672033"><ele>477.5</ele><time>2026-04-17T13:27:39.822Z</time></trkpt><trkpt lat="45.6482567" lon="11.2673133"><ele>477.25</ele><time>2026-04-17T13:27:40.822Z</time></trkpt><trkpt lat="45.6481667" lon="11.267415"><ele>477.0</ele><time>2026-04-17T13:27:41.822Z</time></trkpt><trkpt lat="45.6480767" lon="11.2675167"><ele>476.25</ele><time>2026-04-17T13:27:42.822Z</time></trkpt><trkpt lat="45.6479783" lon="11.2675967"><ele>475.5</ele><time>2026-04-17T13:27:43.822Z</time></trkpt><trkpt lat="45.6478717" lon="11.2676817"><ele>474.75</ele><time>2026-04-17T13:27:44.821Z</time></trkpt><trkpt lat="45.6477567" lon="11.2677783"><ele>474.0</ele><time>2026-04-17T13:27:45.822Z</time></trkpt><trkpt lat="45.647645" lon="11.267875"><ele>472.75</ele><time>2026-04-17T13:27:46.822Z</time></trkpt><trkpt lat="45.6475483" lon="11.2679783"><ele>471.5</ele><time>2026-04-17T13:27:47.822Z</time></trkpt><trkpt lat="45.64746" lon="11.2681017"><ele>470.25</ele><time>2026-04-17T13:27:48.822Z</time></trkpt><trkpt lat="45.6473867" lon="11.26825"><ele>469.0</ele><time>2026-04-17T13:27:49.822Z</time></trkpt><trkpt lat="45.647335" lon="11.2684183"><ele>468.0</ele><time>2026-04-17T13:27:50.822Z</time></trkpt><trkpt lat="45.6473133" lon="11.268615"><ele>467.0</ele><time>2026-04-17T13:27:51.822Z</time></trkpt><trkpt lat="45.64731" lon="11.2688417"><ele>466.0</ele><time>2026-04-17T13:27:52.822Z</time></trkpt><trkpt lat="45.6472967" lon="11.26904"><ele>465.0</ele><time>2026-04-17T13:27:53.822Z</time></trkpt><trkpt lat="45.647305" lon="11.2692283"><ele>464.75</ele><time>2026-04-17T13:27:54.822Z</time></trkpt><trkpt lat="45.6473133" lon="11.2693883"><ele>464.5</ele><time>2026-04-17T13:27:55.822Z</time></trkpt><trkpt lat="45.647345" lon="11.26955"><ele>464.25</ele><time>2026-04-17T13:27:56.822Z</time></trkpt><trkpt lat="45.64738" lon="11.26972"><ele>464.0</ele><time>2026-04-17T13:27:57.822Z</time></trkpt><trkpt lat="45.6474133" lon="11.2698983"><ele>464.0</ele><time>2026-04-17T13:27:58.822Z</time></trkpt><trkpt lat="45.6474417" lon="11.2700783"><ele>464.0</ele><time>2026-04-17T13:27:59.822Z</time></trkpt><trkpt lat="45.6474733" lon="11.2702683"><ele>464.0</ele><time>2026-04-17T13:28:00.822Z</time></trkpt><trkpt lat="45.6475117" lon="11.2704717"><ele>464.0</ele><time>2026-04-17T13:28:01.822Z</time></trkpt><trkpt lat="45.647555" lon="11.2706967"><ele>463.0</ele><time>2026-04-17T13:28:02.821Z</time></trkpt><trkpt lat="45.6475983" lon="11.2709267"><ele>462.0</ele><time>2026-04-17T13:28:03.822Z</time></trkpt><trkpt lat="45.6476317" lon="11.2711433"><ele>461.0</ele><time>2026-04-17T13:28:04.822Z</time></trkpt><trkpt lat="45.6476683" lon="11.2713683"><ele>461.66666666666663</ele><time>2026-04-17T13:28:05.822Z</time></trkpt><trkpt lat="45.6476783" lon="11.2715867"><ele>462.33333333333337</ele><time>2026-04-17T13:28:06.822Z</time></trkpt><trkpt lat="45.64767" lon="11.27181"><ele>463.0</ele><time>2026-04-17T13:28:07.822Z</time></trkpt><trkpt lat="45.6476283" lon="11.2720383"><ele>463.0</ele><time>2026-04-17T13:28:08.822Z</time></trkpt><trkpt lat="45.6475817" lon="11.2722567"><ele>463.0</ele><time>2026-04-17T13:28:09.822Z</time></trkpt><trkpt lat="45.6475667" lon="11.2724633"><ele>463.0</ele><time>2026-04-17T13:28:10.822Z</time></trkpt><trkpt lat="45.647575" lon="11.27268"><ele>462.6666666666667</ele><time>2026-04-17T13:28:11.822Z</time></trkpt><trkpt lat="45.647605" lon="11.2729167"><ele>462.33333333333337</ele><time>2026-04-17T13:28:12.822Z</time></trkpt><trkpt lat="45.64765" lon="11.2731667"><ele>462.0</ele><time>2026-04-17T13:28:13.822Z</time></trkpt><trkpt lat="45.6476933" lon="11.2734033"><ele>459.66666666666663</ele><time>2026-04-17T13:28:14.822Z</time></trkpt><trkpt lat="45.6477333" lon="11.273625"><ele>457.3333333333333</ele><time>2026-04-17T13:28:15.822Z</time></trkpt><trkpt lat="45.64777" lon="11.27384"><ele>455.0</ele><time>2026-04-17T13:28:16.822Z</time></trkpt><trkpt lat="45.6478183" lon="11.274055"><ele>452.0</ele><time>2026-04-17T13:28:17.822Z</time></trkpt><trkpt lat="45.6478617" lon="11.2742567"><ele>449.0</ele><time>2026-04-17T13:28:18.822Z</time></trkpt><trkpt lat="45.6478917" lon="11.274475"><ele>446.0</ele><time>2026-04-17T13:28:19.822Z</time></trkpt><trkpt lat="45.6479133" lon="11.2747067"><ele>444.66666666666663</ele><time>2026-04-17T13:28:20.822Z</time></trkpt><trkpt lat="45.6479233" lon="11.2749383"><ele>443.33333333333337</ele><time>2026-04-17T13:28:21.822Z</time></trkpt><trkpt lat="45.64794" lon="11.2751533"><ele>442.0</ele><time>2026-04-17T13:28:22.822Z</time></trkpt><trkpt lat="45.6479667" lon="11.2753717"><ele>442.0</ele><time>2026-04-17T13:28:23.822Z</time></trkpt><trkpt lat="45.648" lon="11.2755783"><ele>442.0</ele><time>2026-04-17T13:28:24.822Z</time></trkpt><trkpt lat="45.64803" lon="11.2757667"><ele>442.0</ele><time>2026-04-17T13:28:25.821Z</time></trkpt><trkpt lat="45.648065" lon="11.2759433"><ele>442.0</ele><time>2026-04-17T13:28:26.821Z</time></trkpt><trkpt lat="45.6481" lon="11.2761117"><ele>441.75</ele><time>2026-04-17T13:28:27.821Z</time></trkpt><trkpt lat="45.6481367" lon="11.2762967"><ele>441.5</ele><time>2026-04-17T13:28:28.821Z</time></trkpt><trkpt lat="45.6481783" lon="11.2764833"><ele>441.25</ele><time>2026-04-17T13:28:29.821Z</time></trkpt><trkpt lat="45.6482217" lon="11.27667"><ele>441.0</ele><time>2026-04-17T13:28:30.821Z</time></trkpt><trkpt lat="45.6482633" lon="11.2768667"><ele>441.66666666666663</ele><time>2026-04-17T13:28:31.821Z</time></trkpt><trkpt lat="45.64832" lon="11.2770667"><ele>442.3333333333333</ele><time>2026-04-17T13:28:32.821Z</time></trkpt><trkpt lat="45.648395" lon="11.2772683"><ele>443.0</ele><time>2026-04-17T13:28:33.82Z</time></trkpt><trkpt lat="45.64847" lon="11.277475"><ele>442.0</ele><time>2026-04-17T13:28:34.821Z</time></trkpt><trkpt lat="45.64854" lon="11.2776617"><ele>441.0</ele><time>2026-04-17T13:28:35.82Z</time></trkpt><trkpt lat="45.6486083" lon="11.2778367"><ele>440.0</ele><time>2026-04-17T13:28:36.82Z</time></trkpt><trkpt lat="45.648675" lon="11.2780133"><ele>439.0</ele><time>2026-04-17T13:28:37.821Z</time></trkpt><trkpt lat="45.64872" lon="11.2781917"><ele>437.75</ele><time>2026-04-17T13:28:38.821Z</time></trkpt><trkpt lat="45.6487483" lon="11.2783733"><ele>436.5</ele><time>2026-04-17T13:28:39.821Z</time></trkpt><trkpt lat="45.6487733" lon="11.2785733"><ele>435.25</ele><time>2026-04-17T13:28:40.821Z</time></trkpt><trkpt lat="45.64879" lon="11.278765"><ele>434.0</ele><time>2026-04-17T13:28:41.821Z</time></trkpt><trkpt lat="45.6488217" lon="11.2789533"><ele>434.0</ele><time>2026-04-17T13:28:42.821Z</time></trkpt><trkpt lat="45.6488617" lon="11.2791433"><ele>434.0</ele><time>2026-04-17T13:28:43.821Z</time></trkpt><trkpt lat="45.6489133" lon="11.279325"><ele>434.0</ele><time>2026-04-17T13:28:44.821Z</time></trkpt><trkpt lat="45.6489883" lon="11.2794967"><ele>434.0</ele><time>2026-04-17T13:28:45.821Z</time></trkpt><trkpt lat="45.6490883" lon="11.2796433"><ele>434.0</ele><time>2026-04-17T13:28:46.821Z</time></trkpt><trkpt lat="45.6491883" lon="11.279765"><ele>434.0</ele><time>2026-04-17T13:28:47.821Z</time></trkpt><trkpt lat="45.64928" lon="11.27987"><ele>434.0</ele><time>2026-04-17T13:28:48.821Z</time></trkpt><trkpt lat="45.6493567" lon="11.2799867"><ele>434.0</ele><time>2026-04-17T13:28:49.821Z</time></trkpt><trkpt lat="45.64942" lon="11.2801133"><ele>433.79999999999995</ele><time>2026-04-17T13:28:50.821Z</time></trkpt><trkpt lat="45.6494667" lon="11.2802583"><ele>433.59999999999997</ele><time>2026-04-17T13:28:51.82Z</time></trkpt><trkpt lat="45.649495" lon="11.2804017"><ele>433.4</ele><time>2026-04-17T13:28:52.821Z</time></trkpt><trkpt lat="45.64951" lon="11.2805517"><ele>433.2</ele><time>2026-04-17T13:28:53.821Z</time></trkpt><trkpt lat="45.6495133" lon="11.2807017"><ele>433.0</ele><time>2026-04-17T13:28:54.821Z</time></trkpt><trkpt lat="45.64949" lon="11.2808533"><ele>433.75</ele><time>2026-04-17T13:28:55.821Z</time></trkpt><trkpt lat="45.64944" lon="11.2810083"><ele>434.5</ele><time>2026-04-17T13:28:56.821Z</time></trkpt><trkpt lat="45.649375" lon="11.2811717"><ele>435.25</ele><time>2026-04-17T13:28:57.821Z</time></trkpt><trkpt lat="45.6492967" lon="11.2813283"><ele>436.0</ele><time>2026-04-17T13:28:58.821Z</time></trkpt><trkpt lat="45.649195" lon="11.2814667"><ele>436.25</ele><time>2026-04-17T13:28:59.821Z</time></trkpt><trkpt lat="45.6490967" lon="11.2815817"><ele>436.5</ele><time>2026-04-17T13:29:00.821Z</time></trkpt><trkpt lat="45.64901" lon="11.2817083"><ele>436.75</ele><time>2026-04-17T13:29:01.821Z</time></trkpt><trkpt lat="45.6489283" lon="11.2818467"><ele>437.0</ele><time>2026-04-17T13:29:02.821Z</time></trkpt><trkpt lat="45.64886" lon="11.2819817"><ele>437.0</ele><time>2026-04-17T13:29:03.82Z</time></trkpt><trkpt lat="45.648795" lon="11.28211"><ele>437.00000000000006</ele><time>2026-04-17T13:29:04.821Z</time></trkpt><trkpt lat="45.648745" lon="11.2822367"><ele>437.00000000000006</ele><time>2026-04-17T13:29:05.821Z</time></trkpt><trkpt lat="45.6487067" lon="11.282355"><ele>437.0</ele><time>2026-04-17T13:29:06.821Z</time></trkpt><trkpt lat="45.6486817" lon="11.28248"><ele>437.0</ele><time>2026-04-17T13:29:07.821Z</time></trkpt><trkpt lat="45.6486833" lon="11.2826067"><ele>437.0</ele><time>2026-04-17T13:29:08.821Z</time></trkpt><trkpt lat="45.6486933" lon="11.28274"><ele>437.00000000000006</ele><time>2026-04-17T13:29:09.821Z</time></trkpt><trkpt lat="45.6487333" lon="11.2828967"><ele>437.00000000000006</ele><time>2026-04-17T13:29:10.821Z</time></trkpt><trkpt lat="45.64878" lon="11.2830367"><ele>437.0</ele><time>2026-04-17T13:29:11.821Z</time></trkpt><trkpt lat="45.64883" lon="11.2831767"><ele>437.0</ele><time>2026-04-17T13:29:12.821Z</time></trkpt><trkpt lat="45.6488783" lon="11.2833067"><ele>437.0</ele><time>2026-04-17T13:29:13.821Z</time></trkpt><trkpt lat="45.6489317" lon="11.2834367"><ele>437.00000000000006</ele><time>2026-04-17T13:29:14.82Z</time></trkpt><trkpt lat="45.648975" lon="11.2835667"><ele>437.00000000000006</ele><time>2026-04-17T13:29:15.821Z</time></trkpt><trkpt lat="45.6490017" lon="11.28371"><ele>437.0</ele><time>2026-04-17T13:29:16.821Z</time></trkpt><trkpt lat="45.6490067" lon="11.2838817"><ele>437.0</ele><time>2026-04-17T13:29:17.821Z</time></trkpt><trkpt lat="45.6489867" lon="11.28404"><ele>435.25</ele><time>2026-04-17T13:29:18.821Z</time></trkpt><trkpt lat="45.6489433" lon="11.2842083"><ele>433.5</ele><time>2026-04-17T13:29:19.821Z</time></trkpt><trkpt lat="45.6488933" lon="11.2843733"><ele>431.75</ele><time>2026-04-17T13:29:20.821Z</time></trkpt><trkpt lat="45.6488433" lon="11.284515"><ele>430.0</ele><time>2026-04-17T13:29:21.821Z</time></trkpt><trkpt lat="45.6487817" lon="11.28464"><ele>429.75</ele><time>2026-04-17T13:29:22.821Z</time></trkpt><trkpt lat="45.6487267" lon="11.2847683"><ele>429.5</ele><time>2026-04-17T13:29:23.821Z</time></trkpt><trkpt lat="45.6486633" lon="11.284905"><ele>429.25</ele><time>2026-04-17T13:29:24.821Z</time></trkpt><trkpt lat="45.6485933" lon="11.2850417"><ele>429.0</ele><time>2026-04-17T13:29:25.821Z</time></trkpt><trkpt lat="45.648515" lon="11.2851717"><ele>427.6</ele><time>2026-04-17T13:29:26.821Z</time></trkpt><trkpt lat="45.64844" lon="11.2853117"><ele>426.2</ele><time>2026-04-17T13:29:27.821Z</time></trkpt><trkpt lat="45.648365" lon="11.2854317"><ele>424.8</ele><time>2026-04-17T13:29:28.82Z</time></trkpt><trkpt lat="45.6482917" lon="11.285535"><ele>423.40000000000003</ele><time>2026-04-17T13:29:29.821Z</time></trkpt><trkpt lat="45.648215" lon="11.2856317"><ele>422.0</ele><time>2026-04-17T13:29:30.82Z</time></trkpt><trkpt lat="45.6481467" lon="11.285735"><ele>421.5</ele><time>2026-04-17T13:29:31.821Z</time></trkpt><trkpt lat="45.6480883" lon="11.2858633"><ele>421.0</ele><time>2026-04-17T13:29:32.821Z</time></trkpt><trkpt lat="45.6480367" lon="11.2860217"><ele>420.5</ele><time>2026-04-17T13:29:33.82Z</time></trkpt><trkpt lat="45.647985" lon="11.28618"><ele>420.0</ele><time>2026-04-17T13:29:34.821Z</time></trkpt><trkpt lat="45.6479317" lon="11.28633"><ele>418.5</ele><time>2026-04-17T13:29:35.82Z</time></trkpt><trkpt lat="45.6478817" lon="11.28648"><ele>417.0</ele><time>2026-04-17T13:29:36.821Z</time></trkpt><trkpt lat="45.6478283" lon="11.2866267"><ele>415.5</ele><time>2026-04-17T13:29:37.821Z</time></trkpt><trkpt lat="45.6477767" lon="11.2867567"><ele>414.0</ele><time>2026-04-17T13:29:38.821Z</time></trkpt><trkpt lat="45.6477517" lon="11.2869233"><ele>412.75</ele><time>2026-04-17T13:29:39.821Z</time></trkpt><trkpt lat="45.64772" lon="11.287085"><ele>411.5</ele><time>2026-04-17T13:29:40.821Z</time></trkpt><trkpt lat="45.6476883" lon="11.287245"><ele>410.25</ele><time>2026-04-17T13:29:41.821Z</time></trkpt><trkpt lat="45.64767" lon="11.2874267"><ele>409.0</ele><time>2026-04-17T13:29:42.821Z</time></trkpt><trkpt lat="45.64764" lon="11.2875983"><ele>408.0</ele><time>2026-04-17T13:29:43.821Z</time></trkpt><trkpt lat="45.6476033" lon="11.2877533"><ele>407.0</ele><time>2026-04-17T13:29:44.821Z</time></trkpt><trkpt lat="45.6475533" lon="11.2879133"><ele>406.0</ele><time>2026-04-17T13:29:45.821Z</time></trkpt><trkpt lat="45.6475017" lon="11.288085"><ele>405.0</ele><time>2026-04-17T13:29:46.821Z</time></trkpt><trkpt lat="45.6474667" lon="11.288255"><ele>403.0</ele><time>2026-04-17T13:29:47.821Z</time></trkpt><trkpt lat="45.6474383" lon="11.2884433"><ele>401.0</ele><time>2026-04-17T13:29:48.821Z</time></trkpt><trkpt lat="45.6474117" lon="11.2886367"><ele>399.0</ele><time>2026-04-17T13:29:49.821Z</time></trkpt><trkpt lat="45.6473783" lon="11.2888033"><ele>397.0</ele><time>2026-04-17T13:29:50.821Z</time></trkpt><trkpt lat="45.6473483" lon="11.2889567"><ele>395.40000000000003</ele><time>2026-04-17T13:29:51.821Z</time></trkpt><trkpt lat="45.6473167" lon="11.2891033"><ele>393.8</ele><time>2026-04-17T13:29:52.821Z</time></trkpt><trkpt lat="45.647295" lon="11.28924"><ele>392.2</ele><time>2026-04-17T13:29:53.821Z</time></trkpt><trkpt lat="45.647265" lon="11.2893767"><ele>390.6</ele><time>2026-04-17T13:29:54.821Z</time></trkpt><trkpt lat="45.6472267" lon="11.28952"><ele>389.0</ele><time>2026-04-17T13:29:55.821Z</time></trkpt><trkpt lat="45.6471867" lon="11.28964"><ele>389.0</ele><time>2026-04-17T13:29:56.821Z</time></trkpt><trkpt lat="45.6471367" lon="11.2897483"><ele>389.0</ele><time>2026-04-17T13:29:57.82Z</time></trkpt><trkpt lat="45.64708" lon="11.2898567"><ele>389.0</ele><time>2026-04-17T13:29:58.821Z</time></trkpt><trkpt lat="45.6470117" lon="11.2899583"><ele>389.0</ele><time>2026-04-17T13:29:59.821Z</time></trkpt><trkpt lat="45.6469433" lon="11.2900583"><ele>389.0</ele><time>2026-04-17T13:30:00.821Z</time></trkpt><trkpt lat="45.64687" lon="11.2901517"><ele>387.79999999999995</ele><time>2026-04-17T13:30:01.82Z</time></trkpt><trkpt lat="45.6467867" lon="11.2902333"><ele>386.59999999999997</ele><time>2026-04-17T13:30:02.821Z</time></trkpt><trkpt lat="45.6467033" lon="11.2903033"><ele>385.4</ele><time>2026-04-17T13:30:03.821Z</time></trkpt><trkpt lat="45.646615" lon="11.2903817"><ele>384.2</ele><time>2026-04-17T13:30:04.821Z</time></trkpt><trkpt lat="45.646525" lon="11.2904933"><ele>383.0</ele><time>2026-04-17T13:30:05.821Z</time></trkpt><trkpt lat="45.646445" lon="11.2905917"><ele>381.6666666666667</ele><time>2026-04-17T13:30:06.821Z</time></trkpt><trkpt lat="45.6463917" lon="11.2907033"><ele>380.33333333333337</ele><time>2026-04-17T13:30:07.821Z</time></trkpt><trkpt lat="45.6463467" lon="11.2908133"><ele>379.0</ele><time>2026-04-17T13:30:08.821Z</time></trkpt><trkpt lat="45.6463083" lon="11.2909133"><ele>377.6666666666667</ele><time>2026-04-17T13:30:09.821Z</time></trkpt><trkpt lat="45.64627" lon="11.291005"><ele>376.3333333333333</ele><time>2026-04-17T13:30:10.82Z</time></trkpt><trkpt lat="45.6462317" lon="11.2910833"><ele>375.0</ele><time>2026-04-17T13:30:11.821Z</time></trkpt><trkpt lat="45.6461717" lon="11.2911983"><ele>372.1666666666667</ele><time>2026-04-17T13:30:13.821Z</time></trkpt><trkpt lat="45.646115" lon="11.2912767"><ele>369.3333333333333</ele><time>2026-04-17T13:30:15.821Z</time></trkpt><trkpt lat="45.6460583" lon="11.2913233"><ele>366.5</ele><time>2026-04-17T13:30:17.821Z</time></trkpt><trkpt lat="45.646" lon="11.29128"><ele>363.66666666666663</ele><time>2026-04-17T13:30:19.821Z</time></trkpt><trkpt lat="45.6460033" lon="11.2911133"><ele>360.8333333333333</ele><time>2026-04-17T13:30:21.821Z</time></trkpt><trkpt lat="45.6460267" lon="11.2909983"><ele>358.0</ele><time>2026-04-17T13:30:22.821Z</time></trkpt><trkpt lat="45.64604" lon="11.2908617"><ele>358.0</ele><time>2026-04-17T13:30:23.821Z</time></trkpt><trkpt lat="45.6460467" lon="11.2907083"><ele>358.0</ele><time>2026-04-17T13:30:24.821Z</time></trkpt><trkpt lat="45.6460033" lon="11.2904967"><ele>358.0</ele><time>2026-04-17T13:30:25.821Z</time></trkpt><trkpt lat="45.64595" lon="11.290265"><ele>358.0</ele><time>2026-04-17T13:30:26.821Z</time></trkpt><trkpt lat="45.6458967" lon="11.2900167"><ele>359.0</ele><time>2026-04-17T13:30:27.821Z</time></trkpt><trkpt lat="45.6458467" lon="11.28978"><ele>360.0</ele><time>2026-04-17T13:30:28.821Z</time></trkpt><trkpt lat="45.6458" lon="11.2895467"><ele>361.0</ele><time>2026-04-17T13:30:29.821Z</time></trkpt><trkpt lat="45.6457583" lon="11.289315"><ele>361.3333333333333</ele><time>2026-04-17T13:30:30.821Z</time></trkpt><trkpt lat="45.6457183" lon="11.2890817"><ele>361.6666666666667</ele><time>2026-04-17T13:30:31.821Z</time></trkpt><trkpt lat="45.64569" lon="11.2888567"><ele>362.0</ele><time>2026-04-17T13:30:32.821Z</time></trkpt><trkpt lat="45.6456667" lon="11.2886333"><ele>362.0</ele><time>2026-04-17T13:30:33.821Z</time></trkpt><trkpt lat="45.6456633" lon="11.2884033"><ele>362.0</ele><time>2026-04-17T13:30:34.821Z</time></trkpt><trkpt lat="45.64568" lon="11.2881567"><ele>362.0</ele><time>2026-04-17T13:30:35.82Z</time></trkpt><trkpt lat="45.6457033" lon="11.2878883"><ele>359.6666666666667</ele><time>2026-04-17T13:30:36.821Z</time></trkpt><trkpt lat="45.6457167" lon="11.2876217"><ele>357.3333333333333</ele><time>2026-04-17T13:30:37.821Z</time></trkpt><trkpt lat="45.64573" lon="11.28737"><ele>355.0</ele><time>2026-04-17T13:30:38.821Z</time></trkpt><trkpt lat="45.6457417" lon="11.2871267"><ele>352.0</ele><time>2026-04-17T13:30:39.821Z</time></trkpt><trkpt lat="45.6457667" lon="11.286895"><ele>349.0</ele><time>2026-04-17T13:30:40.821Z</time></trkpt><trkpt lat="45.6458233" lon="11.2867"><ele>346.0</ele><time>2026-04-17T13:30:41.821Z</time></trkpt><trkpt lat="45.645875" lon="11.2865083"><ele>344.0</ele><time>2026-04-17T13:30:42.82Z</time></trkpt><trkpt lat="45.6459167" lon="11.2863417"><ele>342.0</ele><time>2026-04-17T13:30:43.821Z</time></trkpt><trkpt lat="45.6459683" lon="11.2862017"><ele>340.0</ele><time>2026-04-17T13:30:44.821Z</time></trkpt><trkpt lat="45.6460333" lon="11.2860933"><ele>338.0</ele><time>2026-04-17T13:30:45.821Z</time></trkpt><trkpt lat="45.6461017" lon="11.28601"><ele>336.0</ele><time>2026-04-17T13:30:46.821Z</time></trkpt><trkpt lat="45.6461483" lon="11.2859233"><ele>336.0</ele><time>2026-04-17T13:30:47.821Z</time></trkpt><trkpt lat="45.646165" lon="11.2858283"><ele>336.0</ele><time>2026-04-17T13:30:48.821Z</time></trkpt><trkpt lat="45.6461217" lon="11.28576"><ele>336.0</ele><time>2026-04-17T13:30:49.821Z</time></trkpt><trkpt lat="45.6460567" lon="11.2857517"><ele>336.0</ele><time>2026-04-17T13:30:50.821Z</time></trkpt><trkpt lat="45.6459733" lon="11.2857883"><ele>336.0</ele><time>2026-04-17T13:30:51.821Z</time></trkpt><trkpt lat="45.6458767" lon="11.28587"><ele>336.0</ele><time>2026-04-17T13:30:52.821Z</time></trkpt><trkpt lat="45.6457567" lon="11.2859883"><ele>336.0</ele><time>2026-04-17T13:30:53.821Z</time></trkpt><trkpt lat="45.6456283" lon="11.2861183"><ele>336.0</ele><time>2026-04-17T13:30:54.821Z</time></trkpt><trkpt lat="45.6455083" lon="11.286265"><ele>336.0</ele><time>2026-04-17T13:30:55.821Z</time></trkpt><trkpt lat="45.6454033" lon="11.2864383"><ele>339.3333333333333</ele><time>2026-04-17T13:30:56.821Z</time></trkpt><trkpt lat="45.6453167" lon="11.2866283"><ele>342.66666666666663</ele><time>2026-04-17T13:30:57.821Z</time></trkpt><trkpt lat="45.645225" lon="11.2868133"><ele>346.0</ele><time>2026-04-17T13:30:58.821Z</time></trkpt><trkpt lat="45.6451417" lon="11.2870217"><ele>337.0</ele><time>2026-04-17T13:30:59.821Z</time></trkpt><trkpt lat="45.6450617" lon="11.2872533"><ele>328.0</ele><time>2026-04-17T13:31:00.821Z</time></trkpt><trkpt lat="45.6449917" lon="11.2874833"><ele>319.0</ele><time>2026-04-17T13:31:01.821Z</time></trkpt><trkpt lat="45.64494" lon="11.287725"><ele>319.0</ele><time>2026-04-17T13:31:02.821Z</time></trkpt><trkpt lat="45.6449167" lon="11.2879683"><ele>319.0</ele><time>2026-04-17T13:31:03.821Z</time></trkpt><trkpt lat="45.6449" lon="11.288195"><ele>319.0</ele><time>2026-04-17T13:31:04.821Z</time></trkpt><trkpt lat="45.6448867" lon="11.2884267"><ele>319.3333333333333</ele><time>2026-04-17T13:31:05.821Z</time></trkpt><trkpt lat="45.6448683" lon="11.288645"><ele>319.6666666666667</ele><time>2026-04-17T13:31:06.82Z</time></trkpt><trkpt lat="45.6448483" lon="11.288865"><ele>320.0</ele><time>2026-04-17T13:31:07.821Z</time></trkpt><trkpt lat="45.644845" lon="11.2891017"><ele>320.0</ele><time>2026-04-17T13:31:08.821Z</time></trkpt><trkpt lat="45.6448167" lon="11.2893383"><ele>320.0</ele><time>2026-04-17T13:31:09.821Z</time></trkpt><trkpt lat="45.644795" lon="11.2895933"><ele>320.0</ele><time>2026-04-17T13:31:10.821Z</time></trkpt><trkpt lat="45.64477" lon="11.289845"><ele>318.0</ele><time>2026-04-17T13:31:11.821Z</time></trkpt><trkpt lat="45.6447433" lon="11.290085"><ele>316.0</ele><time>2026-04-17T13:31:12.821Z</time></trkpt><trkpt lat="45.64472" lon="11.2903183"><ele>314.0</ele><time>2026-04-17T13:31:13.821Z</time></trkpt><trkpt lat="45.6447033" lon="11.290535"><ele>313.0</ele><time>2026-04-17T13:31:14.821Z</time></trkpt><trkpt lat="45.6447033" lon="11.2907433"><ele>312.0</ele><time>2026-04-17T13:31:15.821Z</time></trkpt><trkpt lat="45.6446983" lon="11.290915"><ele>311.0</ele><time>2026-04-17T13:31:16.82Z</time></trkpt><trkpt lat="45.6446833" lon="11.2910917"><ele>310.0</ele><time>2026-04-17T13:31:17.82Z</time></trkpt><trkpt lat="45.6446667" lon="11.2912717"><ele>310.5</ele><time>2026-04-17T13:31:18.82Z</time></trkpt><trkpt lat="45.644645" lon="11.2914633"><ele>311.0</ele><time>2026-04-17T13:31:19.82Z</time></trkpt><trkpt lat="45.6445983" lon="11.2916517"><ele>311.5</ele><time>2026-04-17T13:31:20.82Z</time></trkpt><trkpt lat="45.6445333" lon="11.29182"><ele>312.0</ele><time>2026-04-17T13:31:21.82Z</time></trkpt><trkpt lat="45.6444633" lon="11.291985"><ele>304.0</ele><time>2026-04-17T13:31:22.819Z</time></trkpt><trkpt lat="45.644405" lon="11.2921317"><ele>296.0</ele><time>2026-04-17T13:31:23.82Z</time></trkpt><trkpt lat="45.644335" lon="11.2922617"><ele>288.0</ele><time>2026-04-17T13:31:24.819Z</time></trkpt><trkpt lat="45.6442717" lon="11.29241"><ele>280.0</ele><time>2026-04-17T13:31:25.82Z</time></trkpt><trkpt lat="45.6442183" lon="11.2925817"><ele>280.0</ele><time>2026-04-17T13:31:26.82Z</time></trkpt><trkpt lat="45.6441867" lon="11.29278"><ele>280.0</ele><time>2026-04-17T13:31:27.82Z</time></trkpt><trkpt lat="45.6441517" lon="11.2929983"><ele>280.0</ele><time>2026-04-17T13:31:28.82Z</time></trkpt><trkpt lat="45.644115" lon="11.2932083"><ele>280.5</ele><time>2026-04-17T13:31:29.82Z</time></trkpt><trkpt lat="45.64406" lon="11.2933967"><ele>281.0</ele><time>2026-04-17T13:31:30.82Z</time></trkpt><trkpt lat="45.64401" lon="11.2935833"><ele>281.5</ele><time>2026-04-17T13:31:31.82Z</time></trkpt><trkpt lat="45.6439517" lon="11.293755"><ele>282.0</ele><time>2026-04-17T13:31:32.82Z</time></trkpt><trkpt lat="45.6439017" lon="11.2939283"><ele>283.0</ele><time>2026-04-17T13:31:33.82Z</time></trkpt><trkpt lat="45.64384" lon="11.29409"><ele>284.0</ele><time>2026-04-17T13:31:34.82Z</time></trkpt><trkpt lat="45.6437833" lon="11.2942483"><ele>285.0</ele><time>2026-04-17T13:31:35.82Z</time></trkpt><trkpt lat="45.64373" lon="11.2944117"><ele>286.0</ele><time>2026-04-17T13:31:36.82Z</time></trkpt><trkpt lat="45.643675" lon="11.2945633"><ele>282.40000000000003</ele><time>2026-04-17T13:31:37.82Z</time></trkpt><trkpt lat="45.6436267" lon="11.2947083"><ele>278.8</ele><time>2026-04-17T13:31:38.819Z</time></trkpt><trkpt lat="45.6435817" lon="11.2948333"><ele>275.20000000000005</ele><time>2026-04-17T13:31:39.82Z</time></trkpt><trkpt lat="45.64355" lon="11.2949567"><ele>271.6</ele><time>2026-04-17T13:31:40.82Z</time></trkpt><trkpt lat="45.6435183" lon="11.2950817"><ele>268.0</ele><time>2026-04-17T13:31:41.819Z</time></trkpt><trkpt lat="45.6434867" lon="11.2952033"><ele>268.0</ele><time>2026-04-17T13:31:42.82Z</time></trkpt><trkpt lat="45.6434383" lon="11.2953167"><ele>268.0</ele><time>2026-04-17T13:31:43.82Z</time></trkpt><trkpt lat="45.6433867" lon="11.2954433"><ele>268.0</ele><time>2026-04-17T13:31:44.82Z</time></trkpt><trkpt lat="45.64332" lon="11.2955633"><ele>268.0</ele><time>2026-04-17T13:31:45.82Z</time></trkpt><trkpt lat="45.6432667" lon="11.2956933"><ele>268.0</ele><time>2026-04-17T13:31:46.82Z</time></trkpt><trkpt lat="45.6432317" lon="11.2958367"><ele>268.0</ele><time>2026-04-17T13:31:47.82Z</time></trkpt><trkpt lat="45.643215" lon="11.2959617"><ele>268.0</ele><time>2026-04-17T13:31:48.82Z</time></trkpt><trkpt lat="45.6431983" lon="11.2960883"><ele>268.0</ele><time>2026-04-17T13:31:49.82Z</time></trkpt><trkpt lat="45.6432017" lon="11.2962117"><ele>268.0</ele><time>2026-04-17T13:31:50.82Z</time></trkpt><trkpt lat="45.6432183" lon="11.2963533"><ele>268.0</ele><time>2026-04-17T13:31:51.819Z</time></trkpt><trkpt lat="45.6432467" lon="11.2965067"><ele>268.4</ele><time>2026-04-17T13:31:52.82Z</time></trkpt><trkpt lat="45.643275" lon="11.29667"><ele>268.8</ele><time>2026-04-17T13:31:53.82Z</time></trkpt><trkpt lat="45.643305" lon="11.2968233"><ele>269.2</ele><time>2026-04-17T13:31:54.82Z</time></trkpt><trkpt lat="45.6433433" lon="11.296965"><ele>269.6</ele><time>2026-04-17T13:31:55.82Z</time></trkpt><trkpt lat="45.643395" lon="11.297085"><ele>270.0</ele><time>2026-04-17T13:31:56.82Z</time></trkpt><trkpt lat="45.6434467" lon="11.2971917"><ele>269.2</ele><time>2026-04-17T13:31:57.82Z</time></trkpt><trkpt lat="45.64351" lon="11.2973017"><ele>268.4</ele><time>2026-04-17T13:31:58.819Z</time></trkpt><trkpt lat="45.643565" lon="11.2974133"><ele>267.6</ele><time>2026-04-17T13:31:59.819Z</time></trkpt><trkpt lat="45.64363" lon="11.2975017"><ele>266.8</ele><time>2026-04-17T13:32:00.82Z</time></trkpt><trkpt lat="45.6436817" lon="11.2976033"><ele>266.0</ele><time>2026-04-17T13:32:01.82Z</time></trkpt><trkpt lat="45.6437367" lon="11.2977117"><ele>266.5</ele><time>2026-04-17T13:32:02.82Z</time></trkpt><trkpt lat="45.6437817" lon="11.297815"><ele>267.0</ele><time>2026-04-17T13:32:03.82Z</time></trkpt><trkpt lat="45.6438233" lon="11.29792"><ele>267.5</ele><time>2026-04-17T13:32:04.82Z</time></trkpt><trkpt lat="45.64386" lon="11.298015"><ele>268.0</ele><time>2026-04-17T13:32:05.82Z</time></trkpt><trkpt lat="45.6439183" lon="11.298105"><ele>268.5</ele><time>2026-04-17T13:32:06.82Z</time></trkpt><trkpt lat="45.6439783" lon="11.2981933"><ele>269.0</ele><time>2026-04-17T13:32:07.82Z</time></trkpt><trkpt lat="45.6440467" lon="11.2982633"><ele>269.0</ele><time>2026-04-17T13:32:08.82Z</time></trkpt><trkpt lat="45.644115" lon="11.2983283"><ele>269.0</ele><time>2026-04-17T13:32:09.82Z</time></trkpt><trkpt lat="45.644185" lon="11.298375"><ele>269.0</ele><time>2026-04-17T13:32:10.82Z</time></trkpt><trkpt lat="45.6442567" lon="11.2984167"><ele>269.0</ele><time>2026-04-17T13:32:11.82Z</time></trkpt><trkpt lat="45.6443433" lon="11.298435"><ele>269.0</ele><time>2026-04-17T13:32:12.82Z</time></trkpt><trkpt lat="45.6444183" lon="11.29844"><ele>269.0</ele><time>2026-04-17T13:32:13.82Z</time></trkpt><trkpt lat="45.644495" lon="11.298415"><ele>270.6666666666667</ele><time>2026-04-17T13:32:14.82Z</time></trkpt><trkpt lat="45.644575" lon="11.2983983"><ele>272.33333333333337</ele><time>2026-04-17T13:32:15.82Z</time></trkpt><trkpt lat="45.6446517" lon="11.2983983"><ele>274.0</ele><time>2026-04-17T13:32:16.82Z</time></trkpt><trkpt lat="45.6447417" lon="11.2983867"><ele>275.6666666666667</ele><time>2026-04-17T13:32:17.82Z</time></trkpt><trkpt lat="45.6448333" lon="11.298375"><ele>277.3333333333333</ele><time>2026-04-17T13:32:18.82Z</time></trkpt><trkpt lat="45.6449117" lon="11.2983633"><ele>279.0</ele><time>2026-04-17T13:32:19.82Z</time></trkpt><trkpt lat="45.6449883" lon="11.2983683"><ele>279.0</ele><time>2026-04-17T13:32:20.82Z</time></trkpt><trkpt lat="45.6450667" lon="11.2983783"><ele>279.0</ele><time>2026-04-17T13:32:21.82Z</time></trkpt><trkpt lat="45.64514" lon="11.2983867"><ele>279.0</ele><time>2026-04-17T13:32:22.82Z</time></trkpt><trkpt lat="45.645205" lon="11.2984183"><ele>279.0</ele><time>2026-04-17T13:32:23.82Z</time></trkpt><trkpt lat="45.6453083" lon="11.298455"><ele>279.0</ele><time>2026-04-17T13:32:25.82Z</time></trkpt><trkpt lat="45.6453967" lon="11.298465"><ele>279.0</ele><time>2026-04-17T13:32:27.82Z</time></trkpt><trkpt lat="45.6454833" lon="11.2985217"><ele>279.1666666666667</ele><time>2026-04-17T13:32:29.82Z</time></trkpt><trkpt lat="45.6455983" lon="11.2985667"><ele>279.3333333333333</ele><time>2026-04-17T13:32:31.82Z</time></trkpt><trkpt lat="45.6456583" lon="11.2985983"><ele>279.5</ele><time>2026-04-17T13:32:32.82Z</time></trkpt><trkpt lat="45.6457217" lon="11.29861"><ele>279.66666666666663</ele><time>2026-04-17T13:32:33.82Z</time></trkpt><trkpt lat="45.6458333" lon="11.29861"><ele>279.8333333333333</ele><time>2026-04-17T13:32:35.82Z</time></trkpt><trkpt lat="45.6459183" lon="11.2986133"><ele>280.0</ele><time>2026-04-17T13:32:37.82Z</time></trkpt><trkpt lat="45.6459917" lon="11.298625"><ele>280.0</ele><time>2026-04-17T13:32:41.82Z</time></trkpt><trkpt lat="45.64606" lon="11.2986367"><ele>280.0</ele><time>2026-04-17T13:32:44.82Z</time></trkpt><trkpt lat="45.6460867" lon="11.2987467"><ele>280.0</ele><time>2026-04-17T13:32:48.82Z</time></trkpt><trkpt lat="45.646075" lon="11.29886"><ele>280.0</ele><time>2026-04-17T13:32:50.82Z</time></trkpt><trkpt lat="45.6460767" lon="11.2989933"><ele>280.0</ele><time>2026-04-17T13:32:52.82Z</time></trkpt><trkpt lat="45.6460833" lon="11.2991567"><ele>280.0</ele><time>2026-04-17T13:32:54.82Z</time></trkpt><trkpt lat="45.646075" lon="11.2993167"><ele>278.2</ele><time>2026-04-17T13:32:56.82Z</time></trkpt><trkpt lat="45.6460783" lon="11.299485"><ele>276.4</ele><time>2026-04-17T13:32:58.82Z</time></trkpt><trkpt lat="45.6460783" lon="11.2996617"><ele>274.6</ele><time>2026-04-17T13:33:00.82Z</time></trkpt><trkpt lat="45.6460783" lon="11.2998233"><ele>272.8</ele><time>2026-04-17T13:33:02.819Z</time></trkpt><trkpt lat="45.6460917" lon="11.29994"><ele>271.0</ele><time>2026-04-17T13:33:04.82Z</time></trkpt><trkpt lat="45.64615" lon="11.300015"><ele>270.5</ele><time>2026-04-17T13:33:14.82Z</time></trkpt><trkpt lat="45.6462067" lon="11.300055"><ele>270.0</ele><time>2026-04-17T13:33:15.82Z</time></trkpt><trkpt lat="45.6462717" lon="11.3000683"><ele>269.5</ele><time>2026-04-17T13:33:16.82Z</time></trkpt><trkpt lat="45.6463467" lon="11.3001033"><ele>269.0</ele><time>2026-04-17T13:33:17.82Z</time></trkpt><trkpt lat="45.6464317" lon="11.3001583"><ele>268.5</ele><time>2026-04-17T13:33:18.82Z</time></trkpt><trkpt lat="45.6465083" lon="11.3001883"><ele>268.0</ele><time>2026-04-17T13:33:19.82Z</time></trkpt><trkpt lat="45.6465783" lon="11.300225"><ele>268.0</ele><time>2026-04-17T13:33:20.82Z</time></trkpt><trkpt lat="45.6466567" lon="11.30025"><ele>268.0</ele><time>2026-04-17T13:33:21.82Z</time></trkpt><trkpt lat="45.6467283" lon="11.30028"><ele>268.0</ele><time>2026-04-17T13:33:22.82Z</time></trkpt><trkpt lat="45.6468433" lon="11.30032"><ele>268.0</ele><time>2026-04-17T13:33:24.819Z</time></trkpt><trkpt lat="45.6469467" lon="11.30035"><ele>268.0</ele><time>2026-04-17T13:33:26.82Z</time></trkpt><trkpt lat="45.647025" lon="11.3003767"><ele>267.6</ele><time>2026-04-17T13:33:28.82Z</time></trkpt><trkpt lat="45.6471167" lon="11.30044"><ele>267.20000000000005</ele><time>2026-04-17T13:33:30.82Z</time></trkpt><trkpt lat="45.6472217" lon="11.3004717"><ele>266.8</ele><time>2026-04-17T13:33:32.819Z</time></trkpt><trkpt lat="45.6473067" lon="11.3004383"><ele>266.40000000000003</ele><time>2026-04-17T13:33:34.82Z</time></trkpt><trkpt lat="45.6474067" lon="11.3003933"><ele>266.0</ele><time>2026-04-17T13:33:36.82Z</time></trkpt><trkpt lat="45.6475233" lon="11.3003717"><ele>266.0</ele><time>2026-04-17T13:33:38.819Z</time></trkpt><trkpt lat="45.6476" lon="11.3003517"><ele>266.0</ele><time>2026-04-17T13:33:39.82Z</time></trkpt><trkpt lat="45.64767" lon="11.3003333"><ele>266.0</ele><time>2026-04-17T13:33:40.82Z</time></trkpt><trkpt lat="45.6477483" lon="11.3003017"><ele>266.0</ele><time>2026-04-17T13:33:41.82Z</time></trkpt><trkpt lat="45.6478183" lon="11.3002667"><ele>266.0</ele><time>2026-04-17T13:33:42.82Z</time></trkpt><trkpt lat="45.6478933" lon="11.300225"><ele>266.0</ele><time>2026-04-17T13:33:43.819Z</time></trkpt><trkpt lat="45.6479667" lon="11.3001783"><ele>265.40000000000003</ele><time>2026-04-17T13:33:44.82Z</time></trkpt><trkpt lat="45.64804" lon="11.3001283"><ele>264.8</ele><time>2026-04-17T13:33:45.82Z</time></trkpt><trkpt lat="45.6481283" lon="11.3000783"><ele>264.20000000000005</ele><time>2026-04-17T13:33:46.819Z</time></trkpt><trkpt lat="45.648225" lon="11.3000283"><ele>263.6</ele><time>2026-04-17T13:33:47.82Z</time></trkpt><trkpt lat="45.6483167" lon="11.2999817"><ele>263.0</ele><time>2026-04-17T13:33:48.82Z</time></trkpt><trkpt lat="45.64845" lon="11.2999633"><ele>263.0</ele><time>2026-04-17T13:33:49.82Z</time></trkpt><trkpt lat="45.6485633" lon="11.2999333"><ele>263.0</ele><time>2026-04-17T13:33:50.82Z</time></trkpt><trkpt lat="45.6486783" lon="11.2998983"><ele>263.0</ele><time>2026-04-17T13:33:51.82Z</time></trkpt><trkpt lat="45.648815" lon="11.2998433"><ele>263.0</ele><time>2026-04-17T13:33:52.82Z</time></trkpt><trkpt lat="45.6489733" lon="11.299795"><ele>264.6666666666667</ele><time>2026-04-17T13:33:53.82Z</time></trkpt><trkpt lat="45.6491383" lon="11.299745"><ele>266.3333333333333</ele><time>2026-04-17T13:33:54.82Z</time></trkpt><trkpt lat="45.64932" lon="11.2996933"><ele>268.0</ele><time>2026-04-17T13:33:55.82Z</time></trkpt><trkpt lat="45.6495" lon="11.2996267"><ele>268.0</ele><time>2026-04-17T13:33:56.82Z</time></trkpt><trkpt lat="45.6496633" lon="11.299575"><ele>268.0</ele><time>2026-04-17T13:33:57.82Z</time></trkpt><trkpt lat="45.64982" lon="11.29952"><ele>268.0</ele><time>2026-04-17T13:33:58.82Z</time></trkpt><trkpt lat="45.6499733" lon="11.2994667"><ele>268.0</ele><time>2026-04-17T13:33:59.82Z</time></trkpt><trkpt lat="45.65012" lon="11.2994167"><ele>268.0</ele><time>2026-04-17T13:34:00.82Z</time></trkpt><trkpt lat="45.65027" lon="11.29936"><ele>268.0</ele><time>2026-04-17T13:34:01.82Z</time></trkpt><trkpt lat="45.6504083" lon="11.2993217"><ele>268.0</ele><time>2026-04-17T13:34:02.82Z</time></trkpt><trkpt lat="45.6505567" lon="11.2992733"><ele>267.0</ele><time>2026-04-17T13:34:03.82Z</time></trkpt><trkpt lat="45.65071" lon="11.29921"><ele>266.0</ele><time>2026-04-17T13:34:04.82Z</time></trkpt><trkpt lat="45.650865" lon="11.2991617"><ele>265.0</ele><time>2026-04-17T13:34:05.82Z</time></trkpt><trkpt lat="45.6510183" lon="11.2990917"><ele>263.66666666666663</ele><time>2026-04-17T13:34:06.819Z</time></trkpt><trkpt lat="45.6511767" lon="11.2990433"><ele>262.3333333333333</ele><time>2026-04-17T13:34:07.819Z</time></trkpt><trkpt lat="45.6513383" lon="11.2989933"><ele>261.0</ele><time>2026-04-17T13:34:08.819Z</time></trkpt><trkpt lat="45.65152" lon="11.298925"><ele>263.3333333333333</ele><time>2026-04-17T13:34:09.819Z</time></trkpt><trkpt lat="45.6516917" lon="11.2988667"><ele>265.66666666666663</ele><time>2026-04-17T13:34:10.819Z</time></trkpt><trkpt lat="45.651855" lon="11.2987983"><ele>268.0</ele><time>2026-04-17T13:34:11.819Z</time></trkpt><trkpt lat="45.6519983" lon="11.29875"><ele>268.0</ele><time>2026-04-17T13:34:12.819Z</time></trkpt><trkpt lat="45.6521333" lon="11.2987033"><ele>268.0</ele><time>2026-04-17T13:34:13.819Z</time></trkpt><trkpt lat="45.6522483" lon="11.2986617"><ele>268.0</ele><time>2026-04-17T13:34:14.819Z</time></trkpt><trkpt lat="45.6523817" lon="11.2986483"><ele>268.0</ele><time>2026-04-17T13:34:15.819Z</time></trkpt><trkpt lat="45.6525367" lon="11.2986467"><ele>268.0</ele><time>2026-04-17T13:34:16.818Z</time></trkpt><trkpt lat="45.6526967" lon="11.2986817"><ele>268.0</ele><time>2026-04-17T13:34:17.819Z</time></trkpt><trkpt lat="45.6528683" lon="11.298735"><ele>268.0</ele><time>2026-04-17T13:34:18.819Z</time></trkpt><trkpt lat="45.65303" lon="11.2987667"><ele>268.3333333333333</ele><time>2026-04-17T13:34:19.819Z</time></trkpt><trkpt lat="45.6532117" lon="11.298815"><ele>268.6666666666667</ele><time>2026-04-17T13:34:20.819Z</time></trkpt><trkpt lat="45.6533933" lon="11.2988583"><ele>269.0</ele><time>2026-04-17T13:34:21.819Z</time></trkpt><trkpt lat="45.653585" lon="11.2989133"><ele>270.33333333333337</ele><time>2026-04-17T13:34:22.819Z</time></trkpt><trkpt lat="45.6537967" lon="11.298995"><ele>271.6666666666667</ele><time>2026-04-17T13:34:23.819Z</time></trkpt><trkpt lat="45.6539917" lon="11.2990483"><ele>273.0</ele><time>2026-04-17T13:34:24.819Z</time></trkpt><trkpt lat="45.6541983" lon="11.2990767"><ele>273.0</ele><time>2026-04-17T13:34:25.818Z</time></trkpt><trkpt lat="45.6543783" lon="11.2991283"><ele>273.0</ele><time>2026-04-17T13:34:26.819Z</time></trkpt><trkpt lat="45.6545333" lon="11.2991367"><ele>273.0</ele><time>2026-04-17T13:34:27.819Z</time></trkpt><trkpt lat="45.6546967" lon="11.29913"><ele>271.5</ele><time>2026-04-17T13:34:28.819Z</time></trkpt><trkpt lat="45.6548467" lon="11.29914"><ele>270.0</ele><time>2026-04-17T13:34:29.818Z</time></trkpt><trkpt lat="45.6549783" lon="11.2991583"><ele>268.5</ele><time>2026-04-17T13:34:30.819Z</time></trkpt><trkpt lat="45.6550967" lon="11.29918"><ele>267.0</ele><time>2026-04-17T13:34:31.819Z</time></trkpt><trkpt lat="45.6552017" lon="11.299195"><ele>267.0</ele><time>2026-04-17T13:34:32.819Z</time></trkpt><trkpt lat="45.6552867" lon="11.2992017"><ele>267.0</ele><time>2026-04-17T13:34:33.819Z</time></trkpt><trkpt lat="45.6553533" lon="11.2992083"><ele>267.0</ele><time>2026-04-17T13:34:34.819Z</time></trkpt><trkpt lat="45.6554283" lon="11.29928"><ele>267.0</ele><time>2026-04-17T13:34:36.819Z</time></trkpt><trkpt lat="45.65543" lon="11.2993917"><ele>267.0</ele><time>2026-04-17T13:34:38.819Z</time></trkpt><trkpt lat="45.6553083" lon="11.2995517"><ele>267.0</ele><time>2026-04-17T13:34:40.819Z</time></trkpt><trkpt lat="45.655215" lon="11.2996633"><ele>267.0</ele><time>2026-04-17T13:34:41.819Z</time></trkpt><trkpt lat="45.6551367" lon="11.29978"><ele>267.0</ele><time>2026-04-17T13:34:42.819Z</time></trkpt><trkpt lat="45.6550633" lon="11.29991"><ele>267.0</ele><time>2026-04-17T13:34:43.819Z</time></trkpt><trkpt lat="45.6550033" lon="11.300035"><ele>266.4</ele><time>2026-04-17T13:34:44.819Z</time></trkpt><trkpt lat="45.65496" lon="11.3001583"><ele>265.79999999999995</ele><time>2026-04-17T13:34:45.819Z</time></trkpt><trkpt lat="45.6549517" lon="11.3002867"><ele>265.2</ele><time>2026-04-17T13:34:46.819Z</time></trkpt><trkpt lat="45.6549667" lon="11.3004183"><ele>264.59999999999997</ele><time>2026-04-17T13:34:47.819Z</time></trkpt><trkpt lat="45.6550217" lon="11.3005417"><ele>264.0</ele><time>2026-04-17T13:34:48.819Z</time></trkpt><trkpt lat="45.6551067" lon="11.3006433"><ele>264.0</ele><time>2026-04-17T13:34:49.819Z</time></trkpt><trkpt lat="45.6552067" lon="11.3006917"><ele>264.0</ele><time>2026-04-17T13:34:50.819Z</time></trkpt><trkpt lat="45.655315" lon="11.3006967"><ele>264.0</ele><time>2026-04-17T13:34:51.819Z</time></trkpt><trkpt lat="45.65542" lon="11.3006567"><ele>264.0</ele><time>2026-04-17T13:34:52.819Z</time></trkpt><trkpt lat="45.6555233" lon="11.3006133"><ele>264.0</ele><time>2026-04-17T13:34:53.819Z</time></trkpt><trkpt lat="45.655615" lon="11.3006083"><ele>264.0</ele><time>2026-04-17T13:34:54.819Z</time></trkpt><trkpt lat="45.6556983" lon="11.3006383"><ele>264.0</ele><time>2026-04-17T13:34:55.819Z</time></trkpt><trkpt lat="45.6557817" lon="11.3006883"><ele>264.0</ele><time>2026-04-17T13:34:56.819Z</time></trkpt><trkpt lat="45.65586" lon="11.3007567"><ele>264.0</ele><time>2026-04-17T13:34:57.819Z</time></trkpt><trkpt lat="45.655915" lon="11.3008583"><ele>264.0</ele><time>2026-04-17T13:34:58.819Z</time></trkpt><trkpt lat="45.6559617" lon="11.30099"><ele>264.0</ele><time>2026-04-17T13:34:59.819Z</time></trkpt><trkpt lat="45.6560033" lon="11.30114"><ele>264.0</ele><time>2026-04-17T13:35:00.819Z</time></trkpt><trkpt lat="45.6560483" lon="11.3013017"><ele>264.0</ele><time>2026-04-17T13:35:01.819Z</time></trkpt><trkpt lat="45.656105" lon="11.3014783"><ele>264.0</ele><time>2026-04-17T13:35:02.819Z</time></trkpt><trkpt lat="45.6561783" lon="11.30165"><ele>267.0</ele><time>2026-04-17T13:35:03.819Z</time></trkpt><trkpt lat="45.6562617" lon="11.301825"><ele>270.0</ele><time>2026-04-17T13:35:04.819Z</time></trkpt><trkpt lat="45.6563567" lon="11.3020133"><ele>273.0</ele><time>2026-04-17T13:35:05.819Z</time></trkpt><trkpt lat="45.6564533" lon="11.302205"><ele>274.0</ele><time>2026-04-17T13:35:06.819Z</time></trkpt><trkpt lat="45.6565283" lon="11.3023867"><ele>275.0</ele><time>2026-04-17T13:35:07.818Z</time></trkpt><trkpt lat="45.656605" lon="11.3025333"><ele>276.0</ele><time>2026-04-17T13:35:08.819Z</time></trkpt><trkpt lat="45.656655" lon="11.3026967"><ele>277.0</ele><time>2026-04-17T13:35:09.819Z</time></trkpt><trkpt lat="45.6567017" lon="11.3028833"><ele>277.0</ele><time>2026-04-17T13:35:10.819Z</time></trkpt><trkpt lat="45.656735" lon="11.303065"><ele>277.0</ele><time>2026-04-17T13:35:11.818Z</time></trkpt><trkpt lat="45.656765" lon="11.30324"><ele>277.0</ele><time>2026-04-17T13:35:12.819Z</time></trkpt><trkpt lat="45.656785" lon="11.3033967"><ele>277.0</ele><time>2026-04-17T13:35:13.819Z</time></trkpt><trkpt lat="45.65681" lon="11.3035367"><ele>277.25</ele><time>2026-04-17T13:35:14.819Z</time></trkpt><trkpt lat="45.6568317" lon="11.3036767"><ele>277.5</ele><time>2026-04-17T13:35:15.819Z</time></trkpt><trkpt lat="45.6568583" lon="11.303835"><ele>277.75</ele><time>2026-04-17T13:35:16.819Z</time></trkpt><trkpt lat="45.656905" lon="11.3040117"><ele>278.0</ele><time>2026-04-17T13:35:17.819Z</time></trkpt><trkpt lat="45.6569567" lon="11.3042067"><ele>281.0</ele><time>2026-04-17T13:35:18.819Z</time></trkpt><trkpt lat="45.65697" lon="11.3044"><ele>284.0</ele><time>2026-04-17T13:35:19.819Z</time></trkpt><trkpt lat="45.6570183" lon="11.30462"><ele>287.0</ele><time>2026-04-17T13:35:20.819Z</time></trkpt><trkpt lat="45.6570483" lon="11.3048517"><ele>289.6666666666667</ele><time>2026-04-17T13:35:21.819Z</time></trkpt><trkpt lat="45.6570833" lon="11.3050683"><ele>292.3333333333333</ele><time>2026-04-17T13:35:22.819Z</time></trkpt><trkpt lat="45.6571183" lon="11.3052767"><ele>295.0</ele><time>2026-04-17T13:35:23.819Z</time></trkpt><trkpt lat="45.65716" lon="11.30549"><ele>297.0</ele><time>2026-04-17T13:35:24.819Z</time></trkpt><trkpt lat="45.6572083" lon="11.3057"><ele>299.0</ele><time>2026-04-17T13:35:25.819Z</time></trkpt><trkpt lat="45.6572533" lon="11.30592"><ele>301.0</ele><time>2026-04-17T13:35:26.819Z</time></trkpt><trkpt lat="45.6572933" lon="11.3061183"><ele>301.0</ele><time>2026-04-17T13:35:27.819Z</time></trkpt><trkpt lat="45.657325" lon="11.3062883"><ele>301.0</ele><time>2026-04-17T13:35:28.819Z</time></trkpt><trkpt lat="45.6573533" lon="11.3064467"><ele>301.0</ele><time>2026-04-17T13:35:29.819Z</time></trkpt><trkpt lat="45.65738" lon="11.3066117"><ele>301.0</ele><time>2026-04-17T13:35:30.819Z</time></trkpt><trkpt lat="45.6574083" lon="11.3067867"><ele>301.75</ele><time>2026-04-17T13:35:31.819Z</time></trkpt><trkpt lat="45.657435" lon="11.3069833"><ele>302.5</ele><time>2026-04-17T13:35:32.819Z</time></trkpt><trkpt lat="45.6574733" lon="11.3071867"><ele>303.25</ele><time>2026-04-17T13:35:33.819Z</time></trkpt><trkpt lat="45.65753" lon="11.3073967"><ele>304.0</ele><time>2026-04-17T13:35:34.819Z</time></trkpt><trkpt lat="45.6576" lon="11.3075967"><ele>304.5</ele><time>2026-04-17T13:35:35.819Z</time></trkpt><trkpt lat="45.6576833" lon="11.30777"><ele>305.0</ele><time>2026-04-17T13:35:36.819Z</time></trkpt><trkpt lat="45.65776" lon="11.3079117"><ele>305.5</ele><time>2026-04-17T13:35:37.819Z</time></trkpt><trkpt lat="45.6578367" lon="11.3080217"><ele>306.0</ele><time>2026-04-17T13:35:38.819Z</time></trkpt><trkpt lat="45.657935" lon="11.308105"><ele>309.5</ele><time>2026-04-17T13:35:39.819Z</time></trkpt><trkpt lat="45.6580533" lon="11.3081533"><ele>313.0</ele><time>2026-04-17T13:35:40.819Z</time></trkpt><trkpt lat="45.6582" lon="11.3081667"><ele>316.5</ele><time>2026-04-17T13:35:41.818Z</time></trkpt><trkpt lat="45.6583417" lon="11.3081833"><ele>320.0</ele><time>2026-04-17T13:35:42.818Z</time></trkpt><trkpt lat="45.6584833" lon="11.3081867"><ele>320.0</ele><time>2026-04-17T13:35:43.819Z</time></trkpt><trkpt lat="45.6586083" lon="11.3081933"><ele>320.0</ele><time>2026-04-17T13:35:44.819Z</time></trkpt><trkpt lat="45.6587117" lon="11.3082"><ele>320.0</ele><time>2026-04-17T13:35:45.819Z</time></trkpt><trkpt lat="45.6588017" lon="11.30819"><ele>320.0</ele><time>2026-04-17T13:35:46.819Z</time></trkpt><trkpt lat="45.6588867" lon="11.30827"><ele>320.0</ele><time>2026-04-17T13:35:48.819Z</time></trkpt><trkpt lat="45.65888" lon="11.3084183"><ele>321.5</ele><time>2026-04-17T13:35:50.819Z</time></trkpt><trkpt lat="45.6588317" lon="11.3085267"><ele>323.0</ele><time>2026-04-17T13:35:51.818Z</time></trkpt><trkpt lat="45.658765" lon="11.3086667"><ele>324.5</ele><time>2026-04-17T13:35:52.819Z</time></trkpt><trkpt lat="45.6586767" lon="11.3088267"><ele>326.0</ele><time>2026-04-17T13:35:53.819Z</time></trkpt><trkpt lat="45.6585767" lon="11.3089867"><ele>326.0</ele><time>2026-04-17T13:35:54.819Z</time></trkpt><trkpt lat="45.6584817" lon="11.3091483"><ele>326.0</ele><time>2026-04-17T13:35:55.819Z</time></trkpt><trkpt lat="45.6583917" lon="11.3093117"><ele>326.0</ele><time>2026-04-17T13:35:56.819Z</time></trkpt><trkpt lat="45.6583133" lon="11.3094783"><ele>326.0</ele><time>2026-04-17T13:35:57.819Z</time></trkpt><trkpt lat="45.6582617" lon="11.3096383"><ele>328.0</ele><time>2026-04-17T13:35:58.819Z</time></trkpt><trkpt lat="45.6582317" lon="11.3097983"><ele>330.0</ele><time>2026-04-17T13:35:59.819Z</time></trkpt><trkpt lat="45.6582183" lon="11.3099667"><ele>332.0</ele><time>2026-04-17T13:36:00.819Z</time></trkpt><trkpt lat="45.6582317" lon="11.31017"><ele>334.0</ele><time>2026-04-17T13:36:01.819Z</time></trkpt><trkpt lat="45.658265" lon="11.3103733"><ele>334.0</ele><time>2026-04-17T13:36:02.819Z</time></trkpt><trkpt lat="45.658335" lon="11.3105633"><ele>334.0</ele><time>2026-04-17T13:36:03.818Z</time></trkpt><trkpt lat="45.6584317" lon="11.3107333"><ele>334.0</ele><time>2026-04-17T13:36:04.819Z</time></trkpt><trkpt lat="45.6585517" lon="11.31089"><ele>346.66666666666663</ele><time>2026-04-17T13:36:05.819Z</time></trkpt><trkpt lat="45.65869" lon="11.3110333"><ele>359.3333333333333</ele><time>2026-04-17T13:36:06.819Z</time></trkpt><trkpt lat="45.6588317" lon="11.3111833"><ele>372.0</ele><time>2026-04-17T13:36:07.818Z</time></trkpt><trkpt lat="45.6589717" lon="11.3113333"><ele>365.3333333333333</ele><time>2026-04-17T13:36:08.819Z</time></trkpt><trkpt lat="45.6591" lon="11.3115017"><ele>358.66666666666663</ele><time>2026-04-17T13:36:09.819Z</time></trkpt><trkpt lat="45.659225" lon="11.311665"><ele>352.0</ele><time>2026-04-17T13:36:10.819Z</time></trkpt><trkpt lat="45.6593583" lon="11.3118167"><ele>365.0</ele><time>2026-04-17T13:36:11.819Z</time></trkpt><trkpt lat="45.65951" lon="11.311955"><ele>378.0</ele><time>2026-04-17T13:36:12.819Z</time></trkpt><trkpt lat="45.6596517" lon="11.3120733"><ele>391.0</ele><time>2026-04-17T13:36:13.819Z</time></trkpt><trkpt lat="45.6597783" lon="11.312175"><ele>385.0</ele><time>2026-04-17T13:36:14.819Z</time></trkpt><trkpt lat="45.6598933" lon="11.3122733"><ele>379.0</ele><time>2026-04-17T13:36:15.819Z</time></trkpt><trkpt lat="45.6599917" lon="11.312375"><ele>373.0</ele><time>2026-04-17T13:36:16.819Z</time></trkpt><trkpt lat="45.6600867" lon="11.3124817"><ele>367.0</ele><time>2026-04-17T13:36:17.819Z</time></trkpt><trkpt lat="45.66018" lon="11.312595"><ele>367.0</ele><time>2026-04-17T13:36:18.819Z</time></trkpt><trkpt lat="45.6602533" lon="11.3127317"><ele>367.0</ele><time>2026-04-17T13:36:19.819Z</time></trkpt><trkpt lat="45.6603067" lon="11.3128767"><ele>367.0</ele><time>2026-04-17T13:36:20.819Z</time></trkpt><trkpt lat="45.660335" lon="11.3130283"><ele>367.0</ele><time>2026-04-17T13:36:21.819Z</time></trkpt><trkpt lat="45.6603283" lon="11.3131667"><ele>367.0</ele><time>2026-04-17T13:36:22.819Z</time></trkpt><trkpt lat="45.6603033" lon="11.3132967"><ele>365.8</ele><time>2026-04-17T13:36:23.819Z</time></trkpt><trkpt lat="45.6602633" lon="11.313395"><ele>364.6</ele><time>2026-04-17T13:36:24.818Z</time></trkpt><trkpt lat="45.6602217" lon="11.3135283"><ele>363.40000000000003</ele><time>2026-04-17T13:36:26.819Z</time></trkpt><trkpt lat="45.6602733" lon="11.3135967"><ele>362.20000000000005</ele><time>2026-04-17T13:36:28.819Z</time></trkpt><trkpt lat="45.66037" lon="11.3134967"><ele>361.0</ele><time>2026-04-17T13:36:30.819Z</time></trkpt><trkpt lat="45.66041" lon="11.3133383"><ele>371.75</ele><time>2026-04-17T13:36:31.819Z</time></trkpt><trkpt lat="45.660445" lon="11.3131533"><ele>382.5</ele><time>2026-04-17T13:36:32.819Z</time></trkpt><trkpt lat="45.660455" lon="11.3129267"><ele>393.25</ele><time>2026-04-17T13:36:33.819Z</time></trkpt><trkpt lat="45.66044" lon="11.3127433"><ele>404.0</ele><time>2026-04-17T13:36:34.819Z</time></trkpt><trkpt lat="45.6603917" lon="11.3126067"><ele>403.99999999999994</ele><time>2026-04-17T13:36:35.819Z</time></trkpt><trkpt lat="45.6603383" lon="11.3125067"><ele>404.0</ele><time>2026-04-17T13:36:36.819Z</time></trkpt><trkpt lat="45.6602933" lon="11.3123833"><ele>404.0</ele><time>2026-04-17T13:36:38.819Z</time></trkpt><trkpt lat="45.66036" lon="11.3123483"><ele>404.0</ele><time>2026-04-17T13:36:40.819Z</time></trkpt><trkpt lat="45.66043" lon="11.3124317"><ele>403.99999999999994</ele><time>2026-04-17T13:36:41.819Z</time></trkpt><trkpt lat="45.6604883" lon="11.3125433"><ele>404.0</ele><time>2026-04-17T13:36:42.819Z</time></trkpt><trkpt lat="45.660545" lon="11.3126767"><ele>404.0</ele><time>2026-04-17T13:36:43.819Z</time></trkpt><trkpt lat="45.6606033" lon="11.3128333"><ele>404.0</ele><time>2026-04-17T13:36:44.819Z</time></trkpt><trkpt lat="45.6606517" lon="11.312995"><ele>404.0</ele><time>2026-04-17T13:36:45.819Z</time></trkpt><trkpt lat="45.6606733" lon="11.3131683"><ele>404.0</ele><time>2026-04-17T13:36:46.819Z</time></trkpt><trkpt lat="45.6606717" lon="11.3133617"><ele>404.25</ele><time>2026-04-17T13:36:47.819Z</time></trkpt><trkpt lat="45.66065" lon="11.3135833"><ele>404.5</ele><time>2026-04-17T13:36:48.819Z</time></trkpt><trkpt lat="45.6606167" lon="11.3138017"><ele>404.75</ele><time>2026-04-17T13:36:49.818Z</time></trkpt><trkpt lat="45.6605783" lon="11.3139767"><ele>405.0</ele><time>2026-04-17T13:36:50.818Z</time></trkpt><trkpt lat="45.6605633" lon="11.3141317"><ele>406.5</ele><time>2026-04-17T13:36:51.818Z</time></trkpt><trkpt lat="45.6605617" lon="11.3143"><ele>408.0</ele><time>2026-04-17T13:36:52.817Z</time></trkpt><trkpt lat="45.6605833" lon="11.314465"><ele>409.5</ele><time>2026-04-17T13:36:53.818Z</time></trkpt><trkpt lat="45.66062" lon="11.314635"><ele>411.0</ele><time>2026-04-17T13:36:54.818Z</time></trkpt><trkpt lat="45.6606667" lon="11.3147983"><ele>410.66666666666663</ele><time>2026-04-17T13:36:55.817Z</time></trkpt><trkpt lat="45.660845" lon="11.3151067"><ele>410.3333333333333</ele><time>2026-04-17T13:36:57.818Z</time></trkpt><trkpt lat="45.6609117" lon="11.315265"><ele>410.0</ele><time>2026-04-17T13:36:58.818Z</time></trkpt><trkpt lat="45.6609633" lon="11.3156183"><ele>410.0</ele><time>2026-04-17T13:37:00.818Z</time></trkpt><trkpt lat="45.66099" lon="11.3157767"><ele>410.0</ele><time>2026-04-17T13:37:01.817Z</time></trkpt><trkpt lat="45.6610217" lon="11.3159017"><ele>410.0</ele><time>2026-04-17T13:37:02.818Z</time></trkpt><trkpt lat="45.6610767" lon="11.31601"><ele>410.0</ele><time>2026-04-17T13:37:03.818Z</time></trkpt><trkpt lat="45.6611517" lon="11.3160883"><ele>410.0</ele><time>2026-04-17T13:37:04.818Z</time></trkpt><trkpt lat="45.6612467" lon="11.3161183"><ele>414.16666666666663</ele><time>2026-04-17T13:37:05.818Z</time></trkpt><trkpt lat="45.6613333" lon="11.3161067"><ele>418.3333333333333</ele><time>2026-04-17T13:37:06.817Z</time></trkpt><trkpt lat="45.6614033" lon="11.3160867"><ele>422.5</ele><time>2026-04-17T13:37:07.818Z</time></trkpt><trkpt lat="45.661475" lon="11.31602"><ele>426.66666666666663</ele><time>2026-04-17T13:37:09.818Z</time></trkpt><trkpt lat="45.6614817" lon="11.3158967"><ele>430.8333333333333</ele><time>2026-04-17T13:37:11.818Z</time></trkpt><trkpt lat="45.6614533" lon="11.3158067"><ele>435.0</ele><time>2026-04-17T13:37:12.818Z</time></trkpt><trkpt lat="45.6614067" lon="11.315685"><ele>436.0</ele><time>2026-04-17T13:37:13.818Z</time></trkpt><trkpt lat="45.6613617" lon="11.3155583"><ele>437.0</ele><time>2026-04-17T13:37:14.818Z</time></trkpt><trkpt lat="45.661335" lon="11.3154283"><ele>438.0</ele><time>2026-04-17T13:37:15.818Z</time></trkpt><trkpt lat="45.661325" lon="11.3152933"><ele>439.0</ele><time>2026-04-17T13:37:16.818Z</time></trkpt><trkpt lat="45.6613517" lon="11.3151233"><ele>440.0</ele><time>2026-04-17T13:37:17.818Z</time></trkpt><trkpt lat="45.6613867" lon="11.3149267"><ele>444.66666666666663</ele><time>2026-04-17T13:37:18.817Z</time></trkpt><trkpt lat="45.6614117" lon="11.3147117"><ele>449.33333333333337</ele><time>2026-04-17T13:37:19.818Z</time></trkpt><trkpt lat="45.6614167" lon="11.3144867"><ele>454.0</ele><time>2026-04-17T13:37:20.818Z</time></trkpt><trkpt lat="45.66141" lon="11.314265"><ele>454.0</ele><time>2026-04-17T13:37:21.818Z</time></trkpt><trkpt lat="45.661405" lon="11.3140683"><ele>454.0</ele><time>2026-04-17T13:37:22.818Z</time></trkpt><trkpt lat="45.6614" lon="11.3138917"><ele>454.0</ele><time>2026-04-17T13:37:23.818Z</time></trkpt><trkpt lat="45.6613933" lon="11.31373"><ele>454.0</ele><time>2026-04-17T13:37:24.818Z</time></trkpt><trkpt lat="45.66139" lon="11.3135633"><ele>455.0</ele><time>2026-04-17T13:37:25.818Z</time></trkpt><trkpt lat="45.6614" lon="11.3133867"><ele>456.0</ele><time>2026-04-17T13:37:26.818Z</time></trkpt><trkpt lat="45.6614233" lon="11.31321"><ele>457.0</ele><time>2026-04-17T13:37:27.818Z</time></trkpt><trkpt lat="45.6614517" lon="11.313035"><ele>458.0</ele><time>2026-04-17T13:37:28.818Z</time></trkpt><trkpt lat="45.6614967" lon="11.31285"><ele>458.0</ele><time>2026-04-17T13:37:29.818Z</time></trkpt><trkpt lat="45.6615333" lon="11.3126483"><ele>458.0</ele><time>2026-04-17T13:37:30.818Z</time></trkpt><trkpt lat="45.6615567" lon="11.31244"><ele>458.0</ele><time>2026-04-17T13:37:31.817Z</time></trkpt><trkpt lat="45.6615617" lon="11.3122383"><ele>458.0</ele><time>2026-04-17T13:37:32.818Z</time></trkpt><trkpt lat="45.6615267" lon="11.3120367"><ele>456.25</ele><time>2026-04-17T13:37:33.817Z</time></trkpt><trkpt lat="45.6614817" lon="11.3118433"><ele>454.5</ele><time>2026-04-17T13:37:34.817Z</time></trkpt><trkpt lat="45.6614317" lon="11.31166"><ele>452.75</ele><time>2026-04-17T13:37:35.817Z</time></trkpt><trkpt lat="45.6613817" lon="11.3114917"><ele>451.0</ele><time>2026-04-17T13:37:36.818Z</time></trkpt><trkpt lat="45.6613533" lon="11.3113417"><ele>449.5</ele><time>2026-04-17T13:37:37.818Z</time></trkpt><trkpt lat="45.661345" lon="11.311205"><ele>448.0</ele><time>2026-04-17T13:37:38.818Z</time></trkpt><trkpt lat="45.6613683" lon="11.3110583"><ele>446.5</ele><time>2026-04-17T13:37:39.818Z</time></trkpt><trkpt lat="45.66142" lon="11.3109"><ele>445.0</ele><time>2026-04-17T13:37:40.818Z</time></trkpt><trkpt lat="45.661485" lon="11.3107183"><ele>444.25</ele><time>2026-04-17T13:37:41.818Z</time></trkpt><trkpt lat="45.661545" lon="11.3105267"><ele>443.5</ele><time>2026-04-17T13:37:42.818Z</time></trkpt><trkpt lat="45.6616167" lon="11.3103617"><ele>442.75</ele><time>2026-04-17T13:37:43.818Z</time></trkpt><trkpt lat="45.66167" lon="11.3102167"><ele>442.0</ele><time>2026-04-17T13:37:44.818Z</time></trkpt><trkpt lat="45.66172" lon="11.3100767"><ele>442.0</ele><time>2026-04-17T13:37:45.818Z</time></trkpt><trkpt lat="45.6617733" lon="11.309925"><ele>442.0</ele><time>2026-04-17T13:37:46.818Z</time></trkpt><trkpt lat="45.6618483" lon="11.309765"><ele>442.0</ele><time>2026-04-17T13:37:47.818Z</time></trkpt><trkpt lat="45.6619283" lon="11.3096033"><ele>442.0</ele><time>2026-04-17T13:37:48.818Z</time></trkpt><trkpt lat="45.6620133" lon="11.3094367"><ele>446.25</ele><time>2026-04-17T13:37:49.818Z</time></trkpt><trkpt lat="45.662095" lon="11.3092833"><ele>450.5</ele><time>2026-04-17T13:37:50.818Z</time></trkpt><trkpt lat="45.6621717" lon="11.309155"><ele>454.75</ele><time>2026-04-17T13:37:51.818Z</time></trkpt><trkpt lat="45.6622367" lon="11.3090183"><ele>459.0</ele><time>2026-04-17T13:37:52.818Z</time></trkpt><trkpt lat="45.6622883" lon="11.30891"><ele>459.0</ele><time>2026-04-17T13:37:53.818Z</time></trkpt><trkpt lat="45.66231" lon="11.3088133"><ele>459.0</ele><time>2026-04-17T13:37:54.818Z</time></trkpt><trkpt lat="45.6622833" lon="11.3086683"><ele>459.0</ele><time>2026-04-17T13:37:56.818Z</time></trkpt><trkpt lat="45.6622267" lon="11.3085333"><ele>459.0</ele><time>2026-04-17T13:37:58.818Z</time></trkpt><trkpt lat="45.6621867" lon="11.3084467"><ele>459.0</ele><time>2026-04-17T13:37:59.818Z</time></trkpt><trkpt lat="45.6621317" lon="11.30836"><ele>459.0</ele><time>2026-04-17T13:38:00.817Z</time></trkpt><trkpt lat="45.6620767" lon="11.3082717"><ele>459.0</ele><time>2026-04-17T13:38:01.818Z</time></trkpt><trkpt lat="45.6620267" lon="11.3081933"><ele>459.0</ele><time>2026-04-17T13:38:02.818Z</time></trkpt><trkpt lat="45.6619633" lon="11.308055"><ele>459.0</ele><time>2026-04-17T13:38:04.818Z</time></trkpt><trkpt lat="45.66194" lon="11.3078767"><ele>459.0</ele><time>2026-04-17T13:38:06.818Z</time></trkpt><trkpt lat="45.66194" lon="11.3077467"><ele>459.0</ele><time>2026-04-17T13:38:07.817Z</time></trkpt><trkpt lat="45.6619583" lon="11.3075833"><ele>459.2</ele><time>2026-04-17T13:38:08.818Z</time></trkpt><trkpt lat="45.6619833" lon="11.3074167"><ele>459.4</ele><time>2026-04-17T13:38:09.818Z</time></trkpt><trkpt lat="45.6620117" lon="11.3072633"><ele>459.6</ele><time>2026-04-17T13:38:10.818Z</time></trkpt><trkpt lat="45.66204" lon="11.30712"><ele>459.8</ele><time>2026-04-17T13:38:11.818Z</time></trkpt><trkpt lat="45.66208" lon="11.30699"><ele>460.0</ele><time>2026-04-17T13:38:12.818Z</time></trkpt><trkpt lat="45.662135" lon="11.3068683"><ele>458.5</ele><time>2026-04-17T13:38:13.818Z</time></trkpt><trkpt lat="45.6622117" lon="11.3067483"><ele>457.0</ele><time>2026-04-17T13:38:14.818Z</time></trkpt><trkpt lat="45.6623" lon="11.3066333"><ele>455.5</ele><time>2026-04-17T13:38:15.818Z</time></trkpt><trkpt lat="45.662385" lon="11.306515"><ele>454.0</ele><time>2026-04-17T13:38:16.818Z</time></trkpt><trkpt lat="45.662465" lon="11.30641"><ele>454.0</ele><time>2026-04-17T13:38:17.818Z</time></trkpt><trkpt lat="45.6625383" lon="11.3063217"><ele>454.0</ele><time>2026-04-17T13:38:18.818Z</time></trkpt><trkpt lat="45.66262" lon="11.30624"><ele>454.0</ele><time>2026-04-17T13:38:19.818Z</time></trkpt><trkpt lat="45.6626933" lon="11.3061567"><ele>454.0</ele><time>2026-04-17T13:38:20.818Z</time></trkpt><trkpt lat="45.6627783" lon="11.3060733"><ele>454.0</ele><time>2026-04-17T13:38:21.818Z</time></trkpt><trkpt lat="45.66286" lon="11.3060083"><ele>456.6</ele><time>2026-04-17T13:38:22.818Z</time></trkpt><trkpt lat="45.66294" lon="11.30597"><ele>459.2</ele><time>2026-04-17T13:38:23.818Z</time></trkpt><trkpt lat="45.6630333" lon="11.3059283"><ele>461.80000000000007</ele><time>2026-04-17T13:38:24.818Z</time></trkpt><trkpt lat="45.663125" lon="11.30588"><ele>464.40000000000003</ele><time>2026-04-17T13:38:25.818Z</time></trkpt><trkpt lat="45.6632117" lon="11.305815"><ele>467.0</ele><time>2026-04-17T13:38:26.818Z</time></trkpt><trkpt lat="45.66329" lon="11.3057617"><ele>467.0</ele><time>2026-04-17T13:38:27.818Z</time></trkpt><trkpt lat="45.663355" lon="11.305755"><ele>467.00000000000006</ele><time>2026-04-17T13:38:28.818Z</time></trkpt><trkpt lat="45.6634567" lon="11.305855"><ele>467.00000000000006</ele><time>2026-04-17T13:38:30.818Z</time></trkpt><trkpt lat="45.6635017" lon="11.3059567"><ele>467.0</ele><time>2026-04-17T13:38:31.818Z</time></trkpt><trkpt lat="45.663545" lon="11.3060833"><ele>467.0</ele><time>2026-04-17T13:38:32.818Z</time></trkpt><trkpt lat="45.6636017" lon="11.30621"><ele>466.8</ele><time>2026-04-17T13:38:33.818Z</time></trkpt><trkpt lat="45.663675" lon="11.3063433"><ele>466.6</ele><time>2026-04-17T13:38:34.817Z</time></trkpt><trkpt lat="45.66375" lon="11.3064617"><ele>466.40000000000003</ele><time>2026-04-17T13:38:35.818Z</time></trkpt><trkpt lat="45.6638067" lon="11.306545"><ele>466.20000000000005</ele><time>2026-04-17T13:38:36.818Z</time></trkpt><trkpt lat="45.6638483" lon="11.3066233"><ele>466.0</ele><time>2026-04-17T13:38:37.818Z</time></trkpt><trkpt lat="45.6638733" lon="11.3067183"><ele>469.20000000000005</ele><time>2026-04-17T13:38:38.818Z</time></trkpt><trkpt lat="45.6638833" lon="11.3068417"><ele>472.40000000000003</ele><time>2026-04-17T13:38:39.818Z</time></trkpt><trkpt lat="45.6638683" lon="11.306995"><ele>475.6</ele><time>2026-04-17T13:38:40.818Z</time></trkpt><trkpt lat="45.66384" lon="11.3071633"><ele>478.8</ele><time>2026-04-17T13:38:41.818Z</time></trkpt><trkpt lat="45.6638067" lon="11.307305"><ele>482.0</ele><time>2026-04-17T13:38:42.818Z</time></trkpt><trkpt lat="45.6637917" lon="11.3074217"><ele>486.3333333333333</ele><time>2026-04-17T13:38:43.818Z</time></trkpt><trkpt lat="45.6637867" lon="11.3075133"><ele>490.66666666666663</ele><time>2026-04-17T13:38:44.818Z</time></trkpt><trkpt lat="45.6638433" lon="11.3076767"><ele>495.0</ele><time>2026-04-17T13:38:46.818Z</time></trkpt><trkpt lat="45.663905" lon="11.3077667"><ele>499.33333333333337</ele><time>2026-04-17T13:38:47.818Z</time></trkpt><trkpt lat="45.6639783" lon="11.307825"><ele>503.6666666666667</ele><time>2026-04-17T13:38:48.818Z</time></trkpt><trkpt lat="45.6640533" lon="11.3078367"><ele>508.0</ele><time>2026-04-17T13:38:49.818Z</time></trkpt><trkpt lat="45.6641267" lon="11.30782"><ele>508.0</ele><time>2026-04-17T13:38:50.818Z</time></trkpt><trkpt lat="45.6641967" lon="11.3077517"><ele>507.99999999999994</ele><time>2026-04-17T13:38:51.818Z</time></trkpt><trkpt lat="45.66428" lon="11.3076967"><ele>507.99999999999994</ele><time>2026-04-17T13:38:52.818Z</time></trkpt><trkpt lat="45.6643783" lon="11.307655"><ele>508.0</ele><time>2026-04-17T13:38:53.818Z</time></trkpt><trkpt lat="45.6644817" lon="11.307655"><ele>508.0</ele><time>2026-04-17T13:38:54.818Z</time></trkpt><trkpt lat="45.6645683" lon="11.3076817"><ele>508.59999999999997</ele><time>2026-04-17T13:38:55.818Z</time></trkpt><trkpt lat="45.6646433" lon="11.3077317"><ele>509.19999999999993</ele><time>2026-04-17T13:38:56.818Z</time></trkpt><trkpt lat="45.664715" lon="11.30785"><ele>509.8</ele><time>2026-04-17T13:38:58.818Z</time></trkpt><trkpt lat="45.6646817" lon="11.3079733"><ele>510.4</ele><time>2026-04-17T13:39:00.818Z</time></trkpt><trkpt lat="45.6646183" lon="11.308035"><ele>511.0</ele><time>2026-04-17T13:39:01.818Z</time></trkpt><trkpt lat="45.6645433" lon="11.308105"><ele>513.25</ele><time>2026-04-17T13:39:02.817Z</time></trkpt><trkpt lat="45.6644717" lon="11.308195"><ele>515.5</ele><time>2026-04-17T13:39:03.818Z</time></trkpt><trkpt lat="45.6644183" lon="11.3083283"><ele>517.75</ele><time>2026-04-17T13:39:04.817Z</time></trkpt><trkpt lat="45.6643983" lon="11.3085"><ele>520.0</ele><time>2026-04-17T13:39:05.818Z</time></trkpt><trkpt lat="45.66439" lon="11.3086833"><ele>520.0</ele><time>2026-04-17T13:39:06.818Z</time></trkpt><trkpt lat="45.6643767" lon="11.30884"><ele>520.0</ele><time>2026-04-17T13:39:07.818Z</time></trkpt><trkpt lat="45.66437" lon="11.3089717"><ele>520.0</ele><time>2026-04-17T13:39:08.818Z</time></trkpt><trkpt lat="45.6643633" lon="11.3090767"><ele>520.0</ele><time>2026-04-17T13:39:09.818Z</time></trkpt><trkpt lat="45.6643767" lon="11.3091667"><ele>520.0</ele><time>2026-04-17T13:39:10.818Z</time></trkpt><trkpt lat="45.6644133" lon="11.30925"><ele>520.0</ele><time>2026-04-17T13:39:12.818Z</time></trkpt><trkpt lat="45.6644767" lon="11.3091717"><ele>523.1666666666667</ele><time>2026-04-17T13:39:14.818Z</time></trkpt><trkpt lat="45.664505" lon="11.3090517"><ele>526.3333333333334</ele><time>2026-04-17T13:39:15.818Z</time></trkpt><trkpt lat="45.6645567" lon="11.3089533"><ele>529.5</ele><time>2026-04-17T13:39:16.818Z</time></trkpt><trkpt lat="45.6646233" lon="11.3088933"><ele>532.6666666666666</ele><time>2026-04-17T13:39:17.818Z</time></trkpt><trkpt lat="45.66469" lon="11.3088933"><ele>535.8333333333333</ele><time>2026-04-17T13:39:18.818Z</time></trkpt><trkpt lat="45.6647483" lon="11.3089567"><ele>539.0</ele><time>2026-04-17T13:39:19.818Z</time></trkpt><trkpt lat="45.6648033" lon="11.3090733"><ele>542.4</ele><time>2026-04-17T13:39:20.818Z</time></trkpt><trkpt lat="45.6648483" lon="11.309245"><ele>545.8</ele><time>2026-04-17T13:39:21.818Z</time></trkpt><trkpt lat="45.6648583" lon="11.3094183"><ele>549.2</ele><time>2026-04-17T13:39:22.818Z</time></trkpt><trkpt lat="45.6648383" lon="11.3095783"><ele>552.6</ele><time>2026-04-17T13:39:23.818Z</time></trkpt><trkpt lat="45.6648183" lon="11.3096967"><ele>556.0</ele><time>2026-04-17T13:39:24.818Z</time></trkpt><trkpt lat="45.664805" lon="11.3098333"><ele>557.0</ele><time>2026-04-17T13:39:26.818Z</time></trkpt><trkpt lat="45.6647933" lon="11.3099817"><ele>558.0</ele><time>2026-04-17T13:39:28.818Z</time></trkpt><trkpt lat="45.6647917" lon="11.31008"><ele>559.0</ele><time>2026-04-17T13:39:29.818Z</time></trkpt><trkpt lat="45.6647817" lon="11.3101717"><ele>560.0</ele><time>2026-04-17T13:39:30.818Z</time></trkpt><trkpt lat="45.66474" lon="11.3102817"><ele>561.0</ele><time>2026-04-17T13:39:31.817Z</time></trkpt><trkpt lat="45.6646783" lon="11.310405"><ele>562.0</ele><time>2026-04-17T13:39:32.818Z</time></trkpt><trkpt lat="45.66461" lon="11.3105483"><ele>564.75</ele><time>2026-04-17T13:39:33.817Z</time></trkpt><trkpt lat="45.6645517" lon="11.3106967"><ele>567.5</ele><time>2026-04-17T13:39:34.817Z</time></trkpt><trkpt lat="45.6645183" lon="11.3108483"><ele>570.25</ele><time>2026-04-17T13:39:35.816Z</time></trkpt><trkpt lat="45.664485" lon="11.310995"><ele>573.0</ele><time>2026-04-17T13:39:36.817Z</time></trkpt><trkpt lat="45.66444" lon="11.31117"><ele>571.8</ele><time>2026-04-17T13:39:37.817Z</time></trkpt><trkpt lat="45.66439" lon="11.3113367"><ele>570.5999999999999</ele><time>2026-04-17T13:39:38.817Z</time></trkpt><trkpt lat="45.6643383" lon="11.311475"><ele>569.4000000000001</ele><time>2026-04-17T13:39:39.817Z</time></trkpt><trkpt lat="45.6643033" lon="11.3116033"><ele>568.2</ele><time>2026-04-17T13:39:40.817Z</time></trkpt><trkpt lat="45.6643" lon="11.31174"><ele>567.0</ele><time>2026-04-17T13:39:41.817Z</time></trkpt><trkpt lat="45.6642917" lon="11.3118733"><ele>567.0</ele><time>2026-04-17T13:39:42.817Z</time></trkpt><trkpt lat="45.6642667" lon="11.3119917"><ele>567.0</ele><time>2026-04-17T13:39:43.817Z</time></trkpt><trkpt lat="45.6642367" lon="11.3120817"><ele>567.0</ele><time>2026-04-17T13:39:44.817Z</time></trkpt><trkpt lat="45.6642317" lon="11.3121983"><ele>567.0</ele><time>2026-04-17T13:39:46.817Z</time></trkpt><trkpt lat="45.6643083" lon="11.3122567"><ele>567.0</ele><time>2026-04-17T13:39:48.817Z</time></trkpt><trkpt lat="45.6643817" lon="11.3122667"><ele>567.0</ele><time>2026-04-17T13:39:49.817Z</time></trkpt><trkpt lat="45.664475" lon="11.3122567"><ele>570.2</ele><time>2026-04-17T13:39:50.817Z</time></trkpt><trkpt lat="45.6645967" lon="11.3122317"><ele>573.4000000000001</ele><time>2026-04-17T13:39:51.817Z</time></trkpt><trkpt lat="45.664705" lon="11.312195"><ele>576.5999999999999</ele><time>2026-04-17T13:39:52.817Z</time></trkpt><trkpt lat="45.66479" lon="11.3121683"><ele>579.8</ele><time>2026-04-17T13:39:53.817Z</time></trkpt><trkpt lat="45.6648667" lon="11.3121567"><ele>583.0</ele><time>2026-04-17T13:39:54.817Z</time></trkpt><trkpt lat="45.66496" lon="11.3122533"><ele>586.0</ele><time>2026-04-17T13:39:56.817Z</time></trkpt><trkpt lat="45.6649367" lon="11.3124633"><ele>589.0</ele><time>2026-04-17T13:39:58.817Z</time></trkpt><trkpt lat="45.66487" lon="11.3125917"><ele>592.0</ele><time>2026-04-17T13:39:59.817Z</time></trkpt><trkpt lat="45.6648117" lon="11.3127"><ele>595.0</ele><time>2026-04-17T13:40:00.817Z</time></trkpt><trkpt lat="45.6647983" lon="11.312855"><ele>595.0</ele><time>2026-04-17T13:40:02.817Z</time></trkpt><trkpt lat="45.66485" lon="11.3129233"><ele>595.0</ele><time>2026-04-17T13:40:03.817Z</time></trkpt><trkpt lat="45.6649417" lon="11.31298"><ele>595.0</ele><time>2026-04-17T13:40:04.817Z</time></trkpt><trkpt lat="45.6650417" lon="11.3130533"><ele>595.0</ele><time>2026-04-17T13:40:05.817Z</time></trkpt><trkpt lat="45.665115" lon="11.3131583"><ele>595.0</ele><time>2026-04-17T13:40:06.816Z</time></trkpt><trkpt lat="45.665155" lon="11.3132867"><ele>595.4</ele><time>2026-04-17T13:40:07.817Z</time></trkpt><trkpt lat="45.6651683" lon="11.3134333"><ele>595.8</ele><time>2026-04-17T13:40:08.817Z</time></trkpt><trkpt lat="45.6651717" lon="11.3135833"><ele>596.2</ele><time>2026-04-17T13:40:09.817Z</time></trkpt><trkpt lat="45.66517" lon="11.3137467"><ele>596.6</ele><time>2026-04-17T13:40:10.817Z</time></trkpt><trkpt lat="45.6651733" lon="11.313895"><ele>597.0</ele><time>2026-04-17T13:40:11.817Z</time></trkpt><trkpt lat="45.6651917" lon="11.3140367"><ele>597.0</ele><time>2026-04-17T13:40:12.817Z</time></trkpt><trkpt lat="45.6652233" lon="11.3141667"><ele>597.0</ele><time>2026-04-17T13:40:13.817Z</time></trkpt><trkpt lat="45.6652667" lon="11.3143067"><ele>597.0</ele><time>2026-04-17T13:40:14.817Z</time></trkpt><trkpt lat="45.6653233" lon="11.314435"><ele>597.0</ele><time>2026-04-17T13:40:15.816Z</time></trkpt><trkpt lat="45.66539" lon="11.3145733"><ele>597.0</ele><time>2026-04-17T13:40:16.817Z</time></trkpt><trkpt lat="45.665475" lon="11.3147217"><ele>599.6666666666666</ele><time>2026-04-17T13:40:17.817Z</time></trkpt><trkpt lat="45.66558" lon="11.31489"><ele>602.3333333333333</ele><time>2026-04-17T13:40:18.817Z</time></trkpt><trkpt lat="45.6656833" lon="11.3150667"><ele>605.0</ele><time>2026-04-17T13:40:19.817Z</time></trkpt><trkpt lat="45.66577" lon="11.3152583"><ele>605.0</ele><time>2026-04-17T13:40:20.816Z</time></trkpt><trkpt lat="45.6658467" lon="11.3154517"><ele>605.0</ele><time>2026-04-17T13:40:21.817Z</time></trkpt><trkpt lat="45.66591" lon="11.3156183"><ele>605.0</ele><time>2026-04-17T13:40:22.816Z</time></trkpt><trkpt lat="45.665985" lon="11.3157633"><ele>605.0</ele><time>2026-04-17T13:40:23.817Z</time></trkpt><trkpt lat="45.6660683" lon="11.3158933"><ele>607.5</ele><time>2026-04-17T13:40:24.817Z</time></trkpt><trkpt lat="45.6661667" lon="11.3160333"><ele>610.0</ele><time>2026-04-17T13:40:25.817Z</time></trkpt><trkpt lat="45.6662583" lon="11.3161783"><ele>612.5</ele><time>2026-04-17T13:40:26.817Z</time></trkpt><trkpt lat="45.666345" lon="11.3163367"><ele>615.0</ele><time>2026-04-17T13:40:27.817Z</time></trkpt><trkpt lat="45.6664267" lon="11.3164883"><ele>615.0</ele><time>2026-04-17T13:40:28.817Z</time></trkpt><trkpt lat="45.6664933" lon="11.31662"><ele>615.0</ele><time>2026-04-17T13:40:29.817Z</time></trkpt><trkpt lat="45.66655" lon="11.31673"><ele>615.0</ele><time>2026-04-17T13:40:30.817Z</time></trkpt><trkpt lat="45.666615" lon="11.31683"><ele>615.0</ele><time>2026-04-17T13:40:31.817Z</time></trkpt><trkpt lat="45.666675" lon="11.3169217"><ele>615.0</ele><time>2026-04-17T13:40:32.817Z</time></trkpt><trkpt lat="45.666745" lon="11.317005"><ele>615.0</ele><time>2026-04-17T13:40:33.817Z</time></trkpt><trkpt lat="45.666825" lon="11.3170617"><ele>615.0</ele><time>2026-04-17T13:40:34.817Z</time></trkpt><trkpt lat="45.6669167" lon="11.3170933"><ele>615.0</ele><time>2026-04-17T13:40:35.817Z</time></trkpt><trkpt lat="45.667025" lon="11.317125"><ele>615.0</ele><time>2026-04-17T13:40:36.817Z</time></trkpt><trkpt lat="45.66713" lon="11.317195"><ele>615.0</ele><time>2026-04-17T13:40:37.817Z</time></trkpt><trkpt lat="45.6672317" lon="11.317295"><ele>614.2</ele><time>2026-04-17T13:40:38.817Z</time></trkpt><trkpt lat="45.6673233" lon="11.3174033"><ele>613.4</ele><time>2026-04-17T13:40:39.817Z</time></trkpt><trkpt lat="45.667405" lon="11.3174983"><ele>612.6</ele><time>2026-04-17T13:40:40.817Z</time></trkpt><trkpt lat="45.6674833" lon="11.31756"><ele>611.8</ele><time>2026-04-17T13:40:41.817Z</time></trkpt><trkpt lat="45.6675883" lon="11.3175933"><ele>611.0</ele><time>2026-04-17T13:40:42.817Z</time></trkpt><trkpt lat="45.6677083" lon="11.31759"><ele>612.5</ele><time>2026-04-17T13:40:43.817Z</time></trkpt><trkpt lat="45.66784" lon="11.3175717"><ele>614.0</ele><time>2026-04-17T13:40:44.817Z</time></trkpt><trkpt lat="45.667995" lon="11.3175517"><ele>615.5</ele><time>2026-04-17T13:40:45.817Z</time></trkpt><trkpt lat="45.66813" lon="11.3175333"><ele>617.0</ele><time>2026-04-17T13:40:46.817Z</time></trkpt><trkpt lat="45.6682683" lon="11.3175267"><ele>617.0</ele><time>2026-04-17T13:40:47.817Z</time></trkpt><trkpt lat="45.668385" lon="11.3175533"><ele>617.0</ele><time>2026-04-17T13:40:48.817Z</time></trkpt><trkpt lat="45.6684833" lon="11.3175817"><ele>617.0</ele><time>2026-04-17T13:40:49.817Z</time></trkpt><trkpt lat="45.6685917" lon="11.31759"><ele>617.0</ele><time>2026-04-17T13:40:50.817Z</time></trkpt><trkpt lat="45.6686967" lon="11.3175683"><ele>617.0</ele><time>2026-04-17T13:40:51.817Z</time></trkpt><trkpt lat="45.6688217" lon="11.3175133"><ele>616.6666666666666</ele><time>2026-04-17T13:40:52.817Z</time></trkpt><trkpt lat="45.6689683" lon="11.3174483"><ele>616.3333333333334</ele><time>2026-04-17T13:40:53.817Z</time></trkpt><trkpt lat="45.6691133" lon="11.3174033"><ele>616.0</ele><time>2026-04-17T13:40:54.817Z</time></trkpt><trkpt lat="45.66927" lon="11.3173817"><ele>616.0</ele><time>2026-04-17T13:40:55.817Z</time></trkpt><trkpt lat="45.6694233" lon="11.3173517"><ele>616.0</ele><time>2026-04-17T13:40:56.817Z</time></trkpt><trkpt lat="45.6695683" lon="11.3173167"><ele>616.0</ele><time>2026-04-17T13:40:57.817Z</time></trkpt><trkpt lat="45.6697317" lon="11.31727"><ele>617.75</ele><time>2026-04-17T13:40:58.817Z</time></trkpt><trkpt lat="45.6698967" lon="11.317245"><ele>619.5</ele><time>2026-04-17T13:40:59.817Z</time></trkpt><trkpt lat="45.6700467" lon="11.3172417"><ele>621.25</ele><time>2026-04-17T13:41:00.817Z</time></trkpt><trkpt lat="45.670175" lon="11.3172467"><ele>623.0</ele><time>2026-04-17T13:41:01.817Z</time></trkpt><trkpt lat="45.6702983" lon="11.3172567"><ele>625.5</ele><time>2026-04-17T13:41:02.817Z</time></trkpt><trkpt lat="45.6704117" lon="11.31731"><ele>628.0</ele><time>2026-04-17T13:41:03.817Z</time></trkpt><trkpt lat="45.6705217" lon="11.3174017"><ele>630.5</ele><time>2026-04-17T13:41:04.817Z</time></trkpt><trkpt lat="45.6706317" lon="11.3175133"><ele>633.0</ele><time>2026-04-17T13:41:05.817Z</time></trkpt><trkpt lat="45.6707183" lon="11.3176333"><ele>633.0</ele><time>2026-04-17T13:41:06.817Z</time></trkpt><trkpt lat="45.6707833" lon="11.3177817"><ele>633.0</ele><time>2026-04-17T13:41:07.817Z</time></trkpt><trkpt lat="45.6708283" lon="11.317965"><ele>633.0</ele><time>2026-04-17T13:41:08.816Z</time></trkpt><trkpt lat="45.6708567" lon="11.318185"><ele>633.0</ele><time>2026-04-17T13:41:09.817Z</time></trkpt><trkpt lat="45.6708633" lon="11.3184033"><ele>633.1999999999999</ele><time>2026-04-17T13:41:10.817Z</time></trkpt><trkpt lat="45.670865" lon="11.318585"><ele>633.4</ele><time>2026-04-17T13:41:11.817Z</time></trkpt><trkpt lat="45.6708717" lon="11.3187333"><ele>633.5999999999999</ele><time>2026-04-17T13:41:12.817Z</time></trkpt><trkpt lat="45.6708967" lon="11.3188617"><ele>633.8</ele><time>2026-04-17T13:41:13.816Z</time></trkpt><trkpt lat="45.6709533" lon="11.3189717"><ele>634.0</ele><time>2026-04-17T13:41:14.817Z</time></trkpt><trkpt lat="45.6710417" lon="11.3191"><ele>637.5</ele><time>2026-04-17T13:41:15.817Z</time></trkpt><trkpt lat="45.6711383" lon="11.3192317"><ele>641.0</ele><time>2026-04-17T13:41:16.817Z</time></trkpt><trkpt lat="45.6712383" lon="11.3193767"><ele>644.5</ele><time>2026-04-17T13:41:17.817Z</time></trkpt><trkpt lat="45.6713417" lon="11.3194817"><ele>648.0</ele><time>2026-04-17T13:41:18.817Z</time></trkpt><trkpt lat="45.671435" lon="11.3195633"><ele>648.0</ele><time>2026-04-17T13:41:19.817Z</time></trkpt><trkpt lat="45.671535" lon="11.3196333"><ele>648.0</ele><time>2026-04-17T13:41:20.817Z</time></trkpt><trkpt lat="45.6716133" lon="11.3197117"><ele>648.0</ele><time>2026-04-17T13:41:21.816Z</time></trkpt><trkpt lat="45.67166" lon="11.31981"><ele>648.0</ele><time>2026-04-17T13:41:22.817Z</time></trkpt><trkpt lat="45.6716733" lon="11.3199133"><ele>648.0</ele><time>2026-04-17T13:41:23.817Z</time></trkpt><trkpt lat="45.6716633" lon="11.320025"><ele>648.0</ele><time>2026-04-17T13:41:24.817Z</time></trkpt><trkpt lat="45.6716117" lon="11.3201483"><ele>648.2</ele><time>2026-04-17T13:41:25.816Z</time></trkpt><trkpt lat="45.6715267" lon="11.32026"><ele>648.4</ele><time>2026-04-17T13:41:26.817Z</time></trkpt><trkpt lat="45.6714517" lon="11.3203717"><ele>648.6</ele><time>2026-04-17T13:41:27.817Z</time></trkpt><trkpt lat="45.6714033" lon="11.3205"><ele>648.8000000000001</ele><time>2026-04-17T13:41:28.816Z</time></trkpt><trkpt lat="45.6713783" lon="11.3206483"><ele>649.0</ele><time>2026-04-17T13:41:29.817Z</time></trkpt><trkpt lat="45.6713533" lon="11.3208317"><ele>650.6</ele><time>2026-04-17T13:41:30.817Z</time></trkpt><trkpt lat="45.6713183" lon="11.3210083"><ele>652.2</ele><time>2026-04-17T13:41:31.817Z</time></trkpt><trkpt lat="45.6712717" lon="11.3211533"><ele>653.8000000000001</ele><time>2026-04-17T13:41:32.817Z</time></trkpt><trkpt lat="45.671235" lon="11.3212867"><ele>655.4000000000001</ele><time>2026-04-17T13:41:33.817Z</time></trkpt><trkpt lat="45.6712417" lon="11.3214033"><ele>657.0</ele><time>2026-04-17T13:41:34.817Z</time></trkpt><trkpt lat="45.6712633" lon="11.3215033"><ele>657.6</ele><time>2026-04-17T13:41:35.817Z</time></trkpt><trkpt lat="45.6712883" lon="11.3216617"><ele>658.2</ele><time>2026-04-17T13:41:37.817Z</time></trkpt><trkpt lat="45.6712633" lon="11.3217617"><ele>658.8</ele><time>2026-04-17T13:41:38.817Z</time></trkpt><trkpt lat="45.6712233" lon="11.3218833"><ele>659.4</ele><time>2026-04-17T13:41:39.817Z</time></trkpt><trkpt lat="45.67116" lon="11.3220383"><ele>660.0</ele><time>2026-04-17T13:41:40.817Z</time></trkpt><trkpt lat="45.671095" lon="11.3222067"><ele>653.75</ele><time>2026-04-17T13:41:41.817Z</time></trkpt><trkpt lat="45.671035" lon="11.322375"><ele>647.5</ele><time>2026-04-17T13:41:42.816Z</time></trkpt><trkpt lat="45.670985" lon="11.322535"><ele>641.25</ele><time>2026-04-17T13:41:43.817Z</time></trkpt><trkpt lat="45.6709533" lon="11.3227083"><ele>635.0</ele><time>2026-04-17T13:41:44.817Z</time></trkpt><trkpt lat="45.6709283" lon="11.3228967"><ele>635.25</ele><time>2026-04-17T13:41:45.816Z</time></trkpt><trkpt lat="45.6709" lon="11.3230767"><ele>635.5</ele><time>2026-04-17T13:41:46.817Z</time></trkpt><trkpt lat="45.6708633" lon="11.3232533"><ele>635.75</ele><time>2026-04-17T13:41:47.817Z</time></trkpt><trkpt lat="45.6708133" lon="11.32342"><ele>636.0</ele><time>2026-04-17T13:41:48.817Z</time></trkpt><trkpt lat="45.6707567" lon="11.3235717"><ele>636.0</ele><time>2026-04-17T13:41:49.817Z</time></trkpt><trkpt lat="45.6707017" lon="11.32373"><ele>636.0</ele><time>2026-04-17T13:41:50.817Z</time></trkpt><trkpt lat="45.6706483" lon="11.3238833"><ele>636.0</ele><time>2026-04-17T13:41:51.817Z</time></trkpt><trkpt lat="45.6706383" lon="11.32406"><ele>636.0</ele><time>2026-04-17T13:41:52.817Z</time></trkpt><trkpt lat="45.6706267" lon="11.324225"><ele>637.0</ele><time>2026-04-17T13:41:53.817Z</time></trkpt><trkpt lat="45.6706167" lon="11.32438"><ele>638.0</ele><time>2026-04-17T13:41:54.817Z</time></trkpt><trkpt lat="45.6705983" lon="11.3245067"><ele>639.0</ele><time>2026-04-17T13:41:55.817Z</time></trkpt><trkpt lat="45.67057" lon="11.3246133"><ele>640.0</ele><time>2026-04-17T13:41:56.817Z</time></trkpt><trkpt lat="45.670535" lon="11.3247283"><ele>641.0</ele><time>2026-04-17T13:41:57.817Z</time></trkpt><trkpt lat="45.670505" lon="11.3248683"><ele>639.1999999999999</ele><time>2026-04-17T13:41:58.817Z</time></trkpt><trkpt lat="45.670465" lon="11.325"><ele>637.4</ele><time>2026-04-17T13:41:59.817Z</time></trkpt><trkpt lat="45.670405" lon="11.325105"><ele>635.6</ele><time>2026-04-17T13:42:00.817Z</time></trkpt><trkpt lat="45.67034" lon="11.3251717"><ele>633.8</ele><time>2026-04-17T13:42:01.817Z</time></trkpt><trkpt lat="45.670285" lon="11.3252183"><ele>632.0</ele><time>2026-04-17T13:42:02.817Z</time></trkpt><trkpt lat="45.67025" lon="11.325395"><ele>635.1666666666666</ele><time>2026-04-17T13:42:04.817Z</time></trkpt><trkpt lat="45.6702833" lon="11.3255067"><ele>638.3333333333333</ele><time>2026-04-17T13:42:05.816Z</time></trkpt><trkpt lat="45.6703317" lon="11.3256367"><ele>641.5</ele><time>2026-04-17T13:42:06.817Z</time></trkpt><trkpt lat="45.6703567" lon="11.32577"><ele>644.6666666666666</ele><time>2026-04-17T13:42:07.817Z</time></trkpt><trkpt lat="45.6703767" lon="11.3258967"><ele>647.8333333333334</ele><time>2026-04-17T13:42:08.817Z</time></trkpt><trkpt lat="45.67039" lon="11.326"><ele>651.0</ele><time>2026-04-17T13:42:09.817Z</time></trkpt><trkpt lat="45.6704233" lon="11.3261633"><ele>650.0</ele><time>2026-04-17T13:42:11.817Z</time></trkpt><trkpt lat="45.6705" lon="11.3262967"><ele>649.0</ele><time>2026-04-17T13:42:13.817Z</time></trkpt><trkpt lat="45.6705667" lon="11.3263617"><ele>648.0</ele><time>2026-04-17T13:42:14.817Z</time></trkpt><trkpt lat="45.670655" lon="11.3264133"><ele>647.0</ele><time>2026-04-17T13:42:15.817Z</time></trkpt><trkpt lat="45.67074" lon="11.3264883"><ele>646.0</ele><time>2026-04-17T13:42:16.817Z</time></trkpt><trkpt lat="45.670815" lon="11.32658"><ele>646.0</ele><time>2026-04-17T13:42:17.816Z</time></trkpt><trkpt lat="45.6708883" lon="11.326685"><ele>646.0</ele><time>2026-04-17T13:42:18.817Z</time></trkpt><trkpt lat="45.670945" lon="11.3267917"><ele>646.0</ele><time>2026-04-17T13:42:19.817Z</time></trkpt><trkpt lat="45.6709983" lon="11.326905"><ele>646.0</ele><time>2026-04-17T13:42:20.816Z</time></trkpt><trkpt lat="45.6710417" lon="11.3270383"><ele>646.0</ele><time>2026-04-17T13:42:21.815Z</time></trkpt><trkpt lat="45.6711133" lon="11.3271767"><ele>646.0</ele><time>2026-04-17T13:42:22.816Z</time></trkpt><trkpt lat="45.671215" lon="11.32731"><ele>646.0</ele><time>2026-04-17T13:42:23.816Z</time></trkpt><trkpt lat="45.6713217" lon="11.3274317"><ele>646.0</ele><time>2026-04-17T13:42:24.816Z</time></trkpt><trkpt lat="45.6714183" lon="11.3275717"><ele>646.0</ele><time>2026-04-17T13:42:25.816Z</time></trkpt><trkpt lat="45.6715133" lon="11.3277117"><ele>646.0</ele><time>2026-04-17T13:42:26.816Z</time></trkpt><trkpt lat="45.6716067" lon="11.3278433"><ele>646.0</ele><time>2026-04-17T13:42:27.816Z</time></trkpt><trkpt lat="45.67169" lon="11.3279467"><ele>646.0</ele><time>2026-04-17T13:42:28.816Z</time></trkpt><trkpt lat="45.6717933" lon="11.3280167"><ele>646.0</ele><time>2026-04-17T13:42:29.816Z</time></trkpt><trkpt lat="45.6719183" lon="11.328065"><ele>642.5</ele><time>2026-04-17T13:42:30.816Z</time></trkpt><trkpt lat="45.6720333" lon="11.3280917"><ele>639.0</ele><time>2026-04-17T13:42:31.816Z</time></trkpt><trkpt lat="45.6721483" lon="11.3281083"><ele>635.5</ele><time>2026-04-17T13:42:32.816Z</time></trkpt><trkpt lat="45.67226" lon="11.3281"><ele>632.0</ele><time>2026-04-17T13:42:33.816Z</time></trkpt><trkpt lat="45.6723817" lon="11.32806"><ele>633.25</ele><time>2026-04-17T13:42:34.816Z</time></trkpt><trkpt lat="45.6725067" lon="11.3279867"><ele>634.5</ele><time>2026-04-17T13:42:35.816Z</time></trkpt><trkpt lat="45.6726417" lon="11.3279117"><ele>635.75</ele><time>2026-04-17T13:42:36.816Z</time></trkpt><trkpt lat="45.6727733" lon="11.3278483"><ele>637.0</ele><time>2026-04-17T13:42:37.816Z</time></trkpt><trkpt lat="45.672895" lon="11.3278333"><ele>637.0</ele><time>2026-04-17T13:42:38.816Z</time></trkpt><trkpt lat="45.6730017" lon="11.327865"><ele>637.0</ele><time>2026-04-17T13:42:39.816Z</time></trkpt><trkpt lat="45.67309" lon="11.3279283"><ele>637.0</ele><time>2026-04-17T13:42:40.816Z</time></trkpt><trkpt lat="45.67316" lon="11.328015"><ele>637.0</ele><time>2026-04-17T13:42:41.816Z</time></trkpt><trkpt lat="45.6732117" lon="11.3281017"><ele>637.0</ele><time>2026-04-17T13:42:42.815Z</time></trkpt><trkpt lat="45.6732633" lon="11.3281817"><ele>637.0</ele><time>2026-04-17T13:42:43.816Z</time></trkpt><trkpt lat="45.6733667" lon="11.3282433"><ele>637.0</ele><time>2026-04-17T13:42:45.815Z</time></trkpt><trkpt lat="45.6734717" lon="11.3281717"><ele>637.0</ele><time>2026-04-17T13:42:47.815Z</time></trkpt><trkpt lat="45.6735117" lon="11.3280833"><ele>637.0</ele><time>2026-04-17T13:42:48.816Z</time></trkpt><trkpt lat="45.6735283" lon="11.3279533"><ele>637.0</ele><time>2026-04-17T13:42:50.816Z</time></trkpt><trkpt lat="45.67353" lon="11.32781"><ele>637.0</ele><time>2026-04-17T13:43:07.816Z</time></trkpt><trkpt lat="45.6735283" lon="11.3277133"><ele>637.0</ele><time>2026-04-17T13:43:08.816Z</time></trkpt><trkpt lat="45.6735117" lon="11.3275833"><ele>637.0</ele><time>2026-04-17T13:43:09.815Z</time></trkpt><trkpt lat="45.67349" lon="11.327455"><ele>637.0</ele><time>2026-04-17T13:43:10.816Z</time></trkpt><trkpt lat="45.6734817" lon="11.3273133"><ele>637.0</ele><time>2026-04-17T13:43:11.816Z</time></trkpt><trkpt lat="45.67349" lon="11.3271733"><ele>641.0</ele><time>2026-04-17T13:43:12.816Z</time></trkpt><trkpt lat="45.6734967" lon="11.327015"><ele>645.0</ele><time>2026-04-17T13:43:13.816Z</time></trkpt><trkpt lat="45.6735133" lon="11.326865"><ele>649.0</ele><time>2026-04-17T13:43:14.816Z</time></trkpt><trkpt lat="45.67355" lon="11.3267067"><ele>653.0</ele><time>2026-04-17T13:43:15.816Z</time></trkpt><trkpt lat="45.6736017" lon="11.3265467"><ele>647.25</ele><time>2026-04-17T13:43:16.816Z</time></trkpt><trkpt lat="45.67367" lon="11.3263867"><ele>641.5</ele><time>2026-04-17T13:43:17.816Z</time></trkpt><trkpt lat="45.6737483" lon="11.3262133"><ele>635.75</ele><time>2026-04-17T13:43:18.816Z</time></trkpt><trkpt lat="45.6738217" lon="11.326025"><ele>630.0</ele><time>2026-04-17T13:43:19.816Z</time></trkpt><trkpt lat="45.67389" lon="11.32581"><ele>630.0</ele><time>2026-04-17T13:43:20.816Z</time></trkpt><trkpt lat="45.6739533" lon="11.3256067"><ele>630.0</ele><time>2026-04-17T13:43:21.815Z</time></trkpt><trkpt lat="45.67403" lon="11.325445"><ele>630.0</ele><time>2026-04-17T13:43:22.816Z</time></trkpt><trkpt lat="45.6741267" lon="11.3253317"><ele>630.0</ele><time>2026-04-17T13:43:23.816Z</time></trkpt><trkpt lat="45.674245" lon="11.3252617"><ele>631.2</ele><time>2026-04-17T13:43:24.816Z</time></trkpt><trkpt lat="45.674365" lon="11.325215"><ele>632.4</ele><time>2026-04-17T13:43:25.816Z</time></trkpt><trkpt lat="45.674465" lon="11.3251583"><ele>633.6</ele><time>2026-04-17T13:43:26.816Z</time></trkpt><trkpt lat="45.6745467" lon="11.32507"><ele>634.8</ele><time>2026-04-17T13:43:27.815Z</time></trkpt><trkpt lat="45.6745917" lon="11.3249633"><ele>636.0</ele><time>2026-04-17T13:43:28.816Z</time></trkpt><trkpt lat="45.6746017" lon="11.32485"><ele>636.0</ele><time>2026-04-17T13:43:29.816Z</time></trkpt><trkpt lat="45.6746117" lon="11.3247183"><ele>636.0</ele><time>2026-04-17T13:43:30.816Z</time></trkpt><trkpt lat="45.674625" lon="11.3246117"><ele>636.0</ele><time>2026-04-17T13:43:31.815Z</time></trkpt><trkpt lat="45.6746983" lon="11.3245433"><ele>636.0</ele><time>2026-04-17T13:43:33.815Z</time></trkpt><trkpt lat="45.6747967" lon="11.3246517"><ele>636.0</ele><time>2026-04-17T13:43:35.815Z</time></trkpt><trkpt lat="45.674875" lon="11.3248917"><ele>636.0</ele><time>2026-04-17T13:43:36.816Z</time></trkpt><trkpt lat="45.6749533" lon="11.3251017"><ele>636.0</ele><time>2026-04-17T13:43:37.816Z</time></trkpt><trkpt lat="45.6750567" lon="11.325295"><ele>636.0</ele><time>2026-04-17T13:43:38.816Z</time></trkpt><trkpt lat="45.6751733" lon="11.3254683"><ele>636.0</ele><time>2026-04-17T13:43:39.816Z</time></trkpt><trkpt lat="45.675285" lon="11.3256133"><ele>636.0</ele><time>2026-04-17T13:43:40.816Z</time></trkpt><trkpt lat="45.6753917" lon="11.3257517"><ele>636.0</ele><time>2026-04-17T13:43:41.816Z</time></trkpt><trkpt lat="45.675475" lon="11.325885"><ele>636.0</ele><time>2026-04-17T13:43:42.816Z</time></trkpt><trkpt lat="45.6755417" lon="11.326015"><ele>636.0</ele><time>2026-04-17T13:43:43.816Z</time></trkpt><trkpt lat="45.6756033" lon="11.32612"><ele>636.0</ele><time>2026-04-17T13:43:44.816Z</time></trkpt><trkpt lat="45.6756683" lon="11.3261933"><ele>636.0</ele><time>2026-04-17T13:43:45.816Z</time></trkpt><trkpt lat="45.6757467" lon="11.3262517"><ele>636.0</ele><time>2026-04-17T13:43:46.815Z</time></trkpt><trkpt lat="45.6758283" lon="11.326335"><ele>636.0</ele><time>2026-04-17T13:43:47.816Z</time></trkpt><trkpt lat="45.67591" lon="11.3264383"><ele>636.2</ele><time>2026-04-17T13:43:48.816Z</time></trkpt><trkpt lat="45.675985" lon="11.3265517"><ele>636.4000000000001</ele><time>2026-04-17T13:43:49.816Z</time></trkpt><trkpt lat="45.6760333" lon="11.32667"><ele>636.6</ele><time>2026-04-17T13:43:50.815Z</time></trkpt><trkpt lat="45.6760717" lon="11.326785"><ele>636.8000000000001</ele><time>2026-04-17T13:43:51.816Z</time></trkpt><trkpt lat="45.6760983" lon="11.3269017"><ele>637.0</ele><time>2026-04-17T13:43:52.816Z</time></trkpt><trkpt lat="45.6761267" lon="11.32701"><ele>637.0</ele><time>2026-04-17T13:43:53.816Z</time></trkpt><trkpt lat="45.67617" lon="11.32711"><ele>637.0</ele><time>2026-04-17T13:43:54.816Z</time></trkpt><trkpt lat="45.6762" lon="11.3272133"><ele>637.0</ele><time>2026-04-17T13:43:55.816Z</time></trkpt><trkpt lat="45.676225" lon="11.327305"><ele>637.0</ele><time>2026-04-17T13:43:56.816Z</time></trkpt><trkpt lat="45.6762433" lon="11.3274"><ele>637.0</ele><time>2026-04-17T13:43:57.816Z</time></trkpt><trkpt lat="45.6762517" lon="11.3275033"><ele>637.0</ele><time>2026-04-17T13:43:58.816Z</time></trkpt><trkpt lat="45.6762617" lon="11.3276133"><ele>637.0</ele><time>2026-04-17T13:43:59.816Z</time></trkpt><trkpt lat="45.6762817" lon="11.3277283"><ele>635.4</ele><time>2026-04-17T13:44:00.816Z</time></trkpt><trkpt lat="45.6762917" lon="11.3278517"><ele>633.8000000000001</ele><time>2026-04-17T13:44:01.816Z</time></trkpt><trkpt lat="45.6763017" lon="11.32798"><ele>632.2</ele><time>2026-04-17T13:44:02.816Z</time></trkpt><trkpt lat="45.67631" lon="11.3281167"><ele>630.6</ele><time>2026-04-17T13:44:03.816Z</time></trkpt><trkpt lat="45.6763283" lon="11.3282633"><ele>629.0</ele><time>2026-04-17T13:44:04.816Z</time></trkpt><trkpt lat="45.676345" lon="11.3284133"><ele>628.6</ele><time>2026-04-17T13:44:05.816Z</time></trkpt><trkpt lat="45.6763817" lon="11.3285517"><ele>628.2</ele><time>2026-04-17T13:44:06.816Z</time></trkpt><trkpt lat="45.6764333" lon="11.3286833"><ele>627.8000000000001</ele><time>2026-04-17T13:44:07.816Z</time></trkpt><trkpt lat="45.6765017" lon="11.3288067"><ele>627.4</ele><time>2026-04-17T13:44:08.816Z</time></trkpt><trkpt lat="45.6766" lon="11.328925"><ele>627.0</ele><time>2026-04-17T13:44:09.816Z</time></trkpt><trkpt lat="45.6766933" lon="11.32904"><ele>625.0</ele><time>2026-04-17T13:44:10.816Z</time></trkpt><trkpt lat="45.67679" lon="11.3291417"><ele>623.0</ele><time>2026-04-17T13:44:11.815Z</time></trkpt><trkpt lat="45.6768817" lon="11.3292217"><ele>621.0</ele><time>2026-04-17T13:44:12.815Z</time></trkpt><trkpt lat="45.6769717" lon="11.3292417"><ele>619.0</ele><time>2026-04-17T13:44:13.816Z</time></trkpt><trkpt lat="45.67706" lon="11.3292383"><ele>617.0</ele><time>2026-04-17T13:44:14.815Z</time></trkpt><trkpt lat="45.6771617" lon="11.3292"><ele>613.75</ele><time>2026-04-17T13:44:15.816Z</time></trkpt><trkpt lat="45.6772817" lon="11.3291317"><ele>610.5</ele><time>2026-04-17T13:44:16.816Z</time></trkpt><trkpt lat="45.6773983" lon="11.32905"><ele>607.25</ele><time>2026-04-17T13:44:17.816Z</time></trkpt><trkpt lat="45.6775067" lon="11.3289633"><ele>604.0</ele><time>2026-04-17T13:44:18.815Z</time></trkpt><trkpt lat="45.677605" lon="11.328865"><ele>603.0</ele><time>2026-04-17T13:44:19.816Z</time></trkpt><trkpt lat="45.6776983" lon="11.3287817"><ele>602.0</ele><time>2026-04-17T13:44:20.816Z</time></trkpt><trkpt lat="45.6777983" lon="11.3286917"><ele>601.0</ele><time>2026-04-17T13:44:21.816Z</time></trkpt><trkpt lat="45.6779" lon="11.3286067"><ele>600.0</ele><time>2026-04-17T13:44:22.816Z</time></trkpt><trkpt lat="45.6780133" lon="11.3285283"><ele>600.0</ele><time>2026-04-17T13:44:23.816Z</time></trkpt><trkpt lat="45.6781283" lon="11.328445"><ele>600.0</ele><time>2026-04-17T13:44:24.816Z</time></trkpt><trkpt lat="45.6782283" lon="11.3283617"><ele>600.0</ele><time>2026-04-17T13:44:25.816Z</time></trkpt><trkpt lat="45.67831" lon="11.328265"><ele>600.0</ele><time>2026-04-17T13:44:26.816Z</time></trkpt><trkpt lat="45.6783683" lon="11.328165"><ele>600.0</ele><time>2026-04-17T13:44:27.815Z</time></trkpt><trkpt lat="45.6784" lon="11.3280717"><ele>600.0</ele><time>2026-04-17T13:44:28.816Z</time></trkpt><trkpt lat="45.67844" lon="11.327955"><ele>600.0</ele><time>2026-04-17T13:44:30.816Z</time></trkpt><trkpt lat="45.6784783" lon="11.3280917"><ele>600.0</ele><time>2026-04-17T13:44:33.816Z</time></trkpt><trkpt lat="45.6784517" lon="11.3282083"><ele>600.0</ele><time>2026-04-17T13:44:34.816Z</time></trkpt><trkpt lat="45.6784" lon="11.3283333"><ele>600.0</ele><time>2026-04-17T13:44:35.816Z</time></trkpt><trkpt lat="45.6783433" lon="11.32846"><ele>600.0</ele><time>2026-04-17T13:44:36.816Z</time></trkpt><trkpt lat="45.678275" lon="11.3285483"><ele>600.0</ele><time>2026-04-17T13:44:37.816Z</time></trkpt><trkpt lat="45.6782167" lon="11.328595"><ele>600.0</ele><time>2026-04-17T13:44:38.816Z</time></trkpt><trkpt lat="45.6781517" lon="11.3286733"><ele>600.0</ele><time>2026-04-17T13:44:40.816Z</time></trkpt><trkpt lat="45.6782" lon="11.3287383"><ele>600.0</ele><time>2026-04-17T13:44:42.816Z</time></trkpt><trkpt lat="45.678315" lon="11.32867"><ele>600.0</ele><time>2026-04-17T13:44:44.816Z</time></trkpt><trkpt lat="45.6784167" lon="11.32858"><ele>600.0</ele><time>2026-04-17T13:44:45.816Z</time></trkpt><trkpt lat="45.6785383" lon="11.328475"><ele>600.0</ele><time>2026-04-17T13:44:46.816Z</time></trkpt><trkpt lat="45.6786467" lon="11.328365"><ele>600.0</ele><time>2026-04-17T13:44:47.816Z</time></trkpt><trkpt lat="45.6787317" lon="11.32827"><ele>600.0</ele><time>2026-04-17T13:44:48.816Z</time></trkpt><trkpt lat="45.6787683" lon="11.3281517"><ele>590.25</ele><time>2026-04-17T13:44:49.816Z</time></trkpt><trkpt lat="45.6787933" lon="11.328005"><ele>580.5</ele><time>2026-04-17T13:44:50.816Z</time></trkpt><trkpt lat="45.67882" lon="11.32784"><ele>570.75</ele><time>2026-04-17T13:44:51.816Z</time></trkpt><trkpt lat="45.67887" lon="11.3276517"><ele>561.0</ele><time>2026-04-17T13:44:52.816Z</time></trkpt><trkpt lat="45.6789067" lon="11.327455"><ele>561.0</ele><time>2026-04-17T13:44:53.816Z</time></trkpt><trkpt lat="45.67893" lon="11.327265"><ele>561.0</ele><time>2026-04-17T13:44:54.816Z</time></trkpt><trkpt lat="45.6789267" lon="11.3270733"><ele>561.0</ele><time>2026-04-17T13:44:55.816Z</time></trkpt><trkpt lat="45.678935" lon="11.3268983"><ele>561.0</ele><time>2026-04-17T13:44:56.816Z</time></trkpt><trkpt lat="45.6789617" lon="11.3267433"><ele>564.5</ele><time>2026-04-17T13:44:57.816Z</time></trkpt><trkpt lat="45.6790067" lon="11.3266167"><ele>568.0</ele><time>2026-04-17T13:44:58.816Z</time></trkpt><trkpt lat="45.6790883" lon="11.3264933"><ele>571.5</ele><time>2026-04-17T13:44:59.816Z</time></trkpt><trkpt lat="45.6791883" lon="11.3263683"><ele>575.0</ele><time>2026-04-17T13:45:00.815Z</time></trkpt><trkpt lat="45.679295" lon="11.3262467"><ele>572.0</ele><time>2026-04-17T13:45:01.816Z</time></trkpt><trkpt lat="45.6794117" lon="11.326125"><ele>569.0</ele><time>2026-04-17T13:45:02.816Z</time></trkpt><trkpt lat="45.67953" lon="11.3260167"><ele>566.0</ele><time>2026-04-17T13:45:03.816Z</time></trkpt><trkpt lat="45.67964" lon="11.325935"><ele>563.0</ele><time>2026-04-17T13:45:04.816Z</time></trkpt><trkpt lat="45.6797533" lon="11.325815"><ele>563.0</ele><time>2026-04-17T13:45:05.816Z</time></trkpt><trkpt lat="45.6798667" lon="11.3256617"><ele>563.0</ele><time>2026-04-17T13:45:06.816Z</time></trkpt><trkpt lat="45.6799717" lon="11.32549"><ele>563.0</ele><time>2026-04-17T13:45:07.816Z</time></trkpt><trkpt lat="45.680055" lon="11.3253183"><ele>566.25</ele><time>2026-04-17T13:45:08.815Z</time></trkpt><trkpt lat="45.6801317" lon="11.32517"><ele>569.5</ele><time>2026-04-17T13:45:09.815Z</time></trkpt><trkpt lat="45.680225" lon="11.3250583"><ele>572.75</ele><time>2026-04-17T13:45:10.815Z</time></trkpt><trkpt lat="45.6803333" lon="11.3249867"><ele>576.0</ele><time>2026-04-17T13:45:11.815Z</time></trkpt><trkpt lat="45.680435" lon="11.3249433"><ele>569.0</ele><time>2026-04-17T13:45:12.814Z</time></trkpt><trkpt lat="45.6805483" lon="11.3249433"><ele>562.0</ele><time>2026-04-17T13:45:13.815Z</time></trkpt><trkpt lat="45.680665" lon="11.32499"><ele>555.0</ele><time>2026-04-17T13:45:14.815Z</time></trkpt><trkpt lat="45.680795" lon="11.3250817"><ele>548.0</ele><time>2026-04-17T13:45:15.815Z</time></trkpt><trkpt lat="45.68093" lon="11.3251617"><ele>548.0</ele><time>2026-04-17T13:45:16.814Z</time></trkpt><trkpt lat="45.68105" lon="11.3252283"><ele>548.0</ele><time>2026-04-17T13:45:17.815Z</time></trkpt><trkpt lat="45.6811333" lon="11.3253017"><ele>548.0</ele><time>2026-04-17T13:45:18.815Z</time></trkpt><trkpt lat="45.6812" lon="11.32538"><ele>548.0</ele><time>2026-04-17T13:45:19.815Z</time></trkpt><trkpt lat="45.68125" lon="11.3254933"><ele>548.0</ele><time>2026-04-17T13:45:20.815Z</time></trkpt><trkpt lat="45.6812817" lon="11.3256417"><ele>541.75</ele><time>2026-04-17T13:45:21.815Z</time></trkpt><trkpt lat="45.6813067" lon="11.3258333"><ele>535.5</ele><time>2026-04-17T13:45:22.815Z</time></trkpt><trkpt lat="45.681325" lon="11.3260517"><ele>529.25</ele><time>2026-04-17T13:45:23.815Z</time></trkpt><trkpt lat="45.68134" lon="11.32625"><ele>523.0</ele><time>2026-04-17T13:45:24.815Z</time></trkpt><trkpt lat="45.6813517" lon="11.32641"><ele>522.6</ele><time>2026-04-17T13:45:25.815Z</time></trkpt><trkpt lat="45.681355" lon="11.3265183"><ele>522.1999999999999</ele><time>2026-04-17T13:45:26.815Z</time></trkpt><trkpt lat="45.68137" lon="11.32661"><ele>521.8</ele><time>2026-04-17T13:45:27.815Z</time></trkpt><trkpt lat="45.6814433" lon="11.3267483"><ele>521.4</ele><time>2026-04-17T13:45:29.815Z</time></trkpt><trkpt lat="45.6814817" lon="11.3269317"><ele>521.0</ele><time>2026-04-17T13:45:31.814Z</time></trkpt><trkpt lat="45.6814683" lon="11.3270633"><ele>521.0</ele><time>2026-04-17T13:45:32.815Z</time></trkpt><trkpt lat="45.681435" lon="11.3272183"><ele>521.0</ele><time>2026-04-17T13:45:33.815Z</time></trkpt><trkpt lat="45.6813583" lon="11.327385"><ele>521.0</ele><time>2026-04-17T13:45:34.815Z</time></trkpt><trkpt lat="45.6812683" lon="11.32755"><ele>521.0</ele><time>2026-04-17T13:45:35.815Z</time></trkpt><trkpt lat="45.68118" lon="11.3277033"><ele>521.0</ele><time>2026-04-17T13:45:36.815Z</time></trkpt><trkpt lat="45.6811083" lon="11.3278517"><ele>521.0</ele><time>2026-04-17T13:45:37.815Z</time></trkpt><trkpt lat="45.68104" lon="11.3279833"><ele>521.0</ele><time>2026-04-17T13:45:38.815Z</time></trkpt><trkpt lat="45.6809883" lon="11.32812"><ele>521.0</ele><time>2026-04-17T13:45:39.815Z</time></trkpt><trkpt lat="45.6809867" lon="11.3282483"><ele>521.0</ele><time>2026-04-17T13:45:40.815Z</time></trkpt><trkpt lat="45.68101" lon="11.3283883"><ele>519.6666666666666</ele><time>2026-04-17T13:45:41.815Z</time></trkpt><trkpt lat="45.6810467" lon="11.3285283"><ele>518.3333333333333</ele><time>2026-04-17T13:45:42.815Z</time></trkpt><trkpt lat="45.6810733" lon="11.328635"><ele>517.0</ele><time>2026-04-17T13:45:43.815Z</time></trkpt><trkpt lat="45.6810783" lon="11.32873"><ele>515.6666666666666</ele><time>2026-04-17T13:45:44.815Z</time></trkpt><trkpt lat="45.6810333" lon="11.3288733"><ele>514.3333333333334</ele><time>2026-04-17T13:45:46.815Z</time></trkpt><trkpt lat="45.680975" lon="11.32892"><ele>513.0</ele><time>2026-04-17T13:45:47.815Z</time></trkpt><trkpt lat="45.6808717" lon="11.3289683"><ele>510.75</ele><time>2026-04-17T13:45:48.815Z</time></trkpt><trkpt lat="45.6807367" lon="11.329015"><ele>508.5</ele><time>2026-04-17T13:45:49.815Z</time></trkpt><trkpt lat="45.6806083" lon="11.3290767"><ele>506.25</ele><time>2026-04-17T13:45:50.814Z</time></trkpt><trkpt lat="45.68049" lon="11.329185"><ele>504.0</ele><time>2026-04-17T13:45:51.815Z</time></trkpt><trkpt lat="45.6803933" lon="11.3293317"><ele>504.0</ele><time>2026-04-17T13:45:52.815Z</time></trkpt><trkpt lat="45.6802983" lon="11.3295"><ele>504.0</ele><time>2026-04-17T13:45:53.815Z</time></trkpt><trkpt lat="45.6801983" lon="11.3296717"><ele>504.0</ele><time>2026-04-17T13:45:54.815Z</time></trkpt><trkpt lat="45.6800917" lon="11.3298383"><ele>500.75</ele><time>2026-04-17T13:45:55.815Z</time></trkpt><trkpt lat="45.6799883" lon="11.3299967"><ele>497.5</ele><time>2026-04-17T13:45:56.815Z</time></trkpt><trkpt lat="45.6798883" lon="11.33013"><ele>494.25</ele><time>2026-04-17T13:45:57.815Z</time></trkpt><trkpt lat="45.6797967" lon="11.330245"><ele>491.0</ele><time>2026-04-17T13:45:58.815Z</time></trkpt><trkpt lat="45.6797267" lon="11.3303617"><ele>490.99999999999994</ele><time>2026-04-17T13:45:59.815Z</time></trkpt><trkpt lat="45.6796583" lon="11.3304783"><ele>491.0</ele><time>2026-04-17T13:46:00.815Z</time></trkpt><trkpt lat="45.6796017" lon="11.3305833"><ele>491.0</ele><time>2026-04-17T13:46:01.815Z</time></trkpt><trkpt lat="45.6795667" lon="11.3306933"><ele>491.0</ele><time>2026-04-17T13:46:02.815Z</time></trkpt><trkpt lat="45.6795617" lon="11.330815"><ele>490.99999999999994</ele><time>2026-04-17T13:46:03.815Z</time></trkpt><trkpt lat="45.6795917" lon="11.33091"><ele>491.0</ele><time>2026-04-17T13:46:04.815Z</time></trkpt><trkpt lat="45.6796617" lon="11.330975"><ele>487.3333333333333</ele><time>2026-04-17T13:46:05.814Z</time></trkpt><trkpt lat="45.6797783" lon="11.3310083"><ele>483.66666666666663</ele><time>2026-04-17T13:46:06.815Z</time></trkpt><trkpt lat="45.6799733" lon="11.331025"><ele>480.0</ele><time>2026-04-17T13:46:07.814Z</time></trkpt><trkpt lat="45.6801533" lon="11.33105"><ele>478.5</ele><time>2026-04-17T13:46:08.815Z</time></trkpt><trkpt lat="45.6803017" lon="11.33107"><ele>477.0</ele><time>2026-04-17T13:46:09.815Z</time></trkpt><trkpt lat="45.6804267" lon="11.3310617"><ele>475.5</ele><time>2026-04-17T13:46:10.815Z</time></trkpt><trkpt lat="45.6805383" lon="11.3310367"><ele>474.0</ele><time>2026-04-17T13:46:11.815Z</time></trkpt><trkpt lat="45.68063" lon="11.3310333"><ele>474.0</ele><time>2026-04-17T13:46:12.815Z</time></trkpt><trkpt lat="45.6807167" lon="11.3310567"><ele>474.0</ele><time>2026-04-17T13:46:13.815Z</time></trkpt><trkpt lat="45.6807683" lon="11.3311233"><ele>474.0</ele><time>2026-04-17T13:46:14.815Z</time></trkpt><trkpt lat="45.6807967" lon="11.331235"><ele>474.0</ele><time>2026-04-17T13:46:15.815Z</time></trkpt><trkpt lat="45.6808167" lon="11.3314033"><ele>474.0</ele><time>2026-04-17T13:46:16.814Z</time></trkpt><trkpt lat="45.6808367" lon="11.3316383"><ele>472.33333333333337</ele><time>2026-04-17T13:46:17.815Z</time></trkpt><trkpt lat="45.6808817" lon="11.3319017"><ele>470.6666666666667</ele><time>2026-04-17T13:46:18.815Z</time></trkpt><trkpt lat="45.680935" lon="11.33213"><ele>469.0</ele><time>2026-04-17T13:46:19.815Z</time></trkpt><trkpt lat="45.6810117" lon="11.332315"><ele>470.0</ele><time>2026-04-17T13:46:20.814Z</time></trkpt><trkpt lat="45.681085" lon="11.3324733"><ele>471.0</ele><time>2026-04-17T13:46:21.815Z</time></trkpt><trkpt lat="45.6811833" lon="11.3326033"><ele>472.0</ele><time>2026-04-17T13:46:22.814Z</time></trkpt><trkpt lat="45.6812983" lon="11.33275"><ele>473.0</ele><time>2026-04-17T13:46:23.815Z</time></trkpt><trkpt lat="45.6813917" lon="11.3329017"><ele>468.25</ele><time>2026-04-17T13:46:24.815Z</time></trkpt><trkpt lat="45.681475" lon="11.3330683"><ele>463.5</ele><time>2026-04-17T13:46:25.814Z</time></trkpt><trkpt lat="45.6815383" lon="11.33325"><ele>458.75</ele><time>2026-04-17T13:46:26.815Z</time></trkpt><trkpt lat="45.6816117" lon="11.333425"><ele>454.0</ele><time>2026-04-17T13:46:27.815Z</time></trkpt><trkpt lat="45.6817033" lon="11.333585"><ele>454.0</ele><time>2026-04-17T13:46:28.815Z</time></trkpt><trkpt lat="45.68182" lon="11.3337383"><ele>454.0</ele><time>2026-04-17T13:46:29.815Z</time></trkpt><trkpt lat="45.68196" lon="11.33388"><ele>454.0</ele><time>2026-04-17T13:46:30.815Z</time></trkpt><trkpt lat="45.68212" lon="11.3340067"><ele>451.0</ele><time>2026-04-17T13:46:31.815Z</time></trkpt><trkpt lat="45.6822617" lon="11.3341217"><ele>448.0</ele><time>2026-04-17T13:46:32.815Z</time></trkpt><trkpt lat="45.6823933" lon="11.33423"><ele>445.0</ele><time>2026-04-17T13:46:33.815Z</time></trkpt><trkpt lat="45.6825133" lon="11.33433"><ele>445.0</ele><time>2026-04-17T13:46:34.815Z</time></trkpt><trkpt lat="45.6826467" lon="11.3344233"><ele>445.0</ele><time>2026-04-17T13:46:35.814Z</time></trkpt><trkpt lat="45.6827867" lon="11.3345217"><ele>445.0</ele><time>2026-04-17T13:46:36.815Z</time></trkpt><trkpt lat="45.6829333" lon="11.33461"><ele>444.0</ele><time>2026-04-17T13:46:37.815Z</time></trkpt><trkpt lat="45.6830733" lon="11.3347083"><ele>443.0</ele><time>2026-04-17T13:46:38.815Z</time></trkpt><trkpt lat="45.6832067" lon="11.3348117"><ele>442.0</ele><time>2026-04-17T13:46:39.815Z</time></trkpt><trkpt lat="45.6833367" lon="11.33491"><ele>441.25</ele><time>2026-04-17T13:46:40.815Z</time></trkpt><trkpt lat="45.68346" lon="11.335025"><ele>440.5</ele><time>2026-04-17T13:46:41.815Z</time></trkpt><trkpt lat="45.6835817" lon="11.335115"><ele>439.75</ele><time>2026-04-17T13:46:42.815Z</time></trkpt><trkpt lat="45.6837033" lon="11.3352317"><ele>439.0</ele><time>2026-04-17T13:46:43.815Z</time></trkpt><trkpt lat="45.6838233" lon="11.3353417"><ele>438.5</ele><time>2026-04-17T13:46:44.815Z</time></trkpt><trkpt lat="45.68393" lon="11.3354517"><ele>438.0</ele><time>2026-04-17T13:46:45.815Z</time></trkpt><trkpt lat="45.68406" lon="11.3355367"><ele>437.5</ele><time>2026-04-17T13:46:46.815Z</time></trkpt><trkpt lat="45.6842117" lon="11.3356383"><ele>437.0</ele><time>2026-04-17T13:46:47.815Z</time></trkpt><trkpt lat="45.6843717" lon="11.3357467"><ele>436.66666666666663</ele><time>2026-04-17T13:46:48.815Z</time></trkpt><trkpt lat="45.68452" lon="11.3358733"><ele>436.33333333333337</ele><time>2026-04-17T13:46:49.815Z</time></trkpt><trkpt lat="45.68465" lon="11.336"><ele>436.0</ele><time>2026-04-17T13:46:50.815Z</time></trkpt><trkpt lat="45.6847817" lon="11.33611"><ele>436.0</ele><time>2026-04-17T13:46:51.815Z</time></trkpt><trkpt lat="45.68491" lon="11.336215"><ele>436.0</ele><time>2026-04-17T13:46:52.815Z</time></trkpt><trkpt lat="45.68504" lon="11.3363083"><ele>436.0</ele><time>2026-04-17T13:46:53.815Z</time></trkpt><trkpt lat="45.6851717" lon="11.3363967"><ele>436.0</ele><time>2026-04-17T13:46:54.815Z</time></trkpt><trkpt lat="45.68531" lon="11.336475"><ele>434.25</ele><time>2026-04-17T13:46:55.814Z</time></trkpt><trkpt lat="45.6854467" lon="11.3365517"><ele>432.5</ele><time>2026-04-17T13:46:56.815Z</time></trkpt><trkpt lat="45.68558" lon="11.3366333"><ele>430.75</ele><time>2026-04-17T13:46:57.815Z</time></trkpt><trkpt lat="45.6857033" lon="11.33672"><ele>429.0</ele><time>2026-04-17T13:46:58.815Z</time></trkpt><trkpt lat="45.6858217" lon="11.3368133"><ele>429.0</ele><time>2026-04-17T13:46:59.815Z</time></trkpt><trkpt lat="45.685935" lon="11.3369067"><ele>429.0</ele><time>2026-04-17T13:47:00.815Z</time></trkpt><trkpt lat="45.6860467" lon="11.3369983"><ele>429.0</ele><time>2026-04-17T13:47:01.815Z</time></trkpt><trkpt lat="45.68616" lon="11.337075"><ele>429.0</ele><time>2026-04-17T13:47:02.815Z</time></trkpt><trkpt lat="45.6862917" lon="11.337115"><ele>427.25</ele><time>2026-04-17T13:47:03.815Z</time></trkpt><trkpt lat="45.68643" lon="11.33714"><ele>425.5</ele><time>2026-04-17T13:47:04.815Z</time></trkpt><trkpt lat="45.6865717" lon="11.33716"><ele>423.75</ele><time>2026-04-17T13:47:05.815Z</time></trkpt><trkpt lat="45.6866967" lon="11.3372"><ele>422.0</ele><time>2026-04-17T13:47:06.815Z</time></trkpt><trkpt lat="45.6868" lon="11.3372883"><ele>420.75</ele><time>2026-04-17T13:47:07.815Z</time></trkpt><trkpt lat="45.6868983" lon="11.3374067"><ele>419.5</ele><time>2026-04-17T13:47:08.815Z</time></trkpt><trkpt lat="45.6869683" lon="11.3375567"><ele>418.25</ele><time>2026-04-17T13:47:09.815Z</time></trkpt><trkpt lat="45.6870417" lon="11.3377367"><ele>417.0</ele><time>2026-04-17T13:47:10.815Z</time></trkpt><trkpt lat="45.6871183" lon="11.3379433"><ele>414.66666666666663</ele><time>2026-04-17T13:47:11.815Z</time></trkpt><trkpt lat="45.687205" lon="11.3381633"><ele>412.3333333333333</ele><time>2026-04-17T13:47:12.815Z</time></trkpt><trkpt lat="45.6873017" lon="11.3383867"><ele>410.0</ele><time>2026-04-17T13:47:13.815Z</time></trkpt><trkpt lat="45.6874233" lon="11.3386"><ele>410.0</ele><time>2026-04-17T13:47:14.815Z</time></trkpt><trkpt lat="45.6875267" lon="11.3387917"><ele>410.0</ele><time>2026-04-17T13:47:15.815Z</time></trkpt><trkpt lat="45.68763" lon="11.3389683"><ele>410.0</ele><time>2026-04-17T13:47:16.815Z</time></trkpt><trkpt lat="45.6877133" lon="11.3391283"><ele>409.0</ele><time>2026-04-17T13:47:17.814Z</time></trkpt><trkpt lat="45.687805" lon="11.3392767"><ele>408.0</ele><time>2026-04-17T13:47:18.815Z</time></trkpt><trkpt lat="45.6879033" lon="11.3393967"><ele>407.0</ele><time>2026-04-17T13:47:19.815Z</time></trkpt><trkpt lat="45.688015" lon="11.3394817"><ele>406.0</ele><time>2026-04-17T13:47:20.815Z</time></trkpt><trkpt lat="45.6881483" lon="11.33958"><ele>406.0</ele><time>2026-04-17T13:47:21.815Z</time></trkpt><trkpt lat="45.688295" lon="11.3396567"><ele>406.0</ele><time>2026-04-17T13:47:22.815Z</time></trkpt><trkpt lat="45.68844" lon="11.3397217"><ele>406.0</ele><time>2026-04-17T13:47:23.815Z</time></trkpt><trkpt lat="45.6885717" lon="11.3397783"><ele>406.0</ele><time>2026-04-17T13:47:24.815Z</time></trkpt><trkpt lat="45.6886883" lon="11.3398567"><ele>401.5</ele><time>2026-04-17T13:47:25.815Z</time></trkpt><trkpt lat="45.688785" lon="11.3399667"><ele>397.0</ele><time>2026-04-17T13:47:26.814Z</time></trkpt><trkpt lat="45.6888583" lon="11.3401017"><ele>392.5</ele><time>2026-04-17T13:47:27.815Z</time></trkpt><trkpt lat="45.688905" lon="11.34029"><ele>388.0</ele><time>2026-04-17T13:47:28.815Z</time></trkpt><trkpt lat="45.6889433" lon="11.340515"><ele>386.6666666666667</ele><time>2026-04-17T13:47:29.814Z</time></trkpt><trkpt lat="45.6889833" lon="11.3407433"><ele>385.33333333333337</ele><time>2026-04-17T13:47:30.815Z</time></trkpt><trkpt lat="45.6890233" lon="11.3409533"><ele>384.0</ele><time>2026-04-17T13:47:31.815Z</time></trkpt><trkpt lat="45.6890567" lon="11.3411433"><ele>384.0</ele><time>2026-04-17T13:47:32.815Z</time></trkpt><trkpt lat="45.6890933" lon="11.34132"><ele>384.0</ele><time>2026-04-17T13:47:33.815Z</time></trkpt><trkpt lat="45.68913" lon="11.3414867"><ele>384.0</ele><time>2026-04-17T13:47:34.815Z</time></trkpt><trkpt lat="45.689165" lon="11.3416317"><ele>384.0</ele><time>2026-04-17T13:47:35.815Z</time></trkpt><trkpt lat="45.6891983" lon="11.3417633"><ele>382.6</ele><time>2026-04-17T13:47:36.814Z</time></trkpt><trkpt lat="45.6892567" lon="11.3418633"><ele>381.2</ele><time>2026-04-17T13:47:37.815Z</time></trkpt><trkpt lat="45.6893283" lon="11.3419333"><ele>379.8</ele><time>2026-04-17T13:47:38.815Z</time></trkpt><trkpt lat="45.6894183" lon="11.3419667"><ele>378.40000000000003</ele><time>2026-04-17T13:47:39.815Z</time></trkpt><trkpt lat="45.68953" lon="11.3419717"><ele>377.0</ele><time>2026-04-17T13:47:40.815Z</time></trkpt><trkpt lat="45.689685" lon="11.3419417"><ele>374.6666666666667</ele><time>2026-04-17T13:47:41.815Z</time></trkpt><trkpt lat="45.6898483" lon="11.3419083"><ele>372.3333333333333</ele><time>2026-04-17T13:47:42.815Z</time></trkpt><trkpt lat="45.6900017" lon="11.3418667"><ele>370.0</ele><time>2026-04-17T13:47:43.815Z</time></trkpt><trkpt lat="45.6901283" lon="11.341835"><ele>370.0</ele><time>2026-04-17T13:47:44.815Z</time></trkpt><trkpt lat="45.6902417" lon="11.3418367"><ele>370.0</ele><time>2026-04-17T13:47:45.815Z</time></trkpt><trkpt lat="45.6903467" lon="11.34189"><ele>370.0</ele><time>2026-04-17T13:47:46.815Z</time></trkpt><trkpt lat="45.69045" lon="11.3419933"><ele>370.0</ele><time>2026-04-17T13:47:47.815Z</time></trkpt><trkpt lat="45.6905433" lon="11.3421433"><ele>366.75</ele><time>2026-04-17T13:47:48.815Z</time></trkpt><trkpt lat="45.6906183" lon="11.3423217"><ele>363.5</ele><time>2026-04-17T13:47:49.815Z</time></trkpt><trkpt lat="45.6906717" lon="11.342525"><ele>360.25</ele><time>2026-04-17T13:47:50.815Z</time></trkpt><trkpt lat="45.6906983" lon="11.3427133"><ele>357.0</ele><time>2026-04-17T13:47:51.815Z</time></trkpt><trkpt lat="45.690725" lon="11.3428967"><ele>355.8</ele><time>2026-04-17T13:47:52.815Z</time></trkpt><trkpt lat="45.69075" lon="11.3430667"><ele>354.6</ele><time>2026-04-17T13:47:53.814Z</time></trkpt><trkpt lat="45.69075" lon="11.3432117"><ele>353.40000000000003</ele><time>2026-04-17T13:47:54.815Z</time></trkpt><trkpt lat="45.690725" lon="11.3433433"><ele>352.20000000000005</ele><time>2026-04-17T13:47:55.815Z</time></trkpt><trkpt lat="45.69066" lon="11.3434567"><ele>351.0</ele><time>2026-04-17T13:47:56.814Z</time></trkpt><trkpt lat="45.690565" lon="11.3435367"><ele>351.0</ele><time>2026-04-17T13:47:57.815Z</time></trkpt><trkpt lat="45.690455" lon="11.343575"><ele>351.0</ele><time>2026-04-17T13:47:58.815Z</time></trkpt><trkpt lat="45.690345" lon="11.3435833"><ele>351.0</ele><time>2026-04-17T13:47:59.815Z</time></trkpt><trkpt lat="45.69025" lon="11.34356"><ele>351.0</ele><time>2026-04-17T13:48:00.814Z</time></trkpt><trkpt lat="45.6901783" lon="11.3435633"><ele>351.0</ele><time>2026-04-17T13:48:01.814Z</time></trkpt><trkpt lat="45.6901283" lon="11.3436967"><ele>352.20000000000005</ele><time>2026-04-17T13:48:03.814Z</time></trkpt><trkpt lat="45.690145" lon="11.343785"><ele>353.40000000000003</ele><time>2026-04-17T13:48:04.814Z</time></trkpt><trkpt lat="45.6902083" lon="11.3438617"><ele>354.6</ele><time>2026-04-17T13:48:05.814Z</time></trkpt><trkpt lat="45.6903133" lon="11.3439167"><ele>355.8</ele><time>2026-04-17T13:48:06.813Z</time></trkpt><trkpt lat="45.69047" lon="11.34395"><ele>357.0</ele><time>2026-04-17T13:48:07.814Z</time></trkpt><trkpt lat="45.690635" lon="11.3439533"><ele>355.0</ele><time>2026-04-17T13:48:08.814Z</time></trkpt><trkpt lat="45.6907967" lon="11.3439233"><ele>353.0</ele><time>2026-04-17T13:48:09.814Z</time></trkpt><trkpt lat="45.6909783" lon="11.3438483"><ele>351.0</ele><time>2026-04-17T13:48:10.813Z</time></trkpt><trkpt lat="45.6911683" lon="11.34376"><ele>345.3333333333333</ele><time>2026-04-17T13:48:11.813Z</time></trkpt><trkpt lat="45.6913583" lon="11.3436667"><ele>339.66666666666663</ele><time>2026-04-17T13:48:12.813Z</time></trkpt><trkpt lat="45.69154" lon="11.3435783"><ele>334.0</ele><time>2026-04-17T13:48:13.814Z</time></trkpt><trkpt lat="45.69171" lon="11.3434833"><ele>334.0</ele><time>2026-04-17T13:48:14.814Z</time></trkpt><trkpt lat="45.691875" lon="11.3433983"><ele>334.0</ele><time>2026-04-17T13:48:15.814Z</time></trkpt><trkpt lat="45.69202" lon="11.3432767"><ele>334.0</ele><time>2026-04-17T13:48:16.814Z</time></trkpt><trkpt lat="45.692165" lon="11.3431233"><ele>331.3333333333333</ele><time>2026-04-17T13:48:17.814Z</time></trkpt><trkpt lat="45.692295" lon="11.3429683"><ele>328.6666666666667</ele><time>2026-04-17T13:48:18.814Z</time></trkpt><trkpt lat="45.6924183" lon="11.3428383"><ele>326.0</ele><time>2026-04-17T13:48:19.814Z</time></trkpt><trkpt lat="45.69255" lon="11.3427317"><ele>326.0</ele><time>2026-04-17T13:48:20.814Z</time></trkpt><trkpt lat="45.6926833" lon="11.342665"><ele>326.0</ele><time>2026-04-17T13:48:21.814Z</time></trkpt><trkpt lat="45.6928033" lon="11.3426"><ele>326.0</ele><time>2026-04-17T13:48:22.814Z</time></trkpt><trkpt lat="45.6929133" lon="11.3425067"><ele>326.0</ele><time>2026-04-17T13:48:23.813Z</time></trkpt><trkpt lat="45.693" lon="11.3423833"><ele>322.8</ele><time>2026-04-17T13:48:24.814Z</time></trkpt><trkpt lat="45.6930667" lon="11.3422433"><ele>319.6</ele><time>2026-04-17T13:48:25.814Z</time></trkpt><trkpt lat="45.6931117" lon="11.34212"><ele>316.4</ele><time>2026-04-17T13:48:26.814Z</time></trkpt><trkpt lat="45.69316" lon="11.3420417"><ele>313.2</ele><time>2026-04-17T13:48:27.813Z</time></trkpt><trkpt lat="45.6932767" lon="11.34205"><ele>310.0</ele><time>2026-04-17T13:48:29.814Z</time></trkpt><trkpt lat="45.6933467" lon="11.3422217"><ele>309.5</ele><time>2026-04-17T13:48:31.814Z</time></trkpt><trkpt lat="45.69335" lon="11.3423867"><ele>309.0</ele><time>2026-04-17T13:48:32.814Z</time></trkpt><trkpt lat="45.69331" lon="11.342585"><ele>308.5</ele><time>2026-04-17T13:48:33.814Z</time></trkpt><trkpt lat="45.6932717" lon="11.3427733"><ele>308.0</ele><time>2026-04-17T13:48:34.813Z</time></trkpt><trkpt lat="45.6932633" lon="11.3429283"><ele>308.0</ele><time>2026-04-17T13:48:35.814Z</time></trkpt><trkpt lat="45.6932817" lon="11.3430467"><ele>308.0</ele><time>2026-04-17T13:48:36.814Z</time></trkpt><trkpt lat="45.69333" lon="11.3431283"><ele>308.0</ele><time>2026-04-17T13:48:37.814Z</time></trkpt><trkpt lat="45.6934533" lon="11.3430933"><ele>308.0</ele><time>2026-04-17T13:48:39.814Z</time></trkpt><trkpt lat="45.69353" lon="11.3429833"><ele>308.0</ele><time>2026-04-17T13:48:40.814Z</time></trkpt><trkpt lat="45.6936033" lon="11.342815"><ele>304.0</ele><time>2026-04-17T13:48:41.814Z</time></trkpt><trkpt lat="45.6936917" lon="11.34261"><ele>300.0</ele><time>2026-04-17T13:48:42.814Z</time></trkpt><trkpt lat="45.69381" lon="11.3423983"><ele>296.0</ele><time>2026-04-17T13:48:43.814Z</time></trkpt><trkpt lat="45.6939367" lon="11.3422"><ele>296.0</ele><time>2026-04-17T13:48:44.814Z</time></trkpt><trkpt lat="45.6940833" lon="11.342035"><ele>296.0</ele><time>2026-04-17T13:48:45.814Z</time></trkpt><trkpt lat="45.694215" lon="11.3418817"><ele>296.0</ele><time>2026-04-17T13:48:46.814Z</time></trkpt><trkpt lat="45.6943367" lon="11.3417567"><ele>293.2</ele><time>2026-04-17T13:48:47.814Z</time></trkpt><trkpt lat="45.694445" lon="11.3416567"><ele>290.40000000000003</ele><time>2026-04-17T13:48:48.814Z</time></trkpt><trkpt lat="45.694545" lon="11.3415917"><ele>287.6</ele><time>2026-04-17T13:48:49.814Z</time></trkpt><trkpt lat="45.69463" lon="11.341565"><ele>284.8</ele><time>2026-04-17T13:48:50.814Z</time></trkpt><trkpt lat="45.6947067" lon="11.341585"><ele>282.0</ele><time>2026-04-17T13:48:51.814Z</time></trkpt><trkpt lat="45.694755" lon="11.3416433"><ele>282.0</ele><time>2026-04-17T13:48:52.814Z</time></trkpt><trkpt lat="45.6947667" lon="11.3418017"><ele>282.0</ele><time>2026-04-17T13:48:54.814Z</time></trkpt><trkpt lat="45.6947283" lon="11.3419183"><ele>282.0</ele><time>2026-04-17T13:48:55.814Z</time></trkpt><trkpt lat="45.6946667" lon="11.3420717"><ele>282.0</ele><time>2026-04-17T13:48:56.814Z</time></trkpt><trkpt lat="45.6945567" lon="11.3423217"><ele>280.25</ele><time>2026-04-17T13:48:57.814Z</time></trkpt><trkpt lat="45.6944683" lon="11.3425383"><ele>278.5</ele><time>2026-04-17T13:48:58.814Z</time></trkpt><trkpt lat="45.6944083" lon="11.3427017"><ele>276.75</ele><time>2026-04-17T13:48:59.814Z</time></trkpt><trkpt lat="45.69439" lon="11.34283"><ele>275.0</ele><time>2026-04-17T13:49:00.814Z</time></trkpt><trkpt lat="45.6944117" lon="11.3429433"><ele>275.0</ele><time>2026-04-17T13:49:01.813Z</time></trkpt><trkpt lat="45.69447" lon="11.34302"><ele>275.0</ele><time>2026-04-17T13:49:02.813Z</time></trkpt><trkpt lat="45.6945383" lon="11.3430433"><ele>275.0</ele><time>2026-04-17T13:49:03.814Z</time></trkpt><trkpt lat="45.694615" lon="11.3430183"><ele>275.0</ele><time>2026-04-17T13:49:04.814Z</time></trkpt><trkpt lat="45.6947183" lon="11.342965"><ele>275.0</ele><time>2026-04-17T13:49:05.814Z</time></trkpt><trkpt lat="45.694845" lon="11.3428467"><ele>275.0</ele><time>2026-04-17T13:49:06.814Z</time></trkpt><trkpt lat="45.6949783" lon="11.3426917"><ele>275.0</ele><time>2026-04-17T13:49:07.814Z</time></trkpt><trkpt lat="45.69509" lon="11.3425483"><ele>275.0</ele><time>2026-04-17T13:49:08.814Z</time></trkpt><trkpt lat="45.69518" lon="11.342455"><ele>275.0</ele><time>2026-04-17T13:49:09.814Z</time></trkpt><trkpt lat="45.6952633" lon="11.3424217"><ele>271.75</ele><time>2026-04-17T13:49:10.814Z</time></trkpt><trkpt lat="45.6953433" lon="11.342435"><ele>268.5</ele><time>2026-04-17T13:49:11.814Z</time></trkpt><trkpt lat="45.6954317" lon="11.3425583"><ele>265.25</ele><time>2026-04-17T13:49:13.814Z</time></trkpt><trkpt lat="45.6953633" lon="11.3427867"><ele>262.0</ele><time>2026-04-17T13:49:15.814Z</time></trkpt><trkpt lat="45.695285" lon="11.3429883"><ele>264.66666666666663</ele><time>2026-04-17T13:49:16.813Z</time></trkpt><trkpt lat="45.6951967" lon="11.3432633"><ele>267.3333333333333</ele><time>2026-04-17T13:49:17.814Z</time></trkpt><trkpt lat="45.6951167" lon="11.3435583"><ele>270.0</ele><time>2026-04-17T13:49:18.813Z</time></trkpt><trkpt lat="45.6950467" lon="11.3438167"><ele>267.0</ele><time>2026-04-17T13:49:19.814Z</time></trkpt><trkpt lat="45.6949883" lon="11.3440333"><ele>264.0</ele><time>2026-04-17T13:49:20.814Z</time></trkpt><trkpt lat="45.6949267" lon="11.34422"><ele>261.0</ele><time>2026-04-17T13:49:21.814Z</time></trkpt><trkpt lat="45.6948833" lon="11.3443667"><ele>258.0</ele><time>2026-04-17T13:49:22.814Z</time></trkpt><trkpt lat="45.6948717" lon="11.3444917"><ele>258.0</ele><time>2026-04-17T13:49:23.814Z</time></trkpt><trkpt lat="45.6948883" lon="11.344605"><ele>258.0</ele><time>2026-04-17T13:49:24.814Z</time></trkpt><trkpt lat="45.694935" lon="11.3446967"><ele>258.0</ele><time>2026-04-17T13:49:25.814Z</time></trkpt><trkpt lat="45.6949917" lon="11.344745"><ele>258.0</ele><time>2026-04-17T13:49:26.814Z</time></trkpt><trkpt lat="45.6950783" lon="11.34474"><ele>258.0</ele><time>2026-04-17T13:49:27.814Z</time></trkpt><trkpt lat="45.695205" lon="11.3446983"><ele>258.0</ele><time>2026-04-17T13:49:28.814Z</time></trkpt><trkpt lat="45.6953817" lon="11.3446733"><ele>254.5</ele><time>2026-04-17T13:49:29.814Z</time></trkpt><trkpt lat="45.695555" lon="11.344665"><ele>251.0</ele><time>2026-04-17T13:49:30.814Z</time></trkpt><trkpt lat="45.6956967" lon="11.3446567"><ele>247.5</ele><time>2026-04-17T13:49:31.814Z</time></trkpt><trkpt lat="45.6958083" lon="11.3446183"><ele>244.0</ele><time>2026-04-17T13:49:32.814Z</time></trkpt><trkpt lat="45.695905" lon="11.3445433"><ele>244.0</ele><time>2026-04-17T13:49:33.814Z</time></trkpt><trkpt lat="45.6959867" lon="11.34442"><ele>243.99999999999997</ele><time>2026-04-17T13:49:34.814Z</time></trkpt><trkpt lat="45.6960317" lon="11.34428"><ele>243.99999999999997</ele><time>2026-04-17T13:49:35.814Z</time></trkpt><trkpt lat="45.69607" lon="11.3441617"><ele>244.0</ele><time>2026-04-17T13:49:36.814Z</time></trkpt><trkpt lat="45.6961317" lon="11.3441317"><ele>244.0</ele><time>2026-04-17T13:49:37.814Z</time></trkpt><trkpt lat="45.6961967" lon="11.3441617"><ele>241.5</ele><time>2026-04-17T13:49:38.814Z</time></trkpt><trkpt lat="45.6962667" lon="11.34423"><ele>239.0</ele><time>2026-04-17T13:49:39.814Z</time></trkpt><trkpt lat="45.6963383" lon="11.3443517"><ele>236.5</ele><time>2026-04-17T13:49:40.814Z</time></trkpt><trkpt lat="45.696415" lon="11.3445333"><ele>234.0</ele><time>2026-04-17T13:49:41.814Z</time></trkpt><trkpt lat="45.6964933" lon="11.3447167"><ele>233.2</ele><time>2026-04-17T13:49:42.813Z</time></trkpt><trkpt lat="45.6965617" lon="11.3448717"><ele>232.39999999999998</ele><time>2026-04-17T13:49:43.814Z</time></trkpt><trkpt lat="45.6966317" lon="11.34497"><ele>231.6</ele><time>2026-04-17T13:49:44.813Z</time></trkpt><trkpt lat="45.6967" lon="11.345015"><ele>230.8</ele><time>2026-04-17T13:49:45.814Z</time></trkpt><trkpt lat="45.6968167" lon="11.3449583"><ele>230.0</ele><time>2026-04-17T13:49:47.814Z</time></trkpt><trkpt lat="45.6968683" lon="11.34484"><ele>231.33333333333334</ele><time>2026-04-17T13:49:48.814Z</time></trkpt><trkpt lat="45.6969083" lon="11.3446467"><ele>232.66666666666669</ele><time>2026-04-17T13:49:49.814Z</time></trkpt><trkpt lat="45.696915" lon="11.344405"><ele>234.0</ele><time>2026-04-17T13:49:50.814Z</time></trkpt><trkpt lat="45.6969283" lon="11.34419"><ele>233.6</ele><time>2026-04-17T13:49:51.814Z</time></trkpt><trkpt lat="45.696955" lon="11.344035"><ele>233.2</ele><time>2026-04-17T13:49:52.814Z</time></trkpt><trkpt lat="45.696995" lon="11.34393"><ele>232.79999999999998</ele><time>2026-04-17T13:49:53.814Z</time></trkpt><trkpt lat="45.6970667" lon="11.34388"><ele>232.39999999999998</ele><time>2026-04-17T13:49:54.814Z</time></trkpt><trkpt lat="45.69716" lon="11.3438667"><ele>232.0</ele><time>2026-04-17T13:49:55.814Z</time></trkpt><trkpt lat="45.69728" lon="11.3438983"><ele>229.0</ele><time>2026-04-17T13:49:56.814Z</time></trkpt><trkpt lat="45.6974317" lon="11.343965"><ele>226.0</ele><time>2026-04-17T13:49:57.814Z</time></trkpt><trkpt lat="45.6976083" lon="11.3440283"><ele>223.0</ele><time>2026-04-17T13:49:58.814Z</time></trkpt><trkpt lat="45.6977817" lon="11.344055"><ele>221.0</ele><time>2026-04-17T13:49:59.814Z</time></trkpt><trkpt lat="45.6979417" lon="11.3440433"><ele>219.0</ele><time>2026-04-17T13:50:00.814Z</time></trkpt><trkpt lat="45.6980783" lon="11.3440333"><ele>217.0</ele><time>2026-04-17T13:50:01.814Z</time></trkpt><trkpt lat="45.698215" lon="11.3440183"><ele>215.0</ele><time>2026-04-17T13:50:02.814Z</time></trkpt><trkpt lat="45.698345" lon="11.34402"><ele>215.0</ele><time>2026-04-17T13:50:03.814Z</time></trkpt><trkpt lat="45.698465" lon="11.344045"><ele>215.0</ele><time>2026-04-17T13:50:04.814Z</time></trkpt><trkpt lat="45.6985633" lon="11.3441067"><ele>215.0</ele><time>2026-04-17T13:50:05.814Z</time></trkpt><trkpt lat="45.6986433" lon="11.3442233"><ele>215.0</ele><time>2026-04-17T13:50:06.814Z</time></trkpt><trkpt lat="45.6987017" lon="11.3443817"><ele>213.0</ele><time>2026-04-17T13:50:07.814Z</time></trkpt><trkpt lat="45.698755" lon="11.3445767"><ele>211.0</ele><time>2026-04-17T13:50:08.814Z</time></trkpt><trkpt lat="45.6988067" lon="11.3447783"><ele>209.0</ele><time>2026-04-17T13:50:09.814Z</time></trkpt><trkpt lat="45.698855" lon="11.3449917"><ele>208.66666666666669</ele><time>2026-04-17T13:50:10.814Z</time></trkpt><trkpt lat="45.6989183" lon="11.3452117"><ele>208.33333333333331</ele><time>2026-04-17T13:50:11.814Z</time></trkpt><trkpt lat="45.699" lon="11.3454333"><ele>208.0</ele><time>2026-04-17T13:50:12.814Z</time></trkpt><trkpt lat="45.6990867" lon="11.3456483"><ele>207.66666666666666</ele><time>2026-04-17T13:50:13.814Z</time></trkpt><trkpt lat="45.6991933" lon="11.3458583"><ele>207.33333333333331</ele><time>2026-04-17T13:50:14.814Z</time></trkpt><trkpt lat="45.6993083" lon="11.346065"><ele>207.0</ele><time>2026-04-17T13:50:15.814Z</time></trkpt><trkpt lat="45.69943" lon="11.346265"><ele>206.33333333333331</ele><time>2026-04-17T13:50:16.813Z</time></trkpt><trkpt lat="45.6995717" lon="11.3464433"><ele>205.66666666666666</ele><time>2026-04-17T13:50:17.814Z</time></trkpt><trkpt lat="45.6997133" lon="11.3466133"><ele>205.0</ele><time>2026-04-17T13:50:18.814Z</time></trkpt><trkpt lat="45.69987" lon="11.3467683"><ele>205.0</ele><time>2026-04-17T13:50:19.813Z</time></trkpt><trkpt lat="45.7000133" lon="11.3469183"><ele>205.0</ele><time>2026-04-17T13:50:20.814Z</time></trkpt><trkpt lat="45.700155" lon="11.3470683"><ele>205.0</ele><time>2026-04-17T13:50:21.814Z</time></trkpt><trkpt lat="45.7002917" lon="11.3472217"><ele>204.66666666666666</ele><time>2026-04-17T13:50:22.814Z</time></trkpt><trkpt lat="45.7004267" lon="11.3473583"><ele>204.33333333333331</ele><time>2026-04-17T13:50:23.814Z</time></trkpt><trkpt lat="45.7005467" lon="11.34749"><ele>204.0</ele><time>2026-04-17T13:50:24.814Z</time></trkpt><trkpt lat="45.7006617" lon="11.34761"><ele>204.0</ele><time>2026-04-17T13:50:25.814Z</time></trkpt><trkpt lat="45.70077" lon="11.3477333"><ele>204.0</ele><time>2026-04-17T13:50:26.814Z</time></trkpt><trkpt lat="45.7008783" lon="11.347855"><ele>204.0</ele><time>2026-04-17T13:50:27.814Z</time></trkpt><trkpt lat="45.700985" lon="11.3479867"><ele>204.0</ele><time>2026-04-17T13:50:28.814Z</time></trkpt><trkpt lat="45.7011083" lon="11.348115"><ele>203.66666666666669</ele><time>2026-04-17T13:50:29.814Z</time></trkpt><trkpt lat="45.7012367" lon="11.3482483"><ele>203.33333333333334</ele><time>2026-04-17T13:50:30.814Z</time></trkpt><trkpt lat="45.7013817" lon="11.3483867"><ele>203.0</ele><time>2026-04-17T13:50:31.814Z</time></trkpt><trkpt lat="45.7015233" lon="11.3485367"><ele>203.0</ele><time>2026-04-17T13:50:32.813Z</time></trkpt><trkpt lat="45.70167" lon="11.348685"><ele>203.0</ele><time>2026-04-17T13:50:33.814Z</time></trkpt><trkpt lat="45.7018033" lon="11.3488183"><ele>203.0</ele><time>2026-04-17T13:50:34.814Z</time></trkpt><trkpt lat="45.7019267" lon="11.348945"><ele>203.25</ele><time>2026-04-17T13:50:35.814Z</time></trkpt><trkpt lat="45.7020433" lon="11.34906"><ele>203.5</ele><time>2026-04-17T13:50:36.814Z</time></trkpt><trkpt lat="45.7021483" lon="11.34918"><ele>203.75</ele><time>2026-04-17T13:50:37.814Z</time></trkpt><trkpt lat="45.7022433" lon="11.3493"><ele>204.0</ele><time>2026-04-17T13:50:38.814Z</time></trkpt><trkpt lat="45.7023417" lon="11.349425"><ele>204.0</ele><time>2026-04-17T13:50:39.814Z</time></trkpt><trkpt lat="45.70246" lon="11.3495433"><ele>204.0</ele><time>2026-04-17T13:50:40.814Z</time></trkpt><trkpt lat="45.702595" lon="11.3496733"><ele>204.0</ele><time>2026-04-17T13:50:41.814Z</time></trkpt><trkpt lat="45.70274" lon="11.349815"><ele>204.66666666666669</ele><time>2026-04-17T13:50:42.814Z</time></trkpt><trkpt lat="45.7028867" lon="11.3499733"><ele>205.33333333333334</ele><time>2026-04-17T13:50:43.814Z</time></trkpt><trkpt lat="45.7030283" lon="11.3501283"><ele>206.0</ele><time>2026-04-17T13:50:44.814Z</time></trkpt><trkpt lat="45.70317" lon="11.3502783"><ele>206.0</ele><time>2026-04-17T13:50:45.814Z</time></trkpt><trkpt lat="45.7033117" lon="11.3504233"><ele>206.0</ele><time>2026-04-17T13:50:46.814Z</time></trkpt><trkpt lat="45.7034483" lon="11.3505683"><ele>206.0</ele><time>2026-04-17T13:50:47.814Z</time></trkpt><trkpt lat="45.7035817" lon="11.3507017"><ele>206.0</ele><time>2026-04-17T13:50:48.814Z</time></trkpt><trkpt lat="45.7037033" lon="11.350835"><ele>206.0</ele><time>2026-04-17T13:50:49.814Z</time></trkpt><trkpt lat="45.7038117" lon="11.3509533"><ele>206.0</ele><time>2026-04-17T13:50:50.814Z</time></trkpt><trkpt lat="45.70391" lon="11.351065"><ele>206.0</ele><time>2026-04-17T13:50:51.814Z</time></trkpt><trkpt lat="45.703995" lon="11.3511533"><ele>206.00000000000003</ele><time>2026-04-17T13:50:52.814Z</time></trkpt><trkpt lat="45.70406" lon="11.3512383"><ele>206.0</ele><time>2026-04-17T13:50:53.814Z</time></trkpt><trkpt lat="45.7041217" lon="11.3513283"><ele>206.0</ele><time>2026-04-17T13:50:54.814Z</time></trkpt><trkpt lat="45.7041933" lon="11.3514133"><ele>206.0</ele><time>2026-04-17T13:50:55.814Z</time></trkpt><trkpt lat="45.7042767" lon="11.3514783"><ele>206.00000000000003</ele><time>2026-04-17T13:50:56.814Z</time></trkpt><trkpt lat="45.7043467" lon="11.35154"><ele>206.0</ele><time>2026-04-17T13:50:57.813Z</time></trkpt><trkpt lat="45.7044083" lon="11.3516"><ele>206.4</ele><time>2026-04-17T13:50:58.814Z</time></trkpt><trkpt lat="45.70446" lon="11.3516533"><ele>206.8</ele><time>2026-04-17T13:50:59.814Z</time></trkpt><trkpt lat="45.7045267" lon="11.3517233"><ele>207.20000000000002</ele><time>2026-04-17T13:51:01.812Z</time></trkpt><trkpt lat="45.7046133" lon="11.351805"><ele>207.60000000000002</ele><time>2026-04-17T13:51:03.812Z</time></trkpt><trkpt lat="45.7047267" lon="11.3519133"><ele>208.0</ele><time>2026-04-17T13:51:05.812Z</time></trkpt><trkpt lat="45.7047883" lon="11.3519883"><ele>208.0</ele><time>2026-04-17T13:51:06.813Z</time></trkpt><trkpt lat="45.7048467" lon="11.3520583"><ele>208.0</ele><time>2026-04-17T13:51:07.813Z</time></trkpt><trkpt lat="45.70493" lon="11.3521417"><ele>208.0</ele><time>2026-04-17T13:51:08.813Z</time></trkpt><trkpt lat="45.7050117" lon="11.3522333"><ele>208.0</ele><time>2026-04-17T13:51:09.813Z</time></trkpt><trkpt lat="45.7051017" lon="11.352315"><ele>208.0</ele><time>2026-04-17T13:51:10.813Z</time></trkpt><trkpt lat="45.705195" lon="11.352415"><ele>208.5</ele><time>2026-04-17T13:51:11.813Z</time></trkpt><trkpt lat="45.7052983" lon="11.3525283"><ele>209.0</ele><time>2026-04-17T13:51:12.813Z</time></trkpt><trkpt lat="45.7054033" lon="11.3526317"><ele>209.5</ele><time>2026-04-17T13:51:13.813Z</time></trkpt><trkpt lat="45.7055083" lon="11.3527567"><ele>210.0</ele><time>2026-04-17T13:51:14.813Z</time></trkpt><trkpt lat="45.705615" lon="11.3528817"><ele>210.0</ele><time>2026-04-17T13:51:15.813Z</time></trkpt><trkpt lat="45.7057283" lon="11.3530017"><ele>210.0</ele><time>2026-04-17T13:51:16.813Z</time></trkpt><trkpt lat="45.7058417" lon="11.3531117"><ele>210.0</ele><time>2026-04-17T13:51:17.813Z</time></trkpt><trkpt lat="45.7059433" lon="11.3532367"><ele>210.0</ele><time>2026-04-17T13:51:18.813Z</time></trkpt><trkpt lat="45.7060483" lon="11.3533517"><ele>209.8</ele><time>2026-04-17T13:51:19.813Z</time></trkpt><trkpt lat="45.706145" lon="11.3534483"><ele>209.6</ele><time>2026-04-17T13:51:20.812Z</time></trkpt><trkpt lat="45.706225" lon="11.3535333"><ele>209.39999999999998</ele><time>2026-04-17T13:51:21.813Z</time></trkpt><trkpt lat="45.706305" lon="11.3536033"><ele>209.2</ele><time>2026-04-17T13:51:22.812Z</time></trkpt><trkpt lat="45.7063733" lon="11.3536833"><ele>209.0</ele><time>2026-04-17T13:51:23.813Z</time></trkpt><trkpt lat="45.70649" lon="11.3538117"><ele>208.83333333333334</ele><time>2026-04-17T13:51:25.813Z</time></trkpt><trkpt lat="45.706575" lon="11.353935"><ele>208.66666666666669</ele><time>2026-04-17T13:51:27.813Z</time></trkpt><trkpt lat="45.70663" lon="11.35402"><ele>208.5</ele><time>2026-04-17T13:51:30.813Z</time></trkpt><trkpt lat="45.7066983" lon="11.3540583"><ele>208.33333333333331</ele><time>2026-04-17T13:52:19.813Z</time></trkpt><trkpt lat="45.7067567" lon="11.354105"><ele>208.16666666666666</ele><time>2026-04-17T13:52:20.813Z</time></trkpt><trkpt lat="45.7068167" lon="11.3541683"><ele>208.0</ele><time>2026-04-17T13:52:21.813Z</time></trkpt><trkpt lat="45.70688" lon="11.354235"><ele>207.75</ele><time>2026-04-17T13:52:22.813Z</time></trkpt><trkpt lat="45.7069467" lon="11.3543233"><ele>207.5</ele><time>2026-04-17T13:52:23.813Z</time></trkpt><trkpt lat="45.7070367" lon="11.35442"><ele>207.25</ele><time>2026-04-17T13:52:24.813Z</time></trkpt><trkpt lat="45.70713" lon="11.3545167"><ele>207.0</ele><time>2026-04-17T13:52:25.813Z</time></trkpt><trkpt lat="45.7072367" lon="11.3546317"><ele>206.5</ele><time>2026-04-17T13:52:26.813Z</time></trkpt><trkpt lat="45.7073467" lon="11.3547467"><ele>206.0</ele><time>2026-04-17T13:52:27.813Z</time></trkpt><trkpt lat="45.70746" lon="11.35486"><ele>205.5</ele><time>2026-04-17T13:52:28.813Z</time></trkpt><trkpt lat="45.7075733" lon="11.3549717"><ele>205.0</ele><time>2026-04-17T13:52:29.813Z</time></trkpt><trkpt lat="45.7076683" lon="11.3550683"><ele>205.0</ele><time>2026-04-17T13:52:30.813Z</time></trkpt><trkpt lat="45.70776" lon="11.35516"><ele>205.0</ele><time>2026-04-17T13:52:31.813Z</time></trkpt><trkpt lat="45.7078433" lon="11.355245"><ele>205.0</ele><time>2026-04-17T13:52:32.813Z</time></trkpt><trkpt lat="45.7079183" lon="11.3553233"><ele>205.0</ele><time>2026-04-17T13:52:33.813Z</time></trkpt><trkpt lat="45.707985" lon="11.355395"><ele>205.0</ele><time>2026-04-17T13:52:34.813Z</time></trkpt><trkpt lat="45.7080433" lon="11.3554483"><ele>204.99999999999997</ele><time>2026-04-17T13:52:35.813Z</time></trkpt><trkpt lat="45.708105" lon="11.355475"><ele>205.0</ele><time>2026-04-17T13:52:36.813Z</time></trkpt><trkpt lat="45.70817" lon="11.3554533"><ele>205.0</ele><time>2026-04-17T13:52:37.813Z</time></trkpt><trkpt lat="45.7082283" lon="11.3553883"><ele>205.0</ele><time>2026-04-17T13:52:38.813Z</time></trkpt><trkpt lat="45.70828" lon="11.355285"><ele>204.99999999999997</ele><time>2026-04-17T13:52:39.813Z</time></trkpt><trkpt lat="45.708325" lon="11.3551733"><ele>205.0</ele><time>2026-04-17T13:52:40.813Z</time></trkpt><trkpt lat="45.7083683" lon="11.3550683"><ele>205.0</ele><time>2026-04-17T13:52:41.812Z</time></trkpt><trkpt lat="45.7084167" lon="11.354965"><ele>205.0</ele><time>2026-04-17T13:52:42.813Z</time></trkpt><trkpt lat="45.70846" lon="11.3548583"><ele>205.0</ele><time>2026-04-17T13:52:43.813Z</time></trkpt><trkpt lat="45.708505" lon="11.354755"><ele>205.0</ele><time>2026-04-17T13:52:44.813Z</time></trkpt><trkpt lat="45.70856" lon="11.35463"><ele>205.0</ele><time>2026-04-17T13:52:45.812Z</time></trkpt><trkpt lat="45.7086117" lon="11.3544983"><ele>204.16666666666666</ele><time>2026-04-17T13:52:46.812Z</time></trkpt><trkpt lat="45.708665" lon="11.3543767"><ele>203.33333333333331</ele><time>2026-04-17T13:52:47.813Z</time></trkpt><trkpt lat="45.7087133" lon="11.35427"><ele>202.5</ele><time>2026-04-17T13:52:48.813Z</time></trkpt><trkpt lat="45.7087583" lon="11.3541833"><ele>201.66666666666669</ele><time>2026-04-17T13:52:49.813Z</time></trkpt><trkpt lat="45.7088217" lon="11.3540767"><ele>200.83333333333334</ele><time>2026-04-17T13:52:51.813Z</time></trkpt><trkpt lat="45.7088967" lon="11.3540167"><ele>200.0</ele><time>2026-04-17T13:52:53.812Z</time></trkpt><trkpt lat="45.7090033" lon="11.354025"><ele>200.00000000000003</ele><time>2026-04-17T13:52:55.813Z</time></trkpt><trkpt lat="45.7090667" lon="11.3540583"><ele>200.0</ele><time>2026-04-17T13:52:56.813Z</time></trkpt><trkpt lat="45.7091383" lon="11.3540967"><ele>200.0</ele><time>2026-04-17T13:52:57.813Z</time></trkpt><trkpt lat="45.7092067" lon="11.35414"><ele>200.0</ele><time>2026-04-17T13:52:58.813Z</time></trkpt><trkpt lat="45.7092717" lon="11.35419"><ele>200.00000000000003</ele><time>2026-04-17T13:52:59.813Z</time></trkpt><trkpt lat="45.7093317" lon="11.3542383"><ele>200.0</ele><time>2026-04-17T13:53:00.813Z</time></trkpt><trkpt lat="45.7094733" lon="11.3543317"><ele>200.00000000000003</ele><time>2026-04-17T13:53:02.813Z</time></trkpt><trkpt lat="45.7095433" lon="11.3543783"><ele>200.0</ele><time>2026-04-17T13:53:03.813Z</time></trkpt><trkpt lat="45.7096067" lon="11.35442"><ele>200.0</ele><time>2026-04-17T13:53:04.813Z</time></trkpt><trkpt lat="45.7096967" lon="11.354475"><ele>200.0</ele><time>2026-04-17T13:53:06.813Z</time></trkpt><trkpt lat="45.7097783" lon="11.354475"><ele>200.00000000000003</ele><time>2026-04-17T13:53:08.813Z</time></trkpt><trkpt lat="45.7098283" lon="11.3543517"><ele>200.0</ele><time>2026-04-17T13:53:10.813Z</time></trkpt><trkpt lat="45.709855" lon="11.354265"><ele>200.00000000000003</ele><time>2026-04-17T13:53:11.813Z</time></trkpt><trkpt lat="45.7098833" lon="11.3541633"><ele>200.0</ele><time>2026-04-17T13:53:12.813Z</time></trkpt><trkpt lat="45.7099183" lon="11.3540583"><ele>200.0</ele><time>2026-04-17T13:53:13.813Z</time></trkpt><trkpt lat="45.7099533" lon="11.3539483"><ele>200.0</ele><time>2026-04-17T13:53:14.813Z</time></trkpt><trkpt lat="45.70999" lon="11.353835"><ele>200.00000000000003</ele><time>2026-04-17T13:53:15.813Z</time></trkpt><trkpt lat="45.7100283" lon="11.3537283"><ele>200.0</ele><time>2026-04-17T13:53:16.813Z</time></trkpt><trkpt lat="45.710075" lon="11.3536217"><ele>199.75</ele><time>2026-04-17T13:53:17.813Z</time></trkpt><trkpt lat="45.710115" lon="11.3535017"><ele>199.5</ele><time>2026-04-17T13:53:18.813Z</time></trkpt><trkpt lat="45.7101867" lon="11.3532683"><ele>199.25</ele><time>2026-04-17T13:53:20.813Z</time></trkpt><trkpt lat="45.7102683" lon="11.3530467"><ele>199.0</ele><time>2026-04-17T13:53:22.813Z</time></trkpt><trkpt lat="45.7103067" lon="11.3529267"><ele>199.0</ele><time>2026-04-17T13:53:23.813Z</time></trkpt><trkpt lat="45.7103483" lon="11.3528017"><ele>199.0</ele><time>2026-04-17T13:53:24.813Z</time></trkpt><trkpt lat="45.7104267" lon="11.3525533"><ele>199.0</ele><time>2026-04-17T13:53:26.813Z</time></trkpt><trkpt lat="45.71046" lon="11.3524233"><ele>199.0</ele><time>2026-04-17T13:53:27.813Z</time></trkpt><trkpt lat="45.7105367" lon="11.3521983"><ele>199.2</ele><time>2026-04-17T13:53:29.813Z</time></trkpt><trkpt lat="45.71057" lon="11.3521033"><ele>199.39999999999998</ele><time>2026-04-17T13:53:30.813Z</time></trkpt><trkpt lat="45.7106217" lon="11.3519883"><ele>199.6</ele><time>2026-04-17T13:53:32.813Z</time></trkpt><trkpt lat="45.7107233" lon="11.3520367"><ele>199.8</ele><time>2026-04-17T13:53:35.813Z</time></trkpt><trkpt lat="45.710795" lon="11.3521033"><ele>200.0</ele><time>2026-04-17T13:53:36.813Z</time></trkpt><trkpt lat="45.710865" lon="11.3522"><ele>200.0</ele><time>2026-04-17T13:53:37.813Z</time></trkpt><trkpt lat="45.7109483" lon="11.3522833"><ele>200.0</ele><time>2026-04-17T13:53:38.813Z</time></trkpt><trkpt lat="45.7110183" lon="11.3523533"><ele>200.0</ele><time>2026-04-17T13:53:39.813Z</time></trkpt><trkpt lat="45.7111333" lon="11.352465"><ele>200.0</ele><time>2026-04-17T13:53:41.813Z</time></trkpt><trkpt lat="45.711225" lon="11.3525417"><ele>200.0</ele><time>2026-04-17T13:53:43.813Z</time></trkpt><trkpt lat="45.7112717" lon="11.3526117"><ele>200.00000000000003</ele><time>2026-04-17T13:53:44.813Z</time></trkpt><trkpt lat="45.7113133" lon="11.35268"><ele>200.0</ele><time>2026-04-17T13:53:45.812Z</time></trkpt><trkpt lat="45.7113933" lon="11.352795"><ele>200.0</ele><time>2026-04-17T13:53:47.812Z</time></trkpt><trkpt lat="45.7114467" lon="11.352865"><ele>200.0</ele><time>2026-04-17T13:53:49.812Z</time></trkpt><trkpt lat="45.7115183" lon="11.3529667"><ele>200.00000000000003</ele><time>2026-04-17T13:53:51.812Z</time></trkpt><trkpt lat="45.7115783" lon="11.3530317"><ele>200.0</ele><time>2026-04-17T13:53:52.812Z</time></trkpt><trkpt lat="45.7116467" lon="11.3531017"><ele>199.8</ele><time>2026-04-17T13:53:53.812Z</time></trkpt><trkpt lat="45.7117183" lon="11.35317"><ele>199.6</ele><time>2026-04-17T13:53:54.812Z</time></trkpt><trkpt lat="45.7117833" lon="11.35323"><ele>199.39999999999998</ele><time>2026-04-17T13:53:55.812Z</time></trkpt><trkpt lat="45.7118817" lon="11.3533517"><ele>199.2</ele><time>2026-04-17T13:53:57.812Z</time></trkpt><trkpt lat="45.71193" lon="11.3534717"><ele>199.0</ele><time>2026-04-17T13:53:59.812Z</time></trkpt><trkpt lat="45.7119983" lon="11.3535083"><ele>199.0</ele><time>2026-04-17T13:54:01.812Z</time></trkpt><trkpt lat="45.71206" lon="11.353385"><ele>199.0</ele><time>2026-04-17T13:54:03.812Z</time></trkpt><trkpt lat="45.7120883" lon="11.3532017"><ele>199.0</ele><time>2026-04-17T13:54:05.812Z</time></trkpt><trkpt lat="45.71211" lon="11.353095"><ele>199.0</ele><time>2026-04-17T13:54:06.811Z</time></trkpt><trkpt lat="45.71217" lon="11.3528683"><ele>199.0</ele><time>2026-04-17T13:54:08.812Z</time></trkpt><trkpt lat="45.7122067" lon="11.3527483"><ele>199.0</ele><time>2026-04-17T13:54:09.812Z</time></trkpt><trkpt lat="45.7122767" lon="11.3524883"><ele>199.0</ele><time>2026-04-17T13:54:11.812Z</time></trkpt><trkpt lat="45.7123583" lon="11.352225"><ele>199.39999999999998</ele><time>2026-04-17T13:54:13.812Z</time></trkpt><trkpt lat="45.7123917" lon="11.3521"><ele>199.8</ele><time>2026-04-17T13:54:14.812Z</time></trkpt><trkpt lat="45.7124267" lon="11.352005"><ele>200.2</ele><time>2026-04-17T13:54:15.812Z</time></trkpt><trkpt lat="45.7124983" lon="11.3518817"><ele>200.60000000000002</ele><time>2026-04-17T13:54:17.812Z</time></trkpt><trkpt lat="45.712575" lon="11.351935"><ele>201.0</ele><time>2026-04-17T13:54:19.812Z</time></trkpt><trkpt lat="45.7127533" lon="11.3521533"><ele>201.0</ele><time>2026-04-17T13:54:21.812Z</time></trkpt><trkpt lat="45.7128617" lon="11.3522567"><ele>201.0</ele><time>2026-04-17T13:54:22.812Z</time></trkpt><trkpt lat="45.71296" lon="11.3523933"><ele>201.0</ele><time>2026-04-17T13:54:23.812Z</time></trkpt><trkpt lat="45.71307" lon="11.3525133"><ele>201.0</ele><time>2026-04-17T13:54:24.812Z</time></trkpt><trkpt lat="45.7132833" lon="11.3527817"><ele>201.0</ele><time>2026-04-17T13:54:26.812Z</time></trkpt><trkpt lat="45.7133983" lon="11.3529"><ele>201.0</ele><time>2026-04-17T13:54:27.811Z</time></trkpt><trkpt lat="45.7135117" lon="11.3530217"><ele>201.0</ele><time>2026-04-17T13:54:28.812Z</time></trkpt><trkpt lat="45.7136217" lon="11.3531367"><ele>201.0</ele><time>2026-04-17T13:54:29.812Z</time></trkpt><trkpt lat="45.7138267" lon="11.3533483"><ele>201.33333333333331</ele><time>2026-04-17T13:54:31.812Z</time></trkpt><trkpt lat="45.7140183" lon="11.3535383"><ele>201.66666666666666</ele><time>2026-04-17T13:54:33.812Z</time></trkpt><trkpt lat="45.7141217" lon="11.3536233"><ele>202.0</ele><time>2026-04-17T13:54:34.812Z</time></trkpt><trkpt lat="45.7142217" lon="11.3537283"><ele>202.0</ele><time>2026-04-17T13:54:35.811Z</time></trkpt><trkpt lat="45.71431" lon="11.353835"><ele>202.0</ele><time>2026-04-17T13:54:36.812Z</time></trkpt><trkpt lat="45.7144067" lon="11.35392"><ele>202.0</ele><time>2026-04-17T13:54:37.812Z</time></trkpt><trkpt lat="45.7144833" lon="11.354015"><ele>202.0</ele><time>2026-04-17T13:54:38.811Z</time></trkpt><trkpt lat="45.7145483" lon="11.354085"><ele>202.0</ele><time>2026-04-17T13:54:39.812Z</time></trkpt><trkpt lat="45.7145983" lon="11.3541433"><ele>202.8</ele><time>2026-04-17T13:54:40.812Z</time></trkpt><trkpt lat="45.7146617" lon="11.3542117"><ele>203.6</ele><time>2026-04-17T13:54:42.812Z</time></trkpt><trkpt lat="45.7146467" lon="11.3543383"><ele>204.4</ele><time>2026-04-17T13:54:45.812Z</time></trkpt><trkpt lat="45.7146017" lon="11.35442"><ele>205.20000000000002</ele><time>2026-04-17T13:54:47.811Z</time></trkpt><trkpt lat="45.7145183" lon="11.3545983"><ele>206.0</ele><time>2026-04-17T13:54:50.812Z</time></trkpt><trkpt lat="45.71446" lon="11.3547633"><ele>205.33333333333334</ele><time>2026-04-17T13:54:52.812Z</time></trkpt><trkpt lat="45.714435" lon="11.3548567"><ele>204.66666666666669</ele><time>2026-04-17T13:54:53.812Z</time></trkpt><trkpt lat="45.7143983" lon="11.35502"><ele>204.0</ele><time>2026-04-17T13:54:55.812Z</time></trkpt><trkpt lat="45.7143667" lon="11.35514"><ele>203.33333333333331</ele><time>2026-04-17T13:54:57.812Z</time></trkpt><trkpt lat="45.7143167" lon="11.3552283"><ele>202.66666666666666</ele><time>2026-04-17T13:55:00.812Z</time></trkpt><trkpt lat="45.7142983" lon="11.35534"><ele>202.0</ele><time>2026-04-17T13:55:07.811Z</time></trkpt><trkpt lat="45.714295" lon="11.35544"><ele>201.99999999999997</ele><time>2026-04-17T13:55:09.812Z</time></trkpt><trkpt lat="45.7142933" lon="11.3555317"><ele>202.0</ele><time>2026-04-17T13:55:12.811Z</time></trkpt><trkpt lat="45.71438" lon="11.3555833"><ele>202.0</ele><time>2026-04-17T13:55:14.812Z</time></trkpt><trkpt lat="45.7145083" lon="11.3556117"><ele>202.0</ele><time>2026-04-17T13:55:16.812Z</time></trkpt><trkpt lat="45.7145767" lon="11.3556333"><ele>201.99999999999997</ele><time>2026-04-17T13:55:17.812Z</time></trkpt><trkpt lat="45.714645" lon="11.3556383"><ele>202.0</ele><time>2026-04-17T13:55:18.811Z</time></trkpt><trkpt lat="45.7147117" lon="11.3556583"><ele>203.49999999999997</ele><time>2026-04-17T13:55:19.812Z</time></trkpt><trkpt lat="45.714825" lon="11.355635"><ele>205.0</ele><time>2026-04-17T13:55:21.812Z</time></trkpt><trkpt lat="45.7148817" lon="11.3555683"><ele>206.5</ele><time>2026-04-17T13:55:22.812Z</time></trkpt><trkpt lat="45.7149317" lon="11.3554733"><ele>208.0</ele><time>2026-04-17T13:55:23.811Z</time></trkpt><trkpt lat="45.714985" lon="11.35538"><ele>209.49999999999997</ele><time>2026-04-17T13:55:24.811Z</time></trkpt><trkpt lat="45.715025" lon="11.3552733"><ele>211.0</ele><time>2026-04-17T13:55:25.812Z</time></trkpt><trkpt lat="45.715065" lon="11.3551633"><ele>211.0</ele><time>2026-04-17T13:55:26.812Z</time></trkpt><trkpt lat="45.7151183" lon="11.3550433"><ele>211.0</ele><time>2026-04-17T13:55:27.812Z</time></trkpt><trkpt lat="45.7152117" lon="11.35477"><ele>211.0</ele><time>2026-04-17T13:55:29.812Z</time></trkpt><trkpt lat="45.71527" lon="11.35464"><ele>211.0</ele><time>2026-04-17T13:55:30.812Z</time></trkpt><trkpt lat="45.7153017" lon="11.3544967"><ele>212.25</ele><time>2026-04-17T13:55:31.811Z</time></trkpt><trkpt lat="45.7153617" lon="11.3543533"><ele>213.5</ele><time>2026-04-17T13:55:32.812Z</time></trkpt><trkpt lat="45.7154217" lon="11.3542233"><ele>214.75</ele><time>2026-04-17T13:55:33.812Z</time></trkpt><trkpt lat="45.7155467" lon="11.3539767"><ele>216.0</ele><time>2026-04-17T13:55:35.812Z</time></trkpt><trkpt lat="45.7156133" lon="11.353855"><ele>216.0</ele><time>2026-04-17T13:55:36.812Z</time></trkpt><trkpt lat="45.71574" lon="11.353675"><ele>216.0</ele><time>2026-04-17T13:55:38.812Z</time></trkpt><trkpt lat="45.7157983" lon="11.35362"><ele>216.0</ele><time>2026-04-17T13:55:39.812Z</time></trkpt><trkpt lat="45.715925" lon="11.3535583"><ele>216.0</ele><time>2026-04-17T13:55:41.811Z</time></trkpt><trkpt lat="45.7160217" lon="11.3535583"><ele>217.60000000000002</ele><time>2026-04-17T13:55:43.812Z</time></trkpt><trkpt lat="45.716105" lon="11.353565"><ele>219.20000000000002</ele><time>2026-04-17T13:55:45.812Z</time></trkpt><trkpt lat="45.7162183" lon="11.35358"><ele>220.79999999999998</ele><time>2026-04-17T13:55:47.812Z</time></trkpt><trkpt lat="45.7163733" lon="11.3536233"><ele>222.39999999999998</ele><time>2026-04-17T13:55:49.812Z</time></trkpt><trkpt lat="45.7164617" lon="11.353625"><ele>224.0</ele><time>2026-04-17T13:55:50.812Z</time></trkpt><trkpt lat="45.7165433" lon="11.3535967"><ele>224.0</ele><time>2026-04-17T13:55:51.812Z</time></trkpt><trkpt lat="45.7166267" lon="11.353535"><ele>223.99999999999997</ele><time>2026-04-17T13:55:52.812Z</time></trkpt><trkpt lat="45.7167033" lon="11.3534517"><ele>223.99999999999997</ele><time>2026-04-17T13:55:53.812Z</time></trkpt><trkpt lat="45.716765" lon="11.353365"><ele>224.0</ele><time>2026-04-17T13:55:54.812Z</time></trkpt><trkpt lat="45.716855" lon="11.3532217"><ele>224.0</ele><time>2026-04-17T13:55:56.812Z</time></trkpt><trkpt lat="45.7169333" lon="11.35314"><ele>225.39999999999998</ele><time>2026-04-17T13:55:58.812Z</time></trkpt><trkpt lat="45.7169833" lon="11.352915"><ele>226.79999999999998</ele><time>2026-04-17T13:56:01.811Z</time></trkpt><trkpt lat="45.7170067" lon="11.3528167"><ele>228.20000000000002</ele><time>2026-04-17T13:56:02.812Z</time></trkpt><trkpt lat="45.7170283" lon="11.3527083"><ele>229.60000000000002</ele><time>2026-04-17T13:56:03.812Z</time></trkpt><trkpt lat="45.7170367" lon="11.352595"><ele>231.0</ele><time>2026-04-17T13:56:04.812Z</time></trkpt><trkpt lat="45.717015" lon="11.352335"><ele>231.66666666666669</ele><time>2026-04-17T13:56:06.812Z</time></trkpt><trkpt lat="45.7169883" lon="11.3521933"><ele>232.33333333333334</ele><time>2026-04-17T13:56:07.812Z</time></trkpt><trkpt lat="45.7169667" lon="11.3519083"><ele>233.0</ele><time>2026-04-17T13:56:09.812Z</time></trkpt><trkpt lat="45.71701" lon="11.351635"><ele>233.0</ele><time>2026-04-17T13:56:11.812Z</time></trkpt><trkpt lat="45.717075" lon="11.351495"><ele>233.0</ele><time>2026-04-17T13:56:12.811Z</time></trkpt><trkpt lat="45.71722" lon="11.351235"><ele>233.0</ele><time>2026-04-17T13:56:14.812Z</time></trkpt><trkpt lat="45.717285" lon="11.35114"><ele>233.0</ele><time>2026-04-17T13:56:15.812Z</time></trkpt><trkpt lat="45.7174117" lon="11.351055"><ele>232.75</ele><time>2026-04-17T13:56:17.812Z</time></trkpt><trkpt lat="45.7175467" lon="11.35113"><ele>232.5</ele><time>2026-04-17T13:56:19.811Z</time></trkpt><trkpt lat="45.7176133" lon="11.3512283"><ele>232.25</ele><time>2026-04-17T13:56:20.811Z</time></trkpt><trkpt lat="45.717685" lon="11.3513683"><ele>232.0</ele><time>2026-04-17T13:56:21.811Z</time></trkpt><trkpt lat="45.7177617" lon="11.3515017"><ele>231.83333333333331</ele><time>2026-04-17T13:56:22.811Z</time></trkpt><trkpt lat="45.7178367" lon="11.3515867"><ele>231.66666666666666</ele><time>2026-04-17T13:56:23.811Z</time></trkpt><trkpt lat="45.717905" lon="11.3516183"><ele>231.5</ele><time>2026-04-17T13:56:24.81Z</time></trkpt><trkpt lat="45.7179717" lon="11.3515817"><ele>231.33333333333331</ele><time>2026-04-17T13:56:25.811Z</time></trkpt><trkpt lat="45.71803" lon="11.3514933"><ele>231.16666666666666</ele><time>2026-04-17T13:56:26.811Z</time></trkpt><trkpt lat="45.7180717" lon="11.3513617"><ele>231.0</ele><time>2026-04-17T13:56:27.811Z</time></trkpt><trkpt lat="45.7180833" lon="11.3510433"><ele>231.66666666666666</ele><time>2026-04-17T13:56:29.811Z</time></trkpt><trkpt lat="45.7180767" lon="11.3508967"><ele>232.33333333333331</ele><time>2026-04-17T13:56:30.81Z</time></trkpt><trkpt lat="45.718075" lon="11.350775"><ele>233.0</ele><time>2026-04-17T13:56:31.81Z</time></trkpt><trkpt lat="45.7180867" lon="11.3506783"><ele>233.66666666666666</ele><time>2026-04-17T13:56:32.811Z</time></trkpt><trkpt lat="45.7181167" lon="11.3505617"><ele>234.33333333333331</ele><time>2026-04-17T13:56:34.811Z</time></trkpt><trkpt lat="45.7181367" lon="11.3504533"><ele>235.0</ele><time>2026-04-17T13:56:36.811Z</time></trkpt><trkpt lat="45.718165" lon="11.3502317"><ele>235.6</ele><time>2026-04-17T13:56:39.811Z</time></trkpt><trkpt lat="45.7181933" lon="11.35015"><ele>236.2</ele><time>2026-04-17T13:56:40.811Z</time></trkpt><trkpt lat="45.7181583" lon="11.350005"><ele>236.8</ele><time>2026-04-17T13:56:43.811Z</time></trkpt><trkpt lat="45.7180983" lon="11.3500917"><ele>237.4</ele><time>2026-04-17T13:56:45.81Z</time></trkpt><trkpt lat="45.7181267" lon="11.3502633"><ele>238.0</ele><time>2026-04-17T13:56:47.811Z</time></trkpt><trkpt lat="45.7181267" lon="11.35042"><ele>238.0</ele><time>2026-04-17T13:56:49.811Z</time></trkpt><trkpt lat="45.718075" lon="11.350515"><ele>238.0</ele><time>2026-04-17T13:56:51.811Z</time></trkpt><trkpt lat="45.718" lon="11.3504483"><ele>238.0</ele><time>2026-04-17T13:56:54.811Z</time></trkpt><trkpt lat="45.7178867" lon="11.3504433"><ele>238.0</ele><time>2026-04-17T13:58:40.811Z</time></trkpt></trkseg></trk></gpx>